<?xml version="1.0" encoding="UTF-8"?>
<gpx version="1.1" creator="https://www.youtrack.es" xsi:schemaLocation="http://www.topografix.com/GPX/1/1 http://www.topografix.com/GPX/1/1/gpx.xsd http://www.garmin.com/xmlschemas/GpxExtensions/v3 http://www.garmin.com/xmlschemas/GpxExtensionsv3.xsd http://www.garmin.com/xmlschemas/TrackPointExtension/v1 http://www.garmin.com/xmlschemas/TrackPointExtensionv1.xsd" xmlns:gpxtpx="http://www.garmin.com/xmlschemas/TrackPointExtension/v1" xmlns:gpxx="http://www.garmin.com/xmlschemas/GpxExtensions/v3" xmlns:xsi="http://www.w3.org/2001/XMLSchema-instance">
  <metadata>
    <link href="https://www.youtrack.es">
      <text>YouTrack.es</text>
    </link>
    <time>2026-05-08T01:59:27Z</time>
  </metadata>
  <trk>
    <src>https://www.youtrack.es</src>
    <link href="https://www.youtrack.es/ruta/1436-as">
      <text>YouTrack.es</text>
    </link>
    <trkseg>
      <trkpt lat="36.67552" lon="-5.052985">
        <ele>1255.007</ele>
        <time>2018-07-28T01:22:09Z</time>
      </trkpt>
      <trkpt lat="36.67552" lon="-5.052985">
        <ele>1255.007</ele>
        <time>2018-07-28T01:22:10Z</time>
      </trkpt>
      <trkpt lat="36.67552" lon="-5.052985">
        <ele>1255.007</ele>
        <time>2018-07-28T01:22:12Z</time>
      </trkpt>
      <trkpt lat="36.67552" lon="-5.052985">
        <ele>1255.007</ele>
        <time>2018-07-28T01:22:15Z</time>
      </trkpt>
      <trkpt lat="36.67535" lon="-5.052742">
        <ele>1259.284</ele>
        <time>2018-07-28T01:22:22Z</time>
      </trkpt>
      <trkpt lat="36.67534" lon="-5.052727">
        <ele>1259.543</ele>
        <time>2018-07-28T01:22:26Z</time>
      </trkpt>
      <trkpt lat="36.67533" lon="-5.052719">
        <ele>1259.691</ele>
        <time>2018-07-28T01:22:28Z</time>
      </trkpt>
      <trkpt lat="36.67539" lon="-5.052693">
        <ele>1259.84</ele>
        <time>2018-07-28T01:22:36Z</time>
      </trkpt>
      <trkpt lat="36.6754" lon="-5.052688">
        <ele>1259.877</ele>
        <time>2018-07-28T01:22:37Z</time>
      </trkpt>
      <trkpt lat="36.6754" lon="-5.052683">
        <ele>1259.936</ele>
        <time>2018-07-28T01:22:38Z</time>
      </trkpt>
      <trkpt lat="36.67543" lon="-5.052633">
        <ele>1260.533</ele>
        <time>2018-07-28T01:22:44Z</time>
      </trkpt>
      <trkpt lat="36.67544" lon="-5.052624">
        <ele>1260.627</ele>
        <time>2018-07-28T01:22:45Z</time>
      </trkpt>
      <trkpt lat="36.67544" lon="-5.052613">
        <ele>1260.778</ele>
        <time>2018-07-28T01:22:46Z</time>
      </trkpt>
      <trkpt lat="36.67546" lon="-5.052579">
        <ele>1261.194</ele>
        <time>2018-07-28T01:22:50Z</time>
      </trkpt>
      <trkpt lat="36.67546" lon="-5.052561">
        <ele>1261.458</ele>
        <time>2018-07-28T01:22:53Z</time>
      </trkpt>
      <trkpt lat="36.67547" lon="-5.052548">
        <ele>1261.616</ele>
        <time>2018-07-28T01:22:56Z</time>
      </trkpt>
      <trkpt lat="36.67547" lon="-5.052508">
        <ele>1262.185</ele>
        <time>2018-07-28T01:23:00Z</time>
      </trkpt>
      <trkpt lat="36.67546" lon="-5.052472">
        <ele>1262.578</ele>
        <time>2018-07-28T01:23:06Z</time>
      </trkpt>
      <trkpt lat="36.67548" lon="-5.052441">
        <ele>1262.791</ele>
        <time>2018-07-28T01:23:10Z</time>
      </trkpt>
      <trkpt lat="36.6755" lon="-5.052415">
        <ele>1262.987</ele>
        <time>2018-07-28T01:23:13Z</time>
      </trkpt>
      <trkpt lat="36.67551" lon="-5.052383">
        <ele>1263.249</ele>
        <time>2018-07-28T01:23:16Z</time>
      </trkpt>
      <trkpt lat="36.67554" lon="-5.052304">
        <ele>1263.967</ele>
        <time>2018-07-28T01:23:23Z</time>
      </trkpt>
      <trkpt lat="36.67556" lon="-5.052272">
        <ele>1264.282</ele>
        <time>2018-07-28T01:23:26Z</time>
      </trkpt>
      <trkpt lat="36.67557" lon="-5.052262">
        <ele>1264.384</ele>
        <time>2018-07-28T01:23:27Z</time>
      </trkpt>
      <trkpt lat="36.67561" lon="-5.052189">
        <ele>1265.183</ele>
        <time>2018-07-28T01:23:34Z</time>
      </trkpt>
      <trkpt lat="36.67561" lon="-5.052173">
        <ele>1265.36</ele>
        <time>2018-07-28T01:23:36Z</time>
      </trkpt>
      <trkpt lat="36.67564" lon="-5.052138">
        <ele>1265.794</ele>
        <time>2018-07-28T01:23:40Z</time>
      </trkpt>
      <trkpt lat="36.67564" lon="-5.05213">
        <ele>1265.889</ele>
        <time>2018-07-28T01:23:41Z</time>
      </trkpt>
      <trkpt lat="36.67565" lon="-5.052122">
        <ele>1265.999</ele>
        <time>2018-07-28T01:23:42Z</time>
      </trkpt>
      <trkpt lat="36.67565" lon="-5.052115">
        <ele>1266.09</ele>
        <time>2018-07-28T01:23:43Z</time>
      </trkpt>
      <trkpt lat="36.67566" lon="-5.052086">
        <ele>1266.459</ele>
        <time>2018-07-28T01:23:46Z</time>
      </trkpt>
      <trkpt lat="36.67567" lon="-5.052056">
        <ele>1266.85</ele>
        <time>2018-07-28T01:23:49Z</time>
      </trkpt>
      <trkpt lat="36.6757" lon="-5.052004">
        <ele>1267.565</ele>
        <time>2018-07-28T01:23:56Z</time>
      </trkpt>
      <trkpt lat="36.6757" lon="-5.052002">
        <ele>1267.605</ele>
        <time>2018-07-28T01:23:57Z</time>
      </trkpt>
      <trkpt lat="36.67574" lon="-5.051959">
        <ele>1268.323</ele>
        <time>2018-07-28T01:24:04Z</time>
      </trkpt>
      <trkpt lat="36.67575" lon="-5.051952">
        <ele>1268.473</ele>
        <time>2018-07-28T01:24:05Z</time>
      </trkpt>
      <trkpt lat="36.67575" lon="-5.051944">
        <ele>1268.599</ele>
        <time>2018-07-28T01:24:06Z</time>
      </trkpt>
      <trkpt lat="36.67577" lon="-5.051927">
        <ele>1268.902</ele>
        <time>2018-07-28T01:24:08Z</time>
      </trkpt>
      <trkpt lat="36.67578" lon="-5.051909">
        <ele>1269.211</ele>
        <time>2018-07-28T01:24:10Z</time>
      </trkpt>
      <trkpt lat="36.67581" lon="-5.051879">
        <ele>1269.785</ele>
        <time>2018-07-28T01:24:13Z</time>
      </trkpt>
      <trkpt lat="36.67582" lon="-5.051871">
        <ele>1269.947</ele>
        <time>2018-07-28T01:24:14Z</time>
      </trkpt>
      <trkpt lat="36.67583" lon="-5.051849">
        <ele>1270.359</ele>
        <time>2018-07-28T01:24:16Z</time>
      </trkpt>
      <trkpt lat="36.67585" lon="-5.051813">
        <ele>1270.612</ele>
        <time>2018-07-28T01:24:20Z</time>
      </trkpt>
      <trkpt lat="36.67586" lon="-5.051803">
        <ele>1270.655</ele>
        <time>2018-07-28T01:24:21Z</time>
      </trkpt>
      <trkpt lat="36.6759" lon="-5.051765">
        <ele>1270.766</ele>
        <time>2018-07-28T01:24:26Z</time>
      </trkpt>
      <trkpt lat="36.67592" lon="-5.051737">
        <ele>1270.898</ele>
        <time>2018-07-28T01:24:30Z</time>
      </trkpt>
      <trkpt lat="36.67595" lon="-5.051705">
        <ele>1271.057</ele>
        <time>2018-07-28T01:24:34Z</time>
      </trkpt>
      <trkpt lat="36.67595" lon="-5.051695">
        <ele>1271.167</ele>
        <time>2018-07-28T01:24:35Z</time>
      </trkpt>
      <trkpt lat="36.67596" lon="-5.051684">
        <ele>1271.247</ele>
        <time>2018-07-28T01:24:36Z</time>
      </trkpt>
      <trkpt lat="36.67599" lon="-5.051602">
        <ele>1271.057</ele>
        <time>2018-07-28T01:24:43Z</time>
      </trkpt>
      <trkpt lat="36.67601" lon="-5.051566">
        <ele>1270.831</ele>
        <time>2018-07-28T01:24:46Z</time>
      </trkpt>
      <trkpt lat="36.67604" lon="-5.051533">
        <ele>1270.657</ele>
        <time>2018-07-28T01:24:49Z</time>
      </trkpt>
      <trkpt lat="36.67607" lon="-5.051445">
        <ele>1270.58</ele>
        <time>2018-07-28T01:24:56Z</time>
      </trkpt>
      <trkpt lat="36.67609" lon="-5.051391">
        <ele>1270.608</ele>
        <time>2018-07-28T01:25:00Z</time>
      </trkpt>
      <trkpt lat="36.67612" lon="-5.051307">
        <ele>1270.816</ele>
        <time>2018-07-28T01:25:06Z</time>
      </trkpt>
      <trkpt lat="36.67617" lon="-5.051241">
        <ele>1271.161</ele>
        <time>2018-07-28T01:25:12Z</time>
      </trkpt>
      <trkpt lat="36.67618" lon="-5.051231">
        <ele>1271.233</ele>
        <time>2018-07-28T01:25:13Z</time>
      </trkpt>
      <trkpt lat="36.6762" lon="-5.051194">
        <ele>1271.52</ele>
        <time>2018-07-28T01:25:16Z</time>
      </trkpt>
      <trkpt lat="36.67627" lon="-5.051088">
        <ele>1272.655</ele>
        <time>2018-07-28T01:25:26Z</time>
      </trkpt>
      <trkpt lat="36.67628" lon="-5.051075">
        <ele>1272.821</ele>
        <time>2018-07-28T01:25:27Z</time>
      </trkpt>
      <trkpt lat="36.67633" lon="-5.05097">
        <ele>1274.368</ele>
        <time>2018-07-28T01:25:36Z</time>
      </trkpt>
      <trkpt lat="36.67636" lon="-5.050934">
        <ele>1275.032</ele>
        <time>2018-07-28T01:25:39Z</time>
      </trkpt>
      <trkpt lat="36.67637" lon="-5.050923">
        <ele>1275.302</ele>
        <time>2018-07-28T01:25:40Z</time>
      </trkpt>
      <trkpt lat="36.67642" lon="-5.050878">
        <ele>1276.527</ele>
        <time>2018-07-28T01:25:46Z</time>
      </trkpt>
      <trkpt lat="36.67645" lon="-5.050869">
        <ele>1277.034</ele>
        <time>2018-07-28T01:25:49Z</time>
      </trkpt>
      <trkpt lat="36.67646" lon="-5.050868">
        <ele>1277.213</ele>
        <time>2018-07-28T01:25:50Z</time>
      </trkpt>
      <trkpt lat="36.67652" lon="-5.050871">
        <ele>1278.047</ele>
        <time>2018-07-28T01:25:56Z</time>
      </trkpt>
      <trkpt lat="36.67658" lon="-5.050906">
        <ele>1278.264</ele>
        <time>2018-07-28T01:26:03Z</time>
      </trkpt>
      <trkpt lat="36.67661" lon="-5.050916">
        <ele>1278.469</ele>
        <time>2018-07-28T01:26:06Z</time>
      </trkpt>
      <trkpt lat="36.67665" lon="-5.050932">
        <ele>1278.677</ele>
        <time>2018-07-28T01:26:10Z</time>
      </trkpt>
      <trkpt lat="36.6767" lon="-5.050937">
        <ele>1279.005</ele>
        <time>2018-07-28T01:26:14Z</time>
      </trkpt>
      <trkpt lat="36.6767" lon="-5.050937">
        <ele>1279.068</ele>
        <time>2018-07-28T01:26:15Z</time>
      </trkpt>
      <trkpt lat="36.67672" lon="-5.050938">
        <ele>1279.173</ele>
        <time>2018-07-28T01:26:16Z</time>
      </trkpt>
      <trkpt lat="36.67679" lon="-5.05093">
        <ele>1279.927</ele>
        <time>2018-07-28T01:26:22Z</time>
      </trkpt>
      <trkpt lat="36.6768" lon="-5.050926">
        <ele>1280.112</ele>
        <time>2018-07-28T01:26:23Z</time>
      </trkpt>
      <trkpt lat="36.67682" lon="-5.050907">
        <ele>1280.754</ele>
        <time>2018-07-28T01:26:26Z</time>
      </trkpt>
      <trkpt lat="36.67686" lon="-5.050877">
        <ele>1281.808</ele>
        <time>2018-07-28T01:26:31Z</time>
      </trkpt>
      <trkpt lat="36.67691" lon="-5.050833">
        <ele>1283.305</ele>
        <time>2018-07-28T01:26:36Z</time>
      </trkpt>
      <trkpt lat="36.67692" lon="-5.050827">
        <ele>1283.51</ele>
        <time>2018-07-28T01:26:37Z</time>
      </trkpt>
      <trkpt lat="36.67693" lon="-5.050821">
        <ele>1283.681</ele>
        <time>2018-07-28T01:26:38Z</time>
      </trkpt>
      <trkpt lat="36.67696" lon="-5.050796">
        <ele>1284.466</ele>
        <time>2018-07-28T01:26:42Z</time>
      </trkpt>
      <trkpt lat="36.67699" lon="-5.050786">
        <ele>1284.916</ele>
        <time>2018-07-28T01:26:45Z</time>
      </trkpt>
      <trkpt lat="36.677" lon="-5.050784">
        <ele>1285.031</ele>
        <time>2018-07-28T01:26:46Z</time>
      </trkpt>
      <trkpt lat="36.67701" lon="-5.050783">
        <ele>1285.17</ele>
        <time>2018-07-28T01:26:47Z</time>
      </trkpt>
      <trkpt lat="36.67702" lon="-5.050784">
        <ele>1285.235</ele>
        <time>2018-07-28T01:26:48Z</time>
      </trkpt>
      <trkpt lat="36.67707" lon="-5.050801">
        <ele>1285.493</ele>
        <time>2018-07-28T01:26:53Z</time>
      </trkpt>
      <trkpt lat="36.67709" lon="-5.050808">
        <ele>1285.591</ele>
        <time>2018-07-28T01:26:55Z</time>
      </trkpt>
      <trkpt lat="36.6771" lon="-5.050816">
        <ele>1285.548</ele>
        <time>2018-07-28T01:26:56Z</time>
      </trkpt>
      <trkpt lat="36.67714" lon="-5.050845">
        <ele>1285.246</ele>
        <time>2018-07-28T01:27:00Z</time>
      </trkpt>
      <trkpt lat="36.6772" lon="-5.050873">
        <ele>1284.998</ele>
        <time>2018-07-28T01:27:06Z</time>
      </trkpt>
      <trkpt lat="36.67723" lon="-5.050885">
        <ele>1284.882</ele>
        <time>2018-07-28T01:27:09Z</time>
      </trkpt>
      <trkpt lat="36.67726" lon="-5.050894">
        <ele>1284.904</ele>
        <time>2018-07-28T01:27:12Z</time>
      </trkpt>
      <trkpt lat="36.67728" lon="-5.0509">
        <ele>1284.922</ele>
        <time>2018-07-28T01:27:14Z</time>
      </trkpt>
      <trkpt lat="36.67729" lon="-5.0509">
        <ele>1284.989</ele>
        <time>2018-07-28T01:27:15Z</time>
      </trkpt>
      <trkpt lat="36.6773" lon="-5.050897">
        <ele>1285.174</ele>
        <time>2018-07-28T01:27:16Z</time>
      </trkpt>
      <trkpt lat="36.67731" lon="-5.050899">
        <ele>1285.251</ele>
        <time>2018-07-28T01:27:17Z</time>
      </trkpt>
      <trkpt lat="36.67738" lon="-5.050914">
        <ele>1285.362</ele>
        <time>2018-07-28T01:27:23Z</time>
      </trkpt>
      <trkpt lat="36.67741" lon="-5.050916">
        <ele>1285.582</ele>
        <time>2018-07-28T01:27:26Z</time>
      </trkpt>
      <trkpt lat="36.67745" lon="-5.050899">
        <ele>1286.419</ele>
        <time>2018-07-28T01:27:29Z</time>
      </trkpt>
      <trkpt lat="36.67748" lon="-5.050891">
        <ele>1286.946</ele>
        <time>2018-07-28T01:27:31Z</time>
      </trkpt>
      <trkpt lat="36.6775" lon="-5.050881">
        <ele>1287.479</ele>
        <time>2018-07-28T01:27:33Z</time>
      </trkpt>
      <trkpt lat="36.67752" lon="-5.050867">
        <ele>1288.16</ele>
        <time>2018-07-28T01:27:35Z</time>
      </trkpt>
      <trkpt lat="36.67753" lon="-5.050861">
        <ele>1288.499</ele>
        <time>2018-07-28T01:27:36Z</time>
      </trkpt>
      <trkpt lat="36.67755" lon="-5.050852">
        <ele>1289.022</ele>
        <time>2018-07-28T01:27:38Z</time>
      </trkpt>
      <trkpt lat="36.67756" lon="-5.050848">
        <ele>1289.282</ele>
        <time>2018-07-28T01:27:39Z</time>
      </trkpt>
      <trkpt lat="36.67757" lon="-5.050849">
        <ele>1289.344</ele>
        <time>2018-07-28T01:27:40Z</time>
      </trkpt>
      <trkpt lat="36.67759" lon="-5.050843">
        <ele>1289.818</ele>
        <time>2018-07-28T01:27:42Z</time>
      </trkpt>
      <trkpt lat="36.67764" lon="-5.050836">
        <ele>1290.535</ele>
        <time>2018-07-28T01:27:46Z</time>
      </trkpt>
      <trkpt lat="36.67765" lon="-5.050834">
        <ele>1290.733</ele>
        <time>2018-07-28T01:27:47Z</time>
      </trkpt>
      <trkpt lat="36.67772" lon="-5.05082">
        <ele>1292.013</ele>
        <time>2018-07-28T01:27:53Z</time>
      </trkpt>
      <trkpt lat="36.67773" lon="-5.050817">
        <ele>1292.291</ele>
        <time>2018-07-28T01:27:54Z</time>
      </trkpt>
      <trkpt lat="36.67775" lon="-5.050816">
        <ele>1292.555</ele>
        <time>2018-07-28T01:27:56Z</time>
      </trkpt>
      <trkpt lat="36.67777" lon="-5.050815">
        <ele>1292.82</ele>
        <time>2018-07-28T01:27:58Z</time>
      </trkpt>
      <trkpt lat="36.6778" lon="-5.050813">
        <ele>1293.304</ele>
        <time>2018-07-28T01:28:01Z</time>
      </trkpt>
      <trkpt lat="36.67786" lon="-5.050812">
        <ele>1294.009</ele>
        <time>2018-07-28T01:28:06Z</time>
      </trkpt>
      <trkpt lat="36.67791" lon="-5.050812">
        <ele>1294.667</ele>
        <time>2018-07-28T01:28:11Z</time>
      </trkpt>
      <trkpt lat="36.67793" lon="-5.050814">
        <ele>1294.771</ele>
        <time>2018-07-28T01:28:12Z</time>
      </trkpt>
      <trkpt lat="36.67797" lon="-5.050833">
        <ele>1294.609</ele>
        <time>2018-07-28T01:28:16Z</time>
      </trkpt>
      <trkpt lat="36.678" lon="-5.050838">
        <ele>1294.833</ele>
        <time>2018-07-28T01:28:19Z</time>
      </trkpt>
      <trkpt lat="36.67801" lon="-5.050839">
        <ele>1294.989</ele>
        <time>2018-07-28T01:28:21Z</time>
      </trkpt>
      <trkpt lat="36.67803" lon="-5.050845">
        <ele>1294.99</ele>
        <time>2018-07-28T01:28:23Z</time>
      </trkpt>
      <trkpt lat="36.67806" lon="-5.050844">
        <ele>1295.433</ele>
        <time>2018-07-28T01:28:26Z</time>
      </trkpt>
      <trkpt lat="36.67813" lon="-5.050846">
        <ele>1296.16</ele>
        <time>2018-07-28T01:28:33Z</time>
      </trkpt>
      <trkpt lat="36.67814" lon="-5.050849">
        <ele>1296.216</ele>
        <time>2018-07-28T01:28:34Z</time>
      </trkpt>
      <trkpt lat="36.67816" lon="-5.05085">
        <ele>1296.465</ele>
        <time>2018-07-28T01:28:36Z</time>
      </trkpt>
      <trkpt lat="36.67818" lon="-5.05085">
        <ele>1296.742</ele>
        <time>2018-07-28T01:28:38Z</time>
      </trkpt>
      <trkpt lat="36.67828" lon="-5.050883">
        <ele>1297.024</ele>
        <time>2018-07-28T01:28:46Z</time>
      </trkpt>
      <trkpt lat="36.67833" lon="-5.050898">
        <ele>1297.165</ele>
        <time>2018-07-28T01:28:50Z</time>
      </trkpt>
      <trkpt lat="36.67836" lon="-5.050908">
        <ele>1297.343</ele>
        <time>2018-07-28T01:28:52Z</time>
      </trkpt>
      <trkpt lat="36.67838" lon="-5.050921">
        <ele>1297.325</ele>
        <time>2018-07-28T01:28:54Z</time>
      </trkpt>
      <trkpt lat="36.6784" lon="-5.050933">
        <ele>1297.4</ele>
        <time>2018-07-28T01:28:56Z</time>
      </trkpt>
      <trkpt lat="36.67849" lon="-5.050978">
        <ele>1297.684</ele>
        <time>2018-07-28T01:29:04Z</time>
      </trkpt>
      <trkpt lat="36.6785" lon="-5.050982">
        <ele>1297.778</ele>
        <time>2018-07-28T01:29:05Z</time>
      </trkpt>
      <trkpt lat="36.6785" lon="-5.050988">
        <ele>1297.738</ele>
        <time>2018-07-28T01:29:06Z</time>
      </trkpt>
      <trkpt lat="36.67861" lon="-5.051044">
        <ele>1298.029</ele>
        <time>2018-07-28T01:29:16Z</time>
      </trkpt>
      <trkpt lat="36.67862" lon="-5.051047">
        <ele>1298.146</ele>
        <time>2018-07-28T01:29:17Z</time>
      </trkpt>
      <trkpt lat="36.6787" lon="-5.051083">
        <ele>1298.5</ele>
        <time>2018-07-28T01:29:24Z</time>
      </trkpt>
      <trkpt lat="36.67873" lon="-5.051087">
        <ele>1298.786</ele>
        <time>2018-07-28T01:29:26Z</time>
      </trkpt>
      <trkpt lat="36.67874" lon="-5.051088">
        <ele>1298.956</ele>
        <time>2018-07-28T01:29:27Z</time>
      </trkpt>
      <trkpt lat="36.67876" lon="-5.051088">
        <ele>1299.352</ele>
        <time>2018-07-28T01:29:29Z</time>
      </trkpt>
      <trkpt lat="36.67879" lon="-5.051089">
        <ele>1299.917</ele>
        <time>2018-07-28T01:29:32Z</time>
      </trkpt>
      <trkpt lat="36.67884" lon="-5.051084">
        <ele>1300.846</ele>
        <time>2018-07-28T01:29:36Z</time>
      </trkpt>
      <trkpt lat="36.67889" lon="-5.051102">
        <ele>1301.108</ele>
        <time>2018-07-28T01:29:41Z</time>
      </trkpt>
      <trkpt lat="36.67892" lon="-5.051111">
        <ele>1301.368</ele>
        <time>2018-07-28T01:29:44Z</time>
      </trkpt>
      <trkpt lat="36.67894" lon="-5.051122">
        <ele>1301.44</ele>
        <time>2018-07-28T01:29:46Z</time>
      </trkpt>
      <trkpt lat="36.67896" lon="-5.051131">
        <ele>1301.515</ele>
        <time>2018-07-28T01:29:48Z</time>
      </trkpt>
      <trkpt lat="36.679" lon="-5.051147">
        <ele>1301.821</ele>
        <time>2018-07-28T01:29:53Z</time>
      </trkpt>
      <trkpt lat="36.67901" lon="-5.051152">
        <ele>1301.796</ele>
        <time>2018-07-28T01:29:54Z</time>
      </trkpt>
      <trkpt lat="36.67903" lon="-5.05116">
        <ele>1301.896</ele>
        <time>2018-07-28T01:29:56Z</time>
      </trkpt>
      <trkpt lat="36.67905" lon="-5.051167">
        <ele>1302.074</ele>
        <time>2018-07-28T01:29:58Z</time>
      </trkpt>
      <trkpt lat="36.67909" lon="-5.051179">
        <ele>1302.369</ele>
        <time>2018-07-28T01:30:02Z</time>
      </trkpt>
      <trkpt lat="36.67911" lon="-5.051189">
        <ele>1302.395</ele>
        <time>2018-07-28T01:30:04Z</time>
      </trkpt>
      <trkpt lat="36.67913" lon="-5.051198">
        <ele>1302.512</ele>
        <time>2018-07-28T01:30:06Z</time>
      </trkpt>
      <trkpt lat="36.67916" lon="-5.051208">
        <ele>1302.729</ele>
        <time>2018-07-28T01:30:09Z</time>
      </trkpt>
      <trkpt lat="36.67921" lon="-5.051233">
        <ele>1302.573</ele>
        <time>2018-07-28T01:30:14Z</time>
      </trkpt>
      <trkpt lat="36.67924" lon="-5.05124">
        <ele>1302.635</ele>
        <time>2018-07-28T01:30:16Z</time>
      </trkpt>
      <trkpt lat="36.67925" lon="-5.051245">
        <ele>1302.621</ele>
        <time>2018-07-28T01:30:17Z</time>
      </trkpt>
      <trkpt lat="36.67931" lon="-5.05127">
        <ele>1302.676</ele>
        <time>2018-07-28T01:30:23Z</time>
      </trkpt>
      <trkpt lat="36.67933" lon="-5.051277">
        <ele>1302.721</ele>
        <time>2018-07-28T01:30:25Z</time>
      </trkpt>
      <trkpt lat="36.67934" lon="-5.051279">
        <ele>1302.814</ele>
        <time>2018-07-28T01:30:26Z</time>
      </trkpt>
      <trkpt lat="36.67937" lon="-5.051293">
        <ele>1302.889</ele>
        <time>2018-07-28T01:30:29Z</time>
      </trkpt>
      <trkpt lat="36.67945" lon="-5.051321">
        <ele>1303.137</ele>
        <time>2018-07-28T01:30:36Z</time>
      </trkpt>
      <trkpt lat="36.67946" lon="-5.051324">
        <ele>1303.222</ele>
        <time>2018-07-28T01:30:37Z</time>
      </trkpt>
      <trkpt lat="36.67947" lon="-5.05133">
        <ele>1303.176</ele>
        <time>2018-07-28T01:30:38Z</time>
      </trkpt>
      <trkpt lat="36.67951" lon="-5.051355">
        <ele>1303.174</ele>
        <time>2018-07-28T01:30:42Z</time>
      </trkpt>
      <trkpt lat="36.67955" lon="-5.051379">
        <ele>1303.281</ele>
        <time>2018-07-28T01:30:46Z</time>
      </trkpt>
      <trkpt lat="36.67962" lon="-5.051404">
        <ele>1303.767</ele>
        <time>2018-07-28T01:30:52Z</time>
      </trkpt>
      <trkpt lat="36.67968" lon="-5.051405">
        <ele>1304.555</ele>
        <time>2018-07-28T01:30:56Z</time>
      </trkpt>
      <trkpt lat="36.67968" lon="-5.051405">
        <ele>1304.671</ele>
        <time>2018-07-28T01:30:57Z</time>
      </trkpt>
      <trkpt lat="36.67978" lon="-5.051406">
        <ele>1306.038</ele>
        <time>2018-07-28T01:31:05Z</time>
      </trkpt>
      <trkpt lat="36.67978" lon="-5.051401">
        <ele>1306.238</ele>
        <time>2018-07-28T01:31:06Z</time>
      </trkpt>
      <trkpt lat="36.67989" lon="-5.051324">
        <ele>1308.985</ele>
        <time>2018-07-28T01:31:16Z</time>
      </trkpt>
      <trkpt lat="36.6799" lon="-5.05129">
        <ele>1309.754</ele>
        <time>2018-07-28T01:31:19Z</time>
      </trkpt>
      <trkpt lat="36.67996" lon="-5.051223">
        <ele>1311.426</ele>
        <time>2018-07-28T01:31:26Z</time>
      </trkpt>
      <trkpt lat="36.67999" lon="-5.051183">
        <ele>1312.263</ele>
        <time>2018-07-28T01:31:30Z</time>
      </trkpt>
      <trkpt lat="36.68002" lon="-5.051152">
        <ele>1313.265</ele>
        <time>2018-07-28T01:31:33Z</time>
      </trkpt>
      <trkpt lat="36.68003" lon="-5.051143">
        <ele>1313.657</ele>
        <time>2018-07-28T01:31:34Z</time>
      </trkpt>
      <trkpt lat="36.68005" lon="-5.051126">
        <ele>1314.318</ele>
        <time>2018-07-28T01:31:36Z</time>
      </trkpt>
      <trkpt lat="36.68007" lon="-5.051107">
        <ele>1314.979</ele>
        <time>2018-07-28T01:31:38Z</time>
      </trkpt>
      <trkpt lat="36.68011" lon="-5.051067">
        <ele>1316.252</ele>
        <time>2018-07-28T01:31:42Z</time>
      </trkpt>
      <trkpt lat="36.68013" lon="-5.051043">
        <ele>1317.048</ele>
        <time>2018-07-28T01:31:45Z</time>
      </trkpt>
      <trkpt lat="36.68015" lon="-5.051025">
        <ele>1317.601</ele>
        <time>2018-07-28T01:31:47Z</time>
      </trkpt>
      <trkpt lat="36.68016" lon="-5.051005">
        <ele>1317.995</ele>
        <time>2018-07-28T01:31:49Z</time>
      </trkpt>
      <trkpt lat="36.68018" lon="-5.050963">
        <ele>1318.683</ele>
        <time>2018-07-28T01:31:53Z</time>
      </trkpt>
      <trkpt lat="36.68019" lon="-5.050936">
        <ele>1318.948</ele>
        <time>2018-07-28T01:31:55Z</time>
      </trkpt>
      <trkpt lat="36.68019" lon="-5.050924">
        <ele>1319.17</ele>
        <time>2018-07-28T01:31:56Z</time>
      </trkpt>
      <trkpt lat="36.6802" lon="-5.050911">
        <ele>1319.325</ele>
        <time>2018-07-28T01:31:57Z</time>
      </trkpt>
      <trkpt lat="36.68021" lon="-5.050885">
        <ele>1319.625</ele>
        <time>2018-07-28T01:31:59Z</time>
      </trkpt>
      <trkpt lat="36.68022" lon="-5.050863">
        <ele>1319.95</ele>
        <time>2018-07-28T01:32:01Z</time>
      </trkpt>
      <trkpt lat="36.68025" lon="-5.050805">
        <ele>1321.027</ele>
        <time>2018-07-28T01:32:07Z</time>
      </trkpt>
      <trkpt lat="36.68026" lon="-5.050784">
        <ele>1321.562</ele>
        <time>2018-07-28T01:32:09Z</time>
      </trkpt>
      <trkpt lat="36.68027" lon="-5.050773">
        <ele>1321.83</ele>
        <time>2018-07-28T01:32:10Z</time>
      </trkpt>
      <trkpt lat="36.68028" lon="-5.050753">
        <ele>1322.278</ele>
        <time>2018-07-28T01:32:12Z</time>
      </trkpt>
      <trkpt lat="36.68029" lon="-5.05073">
        <ele>1322.755</ele>
        <time>2018-07-28T01:32:14Z</time>
      </trkpt>
      <trkpt lat="36.6803" lon="-5.050718">
        <ele>1323.024</ele>
        <time>2018-07-28T01:32:15Z</time>
      </trkpt>
      <trkpt lat="36.68031" lon="-5.050708">
        <ele>1323.295</ele>
        <time>2018-07-28T01:32:16Z</time>
      </trkpt>
      <trkpt lat="36.68032" lon="-5.050697">
        <ele>1323.492</ele>
        <time>2018-07-28T01:32:17Z</time>
      </trkpt>
      <trkpt lat="36.68033" lon="-5.050663">
        <ele>1324.082</ele>
        <time>2018-07-28T01:32:20Z</time>
      </trkpt>
      <trkpt lat="36.68033" lon="-5.050653">
        <ele>1324.256</ele>
        <time>2018-07-28T01:32:21Z</time>
      </trkpt>
      <trkpt lat="36.68034" lon="-5.050642">
        <ele>1324.512</ele>
        <time>2018-07-28T01:32:22Z</time>
      </trkpt>
      <trkpt lat="36.68037" lon="-5.050614">
        <ele>1325.113</ele>
        <time>2018-07-28T01:32:25Z</time>
      </trkpt>
      <trkpt lat="36.6804" lon="-5.050609">
        <ele>1325.394</ele>
        <time>2018-07-28T01:32:27Z</time>
      </trkpt>
      <trkpt lat="36.68041" lon="-5.050607">
        <ele>1325.511</ele>
        <time>2018-07-28T01:32:28Z</time>
      </trkpt>
      <trkpt lat="36.68043" lon="-5.050607">
        <ele>1325.667</ele>
        <time>2018-07-28T01:32:29Z</time>
      </trkpt>
      <trkpt lat="36.68046" lon="-5.050613">
        <ele>1325.859</ele>
        <time>2018-07-28T01:32:32Z</time>
      </trkpt>
      <trkpt lat="36.68047" lon="-5.050619">
        <ele>1325.861</ele>
        <time>2018-07-28T01:32:33Z</time>
      </trkpt>
      <trkpt lat="36.68048" lon="-5.050623">
        <ele>1325.921</ele>
        <time>2018-07-28T01:32:34Z</time>
      </trkpt>
      <trkpt lat="36.6805" lon="-5.050632">
        <ele>1326.036</ele>
        <time>2018-07-28T01:32:36Z</time>
      </trkpt>
      <trkpt lat="36.68051" lon="-5.050638">
        <ele>1326.084</ele>
        <time>2018-07-28T01:32:37Z</time>
      </trkpt>
      <trkpt lat="36.68053" lon="-5.050653">
        <ele>1326.098</ele>
        <time>2018-07-28T01:32:39Z</time>
      </trkpt>
      <trkpt lat="36.68055" lon="-5.050682">
        <ele>1326.089</ele>
        <time>2018-07-28T01:32:42Z</time>
      </trkpt>
      <trkpt lat="36.68056" lon="-5.050706">
        <ele>1326.07</ele>
        <time>2018-07-28T01:32:44Z</time>
      </trkpt>
      <trkpt lat="36.68057" lon="-5.050743">
        <ele>1325.888</ele>
        <time>2018-07-28T01:32:47Z</time>
      </trkpt>
      <trkpt lat="36.68057" lon="-5.050756">
        <ele>1325.796</ele>
        <time>2018-07-28T01:32:48Z</time>
      </trkpt>
      <trkpt lat="36.68058" lon="-5.050851">
        <ele>1325.445</ele>
        <time>2018-07-28T01:32:55Z</time>
      </trkpt>
      <trkpt lat="36.68058" lon="-5.050882">
        <ele>1325.605</ele>
        <time>2018-07-28T01:32:57Z</time>
      </trkpt>
      <trkpt lat="36.68058" lon="-5.050898">
        <ele>1325.627</ele>
        <time>2018-07-28T01:32:58Z</time>
      </trkpt>
      <trkpt lat="36.68057" lon="-5.050941">
        <ele>1325.708</ele>
        <time>2018-07-28T01:33:01Z</time>
      </trkpt>
      <trkpt lat="36.68056" lon="-5.050972">
        <ele>1325.642</ele>
        <time>2018-07-28T01:33:03Z</time>
      </trkpt>
      <trkpt lat="36.68054" lon="-5.05102">
        <ele>1325.469</ele>
        <time>2018-07-28T01:33:07Z</time>
      </trkpt>
      <trkpt lat="36.68053" lon="-5.051038">
        <ele>1325.298</ele>
        <time>2018-07-28T01:33:09Z</time>
      </trkpt>
      <trkpt lat="36.6805" lon="-5.051094">
        <ele>1324.975</ele>
        <time>2018-07-28T01:33:14Z</time>
      </trkpt>
      <trkpt lat="36.68049" lon="-5.051138">
        <ele>1324.73</ele>
        <time>2018-07-28T01:33:17Z</time>
      </trkpt>
      <trkpt lat="36.68046" lon="-5.051192">
        <ele>1324.066</ele>
        <time>2018-07-28T01:33:21Z</time>
      </trkpt>
      <trkpt lat="36.68044" lon="-5.051219">
        <ele>1323.696</ele>
        <time>2018-07-28T01:33:23Z</time>
      </trkpt>
      <trkpt lat="36.68043" lon="-5.051248">
        <ele>1323.3</ele>
        <time>2018-07-28T01:33:25Z</time>
      </trkpt>
      <trkpt lat="36.68042" lon="-5.051264">
        <ele>1323.198</ele>
        <time>2018-07-28T01:33:26Z</time>
      </trkpt>
      <trkpt lat="36.68041" lon="-5.051277">
        <ele>1322.875</ele>
        <time>2018-07-28T01:33:27Z</time>
      </trkpt>
      <trkpt lat="36.6804" lon="-5.051305">
        <ele>1322.536</ele>
        <time>2018-07-28T01:33:29Z</time>
      </trkpt>
      <trkpt lat="36.68039" lon="-5.051331">
        <ele>1322.063</ele>
        <time>2018-07-28T01:33:31Z</time>
      </trkpt>
      <trkpt lat="36.68037" lon="-5.051371">
        <ele>1321.423</ele>
        <time>2018-07-28T01:33:34Z</time>
      </trkpt>
      <trkpt lat="36.68035" lon="-5.05141">
        <ele>1320.863</ele>
        <time>2018-07-28T01:33:37Z</time>
      </trkpt>
      <trkpt lat="36.68035" lon="-5.051423">
        <ele>1320.71</ele>
        <time>2018-07-28T01:33:38Z</time>
      </trkpt>
      <trkpt lat="36.6803" lon="-5.051541">
        <ele>1318.766</ele>
        <time>2018-07-28T01:33:47Z</time>
      </trkpt>
      <trkpt lat="36.6803" lon="-5.051554">
        <ele>1318.576</ele>
        <time>2018-07-28T01:33:48Z</time>
      </trkpt>
      <trkpt lat="36.68026" lon="-5.051677">
        <ele>1316.428</ele>
        <time>2018-07-28T01:33:57Z</time>
      </trkpt>
      <trkpt lat="36.68025" lon="-5.051691">
        <ele>1316.255</ele>
        <time>2018-07-28T01:33:58Z</time>
      </trkpt>
      <trkpt lat="36.68024" lon="-5.051753">
        <ele>1315.558</ele>
        <time>2018-07-28T01:34:03Z</time>
      </trkpt>
      <trkpt lat="36.68022" lon="-5.051788">
        <ele>1314.894</ele>
        <time>2018-07-28T01:34:06Z</time>
      </trkpt>
      <trkpt lat="36.68022" lon="-5.0518">
        <ele>1314.88</ele>
        <time>2018-07-28T01:34:07Z</time>
      </trkpt>
      <trkpt lat="36.6802" lon="-5.051881">
        <ele>1314.004</ele>
        <time>2018-07-28T01:34:13Z</time>
      </trkpt>
      <trkpt lat="36.6802" lon="-5.051932">
        <ele>1313.787</ele>
        <time>2018-07-28T01:34:17Z</time>
      </trkpt>
      <trkpt lat="36.68019" lon="-5.05199">
        <ele>1313.406</ele>
        <time>2018-07-28T01:34:21Z</time>
      </trkpt>
      <trkpt lat="36.68019" lon="-5.05208">
        <ele>1313.454</ele>
        <time>2018-07-28T01:34:27Z</time>
      </trkpt>
      <trkpt lat="36.6802" lon="-5.052126">
        <ele>1313.555</ele>
        <time>2018-07-28T01:34:30Z</time>
      </trkpt>
      <trkpt lat="36.68021" lon="-5.052223">
        <ele>1313.905</ele>
        <time>2018-07-28T01:34:37Z</time>
      </trkpt>
      <trkpt lat="36.68022" lon="-5.052262">
        <ele>1314.325</ele>
        <time>2018-07-28T01:34:40Z</time>
      </trkpt>
      <trkpt lat="36.68024" lon="-5.052337">
        <ele>1315.169</ele>
        <time>2018-07-28T01:34:47Z</time>
      </trkpt>
      <trkpt lat="36.68024" lon="-5.05235">
        <ele>1315.153</ele>
        <time>2018-07-28T01:34:48Z</time>
      </trkpt>
      <trkpt lat="36.68026" lon="-5.052388">
        <ele>1315.73</ele>
        <time>2018-07-28T01:34:51Z</time>
      </trkpt>
      <trkpt lat="36.68027" lon="-5.052424">
        <ele>1316.154</ele>
        <time>2018-07-28T01:34:54Z</time>
      </trkpt>
      <trkpt lat="36.68028" lon="-5.052458">
        <ele>1316.58</ele>
        <time>2018-07-28T01:34:57Z</time>
      </trkpt>
      <trkpt lat="36.68029" lon="-5.052487">
        <ele>1316.701</ele>
        <time>2018-07-28T01:35:00Z</time>
      </trkpt>
      <trkpt lat="36.68029" lon="-5.052505">
        <ele>1316.979</ele>
        <time>2018-07-28T01:35:02Z</time>
      </trkpt>
      <trkpt lat="36.68031" lon="-5.052554">
        <ele>1317.26</ele>
        <time>2018-07-28T01:35:06Z</time>
      </trkpt>
      <trkpt lat="36.68031" lon="-5.052566">
        <ele>1317.366</ele>
        <time>2018-07-28T01:35:07Z</time>
      </trkpt>
      <trkpt lat="36.68033" lon="-5.052644">
        <ele>1317.935</ele>
        <time>2018-07-28T01:35:13Z</time>
      </trkpt>
      <trkpt lat="36.68034" lon="-5.052686">
        <ele>1318.177</ele>
        <time>2018-07-28T01:35:16Z</time>
      </trkpt>
      <trkpt lat="36.68035" lon="-5.052699">
        <ele>1318.259</ele>
        <time>2018-07-28T01:35:17Z</time>
      </trkpt>
      <trkpt lat="36.68036" lon="-5.052724">
        <ele>1318.422</ele>
        <time>2018-07-28T01:35:19Z</time>
      </trkpt>
      <trkpt lat="36.68039" lon="-5.052807">
        <ele>1319.083</ele>
        <time>2018-07-28T01:35:25Z</time>
      </trkpt>
      <trkpt lat="36.68039" lon="-5.052832">
        <ele>1319.208</ele>
        <time>2018-07-28T01:35:27Z</time>
      </trkpt>
      <trkpt lat="36.6804" lon="-5.052852">
        <ele>1319.483</ele>
        <time>2018-07-28T01:35:29Z</time>
      </trkpt>
      <trkpt lat="36.68044" lon="-5.052893">
        <ele>1320.25</ele>
        <time>2018-07-28T01:35:33Z</time>
      </trkpt>
      <trkpt lat="36.68044" lon="-5.052903">
        <ele>1320.435</ele>
        <time>2018-07-28T01:35:34Z</time>
      </trkpt>
      <trkpt lat="36.68046" lon="-5.052944">
        <ele>1320.775</ele>
        <time>2018-07-28T01:35:37Z</time>
      </trkpt>
      <trkpt lat="36.68047" lon="-5.052971">
        <ele>1320.829</ele>
        <time>2018-07-28T01:35:39Z</time>
      </trkpt>
      <trkpt lat="36.6805" lon="-5.053017">
        <ele>1321.429</ele>
        <time>2018-07-28T01:35:43Z</time>
      </trkpt>
      <trkpt lat="36.68051" lon="-5.053029">
        <ele>1321.568</ele>
        <time>2018-07-28T01:35:44Z</time>
      </trkpt>
      <trkpt lat="36.68053" lon="-5.053066">
        <ele>1321.841</ele>
        <time>2018-07-28T01:35:47Z</time>
      </trkpt>
      <trkpt lat="36.68054" lon="-5.053087">
        <ele>1321.996</ele>
        <time>2018-07-28T01:35:49Z</time>
      </trkpt>
      <trkpt lat="36.68057" lon="-5.053181">
        <ele>1322.028</ele>
        <time>2018-07-28T01:35:57Z</time>
      </trkpt>
      <trkpt lat="36.68058" lon="-5.053209">
        <ele>1322.081</ele>
        <time>2018-07-28T01:35:59Z</time>
      </trkpt>
      <trkpt lat="36.68061" lon="-5.053283">
        <ele>1322.248</ele>
        <time>2018-07-28T01:36:05Z</time>
      </trkpt>
      <trkpt lat="36.68063" lon="-5.053304">
        <ele>1322.413</ele>
        <time>2018-07-28T01:36:07Z</time>
      </trkpt>
      <trkpt lat="36.68065" lon="-5.053322">
        <ele>1322.694</ele>
        <time>2018-07-28T01:36:09Z</time>
      </trkpt>
      <trkpt lat="36.68067" lon="-5.053354">
        <ele>1322.901</ele>
        <time>2018-07-28T01:36:12Z</time>
      </trkpt>
      <trkpt lat="36.6807" lon="-5.053429">
        <ele>1323.211</ele>
        <time>2018-07-28T01:36:17Z</time>
      </trkpt>
      <trkpt lat="36.68071" lon="-5.053439">
        <ele>1323.317</ele>
        <time>2018-07-28T01:36:18Z</time>
      </trkpt>
      <trkpt lat="36.68073" lon="-5.053468">
        <ele>1323.628</ele>
        <time>2018-07-28T01:36:21Z</time>
      </trkpt>
      <trkpt lat="36.68076" lon="-5.053492">
        <ele>1323.961</ele>
        <time>2018-07-28T01:36:24Z</time>
      </trkpt>
      <trkpt lat="36.68076" lon="-5.053501">
        <ele>1324.061</ele>
        <time>2018-07-28T01:36:25Z</time>
      </trkpt>
      <trkpt lat="36.68078" lon="-5.053519">
        <ele>1324.258</ele>
        <time>2018-07-28T01:36:27Z</time>
      </trkpt>
      <trkpt lat="36.68079" lon="-5.053529">
        <ele>1324.345</ele>
        <time>2018-07-28T01:36:28Z</time>
      </trkpt>
      <trkpt lat="36.68082" lon="-5.053556">
        <ele>1324.778</ele>
        <time>2018-07-28T01:36:31Z</time>
      </trkpt>
      <trkpt lat="36.68087" lon="-5.053602">
        <ele>1324.912</ele>
        <time>2018-07-28T01:36:37Z</time>
      </trkpt>
      <trkpt lat="36.68091" lon="-5.053646">
        <ele>1324.766</ele>
        <time>2018-07-28T01:36:42Z</time>
      </trkpt>
      <trkpt lat="36.68092" lon="-5.053653">
        <ele>1324.771</ele>
        <time>2018-07-28T01:36:43Z</time>
      </trkpt>
      <trkpt lat="36.68094" lon="-5.053664">
        <ele>1324.797</ele>
        <time>2018-07-28T01:36:45Z</time>
      </trkpt>
      <trkpt lat="36.68096" lon="-5.053677">
        <ele>1324.792</ele>
        <time>2018-07-28T01:36:47Z</time>
      </trkpt>
      <trkpt lat="36.68103" lon="-5.0537">
        <ele>1324.949</ele>
        <time>2018-07-28T01:36:53Z</time>
      </trkpt>
      <trkpt lat="36.68106" lon="-5.053714">
        <ele>1325</ele>
        <time>2018-07-28T01:36:56Z</time>
      </trkpt>
      <trkpt lat="36.68107" lon="-5.053717">
        <ele>1325.034</ele>
        <time>2018-07-28T01:36:57Z</time>
      </trkpt>
      <trkpt lat="36.6811" lon="-5.053735">
        <ele>1325.056</ele>
        <time>2018-07-28T01:37:00Z</time>
      </trkpt>
      <trkpt lat="36.68111" lon="-5.053745">
        <ele>1325.038</ele>
        <time>2018-07-28T01:37:01Z</time>
      </trkpt>
      <trkpt lat="36.68114" lon="-5.053762">
        <ele>1325.045</ele>
        <time>2018-07-28T01:37:04Z</time>
      </trkpt>
      <trkpt lat="36.68116" lon="-5.053786">
        <ele>1325.001</ele>
        <time>2018-07-28T01:37:07Z</time>
      </trkpt>
      <trkpt lat="36.68118" lon="-5.05379">
        <ele>1325.029</ele>
        <time>2018-07-28T01:37:08Z</time>
      </trkpt>
      <trkpt lat="36.68119" lon="-5.053788">
        <ele>1325.148</ele>
        <time>2018-07-28T01:37:10Z</time>
      </trkpt>
      <trkpt lat="36.68121" lon="-5.05379">
        <ele>1325.237</ele>
        <time>2018-07-28T01:37:12Z</time>
      </trkpt>
      <trkpt lat="36.68126" lon="-5.053801">
        <ele>1325.402</ele>
        <time>2018-07-28T01:37:17Z</time>
      </trkpt>
      <trkpt lat="36.68129" lon="-5.053804">
        <ele>1325.526</ele>
        <time>2018-07-28T01:37:19Z</time>
      </trkpt>
      <trkpt lat="36.68131" lon="-5.053807">
        <ele>1325.629</ele>
        <time>2018-07-28T01:37:21Z</time>
      </trkpt>
      <trkpt lat="36.68134" lon="-5.053824">
        <ele>1325.686</ele>
        <time>2018-07-28T01:37:24Z</time>
      </trkpt>
      <trkpt lat="36.68135" lon="-5.053829">
        <ele>1325.709</ele>
        <time>2018-07-28T01:37:25Z</time>
      </trkpt>
      <trkpt lat="36.68137" lon="-5.053838">
        <ele>1325.748</ele>
        <time>2018-07-28T01:37:27Z</time>
      </trkpt>
      <trkpt lat="36.6814" lon="-5.053844">
        <ele>1325.828</ele>
        <time>2018-07-28T01:37:29Z</time>
      </trkpt>
      <trkpt lat="36.68148" lon="-5.053864">
        <ele>1326.143</ele>
        <time>2018-07-28T01:37:37Z</time>
      </trkpt>
      <trkpt lat="36.68157" lon="-5.053834">
        <ele>1326.852</ele>
        <time>2018-07-28T01:37:45Z</time>
      </trkpt>
      <trkpt lat="36.68158" lon="-5.053828">
        <ele>1326.96</ele>
        <time>2018-07-28T01:37:46Z</time>
      </trkpt>
      <trkpt lat="36.68159" lon="-5.053821">
        <ele>1327.072</ele>
        <time>2018-07-28T01:37:47Z</time>
      </trkpt>
      <trkpt lat="36.68165" lon="-5.053738">
        <ele>1327.986</ele>
        <time>2018-07-28T01:37:54Z</time>
      </trkpt>
      <trkpt lat="36.68165" lon="-5.053696">
        <ele>1328.31</ele>
        <time>2018-07-28T01:37:57Z</time>
      </trkpt>
      <trkpt lat="36.68165" lon="-5.053681">
        <ele>1328.4</ele>
        <time>2018-07-28T01:37:58Z</time>
      </trkpt>
      <trkpt lat="36.68165" lon="-5.053636">
        <ele>1328.724</ele>
        <time>2018-07-28T01:38:01Z</time>
      </trkpt>
      <trkpt lat="36.68164" lon="-5.053591">
        <ele>1329.012</ele>
        <time>2018-07-28T01:38:04Z</time>
      </trkpt>
      <trkpt lat="36.68164" lon="-5.053562">
        <ele>1329.199</ele>
        <time>2018-07-28T01:38:06Z</time>
      </trkpt>
      <trkpt lat="36.68164" lon="-5.053546">
        <ele>1329.317</ele>
        <time>2018-07-28T01:38:07Z</time>
      </trkpt>
      <trkpt lat="36.68163" lon="-5.053531">
        <ele>1329.404</ele>
        <time>2018-07-28T01:38:08Z</time>
      </trkpt>
      <trkpt lat="36.68163" lon="-5.053501">
        <ele>1329.584</ele>
        <time>2018-07-28T01:38:10Z</time>
      </trkpt>
      <trkpt lat="36.68162" lon="-5.053469">
        <ele>1329.797</ele>
        <time>2018-07-28T01:38:12Z</time>
      </trkpt>
      <trkpt lat="36.68162" lon="-5.053391">
        <ele>1330.365</ele>
        <time>2018-07-28T01:38:17Z</time>
      </trkpt>
      <trkpt lat="36.68164" lon="-5.053302">
        <ele>1331.089</ele>
        <time>2018-07-28T01:38:23Z</time>
      </trkpt>
      <trkpt lat="36.68165" lon="-5.053274">
        <ele>1331.294</ele>
        <time>2018-07-28T01:38:25Z</time>
      </trkpt>
      <trkpt lat="36.68166" lon="-5.053241">
        <ele>1331.528</ele>
        <time>2018-07-28T01:38:27Z</time>
      </trkpt>
      <trkpt lat="36.68166" lon="-5.053182">
        <ele>1331.884</ele>
        <time>2018-07-28T01:38:31Z</time>
      </trkpt>
      <trkpt lat="36.68167" lon="-5.053158">
        <ele>1332.047</ele>
        <time>2018-07-28T01:38:33Z</time>
      </trkpt>
      <trkpt lat="36.68166" lon="-5.053098">
        <ele>1332.385</ele>
        <time>2018-07-28T01:38:37Z</time>
      </trkpt>
      <trkpt lat="36.68166" lon="-5.053065">
        <ele>1332.589</ele>
        <time>2018-07-28T01:38:39Z</time>
      </trkpt>
      <trkpt lat="36.68166" lon="-5.053048">
        <ele>1332.69</ele>
        <time>2018-07-28T01:38:40Z</time>
      </trkpt>
      <trkpt lat="36.68166" lon="-5.053004">
        <ele>1332.973</ele>
        <time>2018-07-28T01:38:43Z</time>
      </trkpt>
      <trkpt lat="36.68168" lon="-5.052941">
        <ele>1333.272</ele>
        <time>2018-07-28T01:38:47Z</time>
      </trkpt>
      <trkpt lat="36.68169" lon="-5.052912">
        <ele>1333.397</ele>
        <time>2018-07-28T01:38:49Z</time>
      </trkpt>
      <trkpt lat="36.68169" lon="-5.052885">
        <ele>1333.566</ele>
        <time>2018-07-28T01:38:51Z</time>
      </trkpt>
      <trkpt lat="36.68169" lon="-5.052834">
        <ele>1333.86</ele>
        <time>2018-07-28T01:38:54Z</time>
      </trkpt>
      <trkpt lat="36.68169" lon="-5.052802">
        <ele>1334.08</ele>
        <time>2018-07-28T01:38:56Z</time>
      </trkpt>
      <trkpt lat="36.68169" lon="-5.052786">
        <ele>1334.16</ele>
        <time>2018-07-28T01:38:57Z</time>
      </trkpt>
      <trkpt lat="36.6817" lon="-5.052703">
        <ele>1334.627</ele>
        <time>2018-07-28T01:39:02Z</time>
      </trkpt>
      <trkpt lat="36.68171" lon="-5.052687">
        <ele>1334.711</ele>
        <time>2018-07-28T01:39:03Z</time>
      </trkpt>
      <trkpt lat="36.68172" lon="-5.052631">
        <ele>1335.014</ele>
        <time>2018-07-28T01:39:07Z</time>
      </trkpt>
      <trkpt lat="36.68172" lon="-5.052602">
        <ele>1335.191</ele>
        <time>2018-07-28T01:39:09Z</time>
      </trkpt>
      <trkpt lat="36.68174" lon="-5.052576">
        <ele>1335.324</ele>
        <time>2018-07-28T01:39:11Z</time>
      </trkpt>
      <trkpt lat="36.68174" lon="-5.052561">
        <ele>1335.403</ele>
        <time>2018-07-28T01:39:12Z</time>
      </trkpt>
      <trkpt lat="36.68177" lon="-5.052499">
        <ele>1335.762</ele>
        <time>2018-07-28T01:39:17Z</time>
      </trkpt>
      <trkpt lat="36.68181" lon="-5.052453">
        <ele>1336.104</ele>
        <time>2018-07-28T01:39:21Z</time>
      </trkpt>
      <trkpt lat="36.68186" lon="-5.052408">
        <ele>1336.463</ele>
        <time>2018-07-28T01:39:26Z</time>
      </trkpt>
      <trkpt lat="36.68187" lon="-5.052399">
        <ele>1336.543</ele>
        <time>2018-07-28T01:39:27Z</time>
      </trkpt>
      <trkpt lat="36.6819" lon="-5.052381">
        <ele>1336.684</ele>
        <time>2018-07-28T01:39:30Z</time>
      </trkpt>
      <trkpt lat="36.68197" lon="-5.05236">
        <ele>1336.811</ele>
        <time>2018-07-28T01:39:37Z</time>
      </trkpt>
      <trkpt lat="36.682" lon="-5.052358">
        <ele>1336.805</ele>
        <time>2018-07-28T01:39:39Z</time>
      </trkpt>
      <trkpt lat="36.68201" lon="-5.052359">
        <ele>1336.781</ele>
        <time>2018-07-28T01:39:40Z</time>
      </trkpt>
      <trkpt lat="36.68209" lon="-5.052356">
        <ele>1336.727</ele>
        <time>2018-07-28T01:39:47Z</time>
      </trkpt>
      <trkpt lat="36.68212" lon="-5.052353">
        <ele>1336.727</ele>
        <time>2018-07-28T01:39:50Z</time>
      </trkpt>
      <trkpt lat="36.68221" lon="-5.052345">
        <ele>1336.733</ele>
        <time>2018-07-28T01:39:57Z</time>
      </trkpt>
      <trkpt lat="36.68222" lon="-5.052344">
        <ele>1336.734</ele>
        <time>2018-07-28T01:39:58Z</time>
      </trkpt>
      <trkpt lat="36.6823" lon="-5.052357">
        <ele>1336.46</ele>
        <time>2018-07-28T01:40:05Z</time>
      </trkpt>
      <trkpt lat="36.68232" lon="-5.052362">
        <ele>1336.371</ele>
        <time>2018-07-28T01:40:07Z</time>
      </trkpt>
      <trkpt lat="36.68238" lon="-5.052383">
        <ele>1335.986</ele>
        <time>2018-07-28T01:40:13Z</time>
      </trkpt>
      <trkpt lat="36.68243" lon="-5.052395">
        <ele>1335.75</ele>
        <time>2018-07-28T01:40:17Z</time>
      </trkpt>
      <trkpt lat="36.68246" lon="-5.05241">
        <ele>1335.459</ele>
        <time>2018-07-28T01:40:20Z</time>
      </trkpt>
      <trkpt lat="36.68248" lon="-5.052416">
        <ele>1335.353</ele>
        <time>2018-07-28T01:40:21Z</time>
      </trkpt>
      <trkpt lat="36.68252" lon="-5.052442">
        <ele>1334.715</ele>
        <time>2018-07-28T01:40:25Z</time>
      </trkpt>
      <trkpt lat="36.68254" lon="-5.05246">
        <ele>1334.27</ele>
        <time>2018-07-28T01:40:27Z</time>
      </trkpt>
      <trkpt lat="36.68255" lon="-5.052469">
        <ele>1334.073</ele>
        <time>2018-07-28T01:40:28Z</time>
      </trkpt>
      <trkpt lat="36.68261" lon="-5.052553">
        <ele>1332.265</ele>
        <time>2018-07-28T01:40:35Z</time>
      </trkpt>
      <trkpt lat="36.68261" lon="-5.052578">
        <ele>1331.798</ele>
        <time>2018-07-28T01:40:37Z</time>
      </trkpt>
      <trkpt lat="36.68262" lon="-5.052592">
        <ele>1331.539</ele>
        <time>2018-07-28T01:40:38Z</time>
      </trkpt>
      <trkpt lat="36.68262" lon="-5.052605">
        <ele>1331.248</ele>
        <time>2018-07-28T01:40:39Z</time>
      </trkpt>
      <trkpt lat="36.68265" lon="-5.052655">
        <ele>1330.194</ele>
        <time>2018-07-28T01:40:43Z</time>
      </trkpt>
      <trkpt lat="36.68267" lon="-5.052706">
        <ele>1329.055</ele>
        <time>2018-07-28T01:40:47Z</time>
      </trkpt>
      <trkpt lat="36.68269" lon="-5.052769">
        <ele>1327.795</ele>
        <time>2018-07-28T01:40:51Z</time>
      </trkpt>
      <trkpt lat="36.68269" lon="-5.052792">
        <ele>1327.355</ele>
        <time>2018-07-28T01:40:53Z</time>
      </trkpt>
      <trkpt lat="36.68271" lon="-5.052834">
        <ele>1326.432</ele>
        <time>2018-07-28T01:40:56Z</time>
      </trkpt>
      <trkpt lat="36.68271" lon="-5.052849">
        <ele>1326.175</ele>
        <time>2018-07-28T01:40:57Z</time>
      </trkpt>
      <trkpt lat="36.68271" lon="-5.052885">
        <ele>1325.491</ele>
        <time>2018-07-28T01:40:59Z</time>
      </trkpt>
      <trkpt lat="36.68272" lon="-5.052927">
        <ele>1324.647</ele>
        <time>2018-07-28T01:41:02Z</time>
      </trkpt>
      <trkpt lat="36.68274" lon="-5.053004">
        <ele>1322.94</ele>
        <time>2018-07-28T01:41:07Z</time>
      </trkpt>
      <trkpt lat="36.6828" lon="-5.053096">
        <ele>1320.386</ele>
        <time>2018-07-28T01:41:14Z</time>
      </trkpt>
      <trkpt lat="36.68281" lon="-5.053107">
        <ele>1319.92</ele>
        <time>2018-07-28T01:41:15Z</time>
      </trkpt>
      <trkpt lat="36.68284" lon="-5.05312">
        <ele>1319.205</ele>
        <time>2018-07-28T01:41:17Z</time>
      </trkpt>
      <trkpt lat="36.68285" lon="-5.053127">
        <ele>1318.877</ele>
        <time>2018-07-28T01:41:18Z</time>
      </trkpt>
      <trkpt lat="36.68289" lon="-5.053141">
        <ele>1317.926</ele>
        <time>2018-07-28T01:41:21Z</time>
      </trkpt>
      <trkpt lat="36.68294" lon="-5.053149">
        <ele>1316.884</ele>
        <time>2018-07-28T01:41:25Z</time>
      </trkpt>
      <trkpt lat="36.68296" lon="-5.053152">
        <ele>1316.35</ele>
        <time>2018-07-28T01:41:27Z</time>
      </trkpt>
      <trkpt lat="36.68298" lon="-5.053154">
        <ele>1316.038</ele>
        <time>2018-07-28T01:41:28Z</time>
      </trkpt>
      <trkpt lat="36.68299" lon="-5.053157">
        <ele>1315.772</ele>
        <time>2018-07-28T01:41:29Z</time>
      </trkpt>
      <trkpt lat="36.68303" lon="-5.053147">
        <ele>1315.379</ele>
        <time>2018-07-28T01:41:32Z</time>
      </trkpt>
      <trkpt lat="36.68304" lon="-5.053139">
        <ele>1315.345</ele>
        <time>2018-07-28T01:41:33Z</time>
      </trkpt>
      <trkpt lat="36.68308" lon="-5.053104">
        <ele>1315.343</ele>
        <time>2018-07-28T01:41:37Z</time>
      </trkpt>
      <trkpt lat="36.68314" lon="-5.053059">
        <ele>1315.424</ele>
        <time>2018-07-28T01:41:42Z</time>
      </trkpt>
      <trkpt lat="36.68317" lon="-5.053026">
        <ele>1315.774</ele>
        <time>2018-07-28T01:41:45Z</time>
      </trkpt>
      <trkpt lat="36.68319" lon="-5.053003">
        <ele>1315.977</ele>
        <time>2018-07-28T01:41:47Z</time>
      </trkpt>
      <trkpt lat="36.68321" lon="-5.052966">
        <ele>1316.582</ele>
        <time>2018-07-28T01:41:50Z</time>
      </trkpt>
      <trkpt lat="36.68325" lon="-5.052894">
        <ele>1317.709</ele>
        <time>2018-07-28T01:41:56Z</time>
      </trkpt>
      <trkpt lat="36.68326" lon="-5.052882">
        <ele>1317.904</ele>
        <time>2018-07-28T01:41:57Z</time>
      </trkpt>
      <trkpt lat="36.68327" lon="-5.052869">
        <ele>1318.19</ele>
        <time>2018-07-28T01:41:58Z</time>
      </trkpt>
      <trkpt lat="36.68331" lon="-5.052762">
        <ele>1320.349</ele>
        <time>2018-07-28T01:42:06Z</time>
      </trkpt>
      <trkpt lat="36.68332" lon="-5.052747">
        <ele>1320.655</ele>
        <time>2018-07-28T01:42:07Z</time>
      </trkpt>
      <trkpt lat="36.68335" lon="-5.052656">
        <ele>1322.162</ele>
        <time>2018-07-28T01:42:14Z</time>
      </trkpt>
      <trkpt lat="36.68336" lon="-5.052643">
        <ele>1322.178</ele>
        <time>2018-07-28T01:42:15Z</time>
      </trkpt>
      <trkpt lat="36.68337" lon="-5.052615">
        <ele>1322.402</ele>
        <time>2018-07-28T01:42:17Z</time>
      </trkpt>
      <trkpt lat="36.6834" lon="-5.052553">
        <ele>1322.85</ele>
        <time>2018-07-28T01:42:22Z</time>
      </trkpt>
      <trkpt lat="36.68342" lon="-5.052489">
        <ele>1323.366</ele>
        <time>2018-07-28T01:42:27Z</time>
      </trkpt>
      <trkpt lat="36.68345" lon="-5.052422">
        <ele>1322.835</ele>
        <time>2018-07-28T01:42:32Z</time>
      </trkpt>
      <trkpt lat="36.68348" lon="-5.052367">
        <ele>1322</ele>
        <time>2018-07-28T01:42:37Z</time>
      </trkpt>
      <trkpt lat="36.68352" lon="-5.052325">
        <ele>1320.853</ele>
        <time>2018-07-28T01:42:41Z</time>
      </trkpt>
      <trkpt lat="36.68356" lon="-5.052285">
        <ele>1319.846</ele>
        <time>2018-07-28T01:42:45Z</time>
      </trkpt>
      <trkpt lat="36.68357" lon="-5.052262">
        <ele>1319.308</ele>
        <time>2018-07-28T01:42:47Z</time>
      </trkpt>
      <trkpt lat="36.68359" lon="-5.052236">
        <ele>1318.802</ele>
        <time>2018-07-28T01:42:49Z</time>
      </trkpt>
      <trkpt lat="36.68365" lon="-5.052133">
        <ele>1317.47</ele>
        <time>2018-07-28T01:42:57Z</time>
      </trkpt>
      <trkpt lat="36.6837" lon="-5.051988">
        <ele>1317.215</ele>
        <time>2018-07-28T01:43:07Z</time>
      </trkpt>
      <trkpt lat="36.68372" lon="-5.051863">
        <ele>1318.036</ele>
        <time>2018-07-28T01:43:15Z</time>
      </trkpt>
      <trkpt lat="36.68372" lon="-5.051831">
        <ele>1318.462</ele>
        <time>2018-07-28T01:43:17Z</time>
      </trkpt>
      <trkpt lat="36.68373" lon="-5.051785">
        <ele>1318.901</ele>
        <time>2018-07-28T01:43:20Z</time>
      </trkpt>
      <trkpt lat="36.68372" lon="-5.051771">
        <ele>1319.244</ele>
        <time>2018-07-28T01:43:21Z</time>
      </trkpt>
      <trkpt lat="36.68373" lon="-5.051676">
        <ele>1320.335</ele>
        <time>2018-07-28T01:43:27Z</time>
      </trkpt>
      <trkpt lat="36.68373" lon="-5.051634">
        <ele>1320.607</ele>
        <time>2018-07-28T01:43:30Z</time>
      </trkpt>
      <trkpt lat="36.68373" lon="-5.051593">
        <ele>1321.198</ele>
        <time>2018-07-28T01:43:33Z</time>
      </trkpt>
      <trkpt lat="36.68374" lon="-5.051541">
        <ele>1321.626</ele>
        <time>2018-07-28T01:43:37Z</time>
      </trkpt>
      <trkpt lat="36.68374" lon="-5.051527">
        <ele>1321.825</ele>
        <time>2018-07-28T01:43:38Z</time>
      </trkpt>
      <trkpt lat="36.68374" lon="-5.051505">
        <ele>1322.141</ele>
        <time>2018-07-28T01:43:40Z</time>
      </trkpt>
      <trkpt lat="36.68375" lon="-5.051484">
        <ele>1322.283</ele>
        <time>2018-07-28T01:43:42Z</time>
      </trkpt>
      <trkpt lat="36.68375" lon="-5.051472">
        <ele>1322.454</ele>
        <time>2018-07-28T01:43:43Z</time>
      </trkpt>
      <trkpt lat="36.68375" lon="-5.051446">
        <ele>1322.672</ele>
        <time>2018-07-28T01:43:45Z</time>
      </trkpt>
      <trkpt lat="36.68376" lon="-5.05142">
        <ele>1322.722</ele>
        <time>2018-07-28T01:43:47Z</time>
      </trkpt>
      <trkpt lat="36.68377" lon="-5.051351">
        <ele>1323.237</ele>
        <time>2018-07-28T01:43:53Z</time>
      </trkpt>
      <trkpt lat="36.68377" lon="-5.051346">
        <ele>1323.313</ele>
        <time>2018-07-28T01:43:54Z</time>
      </trkpt>
      <trkpt lat="36.68377" lon="-5.05135">
        <ele>1323.411</ele>
        <time>2018-07-28T01:43:55Z</time>
      </trkpt>
      <trkpt lat="36.68376" lon="-5.051371">
        <ele>1323.269</ele>
        <time>2018-07-28T01:43:57Z</time>
      </trkpt>
      <trkpt lat="36.68374" lon="-5.051432">
        <ele>1323.191</ele>
        <time>2018-07-28T01:44:01Z</time>
      </trkpt>
      <trkpt lat="36.68374" lon="-5.051446">
        <ele>1323.152</ele>
        <time>2018-07-28T01:44:02Z</time>
      </trkpt>
      <trkpt lat="36.68374" lon="-5.051453">
        <ele>1323.049</ele>
        <time>2018-07-28T01:44:03Z</time>
      </trkpt>
      <trkpt lat="36.68374" lon="-5.051422">
        <ele>1323.496</ele>
        <time>2018-07-28T01:44:06Z</time>
      </trkpt>
      <trkpt lat="36.68374" lon="-5.051406">
        <ele>1323.569</ele>
        <time>2018-07-28T01:44:07Z</time>
      </trkpt>
      <trkpt lat="36.68376" lon="-5.051336">
        <ele>1323.777</ele>
        <time>2018-07-28T01:44:11Z</time>
      </trkpt>
      <trkpt lat="36.68377" lon="-5.051289">
        <ele>1323.969</ele>
        <time>2018-07-28T01:44:14Z</time>
      </trkpt>
      <trkpt lat="36.68378" lon="-5.051242">
        <ele>1324.329</ele>
        <time>2018-07-28T01:44:17Z</time>
      </trkpt>
      <trkpt lat="36.68382" lon="-5.051132">
        <ele>1324.146</ele>
        <time>2018-07-28T01:44:24Z</time>
      </trkpt>
      <trkpt lat="36.68385" lon="-5.051086">
        <ele>1323.85</ele>
        <time>2018-07-28T01:44:27Z</time>
      </trkpt>
      <trkpt lat="36.68386" lon="-5.051035">
        <ele>1323.944</ele>
        <time>2018-07-28T01:44:30Z</time>
      </trkpt>
      <trkpt lat="36.68387" lon="-5.051003">
        <ele>1324.084</ele>
        <time>2018-07-28T01:44:32Z</time>
      </trkpt>
      <trkpt lat="36.6839" lon="-5.05094">
        <ele>1323.709</ele>
        <time>2018-07-28T01:44:37Z</time>
      </trkpt>
      <trkpt lat="36.68391" lon="-5.050903">
        <ele>1323.764</ele>
        <time>2018-07-28T01:44:40Z</time>
      </trkpt>
      <trkpt lat="36.68394" lon="-5.050847">
        <ele>1323.445</ele>
        <time>2018-07-28T01:44:44Z</time>
      </trkpt>
      <trkpt lat="36.68395" lon="-5.050809">
        <ele>1323.434</ele>
        <time>2018-07-28T01:44:47Z</time>
      </trkpt>
      <trkpt lat="36.68396" lon="-5.050797">
        <ele>1323.325</ele>
        <time>2018-07-28T01:44:48Z</time>
      </trkpt>
      <trkpt lat="36.68402" lon="-5.050702">
        <ele>1322.293</ele>
        <time>2018-07-28T01:44:56Z</time>
      </trkpt>
      <trkpt lat="36.68403" lon="-5.05069">
        <ele>1322.187</ele>
        <time>2018-07-28T01:44:57Z</time>
      </trkpt>
      <trkpt lat="36.68407" lon="-5.050608">
        <ele>1321.898</ele>
        <time>2018-07-28T01:45:03Z</time>
      </trkpt>
      <trkpt lat="36.6841" lon="-5.050556">
        <ele>1321.557</ele>
        <time>2018-07-28T01:45:07Z</time>
      </trkpt>
      <trkpt lat="36.68414" lon="-5.050488">
        <ele>1321.512</ele>
        <time>2018-07-28T01:45:12Z</time>
      </trkpt>
      <trkpt lat="36.68416" lon="-5.05043">
        <ele>1321.451</ele>
        <time>2018-07-28T01:45:17Z</time>
      </trkpt>
      <trkpt lat="36.68419" lon="-5.050384">
        <ele>1321.931</ele>
        <time>2018-07-28T01:45:21Z</time>
      </trkpt>
      <trkpt lat="36.68422" lon="-5.050337">
        <ele>1322.6</ele>
        <time>2018-07-28T01:45:25Z</time>
      </trkpt>
      <trkpt lat="36.68422" lon="-5.050311">
        <ele>1323.012</ele>
        <time>2018-07-28T01:45:27Z</time>
      </trkpt>
      <trkpt lat="36.68422" lon="-5.050297">
        <ele>1323.226</ele>
        <time>2018-07-28T01:45:28Z</time>
      </trkpt>
      <trkpt lat="36.68423" lon="-5.050284">
        <ele>1323.414</ele>
        <time>2018-07-28T01:45:29Z</time>
      </trkpt>
      <trkpt lat="36.68427" lon="-5.050203">
        <ele>1324.351</ele>
        <time>2018-07-28T01:45:35Z</time>
      </trkpt>
      <trkpt lat="36.68428" lon="-5.050174">
        <ele>1324.734</ele>
        <time>2018-07-28T01:45:37Z</time>
      </trkpt>
      <trkpt lat="36.68434" lon="-5.050057">
        <ele>1325.855</ele>
        <time>2018-07-28T01:45:46Z</time>
      </trkpt>
      <trkpt lat="36.68435" lon="-5.050045">
        <ele>1325.983</ele>
        <time>2018-07-28T01:45:47Z</time>
      </trkpt>
      <trkpt lat="36.6844" lon="-5.049953">
        <ele>1326.586</ele>
        <time>2018-07-28T01:45:54Z</time>
      </trkpt>
      <trkpt lat="36.68442" lon="-5.04992">
        <ele>1326.769</ele>
        <time>2018-07-28T01:45:57Z</time>
      </trkpt>
      <trkpt lat="36.68443" lon="-5.049897">
        <ele>1326.857</ele>
        <time>2018-07-28T01:45:59Z</time>
      </trkpt>
      <trkpt lat="36.68447" lon="-5.049845">
        <ele>1327.029</ele>
        <time>2018-07-28T01:46:03Z</time>
      </trkpt>
      <trkpt lat="36.68449" lon="-5.049807">
        <ele>1327.161</ele>
        <time>2018-07-28T01:46:07Z</time>
      </trkpt>
      <trkpt lat="36.68449" lon="-5.049801">
        <ele>1327.24</ele>
        <time>2018-07-28T01:46:08Z</time>
      </trkpt>
      <trkpt lat="36.68449" lon="-5.049797">
        <ele>1327.348</ele>
        <time>2018-07-28T01:46:10Z</time>
      </trkpt>
      <trkpt lat="36.68449" lon="-5.049793">
        <ele>1327.342</ele>
        <time>2018-07-28T01:46:12Z</time>
      </trkpt>
      <trkpt lat="36.68449" lon="-5.049788">
        <ele>1327.341</ele>
        <time>2018-07-28T01:46:14Z</time>
      </trkpt>
      <trkpt lat="36.68449" lon="-5.049778">
        <ele>1327.528</ele>
        <time>2018-07-28T01:46:17Z</time>
      </trkpt>
      <trkpt lat="36.68449" lon="-5.049776">
        <ele>1327.614</ele>
        <time>2018-07-28T01:46:18Z</time>
      </trkpt>
      <trkpt lat="36.68448" lon="-5.049771">
        <ele>1327.742</ele>
        <time>2018-07-28T01:46:20Z</time>
      </trkpt>
      <trkpt lat="36.68448" lon="-5.049767">
        <ele>1327.852</ele>
        <time>2018-07-28T01:46:22Z</time>
      </trkpt>
      <trkpt lat="36.68447" lon="-5.049765">
        <ele>1327.938</ele>
        <time>2018-07-28T01:46:23Z</time>
      </trkpt>
      <trkpt lat="36.68447" lon="-5.049765">
        <ele>1328</ele>
        <time>2018-07-28T01:46:24Z</time>
      </trkpt>
      <trkpt lat="36.68447" lon="-5.049762">
        <ele>1328.043</ele>
        <time>2018-07-28T01:46:25Z</time>
      </trkpt>
      <trkpt lat="36.68447" lon="-5.049762">
        <ele>1328.043</ele>
        <time>2018-07-28T01:46:26Z</time>
      </trkpt>
      <trkpt lat="36.68447" lon="-5.049761">
        <ele>1328.056</ele>
        <time>2018-07-28T01:46:27Z</time>
      </trkpt>
      <trkpt lat="36.68447" lon="-5.049749">
        <ele>1328.209</ele>
        <time>2018-07-28T01:46:30Z</time>
      </trkpt>
      <trkpt lat="36.68447" lon="-5.049744">
        <ele>1328.207</ele>
        <time>2018-07-28T01:46:35Z</time>
      </trkpt>
      <trkpt lat="36.68447" lon="-5.049742">
        <ele>1328.231</ele>
        <time>2018-07-28T01:46:37Z</time>
      </trkpt>
      <trkpt lat="36.68447" lon="-5.04975">
        <ele>1328.134</ele>
        <time>2018-07-28T01:46:40Z</time>
      </trkpt>
      <trkpt lat="36.68447" lon="-5.049758">
        <ele>1328.092</ele>
        <time>2018-07-28T01:46:43Z</time>
      </trkpt>
      <trkpt lat="36.68447" lon="-5.04976">
        <ele>1328.068</ele>
        <time>2018-07-28T01:46:47Z</time>
      </trkpt>
      <trkpt lat="36.68447" lon="-5.049758">
        <ele>1328.03</ele>
        <time>2018-07-28T01:46:51Z</time>
      </trkpt>
      <trkpt lat="36.68448" lon="-5.049754">
        <ele>1328.016</ele>
        <time>2018-07-28T01:46:53Z</time>
      </trkpt>
      <trkpt lat="36.6845" lon="-5.049734">
        <ele>1327.891</ele>
        <time>2018-07-28T01:46:57Z</time>
      </trkpt>
      <trkpt lat="36.68451" lon="-5.049727">
        <ele>1327.916</ele>
        <time>2018-07-28T01:46:58Z</time>
      </trkpt>
      <trkpt lat="36.68451" lon="-5.04972">
        <ele>1327.876</ele>
        <time>2018-07-28T01:46:59Z</time>
      </trkpt>
      <trkpt lat="36.68452" lon="-5.049715">
        <ele>1327.806</ele>
        <time>2018-07-28T01:47:00Z</time>
      </trkpt>
      <trkpt lat="36.68454" lon="-5.049692">
        <ele>1327.692</ele>
        <time>2018-07-28T01:47:03Z</time>
      </trkpt>
      <trkpt lat="36.68458" lon="-5.049647">
        <ele>1327.622</ele>
        <time>2018-07-28T01:47:07Z</time>
      </trkpt>
      <trkpt lat="36.6846" lon="-5.049614">
        <ele>1327.513</ele>
        <time>2018-07-28T01:47:10Z</time>
      </trkpt>
      <trkpt lat="36.68464" lon="-5.049586">
        <ele>1327.259</ele>
        <time>2018-07-28T01:47:13Z</time>
      </trkpt>
      <trkpt lat="36.68466" lon="-5.049552">
        <ele>1327.188</ele>
        <time>2018-07-28T01:47:17Z</time>
      </trkpt>
      <trkpt lat="36.6847" lon="-5.049488">
        <ele>1326.946</ele>
        <time>2018-07-28T01:47:23Z</time>
      </trkpt>
      <trkpt lat="36.68471" lon="-5.049479">
        <ele>1326.883</ele>
        <time>2018-07-28T01:47:24Z</time>
      </trkpt>
      <trkpt lat="36.68474" lon="-5.049447">
        <ele>1326.65</ele>
        <time>2018-07-28T01:47:27Z</time>
      </trkpt>
      <trkpt lat="36.68475" lon="-5.049438">
        <ele>1326.579</ele>
        <time>2018-07-28T01:47:28Z</time>
      </trkpt>
      <trkpt lat="36.68477" lon="-5.049412">
        <ele>1326.346</ele>
        <time>2018-07-28T01:47:31Z</time>
      </trkpt>
      <trkpt lat="36.68481" lon="-5.049357">
        <ele>1325.936</ele>
        <time>2018-07-28T01:47:37Z</time>
      </trkpt>
      <trkpt lat="36.68488" lon="-5.049293">
        <ele>1325.026</ele>
        <time>2018-07-28T01:47:45Z</time>
      </trkpt>
      <trkpt lat="36.68489" lon="-5.049276">
        <ele>1324.812</ele>
        <time>2018-07-28T01:47:47Z</time>
      </trkpt>
      <trkpt lat="36.68491" lon="-5.049252">
        <ele>1324.465</ele>
        <time>2018-07-28T01:47:50Z</time>
      </trkpt>
      <trkpt lat="36.68493" lon="-5.049245">
        <ele>1324.253</ele>
        <time>2018-07-28T01:47:51Z</time>
      </trkpt>
      <trkpt lat="36.68493" lon="-5.049238">
        <ele>1324.123</ele>
        <time>2018-07-28T01:47:52Z</time>
      </trkpt>
      <trkpt lat="36.68497" lon="-5.049189">
        <ele>1323.647</ele>
        <time>2018-07-28T01:47:57Z</time>
      </trkpt>
      <trkpt lat="36.685" lon="-5.049142">
        <ele>1323.565</ele>
        <time>2018-07-28T01:48:01Z</time>
      </trkpt>
      <trkpt lat="36.68504" lon="-5.049084">
        <ele>1324.846</ele>
        <time>2018-07-28T01:48:07Z</time>
      </trkpt>
      <trkpt lat="36.68505" lon="-5.049063">
        <ele>1325.325</ele>
        <time>2018-07-28T01:48:09Z</time>
      </trkpt>
      <trkpt lat="36.68507" lon="-5.04904">
        <ele>1325.798</ele>
        <time>2018-07-28T01:48:11Z</time>
      </trkpt>
      <trkpt lat="36.68508" lon="-5.049022">
        <ele>1326.161</ele>
        <time>2018-07-28T01:48:13Z</time>
      </trkpt>
      <trkpt lat="36.68512" lon="-5.048975">
        <ele>1327.041</ele>
        <time>2018-07-28T01:48:17Z</time>
      </trkpt>
      <trkpt lat="36.68515" lon="-5.048943">
        <ele>1327.579</ele>
        <time>2018-07-28T01:48:20Z</time>
      </trkpt>
      <trkpt lat="36.68515" lon="-5.048933">
        <ele>1327.735</ele>
        <time>2018-07-28T01:48:21Z</time>
      </trkpt>
      <trkpt lat="36.6852" lon="-5.048867">
        <ele>1328.652</ele>
        <time>2018-07-28T01:48:27Z</time>
      </trkpt>
      <trkpt lat="36.68523" lon="-5.048843">
        <ele>1328.901</ele>
        <time>2018-07-28T01:48:30Z</time>
      </trkpt>
      <trkpt lat="36.68529" lon="-5.04877">
        <ele>1329.55</ele>
        <time>2018-07-28T01:48:37Z</time>
      </trkpt>
      <trkpt lat="36.68533" lon="-5.048725">
        <ele>1329.771</ele>
        <time>2018-07-28T01:48:42Z</time>
      </trkpt>
      <trkpt lat="36.68536" lon="-5.048684">
        <ele>1329.902</ele>
        <time>2018-07-28T01:48:46Z</time>
      </trkpt>
      <trkpt lat="36.68537" lon="-5.048676">
        <ele>1329.942</ele>
        <time>2018-07-28T01:48:47Z</time>
      </trkpt>
      <trkpt lat="36.68542" lon="-5.048602">
        <ele>1329.978</ele>
        <time>2018-07-28T01:48:55Z</time>
      </trkpt>
      <trkpt lat="36.68543" lon="-5.048597">
        <ele>1329.932</ele>
        <time>2018-07-28T01:48:57Z</time>
      </trkpt>
      <trkpt lat="36.68544" lon="-5.048596">
        <ele>1329.896</ele>
        <time>2018-07-28T01:48:58Z</time>
      </trkpt>
      <trkpt lat="36.68543" lon="-5.048595">
        <ele>1329.944</ele>
        <time>2018-07-28T01:48:59Z</time>
      </trkpt>
      <trkpt lat="36.68543" lon="-5.048587">
        <ele>1330.041</ele>
        <time>2018-07-28T01:49:02Z</time>
      </trkpt>
      <trkpt lat="36.68542" lon="-5.048585">
        <ele>1330.097</ele>
        <time>2018-07-28T01:49:04Z</time>
      </trkpt>
      <trkpt lat="36.68542" lon="-5.048583">
        <ele>1330.11</ele>
        <time>2018-07-28T01:49:07Z</time>
      </trkpt>
      <trkpt lat="36.68542" lon="-5.048576">
        <ele>1330.204</ele>
        <time>2018-07-28T01:49:10Z</time>
      </trkpt>
      <trkpt lat="36.68542" lon="-5.048575">
        <ele>1330.211</ele>
        <time>2018-07-28T01:49:12Z</time>
      </trkpt>
      <trkpt lat="36.68542" lon="-5.048575">
        <ele>1330.211</ele>
        <time>2018-07-28T01:49:13Z</time>
      </trkpt>
      <trkpt lat="36.68542" lon="-5.048576">
        <ele>1330.204</ele>
        <time>2018-07-28T01:49:14Z</time>
      </trkpt>
      <trkpt lat="36.68542" lon="-5.048578">
        <ele>1330.234</ele>
        <time>2018-07-28T01:49:16Z</time>
      </trkpt>
      <trkpt lat="36.68542" lon="-5.048577">
        <ele>1330.241</ele>
        <time>2018-07-28T01:49:17Z</time>
      </trkpt>
      <trkpt lat="36.68542" lon="-5.048578">
        <ele>1330.234</ele>
        <time>2018-07-28T01:49:19Z</time>
      </trkpt>
      <trkpt lat="36.68542" lon="-5.048579">
        <ele>1330.224</ele>
        <time>2018-07-28T01:49:21Z</time>
      </trkpt>
      <trkpt lat="36.68542" lon="-5.048577">
        <ele>1330.241</ele>
        <time>2018-07-28T01:49:24Z</time>
      </trkpt>
      <trkpt lat="36.68542" lon="-5.048577">
        <ele>1330.241</ele>
        <time>2018-07-28T01:49:25Z</time>
      </trkpt>
      <trkpt lat="36.68542" lon="-5.048577">
        <ele>1330.241</ele>
        <time>2018-07-28T01:49:27Z</time>
      </trkpt>
      <trkpt lat="36.68542" lon="-5.048572">
        <ele>1330.275</ele>
        <time>2018-07-28T01:49:31Z</time>
      </trkpt>
      <trkpt lat="36.68544" lon="-5.048556">
        <ele>1330.16</ele>
        <time>2018-07-28T01:49:37Z</time>
      </trkpt>
      <trkpt lat="36.68545" lon="-5.048547">
        <ele>1330.03</ele>
        <time>2018-07-28T01:49:39Z</time>
      </trkpt>
      <trkpt lat="36.68548" lon="-5.048529">
        <ele>1329.79</ele>
        <time>2018-07-28T01:49:43Z</time>
      </trkpt>
      <trkpt lat="36.6855" lon="-5.048506">
        <ele>1329.546</ele>
        <time>2018-07-28T01:49:47Z</time>
      </trkpt>
      <trkpt lat="36.68555" lon="-5.048482">
        <ele>1328.932</ele>
        <time>2018-07-28T01:49:53Z</time>
      </trkpt>
      <trkpt lat="36.68557" lon="-5.048477">
        <ele>1328.667</ele>
        <time>2018-07-28T01:49:55Z</time>
      </trkpt>
      <trkpt lat="36.68559" lon="-5.048462">
        <ele>1328.47</ele>
        <time>2018-07-28T01:49:57Z</time>
      </trkpt>
      <trkpt lat="36.68561" lon="-5.048438">
        <ele>1328.209</ele>
        <time>2018-07-28T01:50:00Z</time>
      </trkpt>
      <trkpt lat="36.68562" lon="-5.048429">
        <ele>1328.096</ele>
        <time>2018-07-28T01:50:01Z</time>
      </trkpt>
      <trkpt lat="36.68562" lon="-5.048422">
        <ele>1328.039</ele>
        <time>2018-07-28T01:50:02Z</time>
      </trkpt>
      <trkpt lat="36.68562" lon="-5.048414">
        <ele>1327.982</ele>
        <time>2018-07-28T01:50:03Z</time>
      </trkpt>
      <trkpt lat="36.68563" lon="-5.048405">
        <ele>1327.794</ele>
        <time>2018-07-28T01:50:05Z</time>
      </trkpt>
      <trkpt lat="36.68564" lon="-5.048402">
        <ele>1327.73</ele>
        <time>2018-07-28T01:50:06Z</time>
      </trkpt>
      <trkpt lat="36.68564" lon="-5.048402">
        <ele>1327.665</ele>
        <time>2018-07-28T01:50:07Z</time>
      </trkpt>
      <trkpt lat="36.68566" lon="-5.048395">
        <ele>1327.403</ele>
        <time>2018-07-28T01:50:10Z</time>
      </trkpt>
      <trkpt lat="36.68567" lon="-5.048379">
        <ele>1327.125</ele>
        <time>2018-07-28T01:50:13Z</time>
      </trkpt>
      <trkpt lat="36.68569" lon="-5.048365">
        <ele>1326.765</ele>
        <time>2018-07-28T01:50:16Z</time>
      </trkpt>
      <trkpt lat="36.6857" lon="-5.04836">
        <ele>1326.687</ele>
        <time>2018-07-28T01:50:17Z</time>
      </trkpt>
      <trkpt lat="36.68574" lon="-5.048314">
        <ele>1326.121</ele>
        <time>2018-07-28T01:50:24Z</time>
      </trkpt>
      <trkpt lat="36.68576" lon="-5.048299">
        <ele>1326.108</ele>
        <time>2018-07-28T01:50:26Z</time>
      </trkpt>
      <trkpt lat="36.68576" lon="-5.048294">
        <ele>1326.048</ele>
        <time>2018-07-28T01:50:27Z</time>
      </trkpt>
      <trkpt lat="36.68578" lon="-5.048271">
        <ele>1326.096</ele>
        <time>2018-07-28T01:50:30Z</time>
      </trkpt>
      <trkpt lat="36.68579" lon="-5.048265">
        <ele>1326.134</ele>
        <time>2018-07-28T01:50:31Z</time>
      </trkpt>
      <trkpt lat="36.6858" lon="-5.048248">
        <ele>1326.147</ele>
        <time>2018-07-28T01:50:34Z</time>
      </trkpt>
      <trkpt lat="36.68582" lon="-5.04823">
        <ele>1326.166</ele>
        <time>2018-07-28T01:50:37Z</time>
      </trkpt>
      <trkpt lat="36.68585" lon="-5.048185">
        <ele>1326.343</ele>
        <time>2018-07-28T01:50:43Z</time>
      </trkpt>
      <trkpt lat="36.68586" lon="-5.048166">
        <ele>1326.472</ele>
        <time>2018-07-28T01:50:45Z</time>
      </trkpt>
      <trkpt lat="36.68587" lon="-5.048148">
        <ele>1326.638</ele>
        <time>2018-07-28T01:50:47Z</time>
      </trkpt>
      <trkpt lat="36.68592" lon="-5.048088">
        <ele>1326.769</ele>
        <time>2018-07-28T01:50:54Z</time>
      </trkpt>
      <trkpt lat="36.68592" lon="-5.048079">
        <ele>1326.764</ele>
        <time>2018-07-28T01:50:55Z</time>
      </trkpt>
      <trkpt lat="36.68594" lon="-5.048061">
        <ele>1326.745</ele>
        <time>2018-07-28T01:50:57Z</time>
      </trkpt>
      <trkpt lat="36.68594" lon="-5.048049">
        <ele>1326.853</ele>
        <time>2018-07-28T01:50:58Z</time>
      </trkpt>
      <trkpt lat="36.68595" lon="-5.048039">
        <ele>1326.931</ele>
        <time>2018-07-28T01:50:59Z</time>
      </trkpt>
      <trkpt lat="36.68597" lon="-5.047999">
        <ele>1327.058</ele>
        <time>2018-07-28T01:51:03Z</time>
      </trkpt>
      <trkpt lat="36.68599" lon="-5.047981">
        <ele>1326.995</ele>
        <time>2018-07-28T01:51:05Z</time>
      </trkpt>
      <trkpt lat="36.686" lon="-5.047963">
        <ele>1326.912</ele>
        <time>2018-07-28T01:51:07Z</time>
      </trkpt>
      <trkpt lat="36.68604" lon="-5.047923">
        <ele>1326.69</ele>
        <time>2018-07-28T01:51:12Z</time>
      </trkpt>
      <trkpt lat="36.68606" lon="-5.047868">
        <ele>1326.885</ele>
        <time>2018-07-28T01:51:17Z</time>
      </trkpt>
      <trkpt lat="36.68606" lon="-5.047856">
        <ele>1326.947</ele>
        <time>2018-07-28T01:51:18Z</time>
      </trkpt>
      <trkpt lat="36.68608" lon="-5.047806">
        <ele>1327.011</ele>
        <time>2018-07-28T01:51:23Z</time>
      </trkpt>
      <trkpt lat="36.68609" lon="-5.047787">
        <ele>1327.144</ele>
        <time>2018-07-28T01:51:25Z</time>
      </trkpt>
      <trkpt lat="36.68609" lon="-5.047766">
        <ele>1327.305</ele>
        <time>2018-07-28T01:51:27Z</time>
      </trkpt>
      <trkpt lat="36.68609" lon="-5.047715">
        <ele>1327.938</ele>
        <time>2018-07-28T01:51:31Z</time>
      </trkpt>
      <trkpt lat="36.68608" lon="-5.047643">
        <ele>1329.278</ele>
        <time>2018-07-28T01:51:37Z</time>
      </trkpt>
      <trkpt lat="36.68608" lon="-5.047632">
        <ele>1329.418</ele>
        <time>2018-07-28T01:51:38Z</time>
      </trkpt>
      <trkpt lat="36.68607" lon="-5.047586">
        <ele>1330.24</ele>
        <time>2018-07-28T01:51:42Z</time>
      </trkpt>
      <trkpt lat="36.68606" lon="-5.047553">
        <ele>1330.903</ele>
        <time>2018-07-28T01:51:45Z</time>
      </trkpt>
      <trkpt lat="36.68606" lon="-5.047531">
        <ele>1331.31</ele>
        <time>2018-07-28T01:51:47Z</time>
      </trkpt>
      <trkpt lat="36.68606" lon="-5.047521">
        <ele>1331.442</ele>
        <time>2018-07-28T01:51:48Z</time>
      </trkpt>
      <trkpt lat="36.68605" lon="-5.047477">
        <ele>1331.932</ele>
        <time>2018-07-28T01:51:52Z</time>
      </trkpt>
      <trkpt lat="36.68605" lon="-5.047428">
        <ele>1332.369</ele>
        <time>2018-07-28T01:51:57Z</time>
      </trkpt>
      <trkpt lat="36.68604" lon="-5.047398">
        <ele>1332.861</ele>
        <time>2018-07-28T01:52:00Z</time>
      </trkpt>
      <trkpt lat="36.68602" lon="-5.047367">
        <ele>1333.36</ele>
        <time>2018-07-28T01:52:03Z</time>
      </trkpt>
      <trkpt lat="36.68602" lon="-5.047322">
        <ele>1333.541</ele>
        <time>2018-07-28T01:52:07Z</time>
      </trkpt>
      <trkpt lat="36.68602" lon="-5.047272">
        <ele>1333.993</ele>
        <time>2018-07-28T01:52:11Z</time>
      </trkpt>
      <trkpt lat="36.686" lon="-5.047231">
        <ele>1334.541</ele>
        <time>2018-07-28T01:52:14Z</time>
      </trkpt>
      <trkpt lat="36.686" lon="-5.04722">
        <ele>1334.586</ele>
        <time>2018-07-28T01:52:15Z</time>
      </trkpt>
      <trkpt lat="36.686" lon="-5.047197">
        <ele>1334.809</ele>
        <time>2018-07-28T01:52:17Z</time>
      </trkpt>
      <trkpt lat="36.68599" lon="-5.047079">
        <ele>1335.55</ele>
        <time>2018-07-28T01:52:26Z</time>
      </trkpt>
      <trkpt lat="36.68599" lon="-5.047064">
        <ele>1335.613</ele>
        <time>2018-07-28T01:52:27Z</time>
      </trkpt>
      <trkpt lat="36.68599" lon="-5.047023">
        <ele>1335.913</ele>
        <time>2018-07-28T01:52:30Z</time>
      </trkpt>
      <trkpt lat="36.68599" lon="-5.046998">
        <ele>1336.015</ele>
        <time>2018-07-28T01:52:32Z</time>
      </trkpt>
      <trkpt lat="36.68597" lon="-5.046937">
        <ele>1336.931</ele>
        <time>2018-07-28T01:52:37Z</time>
      </trkpt>
      <trkpt lat="36.68596" lon="-5.046868">
        <ele>1337.758</ele>
        <time>2018-07-28T01:52:43Z</time>
      </trkpt>
      <trkpt lat="36.68595" lon="-5.046825">
        <ele>1338.211</ele>
        <time>2018-07-28T01:52:47Z</time>
      </trkpt>
      <trkpt lat="36.68595" lon="-5.046804">
        <ele>1338.302</ele>
        <time>2018-07-28T01:52:49Z</time>
      </trkpt>
      <trkpt lat="36.68594" lon="-5.046794">
        <ele>1338.48</ele>
        <time>2018-07-28T01:52:50Z</time>
      </trkpt>
      <trkpt lat="36.68593" lon="-5.04672">
        <ele>1339.209</ele>
        <time>2018-07-28T01:52:57Z</time>
      </trkpt>
      <trkpt lat="36.68592" lon="-5.046708">
        <ele>1339.671</ele>
        <time>2018-07-28T01:52:58Z</time>
      </trkpt>
      <trkpt lat="36.6859" lon="-5.046658">
        <ele>1340.474</ele>
        <time>2018-07-28T01:53:02Z</time>
      </trkpt>
      <trkpt lat="36.68588" lon="-5.046603">
        <ele>1340.721</ele>
        <time>2018-07-28T01:53:07Z</time>
      </trkpt>
      <trkpt lat="36.68588" lon="-5.04659">
        <ele>1340.75</ele>
        <time>2018-07-28T01:53:08Z</time>
      </trkpt>
      <trkpt lat="36.68586" lon="-5.046564">
        <ele>1341.079</ele>
        <time>2018-07-28T01:53:10Z</time>
      </trkpt>
      <trkpt lat="36.68585" lon="-5.046534">
        <ele>1341.367</ele>
        <time>2018-07-28T01:53:12Z</time>
      </trkpt>
      <trkpt lat="36.68584" lon="-5.04651">
        <ele>1341.434</ele>
        <time>2018-07-28T01:53:14Z</time>
      </trkpt>
      <trkpt lat="36.68583" lon="-5.046475">
        <ele>1341.648</ele>
        <time>2018-07-28T01:53:17Z</time>
      </trkpt>
      <trkpt lat="36.6858" lon="-5.046416">
        <ele>1342.055</ele>
        <time>2018-07-28T01:53:22Z</time>
      </trkpt>
      <trkpt lat="36.68579" lon="-5.046395">
        <ele>1342.151</ele>
        <time>2018-07-28T01:53:24Z</time>
      </trkpt>
      <trkpt lat="36.68578" lon="-5.046363">
        <ele>1342.302</ele>
        <time>2018-07-28T01:53:27Z</time>
      </trkpt>
      <trkpt lat="36.68576" lon="-5.046341">
        <ele>1342.673</ele>
        <time>2018-07-28T01:53:30Z</time>
      </trkpt>
      <trkpt lat="36.68575" lon="-5.0463">
        <ele>1342.925</ele>
        <time>2018-07-28T01:53:34Z</time>
      </trkpt>
      <trkpt lat="36.68572" lon="-5.04626">
        <ele>1343.624</ele>
        <time>2018-07-28T01:53:37Z</time>
      </trkpt>
      <trkpt lat="36.68569" lon="-5.046177">
        <ele>1344.403</ele>
        <time>2018-07-28T01:53:44Z</time>
      </trkpt>
      <trkpt lat="36.68568" lon="-5.046159">
        <ele>1344.739</ele>
        <time>2018-07-28T01:53:46Z</time>
      </trkpt>
      <trkpt lat="36.68568" lon="-5.046154">
        <ele>1344.713</ele>
        <time>2018-07-28T01:53:47Z</time>
      </trkpt>
      <trkpt lat="36.68565" lon="-5.046108">
        <ele>1345.508</ele>
        <time>2018-07-28T01:53:51Z</time>
      </trkpt>
      <trkpt lat="36.6856" lon="-5.046053">
        <ele>1347.234</ele>
        <time>2018-07-28T01:53:57Z</time>
      </trkpt>
      <trkpt lat="36.68559" lon="-5.046032">
        <ele>1347.46</ele>
        <time>2018-07-28T01:53:59Z</time>
      </trkpt>
      <trkpt lat="36.68556" lon="-5.045935">
        <ele>1348.542</ele>
        <time>2018-07-28T01:54:07Z</time>
      </trkpt>
      <trkpt lat="36.68552" lon="-5.045829">
        <ele>1349.944</ele>
        <time>2018-07-28T01:54:15Z</time>
      </trkpt>
      <trkpt lat="36.68552" lon="-5.045805">
        <ele>1350.151</ele>
        <time>2018-07-28T01:54:17Z</time>
      </trkpt>
      <trkpt lat="36.68551" lon="-5.045681">
        <ele>1351.579</ele>
        <time>2018-07-28T01:54:27Z</time>
      </trkpt>
      <trkpt lat="36.68551" lon="-5.045642">
        <ele>1352.098</ele>
        <time>2018-07-28T01:54:30Z</time>
      </trkpt>
      <trkpt lat="36.68552" lon="-5.045557">
        <ele>1352.488</ele>
        <time>2018-07-28T01:54:36Z</time>
      </trkpt>
      <trkpt lat="36.68552" lon="-5.045543">
        <ele>1352.609</ele>
        <time>2018-07-28T01:54:37Z</time>
      </trkpt>
      <trkpt lat="36.68551" lon="-5.045462">
        <ele>1353.499</ele>
        <time>2018-07-28T01:54:44Z</time>
      </trkpt>
      <trkpt lat="36.6855" lon="-5.045441">
        <ele>1354.048</ele>
        <time>2018-07-28T01:54:46Z</time>
      </trkpt>
      <trkpt lat="36.6855" lon="-5.045433">
        <ele>1354.119</ele>
        <time>2018-07-28T01:54:47Z</time>
      </trkpt>
      <trkpt lat="36.6855" lon="-5.045375">
        <ele>1355.003</ele>
        <time>2018-07-28T01:54:52Z</time>
      </trkpt>
      <trkpt lat="36.68549" lon="-5.045299">
        <ele>1356.239</ele>
        <time>2018-07-28T01:54:57Z</time>
      </trkpt>
      <trkpt lat="36.68549" lon="-5.045284">
        <ele>1356.376</ele>
        <time>2018-07-28T01:54:58Z</time>
      </trkpt>
      <trkpt lat="36.68548" lon="-5.045269">
        <ele>1356.697</ele>
        <time>2018-07-28T01:54:59Z</time>
      </trkpt>
      <trkpt lat="36.68548" lon="-5.045255">
        <ele>1356.822</ele>
        <time>2018-07-28T01:55:00Z</time>
      </trkpt>
      <trkpt lat="36.68547" lon="-5.0452">
        <ele>1357.702</ele>
        <time>2018-07-28T01:55:04Z</time>
      </trkpt>
      <trkpt lat="36.68547" lon="-5.045158">
        <ele>1358.467</ele>
        <time>2018-07-28T01:55:07Z</time>
      </trkpt>
      <trkpt lat="36.68546" lon="-5.045089">
        <ele>1359.295</ele>
        <time>2018-07-28T01:55:12Z</time>
      </trkpt>
      <trkpt lat="36.68546" lon="-5.045042">
        <ele>1359.725</ele>
        <time>2018-07-28T01:55:15Z</time>
      </trkpt>
      <trkpt lat="36.68546" lon="-5.045012">
        <ele>1360.198</ele>
        <time>2018-07-28T01:55:17Z</time>
      </trkpt>
      <trkpt lat="36.68545" lon="-5.044971">
        <ele>1361.274</ele>
        <time>2018-07-28T01:55:20Z</time>
      </trkpt>
      <trkpt lat="36.68545" lon="-5.044959">
        <ele>1361.703</ele>
        <time>2018-07-28T01:55:21Z</time>
      </trkpt>
      <trkpt lat="36.68544" lon="-5.044933">
        <ele>1362.412</ele>
        <time>2018-07-28T01:55:23Z</time>
      </trkpt>
      <trkpt lat="36.68545" lon="-5.044879">
        <ele>1363.087</ele>
        <time>2018-07-28T01:55:27Z</time>
      </trkpt>
      <trkpt lat="36.68545" lon="-5.044869">
        <ele>1363.284</ele>
        <time>2018-07-28T01:55:28Z</time>
      </trkpt>
      <trkpt lat="36.68546" lon="-5.044858">
        <ele>1363.311</ele>
        <time>2018-07-28T01:55:29Z</time>
      </trkpt>
      <trkpt lat="36.68549" lon="-5.044763">
        <ele>1363.715</ele>
        <time>2018-07-28T01:55:37Z</time>
      </trkpt>
      <trkpt lat="36.6855" lon="-5.04473">
        <ele>1363.652</ele>
        <time>2018-07-28T01:55:40Z</time>
      </trkpt>
      <trkpt lat="36.68552" lon="-5.044711">
        <ele>1363.317</ele>
        <time>2018-07-28T01:55:42Z</time>
      </trkpt>
      <trkpt lat="36.68553" lon="-5.044682">
        <ele>1363.2</ele>
        <time>2018-07-28T01:55:45Z</time>
      </trkpt>
      <trkpt lat="36.68554" lon="-5.044662">
        <ele>1363.083</ele>
        <time>2018-07-28T01:55:47Z</time>
      </trkpt>
      <trkpt lat="36.68555" lon="-5.04464">
        <ele>1363.19</ele>
        <time>2018-07-28T01:55:49Z</time>
      </trkpt>
      <trkpt lat="36.68555" lon="-5.044604">
        <ele>1363.781</ele>
        <time>2018-07-28T01:55:52Z</time>
      </trkpt>
      <trkpt lat="36.68557" lon="-5.04457">
        <ele>1363.805</ele>
        <time>2018-07-28T01:55:55Z</time>
      </trkpt>
      <trkpt lat="36.68558" lon="-5.044544">
        <ele>1363.841</ele>
        <time>2018-07-28T01:55:57Z</time>
      </trkpt>
      <trkpt lat="36.6856" lon="-5.044526">
        <ele>1363.377</ele>
        <time>2018-07-28T01:55:59Z</time>
      </trkpt>
      <trkpt lat="36.68565" lon="-5.044461">
        <ele>1362.463</ele>
        <time>2018-07-28T01:56:07Z</time>
      </trkpt>
      <trkpt lat="36.68565" lon="-5.044449">
        <ele>1362.733</ele>
        <time>2018-07-28T01:56:08Z</time>
      </trkpt>
      <trkpt lat="36.68567" lon="-5.044401">
        <ele>1362.991</ele>
        <time>2018-07-28T01:56:13Z</time>
      </trkpt>
      <trkpt lat="36.6857" lon="-5.044367">
        <ele>1362.643</ele>
        <time>2018-07-28T01:56:17Z</time>
      </trkpt>
      <trkpt lat="36.6857" lon="-5.044359">
        <ele>1362.659</ele>
        <time>2018-07-28T01:56:18Z</time>
      </trkpt>
      <trkpt lat="36.68571" lon="-5.044346">
        <ele>1362.488</ele>
        <time>2018-07-28T01:56:20Z</time>
      </trkpt>
      <trkpt lat="36.68572" lon="-5.044339">
        <ele>1362.484</ele>
        <time>2018-07-28T01:56:21Z</time>
      </trkpt>
      <trkpt lat="36.68572" lon="-5.044329">
        <ele>1362.56</ele>
        <time>2018-07-28T01:56:22Z</time>
      </trkpt>
      <trkpt lat="36.68575" lon="-5.044285">
        <ele>1362.346</ele>
        <time>2018-07-28T01:56:27Z</time>
      </trkpt>
      <trkpt lat="36.68578" lon="-5.044216">
        <ele>1363.074</ele>
        <time>2018-07-28T01:56:34Z</time>
      </trkpt>
      <trkpt lat="36.68578" lon="-5.044199">
        <ele>1363.187</ele>
        <time>2018-07-28T01:56:36Z</time>
      </trkpt>
      <trkpt lat="36.68579" lon="-5.044191">
        <ele>1363.233</ele>
        <time>2018-07-28T01:56:37Z</time>
      </trkpt>
      <trkpt lat="36.68579" lon="-5.044173">
        <ele>1363.375</ele>
        <time>2018-07-28T01:56:39Z</time>
      </trkpt>
      <trkpt lat="36.6858" lon="-5.044151">
        <ele>1363.628</ele>
        <time>2018-07-28T01:56:41Z</time>
      </trkpt>
      <trkpt lat="36.68581" lon="-5.04412">
        <ele>1363.831</ele>
        <time>2018-07-28T01:56:44Z</time>
      </trkpt>
      <trkpt lat="36.68581" lon="-5.044087">
        <ele>1364.22</ele>
        <time>2018-07-28T01:56:47Z</time>
      </trkpt>
      <trkpt lat="36.68582" lon="-5.044068">
        <ele>1364.245</ele>
        <time>2018-07-28T01:56:49Z</time>
      </trkpt>
      <trkpt lat="36.68582" lon="-5.044058">
        <ele>1364.268</ele>
        <time>2018-07-28T01:56:50Z</time>
      </trkpt>
      <trkpt lat="36.68583" lon="-5.044035">
        <ele>1364.226</ele>
        <time>2018-07-28T01:56:52Z</time>
      </trkpt>
      <trkpt lat="36.68584" lon="-5.043976">
        <ele>1364.781</ele>
        <time>2018-07-28T01:56:57Z</time>
      </trkpt>
      <trkpt lat="36.68587" lon="-5.043906">
        <ele>1365.104</ele>
        <time>2018-07-28T01:57:03Z</time>
      </trkpt>
      <trkpt lat="36.68587" lon="-5.043866">
        <ele>1365.513</ele>
        <time>2018-07-28T01:57:06Z</time>
      </trkpt>
      <trkpt lat="36.68588" lon="-5.043854">
        <ele>1365.58</ele>
        <time>2018-07-28T01:57:07Z</time>
      </trkpt>
      <trkpt lat="36.68589" lon="-5.043819">
        <ele>1365.916</ele>
        <time>2018-07-28T01:57:10Z</time>
      </trkpt>
      <trkpt lat="36.68592" lon="-5.043751">
        <ele>1365.758</ele>
        <time>2018-07-28T01:57:16Z</time>
      </trkpt>
      <trkpt lat="36.68593" lon="-5.04374">
        <ele>1365.686</ele>
        <time>2018-07-28T01:57:17Z</time>
      </trkpt>
      <trkpt lat="36.68596" lon="-5.043672">
        <ele>1365.861</ele>
        <time>2018-07-28T01:57:23Z</time>
      </trkpt>
      <trkpt lat="36.68596" lon="-5.043619">
        <ele>1366.839</ele>
        <time>2018-07-28T01:57:27Z</time>
      </trkpt>
      <trkpt lat="36.68596" lon="-5.04358">
        <ele>1367.561</ele>
        <time>2018-07-28T01:57:30Z</time>
      </trkpt>
      <trkpt lat="36.68597" lon="-5.043529">
        <ele>1368.256</ele>
        <time>2018-07-28T01:57:34Z</time>
      </trkpt>
      <trkpt lat="36.68599" lon="-5.0435">
        <ele>1368.305</ele>
        <time>2018-07-28T01:57:37Z</time>
      </trkpt>
      <trkpt lat="36.68601" lon="-5.043449">
        <ele>1368.542</ele>
        <time>2018-07-28T01:57:42Z</time>
      </trkpt>
      <trkpt lat="36.68602" lon="-5.043436">
        <ele>1368.549</ele>
        <time>2018-07-28T01:57:43Z</time>
      </trkpt>
      <trkpt lat="36.68602" lon="-5.043426">
        <ele>1368.621</ele>
        <time>2018-07-28T01:57:44Z</time>
      </trkpt>
      <trkpt lat="36.68603" lon="-5.043416">
        <ele>1368.577</ele>
        <time>2018-07-28T01:57:45Z</time>
      </trkpt>
      <trkpt lat="36.68604" lon="-5.043395">
        <ele>1368.63</ele>
        <time>2018-07-28T01:57:47Z</time>
      </trkpt>
      <trkpt lat="36.68605" lon="-5.043372">
        <ele>1368.843</ele>
        <time>2018-07-28T01:57:49Z</time>
      </trkpt>
      <trkpt lat="36.68607" lon="-5.043277">
        <ele>1369.721</ele>
        <time>2018-07-28T01:57:57Z</time>
      </trkpt>
      <trkpt lat="36.68607" lon="-5.043264">
        <ele>1369.878</ele>
        <time>2018-07-28T01:57:58Z</time>
      </trkpt>
      <trkpt lat="36.68608" lon="-5.043196">
        <ele>1370.396</ele>
        <time>2018-07-28T01:58:03Z</time>
      </trkpt>
      <trkpt lat="36.68608" lon="-5.043144">
        <ele>1370.846</ele>
        <time>2018-07-28T01:58:07Z</time>
      </trkpt>
      <trkpt lat="36.68608" lon="-5.043121">
        <ele>1371.141</ele>
        <time>2018-07-28T01:58:09Z</time>
      </trkpt>
      <trkpt lat="36.68609" lon="-5.043059">
        <ele>1371.74</ele>
        <time>2018-07-28T01:58:14Z</time>
      </trkpt>
      <trkpt lat="36.6861" lon="-5.043025">
        <ele>1371.996</ele>
        <time>2018-07-28T01:58:17Z</time>
      </trkpt>
      <trkpt lat="36.6861" lon="-5.043004">
        <ele>1372.18</ele>
        <time>2018-07-28T01:58:19Z</time>
      </trkpt>
      <trkpt lat="36.68611" lon="-5.042965">
        <ele>1372.522</ele>
        <time>2018-07-28T01:58:22Z</time>
      </trkpt>
      <trkpt lat="36.68613" lon="-5.042913">
        <ele>1372.809</ele>
        <time>2018-07-28T01:58:27Z</time>
      </trkpt>
      <trkpt lat="36.68613" lon="-5.042904">
        <ele>1372.854</ele>
        <time>2018-07-28T01:58:28Z</time>
      </trkpt>
      <trkpt lat="36.68616" lon="-5.042838">
        <ele>1373.166</ele>
        <time>2018-07-28T01:58:35Z</time>
      </trkpt>
      <trkpt lat="36.68617" lon="-5.042815">
        <ele>1373.423</ele>
        <time>2018-07-28T01:58:37Z</time>
      </trkpt>
      <trkpt lat="36.68617" lon="-5.042804">
        <ele>1373.589</ele>
        <time>2018-07-28T01:58:38Z</time>
      </trkpt>
      <trkpt lat="36.68618" lon="-5.042764">
        <ele>1374.025</ele>
        <time>2018-07-28T01:58:42Z</time>
      </trkpt>
      <trkpt lat="36.6862" lon="-5.042726">
        <ele>1374.26</ele>
        <time>2018-07-28T01:58:46Z</time>
      </trkpt>
      <trkpt lat="36.6862" lon="-5.042715">
        <ele>1374.298</ele>
        <time>2018-07-28T01:58:47Z</time>
      </trkpt>
      <trkpt lat="36.68621" lon="-5.042705">
        <ele>1374.325</ele>
        <time>2018-07-28T01:58:48Z</time>
      </trkpt>
      <trkpt lat="36.68625" lon="-5.04263">
        <ele>1374.909</ele>
        <time>2018-07-28T01:58:55Z</time>
      </trkpt>
      <trkpt lat="36.68626" lon="-5.042609">
        <ele>1375.139</ele>
        <time>2018-07-28T01:58:57Z</time>
      </trkpt>
      <trkpt lat="36.68626" lon="-5.0426">
        <ele>1375.233</ele>
        <time>2018-07-28T01:58:58Z</time>
      </trkpt>
      <trkpt lat="36.68627" lon="-5.04258">
        <ele>1375.404</ele>
        <time>2018-07-28T01:59:00Z</time>
      </trkpt>
      <trkpt lat="36.68628" lon="-5.042568">
        <ele>1375.552</ele>
        <time>2018-07-28T01:59:01Z</time>
      </trkpt>
      <trkpt lat="36.68629" lon="-5.042537">
        <ele>1375.827</ele>
        <time>2018-07-28T01:59:04Z</time>
      </trkpt>
      <trkpt lat="36.6863" lon="-5.042516">
        <ele>1376.093</ele>
        <time>2018-07-28T01:59:06Z</time>
      </trkpt>
      <trkpt lat="36.68631" lon="-5.042505">
        <ele>1376.198</ele>
        <time>2018-07-28T01:59:07Z</time>
      </trkpt>
      <trkpt lat="36.68633" lon="-5.042439">
        <ele>1376.886</ele>
        <time>2018-07-28T01:59:14Z</time>
      </trkpt>
      <trkpt lat="36.68633" lon="-5.042397">
        <ele>1377.57</ele>
        <time>2018-07-28T01:59:17Z</time>
      </trkpt>
      <trkpt lat="36.68633" lon="-5.042367">
        <ele>1377.999</ele>
        <time>2018-07-28T01:59:19Z</time>
      </trkpt>
      <trkpt lat="36.68632" lon="-5.042328">
        <ele>1378.594</ele>
        <time>2018-07-28T01:59:22Z</time>
      </trkpt>
      <trkpt lat="36.68633" lon="-5.042304">
        <ele>1378.898</ele>
        <time>2018-07-28T01:59:24Z</time>
      </trkpt>
      <trkpt lat="36.68632" lon="-5.042293">
        <ele>1379.089</ele>
        <time>2018-07-28T01:59:25Z</time>
      </trkpt>
      <trkpt lat="36.68632" lon="-5.042268">
        <ele>1379.448</ele>
        <time>2018-07-28T01:59:27Z</time>
      </trkpt>
      <trkpt lat="36.68631" lon="-5.042241">
        <ele>1379.923</ele>
        <time>2018-07-28T01:59:29Z</time>
      </trkpt>
      <trkpt lat="36.68631" lon="-5.042228">
        <ele>1380.135</ele>
        <time>2018-07-28T01:59:30Z</time>
      </trkpt>
      <trkpt lat="36.68631" lon="-5.042217">
        <ele>1380.295</ele>
        <time>2018-07-28T01:59:31Z</time>
      </trkpt>
      <trkpt lat="36.6863" lon="-5.042172">
        <ele>1380.978</ele>
        <time>2018-07-28T01:59:35Z</time>
      </trkpt>
      <trkpt lat="36.68629" lon="-5.042146">
        <ele>1381.362</ele>
        <time>2018-07-28T01:59:37Z</time>
      </trkpt>
      <trkpt lat="36.68628" lon="-5.042091">
        <ele>1382.221</ele>
        <time>2018-07-28T01:59:42Z</time>
      </trkpt>
      <trkpt lat="36.68626" lon="-5.042033">
        <ele>1383.088</ele>
        <time>2018-07-28T01:59:47Z</time>
      </trkpt>
      <trkpt lat="36.68626" lon="-5.04202">
        <ele>1383.286</ele>
        <time>2018-07-28T01:59:48Z</time>
      </trkpt>
      <trkpt lat="36.68626" lon="-5.042007">
        <ele>1383.458</ele>
        <time>2018-07-28T01:59:49Z</time>
      </trkpt>
      <trkpt lat="36.68624" lon="-5.041959">
        <ele>1384.165</ele>
        <time>2018-07-28T01:59:53Z</time>
      </trkpt>
      <trkpt lat="36.68623" lon="-5.041915">
        <ele>1384.809</ele>
        <time>2018-07-28T01:59:57Z</time>
      </trkpt>
      <trkpt lat="36.68621" lon="-5.041873">
        <ele>1385.405</ele>
        <time>2018-07-28T02:00:01Z</time>
      </trkpt>
      <trkpt lat="36.68619" lon="-5.041798">
        <ele>1386.383</ele>
        <time>2018-07-28T02:00:07Z</time>
      </trkpt>
      <trkpt lat="36.68616" lon="-5.041724">
        <ele>1387.311</ele>
        <time>2018-07-28T02:00:13Z</time>
      </trkpt>
      <trkpt lat="36.68615" lon="-5.041695">
        <ele>1387.664</ele>
        <time>2018-07-28T02:00:16Z</time>
      </trkpt>
      <trkpt lat="36.68615" lon="-5.041683">
        <ele>1387.807</ele>
        <time>2018-07-28T02:00:17Z</time>
      </trkpt>
      <trkpt lat="36.68614" lon="-5.041669">
        <ele>1387.974</ele>
        <time>2018-07-28T02:00:18Z</time>
      </trkpt>
      <trkpt lat="36.68613" lon="-5.041631">
        <ele>1388.388</ele>
        <time>2018-07-28T02:00:21Z</time>
      </trkpt>
      <trkpt lat="36.68612" lon="-5.041594">
        <ele>1388.787</ele>
        <time>2018-07-28T02:00:24Z</time>
      </trkpt>
      <trkpt lat="36.6861" lon="-5.041554">
        <ele>1389.203</ele>
        <time>2018-07-28T02:00:27Z</time>
      </trkpt>
      <trkpt lat="36.68609" lon="-5.041542">
        <ele>1389.326</ele>
        <time>2018-07-28T02:00:28Z</time>
      </trkpt>
      <trkpt lat="36.68606" lon="-5.041438">
        <ele>1390.364</ele>
        <time>2018-07-28T02:00:37Z</time>
      </trkpt>
      <trkpt lat="36.68605" lon="-5.041422">
        <ele>1390.507</ele>
        <time>2018-07-28T02:00:39Z</time>
      </trkpt>
      <trkpt lat="36.68604" lon="-5.041399">
        <ele>1390.724</ele>
        <time>2018-07-28T02:00:41Z</time>
      </trkpt>
      <trkpt lat="36.68602" lon="-5.041333">
        <ele>1391.328</ele>
        <time>2018-07-28T02:00:47Z</time>
      </trkpt>
      <trkpt lat="36.68601" lon="-5.041306">
        <ele>1391.575</ele>
        <time>2018-07-28T02:00:49Z</time>
      </trkpt>
      <trkpt lat="36.68599" lon="-5.041227">
        <ele>1392.287</ele>
        <time>2018-07-28T02:00:54Z</time>
      </trkpt>
      <trkpt lat="36.68598" lon="-5.041185">
        <ele>1392.665</ele>
        <time>2018-07-28T02:00:57Z</time>
      </trkpt>
      <trkpt lat="36.68594" lon="-5.041058">
        <ele>1393.672</ele>
        <time>2018-07-28T02:01:07Z</time>
      </trkpt>
      <trkpt lat="36.68594" lon="-5.041045">
        <ele>1393.772</ele>
        <time>2018-07-28T02:01:08Z</time>
      </trkpt>
      <trkpt lat="36.68593" lon="-5.041023">
        <ele>1393.958</ele>
        <time>2018-07-28T02:01:10Z</time>
      </trkpt>
      <trkpt lat="36.68591" lon="-5.040941">
        <ele>1394.594</ele>
        <time>2018-07-28T02:01:17Z</time>
      </trkpt>
      <trkpt lat="36.68591" lon="-5.040918">
        <ele>1394.781</ele>
        <time>2018-07-28T02:01:19Z</time>
      </trkpt>
      <trkpt lat="36.68589" lon="-5.040859">
        <ele>1395.179</ele>
        <time>2018-07-28T02:01:24Z</time>
      </trkpt>
      <trkpt lat="36.68588" lon="-5.040823">
        <ele>1395.43</ele>
        <time>2018-07-28T02:01:27Z</time>
      </trkpt>
      <trkpt lat="36.68586" lon="-5.040779">
        <ele>1395.72</ele>
        <time>2018-07-28T02:01:31Z</time>
      </trkpt>
      <trkpt lat="36.68584" lon="-5.040722">
        <ele>1396.098</ele>
        <time>2018-07-28T02:01:36Z</time>
      </trkpt>
      <trkpt lat="36.68582" lon="-5.040663">
        <ele>1396.705</ele>
        <time>2018-07-28T02:01:41Z</time>
      </trkpt>
      <trkpt lat="36.68579" lon="-5.040623">
        <ele>1397.179</ele>
        <time>2018-07-28T02:01:45Z</time>
      </trkpt>
      <trkpt lat="36.68579" lon="-5.040598">
        <ele>1397.45</ele>
        <time>2018-07-28T02:01:47Z</time>
      </trkpt>
      <trkpt lat="36.68577" lon="-5.04056">
        <ele>1397.873</ele>
        <time>2018-07-28T02:01:50Z</time>
      </trkpt>
      <trkpt lat="36.68576" lon="-5.040537">
        <ele>1398.118</ele>
        <time>2018-07-28T02:01:52Z</time>
      </trkpt>
      <trkpt lat="36.68576" lon="-5.040523">
        <ele>1398.263</ele>
        <time>2018-07-28T02:01:53Z</time>
      </trkpt>
      <trkpt lat="36.68575" lon="-5.040475">
        <ele>1398.759</ele>
        <time>2018-07-28T02:01:57Z</time>
      </trkpt>
      <trkpt lat="36.68575" lon="-5.040448">
        <ele>1399.023</ele>
        <time>2018-07-28T02:01:59Z</time>
      </trkpt>
      <trkpt lat="36.68574" lon="-5.040435">
        <ele>1399.161</ele>
        <time>2018-07-28T02:02:00Z</time>
      </trkpt>
      <trkpt lat="36.68573" lon="-5.04036">
        <ele>1399.913</ele>
        <time>2018-07-28T02:02:06Z</time>
      </trkpt>
      <trkpt lat="36.68572" lon="-5.040351">
        <ele>1400.01</ele>
        <time>2018-07-28T02:02:07Z</time>
      </trkpt>
      <trkpt lat="36.68571" lon="-5.040315">
        <ele>1400.38</ele>
        <time>2018-07-28T02:02:11Z</time>
      </trkpt>
      <trkpt lat="36.68571" lon="-5.040305">
        <ele>1400.485</ele>
        <time>2018-07-28T02:02:12Z</time>
      </trkpt>
      <trkpt lat="36.6857" lon="-5.040263">
        <ele>1400.908</ele>
        <time>2018-07-28T02:02:16Z</time>
      </trkpt>
      <trkpt lat="36.68569" lon="-5.040254">
        <ele>1401.004</ele>
        <time>2018-07-28T02:02:17Z</time>
      </trkpt>
      <trkpt lat="36.68568" lon="-5.040177">
        <ele>1401.747</ele>
        <time>2018-07-28T02:02:23Z</time>
      </trkpt>
      <trkpt lat="36.68567" lon="-5.040134">
        <ele>1402.161</ele>
        <time>2018-07-28T02:02:27Z</time>
      </trkpt>
      <trkpt lat="36.68568" lon="-5.040124">
        <ele>1402.242</ele>
        <time>2018-07-28T02:02:28Z</time>
      </trkpt>
      <trkpt lat="36.68568" lon="-5.040087">
        <ele>1402.578</ele>
        <time>2018-07-28T02:02:31Z</time>
      </trkpt>
      <trkpt lat="36.68568" lon="-5.040013">
        <ele>1403.25</ele>
        <time>2018-07-28T02:02:37Z</time>
      </trkpt>
      <trkpt lat="36.68569" lon="-5.039956">
        <ele>1404.13</ele>
        <time>2018-07-28T02:02:42Z</time>
      </trkpt>
      <trkpt lat="36.68569" lon="-5.039921">
        <ele>1404.749</ele>
        <time>2018-07-28T02:02:46Z</time>
      </trkpt>
      <trkpt lat="36.68569" lon="-5.039911">
        <ele>1404.927</ele>
        <time>2018-07-28T02:02:47Z</time>
      </trkpt>
      <trkpt lat="36.68568" lon="-5.039778">
        <ele>1407.31</ele>
        <time>2018-07-28T02:02:57Z</time>
      </trkpt>
      <trkpt lat="36.68568" lon="-5.039764">
        <ele>1407.557</ele>
        <time>2018-07-28T02:02:58Z</time>
      </trkpt>
      <trkpt lat="36.68569" lon="-5.039736">
        <ele>1408.042</ele>
        <time>2018-07-28T02:03:00Z</time>
      </trkpt>
      <trkpt lat="36.68568" lon="-5.039651">
        <ele>1409.581</ele>
        <time>2018-07-28T02:03:07Z</time>
      </trkpt>
      <trkpt lat="36.68567" lon="-5.039615">
        <ele>1410.238</ele>
        <time>2018-07-28T02:03:10Z</time>
      </trkpt>
      <trkpt lat="36.68566" lon="-5.039606">
        <ele>1410.413</ele>
        <time>2018-07-28T02:03:11Z</time>
      </trkpt>
      <trkpt lat="36.68562" lon="-5.039543">
        <ele>1411.603</ele>
        <time>2018-07-28T02:03:17Z</time>
      </trkpt>
      <trkpt lat="36.68561" lon="-5.039528">
        <ele>1411.879</ele>
        <time>2018-07-28T02:03:18Z</time>
      </trkpt>
      <trkpt lat="36.6856" lon="-5.039495">
        <ele>1412.486</ele>
        <time>2018-07-28T02:03:21Z</time>
      </trkpt>
      <trkpt lat="36.68559" lon="-5.039484">
        <ele>1412.693</ele>
        <time>2018-07-28T02:03:22Z</time>
      </trkpt>
      <trkpt lat="36.68557" lon="-5.039469">
        <ele>1412.999</ele>
        <time>2018-07-28T02:03:24Z</time>
      </trkpt>
      <trkpt lat="36.68555" lon="-5.039464">
        <ele>1413.102</ele>
        <time>2018-07-28T02:03:25Z</time>
      </trkpt>
      <trkpt lat="36.68554" lon="-5.039458">
        <ele>1413.23</ele>
        <time>2018-07-28T02:03:26Z</time>
      </trkpt>
      <trkpt lat="36.68553" lon="-5.039457">
        <ele>1413.271</ele>
        <time>2018-07-28T02:03:27Z</time>
      </trkpt>
      <trkpt lat="36.68545" lon="-5.039422">
        <ele>1414.002</ele>
        <time>2018-07-28T02:03:34Z</time>
      </trkpt>
      <trkpt lat="36.68542" lon="-5.039412">
        <ele>1414.23</ele>
        <time>2018-07-28T02:03:37Z</time>
      </trkpt>
      <trkpt lat="36.68532" lon="-5.039372">
        <ele>1415.075</ele>
        <time>2018-07-28T02:03:47Z</time>
      </trkpt>
      <trkpt lat="36.68531" lon="-5.039368">
        <ele>1415.153</ele>
        <time>2018-07-28T02:03:48Z</time>
      </trkpt>
      <trkpt lat="36.68527" lon="-5.039356">
        <ele>1415.414</ele>
        <time>2018-07-28T02:03:52Z</time>
      </trkpt>
      <trkpt lat="36.68522" lon="-5.039348">
        <ele>1415.626</ele>
        <time>2018-07-28T02:03:57Z</time>
      </trkpt>
      <trkpt lat="36.68519" lon="-5.039344">
        <ele>1415.744</ele>
        <time>2018-07-28T02:04:01Z</time>
      </trkpt>
      <trkpt lat="36.68518" lon="-5.039343">
        <ele>1415.777</ele>
        <time>2018-07-28T02:04:02Z</time>
      </trkpt>
      <trkpt lat="36.68515" lon="-5.039337">
        <ele>1415.924</ele>
        <time>2018-07-28T02:04:05Z</time>
      </trkpt>
      <trkpt lat="36.68512" lon="-5.039331">
        <ele>1416.063</ele>
        <time>2018-07-28T02:04:07Z</time>
      </trkpt>
      <trkpt lat="36.68509" lon="-5.039331">
        <ele>1416.106</ele>
        <time>2018-07-28T02:04:10Z</time>
      </trkpt>
      <trkpt lat="36.68508" lon="-5.03933">
        <ele>1416.139</ele>
        <time>2018-07-28T02:04:11Z</time>
      </trkpt>
      <trkpt lat="36.68503" lon="-5.039317">
        <ele>1416.427</ele>
        <time>2018-07-28T02:04:16Z</time>
      </trkpt>
      <trkpt lat="36.68502" lon="-5.039316">
        <ele>1416.459</ele>
        <time>2018-07-28T02:04:17Z</time>
      </trkpt>
      <trkpt lat="36.68501" lon="-5.039313">
        <ele>1416.526</ele>
        <time>2018-07-28T02:04:18Z</time>
      </trkpt>
      <trkpt lat="36.68497" lon="-5.039303">
        <ele>1417.068</ele>
        <time>2018-07-28T02:04:23Z</time>
      </trkpt>
      <trkpt lat="36.68493" lon="-5.03929">
        <ele>1417.656</ele>
        <time>2018-07-28T02:04:27Z</time>
      </trkpt>
      <trkpt lat="36.68488" lon="-5.039274">
        <ele>1418.456</ele>
        <time>2018-07-28T02:04:33Z</time>
      </trkpt>
      <trkpt lat="36.68486" lon="-5.039267">
        <ele>1418.864</ele>
        <time>2018-07-28T02:04:36Z</time>
      </trkpt>
      <trkpt lat="36.68484" lon="-5.039264">
        <ele>1419.036</ele>
        <time>2018-07-28T02:04:37Z</time>
      </trkpt>
      <trkpt lat="36.68483" lon="-5.039259">
        <ele>1419.33</ele>
        <time>2018-07-28T02:04:39Z</time>
      </trkpt>
      <trkpt lat="36.68481" lon="-5.039251">
        <ele>1419.672</ele>
        <time>2018-07-28T02:04:41Z</time>
      </trkpt>
      <trkpt lat="36.68476" lon="-5.039227">
        <ele>1420.608</ele>
        <time>2018-07-28T02:04:47Z</time>
      </trkpt>
      <trkpt lat="36.68474" lon="-5.039214">
        <ele>1420.989</ele>
        <time>2018-07-28T02:04:49Z</time>
      </trkpt>
      <trkpt lat="36.68473" lon="-5.0392">
        <ele>1421.394</ele>
        <time>2018-07-28T02:04:51Z</time>
      </trkpt>
      <trkpt lat="36.68469" lon="-5.039174">
        <ele>1422.239</ele>
        <time>2018-07-28T02:04:55Z</time>
      </trkpt>
      <trkpt lat="36.68467" lon="-5.039163">
        <ele>1422.682</ele>
        <time>2018-07-28T02:04:57Z</time>
      </trkpt>
      <trkpt lat="36.68464" lon="-5.039148">
        <ele>1423.537</ele>
        <time>2018-07-28T02:05:00Z</time>
      </trkpt>
      <trkpt lat="36.68461" lon="-5.039139">
        <ele>1424.114</ele>
        <time>2018-07-28T02:05:03Z</time>
      </trkpt>
      <trkpt lat="36.68457" lon="-5.039142">
        <ele>1424.38</ele>
        <time>2018-07-28T02:05:06Z</time>
      </trkpt>
      <trkpt lat="36.68457" lon="-5.039145">
        <ele>1424.372</ele>
        <time>2018-07-28T02:05:07Z</time>
      </trkpt>
      <trkpt lat="36.68454" lon="-5.039156">
        <ele>1424.311</ele>
        <time>2018-07-28T02:05:09Z</time>
      </trkpt>
      <trkpt lat="36.6845" lon="-5.03918">
        <ele>1424.203</ele>
        <time>2018-07-28T02:05:13Z</time>
      </trkpt>
      <trkpt lat="36.68446" lon="-5.039195">
        <ele>1424.317</ele>
        <time>2018-07-28T02:05:16Z</time>
      </trkpt>
      <trkpt lat="36.68445" lon="-5.0392">
        <ele>1424.361</ele>
        <time>2018-07-28T02:05:17Z</time>
      </trkpt>
      <trkpt lat="36.68435" lon="-5.039247">
        <ele>1424.639</ele>
        <time>2018-07-28T02:05:27Z</time>
      </trkpt>
      <trkpt lat="36.68435" lon="-5.039254">
        <ele>1424.601</ele>
        <time>2018-07-28T02:05:28Z</time>
      </trkpt>
      <trkpt lat="36.68434" lon="-5.039258">
        <ele>1424.619</ele>
        <time>2018-07-28T02:05:29Z</time>
      </trkpt>
      <trkpt lat="36.68429" lon="-5.039266">
        <ele>1424.978</ele>
        <time>2018-07-28T02:05:34Z</time>
      </trkpt>
      <trkpt lat="36.68426" lon="-5.039273">
        <ele>1425.195</ele>
        <time>2018-07-28T02:05:37Z</time>
      </trkpt>
      <trkpt lat="36.68425" lon="-5.039277">
        <ele>1425.246</ele>
        <time>2018-07-28T02:05:38Z</time>
      </trkpt>
      <trkpt lat="36.68423" lon="-5.039293">
        <ele>1425.188</ele>
        <time>2018-07-28T02:05:40Z</time>
      </trkpt>
      <trkpt lat="36.6842" lon="-5.039305">
        <ele>1425.309</ele>
        <time>2018-07-28T02:05:43Z</time>
      </trkpt>
      <trkpt lat="36.68416" lon="-5.039328">
        <ele>1425.575</ele>
        <time>2018-07-28T02:05:47Z</time>
      </trkpt>
      <trkpt lat="36.68414" lon="-5.039349">
        <ele>1425.872</ele>
        <time>2018-07-28T02:05:50Z</time>
      </trkpt>
      <trkpt lat="36.68407" lon="-5.039383">
        <ele>1427.487</ele>
        <time>2018-07-28T02:05:57Z</time>
      </trkpt>
      <trkpt lat="36.68404" lon="-5.039419">
        <ele>1427.865</ele>
        <time>2018-07-28T02:06:01Z</time>
      </trkpt>
      <trkpt lat="36.684" lon="-5.039462">
        <ele>1428.477</ele>
        <time>2018-07-28T02:06:06Z</time>
      </trkpt>
      <trkpt lat="36.68399" lon="-5.039471">
        <ele>1428.561</ele>
        <time>2018-07-28T02:06:07Z</time>
      </trkpt>
      <trkpt lat="36.68396" lon="-5.039501">
        <ele>1429</ele>
        <time>2018-07-28T02:06:10Z</time>
      </trkpt>
      <trkpt lat="36.68395" lon="-5.039521">
        <ele>1429.117</ele>
        <time>2018-07-28T02:06:12Z</time>
      </trkpt>
      <trkpt lat="36.68393" lon="-5.039538">
        <ele>1429.292</ele>
        <time>2018-07-28T02:06:14Z</time>
      </trkpt>
      <trkpt lat="36.68392" lon="-5.039556">
        <ele>1429.435</ele>
        <time>2018-07-28T02:06:16Z</time>
      </trkpt>
      <trkpt lat="36.68391" lon="-5.039564">
        <ele>1429.522</ele>
        <time>2018-07-28T02:06:17Z</time>
      </trkpt>
      <trkpt lat="36.6839" lon="-5.039586">
        <ele>1429.582</ele>
        <time>2018-07-28T02:06:19Z</time>
      </trkpt>
      <trkpt lat="36.68388" lon="-5.0396">
        <ele>1429.795</ele>
        <time>2018-07-28T02:06:21Z</time>
      </trkpt>
      <trkpt lat="36.68385" lon="-5.039622">
        <ele>1430.441</ele>
        <time>2018-07-28T02:06:24Z</time>
      </trkpt>
      <trkpt lat="36.68382" lon="-5.039642">
        <ele>1430.873</ele>
        <time>2018-07-28T02:06:27Z</time>
      </trkpt>
      <trkpt lat="36.68379" lon="-5.039663">
        <ele>1431.393</ele>
        <time>2018-07-28T02:06:30Z</time>
      </trkpt>
      <trkpt lat="36.68378" lon="-5.039673">
        <ele>1431.54</ele>
        <time>2018-07-28T02:06:31Z</time>
      </trkpt>
      <trkpt lat="36.68376" lon="-5.039688">
        <ele>1431.81</ele>
        <time>2018-07-28T02:06:33Z</time>
      </trkpt>
      <trkpt lat="36.68375" lon="-5.039691">
        <ele>1431.985</ele>
        <time>2018-07-28T02:06:34Z</time>
      </trkpt>
      <trkpt lat="36.68372" lon="-5.03971">
        <ele>1432.516</ele>
        <time>2018-07-28T02:06:37Z</time>
      </trkpt>
      <trkpt lat="36.6837" lon="-5.039721">
        <ele>1432.746</ele>
        <time>2018-07-28T02:06:39Z</time>
      </trkpt>
      <trkpt lat="36.68365" lon="-5.039751">
        <ele>1433.71</ele>
        <time>2018-07-28T02:06:46Z</time>
      </trkpt>
      <trkpt lat="36.68364" lon="-5.039757">
        <ele>1433.813</ele>
        <time>2018-07-28T02:06:47Z</time>
      </trkpt>
      <trkpt lat="36.68362" lon="-5.039776">
        <ele>1434.189</ele>
        <time>2018-07-28T02:06:50Z</time>
      </trkpt>
      <trkpt lat="36.68359" lon="-5.0398">
        <ele>1434.437</ele>
        <time>2018-07-28T02:06:53Z</time>
      </trkpt>
      <trkpt lat="36.68358" lon="-5.03981">
        <ele>1434.435</ele>
        <time>2018-07-28T02:06:54Z</time>
      </trkpt>
      <trkpt lat="36.68356" lon="-5.039833">
        <ele>1434.586</ele>
        <time>2018-07-28T02:06:57Z</time>
      </trkpt>
      <trkpt lat="36.68351" lon="-5.039859">
        <ele>1435.435</ele>
        <time>2018-07-28T02:07:02Z</time>
      </trkpt>
      <trkpt lat="36.6835" lon="-5.039869">
        <ele>1435.422</ele>
        <time>2018-07-28T02:07:03Z</time>
      </trkpt>
      <trkpt lat="36.68346" lon="-5.039904">
        <ele>1435.682</ele>
        <time>2018-07-28T02:07:07Z</time>
      </trkpt>
      <trkpt lat="36.68346" lon="-5.039913">
        <ele>1435.683</ele>
        <time>2018-07-28T02:07:08Z</time>
      </trkpt>
      <trkpt lat="36.68338" lon="-5.039982">
        <ele>1436.052</ele>
        <time>2018-07-28T02:07:16Z</time>
      </trkpt>
      <trkpt lat="36.68338" lon="-5.039991">
        <ele>1436.039</ele>
        <time>2018-07-28T02:07:17Z</time>
      </trkpt>
      <trkpt lat="36.68336" lon="-5.040003">
        <ele>1436.198</ele>
        <time>2018-07-28T02:07:19Z</time>
      </trkpt>
      <trkpt lat="36.68333" lon="-5.040019">
        <ele>1436.833</ele>
        <time>2018-07-28T02:07:22Z</time>
      </trkpt>
      <trkpt lat="36.68328" lon="-5.040057">
        <ele>1437.694</ele>
        <time>2018-07-28T02:07:27Z</time>
      </trkpt>
      <trkpt lat="36.68327" lon="-5.040064">
        <ele>1437.947</ele>
        <time>2018-07-28T02:07:28Z</time>
      </trkpt>
      <trkpt lat="36.68327" lon="-5.040071">
        <ele>1438.078</ele>
        <time>2018-07-28T02:07:29Z</time>
      </trkpt>
      <trkpt lat="36.68324" lon="-5.040094">
        <ele>1438.566</ele>
        <time>2018-07-28T02:07:32Z</time>
      </trkpt>
      <trkpt lat="36.68321" lon="-5.04011">
        <ele>1439.14</ele>
        <time>2018-07-28T02:07:35Z</time>
      </trkpt>
      <trkpt lat="36.6832" lon="-5.04012">
        <ele>1439.457</ele>
        <time>2018-07-28T02:07:37Z</time>
      </trkpt>
      <trkpt lat="36.68319" lon="-5.040127">
        <ele>1439.705</ele>
        <time>2018-07-28T02:07:38Z</time>
      </trkpt>
      <trkpt lat="36.68315" lon="-5.040154">
        <ele>1440.462</ele>
        <time>2018-07-28T02:07:42Z</time>
      </trkpt>
      <trkpt lat="36.68311" lon="-5.040184">
        <ele>1441.061</ele>
        <time>2018-07-28T02:07:46Z</time>
      </trkpt>
      <trkpt lat="36.68311" lon="-5.040193">
        <ele>1441.161</ele>
        <time>2018-07-28T02:07:47Z</time>
      </trkpt>
      <trkpt lat="36.68309" lon="-5.040209">
        <ele>1441.391</ele>
        <time>2018-07-28T02:07:49Z</time>
      </trkpt>
      <trkpt lat="36.68308" lon="-5.040212">
        <ele>1441.681</ele>
        <time>2018-07-28T02:07:50Z</time>
      </trkpt>
      <trkpt lat="36.68307" lon="-5.040219">
        <ele>1441.924</ele>
        <time>2018-07-28T02:07:51Z</time>
      </trkpt>
      <trkpt lat="36.68304" lon="-5.040256">
        <ele>1442.298</ele>
        <time>2018-07-28T02:07:55Z</time>
      </trkpt>
      <trkpt lat="36.68303" lon="-5.040263">
        <ele>1442.532</ele>
        <time>2018-07-28T02:07:56Z</time>
      </trkpt>
      <trkpt lat="36.68302" lon="-5.040269">
        <ele>1442.674</ele>
        <time>2018-07-28T02:07:57Z</time>
      </trkpt>
      <trkpt lat="36.68299" lon="-5.040298">
        <ele>1443.042</ele>
        <time>2018-07-28T02:08:00Z</time>
      </trkpt>
      <trkpt lat="36.68298" lon="-5.040304">
        <ele>1443.176</ele>
        <time>2018-07-28T02:08:01Z</time>
      </trkpt>
      <trkpt lat="36.68293" lon="-5.040356">
        <ele>1444.096</ele>
        <time>2018-07-28T02:08:07Z</time>
      </trkpt>
      <trkpt lat="36.68292" lon="-5.040369">
        <ele>1444.131</ele>
        <time>2018-07-28T02:08:08Z</time>
      </trkpt>
      <trkpt lat="36.6829" lon="-5.040391">
        <ele>1444.366</ele>
        <time>2018-07-28T02:08:10Z</time>
      </trkpt>
      <trkpt lat="36.68284" lon="-5.040462">
        <ele>1445.09</ele>
        <time>2018-07-28T02:08:17Z</time>
      </trkpt>
      <trkpt lat="36.68282" lon="-5.040489">
        <ele>1445.237</ele>
        <time>2018-07-28T02:08:20Z</time>
      </trkpt>
      <trkpt lat="36.6828" lon="-5.040505">
        <ele>1445.551</ele>
        <time>2018-07-28T02:08:22Z</time>
      </trkpt>
      <trkpt lat="36.68279" lon="-5.040513">
        <ele>1445.649</ele>
        <time>2018-07-28T02:08:23Z</time>
      </trkpt>
      <trkpt lat="36.68275" lon="-5.040536">
        <ele>1446.505</ele>
        <time>2018-07-28T02:08:27Z</time>
      </trkpt>
      <trkpt lat="36.68272" lon="-5.040536">
        <ele>1447.374</ele>
        <time>2018-07-28T02:08:30Z</time>
      </trkpt>
      <trkpt lat="36.68271" lon="-5.040529">
        <ele>1447.698</ele>
        <time>2018-07-28T02:08:31Z</time>
      </trkpt>
      <trkpt lat="36.6827" lon="-5.040506">
        <ele>1448.368</ele>
        <time>2018-07-28T02:08:33Z</time>
      </trkpt>
      <trkpt lat="36.6827" lon="-5.040493">
        <ele>1448.561</ele>
        <time>2018-07-28T02:08:34Z</time>
      </trkpt>
      <trkpt lat="36.6827" lon="-5.040481">
        <ele>1448.74</ele>
        <time>2018-07-28T02:08:35Z</time>
      </trkpt>
      <trkpt lat="36.68271" lon="-5.040454">
        <ele>1448.93</ele>
        <time>2018-07-28T02:08:37Z</time>
      </trkpt>
      <trkpt lat="36.68273" lon="-5.040393">
        <ele>1449.295</ele>
        <time>2018-07-28T02:08:41Z</time>
      </trkpt>
      <trkpt lat="36.68274" lon="-5.040361">
        <ele>1449.441</ele>
        <time>2018-07-28T02:08:43Z</time>
      </trkpt>
      <trkpt lat="36.68275" lon="-5.040348">
        <ele>1449.411</ele>
        <time>2018-07-28T02:08:44Z</time>
      </trkpt>
      <trkpt lat="36.68277" lon="-5.040313">
        <ele>1449.382</ele>
        <time>2018-07-28T02:08:47Z</time>
      </trkpt>
      <trkpt lat="36.68277" lon="-5.040297">
        <ele>1449.393</ele>
        <time>2018-07-28T02:08:48Z</time>
      </trkpt>
      <trkpt lat="36.68278" lon="-5.040286">
        <ele>1449.444</ele>
        <time>2018-07-28T02:08:49Z</time>
      </trkpt>
      <trkpt lat="36.68279" lon="-5.040222">
        <ele>1449.942</ele>
        <time>2018-07-28T02:08:54Z</time>
      </trkpt>
      <trkpt lat="36.6828" lon="-5.040195">
        <ele>1450.23</ele>
        <time>2018-07-28T02:08:56Z</time>
      </trkpt>
      <trkpt lat="36.6828" lon="-5.04018">
        <ele>1450.336</ele>
        <time>2018-07-28T02:08:57Z</time>
      </trkpt>
      <trkpt lat="36.68282" lon="-5.040152">
        <ele>1450.299</ele>
        <time>2018-07-28T02:09:00Z</time>
      </trkpt>
      <trkpt lat="36.68282" lon="-5.040138">
        <ele>1450.284</ele>
        <time>2018-07-28T02:09:01Z</time>
      </trkpt>
      <trkpt lat="36.68283" lon="-5.040125">
        <ele>1450.359</ele>
        <time>2018-07-28T02:09:02Z</time>
      </trkpt>
      <trkpt lat="36.68283" lon="-5.040114">
        <ele>1450.294</ele>
        <time>2018-07-28T02:09:03Z</time>
      </trkpt>
      <trkpt lat="36.68286" lon="-5.04007">
        <ele>1450.254</ele>
        <time>2018-07-28T02:09:07Z</time>
      </trkpt>
      <trkpt lat="36.68287" lon="-5.040047">
        <ele>1450.246</ele>
        <time>2018-07-28T02:09:09Z</time>
      </trkpt>
      <trkpt lat="36.68288" lon="-5.040023">
        <ele>1450.256</ele>
        <time>2018-07-28T02:09:11Z</time>
      </trkpt>
      <trkpt lat="36.68291" lon="-5.03995">
        <ele>1450.73</ele>
        <time>2018-07-28T02:09:17Z</time>
      </trkpt>
      <trkpt lat="36.68291" lon="-5.039935">
        <ele>1451.076</ele>
        <time>2018-07-28T02:09:18Z</time>
      </trkpt>
      <trkpt lat="36.68292" lon="-5.039915">
        <ele>1451.431</ele>
        <time>2018-07-28T02:09:20Z</time>
      </trkpt>
      <trkpt lat="36.68294" lon="-5.039835">
        <ele>1452.636</ele>
        <time>2018-07-28T02:09:27Z</time>
      </trkpt>
      <trkpt lat="36.68296" lon="-5.039799">
        <ele>1453.032</ele>
        <time>2018-07-28T02:09:30Z</time>
      </trkpt>
      <trkpt lat="36.68296" lon="-5.03979">
        <ele>1453.135</ele>
        <time>2018-07-28T02:09:31Z</time>
      </trkpt>
      <trkpt lat="36.68299" lon="-5.039711">
        <ele>1454.234</ele>
        <time>2018-07-28T02:09:37Z</time>
      </trkpt>
      <trkpt lat="36.68299" lon="-5.039697">
        <ele>1454.453</ele>
        <time>2018-07-28T02:09:38Z</time>
      </trkpt>
      <trkpt lat="36.68301" lon="-5.039642">
        <ele>1455.114</ele>
        <time>2018-07-28T02:09:43Z</time>
      </trkpt>
      <trkpt lat="36.68302" lon="-5.039632">
        <ele>1455.135</ele>
        <time>2018-07-28T02:09:44Z</time>
      </trkpt>
      <trkpt lat="36.68303" lon="-5.039613">
        <ele>1455.266</ele>
        <time>2018-07-28T02:09:46Z</time>
      </trkpt>
      <trkpt lat="36.68304" lon="-5.039602">
        <ele>1455.42</ele>
        <time>2018-07-28T02:09:47Z</time>
      </trkpt>
      <trkpt lat="36.68309" lon="-5.039534">
        <ele>1455.545</ele>
        <time>2018-07-28T02:09:54Z</time>
      </trkpt>
      <trkpt lat="36.6831" lon="-5.039512">
        <ele>1455.756</ele>
        <time>2018-07-28T02:09:56Z</time>
      </trkpt>
      <trkpt lat="36.68311" lon="-5.039499">
        <ele>1455.866</ele>
        <time>2018-07-28T02:09:57Z</time>
      </trkpt>
      <trkpt lat="36.68312" lon="-5.039479">
        <ele>1456.034</ele>
        <time>2018-07-28T02:09:59Z</time>
      </trkpt>
      <trkpt lat="36.68316" lon="-5.039415">
        <ele>1456.433</ele>
        <time>2018-07-28T02:10:05Z</time>
      </trkpt>
      <trkpt lat="36.68317" lon="-5.039397">
        <ele>1456.667</ele>
        <time>2018-07-28T02:10:07Z</time>
      </trkpt>
      <trkpt lat="36.6832" lon="-5.039335">
        <ele>1457.254</ele>
        <time>2018-07-28T02:10:13Z</time>
      </trkpt>
      <trkpt lat="36.68321" lon="-5.039325">
        <ele>1457.386</ele>
        <time>2018-07-28T02:10:14Z</time>
      </trkpt>
      <trkpt lat="36.68322" lon="-5.039289">
        <ele>1457.869</ele>
        <time>2018-07-28T02:10:17Z</time>
      </trkpt>
      <trkpt lat="36.68323" lon="-5.039282">
        <ele>1457.943</ele>
        <time>2018-07-28T02:10:18Z</time>
      </trkpt>
      <trkpt lat="36.68324" lon="-5.039266">
        <ele>1458.128</ele>
        <time>2018-07-28T02:10:19Z</time>
      </trkpt>
      <trkpt lat="36.68327" lon="-5.039218">
        <ele>1458.509</ele>
        <time>2018-07-28T02:10:24Z</time>
      </trkpt>
      <trkpt lat="36.68328" lon="-5.039187">
        <ele>1458.775</ele>
        <time>2018-07-28T02:10:27Z</time>
      </trkpt>
      <trkpt lat="36.68329" lon="-5.039175">
        <ele>1458.972</ele>
        <time>2018-07-28T02:10:28Z</time>
      </trkpt>
      <trkpt lat="36.68331" lon="-5.039136">
        <ele>1459.339</ele>
        <time>2018-07-28T02:10:31Z</time>
      </trkpt>
      <trkpt lat="36.68332" lon="-5.039119">
        <ele>1459.408</ele>
        <time>2018-07-28T02:10:33Z</time>
      </trkpt>
      <trkpt lat="36.68334" lon="-5.039071">
        <ele>1459.764</ele>
        <time>2018-07-28T02:10:37Z</time>
      </trkpt>
      <trkpt lat="36.68335" lon="-5.039053">
        <ele>1460.026</ele>
        <time>2018-07-28T02:10:38Z</time>
      </trkpt>
      <trkpt lat="36.68335" lon="-5.039026">
        <ele>1460.356</ele>
        <time>2018-07-28T02:10:40Z</time>
      </trkpt>
      <trkpt lat="36.68336" lon="-5.039016">
        <ele>1460.446</ele>
        <time>2018-07-28T02:10:41Z</time>
      </trkpt>
      <trkpt lat="36.68338" lon="-5.038945">
        <ele>1461.36</ele>
        <time>2018-07-28T02:10:47Z</time>
      </trkpt>
      <trkpt lat="36.68338" lon="-5.038926">
        <ele>1461.657</ele>
        <time>2018-07-28T02:10:49Z</time>
      </trkpt>
      <trkpt lat="36.6834" lon="-5.038878">
        <ele>1462.234</ele>
        <time>2018-07-28T02:10:53Z</time>
      </trkpt>
      <trkpt lat="36.6834" lon="-5.038835">
        <ele>1463.075</ele>
        <time>2018-07-28T02:10:56Z</time>
      </trkpt>
      <trkpt lat="36.6834" lon="-5.038826">
        <ele>1463.278</ele>
        <time>2018-07-28T02:10:57Z</time>
      </trkpt>
      <trkpt lat="36.6834" lon="-5.038814">
        <ele>1463.426</ele>
        <time>2018-07-28T02:10:58Z</time>
      </trkpt>
      <trkpt lat="36.68341" lon="-5.038779">
        <ele>1463.866</ele>
        <time>2018-07-28T02:11:01Z</time>
      </trkpt>
      <trkpt lat="36.68342" lon="-5.038724">
        <ele>1464.992</ele>
        <time>2018-07-28T02:11:05Z</time>
      </trkpt>
      <trkpt lat="36.68342" lon="-5.038711">
        <ele>1465.17</ele>
        <time>2018-07-28T02:11:06Z</time>
      </trkpt>
      <trkpt lat="36.68342" lon="-5.0387">
        <ele>1465.419</ele>
        <time>2018-07-28T02:11:07Z</time>
      </trkpt>
      <trkpt lat="36.68343" lon="-5.03862">
        <ele>1466.911</ele>
        <time>2018-07-28T02:11:13Z</time>
      </trkpt>
      <trkpt lat="36.68343" lon="-5.038606">
        <ele>1467.227</ele>
        <time>2018-07-28T02:11:14Z</time>
      </trkpt>
      <trkpt lat="36.68343" lon="-5.038593">
        <ele>1467.533</ele>
        <time>2018-07-28T02:11:15Z</time>
      </trkpt>
      <trkpt lat="36.68344" lon="-5.038583">
        <ele>1467.654</ele>
        <time>2018-07-28T02:11:16Z</time>
      </trkpt>
      <trkpt lat="36.68344" lon="-5.038567">
        <ele>1468.015</ele>
        <time>2018-07-28T02:11:17Z</time>
      </trkpt>
      <trkpt lat="36.68348" lon="-5.038441">
        <ele>1469.889</ele>
        <time>2018-07-28T02:11:27Z</time>
      </trkpt>
      <trkpt lat="36.68348" lon="-5.038431">
        <ele>1470.023</ele>
        <time>2018-07-28T02:11:28Z</time>
      </trkpt>
      <trkpt lat="36.68349" lon="-5.038421">
        <ele>1470.057</ele>
        <time>2018-07-28T02:11:29Z</time>
      </trkpt>
      <trkpt lat="36.68353" lon="-5.038384">
        <ele>1469.85</ele>
        <time>2018-07-28T02:11:34Z</time>
      </trkpt>
      <trkpt lat="36.68355" lon="-5.038371">
        <ele>1469.671</ele>
        <time>2018-07-28T02:11:36Z</time>
      </trkpt>
      <trkpt lat="36.68357" lon="-5.038352">
        <ele>1469.553</ele>
        <time>2018-07-28T02:11:39Z</time>
      </trkpt>
      <trkpt lat="36.68359" lon="-5.038342">
        <ele>1469.414</ele>
        <time>2018-07-28T02:11:41Z</time>
      </trkpt>
      <trkpt lat="36.68361" lon="-5.038325">
        <ele>1469.393</ele>
        <time>2018-07-28T02:11:44Z</time>
      </trkpt>
      <trkpt lat="36.68363" lon="-5.038302">
        <ele>1469.386</ele>
        <time>2018-07-28T02:11:47Z</time>
      </trkpt>
      <trkpt lat="36.68364" lon="-5.038297">
        <ele>1469.334</ele>
        <time>2018-07-28T02:11:48Z</time>
      </trkpt>
      <trkpt lat="36.68365" lon="-5.038278">
        <ele>1469.511</ele>
        <time>2018-07-28T02:11:50Z</time>
      </trkpt>
      <trkpt lat="36.68372" lon="-5.038222">
        <ele>1469.673</ele>
        <time>2018-07-28T02:11:57Z</time>
      </trkpt>
      <trkpt lat="36.68374" lon="-5.038196">
        <ele>1469.797</ele>
        <time>2018-07-28T02:12:00Z</time>
      </trkpt>
      <trkpt lat="36.68376" lon="-5.03817">
        <ele>1470.219</ele>
        <time>2018-07-28T02:12:02Z</time>
      </trkpt>
      <trkpt lat="36.68378" lon="-5.038144">
        <ele>1470.364</ele>
        <time>2018-07-28T02:12:05Z</time>
      </trkpt>
      <trkpt lat="36.6838" lon="-5.038121">
        <ele>1470.612</ele>
        <time>2018-07-28T02:12:07Z</time>
      </trkpt>
      <trkpt lat="36.68381" lon="-5.038107">
        <ele>1470.87</ele>
        <time>2018-07-28T02:12:08Z</time>
      </trkpt>
      <trkpt lat="36.68383" lon="-5.038074">
        <ele>1471.349</ele>
        <time>2018-07-28T02:12:11Z</time>
      </trkpt>
      <trkpt lat="36.68384" lon="-5.038063">
        <ele>1471.599</ele>
        <time>2018-07-28T02:12:12Z</time>
      </trkpt>
      <trkpt lat="36.68386" lon="-5.038036">
        <ele>1471.917</ele>
        <time>2018-07-28T02:12:15Z</time>
      </trkpt>
      <trkpt lat="36.68387" lon="-5.038021">
        <ele>1472.117</ele>
        <time>2018-07-28T02:12:17Z</time>
      </trkpt>
      <trkpt lat="36.68391" lon="-5.037984">
        <ele>1472.511</ele>
        <time>2018-07-28T02:12:21Z</time>
      </trkpt>
      <trkpt lat="36.68392" lon="-5.037962">
        <ele>1472.947</ele>
        <time>2018-07-28T02:12:23Z</time>
      </trkpt>
      <trkpt lat="36.68394" lon="-5.03792">
        <ele>1473.854</ele>
        <time>2018-07-28T02:12:27Z</time>
      </trkpt>
      <trkpt lat="36.68398" lon="-5.037865">
        <ele>1474.619</ele>
        <time>2018-07-28T02:12:33Z</time>
      </trkpt>
      <trkpt lat="36.68401" lon="-5.037815">
        <ele>1475.669</ele>
        <time>2018-07-28T02:12:37Z</time>
      </trkpt>
      <trkpt lat="36.68402" lon="-5.037808">
        <ele>1475.742</ele>
        <time>2018-07-28T02:12:38Z</time>
      </trkpt>
      <trkpt lat="36.68404" lon="-5.037775">
        <ele>1476.338</ele>
        <time>2018-07-28T02:12:42Z</time>
      </trkpt>
      <trkpt lat="36.68405" lon="-5.037738">
        <ele>1477.394</ele>
        <time>2018-07-28T02:12:45Z</time>
      </trkpt>
      <trkpt lat="36.68406" lon="-5.037719">
        <ele>1477.788</ele>
        <time>2018-07-28T02:12:47Z</time>
      </trkpt>
      <trkpt lat="36.68407" lon="-5.037697">
        <ele>1478.279</ele>
        <time>2018-07-28T02:12:49Z</time>
      </trkpt>
      <trkpt lat="36.68409" lon="-5.037674">
        <ele>1478.657</ele>
        <time>2018-07-28T02:12:51Z</time>
      </trkpt>
      <trkpt lat="36.68411" lon="-5.037642">
        <ele>1479.269</ele>
        <time>2018-07-28T02:12:54Z</time>
      </trkpt>
      <trkpt lat="36.68413" lon="-5.037606">
        <ele>1480.109</ele>
        <time>2018-07-28T02:12:57Z</time>
      </trkpt>
      <trkpt lat="36.68415" lon="-5.037553">
        <ele>1481.52</ele>
        <time>2018-07-28T02:13:01Z</time>
      </trkpt>
      <trkpt lat="36.68418" lon="-5.037481">
        <ele>1483.394</ele>
        <time>2018-07-28T02:13:07Z</time>
      </trkpt>
      <trkpt lat="36.68418" lon="-5.037472">
        <ele>1483.595</ele>
        <time>2018-07-28T02:13:08Z</time>
      </trkpt>
      <trkpt lat="36.68419" lon="-5.037463">
        <ele>1483.708</ele>
        <time>2018-07-28T02:13:09Z</time>
      </trkpt>
      <trkpt lat="36.68421" lon="-5.03744">
        <ele>1484.149</ele>
        <time>2018-07-28T02:13:11Z</time>
      </trkpt>
      <trkpt lat="36.68423" lon="-5.037407">
        <ele>1484.833</ele>
        <time>2018-07-28T02:13:14Z</time>
      </trkpt>
      <trkpt lat="36.68425" lon="-5.037386">
        <ele>1485.276</ele>
        <time>2018-07-28T02:13:16Z</time>
      </trkpt>
      <trkpt lat="36.68425" lon="-5.037373">
        <ele>1485.602</ele>
        <time>2018-07-28T02:13:17Z</time>
      </trkpt>
      <trkpt lat="36.68426" lon="-5.037362">
        <ele>1485.844</ele>
        <time>2018-07-28T02:13:18Z</time>
      </trkpt>
      <trkpt lat="36.6843" lon="-5.037332">
        <ele>1486.355</ele>
        <time>2018-07-28T02:13:22Z</time>
      </trkpt>
      <trkpt lat="36.68431" lon="-5.037327">
        <ele>1486.476</ele>
        <time>2018-07-28T02:13:23Z</time>
      </trkpt>
      <trkpt lat="36.68432" lon="-5.037311">
        <ele>1486.843</ele>
        <time>2018-07-28T02:13:25Z</time>
      </trkpt>
      <trkpt lat="36.68433" lon="-5.037304">
        <ele>1486.966</ele>
        <time>2018-07-28T02:13:27Z</time>
      </trkpt>
      <trkpt lat="36.68434" lon="-5.037294">
        <ele>1487.176</ele>
        <time>2018-07-28T02:13:29Z</time>
      </trkpt>
      <trkpt lat="36.68434" lon="-5.03729">
        <ele>1487.288</ele>
        <time>2018-07-28T02:13:30Z</time>
      </trkpt>
      <trkpt lat="36.68437" lon="-5.037258">
        <ele>1488.051</ele>
        <time>2018-07-28T02:13:37Z</time>
      </trkpt>
      <trkpt lat="36.68438" lon="-5.03725">
        <ele>1488.244</ele>
        <time>2018-07-28T02:13:38Z</time>
      </trkpt>
      <trkpt lat="36.68439" lon="-5.037236">
        <ele>1488.564</ele>
        <time>2018-07-28T02:13:40Z</time>
      </trkpt>
      <trkpt lat="36.68441" lon="-5.037216">
        <ele>1489.035</ele>
        <time>2018-07-28T02:13:43Z</time>
      </trkpt>
      <trkpt lat="36.68443" lon="-5.037202">
        <ele>1489.388</ele>
        <time>2018-07-28T02:13:45Z</time>
      </trkpt>
      <trkpt lat="36.68444" lon="-5.037201">
        <ele>1489.331</ele>
        <time>2018-07-28T02:13:47Z</time>
      </trkpt>
      <trkpt lat="36.68446" lon="-5.037193">
        <ele>1489.479</ele>
        <time>2018-07-28T02:13:49Z</time>
      </trkpt>
      <trkpt lat="36.68447" lon="-5.037191">
        <ele>1489.498</ele>
        <time>2018-07-28T02:13:50Z</time>
      </trkpt>
      <trkpt lat="36.68448" lon="-5.037186">
        <ele>1489.608</ele>
        <time>2018-07-28T02:13:51Z</time>
      </trkpt>
      <trkpt lat="36.68453" lon="-5.037165">
        <ele>1490.007</ele>
        <time>2018-07-28T02:13:56Z</time>
      </trkpt>
      <trkpt lat="36.68455" lon="-5.03716">
        <ele>1490.104</ele>
        <time>2018-07-28T02:13:57Z</time>
      </trkpt>
      <trkpt lat="36.68457" lon="-5.03716">
        <ele>1489.991</ele>
        <time>2018-07-28T02:13:59Z</time>
      </trkpt>
      <trkpt lat="36.6846" lon="-5.037151">
        <ele>1490.13</ele>
        <time>2018-07-28T02:14:02Z</time>
      </trkpt>
      <trkpt lat="36.68464" lon="-5.037161">
        <ele>1489.601</ele>
        <time>2018-07-28T02:14:06Z</time>
      </trkpt>
      <trkpt lat="36.68466" lon="-5.037162">
        <ele>1489.492</ele>
        <time>2018-07-28T02:14:07Z</time>
      </trkpt>
      <trkpt lat="36.68467" lon="-5.037162">
        <ele>1489.436</ele>
        <time>2018-07-28T02:14:08Z</time>
      </trkpt>
      <trkpt lat="36.68472" lon="-5.037164">
        <ele>1489.123</ele>
        <time>2018-07-28T02:14:12Z</time>
      </trkpt>
      <trkpt lat="36.68478" lon="-5.037176">
        <ele>1488.378</ele>
        <time>2018-07-28T02:14:17Z</time>
      </trkpt>
      <trkpt lat="36.68479" lon="-5.037178">
        <ele>1488.227</ele>
        <time>2018-07-28T02:14:18Z</time>
      </trkpt>
      <trkpt lat="36.68484" lon="-5.037185">
        <ele>1487.716</ele>
        <time>2018-07-28T02:14:22Z</time>
      </trkpt>
      <trkpt lat="36.6849" lon="-5.037191">
        <ele>1487.165</ele>
        <time>2018-07-28T02:14:27Z</time>
      </trkpt>
      <trkpt lat="36.68491" lon="-5.037203">
        <ele>1486.635</ele>
        <time>2018-07-28T02:14:28Z</time>
      </trkpt>
      <trkpt lat="36.68493" lon="-5.037216">
        <ele>1485.999</ele>
        <time>2018-07-28T02:14:30Z</time>
      </trkpt>
      <trkpt lat="36.68497" lon="-5.037228">
        <ele>1485.271</ele>
        <time>2018-07-28T02:14:34Z</time>
      </trkpt>
      <trkpt lat="36.685" lon="-5.037224">
        <ele>1485.252</ele>
        <time>2018-07-28T02:14:37Z</time>
      </trkpt>
      <trkpt lat="36.68506" lon="-5.037193">
        <ele>1485.804</ele>
        <time>2018-07-28T02:14:43Z</time>
      </trkpt>
      <trkpt lat="36.68507" lon="-5.037191">
        <ele>1485.792</ele>
        <time>2018-07-28T02:14:44Z</time>
      </trkpt>
      <trkpt lat="36.6851" lon="-5.037183">
        <ele>1485.808</ele>
        <time>2018-07-28T02:14:47Z</time>
      </trkpt>
      <trkpt lat="36.68511" lon="-5.037178">
        <ele>1485.867</ele>
        <time>2018-07-28T02:14:48Z</time>
      </trkpt>
      <trkpt lat="36.68515" lon="-5.037152">
        <ele>1486.479</ele>
        <time>2018-07-28T02:14:52Z</time>
      </trkpt>
      <trkpt lat="36.68518" lon="-5.037125">
        <ele>1487.104</ele>
        <time>2018-07-28T02:14:56Z</time>
      </trkpt>
      <trkpt lat="36.68519" lon="-5.037119">
        <ele>1487.263</ele>
        <time>2018-07-28T02:14:57Z</time>
      </trkpt>
      <trkpt lat="36.6852" lon="-5.037112">
        <ele>1487.395</ele>
        <time>2018-07-28T02:14:58Z</time>
      </trkpt>
      <trkpt lat="36.68522" lon="-5.0371">
        <ele>1487.666</ele>
        <time>2018-07-28T02:15:00Z</time>
      </trkpt>
      <trkpt lat="36.68523" lon="-5.037092">
        <ele>1487.835</ele>
        <time>2018-07-28T02:15:01Z</time>
      </trkpt>
      <trkpt lat="36.68526" lon="-5.037065">
        <ele>1488.604</ele>
        <time>2018-07-28T02:15:04Z</time>
      </trkpt>
      <trkpt lat="36.68528" lon="-5.037048">
        <ele>1489.014</ele>
        <time>2018-07-28T02:15:07Z</time>
      </trkpt>
      <trkpt lat="36.68532" lon="-5.037022">
        <ele>1489.626</ele>
        <time>2018-07-28T02:15:11Z</time>
      </trkpt>
      <trkpt lat="36.68536" lon="-5.03698">
        <ele>1490.83</ele>
        <time>2018-07-28T02:15:16Z</time>
      </trkpt>
      <trkpt lat="36.68537" lon="-5.036973">
        <ele>1490.974</ele>
        <time>2018-07-28T02:15:17Z</time>
      </trkpt>
      <trkpt lat="36.68541" lon="-5.036931">
        <ele>1492.12</ele>
        <time>2018-07-28T02:15:22Z</time>
      </trkpt>
      <trkpt lat="36.68542" lon="-5.036924">
        <ele>1492.308</ele>
        <time>2018-07-28T02:15:23Z</time>
      </trkpt>
      <trkpt lat="36.68543" lon="-5.036901">
        <ele>1493.023</ele>
        <time>2018-07-28T02:15:26Z</time>
      </trkpt>
      <trkpt lat="36.68544" lon="-5.0369">
        <ele>1493.013</ele>
        <time>2018-07-28T02:15:27Z</time>
      </trkpt>
      <trkpt lat="36.68544" lon="-5.036897">
        <ele>1493.03</ele>
        <time>2018-07-28T02:15:28Z</time>
      </trkpt>
      <trkpt lat="36.68545" lon="-5.036892">
        <ele>1493.19</ele>
        <time>2018-07-28T02:15:29Z</time>
      </trkpt>
      <trkpt lat="36.68546" lon="-5.036885">
        <ele>1493.377</ele>
        <time>2018-07-28T02:15:37Z</time>
      </trkpt>
      <trkpt lat="36.68546" lon="-5.036886">
        <ele>1493.272</ele>
        <time>2018-07-28T02:15:39Z</time>
      </trkpt>
      <trkpt lat="36.68547" lon="-5.036883">
        <ele>1493.26</ele>
        <time>2018-07-28T02:15:45Z</time>
      </trkpt>
      <trkpt lat="36.68547" lon="-5.036881">
        <ele>1493.335</ele>
        <time>2018-07-28T02:15:47Z</time>
      </trkpt>
      <trkpt lat="36.68548" lon="-5.03687">
        <ele>1493.672</ele>
        <time>2018-07-28T02:15:50Z</time>
      </trkpt>
      <trkpt lat="36.68549" lon="-5.036861">
        <ele>1493.836</ele>
        <time>2018-07-28T02:15:52Z</time>
      </trkpt>
      <trkpt lat="36.6855" lon="-5.036857">
        <ele>1493.89</ele>
        <time>2018-07-28T02:15:53Z</time>
      </trkpt>
      <trkpt lat="36.68553" lon="-5.036837">
        <ele>1494.29</ele>
        <time>2018-07-28T02:15:57Z</time>
      </trkpt>
      <trkpt lat="36.68555" lon="-5.036821">
        <ele>1494.683</ele>
        <time>2018-07-28T02:16:01Z</time>
      </trkpt>
      <trkpt lat="36.68555" lon="-5.036819">
        <ele>1494.709</ele>
        <time>2018-07-28T02:16:04Z</time>
      </trkpt>
      <trkpt lat="36.68555" lon="-5.036819">
        <ele>1494.758</ele>
        <time>2018-07-28T02:16:07Z</time>
      </trkpt>
      <trkpt lat="36.68556" lon="-5.036812">
        <ele>1494.892</ele>
        <time>2018-07-28T02:16:11Z</time>
      </trkpt>
      <trkpt lat="36.68556" lon="-5.036791">
        <ele>1495.714</ele>
        <time>2018-07-28T02:16:17Z</time>
      </trkpt>
      <trkpt lat="36.68557" lon="-5.036797">
        <ele>1495.325</ele>
        <time>2018-07-28T02:16:19Z</time>
      </trkpt>
      <trkpt lat="36.68558" lon="-5.036793">
        <ele>1495.376</ele>
        <time>2018-07-28T02:16:21Z</time>
      </trkpt>
      <trkpt lat="36.68559" lon="-5.036795">
        <ele>1495.252</ele>
        <time>2018-07-28T02:16:22Z</time>
      </trkpt>
      <trkpt lat="36.68559" lon="-5.036794">
        <ele>1495.241</ele>
        <time>2018-07-28T02:16:23Z</time>
      </trkpt>
      <trkpt lat="36.68559" lon="-5.036791">
        <ele>1495.371</ele>
        <time>2018-07-28T02:16:25Z</time>
      </trkpt>
      <trkpt lat="36.68559" lon="-5.036788">
        <ele>1495.483</ele>
        <time>2018-07-28T02:16:27Z</time>
      </trkpt>
      <trkpt lat="36.68559" lon="-5.036786">
        <ele>1495.558</ele>
        <time>2018-07-28T02:16:28Z</time>
      </trkpt>
      <trkpt lat="36.68559" lon="-5.036784">
        <ele>1495.583</ele>
        <time>2018-07-28T02:16:29Z</time>
      </trkpt>
      <trkpt lat="36.6856" lon="-5.036777">
        <ele>1495.765</ele>
        <time>2018-07-28T02:16:31Z</time>
      </trkpt>
      <trkpt lat="36.68562" lon="-5.036755">
        <ele>1496.325</ele>
        <time>2018-07-28T02:16:35Z</time>
      </trkpt>
      <trkpt lat="36.68564" lon="-5.036739">
        <ele>1496.76</ele>
        <time>2018-07-28T02:16:37Z</time>
      </trkpt>
      <trkpt lat="36.68566" lon="-5.036734">
        <ele>1496.697</ele>
        <time>2018-07-28T02:16:39Z</time>
      </trkpt>
      <trkpt lat="36.68568" lon="-5.036717">
        <ele>1497.016</ele>
        <time>2018-07-28T02:16:42Z</time>
      </trkpt>
      <trkpt lat="36.68572" lon="-5.036675">
        <ele>1498.143</ele>
        <time>2018-07-28T02:16:47Z</time>
      </trkpt>
      <trkpt lat="36.68573" lon="-5.036669">
        <ele>1498.283</ele>
        <time>2018-07-28T02:16:48Z</time>
      </trkpt>
      <trkpt lat="36.68574" lon="-5.036663">
        <ele>1498.371</ele>
        <time>2018-07-28T02:16:49Z</time>
      </trkpt>
      <trkpt lat="36.68577" lon="-5.036628">
        <ele>1498.986</ele>
        <time>2018-07-28T02:16:53Z</time>
      </trkpt>
      <trkpt lat="36.68581" lon="-5.036603">
        <ele>1499.317</ele>
        <time>2018-07-28T02:16:57Z</time>
      </trkpt>
      <trkpt lat="36.68581" lon="-5.036595">
        <ele>1499.474</ele>
        <time>2018-07-28T02:16:58Z</time>
      </trkpt>
      <trkpt lat="36.68582" lon="-5.036589">
        <ele>1499.56</ele>
        <time>2018-07-28T02:16:59Z</time>
      </trkpt>
      <trkpt lat="36.68584" lon="-5.036578">
        <ele>1499.704</ele>
        <time>2018-07-28T02:17:01Z</time>
      </trkpt>
      <trkpt lat="36.68585" lon="-5.036563">
        <ele>1499.934</ele>
        <time>2018-07-28T02:17:03Z</time>
      </trkpt>
      <trkpt lat="36.68586" lon="-5.036556">
        <ele>1499.973</ele>
        <time>2018-07-28T02:17:04Z</time>
      </trkpt>
      <trkpt lat="36.68587" lon="-5.03655">
        <ele>1500.029</ele>
        <time>2018-07-28T02:17:05Z</time>
      </trkpt>
      <trkpt lat="36.68589" lon="-5.036534">
        <ele>1500.233</ele>
        <time>2018-07-28T02:17:07Z</time>
      </trkpt>
      <trkpt lat="36.6859" lon="-5.036527">
        <ele>1500.321</ele>
        <time>2018-07-28T02:17:08Z</time>
      </trkpt>
      <trkpt lat="36.68591" lon="-5.036518">
        <ele>1500.485</ele>
        <time>2018-07-28T02:17:09Z</time>
      </trkpt>
      <trkpt lat="36.68594" lon="-5.036469">
        <ele>1501.5</ele>
        <time>2018-07-28T02:17:14Z</time>
      </trkpt>
      <trkpt lat="36.68596" lon="-5.03644">
        <ele>1502.13</ele>
        <time>2018-07-28T02:17:17Z</time>
      </trkpt>
      <trkpt lat="36.68599" lon="-5.036361">
        <ele>1504.126</ele>
        <time>2018-07-28T02:17:24Z</time>
      </trkpt>
      <trkpt lat="36.686" lon="-5.036347">
        <ele>1504.471</ele>
        <time>2018-07-28T02:17:25Z</time>
      </trkpt>
      <trkpt lat="36.68601" lon="-5.036326">
        <ele>1504.976</ele>
        <time>2018-07-28T02:17:27Z</time>
      </trkpt>
      <trkpt lat="36.68602" lon="-5.036306">
        <ele>1505.453</ele>
        <time>2018-07-28T02:17:29Z</time>
      </trkpt>
      <trkpt lat="36.68604" lon="-5.036276">
        <ele>1506.201</ele>
        <time>2018-07-28T02:17:32Z</time>
      </trkpt>
      <trkpt lat="36.68607" lon="-5.036249">
        <ele>1506.682</ele>
        <time>2018-07-28T02:17:35Z</time>
      </trkpt>
      <trkpt lat="36.68608" lon="-5.036226">
        <ele>1507.17</ele>
        <time>2018-07-28T02:17:37Z</time>
      </trkpt>
      <trkpt lat="36.68611" lon="-5.03619">
        <ele>1507.962</ele>
        <time>2018-07-28T02:17:41Z</time>
      </trkpt>
      <trkpt lat="36.68615" lon="-5.036153">
        <ele>1508.707</ele>
        <time>2018-07-28T02:17:45Z</time>
      </trkpt>
      <trkpt lat="36.68616" lon="-5.036139">
        <ele>1509.006</ele>
        <time>2018-07-28T02:17:47Z</time>
      </trkpt>
      <trkpt lat="36.68617" lon="-5.03613">
        <ele>1509.096</ele>
        <time>2018-07-28T02:17:48Z</time>
      </trkpt>
      <trkpt lat="36.68619" lon="-5.036113">
        <ele>1509.406</ele>
        <time>2018-07-28T02:17:50Z</time>
      </trkpt>
      <trkpt lat="36.68624" lon="-5.036072">
        <ele>1510.158</ele>
        <time>2018-07-28T02:17:55Z</time>
      </trkpt>
      <trkpt lat="36.68625" lon="-5.036059">
        <ele>1510.386</ele>
        <time>2018-07-28T02:17:57Z</time>
      </trkpt>
      <trkpt lat="36.68626" lon="-5.036054">
        <ele>1510.445</ele>
        <time>2018-07-28T02:17:58Z</time>
      </trkpt>
      <trkpt lat="36.68631" lon="-5.036033">
        <ele>1510.55</ele>
        <time>2018-07-28T02:18:03Z</time>
      </trkpt>
      <trkpt lat="36.68631" lon="-5.036031">
        <ele>1510.53</ele>
        <time>2018-07-28T02:18:04Z</time>
      </trkpt>
      <trkpt lat="36.68633" lon="-5.036021">
        <ele>1510.605</ele>
        <time>2018-07-28T02:18:06Z</time>
      </trkpt>
      <trkpt lat="36.68634" lon="-5.036017">
        <ele>1510.651</ele>
        <time>2018-07-28T02:18:07Z</time>
      </trkpt>
      <trkpt lat="36.68636" lon="-5.036014">
        <ele>1510.5</ele>
        <time>2018-07-28T02:18:09Z</time>
      </trkpt>
      <trkpt lat="36.68637" lon="-5.036005">
        <ele>1510.711</ele>
        <time>2018-07-28T02:18:10Z</time>
      </trkpt>
      <trkpt lat="36.6864" lon="-5.035975">
        <ele>1511.301</ele>
        <time>2018-07-28T02:18:14Z</time>
      </trkpt>
      <trkpt lat="36.68641" lon="-5.035966">
        <ele>1511.467</ele>
        <time>2018-07-28T02:18:15Z</time>
      </trkpt>
      <trkpt lat="36.68643" lon="-5.035953">
        <ele>1511.67</ele>
        <time>2018-07-28T02:18:17Z</time>
      </trkpt>
      <trkpt lat="36.68645" lon="-5.035935">
        <ele>1512.105</ele>
        <time>2018-07-28T02:18:19Z</time>
      </trkpt>
      <trkpt lat="36.68645" lon="-5.035927">
        <ele>1512.291</ele>
        <time>2018-07-28T02:18:20Z</time>
      </trkpt>
      <trkpt lat="36.68646" lon="-5.035924">
        <ele>1512.295</ele>
        <time>2018-07-28T02:18:21Z</time>
      </trkpt>
      <trkpt lat="36.6865" lon="-5.035902">
        <ele>1512.586</ele>
        <time>2018-07-28T02:18:24Z</time>
      </trkpt>
      <trkpt lat="36.68652" lon="-5.035891">
        <ele>1512.735</ele>
        <time>2018-07-28T02:18:26Z</time>
      </trkpt>
      <trkpt lat="36.68653" lon="-5.035885">
        <ele>1512.859</ele>
        <time>2018-07-28T02:18:27Z</time>
      </trkpt>
      <trkpt lat="36.68655" lon="-5.035874">
        <ele>1513.012</ele>
        <time>2018-07-28T02:18:29Z</time>
      </trkpt>
      <trkpt lat="36.68655" lon="-5.035867">
        <ele>1513.155</ele>
        <time>2018-07-28T02:18:30Z</time>
      </trkpt>
      <trkpt lat="36.68656" lon="-5.03586">
        <ele>1513.315</ele>
        <time>2018-07-28T02:18:31Z</time>
      </trkpt>
      <trkpt lat="36.68657" lon="-5.035856">
        <ele>1513.374</ele>
        <time>2018-07-28T02:18:32Z</time>
      </trkpt>
      <trkpt lat="36.68661" lon="-5.035834">
        <ele>1513.602</ele>
        <time>2018-07-28T02:18:37Z</time>
      </trkpt>
      <trkpt lat="36.68662" lon="-5.035829">
        <ele>1513.656</ele>
        <time>2018-07-28T02:18:38Z</time>
      </trkpt>
      <trkpt lat="36.68666" lon="-5.035819">
        <ele>1513.514</ele>
        <time>2018-07-28T02:18:42Z</time>
      </trkpt>
      <trkpt lat="36.68668" lon="-5.035812">
        <ele>1513.603</ele>
        <time>2018-07-28T02:18:44Z</time>
      </trkpt>
      <trkpt lat="36.68671" lon="-5.035805">
        <ele>1513.674</ele>
        <time>2018-07-28T02:18:47Z</time>
      </trkpt>
      <trkpt lat="36.68672" lon="-5.035802">
        <ele>1513.719</ele>
        <time>2018-07-28T02:18:48Z</time>
      </trkpt>
      <trkpt lat="36.68676" lon="-5.035792">
        <ele>1513.807</ele>
        <time>2018-07-28T02:18:52Z</time>
      </trkpt>
      <trkpt lat="36.68678" lon="-5.035784">
        <ele>1513.931</ele>
        <time>2018-07-28T02:18:54Z</time>
      </trkpt>
      <trkpt lat="36.68681" lon="-5.035773">
        <ele>1514.095</ele>
        <time>2018-07-28T02:18:57Z</time>
      </trkpt>
      <trkpt lat="36.68689" lon="-5.035738">
        <ele>1514.712</ele>
        <time>2018-07-28T02:19:04Z</time>
      </trkpt>
      <trkpt lat="36.68691" lon="-5.03571">
        <ele>1515.366</ele>
        <time>2018-07-28T02:19:07Z</time>
      </trkpt>
      <trkpt lat="36.68693" lon="-5.035693">
        <ele>1515.727</ele>
        <time>2018-07-28T02:19:09Z</time>
      </trkpt>
      <trkpt lat="36.68695" lon="-5.035673">
        <ele>1516.201</ele>
        <time>2018-07-28T02:19:11Z</time>
      </trkpt>
      <trkpt lat="36.68696" lon="-5.035655">
        <ele>1516.639</ele>
        <time>2018-07-28T02:19:13Z</time>
      </trkpt>
      <trkpt lat="36.68697" lon="-5.035643">
        <ele>1516.899</ele>
        <time>2018-07-28T02:19:14Z</time>
      </trkpt>
      <trkpt lat="36.68699" lon="-5.035619">
        <ele>1517.477</ele>
        <time>2018-07-28T02:19:16Z</time>
      </trkpt>
      <trkpt lat="36.68699" lon="-5.035607">
        <ele>1517.757</ele>
        <time>2018-07-28T02:19:17Z</time>
      </trkpt>
      <trkpt lat="36.687" lon="-5.035594">
        <ele>1518.061</ele>
        <time>2018-07-28T02:19:18Z</time>
      </trkpt>
      <trkpt lat="36.68701" lon="-5.03557">
        <ele>1518.64</ele>
        <time>2018-07-28T02:19:20Z</time>
      </trkpt>
      <trkpt lat="36.68704" lon="-5.035508">
        <ele>1520.112</ele>
        <time>2018-07-28T02:19:25Z</time>
      </trkpt>
      <trkpt lat="36.68705" lon="-5.035495">
        <ele>1520.415</ele>
        <time>2018-07-28T02:19:26Z</time>
      </trkpt>
      <trkpt lat="36.68705" lon="-5.035481">
        <ele>1520.761</ele>
        <time>2018-07-28T02:19:27Z</time>
      </trkpt>
      <trkpt lat="36.68707" lon="-5.035446">
        <ele>1521.579</ele>
        <time>2018-07-28T02:19:30Z</time>
      </trkpt>
      <trkpt lat="36.68707" lon="-5.035432">
        <ele>1521.933</ele>
        <time>2018-07-28T02:19:31Z</time>
      </trkpt>
      <trkpt lat="36.68707" lon="-5.03542">
        <ele>1522.256</ele>
        <time>2018-07-28T02:19:32Z</time>
      </trkpt>
      <trkpt lat="36.68709" lon="-5.035382">
        <ele>1523.148</ele>
        <time>2018-07-28T02:19:35Z</time>
      </trkpt>
      <trkpt lat="36.68709" lon="-5.035357">
        <ele>1523.78</ele>
        <time>2018-07-28T02:19:37Z</time>
      </trkpt>
      <trkpt lat="36.68713" lon="-5.035267">
        <ele>1525.764</ele>
        <time>2018-07-28T02:19:44Z</time>
      </trkpt>
      <trkpt lat="36.68714" lon="-5.035257">
        <ele>1525.989</ele>
        <time>2018-07-28T02:19:45Z</time>
      </trkpt>
      <trkpt lat="36.68714" lon="-5.035245">
        <ele>1526.263</ele>
        <time>2018-07-28T02:19:46Z</time>
      </trkpt>
      <trkpt lat="36.68714" lon="-5.035237">
        <ele>1526.477</ele>
        <time>2018-07-28T02:19:47Z</time>
      </trkpt>
      <trkpt lat="36.68716" lon="-5.035202">
        <ele>1527.227</ele>
        <time>2018-07-28T02:19:49Z</time>
      </trkpt>
      <trkpt lat="36.68716" lon="-5.035148">
        <ele>1528.552</ele>
        <time>2018-07-28T02:19:53Z</time>
      </trkpt>
      <trkpt lat="36.68717" lon="-5.035137">
        <ele>1528.794</ele>
        <time>2018-07-28T02:19:54Z</time>
      </trkpt>
      <trkpt lat="36.68717" lon="-5.035124">
        <ele>1529.098</ele>
        <time>2018-07-28T02:19:55Z</time>
      </trkpt>
      <trkpt lat="36.68719" lon="-5.035097">
        <ele>1529.608</ele>
        <time>2018-07-28T02:19:57Z</time>
      </trkpt>
      <trkpt lat="36.68722" lon="-5.035005">
        <ele>1531.596</ele>
        <time>2018-07-28T02:20:04Z</time>
      </trkpt>
      <trkpt lat="36.68722" lon="-5.034995">
        <ele>1531.772</ele>
        <time>2018-07-28T02:20:05Z</time>
      </trkpt>
      <trkpt lat="36.68723" lon="-5.034986">
        <ele>1531.901</ele>
        <time>2018-07-28T02:20:06Z</time>
      </trkpt>
      <trkpt lat="36.68723" lon="-5.034975">
        <ele>1532.068</ele>
        <time>2018-07-28T02:20:07Z</time>
      </trkpt>
      <trkpt lat="36.68726" lon="-5.034933">
        <ele>1532.589</ele>
        <time>2018-07-28T02:20:11Z</time>
      </trkpt>
      <trkpt lat="36.68729" lon="-5.034882">
        <ele>1533.317</ele>
        <time>2018-07-28T02:20:16Z</time>
      </trkpt>
      <trkpt lat="36.68729" lon="-5.034871">
        <ele>1533.51</ele>
        <time>2018-07-28T02:20:17Z</time>
      </trkpt>
      <trkpt lat="36.68733" lon="-5.034803">
        <ele>1534.609</ele>
        <time>2018-07-28T02:20:23Z</time>
      </trkpt>
      <trkpt lat="36.68736" lon="-5.03477">
        <ele>1535.14</ele>
        <time>2018-07-28T02:20:26Z</time>
      </trkpt>
      <trkpt lat="36.68737" lon="-5.034761">
        <ele>1535.292</ele>
        <time>2018-07-28T02:20:27Z</time>
      </trkpt>
      <trkpt lat="36.68737" lon="-5.034753">
        <ele>1535.452</ele>
        <time>2018-07-28T02:20:28Z</time>
      </trkpt>
      <trkpt lat="36.68742" lon="-5.034653">
        <ele>1537.515</ele>
        <time>2018-07-28T02:20:37Z</time>
      </trkpt>
      <trkpt lat="36.68745" lon="-5.03462">
        <ele>1538.245</ele>
        <time>2018-07-28T02:20:40Z</time>
      </trkpt>
      <trkpt lat="36.68745" lon="-5.034599">
        <ele>1538.746</ele>
        <time>2018-07-28T02:20:42Z</time>
      </trkpt>
      <trkpt lat="36.68747" lon="-5.034572">
        <ele>1539.39</ele>
        <time>2018-07-28T02:20:44Z</time>
      </trkpt>
      <trkpt lat="36.68748" lon="-5.034555">
        <ele>1539.793</ele>
        <time>2018-07-28T02:20:46Z</time>
      </trkpt>
      <trkpt lat="36.68748" lon="-5.034541">
        <ele>1540.144</ele>
        <time>2018-07-28T02:20:47Z</time>
      </trkpt>
      <trkpt lat="36.68749" lon="-5.03453">
        <ele>1540.417</ele>
        <time>2018-07-28T02:20:48Z</time>
      </trkpt>
      <trkpt lat="36.68751" lon="-5.034475">
        <ele>1541.926</ele>
        <time>2018-07-28T02:20:53Z</time>
      </trkpt>
      <trkpt lat="36.68753" lon="-5.034445">
        <ele>1542.796</ele>
        <time>2018-07-28T02:20:55Z</time>
      </trkpt>
      <trkpt lat="36.68753" lon="-5.034418">
        <ele>1543.535</ele>
        <time>2018-07-28T02:20:57Z</time>
      </trkpt>
      <trkpt lat="36.68755" lon="-5.034397">
        <ele>1544.179</ele>
        <time>2018-07-28T02:21:00Z</time>
      </trkpt>
      <trkpt lat="36.68757" lon="-5.03438">
        <ele>1544.701</ele>
        <time>2018-07-28T02:21:02Z</time>
      </trkpt>
      <trkpt lat="36.68761" lon="-5.034362">
        <ele>1545.352</ele>
        <time>2018-07-28T02:21:06Z</time>
      </trkpt>
      <trkpt lat="36.68762" lon="-5.034357">
        <ele>1545.529</ele>
        <time>2018-07-28T02:21:07Z</time>
      </trkpt>
      <trkpt lat="36.68764" lon="-5.034345">
        <ele>1545.924</ele>
        <time>2018-07-28T02:21:09Z</time>
      </trkpt>
      <trkpt lat="36.68765" lon="-5.034341">
        <ele>1546.086</ele>
        <time>2018-07-28T02:21:10Z</time>
      </trkpt>
      <trkpt lat="36.68771" lon="-5.034307">
        <ele>1547.22</ele>
        <time>2018-07-28T02:21:16Z</time>
      </trkpt>
      <trkpt lat="36.68772" lon="-5.034302">
        <ele>1547.39</ele>
        <time>2018-07-28T02:21:17Z</time>
      </trkpt>
      <trkpt lat="36.68773" lon="-5.034302">
        <ele>1547.424</ele>
        <time>2018-07-28T02:21:18Z</time>
      </trkpt>
      <trkpt lat="36.68777" lon="-5.034286">
        <ele>1547.994</ele>
        <time>2018-07-28T02:21:21Z</time>
      </trkpt>
      <trkpt lat="36.68778" lon="-5.034287">
        <ele>1548.019</ele>
        <time>2018-07-28T02:21:22Z</time>
      </trkpt>
      <trkpt lat="36.68784" lon="-5.034265">
        <ele>1548.802</ele>
        <time>2018-07-28T02:21:27Z</time>
      </trkpt>
      <trkpt lat="36.68785" lon="-5.034258">
        <ele>1549.024</ele>
        <time>2018-07-28T02:21:28Z</time>
      </trkpt>
      <trkpt lat="36.68786" lon="-5.034259">
        <ele>1549.048</ele>
        <time>2018-07-28T02:21:29Z</time>
      </trkpt>
      <trkpt lat="36.68788" lon="-5.034258">
        <ele>1549.165</ele>
        <time>2018-07-28T02:21:31Z</time>
      </trkpt>
      <trkpt lat="36.68793" lon="-5.034263">
        <ele>1549.245</ele>
        <time>2018-07-28T02:21:36Z</time>
      </trkpt>
      <trkpt lat="36.68794" lon="-5.034266">
        <ele>1549.224</ele>
        <time>2018-07-28T02:21:37Z</time>
      </trkpt>
      <trkpt lat="36.68795" lon="-5.034263">
        <ele>1549.34</ele>
        <time>2018-07-28T02:21:38Z</time>
      </trkpt>
      <trkpt lat="36.68801" lon="-5.034267">
        <ele>1549.472</ele>
        <time>2018-07-28T02:21:43Z</time>
      </trkpt>
      <trkpt lat="36.68801" lon="-5.034274">
        <ele>1549.32</ele>
        <time>2018-07-28T02:21:44Z</time>
      </trkpt>
      <trkpt lat="36.68802" lon="-5.034273">
        <ele>1549.391</ele>
        <time>2018-07-28T02:21:45Z</time>
      </trkpt>
      <trkpt lat="36.68803" lon="-5.034274">
        <ele>1549.417</ele>
        <time>2018-07-28T02:21:46Z</time>
      </trkpt>
      <trkpt lat="36.68805" lon="-5.03428">
        <ele>1549.332</ele>
        <time>2018-07-28T02:21:47Z</time>
      </trkpt>
      <trkpt lat="36.68806" lon="-5.034292">
        <ele>1549.093</ele>
        <time>2018-07-28T02:21:49Z</time>
      </trkpt>
      <trkpt lat="36.6881" lon="-5.034331">
        <ele>1548.406</ele>
        <time>2018-07-28T02:21:54Z</time>
      </trkpt>
      <trkpt lat="36.68812" lon="-5.034337">
        <ele>1548.351</ele>
        <time>2018-07-28T02:21:56Z</time>
      </trkpt>
      <trkpt lat="36.68813" lon="-5.034339">
        <ele>1548.342</ele>
        <time>2018-07-28T02:21:57Z</time>
      </trkpt>
      <trkpt lat="36.68814" lon="-5.034341">
        <ele>1548.351</ele>
        <time>2018-07-28T02:21:58Z</time>
      </trkpt>
      <trkpt lat="36.68819" lon="-5.034364">
        <ele>1548.056</ele>
        <time>2018-07-28T02:22:04Z</time>
      </trkpt>
      <trkpt lat="36.68821" lon="-5.034375">
        <ele>1547.883</ele>
        <time>2018-07-28T02:22:06Z</time>
      </trkpt>
      <trkpt lat="36.68822" lon="-5.034379">
        <ele>1547.853</ele>
        <time>2018-07-28T02:22:07Z</time>
      </trkpt>
      <trkpt lat="36.6883" lon="-5.034431">
        <ele>1547.126</ele>
        <time>2018-07-28T02:22:17Z</time>
      </trkpt>
      <trkpt lat="36.68831" lon="-5.034438">
        <ele>1547.029</ele>
        <time>2018-07-28T02:22:18Z</time>
      </trkpt>
      <trkpt lat="36.68834" lon="-5.034471">
        <ele>1546.567</ele>
        <time>2018-07-28T02:22:22Z</time>
      </trkpt>
      <trkpt lat="36.68838" lon="-5.034514">
        <ele>1546.614</ele>
        <time>2018-07-28T02:22:27Z</time>
      </trkpt>
      <trkpt lat="36.68841" lon="-5.034538">
        <ele>1546.693</ele>
        <time>2018-07-28T02:22:30Z</time>
      </trkpt>
      <trkpt lat="36.68847" lon="-5.034599">
        <ele>1546.559</ele>
        <time>2018-07-28T02:22:37Z</time>
      </trkpt>
      <trkpt lat="36.6885" lon="-5.034608">
        <ele>1547.176</ele>
        <time>2018-07-28T02:22:40Z</time>
      </trkpt>
      <trkpt lat="36.68854" lon="-5.034613">
        <ele>1547.795</ele>
        <time>2018-07-28T02:22:43Z</time>
      </trkpt>
      <trkpt lat="36.68857" lon="-5.03462">
        <ele>1548.289</ele>
        <time>2018-07-28T02:22:46Z</time>
      </trkpt>
      <trkpt lat="36.68858" lon="-5.03462">
        <ele>1548.536</ele>
        <time>2018-07-28T02:22:47Z</time>
      </trkpt>
      <trkpt lat="36.68861" lon="-5.034628">
        <ele>1549.067</ele>
        <time>2018-07-28T02:22:50Z</time>
      </trkpt>
      <trkpt lat="36.68862" lon="-5.034631">
        <ele>1549.156</ele>
        <time>2018-07-28T02:22:51Z</time>
      </trkpt>
      <trkpt lat="36.68868" lon="-5.034664">
        <ele>1549.48</ele>
        <time>2018-07-28T02:22:57Z</time>
      </trkpt>
      <trkpt lat="36.68876" lon="-5.034697">
        <ele>1550.224</ele>
        <time>2018-07-28T02:23:05Z</time>
      </trkpt>
      <trkpt lat="36.68877" lon="-5.03471">
        <ele>1550.167</ele>
        <time>2018-07-28T02:23:07Z</time>
      </trkpt>
      <trkpt lat="36.68884" lon="-5.034735">
        <ele>1550.653</ele>
        <time>2018-07-28T02:23:13Z</time>
      </trkpt>
      <trkpt lat="36.68888" lon="-5.034757">
        <ele>1550.821</ele>
        <time>2018-07-28T02:23:17Z</time>
      </trkpt>
      <trkpt lat="36.68891" lon="-5.034778">
        <ele>1550.843</ele>
        <time>2018-07-28T02:23:21Z</time>
      </trkpt>
      <trkpt lat="36.68895" lon="-5.034793">
        <ele>1551.036</ele>
        <time>2018-07-28T02:23:25Z</time>
      </trkpt>
      <trkpt lat="36.68896" lon="-5.034804">
        <ele>1551.05</ele>
        <time>2018-07-28T02:23:27Z</time>
      </trkpt>
      <trkpt lat="36.689" lon="-5.034839">
        <ele>1550.558</ele>
        <time>2018-07-28T02:23:31Z</time>
      </trkpt>
      <trkpt lat="36.68904" lon="-5.034865">
        <ele>1550.407</ele>
        <time>2018-07-28T02:23:36Z</time>
      </trkpt>
      <trkpt lat="36.68904" lon="-5.034863">
        <ele>1550.537</ele>
        <time>2018-07-28T02:23:37Z</time>
      </trkpt>
      <trkpt lat="36.68904" lon="-5.034859">
        <ele>1550.73</ele>
        <time>2018-07-28T02:23:39Z</time>
      </trkpt>
      <trkpt lat="36.68906" lon="-5.034854">
        <ele>1551.108</ele>
        <time>2018-07-28T02:23:44Z</time>
      </trkpt>
      <trkpt lat="36.68907" lon="-5.034847">
        <ele>1551.619</ele>
        <time>2018-07-28T02:23:46Z</time>
      </trkpt>
      <trkpt lat="36.68908" lon="-5.034845">
        <ele>1551.752</ele>
        <time>2018-07-28T02:23:47Z</time>
      </trkpt>
      <trkpt lat="36.68912" lon="-5.03485">
        <ele>1552.399</ele>
        <time>2018-07-28T02:23:51Z</time>
      </trkpt>
      <trkpt lat="36.68914" lon="-5.034852">
        <ele>1552.745</ele>
        <time>2018-07-28T02:23:53Z</time>
      </trkpt>
      <trkpt lat="36.68917" lon="-5.034855">
        <ele>1553.024</ele>
        <time>2018-07-28T02:23:55Z</time>
      </trkpt>
      <trkpt lat="36.68919" lon="-5.034856">
        <ele>1552.849</ele>
        <time>2018-07-28T02:23:57Z</time>
      </trkpt>
      <trkpt lat="36.68924" lon="-5.034859">
        <ele>1552.472</ele>
        <time>2018-07-28T02:24:01Z</time>
      </trkpt>
      <trkpt lat="36.68925" lon="-5.034858">
        <ele>1552.434</ele>
        <time>2018-07-28T02:24:02Z</time>
      </trkpt>
      <trkpt lat="36.68929" lon="-5.034851">
        <ele>1552.398</ele>
        <time>2018-07-28T02:24:07Z</time>
      </trkpt>
      <trkpt lat="36.6893" lon="-5.03485">
        <ele>1552.36</ele>
        <time>2018-07-28T02:24:08Z</time>
      </trkpt>
      <trkpt lat="36.68934" lon="-5.034865">
        <ele>1551.636</ele>
        <time>2018-07-28T02:24:13Z</time>
      </trkpt>
      <trkpt lat="36.68936" lon="-5.034867">
        <ele>1551.428</ele>
        <time>2018-07-28T02:24:15Z</time>
      </trkpt>
      <trkpt lat="36.68939" lon="-5.034862">
        <ele>1551.427</ele>
        <time>2018-07-28T02:24:17Z</time>
      </trkpt>
      <trkpt lat="36.68945" lon="-5.034858">
        <ele>1551.18</ele>
        <time>2018-07-28T02:24:23Z</time>
      </trkpt>
      <trkpt lat="36.6895" lon="-5.034837">
        <ele>1551.633</ele>
        <time>2018-07-28T02:24:27Z</time>
      </trkpt>
      <trkpt lat="36.68951" lon="-5.034813">
        <ele>1552.355</ele>
        <time>2018-07-28T02:24:29Z</time>
      </trkpt>
      <trkpt lat="36.68951" lon="-5.034784">
        <ele>1553.329</ele>
        <time>2018-07-28T02:24:31Z</time>
      </trkpt>
      <trkpt lat="36.6895" lon="-5.034749">
        <ele>1554.62</ele>
        <time>2018-07-28T02:24:34Z</time>
      </trkpt>
      <trkpt lat="36.68949" lon="-5.034742">
        <ele>1554.914</ele>
        <time>2018-07-28T02:24:35Z</time>
      </trkpt>
      <trkpt lat="36.68947" lon="-5.034731">
        <ele>1555.413</ele>
        <time>2018-07-28T02:24:37Z</time>
      </trkpt>
      <trkpt lat="36.68946" lon="-5.034726">
        <ele>1555.65</ele>
        <time>2018-07-28T02:24:38Z</time>
      </trkpt>
      <trkpt lat="36.68944" lon="-5.034714">
        <ele>1556.182</ele>
        <time>2018-07-28T02:24:40Z</time>
      </trkpt>
      <trkpt lat="36.68942" lon="-5.034703">
        <ele>1556.698</ele>
        <time>2018-07-28T02:24:42Z</time>
      </trkpt>
      <trkpt lat="36.68941" lon="-5.034695">
        <ele>1557.035</ele>
        <time>2018-07-28T02:24:43Z</time>
      </trkpt>
      <trkpt lat="36.6894" lon="-5.034677">
        <ele>1557.757</ele>
        <time>2018-07-28T02:24:45Z</time>
      </trkpt>
      <trkpt lat="36.68938" lon="-5.034668">
        <ele>1558.193</ele>
        <time>2018-07-28T02:24:47Z</time>
      </trkpt>
      <trkpt lat="36.68937" lon="-5.034662">
        <ele>1558.457</ele>
        <time>2018-07-28T02:24:48Z</time>
      </trkpt>
      <trkpt lat="36.68935" lon="-5.034668">
        <ele>1558.341</ele>
        <time>2018-07-28T02:24:50Z</time>
      </trkpt>
      <trkpt lat="36.68935" lon="-5.034687">
        <ele>1557.683</ele>
        <time>2018-07-28T02:24:53Z</time>
      </trkpt>
      <trkpt lat="36.68936" lon="-5.03469">
        <ele>1557.559</ele>
        <time>2018-07-28T02:24:56Z</time>
      </trkpt>
      <trkpt lat="36.68936" lon="-5.03469">
        <ele>1557.559</ele>
        <time>2018-07-28T02:24:57Z</time>
      </trkpt>
      <trkpt lat="36.68936" lon="-5.034689">
        <ele>1557.592</ele>
        <time>2018-07-28T02:24:58Z</time>
      </trkpt>
      <trkpt lat="36.68936" lon="-5.034691">
        <ele>1557.502</ele>
        <time>2018-07-28T02:25:00Z</time>
      </trkpt>
      <trkpt lat="36.68936" lon="-5.034694">
        <ele>1557.387</ele>
        <time>2018-07-28T02:25:02Z</time>
      </trkpt>
      <trkpt lat="36.68936" lon="-5.034695">
        <ele>1557.354</ele>
        <time>2018-07-28T02:25:04Z</time>
      </trkpt>
      <trkpt lat="36.68936" lon="-5.034695">
        <ele>1557.354</ele>
        <time>2018-07-28T02:25:07Z</time>
      </trkpt>
      <trkpt lat="36.68936" lon="-5.034688">
        <ele>1557.625</ele>
        <time>2018-07-28T02:25:09Z</time>
      </trkpt>
      <trkpt lat="36.68935" lon="-5.034682">
        <ele>1557.864</ele>
        <time>2018-07-28T02:25:10Z</time>
      </trkpt>
      <trkpt lat="36.68935" lon="-5.034676">
        <ele>1558.086</ele>
        <time>2018-07-28T02:25:11Z</time>
      </trkpt>
      <trkpt lat="36.68933" lon="-5.034668">
        <ele>1558.49</ele>
        <time>2018-07-28T02:25:17Z</time>
      </trkpt>
      <trkpt lat="36.68932" lon="-5.034667">
        <ele>1558.572</ele>
        <time>2018-07-28T02:25:19Z</time>
      </trkpt>
      <trkpt lat="36.68927" lon="-5.034679">
        <ele>1558.48</ele>
        <time>2018-07-28T02:25:25Z</time>
      </trkpt>
      <trkpt lat="36.68926" lon="-5.034676">
        <ele>1558.678</ele>
        <time>2018-07-28T02:25:27Z</time>
      </trkpt>
      <trkpt lat="36.68925" lon="-5.034676">
        <ele>1558.703</ele>
        <time>2018-07-28T02:25:29Z</time>
      </trkpt>
      <trkpt lat="36.68925" lon="-5.034671">
        <ele>1558.885</ele>
        <time>2018-07-28T02:25:34Z</time>
      </trkpt>
      <trkpt lat="36.68925" lon="-5.034671">
        <ele>1558.885</ele>
        <time>2018-07-28T02:25:37Z</time>
      </trkpt>
      <trkpt lat="36.68925" lon="-5.034673">
        <ele>1558.802</ele>
        <time>2018-07-28T02:25:38Z</time>
      </trkpt>
      <trkpt lat="36.68926" lon="-5.034677">
        <ele>1558.645</ele>
        <time>2018-07-28T02:25:41Z</time>
      </trkpt>
      <trkpt lat="36.68926" lon="-5.034675">
        <ele>1558.711</ele>
        <time>2018-07-28T02:25:44Z</time>
      </trkpt>
      <trkpt lat="36.68926" lon="-5.034682">
        <ele>1558.48</ele>
        <time>2018-07-28T02:25:47Z</time>
      </trkpt>
      <trkpt lat="36.68926" lon="-5.034683">
        <ele>1558.43</ele>
        <time>2018-07-28T02:25:52Z</time>
      </trkpt>
      <trkpt lat="36.68926" lon="-5.034683">
        <ele>1558.406</ele>
        <time>2018-07-28T02:25:56Z</time>
      </trkpt>
      <trkpt lat="36.68926" lon="-5.034683">
        <ele>1558.406</ele>
        <time>2018-07-28T02:25:57Z</time>
      </trkpt>
      <trkpt lat="36.68926" lon="-5.034683">
        <ele>1558.406</ele>
        <time>2018-07-28T02:25:58Z</time>
      </trkpt>
      <trkpt lat="36.68926" lon="-5.034683">
        <ele>1558.43</ele>
        <time>2018-07-28T02:25:59Z</time>
      </trkpt>
      <trkpt lat="36.68926" lon="-5.034681">
        <ele>1558.513</ele>
        <time>2018-07-28T02:26:02Z</time>
      </trkpt>
      <trkpt lat="36.68926" lon="-5.034686">
        <ele>1558.307</ele>
        <time>2018-07-28T02:26:07Z</time>
      </trkpt>
      <trkpt lat="36.68926" lon="-5.034686">
        <ele>1558.307</ele>
        <time>2018-07-28T02:26:14Z</time>
      </trkpt>
      <trkpt lat="36.68926" lon="-5.034688">
        <ele>1558.265</ele>
        <time>2018-07-28T02:26:17Z</time>
      </trkpt>
      <trkpt lat="36.68926" lon="-5.034674">
        <ele>1558.744</ele>
        <time>2018-07-28T02:26:23Z</time>
      </trkpt>
      <trkpt lat="36.68926" lon="-5.034673">
        <ele>1558.777</ele>
        <time>2018-07-28T02:26:26Z</time>
      </trkpt>
      <trkpt lat="36.68926" lon="-5.034673">
        <ele>1558.777</ele>
        <time>2018-07-28T02:26:27Z</time>
      </trkpt>
      <trkpt lat="36.68926" lon="-5.034667">
        <ele>1558.992</ele>
        <time>2018-07-28T02:26:30Z</time>
      </trkpt>
      <trkpt lat="36.68926" lon="-5.034672">
        <ele>1558.827</ele>
        <time>2018-07-28T02:26:35Z</time>
      </trkpt>
      <trkpt lat="36.68926" lon="-5.034673">
        <ele>1558.777</ele>
        <time>2018-07-28T02:26:37Z</time>
      </trkpt>
      <trkpt lat="36.68926" lon="-5.034674">
        <ele>1558.744</ele>
        <time>2018-07-28T02:26:38Z</time>
      </trkpt>
      <trkpt lat="36.68926" lon="-5.034666">
        <ele>1559.001</ele>
        <time>2018-07-28T02:26:47Z</time>
      </trkpt>
      <trkpt lat="36.68926" lon="-5.034666">
        <ele>1559.001</ele>
        <time>2018-07-28T02:26:48Z</time>
      </trkpt>
      <trkpt lat="36.68927" lon="-5.034665">
        <ele>1559.009</ele>
        <time>2018-07-28T02:26:51Z</time>
      </trkpt>
      <trkpt lat="36.68927" lon="-5.034664">
        <ele>1559.042</ele>
        <time>2018-07-28T02:26:52Z</time>
      </trkpt>
      <trkpt lat="36.68927" lon="-5.034662">
        <ele>1559.1</ele>
        <time>2018-07-28T02:26:55Z</time>
      </trkpt>
      <trkpt lat="36.68927" lon="-5.034662">
        <ele>1559.1</ele>
        <time>2018-07-28T02:26:56Z</time>
      </trkpt>
      <trkpt lat="36.68927" lon="-5.034658">
        <ele>1559.232</ele>
        <time>2018-07-28T02:26:57Z</time>
      </trkpt>
      <trkpt lat="36.68927" lon="-5.03465">
        <ele>1559.488</ele>
        <time>2018-07-28T02:27:01Z</time>
      </trkpt>
      <trkpt lat="36.68924" lon="-5.034618">
        <ele>1560.82</ele>
        <time>2018-07-28T02:27:07Z</time>
      </trkpt>
      <trkpt lat="36.68922" lon="-5.034603">
        <ele>1561.433</ele>
        <time>2018-07-28T02:27:09Z</time>
      </trkpt>
      <trkpt lat="36.68921" lon="-5.034585">
        <ele>1562.188</ele>
        <time>2018-07-28T02:27:11Z</time>
      </trkpt>
      <trkpt lat="36.68919" lon="-5.034569">
        <ele>1562.827</ele>
        <time>2018-07-28T02:27:13Z</time>
      </trkpt>
      <trkpt lat="36.68918" lon="-5.034559">
        <ele>1563.251</ele>
        <time>2018-07-28T02:27:14Z</time>
      </trkpt>
      <trkpt lat="36.68917" lon="-5.034541">
        <ele>1563.966</ele>
        <time>2018-07-28T02:27:16Z</time>
      </trkpt>
      <trkpt lat="36.68916" lon="-5.034532">
        <ele>1564.117</ele>
        <time>2018-07-28T02:27:17Z</time>
      </trkpt>
      <trkpt lat="36.68915" lon="-5.034521">
        <ele>1564.32</ele>
        <time>2018-07-28T02:27:18Z</time>
      </trkpt>
      <trkpt lat="36.68914" lon="-5.034512">
        <ele>1564.455</ele>
        <time>2018-07-28T02:27:19Z</time>
      </trkpt>
      <trkpt lat="36.68914" lon="-5.034501">
        <ele>1564.654</ele>
        <time>2018-07-28T02:27:20Z</time>
      </trkpt>
      <trkpt lat="36.68913" lon="-5.034492">
        <ele>1564.874</ele>
        <time>2018-07-28T02:27:21Z</time>
      </trkpt>
      <trkpt lat="36.68913" lon="-5.034483">
        <ele>1565.003</ele>
        <time>2018-07-28T02:27:22Z</time>
      </trkpt>
      <trkpt lat="36.68912" lon="-5.034474">
        <ele>1565.13</ele>
        <time>2018-07-28T02:27:23Z</time>
      </trkpt>
      <trkpt lat="36.68911" lon="-5.034466">
        <ele>1565.222</ele>
        <time>2018-07-28T02:27:24Z</time>
      </trkpt>
      <trkpt lat="36.68909" lon="-5.034442">
        <ele>1565.471</ele>
        <time>2018-07-28T02:27:27Z</time>
      </trkpt>
      <trkpt lat="36.68906" lon="-5.034414">
        <ele>1565.75</ele>
        <time>2018-07-28T02:27:32Z</time>
      </trkpt>
      <trkpt lat="36.68906" lon="-5.034413">
        <ele>1565.782</ele>
        <time>2018-07-28T02:27:33Z</time>
      </trkpt>
      <trkpt lat="36.68905" lon="-5.03442">
        <ele>1565.356</ele>
        <time>2018-07-28T02:27:37Z</time>
      </trkpt>
      <trkpt lat="36.68905" lon="-5.034421">
        <ele>1565.23</ele>
        <time>2018-07-28T02:27:40Z</time>
      </trkpt>
      <trkpt lat="36.68905" lon="-5.034417">
        <ele>1565.45</ele>
        <time>2018-07-28T02:27:44Z</time>
      </trkpt>
      <trkpt lat="36.68905" lon="-5.034402">
        <ele>1565.953</ele>
        <time>2018-07-28T02:27:47Z</time>
      </trkpt>
      <trkpt lat="36.68905" lon="-5.034387">
        <ele>1566.345</ele>
        <time>2018-07-28T02:27:49Z</time>
      </trkpt>
      <trkpt lat="36.68903" lon="-5.034353">
        <ele>1566.884</ele>
        <time>2018-07-28T02:27:53Z</time>
      </trkpt>
      <trkpt lat="36.689" lon="-5.034311">
        <ele>1567.441</ele>
        <time>2018-07-28T02:27:57Z</time>
      </trkpt>
      <trkpt lat="36.68899" lon="-5.034301">
        <ele>1567.661</ele>
        <time>2018-07-28T02:27:58Z</time>
      </trkpt>
      <trkpt lat="36.68898" lon="-5.034287">
        <ele>1567.898</ele>
        <time>2018-07-28T02:27:59Z</time>
      </trkpt>
      <trkpt lat="36.68898" lon="-5.034274">
        <ele>1568.102</ele>
        <time>2018-07-28T02:28:00Z</time>
      </trkpt>
      <trkpt lat="36.68896" lon="-5.034249">
        <ele>1568.591</ele>
        <time>2018-07-28T02:28:02Z</time>
      </trkpt>
      <trkpt lat="36.68895" lon="-5.034231">
        <ele>1568.831</ele>
        <time>2018-07-28T02:28:04Z</time>
      </trkpt>
      <trkpt lat="36.68893" lon="-5.034208">
        <ele>1569.028</ele>
        <time>2018-07-28T02:28:07Z</time>
      </trkpt>
      <trkpt lat="36.68891" lon="-5.034178">
        <ele>1569.198</ele>
        <time>2018-07-28T02:28:11Z</time>
      </trkpt>
      <trkpt lat="36.6889" lon="-5.034172">
        <ele>1569.155</ele>
        <time>2018-07-28T02:28:12Z</time>
      </trkpt>
      <trkpt lat="36.68887" lon="-5.034126">
        <ele>1570.042</ele>
        <time>2018-07-28T02:28:17Z</time>
      </trkpt>
      <trkpt lat="36.68882" lon="-5.034044">
        <ele>1571.534</ele>
        <time>2018-07-28T02:28:27Z</time>
      </trkpt>
      <trkpt lat="36.68882" lon="-5.034036">
        <ele>1571.708</ele>
        <time>2018-07-28T02:28:28Z</time>
      </trkpt>
      <trkpt lat="36.6888" lon="-5.03402">
        <ele>1571.985</ele>
        <time>2018-07-28T02:28:30Z</time>
      </trkpt>
      <trkpt lat="36.68878" lon="-5.033994">
        <ele>1572.192</ele>
        <time>2018-07-28T02:28:33Z</time>
      </trkpt>
      <trkpt lat="36.68875" lon="-5.033965">
        <ele>1572.426</ele>
        <time>2018-07-28T02:28:37Z</time>
      </trkpt>
      <trkpt lat="36.68872" lon="-5.03394">
        <ele>1572.737</ele>
        <time>2018-07-28T02:28:40Z</time>
      </trkpt>
      <trkpt lat="36.68867" lon="-5.033875">
        <ele>1573.711</ele>
        <time>2018-07-28T02:28:47Z</time>
      </trkpt>
      <trkpt lat="36.68864" lon="-5.033836">
        <ele>1574.363</ele>
        <time>2018-07-28T02:28:51Z</time>
      </trkpt>
      <trkpt lat="36.68862" lon="-5.033808">
        <ele>1574.899</ele>
        <time>2018-07-28T02:28:54Z</time>
      </trkpt>
      <trkpt lat="36.68862" lon="-5.033799">
        <ele>1575.141</ele>
        <time>2018-07-28T02:28:55Z</time>
      </trkpt>
      <trkpt lat="36.6886" lon="-5.033781">
        <ele>1575.322</ele>
        <time>2018-07-28T02:28:57Z</time>
      </trkpt>
      <trkpt lat="36.68854" lon="-5.033724">
        <ele>1575.998</ele>
        <time>2018-07-28T02:29:04Z</time>
      </trkpt>
      <trkpt lat="36.68852" lon="-5.033695">
        <ele>1576.599</ele>
        <time>2018-07-28T02:29:07Z</time>
      </trkpt>
      <trkpt lat="36.68843" lon="-5.033598">
        <ele>1578.106</ele>
        <time>2018-07-28T02:29:17Z</time>
      </trkpt>
      <trkpt lat="36.68843" lon="-5.033587">
        <ele>1578.34</ele>
        <time>2018-07-28T02:29:18Z</time>
      </trkpt>
      <trkpt lat="36.68835" lon="-5.033536">
        <ele>1578.413</ele>
        <time>2018-07-28T02:29:25Z</time>
      </trkpt>
      <trkpt lat="36.68834" lon="-5.033517">
        <ele>1578.784</ele>
        <time>2018-07-28T02:29:27Z</time>
      </trkpt>
      <trkpt lat="36.68832" lon="-5.03351">
        <ele>1578.821</ele>
        <time>2018-07-28T02:29:28Z</time>
      </trkpt>
      <trkpt lat="36.68827" lon="-5.033463">
        <ele>1579.697</ele>
        <time>2018-07-28T02:29:34Z</time>
      </trkpt>
      <trkpt lat="36.68827" lon="-5.033463">
        <ele>1579.622</ele>
        <time>2018-07-28T02:29:35Z</time>
      </trkpt>
      <trkpt lat="36.68827" lon="-5.033464">
        <ele>1579.51</ele>
        <time>2018-07-28T02:29:37Z</time>
      </trkpt>
      <trkpt lat="36.68826" lon="-5.033464">
        <ele>1579.359</ele>
        <time>2018-07-28T02:29:40Z</time>
      </trkpt>
      <trkpt lat="36.68827" lon="-5.033458">
        <ele>1579.728</ele>
        <time>2018-07-28T02:29:46Z</time>
      </trkpt>
      <trkpt lat="36.68826" lon="-5.033463">
        <ele>1579.47</ele>
        <time>2018-07-28T02:29:47Z</time>
      </trkpt>
      <trkpt lat="36.68826" lon="-5.033464">
        <ele>1579.434</ele>
        <time>2018-07-28T02:29:54Z</time>
      </trkpt>
      <trkpt lat="36.68826" lon="-5.033465">
        <ele>1579.398</ele>
        <time>2018-07-28T02:29:57Z</time>
      </trkpt>
      <trkpt lat="36.68824" lon="-5.033458">
        <ele>1579.12</ele>
        <time>2018-07-28T02:30:01Z</time>
      </trkpt>
      <trkpt lat="36.68821" lon="-5.033435">
        <ele>1579.524</ele>
        <time>2018-07-28T02:30:04Z</time>
      </trkpt>
      <trkpt lat="36.68819" lon="-5.033407">
        <ele>1580.141</ele>
        <time>2018-07-28T02:30:07Z</time>
      </trkpt>
      <trkpt lat="36.68819" lon="-5.033405">
        <ele>1580.147</ele>
        <time>2018-07-28T02:30:08Z</time>
      </trkpt>
      <trkpt lat="36.68816" lon="-5.033368">
        <ele>1580.724</ele>
        <time>2018-07-28T02:30:13Z</time>
      </trkpt>
      <trkpt lat="36.68811" lon="-5.03334">
        <ele>1580.773</ele>
        <time>2018-07-28T02:30:17Z</time>
      </trkpt>
      <trkpt lat="36.68808" lon="-5.033315">
        <ele>1581.009</ele>
        <time>2018-07-28T02:30:20Z</time>
      </trkpt>
      <trkpt lat="36.68806" lon="-5.033302">
        <ele>1581.076</ele>
        <time>2018-07-28T02:30:22Z</time>
      </trkpt>
      <trkpt lat="36.68805" lon="-5.033292">
        <ele>1581.187</ele>
        <time>2018-07-28T02:30:23Z</time>
      </trkpt>
      <trkpt lat="36.68805" lon="-5.033286">
        <ele>1581.222</ele>
        <time>2018-07-28T02:30:24Z</time>
      </trkpt>
      <trkpt lat="36.68802" lon="-5.033274">
        <ele>1581.119</ele>
        <time>2018-07-28T02:30:26Z</time>
      </trkpt>
      <trkpt lat="36.68801" lon="-5.033265">
        <ele>1581.27</ele>
        <time>2018-07-28T02:30:27Z</time>
      </trkpt>
      <trkpt lat="36.68801" lon="-5.033258">
        <ele>1581.348</ele>
        <time>2018-07-28T02:30:28Z</time>
      </trkpt>
      <trkpt lat="36.68799" lon="-5.033241">
        <ele>1581.506</ele>
        <time>2018-07-28T02:30:30Z</time>
      </trkpt>
      <trkpt lat="36.68797" lon="-5.033217">
        <ele>1581.792</ele>
        <time>2018-07-28T02:30:33Z</time>
      </trkpt>
      <trkpt lat="36.68793" lon="-5.033182">
        <ele>1582.24</ele>
        <time>2018-07-28T02:30:37Z</time>
      </trkpt>
      <trkpt lat="36.68785" lon="-5.033098">
        <ele>1582.72</ele>
        <time>2018-07-28T02:30:47Z</time>
      </trkpt>
      <trkpt lat="36.68784" lon="-5.033089">
        <ele>1582.695</ele>
        <time>2018-07-28T02:30:48Z</time>
      </trkpt>
      <trkpt lat="36.68781" lon="-5.033059">
        <ele>1583.018</ele>
        <time>2018-07-28T02:30:51Z</time>
      </trkpt>
      <trkpt lat="36.68776" lon="-5.033004">
        <ele>1583.304</ele>
        <time>2018-07-28T02:30:57Z</time>
      </trkpt>
      <trkpt lat="36.68774" lon="-5.032968">
        <ele>1583.826</ele>
        <time>2018-07-28T02:31:00Z</time>
      </trkpt>
      <trkpt lat="36.68772" lon="-5.03293">
        <ele>1584.145</ele>
        <time>2018-07-28T02:31:04Z</time>
      </trkpt>
      <trkpt lat="36.6877" lon="-5.032897">
        <ele>1584.638</ele>
        <time>2018-07-28T02:31:07Z</time>
      </trkpt>
      <trkpt lat="36.68769" lon="-5.032878">
        <ele>1584.826</ele>
        <time>2018-07-28T02:31:09Z</time>
      </trkpt>
      <trkpt lat="36.68767" lon="-5.032799">
        <ele>1586.499</ele>
        <time>2018-07-28T02:31:15Z</time>
      </trkpt>
      <trkpt lat="36.68766" lon="-5.032774">
        <ele>1586.95</ele>
        <time>2018-07-28T02:31:17Z</time>
      </trkpt>
      <trkpt lat="36.68766" lon="-5.03276">
        <ele>1587.213</ele>
        <time>2018-07-28T02:31:18Z</time>
      </trkpt>
      <trkpt lat="36.68764" lon="-5.032708">
        <ele>1588.147</ele>
        <time>2018-07-28T02:31:22Z</time>
      </trkpt>
      <trkpt lat="36.68764" lon="-5.032694">
        <ele>1588.412</ele>
        <time>2018-07-28T02:31:23Z</time>
      </trkpt>
      <trkpt lat="36.68764" lon="-5.032666">
        <ele>1589.054</ele>
        <time>2018-07-28T02:31:25Z</time>
      </trkpt>
      <trkpt lat="36.68764" lon="-5.032653">
        <ele>1589.432</ele>
        <time>2018-07-28T02:31:26Z</time>
      </trkpt>
      <trkpt lat="36.68763" lon="-5.032639">
        <ele>1589.677</ele>
        <time>2018-07-28T02:31:27Z</time>
      </trkpt>
      <trkpt lat="36.68763" lon="-5.0326">
        <ele>1590.782</ele>
        <time>2018-07-28T02:31:30Z</time>
      </trkpt>
      <trkpt lat="36.68763" lon="-5.032544">
        <ele>1592.047</ele>
        <time>2018-07-28T02:31:34Z</time>
      </trkpt>
      <trkpt lat="36.68762" lon="-5.032531">
        <ele>1592.265</ele>
        <time>2018-07-28T02:31:35Z</time>
      </trkpt>
      <trkpt lat="36.68762" lon="-5.032516">
        <ele>1592.679</ele>
        <time>2018-07-28T02:31:36Z</time>
      </trkpt>
      <trkpt lat="36.68762" lon="-5.032478">
        <ele>1593.475</ele>
        <time>2018-07-28T02:31:39Z</time>
      </trkpt>
      <trkpt lat="36.68762" lon="-5.032439">
        <ele>1594.363</ele>
        <time>2018-07-28T02:31:42Z</time>
      </trkpt>
      <trkpt lat="36.68762" lon="-5.032428">
        <ele>1594.625</ele>
        <time>2018-07-28T02:31:43Z</time>
      </trkpt>
      <trkpt lat="36.68761" lon="-5.032403">
        <ele>1595.034</ele>
        <time>2018-07-28T02:31:45Z</time>
      </trkpt>
      <trkpt lat="36.6876" lon="-5.032377">
        <ele>1595.154</ele>
        <time>2018-07-28T02:31:47Z</time>
      </trkpt>
      <trkpt lat="36.6876" lon="-5.032351">
        <ele>1595.584</ele>
        <time>2018-07-28T02:31:49Z</time>
      </trkpt>
      <trkpt lat="36.68759" lon="-5.032285">
        <ele>1596.771</ele>
        <time>2018-07-28T02:31:54Z</time>
      </trkpt>
      <trkpt lat="36.68759" lon="-5.032249">
        <ele>1597.44</ele>
        <time>2018-07-28T02:31:57Z</time>
      </trkpt>
      <trkpt lat="36.68759" lon="-5.032235">
        <ele>1597.757</ele>
        <time>2018-07-28T02:31:58Z</time>
      </trkpt>
      <trkpt lat="36.68759" lon="-5.032223">
        <ele>1598.03</ele>
        <time>2018-07-28T02:31:59Z</time>
      </trkpt>
      <trkpt lat="36.68758" lon="-5.03215">
        <ele>1599.39</ele>
        <time>2018-07-28T02:32:05Z</time>
      </trkpt>
      <trkpt lat="36.68757" lon="-5.032123">
        <ele>1599.677</ele>
        <time>2018-07-28T02:32:07Z</time>
      </trkpt>
      <trkpt lat="36.68757" lon="-5.032113">
        <ele>1599.744</ele>
        <time>2018-07-28T02:32:08Z</time>
      </trkpt>
      <trkpt lat="36.68757" lon="-5.032092">
        <ele>1600.387</ele>
        <time>2018-07-28T02:32:10Z</time>
      </trkpt>
      <trkpt lat="36.68757" lon="-5.032081">
        <ele>1600.476</ele>
        <time>2018-07-28T02:32:11Z</time>
      </trkpt>
      <trkpt lat="36.68756" lon="-5.032045">
        <ele>1600.817</ele>
        <time>2018-07-28T02:32:14Z</time>
      </trkpt>
      <trkpt lat="36.68755" lon="-5.032002">
        <ele>1601.473</ele>
        <time>2018-07-28T02:32:17Z</time>
      </trkpt>
      <trkpt lat="36.68754" lon="-5.031895">
        <ele>1603.589</ele>
        <time>2018-07-28T02:32:24Z</time>
      </trkpt>
      <trkpt lat="36.68754" lon="-5.031881">
        <ele>1603.916</ele>
        <time>2018-07-28T02:32:25Z</time>
      </trkpt>
      <trkpt lat="36.68753" lon="-5.031854">
        <ele>1604.199</ele>
        <time>2018-07-28T02:32:27Z</time>
      </trkpt>
      <trkpt lat="36.68753" lon="-5.031841">
        <ele>1604.504</ele>
        <time>2018-07-28T02:32:28Z</time>
      </trkpt>
      <trkpt lat="36.68753" lon="-5.031829">
        <ele>1604.613</ele>
        <time>2018-07-28T02:32:29Z</time>
      </trkpt>
      <trkpt lat="36.68753" lon="-5.031766">
        <ele>1606.215</ele>
        <time>2018-07-28T02:32:34Z</time>
      </trkpt>
      <trkpt lat="36.68752" lon="-5.031726">
        <ele>1606.637</ele>
        <time>2018-07-28T02:32:37Z</time>
      </trkpt>
      <trkpt lat="36.68752" lon="-5.031685">
        <ele>1607.408</ele>
        <time>2018-07-28T02:32:40Z</time>
      </trkpt>
      <trkpt lat="36.6875" lon="-5.031612">
        <ele>1608.542</ele>
        <time>2018-07-28T02:32:45Z</time>
      </trkpt>
      <trkpt lat="36.68749" lon="-5.031585">
        <ele>1608.792</ele>
        <time>2018-07-28T02:32:47Z</time>
      </trkpt>
      <trkpt lat="36.68749" lon="-5.031574">
        <ele>1609.083</ele>
        <time>2018-07-28T02:32:48Z</time>
      </trkpt>
      <trkpt lat="36.68748" lon="-5.031537">
        <ele>1609.762</ele>
        <time>2018-07-28T02:32:51Z</time>
      </trkpt>
      <trkpt lat="36.68747" lon="-5.031513">
        <ele>1610</ele>
        <time>2018-07-28T02:32:53Z</time>
      </trkpt>
      <trkpt lat="36.68747" lon="-5.031501">
        <ele>1610.197</ele>
        <time>2018-07-28T02:32:54Z</time>
      </trkpt>
      <trkpt lat="36.68746" lon="-5.031475">
        <ele>1610.503</ele>
        <time>2018-07-28T02:32:56Z</time>
      </trkpt>
      <trkpt lat="36.68745" lon="-5.031462">
        <ele>1610.72</ele>
        <time>2018-07-28T02:32:57Z</time>
      </trkpt>
      <trkpt lat="36.68745" lon="-5.03144">
        <ele>1611.074</ele>
        <time>2018-07-28T02:32:59Z</time>
      </trkpt>
      <trkpt lat="36.68743" lon="-5.031385">
        <ele>1612.073</ele>
        <time>2018-07-28T02:33:03Z</time>
      </trkpt>
      <trkpt lat="36.68742" lon="-5.031331">
        <ele>1613.193</ele>
        <time>2018-07-28T02:33:07Z</time>
      </trkpt>
      <trkpt lat="36.68741" lon="-5.031304">
        <ele>1613.611</ele>
        <time>2018-07-28T02:33:09Z</time>
      </trkpt>
      <trkpt lat="36.6874" lon="-5.031276">
        <ele>1614.161</ele>
        <time>2018-07-28T02:33:11Z</time>
      </trkpt>
      <trkpt lat="36.68739" lon="-5.031236">
        <ele>1614.864</ele>
        <time>2018-07-28T02:33:14Z</time>
      </trkpt>
      <trkpt lat="36.68737" lon="-5.031196">
        <ele>1615.595</ele>
        <time>2018-07-28T02:33:17Z</time>
      </trkpt>
      <trkpt lat="36.68736" lon="-5.031167">
        <ele>1616.134</ele>
        <time>2018-07-28T02:33:20Z</time>
      </trkpt>
      <trkpt lat="36.68732" lon="-5.031116">
        <ele>1616.608</ele>
        <time>2018-07-28T02:33:25Z</time>
      </trkpt>
      <trkpt lat="36.6873" lon="-5.031099">
        <ele>1616.763</ele>
        <time>2018-07-28T02:33:27Z</time>
      </trkpt>
      <trkpt lat="36.68725" lon="-5.031045">
        <ele>1617.21</ele>
        <time>2018-07-28T02:33:33Z</time>
      </trkpt>
      <trkpt lat="36.68724" lon="-5.031033">
        <ele>1617.498</ele>
        <time>2018-07-28T02:33:34Z</time>
      </trkpt>
      <trkpt lat="36.68723" lon="-5.031001">
        <ele>1618.097</ele>
        <time>2018-07-28T02:33:37Z</time>
      </trkpt>
      <trkpt lat="36.68721" lon="-5.030981">
        <ele>1618.42</ele>
        <time>2018-07-28T02:33:39Z</time>
      </trkpt>
      <trkpt lat="36.68719" lon="-5.030951">
        <ele>1619.005</ele>
        <time>2018-07-28T02:33:42Z</time>
      </trkpt>
      <trkpt lat="36.68717" lon="-5.030919">
        <ele>1619.68</ele>
        <time>2018-07-28T02:33:45Z</time>
      </trkpt>
      <trkpt lat="36.68716" lon="-5.0309">
        <ele>1620.025</ele>
        <time>2018-07-28T02:33:47Z</time>
      </trkpt>
      <trkpt lat="36.68713" lon="-5.03089">
        <ele>1619.942</ele>
        <time>2018-07-28T02:33:49Z</time>
      </trkpt>
      <trkpt lat="36.68713" lon="-5.030877">
        <ele>1620.307</ele>
        <time>2018-07-28T02:33:50Z</time>
      </trkpt>
      <trkpt lat="36.68708" lon="-5.030841">
        <ele>1620.752</ele>
        <time>2018-07-28T02:33:55Z</time>
      </trkpt>
      <trkpt lat="36.68707" lon="-5.030826">
        <ele>1620.997</ele>
        <time>2018-07-28T02:33:57Z</time>
      </trkpt>
      <trkpt lat="36.68702" lon="-5.030812">
        <ele>1620.851</ele>
        <time>2018-07-28T02:34:01Z</time>
      </trkpt>
      <trkpt lat="36.687" lon="-5.030805">
        <ele>1620.83</ele>
        <time>2018-07-28T02:34:03Z</time>
      </trkpt>
      <trkpt lat="36.68695" lon="-5.030796">
        <ele>1620.436</ele>
        <time>2018-07-28T02:34:07Z</time>
      </trkpt>
      <trkpt lat="36.68693" lon="-5.030794">
        <ele>1620.159</ele>
        <time>2018-07-28T02:34:09Z</time>
      </trkpt>
      <trkpt lat="36.6869" lon="-5.030789">
        <ele>1620.036</ele>
        <time>2018-07-28T02:34:11Z</time>
      </trkpt>
      <trkpt lat="36.68687" lon="-5.030778">
        <ele>1619.949</ele>
        <time>2018-07-28T02:34:14Z</time>
      </trkpt>
      <trkpt lat="36.68684" lon="-5.030773">
        <ele>1619.704</ele>
        <time>2018-07-28T02:34:16Z</time>
      </trkpt>
      <trkpt lat="36.68682" lon="-5.030771">
        <ele>1619.642</ele>
        <time>2018-07-28T02:34:17Z</time>
      </trkpt>
      <trkpt lat="36.68678" lon="-5.030761">
        <ele>1619.375</ele>
        <time>2018-07-28T02:34:21Z</time>
      </trkpt>
      <trkpt lat="36.68675" lon="-5.030746">
        <ele>1619.707</ele>
        <time>2018-07-28T02:34:24Z</time>
      </trkpt>
      <trkpt lat="36.68672" lon="-5.030736">
        <ele>1619.819</ele>
        <time>2018-07-28T02:34:27Z</time>
      </trkpt>
      <trkpt lat="36.68667" lon="-5.030717">
        <ele>1620.032</ele>
        <time>2018-07-28T02:34:33Z</time>
      </trkpt>
      <trkpt lat="36.68663" lon="-5.030697">
        <ele>1620.889</ele>
        <time>2018-07-28T02:34:37Z</time>
      </trkpt>
      <trkpt lat="36.68662" lon="-5.030698">
        <ele>1620.792</ele>
        <time>2018-07-28T02:34:40Z</time>
      </trkpt>
      <trkpt lat="36.6866" lon="-5.030693">
        <ele>1620.941</ele>
        <time>2018-07-28T02:34:44Z</time>
      </trkpt>
      <trkpt lat="36.68659" lon="-5.030691">
        <ele>1621.006</ele>
        <time>2018-07-28T02:34:45Z</time>
      </trkpt>
      <trkpt lat="36.68658" lon="-5.030687">
        <ele>1621.178</ele>
        <time>2018-07-28T02:34:47Z</time>
      </trkpt>
      <trkpt lat="36.68654" lon="-5.03068">
        <ele>1621.374</ele>
        <time>2018-07-28T02:34:50Z</time>
      </trkpt>
      <trkpt lat="36.6865" lon="-5.030655">
        <ele>1622.481</ele>
        <time>2018-07-28T02:34:55Z</time>
      </trkpt>
      <trkpt lat="36.68648" lon="-5.030651">
        <ele>1622.591</ele>
        <time>2018-07-28T02:34:57Z</time>
      </trkpt>
      <trkpt lat="36.68644" lon="-5.030626">
        <ele>1623.686</ele>
        <time>2018-07-28T02:35:01Z</time>
      </trkpt>
      <trkpt lat="36.68637" lon="-5.030595">
        <ele>1624.955</ele>
        <time>2018-07-28T02:35:07Z</time>
      </trkpt>
      <trkpt lat="36.68634" lon="-5.030585">
        <ele>1625.299</ele>
        <time>2018-07-28T02:35:10Z</time>
      </trkpt>
      <trkpt lat="36.68626" lon="-5.030569">
        <ele>1625.708</ele>
        <time>2018-07-28T02:35:17Z</time>
      </trkpt>
      <trkpt lat="36.6862" lon="-5.030546">
        <ele>1626.535</ele>
        <time>2018-07-28T02:35:23Z</time>
      </trkpt>
      <trkpt lat="36.68615" lon="-5.030543">
        <ele>1626.46</ele>
        <time>2018-07-28T02:35:27Z</time>
      </trkpt>
      <trkpt lat="36.68613" lon="-5.03054">
        <ele>1626.508</ele>
        <time>2018-07-28T02:35:29Z</time>
      </trkpt>
      <trkpt lat="36.6861" lon="-5.030536">
        <ele>1626.585</ele>
        <time>2018-07-28T02:35:31Z</time>
      </trkpt>
      <trkpt lat="36.68607" lon="-5.030524">
        <ele>1627.006</ele>
        <time>2018-07-28T02:35:35Z</time>
      </trkpt>
      <trkpt lat="36.68604" lon="-5.030517">
        <ele>1627.219</ele>
        <time>2018-07-28T02:35:37Z</time>
      </trkpt>
      <trkpt lat="36.68604" lon="-5.030516">
        <ele>1627.228</ele>
        <time>2018-07-28T02:35:38Z</time>
      </trkpt>
      <trkpt lat="36.68596" lon="-5.030497">
        <ele>1627.755</ele>
        <time>2018-07-28T02:35:46Z</time>
      </trkpt>
      <trkpt lat="36.68594" lon="-5.030496">
        <ele>1627.744</ele>
        <time>2018-07-28T02:35:47Z</time>
      </trkpt>
      <trkpt lat="36.68591" lon="-5.030493">
        <ele>1627.751</ele>
        <time>2018-07-28T02:35:50Z</time>
      </trkpt>
      <trkpt lat="36.68591" lon="-5.03049">
        <ele>1627.85</ele>
        <time>2018-07-28T02:35:51Z</time>
      </trkpt>
      <trkpt lat="36.68587" lon="-5.030477">
        <ele>1628.296</ele>
        <time>2018-07-28T02:35:54Z</time>
      </trkpt>
      <trkpt lat="36.68584" lon="-5.030467">
        <ele>1628.62</ele>
        <time>2018-07-28T02:35:57Z</time>
      </trkpt>
      <trkpt lat="36.68582" lon="-5.030461">
        <ele>1628.738</ele>
        <time>2018-07-28T02:35:59Z</time>
      </trkpt>
      <trkpt lat="36.68577" lon="-5.030456">
        <ele>1628.512</ele>
        <time>2018-07-28T02:36:03Z</time>
      </trkpt>
      <trkpt lat="36.68571" lon="-5.030445">
        <ele>1628.535</ele>
        <time>2018-07-28T02:36:07Z</time>
      </trkpt>
      <trkpt lat="36.68569" lon="-5.030438">
        <ele>1628.655</ele>
        <time>2018-07-28T02:36:09Z</time>
      </trkpt>
      <trkpt lat="36.68567" lon="-5.030434">
        <ele>1628.581</ele>
        <time>2018-07-28T02:36:11Z</time>
      </trkpt>
      <trkpt lat="36.6856" lon="-5.03043">
        <ele>1628.13</ele>
        <time>2018-07-28T02:36:17Z</time>
      </trkpt>
      <trkpt lat="36.68558" lon="-5.030425">
        <ele>1628.201</ele>
        <time>2018-07-28T02:36:19Z</time>
      </trkpt>
      <trkpt lat="36.68556" lon="-5.030421">
        <ele>1628.212</ele>
        <time>2018-07-28T02:36:21Z</time>
      </trkpt>
      <trkpt lat="36.6855" lon="-5.0304">
        <ele>1628.556</ele>
        <time>2018-07-28T02:36:27Z</time>
      </trkpt>
      <trkpt lat="36.68548" lon="-5.030393">
        <ele>1628.662</ele>
        <time>2018-07-28T02:36:29Z</time>
      </trkpt>
      <trkpt lat="36.68547" lon="-5.03039">
        <ele>1628.696</ele>
        <time>2018-07-28T02:36:30Z</time>
      </trkpt>
      <trkpt lat="36.6854" lon="-5.030363">
        <ele>1629.125</ele>
        <time>2018-07-28T02:36:37Z</time>
      </trkpt>
      <trkpt lat="36.68539" lon="-5.030362">
        <ele>1629.049</ele>
        <time>2018-07-28T02:36:38Z</time>
      </trkpt>
      <trkpt lat="36.68531" lon="-5.030351">
        <ele>1628.69</ele>
        <time>2018-07-28T02:36:46Z</time>
      </trkpt>
      <trkpt lat="36.6853" lon="-5.030347">
        <ele>1628.75</ele>
        <time>2018-07-28T02:36:47Z</time>
      </trkpt>
      <trkpt lat="36.68521" lon="-5.030339">
        <ele>1628.208</ele>
        <time>2018-07-28T02:36:55Z</time>
      </trkpt>
      <trkpt lat="36.68519" lon="-5.030347">
        <ele>1627.679</ele>
        <time>2018-07-28T02:36:57Z</time>
      </trkpt>
      <trkpt lat="36.68517" lon="-5.030355">
        <ele>1627.153</ele>
        <time>2018-07-28T02:37:00Z</time>
      </trkpt>
      <trkpt lat="36.68517" lon="-5.030348">
        <ele>1627.363</ele>
        <time>2018-07-28T02:37:02Z</time>
      </trkpt>
      <trkpt lat="36.68513" lon="-5.030324">
        <ele>1627.998</ele>
        <time>2018-07-28T02:37:06Z</time>
      </trkpt>
      <trkpt lat="36.68512" lon="-5.030321">
        <ele>1627.99</ele>
        <time>2018-07-28T02:37:07Z</time>
      </trkpt>
      <trkpt lat="36.68509" lon="-5.030293">
        <ele>1628.69</ele>
        <time>2018-07-28T02:37:11Z</time>
      </trkpt>
      <trkpt lat="36.68505" lon="-5.030275">
        <ele>1629.06</ele>
        <time>2018-07-28T02:37:14Z</time>
      </trkpt>
      <trkpt lat="36.68502" lon="-5.030258">
        <ele>1629.363</ele>
        <time>2018-07-28T02:37:17Z</time>
      </trkpt>
      <trkpt lat="36.68497" lon="-5.030228">
        <ele>1629.194</ele>
        <time>2018-07-28T02:37:22Z</time>
      </trkpt>
      <trkpt lat="36.68496" lon="-5.030223">
        <ele>1629.149</ele>
        <time>2018-07-28T02:37:23Z</time>
      </trkpt>
      <trkpt lat="36.68493" lon="-5.030205">
        <ele>1628.849</ele>
        <time>2018-07-28T02:37:26Z</time>
      </trkpt>
      <trkpt lat="36.68492" lon="-5.030195">
        <ele>1628.833</ele>
        <time>2018-07-28T02:37:27Z</time>
      </trkpt>
      <trkpt lat="36.6849" lon="-5.030173">
        <ele>1629.159</ele>
        <time>2018-07-28T02:37:29Z</time>
      </trkpt>
      <trkpt lat="36.68488" lon="-5.030143">
        <ele>1629.495</ele>
        <time>2018-07-28T02:37:32Z</time>
      </trkpt>
      <trkpt lat="36.68487" lon="-5.030134">
        <ele>1629.549</ele>
        <time>2018-07-28T02:37:33Z</time>
      </trkpt>
      <trkpt lat="36.68484" lon="-5.03011">
        <ele>1629.389</ele>
        <time>2018-07-28T02:37:36Z</time>
      </trkpt>
      <trkpt lat="36.68483" lon="-5.030098">
        <ele>1629.551</ele>
        <time>2018-07-28T02:37:37Z</time>
      </trkpt>
      <trkpt lat="36.68479" lon="-5.030031">
        <ele>1630.42</ele>
        <time>2018-07-28T02:37:44Z</time>
      </trkpt>
      <trkpt lat="36.68478" lon="-5.030007">
        <ele>1630.848</ele>
        <time>2018-07-28T02:37:47Z</time>
      </trkpt>
      <trkpt lat="36.68478" lon="-5.029991">
        <ele>1631.09</ele>
        <time>2018-07-28T02:37:49Z</time>
      </trkpt>
      <trkpt lat="36.68477" lon="-5.029932">
        <ele>1631.769</ele>
        <time>2018-07-28T02:37:54Z</time>
      </trkpt>
      <trkpt lat="36.68476" lon="-5.029901">
        <ele>1632.131</ele>
        <time>2018-07-28T02:37:57Z</time>
      </trkpt>
      <trkpt lat="36.68476" lon="-5.029887">
        <ele>1632.077</ele>
        <time>2018-07-28T02:37:59Z</time>
      </trkpt>
      <trkpt lat="36.68476" lon="-5.029856">
        <ele>1632.576</ele>
        <time>2018-07-28T02:38:03Z</time>
      </trkpt>
      <trkpt lat="36.68475" lon="-5.029816">
        <ele>1632.802</ele>
        <time>2018-07-28T02:38:07Z</time>
      </trkpt>
      <trkpt lat="36.68474" lon="-5.029755">
        <ele>1633.643</ele>
        <time>2018-07-28T02:38:12Z</time>
      </trkpt>
      <trkpt lat="36.68473" lon="-5.029697">
        <ele>1634.296</ele>
        <time>2018-07-28T02:38:17Z</time>
      </trkpt>
      <trkpt lat="36.68473" lon="-5.029676">
        <ele>1634.491</ele>
        <time>2018-07-28T02:38:19Z</time>
      </trkpt>
      <trkpt lat="36.68473" lon="-5.029665">
        <ele>1634.808</ele>
        <time>2018-07-28T02:38:20Z</time>
      </trkpt>
      <trkpt lat="36.68473" lon="-5.029608">
        <ele>1635.726</ele>
        <time>2018-07-28T02:38:25Z</time>
      </trkpt>
      <trkpt lat="36.68473" lon="-5.029582">
        <ele>1636.139</ele>
        <time>2018-07-28T02:38:27Z</time>
      </trkpt>
      <trkpt lat="36.68473" lon="-5.029571">
        <ele>1636.314</ele>
        <time>2018-07-28T02:38:28Z</time>
      </trkpt>
      <trkpt lat="36.68473" lon="-5.029535">
        <ele>1636.753</ele>
        <time>2018-07-28T02:38:31Z</time>
      </trkpt>
      <trkpt lat="36.68473" lon="-5.029522">
        <ele>1636.959</ele>
        <time>2018-07-28T02:38:32Z</time>
      </trkpt>
      <trkpt lat="36.68473" lon="-5.029498">
        <ele>1637.341</ele>
        <time>2018-07-28T02:38:34Z</time>
      </trkpt>
      <trkpt lat="36.68473" lon="-5.029463">
        <ele>1638.05</ele>
        <time>2018-07-28T02:38:37Z</time>
      </trkpt>
      <trkpt lat="36.68475" lon="-5.029406">
        <ele>1639.392</ele>
        <time>2018-07-28T02:38:42Z</time>
      </trkpt>
      <trkpt lat="36.68475" lon="-5.029394">
        <ele>1639.583</ele>
        <time>2018-07-28T02:38:43Z</time>
      </trkpt>
      <trkpt lat="36.68476" lon="-5.029358">
        <ele>1640.599</ele>
        <time>2018-07-28T02:38:46Z</time>
      </trkpt>
      <trkpt lat="36.68476" lon="-5.029346">
        <ele>1640.791</ele>
        <time>2018-07-28T02:38:47Z</time>
      </trkpt>
      <trkpt lat="36.68476" lon="-5.029302">
        <ele>1641.787</ele>
        <time>2018-07-28T02:38:51Z</time>
      </trkpt>
      <trkpt lat="36.68477" lon="-5.029266">
        <ele>1642.662</ele>
        <time>2018-07-28T02:38:54Z</time>
      </trkpt>
      <trkpt lat="36.68477" lon="-5.029233">
        <ele>1643.193</ele>
        <time>2018-07-28T02:38:57Z</time>
      </trkpt>
      <trkpt lat="36.68477" lon="-5.0292">
        <ele>1643.578</ele>
        <time>2018-07-28T02:39:00Z</time>
      </trkpt>
      <trkpt lat="36.68477" lon="-5.029189">
        <ele>1643.901</ele>
        <time>2018-07-28T02:39:01Z</time>
      </trkpt>
      <trkpt lat="36.68478" lon="-5.029151">
        <ele>1644.714</ele>
        <time>2018-07-28T02:39:04Z</time>
      </trkpt>
      <trkpt lat="36.68479" lon="-5.029125">
        <ele>1645.262</ele>
        <time>2018-07-28T02:39:06Z</time>
      </trkpt>
      <trkpt lat="36.68479" lon="-5.029111">
        <ele>1645.404</ele>
        <time>2018-07-28T02:39:07Z</time>
      </trkpt>
      <trkpt lat="36.68479" lon="-5.029033">
        <ele>1646.318</ele>
        <time>2018-07-28T02:39:14Z</time>
      </trkpt>
      <trkpt lat="36.68479" lon="-5.029022">
        <ele>1646.426</ele>
        <time>2018-07-28T02:39:15Z</time>
      </trkpt>
      <trkpt lat="36.6848" lon="-5.028997">
        <ele>1646.953</ele>
        <time>2018-07-28T02:39:17Z</time>
      </trkpt>
      <trkpt lat="36.6848" lon="-5.028937">
        <ele>1647.677</ele>
        <time>2018-07-28T02:39:23Z</time>
      </trkpt>
      <trkpt lat="36.6848" lon="-5.02893">
        <ele>1647.607</ele>
        <time>2018-07-28T02:39:24Z</time>
      </trkpt>
      <trkpt lat="36.6848" lon="-5.028925">
        <ele>1647.659</ele>
        <time>2018-07-28T02:39:27Z</time>
      </trkpt>
      <trkpt lat="36.6848" lon="-5.028924">
        <ele>1647.533</ele>
        <time>2018-07-28T02:39:31Z</time>
      </trkpt>
      <trkpt lat="36.6848" lon="-5.028919">
        <ele>1647.715</ele>
        <time>2018-07-28T02:39:34Z</time>
      </trkpt>
      <trkpt lat="36.68481" lon="-5.0289">
        <ele>1648.168</ele>
        <time>2018-07-28T02:39:37Z</time>
      </trkpt>
      <trkpt lat="36.6848" lon="-5.028865">
        <ele>1648.379</ele>
        <time>2018-07-28T02:39:41Z</time>
      </trkpt>
      <trkpt lat="36.68481" lon="-5.028844">
        <ele>1648.714</ele>
        <time>2018-07-28T02:39:43Z</time>
      </trkpt>
      <trkpt lat="36.68481" lon="-5.028795">
        <ele>1649.319</ele>
        <time>2018-07-28T02:39:47Z</time>
      </trkpt>
      <trkpt lat="36.6848" lon="-5.028728">
        <ele>1649.589</ele>
        <time>2018-07-28T02:39:53Z</time>
      </trkpt>
      <trkpt lat="36.6848" lon="-5.028716">
        <ele>1649.582</ele>
        <time>2018-07-28T02:39:54Z</time>
      </trkpt>
      <trkpt lat="36.68479" lon="-5.028683">
        <ele>1649.783</ele>
        <time>2018-07-28T02:39:57Z</time>
      </trkpt>
      <trkpt lat="36.68479" lon="-5.028624">
        <ele>1650.249</ele>
        <time>2018-07-28T02:40:02Z</time>
      </trkpt>
      <trkpt lat="36.68479" lon="-5.0286">
        <ele>1650.486</ele>
        <time>2018-07-28T02:40:04Z</time>
      </trkpt>
      <trkpt lat="36.68479" lon="-5.02856">
        <ele>1650.885</ele>
        <time>2018-07-28T02:40:07Z</time>
      </trkpt>
      <trkpt lat="36.68479" lon="-5.028546">
        <ele>1651.143</ele>
        <time>2018-07-28T02:40:08Z</time>
      </trkpt>
      <trkpt lat="36.6848" lon="-5.028507">
        <ele>1651.639</ele>
        <time>2018-07-28T02:40:11Z</time>
      </trkpt>
      <trkpt lat="36.6848" lon="-5.028483">
        <ele>1651.991</ele>
        <time>2018-07-28T02:40:13Z</time>
      </trkpt>
      <trkpt lat="36.6848" lon="-5.028434">
        <ele>1652.583</ele>
        <time>2018-07-28T02:40:17Z</time>
      </trkpt>
      <trkpt lat="36.6848" lon="-5.028421">
        <ele>1652.709</ele>
        <time>2018-07-28T02:40:18Z</time>
      </trkpt>
      <trkpt lat="36.6848" lon="-5.028396">
        <ele>1652.951</ele>
        <time>2018-07-28T02:40:20Z</time>
      </trkpt>
      <trkpt lat="36.68481" lon="-5.028316">
        <ele>1654.036</ele>
        <time>2018-07-28T02:40:27Z</time>
      </trkpt>
      <trkpt lat="36.68482" lon="-5.028237">
        <ele>1654.957</ele>
        <time>2018-07-28T02:40:33Z</time>
      </trkpt>
      <trkpt lat="36.68482" lon="-5.028199">
        <ele>1655.296</ele>
        <time>2018-07-28T02:40:36Z</time>
      </trkpt>
      <trkpt lat="36.68482" lon="-5.028186">
        <ele>1655.316</ele>
        <time>2018-07-28T02:40:37Z</time>
      </trkpt>
      <trkpt lat="36.6848" lon="-5.028121">
        <ele>1655.416</ele>
        <time>2018-07-28T02:40:42Z</time>
      </trkpt>
      <trkpt lat="36.68479" lon="-5.028081">
        <ele>1655.595</ele>
        <time>2018-07-28T02:40:45Z</time>
      </trkpt>
      <trkpt lat="36.68479" lon="-5.028051">
        <ele>1655.78</ele>
        <time>2018-07-28T02:40:47Z</time>
      </trkpt>
      <trkpt lat="36.68478" lon="-5.027975">
        <ele>1656.213</ele>
        <time>2018-07-28T02:40:53Z</time>
      </trkpt>
      <trkpt lat="36.68477" lon="-5.027924">
        <ele>1656.606</ele>
        <time>2018-07-28T02:40:57Z</time>
      </trkpt>
      <trkpt lat="36.68478" lon="-5.0279">
        <ele>1656.921</ele>
        <time>2018-07-28T02:40:59Z</time>
      </trkpt>
      <trkpt lat="36.68478" lon="-5.027874">
        <ele>1657.257</ele>
        <time>2018-07-28T02:41:01Z</time>
      </trkpt>
      <trkpt lat="36.68479" lon="-5.027826">
        <ele>1657.968</ele>
        <time>2018-07-28T02:41:05Z</time>
      </trkpt>
      <trkpt lat="36.6848" lon="-5.027799">
        <ele>1658.47</ele>
        <time>2018-07-28T02:41:07Z</time>
      </trkpt>
      <trkpt lat="36.68481" lon="-5.027787">
        <ele>1658.664</ele>
        <time>2018-07-28T02:41:08Z</time>
      </trkpt>
      <trkpt lat="36.68484" lon="-5.027695">
        <ele>1660.152</ele>
        <time>2018-07-28T02:41:16Z</time>
      </trkpt>
      <trkpt lat="36.68484" lon="-5.027684">
        <ele>1660.249</ele>
        <time>2018-07-28T02:41:17Z</time>
      </trkpt>
      <trkpt lat="36.68484" lon="-5.027636">
        <ele>1660.831</ele>
        <time>2018-07-28T02:41:23Z</time>
      </trkpt>
      <trkpt lat="36.68484" lon="-5.027641">
        <ele>1660.711</ele>
        <time>2018-07-28T02:41:27Z</time>
      </trkpt>
      <trkpt lat="36.68483" lon="-5.027644">
        <ele>1660.524</ele>
        <time>2018-07-28T02:41:31Z</time>
      </trkpt>
      <trkpt lat="36.68483" lon="-5.027642">
        <ele>1660.545</ele>
        <time>2018-07-28T02:41:32Z</time>
      </trkpt>
      <trkpt lat="36.68483" lon="-5.027639">
        <ele>1660.413</ele>
        <time>2018-07-28T02:41:34Z</time>
      </trkpt>
      <trkpt lat="36.68482" lon="-5.027638">
        <ele>1660.265</ele>
        <time>2018-07-28T02:41:37Z</time>
      </trkpt>
      <trkpt lat="36.68481" lon="-5.027642">
        <ele>1660.152</ele>
        <time>2018-07-28T02:41:42Z</time>
      </trkpt>
      <trkpt lat="36.68481" lon="-5.027639">
        <ele>1660.099</ele>
        <time>2018-07-28T02:41:47Z</time>
      </trkpt>
      <trkpt lat="36.68481" lon="-5.027643">
        <ele>1660.139</ele>
        <time>2018-07-28T02:41:52Z</time>
      </trkpt>
      <trkpt lat="36.68481" lon="-5.027646">
        <ele>1660.113</ele>
        <time>2018-07-28T02:41:55Z</time>
      </trkpt>
      <trkpt lat="36.68481" lon="-5.027646">
        <ele>1660.113</ele>
        <time>2018-07-28T02:41:57Z</time>
      </trkpt>
      <trkpt lat="36.68481" lon="-5.027645">
        <ele>1660.121</ele>
        <time>2018-07-28T02:42:03Z</time>
      </trkpt>
      <trkpt lat="36.68481" lon="-5.027644">
        <ele>1660.13</ele>
        <time>2018-07-28T02:42:04Z</time>
      </trkpt>
      <trkpt lat="36.68481" lon="-5.027644">
        <ele>1660.13</ele>
        <time>2018-07-28T02:42:06Z</time>
      </trkpt>
      <trkpt lat="36.68481" lon="-5.027644">
        <ele>1660.13</ele>
        <time>2018-07-28T02:42:07Z</time>
      </trkpt>
      <trkpt lat="36.68481" lon="-5.027644">
        <ele>1660.13</ele>
        <time>2018-07-28T02:42:08Z</time>
      </trkpt>
      <trkpt lat="36.68481" lon="-5.027644">
        <ele>1660.13</ele>
        <time>2018-07-28T02:42:09Z</time>
      </trkpt>
      <trkpt lat="36.68481" lon="-5.027644">
        <ele>1660.13</ele>
        <time>2018-07-28T02:42:10Z</time>
      </trkpt>
      <trkpt lat="36.68481" lon="-5.027644">
        <ele>1660.13</ele>
        <time>2018-07-28T02:42:11Z</time>
      </trkpt>
      <trkpt lat="36.68481" lon="-5.027648">
        <ele>1660.095</ele>
        <time>2018-07-28T02:42:17Z</time>
      </trkpt>
      <trkpt lat="36.68482" lon="-5.02765">
        <ele>1660.157</ele>
        <time>2018-07-28T02:42:22Z</time>
      </trkpt>
      <trkpt lat="36.68482" lon="-5.027647">
        <ele>1660.183</ele>
        <time>2018-07-28T02:42:27Z</time>
      </trkpt>
      <trkpt lat="36.68482" lon="-5.027652">
        <ele>1660.219</ele>
        <time>2018-07-28T02:42:33Z</time>
      </trkpt>
      <trkpt lat="36.68482" lon="-5.027652">
        <ele>1660.219</ele>
        <time>2018-07-28T02:42:34Z</time>
      </trkpt>
      <trkpt lat="36.68482" lon="-5.027651">
        <ele>1660.228</ele>
        <time>2018-07-28T02:42:36Z</time>
      </trkpt>
      <trkpt lat="36.68482" lon="-5.027652">
        <ele>1660.219</ele>
        <time>2018-07-28T02:42:37Z</time>
      </trkpt>
      <trkpt lat="36.68482" lon="-5.027652">
        <ele>1660.219</ele>
        <time>2018-07-28T02:42:46Z</time>
      </trkpt>
      <trkpt lat="36.68482" lon="-5.027652">
        <ele>1660.219</ele>
        <time>2018-07-28T02:42:47Z</time>
      </trkpt>
      <trkpt lat="36.68482" lon="-5.02766">
        <ele>1660.146</ele>
        <time>2018-07-28T02:42:55Z</time>
      </trkpt>
      <trkpt lat="36.68483" lon="-5.027661">
        <ele>1660.217</ele>
        <time>2018-07-28T02:42:57Z</time>
      </trkpt>
      <trkpt lat="36.68483" lon="-5.027657">
        <ele>1660.251</ele>
        <time>2018-07-28T02:43:07Z</time>
      </trkpt>
      <trkpt lat="36.68483" lon="-5.027659">
        <ele>1660.313</ele>
        <time>2018-07-28T02:43:08Z</time>
      </trkpt>
      <trkpt lat="36.68483" lon="-5.027658">
        <ele>1660.242</ele>
        <time>2018-07-28T02:43:13Z</time>
      </trkpt>
      <trkpt lat="36.68483" lon="-5.027656">
        <ele>1660.26</ele>
        <time>2018-07-28T02:43:17Z</time>
      </trkpt>
      <trkpt lat="36.68483" lon="-5.027655">
        <ele>1660.347</ele>
        <time>2018-07-28T02:43:20Z</time>
      </trkpt>
      <trkpt lat="36.68483" lon="-5.027653">
        <ele>1660.364</ele>
        <time>2018-07-28T02:43:25Z</time>
      </trkpt>
      <trkpt lat="36.68483" lon="-5.02765">
        <ele>1660.394</ele>
        <time>2018-07-28T02:43:27Z</time>
      </trkpt>
      <trkpt lat="36.68483" lon="-5.027645">
        <ele>1660.515</ele>
        <time>2018-07-28T02:43:31Z</time>
      </trkpt>
      <trkpt lat="36.68486" lon="-5.02764">
        <ele>1661.034</ele>
        <time>2018-07-28T02:43:35Z</time>
      </trkpt>
      <trkpt lat="36.68487" lon="-5.027636">
        <ele>1661.381</ele>
        <time>2018-07-28T02:43:37Z</time>
      </trkpt>
      <trkpt lat="36.68487" lon="-5.027635">
        <ele>1661.389</ele>
        <time>2018-07-28T02:43:38Z</time>
      </trkpt>
      <trkpt lat="36.68487" lon="-5.027637">
        <ele>1661.372</ele>
        <time>2018-07-28T02:43:39Z</time>
      </trkpt>
      <trkpt lat="36.68488" lon="-5.027625">
        <ele>1661.552</ele>
        <time>2018-07-28T02:43:41Z</time>
      </trkpt>
      <trkpt lat="36.68488" lon="-5.027618">
        <ele>1661.612</ele>
        <time>2018-07-28T02:43:42Z</time>
      </trkpt>
      <trkpt lat="36.68488" lon="-5.027595">
        <ele>1661.96</ele>
        <time>2018-07-28T02:43:47Z</time>
      </trkpt>
      <trkpt lat="36.68488" lon="-5.027574">
        <ele>1662.135</ele>
        <time>2018-07-28T02:43:50Z</time>
      </trkpt>
      <trkpt lat="36.68489" lon="-5.027559">
        <ele>1662.414</ele>
        <time>2018-07-28T02:43:57Z</time>
      </trkpt>
      <trkpt lat="36.68489" lon="-5.027559">
        <ele>1662.414</ele>
        <time>2018-07-28T02:43:58Z</time>
      </trkpt>
      <trkpt lat="36.68491" lon="-5.027531">
        <ele>1662.942</ele>
        <time>2018-07-28T02:44:05Z</time>
      </trkpt>
      <trkpt lat="36.68492" lon="-5.02751">
        <ele>1663.333</ele>
        <time>2018-07-28T02:44:07Z</time>
      </trkpt>
      <trkpt lat="36.68494" lon="-5.027466">
        <ele>1663.746</ele>
        <time>2018-07-28T02:44:11Z</time>
      </trkpt>
      <trkpt lat="36.68497" lon="-5.027408">
        <ele>1664.129</ele>
        <time>2018-07-28T02:44:16Z</time>
      </trkpt>
      <trkpt lat="36.68497" lon="-5.027397">
        <ele>1664.162</ele>
        <time>2018-07-28T02:44:17Z</time>
      </trkpt>
      <trkpt lat="36.68499" lon="-5.027374">
        <ele>1664.292</ele>
        <time>2018-07-28T02:44:19Z</time>
      </trkpt>
      <trkpt lat="36.68502" lon="-5.027296">
        <ele>1664.685</ele>
        <time>2018-07-28T02:44:26Z</time>
      </trkpt>
      <trkpt lat="36.68502" lon="-5.027285">
        <ele>1664.839</ele>
        <time>2018-07-28T02:44:27Z</time>
      </trkpt>
      <trkpt lat="36.68503" lon="-5.027275">
        <ele>1664.997</ele>
        <time>2018-07-28T02:44:28Z</time>
      </trkpt>
      <trkpt lat="36.68506" lon="-5.027232">
        <ele>1665.63</ele>
        <time>2018-07-28T02:44:32Z</time>
      </trkpt>
      <trkpt lat="36.68509" lon="-5.027204">
        <ele>1666.127</ele>
        <time>2018-07-28T02:44:35Z</time>
      </trkpt>
      <trkpt lat="36.6851" lon="-5.027185">
        <ele>1666.462</ele>
        <time>2018-07-28T02:44:37Z</time>
      </trkpt>
      <trkpt lat="36.68511" lon="-5.027175">
        <ele>1666.629</ele>
        <time>2018-07-28T02:44:38Z</time>
      </trkpt>
      <trkpt lat="36.68515" lon="-5.027124">
        <ele>1667.675</ele>
        <time>2018-07-28T02:44:43Z</time>
      </trkpt>
      <trkpt lat="36.68518" lon="-5.027098">
        <ele>1668.408</ele>
        <time>2018-07-28T02:44:46Z</time>
      </trkpt>
      <trkpt lat="36.68519" lon="-5.027087">
        <ele>1668.581</ele>
        <time>2018-07-28T02:44:47Z</time>
      </trkpt>
      <trkpt lat="36.68522" lon="-5.02705">
        <ele>1669.3</ele>
        <time>2018-07-28T02:44:51Z</time>
      </trkpt>
      <trkpt lat="36.68523" lon="-5.02704">
        <ele>1669.48</ele>
        <time>2018-07-28T02:44:52Z</time>
      </trkpt>
      <trkpt lat="36.68527" lon="-5.026988">
        <ele>1670.39</ele>
        <time>2018-07-28T02:44:57Z</time>
      </trkpt>
      <trkpt lat="36.68528" lon="-5.026982">
        <ele>1670.583</ele>
        <time>2018-07-28T02:44:58Z</time>
      </trkpt>
      <trkpt lat="36.6853" lon="-5.026954">
        <ele>1671.149</ele>
        <time>2018-07-28T02:45:01Z</time>
      </trkpt>
      <trkpt lat="36.68534" lon="-5.026902">
        <ele>1672.203</ele>
        <time>2018-07-28T02:45:06Z</time>
      </trkpt>
      <trkpt lat="36.68535" lon="-5.02689">
        <ele>1672.392</ele>
        <time>2018-07-28T02:45:07Z</time>
      </trkpt>
      <trkpt lat="36.68539" lon="-5.026835">
        <ele>1673.367</ele>
        <time>2018-07-28T02:45:12Z</time>
      </trkpt>
      <trkpt lat="36.68541" lon="-5.026814">
        <ele>1673.871</ele>
        <time>2018-07-28T02:45:14Z</time>
      </trkpt>
      <trkpt lat="36.68541" lon="-5.026805">
        <ele>1674.073</ele>
        <time>2018-07-28T02:45:15Z</time>
      </trkpt>
      <trkpt lat="36.68543" lon="-5.026792">
        <ele>1674.593</ele>
        <time>2018-07-28T02:45:17Z</time>
      </trkpt>
      <trkpt lat="36.68544" lon="-5.026784">
        <ele>1674.906</ele>
        <time>2018-07-28T02:45:18Z</time>
      </trkpt>
      <trkpt lat="36.68547" lon="-5.026743">
        <ele>1675.729</ele>
        <time>2018-07-28T02:45:22Z</time>
      </trkpt>
      <trkpt lat="36.68549" lon="-5.02672">
        <ele>1676.144</ele>
        <time>2018-07-28T02:45:25Z</time>
      </trkpt>
      <trkpt lat="36.68551" lon="-5.026706">
        <ele>1676.678</ele>
        <time>2018-07-28T02:45:27Z</time>
      </trkpt>
      <trkpt lat="36.68552" lon="-5.026699">
        <ele>1676.891</ele>
        <time>2018-07-28T02:45:28Z</time>
      </trkpt>
      <trkpt lat="36.68553" lon="-5.02669">
        <ele>1677.214</ele>
        <time>2018-07-28T02:45:29Z</time>
      </trkpt>
      <trkpt lat="36.68553" lon="-5.026682">
        <ele>1677.319</ele>
        <time>2018-07-28T02:45:30Z</time>
      </trkpt>
      <trkpt lat="36.68555" lon="-5.026666">
        <ele>1677.746</ele>
        <time>2018-07-28T02:45:32Z</time>
      </trkpt>
      <trkpt lat="36.68555" lon="-5.02666">
        <ele>1677.911</ele>
        <time>2018-07-28T02:45:33Z</time>
      </trkpt>
      <trkpt lat="36.68557" lon="-5.026637">
        <ele>1678.259</ele>
        <time>2018-07-28T02:45:36Z</time>
      </trkpt>
      <trkpt lat="36.68558" lon="-5.02663">
        <ele>1678.417</ele>
        <time>2018-07-28T02:45:37Z</time>
      </trkpt>
      <trkpt lat="36.68559" lon="-5.026623">
        <ele>1678.574</ele>
        <time>2018-07-28T02:45:38Z</time>
      </trkpt>
      <trkpt lat="36.6856" lon="-5.026617">
        <ele>1678.745</ele>
        <time>2018-07-28T02:45:39Z</time>
      </trkpt>
      <trkpt lat="36.68562" lon="-5.026603">
        <ele>1679.175</ele>
        <time>2018-07-28T02:45:41Z</time>
      </trkpt>
      <trkpt lat="36.68563" lon="-5.026585">
        <ele>1679.348</ele>
        <time>2018-07-28T02:45:43Z</time>
      </trkpt>
      <trkpt lat="36.68564" lon="-5.02657">
        <ele>1679.657</ele>
        <time>2018-07-28T02:45:45Z</time>
      </trkpt>
      <trkpt lat="36.68565" lon="-5.026562">
        <ele>1679.922</ele>
        <time>2018-07-28T02:45:46Z</time>
      </trkpt>
      <trkpt lat="36.68566" lon="-5.026552">
        <ele>1680.056</ele>
        <time>2018-07-28T02:45:47Z</time>
      </trkpt>
      <trkpt lat="36.68568" lon="-5.026522">
        <ele>1680.46</ele>
        <time>2018-07-28T02:45:50Z</time>
      </trkpt>
      <trkpt lat="36.68571" lon="-5.026494">
        <ele>1680.883</ele>
        <time>2018-07-28T02:45:53Z</time>
      </trkpt>
      <trkpt lat="36.68574" lon="-5.026465">
        <ele>1681.521</ele>
        <time>2018-07-28T02:45:56Z</time>
      </trkpt>
      <trkpt lat="36.68575" lon="-5.026457">
        <ele>1681.674</ele>
        <time>2018-07-28T02:45:57Z</time>
      </trkpt>
      <trkpt lat="36.68577" lon="-5.026428">
        <ele>1682.097</ele>
        <time>2018-07-28T02:46:00Z</time>
      </trkpt>
      <trkpt lat="36.68578" lon="-5.026412">
        <ele>1682.404</ele>
        <time>2018-07-28T02:46:02Z</time>
      </trkpt>
      <trkpt lat="36.6858" lon="-5.026395">
        <ele>1682.815</ele>
        <time>2018-07-28T02:46:04Z</time>
      </trkpt>
      <trkpt lat="36.68583" lon="-5.026367">
        <ele>1683.362</ele>
        <time>2018-07-28T02:46:07Z</time>
      </trkpt>
      <trkpt lat="36.68585" lon="-5.026338">
        <ele>1683.757</ele>
        <time>2018-07-28T02:46:10Z</time>
      </trkpt>
      <trkpt lat="36.68589" lon="-5.026293">
        <ele>1684.429</ele>
        <time>2018-07-28T02:46:15Z</time>
      </trkpt>
      <trkpt lat="36.68591" lon="-5.026274">
        <ele>1684.694</ele>
        <time>2018-07-28T02:46:17Z</time>
      </trkpt>
      <trkpt lat="36.68594" lon="-5.026235">
        <ele>1685.313</ele>
        <time>2018-07-28T02:46:21Z</time>
      </trkpt>
      <trkpt lat="36.68596" lon="-5.026201">
        <ele>1685.656</ele>
        <time>2018-07-28T02:46:24Z</time>
      </trkpt>
      <trkpt lat="36.68599" lon="-5.026165">
        <ele>1685.988</ele>
        <time>2018-07-28T02:46:27Z</time>
      </trkpt>
      <trkpt lat="36.68603" lon="-5.026132">
        <ele>1686.869</ele>
        <time>2018-07-28T02:46:32Z</time>
      </trkpt>
      <trkpt lat="36.68604" lon="-5.026123">
        <ele>1687.109</ele>
        <time>2018-07-28T02:46:33Z</time>
      </trkpt>
      <trkpt lat="36.68607" lon="-5.026081">
        <ele>1687.704</ele>
        <time>2018-07-28T02:46:37Z</time>
      </trkpt>
      <trkpt lat="36.68608" lon="-5.026072">
        <ele>1687.839</ele>
        <time>2018-07-28T02:46:38Z</time>
      </trkpt>
      <trkpt lat="36.68611" lon="-5.026041">
        <ele>1688.421</ele>
        <time>2018-07-28T02:46:41Z</time>
      </trkpt>
      <trkpt lat="36.68612" lon="-5.02603">
        <ele>1688.539</ele>
        <time>2018-07-28T02:46:42Z</time>
      </trkpt>
      <trkpt lat="36.68613" lon="-5.02602">
        <ele>1688.666</ele>
        <time>2018-07-28T02:46:43Z</time>
      </trkpt>
      <trkpt lat="36.68615" lon="-5.026006">
        <ele>1689.076</ele>
        <time>2018-07-28T02:46:45Z</time>
      </trkpt>
      <trkpt lat="36.68616" lon="-5.025994">
        <ele>1689.498</ele>
        <time>2018-07-28T02:46:47Z</time>
      </trkpt>
      <trkpt lat="36.68617" lon="-5.025986">
        <ele>1689.645</ele>
        <time>2018-07-28T02:46:48Z</time>
      </trkpt>
      <trkpt lat="36.68618" lon="-5.025977">
        <ele>1689.884</ele>
        <time>2018-07-28T02:46:49Z</time>
      </trkpt>
      <trkpt lat="36.68619" lon="-5.025968">
        <ele>1690.019</ele>
        <time>2018-07-28T02:46:50Z</time>
      </trkpt>
      <trkpt lat="36.68622" lon="-5.025946">
        <ele>1690.677</ele>
        <time>2018-07-28T02:46:53Z</time>
      </trkpt>
      <trkpt lat="36.68625" lon="-5.025926">
        <ele>1691.351</ele>
        <time>2018-07-28T02:46:56Z</time>
      </trkpt>
      <trkpt lat="36.68626" lon="-5.025918">
        <ele>1691.493</ele>
        <time>2018-07-28T02:46:57Z</time>
      </trkpt>
      <trkpt lat="36.68628" lon="-5.0259">
        <ele>1691.868</ele>
        <time>2018-07-28T02:46:59Z</time>
      </trkpt>
      <trkpt lat="36.68635" lon="-5.025844">
        <ele>1693.294</ele>
        <time>2018-07-28T02:47:06Z</time>
      </trkpt>
      <trkpt lat="36.68636" lon="-5.025833">
        <ele>1693.52</ele>
        <time>2018-07-28T02:47:07Z</time>
      </trkpt>
      <trkpt lat="36.68637" lon="-5.025823">
        <ele>1693.856</ele>
        <time>2018-07-28T02:47:08Z</time>
      </trkpt>
      <trkpt lat="36.68638" lon="-5.025815">
        <ele>1694.083</ele>
        <time>2018-07-28T02:47:09Z</time>
      </trkpt>
      <trkpt lat="36.6864" lon="-5.025796">
        <ele>1694.646</ele>
        <time>2018-07-28T02:47:11Z</time>
      </trkpt>
      <trkpt lat="36.68642" lon="-5.025772">
        <ele>1695.321</ele>
        <time>2018-07-28T02:47:14Z</time>
      </trkpt>
      <trkpt lat="36.68644" lon="-5.025753">
        <ele>1695.984</ele>
        <time>2018-07-28T02:47:16Z</time>
      </trkpt>
      <trkpt lat="36.68645" lon="-5.025746">
        <ele>1696.206</ele>
        <time>2018-07-28T02:47:17Z</time>
      </trkpt>
      <trkpt lat="36.68647" lon="-5.025729">
        <ele>1696.653</ele>
        <time>2018-07-28T02:47:19Z</time>
      </trkpt>
      <trkpt lat="36.6865" lon="-5.025712">
        <ele>1697.515</ele>
        <time>2018-07-28T02:47:22Z</time>
      </trkpt>
      <trkpt lat="36.68655" lon="-5.025677">
        <ele>1698.92</ele>
        <time>2018-07-28T02:47:27Z</time>
      </trkpt>
      <trkpt lat="36.68658" lon="-5.025652">
        <ele>1699.786</ele>
        <time>2018-07-28T02:47:30Z</time>
      </trkpt>
      <trkpt lat="36.6866" lon="-5.025622">
        <ele>1700.447</ele>
        <time>2018-07-28T02:47:33Z</time>
      </trkpt>
      <trkpt lat="36.68663" lon="-5.025581">
        <ele>1701.427</ele>
        <time>2018-07-28T02:47:37Z</time>
      </trkpt>
      <trkpt lat="36.68664" lon="-5.025572">
        <ele>1701.643</ele>
        <time>2018-07-28T02:47:38Z</time>
      </trkpt>
      <trkpt lat="36.68665" lon="-5.025563">
        <ele>1701.859</ele>
        <time>2018-07-28T02:47:39Z</time>
      </trkpt>
      <trkpt lat="36.68669" lon="-5.025501">
        <ele>1702.73</ele>
        <time>2018-07-28T02:47:45Z</time>
      </trkpt>
      <trkpt lat="36.68671" lon="-5.025481">
        <ele>1702.967</ele>
        <time>2018-07-28T02:47:47Z</time>
      </trkpt>
      <trkpt lat="36.68672" lon="-5.025459">
        <ele>1703.217</ele>
        <time>2018-07-28T02:47:50Z</time>
      </trkpt>
      <trkpt lat="36.68672" lon="-5.025458">
        <ele>1703.218</ele>
        <time>2018-07-28T02:47:53Z</time>
      </trkpt>
      <trkpt lat="36.68672" lon="-5.025457">
        <ele>1703.22</ele>
        <time>2018-07-28T02:47:57Z</time>
      </trkpt>
      <trkpt lat="36.68672" lon="-5.025456">
        <ele>1703.222</ele>
        <time>2018-07-28T02:48:00Z</time>
      </trkpt>
      <trkpt lat="36.68672" lon="-5.025456">
        <ele>1703.222</ele>
        <time>2018-07-28T02:48:02Z</time>
      </trkpt>
      <trkpt lat="36.68672" lon="-5.025456">
        <ele>1703.222</ele>
        <time>2018-07-28T02:48:03Z</time>
      </trkpt>
      <trkpt lat="36.68672" lon="-5.025452">
        <ele>1703.229</ele>
        <time>2018-07-28T02:48:06Z</time>
      </trkpt>
      <trkpt lat="36.68672" lon="-5.025452">
        <ele>1703.229</ele>
        <time>2018-07-28T02:48:07Z</time>
      </trkpt>
      <trkpt lat="36.68672" lon="-5.025453">
        <ele>1703.227</ele>
        <time>2018-07-28T02:48:09Z</time>
      </trkpt>
      <trkpt lat="36.68672" lon="-5.025455">
        <ele>1703.224</ele>
        <time>2018-07-28T02:48:15Z</time>
      </trkpt>
      <trkpt lat="36.68672" lon="-5.025456">
        <ele>1703.169</ele>
        <time>2018-07-28T02:48:17Z</time>
      </trkpt>
      <trkpt lat="36.68673" lon="-5.02544">
        <ele>1703.359</ele>
        <time>2018-07-28T02:48:23Z</time>
      </trkpt>
      <trkpt lat="36.68674" lon="-5.025403">
        <ele>1703.652</ele>
        <time>2018-07-28T02:48:27Z</time>
      </trkpt>
      <trkpt lat="36.68676" lon="-5.025344">
        <ele>1704.067</ele>
        <time>2018-07-28T02:48:31Z</time>
      </trkpt>
      <trkpt lat="36.68677" lon="-5.025331">
        <ele>1704.156</ele>
        <time>2018-07-28T02:48:32Z</time>
      </trkpt>
      <trkpt lat="36.68677" lon="-5.025318">
        <ele>1704.245</ele>
        <time>2018-07-28T02:48:33Z</time>
      </trkpt>
      <trkpt lat="36.68679" lon="-5.025293">
        <ele>1704.547</ele>
        <time>2018-07-28T02:48:35Z</time>
      </trkpt>
      <trkpt lat="36.68679" lon="-5.025269">
        <ele>1704.732</ele>
        <time>2018-07-28T02:48:37Z</time>
      </trkpt>
      <trkpt lat="36.6868" lon="-5.025241">
        <ele>1704.932</ele>
        <time>2018-07-28T02:48:39Z</time>
      </trkpt>
      <trkpt lat="36.6868" lon="-5.025193">
        <ele>1705.064</ele>
        <time>2018-07-28T02:48:43Z</time>
      </trkpt>
      <trkpt lat="36.6868" lon="-5.025167">
        <ele>1705.136</ele>
        <time>2018-07-28T02:48:45Z</time>
      </trkpt>
      <trkpt lat="36.68681" lon="-5.025143">
        <ele>1705.336</ele>
        <time>2018-07-28T02:48:47Z</time>
      </trkpt>
      <trkpt lat="36.68681" lon="-5.025132">
        <ele>1705.367</ele>
        <time>2018-07-28T02:48:48Z</time>
      </trkpt>
      <trkpt lat="36.68681" lon="-5.025045">
        <ele>1705.687</ele>
        <time>2018-07-28T02:48:55Z</time>
      </trkpt>
      <trkpt lat="36.68681" lon="-5.025033">
        <ele>1705.721</ele>
        <time>2018-07-28T02:48:56Z</time>
      </trkpt>
      <trkpt lat="36.68681" lon="-5.025019">
        <ele>1705.761</ele>
        <time>2018-07-28T02:48:57Z</time>
      </trkpt>
      <trkpt lat="36.68679" lon="-5.024883">
        <ele>1707.431</ele>
        <time>2018-07-28T02:49:07Z</time>
      </trkpt>
      <trkpt lat="36.68679" lon="-5.024855">
        <ele>1707.761</ele>
        <time>2018-07-28T02:49:09Z</time>
      </trkpt>
      <trkpt lat="36.68676" lon="-5.024775">
        <ele>1708.659</ele>
        <time>2018-07-28T02:49:16Z</time>
      </trkpt>
      <trkpt lat="36.68675" lon="-5.024762">
        <ele>1708.75</ele>
        <time>2018-07-28T02:49:17Z</time>
      </trkpt>
      <trkpt lat="36.68674" lon="-5.024723">
        <ele>1709.168</ele>
        <time>2018-07-28T02:49:20Z</time>
      </trkpt>
      <trkpt lat="36.68669" lon="-5.024632">
        <ele>1710.019</ele>
        <time>2018-07-28T02:49:27Z</time>
      </trkpt>
      <trkpt lat="36.68666" lon="-5.024579">
        <ele>1710.439</ele>
        <time>2018-07-28T02:49:32Z</time>
      </trkpt>
      <trkpt lat="36.68665" lon="-5.024569">
        <ele>1710.442</ele>
        <time>2018-07-28T02:49:33Z</time>
      </trkpt>
      <trkpt lat="36.68663" lon="-5.024522">
        <ele>1710.765</ele>
        <time>2018-07-28T02:49:37Z</time>
      </trkpt>
      <trkpt lat="36.68657" lon="-5.024438">
        <ele>1710.899</ele>
        <time>2018-07-28T02:49:45Z</time>
      </trkpt>
      <trkpt lat="36.68655" lon="-5.024419">
        <ele>1710.904</ele>
        <time>2018-07-28T02:49:47Z</time>
      </trkpt>
      <trkpt lat="36.68651" lon="-5.02437">
        <ele>1710.774</ele>
        <time>2018-07-28T02:49:52Z</time>
      </trkpt>
      <trkpt lat="36.68649" lon="-5.024353">
        <ele>1710.753</ele>
        <time>2018-07-28T02:49:54Z</time>
      </trkpt>
      <trkpt lat="36.68647" lon="-5.024333">
        <ele>1710.703</ele>
        <time>2018-07-28T02:49:56Z</time>
      </trkpt>
      <trkpt lat="36.68647" lon="-5.024324">
        <ele>1710.703</ele>
        <time>2018-07-28T02:49:57Z</time>
      </trkpt>
      <trkpt lat="36.68646" lon="-5.024314">
        <ele>1710.722</ele>
        <time>2018-07-28T02:49:58Z</time>
      </trkpt>
      <trkpt lat="36.68644" lon="-5.024295">
        <ele>1710.745</ele>
        <time>2018-07-28T02:50:00Z</time>
      </trkpt>
      <trkpt lat="36.68642" lon="-5.024268">
        <ele>1710.663</ele>
        <time>2018-07-28T02:50:03Z</time>
      </trkpt>
      <trkpt lat="36.68638" lon="-5.024233">
        <ele>1710.585</ele>
        <time>2018-07-28T02:50:07Z</time>
      </trkpt>
      <trkpt lat="36.68635" lon="-5.024185">
        <ele>1710.757</ele>
        <time>2018-07-28T02:50:12Z</time>
      </trkpt>
      <trkpt lat="36.68633" lon="-5.024163">
        <ele>1710.856</ele>
        <time>2018-07-28T02:50:14Z</time>
      </trkpt>
      <trkpt lat="36.68632" lon="-5.024122">
        <ele>1711.238</ele>
        <time>2018-07-28T02:50:17Z</time>
      </trkpt>
      <trkpt lat="36.68632" lon="-5.024099">
        <ele>1711.734</ele>
        <time>2018-07-28T02:50:19Z</time>
      </trkpt>
      <trkpt lat="36.68633" lon="-5.024083">
        <ele>1712.183</ele>
        <time>2018-07-28T02:50:21Z</time>
      </trkpt>
      <trkpt lat="36.68636" lon="-5.02407">
        <ele>1713.026</ele>
        <time>2018-07-28T02:50:24Z</time>
      </trkpt>
      <trkpt lat="36.68637" lon="-5.024069">
        <ele>1713.39</ele>
        <time>2018-07-28T02:50:25Z</time>
      </trkpt>
      <trkpt lat="36.68638" lon="-5.024066">
        <ele>1713.703</ele>
        <time>2018-07-28T02:50:26Z</time>
      </trkpt>
      <trkpt lat="36.68639" lon="-5.024064">
        <ele>1713.998</ele>
        <time>2018-07-28T02:50:27Z</time>
      </trkpt>
      <trkpt lat="36.68641" lon="-5.024062">
        <ele>1714.295</ele>
        <time>2018-07-28T02:50:28Z</time>
      </trkpt>
      <trkpt lat="36.68645" lon="-5.024071">
        <ele>1715.252</ele>
        <time>2018-07-28T02:50:33Z</time>
      </trkpt>
      <trkpt lat="36.68647" lon="-5.024073">
        <ele>1715.475</ele>
        <time>2018-07-28T02:50:34Z</time>
      </trkpt>
      <trkpt lat="36.6865" lon="-5.024075">
        <ele>1716.302</ele>
        <time>2018-07-28T02:50:37Z</time>
      </trkpt>
      <trkpt lat="36.68652" lon="-5.024075">
        <ele>1716.648</ele>
        <time>2018-07-28T02:50:38Z</time>
      </trkpt>
      <trkpt lat="36.68657" lon="-5.024083">
        <ele>1717.519</ele>
        <time>2018-07-28T02:50:42Z</time>
      </trkpt>
      <trkpt lat="36.68661" lon="-5.024093">
        <ele>1718.342</ele>
        <time>2018-07-28T02:50:46Z</time>
      </trkpt>
      <trkpt lat="36.68662" lon="-5.024095">
        <ele>1718.473</ele>
        <time>2018-07-28T02:50:47Z</time>
      </trkpt>
      <trkpt lat="36.68666" lon="-5.024117">
        <ele>1719.027</ele>
        <time>2018-07-28T02:50:52Z</time>
      </trkpt>
      <trkpt lat="36.68672" lon="-5.024129">
        <ele>1719.423</ele>
        <time>2018-07-28T02:50:57Z</time>
      </trkpt>
      <trkpt lat="36.68676" lon="-5.024131">
        <ele>1719.924</ele>
        <time>2018-07-28T02:51:01Z</time>
      </trkpt>
      <trkpt lat="36.68677" lon="-5.024133">
        <ele>1719.964</ele>
        <time>2018-07-28T02:51:02Z</time>
      </trkpt>
      <trkpt lat="36.68683" lon="-5.024127">
        <ele>1720.817</ele>
        <time>2018-07-28T02:51:07Z</time>
      </trkpt>
      <trkpt lat="36.68687" lon="-5.024126">
        <ele>1721.243</ele>
        <time>2018-07-28T02:51:10Z</time>
      </trkpt>
      <trkpt lat="36.68687" lon="-5.024126">
        <ele>1721.333</ele>
        <time>2018-07-28T02:51:11Z</time>
      </trkpt>
      <trkpt lat="36.68694" lon="-5.024132">
        <ele>1721.938</ele>
        <time>2018-07-28T02:51:17Z</time>
      </trkpt>
      <trkpt lat="36.68697" lon="-5.024135">
        <ele>1722.277</ele>
        <time>2018-07-28T02:51:20Z</time>
      </trkpt>
      <trkpt lat="36.68703" lon="-5.024152">
        <ele>1722.713</ele>
        <time>2018-07-28T02:51:27Z</time>
      </trkpt>
      <trkpt lat="36.68705" lon="-5.024151">
        <ele>1722.868</ele>
        <time>2018-07-28T02:51:28Z</time>
      </trkpt>
      <trkpt lat="36.68708" lon="-5.024153">
        <ele>1723.231</ele>
        <time>2018-07-28T02:51:32Z</time>
      </trkpt>
      <trkpt lat="36.68711" lon="-5.024168">
        <ele>1723.312</ele>
        <time>2018-07-28T02:51:36Z</time>
      </trkpt>
      <trkpt lat="36.68712" lon="-5.024168">
        <ele>1723.403</ele>
        <time>2018-07-28T02:51:37Z</time>
      </trkpt>
      <trkpt lat="36.68715" lon="-5.024183">
        <ele>1723.519</ele>
        <time>2018-07-28T02:51:41Z</time>
      </trkpt>
      <trkpt lat="36.68715" lon="-5.024188">
        <ele>1723.539</ele>
        <time>2018-07-28T02:51:42Z</time>
      </trkpt>
      <trkpt lat="36.68719" lon="-5.024197">
        <ele>1723.835</ele>
        <time>2018-07-28T02:51:45Z</time>
      </trkpt>
      <trkpt lat="36.6872" lon="-5.0242">
        <ele>1723.937</ele>
        <time>2018-07-28T02:51:46Z</time>
      </trkpt>
      <trkpt lat="36.68721" lon="-5.024203">
        <ele>1724.04</ele>
        <time>2018-07-28T02:51:47Z</time>
      </trkpt>
      <trkpt lat="36.68722" lon="-5.024205">
        <ele>1724.149</ele>
        <time>2018-07-28T02:51:48Z</time>
      </trkpt>
      <trkpt lat="36.68724" lon="-5.024212">
        <ele>1724.25</ele>
        <time>2018-07-28T02:51:50Z</time>
      </trkpt>
      <trkpt lat="36.68726" lon="-5.02422">
        <ele>1724.382</ele>
        <time>2018-07-28T02:51:52Z</time>
      </trkpt>
      <trkpt lat="36.68728" lon="-5.024224">
        <ele>1724.619</ele>
        <time>2018-07-28T02:51:54Z</time>
      </trkpt>
      <trkpt lat="36.6873" lon="-5.024233">
        <ele>1724.791</ele>
        <time>2018-07-28T02:51:56Z</time>
      </trkpt>
      <trkpt lat="36.68731" lon="-5.024237">
        <ele>1724.834</ele>
        <time>2018-07-28T02:51:57Z</time>
      </trkpt>
      <trkpt lat="36.68732" lon="-5.024242">
        <ele>1724.919</ele>
        <time>2018-07-28T02:51:58Z</time>
      </trkpt>
      <trkpt lat="36.68736" lon="-5.024245">
        <ele>1725.367</ele>
        <time>2018-07-28T02:52:01Z</time>
      </trkpt>
      <trkpt lat="36.68737" lon="-5.024249">
        <ele>1725.461</ele>
        <time>2018-07-28T02:52:02Z</time>
      </trkpt>
      <trkpt lat="36.6874" lon="-5.024256">
        <ele>1725.766</ele>
        <time>2018-07-28T02:52:05Z</time>
      </trkpt>
      <trkpt lat="36.68742" lon="-5.024257">
        <ele>1726.047</ele>
        <time>2018-07-28T02:52:07Z</time>
      </trkpt>
      <trkpt lat="36.68745" lon="-5.024257">
        <ele>1726.437</ele>
        <time>2018-07-28T02:52:10Z</time>
      </trkpt>
      <trkpt lat="36.68753" lon="-5.024257">
        <ele>1726.681</ele>
        <time>2018-07-28T02:52:17Z</time>
      </trkpt>
      <trkpt lat="36.68754" lon="-5.024259">
        <ele>1726.514</ele>
        <time>2018-07-28T02:52:18Z</time>
      </trkpt>
      <trkpt lat="36.68761" lon="-5.024229">
        <ele>1725.891</ele>
        <time>2018-07-28T02:52:25Z</time>
      </trkpt>
      <trkpt lat="36.68763" lon="-5.024221">
        <ele>1725.844</ele>
        <time>2018-07-28T02:52:26Z</time>
      </trkpt>
      <trkpt lat="36.68763" lon="-5.024213">
        <ele>1725.846</ele>
        <time>2018-07-28T02:52:27Z</time>
      </trkpt>
      <trkpt lat="36.68769" lon="-5.024168">
        <ele>1725.74</ele>
        <time>2018-07-28T02:52:33Z</time>
      </trkpt>
      <trkpt lat="36.68772" lon="-5.024132">
        <ele>1726.019</ele>
        <time>2018-07-28T02:52:37Z</time>
      </trkpt>
      <trkpt lat="36.68772" lon="-5.024123">
        <ele>1726.128</ele>
        <time>2018-07-28T02:52:38Z</time>
      </trkpt>
      <trkpt lat="36.68775" lon="-5.024089">
        <ele>1726.379</ele>
        <time>2018-07-28T02:52:42Z</time>
      </trkpt>
      <trkpt lat="36.68779" lon="-5.024047">
        <ele>1726.723</ele>
        <time>2018-07-28T02:52:47Z</time>
      </trkpt>
      <trkpt lat="36.6878" lon="-5.024025">
        <ele>1726.934</ele>
        <time>2018-07-28T02:52:49Z</time>
      </trkpt>
      <trkpt lat="36.68782" lon="-5.023991">
        <ele>1727.269</ele>
        <time>2018-07-28T02:52:52Z</time>
      </trkpt>
      <trkpt lat="36.68785" lon="-5.023961">
        <ele>1727.535</ele>
        <time>2018-07-28T02:52:55Z</time>
      </trkpt>
      <trkpt lat="36.68787" lon="-5.023946">
        <ele>1727.535</ele>
        <time>2018-07-28T02:52:57Z</time>
      </trkpt>
      <trkpt lat="36.6879" lon="-5.023916">
        <ele>1727.755</ele>
        <time>2018-07-28T02:53:00Z</time>
      </trkpt>
      <trkpt lat="36.68791" lon="-5.023899">
        <ele>1727.873</ele>
        <time>2018-07-28T02:53:02Z</time>
      </trkpt>
      <trkpt lat="36.68792" lon="-5.023887">
        <ele>1727.996</ele>
        <time>2018-07-28T02:53:03Z</time>
      </trkpt>
      <trkpt lat="36.68792" lon="-5.023876">
        <ele>1728.147</ele>
        <time>2018-07-28T02:53:04Z</time>
      </trkpt>
      <trkpt lat="36.68794" lon="-5.023858">
        <ele>1728.29</ele>
        <time>2018-07-28T02:53:06Z</time>
      </trkpt>
      <trkpt lat="36.68795" lon="-5.023849">
        <ele>1728.362</ele>
        <time>2018-07-28T02:53:07Z</time>
      </trkpt>
      <trkpt lat="36.68801" lon="-5.023765">
        <ele>1729.094</ele>
        <time>2018-07-28T02:53:15Z</time>
      </trkpt>
      <trkpt lat="36.68803" lon="-5.023742">
        <ele>1729.323</ele>
        <time>2018-07-28T02:53:17Z</time>
      </trkpt>
      <trkpt lat="36.68805" lon="-5.023714">
        <ele>1729.555</ele>
        <time>2018-07-28T02:53:20Z</time>
      </trkpt>
      <trkpt lat="36.68806" lon="-5.023704">
        <ele>1729.644</ele>
        <time>2018-07-28T02:53:21Z</time>
      </trkpt>
      <trkpt lat="36.68809" lon="-5.023646">
        <ele>1730.279</ele>
        <time>2018-07-28T02:53:27Z</time>
      </trkpt>
      <trkpt lat="36.6881" lon="-5.023635">
        <ele>1730.385</ele>
        <time>2018-07-28T02:53:28Z</time>
      </trkpt>
      <trkpt lat="36.68811" lon="-5.023615">
        <ele>1730.562</ele>
        <time>2018-07-28T02:53:30Z</time>
      </trkpt>
      <trkpt lat="36.68812" lon="-5.023608">
        <ele>1730.591</ele>
        <time>2018-07-28T02:53:31Z</time>
      </trkpt>
      <trkpt lat="36.68815" lon="-5.023578">
        <ele>1730.811</ele>
        <time>2018-07-28T02:53:34Z</time>
      </trkpt>
      <trkpt lat="36.68816" lon="-5.023565">
        <ele>1730.96</ele>
        <time>2018-07-28T02:53:35Z</time>
      </trkpt>
      <trkpt lat="36.68816" lon="-5.023554">
        <ele>1731.066</ele>
        <time>2018-07-28T02:53:36Z</time>
      </trkpt>
      <trkpt lat="36.68821" lon="-5.023478">
        <ele>1731.835</ele>
        <time>2018-07-28T02:53:43Z</time>
      </trkpt>
      <trkpt lat="36.68822" lon="-5.023457">
        <ele>1732.076</ele>
        <time>2018-07-28T02:53:45Z</time>
      </trkpt>
      <trkpt lat="36.68824" lon="-5.023436">
        <ele>1732.316</ele>
        <time>2018-07-28T02:53:47Z</time>
      </trkpt>
      <trkpt lat="36.68824" lon="-5.023427">
        <ele>1732.433</ele>
        <time>2018-07-28T02:53:48Z</time>
      </trkpt>
      <trkpt lat="36.68825" lon="-5.023418">
        <ele>1732.505</ele>
        <time>2018-07-28T02:53:49Z</time>
      </trkpt>
      <trkpt lat="36.68827" lon="-5.023375">
        <ele>1733.048</ele>
        <time>2018-07-28T02:53:53Z</time>
      </trkpt>
      <trkpt lat="36.68828" lon="-5.023349">
        <ele>1733.383</ele>
        <time>2018-07-28T02:53:55Z</time>
      </trkpt>
      <trkpt lat="36.68829" lon="-5.023324">
        <ele>1733.574</ele>
        <time>2018-07-28T02:53:57Z</time>
      </trkpt>
      <trkpt lat="36.68829" lon="-5.023302">
        <ele>1733.646</ele>
        <time>2018-07-28T02:53:59Z</time>
      </trkpt>
      <trkpt lat="36.6883" lon="-5.02329">
        <ele>1733.667</ele>
        <time>2018-07-28T02:54:00Z</time>
      </trkpt>
      <trkpt lat="36.68831" lon="-5.023268">
        <ele>1733.661</ele>
        <time>2018-07-28T02:54:02Z</time>
      </trkpt>
      <trkpt lat="36.68834" lon="-5.023209">
        <ele>1733.728</ele>
        <time>2018-07-28T02:54:07Z</time>
      </trkpt>
      <trkpt lat="36.68835" lon="-5.023182">
        <ele>1733.804</ele>
        <time>2018-07-28T02:54:09Z</time>
      </trkpt>
      <trkpt lat="36.68838" lon="-5.023118">
        <ele>1734.007</ele>
        <time>2018-07-28T02:54:14Z</time>
      </trkpt>
      <trkpt lat="36.68839" lon="-5.023095">
        <ele>1734.096</ele>
        <time>2018-07-28T02:54:16Z</time>
      </trkpt>
      <trkpt lat="36.68839" lon="-5.023085">
        <ele>1734.146</ele>
        <time>2018-07-28T02:54:17Z</time>
      </trkpt>
      <trkpt lat="36.6884" lon="-5.023077">
        <ele>1734.161</ele>
        <time>2018-07-28T02:54:18Z</time>
      </trkpt>
      <trkpt lat="36.68842" lon="-5.023044">
        <ele>1734.289</ele>
        <time>2018-07-28T02:54:22Z</time>
      </trkpt>
      <trkpt lat="36.68845" lon="-5.022992">
        <ele>1734.605</ele>
        <time>2018-07-28T02:54:27Z</time>
      </trkpt>
      <trkpt lat="36.68846" lon="-5.022972">
        <ele>1734.731</ele>
        <time>2018-07-28T02:54:29Z</time>
      </trkpt>
      <trkpt lat="36.68848" lon="-5.02295">
        <ele>1734.859</ele>
        <time>2018-07-28T02:54:31Z</time>
      </trkpt>
      <trkpt lat="36.68849" lon="-5.022932">
        <ele>1734.989</ele>
        <time>2018-07-28T02:54:33Z</time>
      </trkpt>
      <trkpt lat="36.68849" lon="-5.022923">
        <ele>1735.061</ele>
        <time>2018-07-28T02:54:34Z</time>
      </trkpt>
      <trkpt lat="36.68851" lon="-5.022887">
        <ele>1735.356</ele>
        <time>2018-07-28T02:54:37Z</time>
      </trkpt>
      <trkpt lat="36.68852" lon="-5.022878">
        <ele>1735.43</ele>
        <time>2018-07-28T02:54:38Z</time>
      </trkpt>
      <trkpt lat="36.68854" lon="-5.02284">
        <ele>1735.782</ele>
        <time>2018-07-28T02:54:41Z</time>
      </trkpt>
      <trkpt lat="36.68856" lon="-5.022803">
        <ele>1736.159</ele>
        <time>2018-07-28T02:54:45Z</time>
      </trkpt>
      <trkpt lat="36.68857" lon="-5.022792">
        <ele>1736.276</ele>
        <time>2018-07-28T02:54:46Z</time>
      </trkpt>
      <trkpt lat="36.68858" lon="-5.022782">
        <ele>1736.386</ele>
        <time>2018-07-28T02:54:47Z</time>
      </trkpt>
      <trkpt lat="36.68858" lon="-5.022772">
        <ele>1736.497</ele>
        <time>2018-07-28T02:54:48Z</time>
      </trkpt>
      <trkpt lat="36.68861" lon="-5.022725">
        <ele>1737.054</ele>
        <time>2018-07-28T02:54:53Z</time>
      </trkpt>
      <trkpt lat="36.68862" lon="-5.022717">
        <ele>1737.16</ele>
        <time>2018-07-28T02:54:54Z</time>
      </trkpt>
      <trkpt lat="36.68862" lon="-5.02271">
        <ele>1737.251</ele>
        <time>2018-07-28T02:54:55Z</time>
      </trkpt>
      <trkpt lat="36.68864" lon="-5.022693">
        <ele>1737.48</ele>
        <time>2018-07-28T02:54:57Z</time>
      </trkpt>
      <trkpt lat="36.68865" lon="-5.022685">
        <ele>1737.604</ele>
        <time>2018-07-28T02:54:58Z</time>
      </trkpt>
      <trkpt lat="36.68868" lon="-5.022644">
        <ele>1738.217</ele>
        <time>2018-07-28T02:55:02Z</time>
      </trkpt>
      <trkpt lat="36.68872" lon="-5.022594">
        <ele>1739.011</ele>
        <time>2018-07-28T02:55:07Z</time>
      </trkpt>
      <trkpt lat="36.68873" lon="-5.022579">
        <ele>1739.264</ele>
        <time>2018-07-28T02:55:09Z</time>
      </trkpt>
      <trkpt lat="36.68877" lon="-5.022523">
        <ele>1740.261</ele>
        <time>2018-07-28T02:55:15Z</time>
      </trkpt>
      <trkpt lat="36.68878" lon="-5.022505">
        <ele>1740.596</ele>
        <time>2018-07-28T02:55:17Z</time>
      </trkpt>
      <trkpt lat="36.68879" lon="-5.022495">
        <ele>1740.669</ele>
        <time>2018-07-28T02:55:18Z</time>
      </trkpt>
      <trkpt lat="36.68884" lon="-5.022419">
        <ele>1740.391</ele>
        <time>2018-07-28T02:55:27Z</time>
      </trkpt>
      <trkpt lat="36.68884" lon="-5.02241">
        <ele>1740.378</ele>
        <time>2018-07-28T02:55:28Z</time>
      </trkpt>
      <trkpt lat="36.68885" lon="-5.022402">
        <ele>1740.346</ele>
        <time>2018-07-28T02:55:29Z</time>
      </trkpt>
      <trkpt lat="36.6889" lon="-5.022343">
        <ele>1740.361</ele>
        <time>2018-07-28T02:55:37Z</time>
      </trkpt>
      <trkpt lat="36.68891" lon="-5.022337">
        <ele>1740.385</ele>
        <time>2018-07-28T02:55:38Z</time>
      </trkpt>
      <trkpt lat="36.68896" lon="-5.022296">
        <ele>1740.647</ele>
        <time>2018-07-28T02:55:45Z</time>
      </trkpt>
      <trkpt lat="36.68898" lon="-5.022281">
        <ele>1740.709</ele>
        <time>2018-07-28T02:55:47Z</time>
      </trkpt>
      <trkpt lat="36.68903" lon="-5.022247">
        <ele>1740.983</ele>
        <time>2018-07-28T02:55:53Z</time>
      </trkpt>
      <trkpt lat="36.68904" lon="-5.022237">
        <ele>1741.053</ele>
        <time>2018-07-28T02:55:54Z</time>
      </trkpt>
      <trkpt lat="36.68904" lon="-5.022232">
        <ele>1741.071</ele>
        <time>2018-07-28T02:55:55Z</time>
      </trkpt>
      <trkpt lat="36.68905" lon="-5.02222">
        <ele>1741.138</ele>
        <time>2018-07-28T02:55:57Z</time>
      </trkpt>
      <trkpt lat="36.68906" lon="-5.022211">
        <ele>1741.181</ele>
        <time>2018-07-28T02:55:58Z</time>
      </trkpt>
      <trkpt lat="36.68907" lon="-5.022204">
        <ele>1741.233</ele>
        <time>2018-07-28T02:55:59Z</time>
      </trkpt>
      <trkpt lat="36.68908" lon="-5.022197">
        <ele>1741.287</ele>
        <time>2018-07-28T02:56:00Z</time>
      </trkpt>
      <trkpt lat="36.68911" lon="-5.022174">
        <ele>1741.625</ele>
        <time>2018-07-28T02:56:04Z</time>
      </trkpt>
      <trkpt lat="36.68913" lon="-5.022158">
        <ele>1741.748</ele>
        <time>2018-07-28T02:56:06Z</time>
      </trkpt>
      <trkpt lat="36.68914" lon="-5.02215">
        <ele>1741.812</ele>
        <time>2018-07-28T02:56:07Z</time>
      </trkpt>
      <trkpt lat="36.68915" lon="-5.022138">
        <ele>1741.912</ele>
        <time>2018-07-28T02:56:09Z</time>
      </trkpt>
      <trkpt lat="36.68917" lon="-5.02211">
        <ele>1742.068</ele>
        <time>2018-07-28T02:56:14Z</time>
      </trkpt>
      <trkpt lat="36.68917" lon="-5.022104">
        <ele>1742.053</ele>
        <time>2018-07-28T02:56:15Z</time>
      </trkpt>
      <trkpt lat="36.68917" lon="-5.022102">
        <ele>1742.049</ele>
        <time>2018-07-28T02:56:17Z</time>
      </trkpt>
      <trkpt lat="36.68917" lon="-5.022108">
        <ele>1742.108</ele>
        <time>2018-07-28T02:56:21Z</time>
      </trkpt>
      <trkpt lat="36.68918" lon="-5.022111">
        <ele>1742.247</ele>
        <time>2018-07-28T02:56:26Z</time>
      </trkpt>
      <trkpt lat="36.68919" lon="-5.022108">
        <ele>1742.286</ele>
        <time>2018-07-28T02:56:27Z</time>
      </trkpt>
      <trkpt lat="36.68919" lon="-5.022104">
        <ele>1742.276</ele>
        <time>2018-07-28T02:56:28Z</time>
      </trkpt>
      <trkpt lat="36.68919" lon="-5.022096">
        <ele>1742.35</ele>
        <time>2018-07-28T02:56:34Z</time>
      </trkpt>
      <trkpt lat="36.6892" lon="-5.022095">
        <ele>1742.394</ele>
        <time>2018-07-28T02:56:36Z</time>
      </trkpt>
      <trkpt lat="36.6892" lon="-5.022097">
        <ele>1742.397</ele>
        <time>2018-07-28T02:56:37Z</time>
      </trkpt>
      <trkpt lat="36.6892" lon="-5.022097">
        <ele>1742.397</ele>
        <time>2018-07-28T02:56:40Z</time>
      </trkpt>
      <trkpt lat="36.6892" lon="-5.022098">
        <ele>1742.399</ele>
        <time>2018-07-28T02:56:47Z</time>
      </trkpt>
      <trkpt lat="36.6892" lon="-5.022099">
        <ele>1742.401</ele>
        <time>2018-07-28T02:56:48Z</time>
      </trkpt>
      <trkpt lat="36.6892" lon="-5.022095">
        <ele>1742.439</ele>
        <time>2018-07-28T02:56:57Z</time>
      </trkpt>
      <trkpt lat="36.6892" lon="-5.022095">
        <ele>1742.439</ele>
        <time>2018-07-28T02:57:00Z</time>
      </trkpt>
      <trkpt lat="36.68921" lon="-5.022097">
        <ele>1742.487</ele>
        <time>2018-07-28T02:57:04Z</time>
      </trkpt>
      <trkpt lat="36.6892" lon="-5.022091">
        <ele>1742.385</ele>
        <time>2018-07-28T02:57:07Z</time>
      </trkpt>
      <trkpt lat="36.6892" lon="-5.022089">
        <ele>1742.382</ele>
        <time>2018-07-28T02:57:13Z</time>
      </trkpt>
      <trkpt lat="36.6892" lon="-5.022086">
        <ele>1742.422</ele>
        <time>2018-07-28T02:57:17Z</time>
      </trkpt>
      <trkpt lat="36.68919" lon="-5.022103">
        <ele>1742.275</ele>
        <time>2018-07-28T02:57:23Z</time>
      </trkpt>
      <trkpt lat="36.68919" lon="-5.0221">
        <ele>1742.268</ele>
        <time>2018-07-28T02:57:27Z</time>
      </trkpt>
      <trkpt lat="36.68919" lon="-5.022097">
        <ele>1742.262</ele>
        <time>2018-07-28T02:57:30Z</time>
      </trkpt>
      <trkpt lat="36.68919" lon="-5.022102">
        <ele>1742.272</ele>
        <time>2018-07-28T02:57:34Z</time>
      </trkpt>
      <trkpt lat="36.68918" lon="-5.022101">
        <ele>1742.226</ele>
        <time>2018-07-28T02:57:37Z</time>
      </trkpt>
      <trkpt lat="36.68918" lon="-5.022099">
        <ele>1742.221</ele>
        <time>2018-07-28T02:57:41Z</time>
      </trkpt>
      <trkpt lat="36.68918" lon="-5.0221">
        <ele>1742.224</ele>
        <time>2018-07-28T02:57:43Z</time>
      </trkpt>
      <trkpt lat="36.68919" lon="-5.022097">
        <ele>1742.262</ele>
        <time>2018-07-28T02:57:47Z</time>
      </trkpt>
      <trkpt lat="36.68918" lon="-5.022097">
        <ele>1742.217</ele>
        <time>2018-07-28T02:57:50Z</time>
      </trkpt>
      <trkpt lat="36.68919" lon="-5.022098">
        <ele>1742.264</ele>
        <time>2018-07-28T02:57:56Z</time>
      </trkpt>
      <trkpt lat="36.68919" lon="-5.022099">
        <ele>1742.266</ele>
        <time>2018-07-28T02:57:57Z</time>
      </trkpt>
      <trkpt lat="36.68919" lon="-5.022099">
        <ele>1742.266</ele>
        <time>2018-07-28T02:58:01Z</time>
      </trkpt>
      <trkpt lat="36.68919" lon="-5.022096">
        <ele>1742.26</ele>
        <time>2018-07-28T02:58:04Z</time>
      </trkpt>
      <trkpt lat="36.68917" lon="-5.022098">
        <ele>1742.13</ele>
        <time>2018-07-28T02:58:07Z</time>
      </trkpt>
      <trkpt lat="36.68917" lon="-5.022097">
        <ele>1742.127</ele>
        <time>2018-07-28T02:58:12Z</time>
      </trkpt>
      <trkpt lat="36.68918" lon="-5.022097">
        <ele>1742.172</ele>
        <time>2018-07-28T02:58:13Z</time>
      </trkpt>
      <trkpt lat="36.68918" lon="-5.022097">
        <ele>1742.172</ele>
        <time>2018-07-28T02:58:17Z</time>
      </trkpt>
      <trkpt lat="36.68918" lon="-5.022096">
        <ele>1742.215</ele>
        <time>2018-07-28T02:58:27Z</time>
      </trkpt>
      <trkpt lat="36.68918" lon="-5.022097">
        <ele>1742.217</ele>
        <time>2018-07-28T02:58:29Z</time>
      </trkpt>
      <trkpt lat="36.68918" lon="-5.022097">
        <ele>1742.217</ele>
        <time>2018-07-28T02:58:37Z</time>
      </trkpt>
      <trkpt lat="36.68918" lon="-5.022101">
        <ele>1742.226</ele>
        <time>2018-07-28T02:58:43Z</time>
      </trkpt>
      <trkpt lat="36.68918" lon="-5.022101">
        <ele>1742.226</ele>
        <time>2018-07-28T02:58:44Z</time>
      </trkpt>
      <trkpt lat="36.68918" lon="-5.022101">
        <ele>1742.226</ele>
        <time>2018-07-28T02:58:47Z</time>
      </trkpt>
      <trkpt lat="36.68917" lon="-5.022104">
        <ele>1742.143</ele>
        <time>2018-07-28T02:58:50Z</time>
      </trkpt>
      <trkpt lat="36.68917" lon="-5.022104">
        <ele>1742.143</ele>
        <time>2018-07-28T02:58:53Z</time>
      </trkpt>
      <trkpt lat="36.68917" lon="-5.022103">
        <ele>1742.14</ele>
        <time>2018-07-28T02:58:55Z</time>
      </trkpt>
      <trkpt lat="36.68917" lon="-5.022104">
        <ele>1742.143</ele>
        <time>2018-07-28T02:58:56Z</time>
      </trkpt>
      <trkpt lat="36.68917" lon="-5.022104">
        <ele>1742.098</ele>
        <time>2018-07-28T02:58:57Z</time>
      </trkpt>
      <trkpt lat="36.68917" lon="-5.022103">
        <ele>1742.14</ele>
        <time>2018-07-28T02:58:59Z</time>
      </trkpt>
      <trkpt lat="36.68917" lon="-5.022103">
        <ele>1742.14</ele>
        <time>2018-07-28T02:59:01Z</time>
      </trkpt>
      <trkpt lat="36.68917" lon="-5.022103">
        <ele>1742.14</ele>
        <time>2018-07-28T02:59:03Z</time>
      </trkpt>
      <trkpt lat="36.68917" lon="-5.022102">
        <ele>1742.138</ele>
        <time>2018-07-28T02:59:06Z</time>
      </trkpt>
      <trkpt lat="36.68918" lon="-5.022102">
        <ele>1742.183</ele>
        <time>2018-07-28T02:59:07Z</time>
      </trkpt>
      <trkpt lat="36.68918" lon="-5.022111">
        <ele>1742.247</ele>
        <time>2018-07-28T02:59:17Z</time>
      </trkpt>
      <trkpt lat="36.68918" lon="-5.022111">
        <ele>1742.247</ele>
        <time>2018-07-28T02:59:19Z</time>
      </trkpt>
      <trkpt lat="36.68918" lon="-5.02211">
        <ele>1742.245</ele>
        <time>2018-07-28T02:59:21Z</time>
      </trkpt>
      <trkpt lat="36.68918" lon="-5.022111">
        <ele>1742.247</ele>
        <time>2018-07-28T02:59:24Z</time>
      </trkpt>
      <trkpt lat="36.68918" lon="-5.022112">
        <ele>1742.205</ele>
        <time>2018-07-28T02:59:27Z</time>
      </trkpt>
      <trkpt lat="36.6892" lon="-5.022102">
        <ele>1742.407</ele>
        <time>2018-07-28T02:59:34Z</time>
      </trkpt>
      <trkpt lat="36.6892" lon="-5.022088">
        <ele>1742.425</ele>
        <time>2018-07-28T02:59:37Z</time>
      </trkpt>
      <trkpt lat="36.6892" lon="-5.022088">
        <ele>1742.425</ele>
        <time>2018-07-28T02:59:41Z</time>
      </trkpt>
      <trkpt lat="36.6892" lon="-5.02209">
        <ele>1742.383</ele>
        <time>2018-07-28T02:59:43Z</time>
      </trkpt>
      <trkpt lat="36.6892" lon="-5.02209">
        <ele>1742.429</ele>
        <time>2018-07-28T02:59:47Z</time>
      </trkpt>
      <trkpt lat="36.6892" lon="-5.022088">
        <ele>1742.38</ele>
        <time>2018-07-28T02:59:53Z</time>
      </trkpt>
      <trkpt lat="36.6892" lon="-5.022089">
        <ele>1742.382</ele>
        <time>2018-07-28T02:59:57Z</time>
      </trkpt>
      <trkpt lat="36.6892" lon="-5.022088">
        <ele>1742.425</ele>
        <time>2018-07-28T02:59:58Z</time>
      </trkpt>
      <trkpt lat="36.6892" lon="-5.022088">
        <ele>1742.425</ele>
        <time>2018-07-28T03:00:01Z</time>
      </trkpt>
      <trkpt lat="36.6892" lon="-5.022088">
        <ele>1742.425</ele>
        <time>2018-07-28T03:00:02Z</time>
      </trkpt>
      <trkpt lat="36.6892" lon="-5.022088">
        <ele>1742.425</ele>
        <time>2018-07-28T03:00:03Z</time>
      </trkpt>
      <trkpt lat="36.6892" lon="-5.022088">
        <ele>1742.425</ele>
        <time>2018-07-28T03:00:07Z</time>
      </trkpt>
      <trkpt lat="36.6892" lon="-5.02209">
        <ele>1742.429</ele>
        <time>2018-07-28T03:00:10Z</time>
      </trkpt>
      <trkpt lat="36.6892" lon="-5.02209">
        <ele>1742.429</ele>
        <time>2018-07-28T03:00:14Z</time>
      </trkpt>
      <trkpt lat="36.6892" lon="-5.02209">
        <ele>1742.429</ele>
        <time>2018-07-28T03:00:17Z</time>
      </trkpt>
      <trkpt lat="36.6892" lon="-5.02209">
        <ele>1742.429</ele>
        <time>2018-07-28T03:00:23Z</time>
      </trkpt>
      <trkpt lat="36.6892" lon="-5.02209">
        <ele>1742.429</ele>
        <time>2018-07-28T03:00:25Z</time>
      </trkpt>
      <trkpt lat="36.6892" lon="-5.02209">
        <ele>1742.429</ele>
        <time>2018-07-28T03:00:27Z</time>
      </trkpt>
      <trkpt lat="36.68921" lon="-5.022092">
        <ele>1742.478</ele>
        <time>2018-07-28T03:00:36Z</time>
      </trkpt>
      <trkpt lat="36.68921" lon="-5.022092">
        <ele>1742.478</ele>
        <time>2018-07-28T03:00:37Z</time>
      </trkpt>
      <trkpt lat="36.6892" lon="-5.022092">
        <ele>1742.432</ele>
        <time>2018-07-28T03:00:38Z</time>
      </trkpt>
      <trkpt lat="36.6892" lon="-5.022093">
        <ele>1742.434</ele>
        <time>2018-07-28T03:00:39Z</time>
      </trkpt>
      <trkpt lat="36.6892" lon="-5.022093">
        <ele>1742.434</ele>
        <time>2018-07-28T03:00:40Z</time>
      </trkpt>
      <trkpt lat="36.6892" lon="-5.022093">
        <ele>1742.434</ele>
        <time>2018-07-28T03:00:41Z</time>
      </trkpt>
      <trkpt lat="36.6892" lon="-5.022093">
        <ele>1742.434</ele>
        <time>2018-07-28T03:00:42Z</time>
      </trkpt>
      <trkpt lat="36.6892" lon="-5.022092">
        <ele>1742.387</ele>
        <time>2018-07-28T03:00:47Z</time>
      </trkpt>
      <trkpt lat="36.68921" lon="-5.022089">
        <ele>1742.473</ele>
        <time>2018-07-28T03:00:53Z</time>
      </trkpt>
      <trkpt lat="36.68921" lon="-5.022089">
        <ele>1742.473</ele>
        <time>2018-07-28T03:00:57Z</time>
      </trkpt>
      <trkpt lat="36.68921" lon="-5.022088">
        <ele>1742.471</ele>
        <time>2018-07-28T03:01:07Z</time>
      </trkpt>
      <trkpt lat="36.68921" lon="-5.02209">
        <ele>1742.474</ele>
        <time>2018-07-28T03:01:08Z</time>
      </trkpt>
      <trkpt lat="36.6892" lon="-5.022095">
        <ele>1742.439</ele>
        <time>2018-07-28T03:01:15Z</time>
      </trkpt>
      <trkpt lat="36.6892" lon="-5.022094">
        <ele>1742.436</ele>
        <time>2018-07-28T03:01:16Z</time>
      </trkpt>
      <trkpt lat="36.6892" lon="-5.022094">
        <ele>1742.436</ele>
        <time>2018-07-28T03:01:17Z</time>
      </trkpt>
      <trkpt lat="36.6892" lon="-5.022097">
        <ele>1742.442</ele>
        <time>2018-07-28T03:01:21Z</time>
      </trkpt>
      <trkpt lat="36.68921" lon="-5.022095">
        <ele>1742.484</ele>
        <time>2018-07-28T03:01:24Z</time>
      </trkpt>
      <trkpt lat="36.68921" lon="-5.02209">
        <ele>1742.565</ele>
        <time>2018-07-28T03:01:27Z</time>
      </trkpt>
      <trkpt lat="36.6892" lon="-5.022099">
        <ele>1742.401</ele>
        <time>2018-07-28T03:01:32Z</time>
      </trkpt>
      <trkpt lat="36.6892" lon="-5.022099">
        <ele>1742.401</ele>
        <time>2018-07-28T03:01:36Z</time>
      </trkpt>
      <trkpt lat="36.68919" lon="-5.022103">
        <ele>1742.319</ele>
        <time>2018-07-28T03:01:41Z</time>
      </trkpt>
      <trkpt lat="36.68919" lon="-5.022105">
        <ele>1742.324</ele>
        <time>2018-07-28T03:01:43Z</time>
      </trkpt>
      <trkpt lat="36.6892" lon="-5.022099">
        <ele>1742.446</ele>
        <time>2018-07-28T03:01:47Z</time>
      </trkpt>
      <trkpt lat="36.68921" lon="-5.022092">
        <ele>1742.478</ele>
        <time>2018-07-28T03:01:52Z</time>
      </trkpt>
      <trkpt lat="36.68922" lon="-5.022071">
        <ele>1742.671</ele>
        <time>2018-07-28T03:01:57Z</time>
      </trkpt>
      <trkpt lat="36.68922" lon="-5.022069">
        <ele>1742.668</ele>
        <time>2018-07-28T03:02:01Z</time>
      </trkpt>
      <trkpt lat="36.68922" lon="-5.022071">
        <ele>1742.671</ele>
        <time>2018-07-28T03:02:07Z</time>
      </trkpt>
      <trkpt lat="36.68921" lon="-5.022073">
        <ele>1742.535</ele>
        <time>2018-07-28T03:02:11Z</time>
      </trkpt>
      <trkpt lat="36.68921" lon="-5.022075">
        <ele>1742.447</ele>
        <time>2018-07-28T03:02:13Z</time>
      </trkpt>
      <trkpt lat="36.6892" lon="-5.022078">
        <ele>1742.406</ele>
        <time>2018-07-28T03:02:17Z</time>
      </trkpt>
      <trkpt lat="36.6892" lon="-5.022072">
        <ele>1742.394</ele>
        <time>2018-07-28T03:02:19Z</time>
      </trkpt>
      <trkpt lat="36.6892" lon="-5.022064">
        <ele>1742.38</ele>
        <time>2018-07-28T03:02:22Z</time>
      </trkpt>
      <trkpt lat="36.6892" lon="-5.022064">
        <ele>1742.38</ele>
        <time>2018-07-28T03:02:24Z</time>
      </trkpt>
      <trkpt lat="36.6892" lon="-5.022063">
        <ele>1742.377</ele>
        <time>2018-07-28T03:02:27Z</time>
      </trkpt>
      <trkpt lat="36.68919" lon="-5.022061">
        <ele>1742.28</ele>
        <time>2018-07-28T03:02:37Z</time>
      </trkpt>
      <trkpt lat="36.6892" lon="-5.022045">
        <ele>1742.344</ele>
        <time>2018-07-28T03:02:47Z</time>
      </trkpt>
      <trkpt lat="36.68921" lon="-5.022026">
        <ele>1742.405</ele>
        <time>2018-07-28T03:02:49Z</time>
      </trkpt>
      <trkpt lat="36.68922" lon="-5.022007">
        <ele>1742.471</ele>
        <time>2018-07-28T03:02:52Z</time>
      </trkpt>
      <trkpt lat="36.68922" lon="-5.022001">
        <ele>1742.511</ele>
        <time>2018-07-28T03:02:53Z</time>
      </trkpt>
      <trkpt lat="36.68922" lon="-5.021996">
        <ele>1742.503</ele>
        <time>2018-07-28T03:02:54Z</time>
      </trkpt>
      <trkpt lat="36.68922" lon="-5.021991">
        <ele>1742.546</ele>
        <time>2018-07-28T03:02:55Z</time>
      </trkpt>
      <trkpt lat="36.68923" lon="-5.021983">
        <ele>1742.636</ele>
        <time>2018-07-28T03:02:56Z</time>
      </trkpt>
      <trkpt lat="36.68924" lon="-5.02197">
        <ele>1742.721</ele>
        <time>2018-07-28T03:02:57Z</time>
      </trkpt>
      <trkpt lat="36.68924" lon="-5.021961">
        <ele>1742.761</ele>
        <time>2018-07-28T03:02:58Z</time>
      </trkpt>
      <trkpt lat="36.68926" lon="-5.021945">
        <ele>1742.954</ele>
        <time>2018-07-28T03:03:00Z</time>
      </trkpt>
      <trkpt lat="36.68927" lon="-5.021926">
        <ele>1743.042</ele>
        <time>2018-07-28T03:03:02Z</time>
      </trkpt>
      <trkpt lat="36.68929" lon="-5.021886">
        <ele>1743.287</ele>
        <time>2018-07-28T03:03:06Z</time>
      </trkpt>
      <trkpt lat="36.68929" lon="-5.021876">
        <ele>1743.394</ele>
        <time>2018-07-28T03:03:07Z</time>
      </trkpt>
      <trkpt lat="36.68931" lon="-5.021836">
        <ele>1743.668</ele>
        <time>2018-07-28T03:03:13Z</time>
      </trkpt>
      <trkpt lat="36.68933" lon="-5.021811">
        <ele>1743.964</ele>
        <time>2018-07-28T03:03:16Z</time>
      </trkpt>
      <trkpt lat="36.68934" lon="-5.021801">
        <ele>1744.086</ele>
        <time>2018-07-28T03:03:17Z</time>
      </trkpt>
      <trkpt lat="36.68935" lon="-5.021783">
        <ele>1744.212</ele>
        <time>2018-07-28T03:03:19Z</time>
      </trkpt>
      <trkpt lat="36.68936" lon="-5.021756">
        <ele>1744.472</ele>
        <time>2018-07-28T03:03:21Z</time>
      </trkpt>
      <trkpt lat="36.6894" lon="-5.021703">
        <ele>1745.16</ele>
        <time>2018-07-28T03:03:25Z</time>
      </trkpt>
      <trkpt lat="36.68941" lon="-5.021686">
        <ele>1745.312</ele>
        <time>2018-07-28T03:03:27Z</time>
      </trkpt>
      <trkpt lat="36.68946" lon="-5.021633">
        <ele>1745.664</ele>
        <time>2018-07-28T03:03:33Z</time>
      </trkpt>
      <trkpt lat="36.68946" lon="-5.021631">
        <ele>1745.762</ele>
        <time>2018-07-28T03:03:34Z</time>
      </trkpt>
      <trkpt lat="36.68951" lon="-5.021619">
        <ele>1746.327</ele>
        <time>2018-07-28T03:03:37Z</time>
      </trkpt>
      <trkpt lat="36.68952" lon="-5.021614">
        <ele>1746.457</ele>
        <time>2018-07-28T03:03:38Z</time>
      </trkpt>
      <trkpt lat="36.68958" lon="-5.021606">
        <ele>1747.507</ele>
        <time>2018-07-28T03:03:43Z</time>
      </trkpt>
      <trkpt lat="36.68959" lon="-5.021599">
        <ele>1747.601</ele>
        <time>2018-07-28T03:03:44Z</time>
      </trkpt>
      <trkpt lat="36.68961" lon="-5.021573">
        <ele>1747.536</ele>
        <time>2018-07-28T03:03:47Z</time>
      </trkpt>
      <trkpt lat="36.68964" lon="-5.021555">
        <ele>1747.668</ele>
        <time>2018-07-28T03:03:50Z</time>
      </trkpt>
      <trkpt lat="36.68966" lon="-5.021536">
        <ele>1747.859</ele>
        <time>2018-07-28T03:03:53Z</time>
      </trkpt>
      <trkpt lat="36.68967" lon="-5.021515">
        <ele>1747.74</ele>
        <time>2018-07-28T03:03:55Z</time>
      </trkpt>
      <trkpt lat="36.68969" lon="-5.021506">
        <ele>1747.811</ele>
        <time>2018-07-28T03:03:56Z</time>
      </trkpt>
      <trkpt lat="36.6897" lon="-5.021499">
        <ele>1747.92</ele>
        <time>2018-07-28T03:03:57Z</time>
      </trkpt>
      <trkpt lat="36.68972" lon="-5.021481">
        <ele>1748.065</ele>
        <time>2018-07-28T03:03:59Z</time>
      </trkpt>
      <trkpt lat="36.68972" lon="-5.021479">
        <ele>1748.036</ele>
        <time>2018-07-28T03:04:00Z</time>
      </trkpt>
      <trkpt lat="36.68973" lon="-5.021478">
        <ele>1748.164</ele>
        <time>2018-07-28T03:04:01Z</time>
      </trkpt>
      <trkpt lat="36.68974" lon="-5.021475">
        <ele>1748.256</ele>
        <time>2018-07-28T03:04:02Z</time>
      </trkpt>
      <trkpt lat="36.6898" lon="-5.021444">
        <ele>1748.932</ele>
        <time>2018-07-28T03:04:07Z</time>
      </trkpt>
      <trkpt lat="36.6898" lon="-5.021428">
        <ele>1748.836</ele>
        <time>2018-07-28T03:04:09Z</time>
      </trkpt>
      <trkpt lat="36.68983" lon="-5.021387">
        <ele>1748.797</ele>
        <time>2018-07-28T03:04:12Z</time>
      </trkpt>
      <trkpt lat="36.68985" lon="-5.021374">
        <ele>1748.896</ele>
        <time>2018-07-28T03:04:13Z</time>
      </trkpt>
      <trkpt lat="36.68988" lon="-5.021348">
        <ele>1749.167</ele>
        <time>2018-07-28T03:04:16Z</time>
      </trkpt>
      <trkpt lat="36.68989" lon="-5.021338">
        <ele>1749.166</ele>
        <time>2018-07-28T03:04:17Z</time>
      </trkpt>
      <trkpt lat="36.68991" lon="-5.021312">
        <ele>1749.156</ele>
        <time>2018-07-28T03:04:19Z</time>
      </trkpt>
      <trkpt lat="36.68993" lon="-5.021289">
        <ele>1749.11</ele>
        <time>2018-07-28T03:04:21Z</time>
      </trkpt>
      <trkpt lat="36.68994" lon="-5.021278">
        <ele>1749.174</ele>
        <time>2018-07-28T03:04:22Z</time>
      </trkpt>
      <trkpt lat="36.68996" lon="-5.021244">
        <ele>1749.206</ele>
        <time>2018-07-28T03:04:25Z</time>
      </trkpt>
      <trkpt lat="36.68997" lon="-5.021228">
        <ele>1749.046</ele>
        <time>2018-07-28T03:04:26Z</time>
      </trkpt>
      <trkpt lat="36.68997" lon="-5.02121">
        <ele>1748.79</ele>
        <time>2018-07-28T03:04:27Z</time>
      </trkpt>
      <trkpt lat="36.68997" lon="-5.021195">
        <ele>1748.568</ele>
        <time>2018-07-28T03:04:28Z</time>
      </trkpt>
      <trkpt lat="36.68998" lon="-5.021112">
        <ele>1747.517</ele>
        <time>2018-07-28T03:04:33Z</time>
      </trkpt>
      <trkpt lat="36.68998" lon="-5.021079">
        <ele>1747.197</ele>
        <time>2018-07-28T03:04:35Z</time>
      </trkpt>
      <trkpt lat="36.68998" lon="-5.02105">
        <ele>1746.776</ele>
        <time>2018-07-28T03:04:37Z</time>
      </trkpt>
      <trkpt lat="36.68998" lon="-5.020971">
        <ele>1745.63</ele>
        <time>2018-07-28T03:04:42Z</time>
      </trkpt>
      <trkpt lat="36.68998" lon="-5.020901">
        <ele>1744.46</ele>
        <time>2018-07-28T03:04:47Z</time>
      </trkpt>
      <trkpt lat="36.68998" lon="-5.020874">
        <ele>1744.23</ele>
        <time>2018-07-28T03:04:49Z</time>
      </trkpt>
      <trkpt lat="36.69" lon="-5.020822">
        <ele>1743.835</ele>
        <time>2018-07-28T03:04:52Z</time>
      </trkpt>
      <trkpt lat="36.69002" lon="-5.020735">
        <ele>1743.428</ele>
        <time>2018-07-28T03:04:57Z</time>
      </trkpt>
      <trkpt lat="36.69002" lon="-5.020718">
        <ele>1743.226</ele>
        <time>2018-07-28T03:04:58Z</time>
      </trkpt>
      <trkpt lat="36.69004" lon="-5.020654">
        <ele>1743.095</ele>
        <time>2018-07-28T03:05:02Z</time>
      </trkpt>
      <trkpt lat="36.69006" lon="-5.020628">
        <ele>1743.095</ele>
        <time>2018-07-28T03:05:04Z</time>
      </trkpt>
      <trkpt lat="36.69008" lon="-5.020593">
        <ele>1743.304</ele>
        <time>2018-07-28T03:05:07Z</time>
      </trkpt>
      <trkpt lat="36.69009" lon="-5.020561">
        <ele>1743.226</ele>
        <time>2018-07-28T03:05:09Z</time>
      </trkpt>
      <trkpt lat="36.69008" lon="-5.020448">
        <ele>1741.515</ele>
        <time>2018-07-28T03:05:16Z</time>
      </trkpt>
      <trkpt lat="36.69008" lon="-5.020434">
        <ele>1741.339</ele>
        <time>2018-07-28T03:05:17Z</time>
      </trkpt>
      <trkpt lat="36.69007" lon="-5.020342">
        <ele>1739.999</ele>
        <time>2018-07-28T03:05:23Z</time>
      </trkpt>
      <trkpt lat="36.69008" lon="-5.020274">
        <ele>1739.367</ele>
        <time>2018-07-28T03:05:27Z</time>
      </trkpt>
      <trkpt lat="36.69009" lon="-5.020233">
        <ele>1739.161</ele>
        <time>2018-07-28T03:05:30Z</time>
      </trkpt>
      <trkpt lat="36.69013" lon="-5.020135">
        <ele>1739.026</ele>
        <time>2018-07-28T03:05:37Z</time>
      </trkpt>
      <trkpt lat="36.69014" lon="-5.020121">
        <ele>1739.048</ele>
        <time>2018-07-28T03:05:38Z</time>
      </trkpt>
      <trkpt lat="36.69015" lon="-5.02009">
        <ele>1738.853</ele>
        <time>2018-07-28T03:05:40Z</time>
      </trkpt>
      <trkpt lat="36.69017" lon="-5.019989">
        <ele>1738.032</ele>
        <time>2018-07-28T03:05:47Z</time>
      </trkpt>
      <trkpt lat="36.69018" lon="-5.019927">
        <ele>1737.491</ele>
        <time>2018-07-28T03:05:51Z</time>
      </trkpt>
      <trkpt lat="36.69019" lon="-5.019888">
        <ele>1737.002</ele>
        <time>2018-07-28T03:05:54Z</time>
      </trkpt>
      <trkpt lat="36.69019" lon="-5.019874">
        <ele>1736.985</ele>
        <time>2018-07-28T03:05:55Z</time>
      </trkpt>
      <trkpt lat="36.6902" lon="-5.019847">
        <ele>1736.862</ele>
        <time>2018-07-28T03:05:57Z</time>
      </trkpt>
      <trkpt lat="36.69024" lon="-5.019772">
        <ele>1736.676</ele>
        <time>2018-07-28T03:06:02Z</time>
      </trkpt>
      <trkpt lat="36.69028" lon="-5.019714">
        <ele>1736.82</ele>
        <time>2018-07-28T03:06:07Z</time>
      </trkpt>
      <trkpt lat="36.6903" lon="-5.019694">
        <ele>1736.794</ele>
        <time>2018-07-28T03:06:09Z</time>
      </trkpt>
      <trkpt lat="36.69031" lon="-5.019685">
        <ele>1736.934</ele>
        <time>2018-07-28T03:06:10Z</time>
      </trkpt>
      <trkpt lat="36.69032" lon="-5.019677">
        <ele>1737.187</ele>
        <time>2018-07-28T03:06:11Z</time>
      </trkpt>
      <trkpt lat="36.69036" lon="-5.019644">
        <ele>1737.598</ele>
        <time>2018-07-28T03:06:15Z</time>
      </trkpt>
      <trkpt lat="36.69037" lon="-5.019635">
        <ele>1737.65</ele>
        <time>2018-07-28T03:06:16Z</time>
      </trkpt>
      <trkpt lat="36.69037" lon="-5.019627">
        <ele>1737.616</ele>
        <time>2018-07-28T03:06:17Z</time>
      </trkpt>
      <trkpt lat="36.69043" lon="-5.019597">
        <ele>1738.527</ele>
        <time>2018-07-28T03:06:22Z</time>
      </trkpt>
      <trkpt lat="36.69045" lon="-5.01957">
        <ele>1738.651</ele>
        <time>2018-07-28T03:06:25Z</time>
      </trkpt>
      <trkpt lat="36.69046" lon="-5.019551">
        <ele>1738.625</ele>
        <time>2018-07-28T03:06:27Z</time>
      </trkpt>
      <trkpt lat="36.69048" lon="-5.019543">
        <ele>1738.778</ele>
        <time>2018-07-28T03:06:28Z</time>
      </trkpt>
      <trkpt lat="36.69052" lon="-5.0195">
        <ele>1739.09</ele>
        <time>2018-07-28T03:06:32Z</time>
      </trkpt>
      <trkpt lat="36.69053" lon="-5.019483">
        <ele>1739.097</ele>
        <time>2018-07-28T03:06:34Z</time>
      </trkpt>
      <trkpt lat="36.69054" lon="-5.019473">
        <ele>1739.208</ele>
        <time>2018-07-28T03:06:36Z</time>
      </trkpt>
      <trkpt lat="36.69055" lon="-5.019466">
        <ele>1739.365</ele>
        <time>2018-07-28T03:06:37Z</time>
      </trkpt>
      <trkpt lat="36.69056" lon="-5.01946">
        <ele>1739.544</ele>
        <time>2018-07-28T03:06:38Z</time>
      </trkpt>
      <trkpt lat="36.69057" lon="-5.019454">
        <ele>1739.715</ele>
        <time>2018-07-28T03:06:40Z</time>
      </trkpt>
      <trkpt lat="36.69062" lon="-5.019424">
        <ele>1740.31</ele>
        <time>2018-07-28T03:06:44Z</time>
      </trkpt>
      <trkpt lat="36.69063" lon="-5.0194">
        <ele>1740.193</ele>
        <time>2018-07-28T03:06:46Z</time>
      </trkpt>
      <trkpt lat="36.69063" lon="-5.019386">
        <ele>1739.961</ele>
        <time>2018-07-28T03:06:47Z</time>
      </trkpt>
      <trkpt lat="36.69063" lon="-5.019361">
        <ele>1739.47</ele>
        <time>2018-07-28T03:06:49Z</time>
      </trkpt>
      <trkpt lat="36.69063" lon="-5.019329">
        <ele>1738.952</ele>
        <time>2018-07-28T03:06:52Z</time>
      </trkpt>
      <trkpt lat="36.69063" lon="-5.019319">
        <ele>1738.878</ele>
        <time>2018-07-28T03:06:53Z</time>
      </trkpt>
      <trkpt lat="36.69063" lon="-5.019298">
        <ele>1738.538</ele>
        <time>2018-07-28T03:06:55Z</time>
      </trkpt>
      <trkpt lat="36.69063" lon="-5.019276">
        <ele>1738.182</ele>
        <time>2018-07-28T03:06:57Z</time>
      </trkpt>
      <trkpt lat="36.69063" lon="-5.019265">
        <ele>1737.916</ele>
        <time>2018-07-28T03:06:58Z</time>
      </trkpt>
      <trkpt lat="36.69062" lon="-5.019209">
        <ele>1736.829</ele>
        <time>2018-07-28T03:07:02Z</time>
      </trkpt>
      <trkpt lat="36.69062" lon="-5.019171">
        <ele>1736.133</ele>
        <time>2018-07-28T03:07:05Z</time>
      </trkpt>
      <trkpt lat="36.69061" lon="-5.019148">
        <ele>1735.722</ele>
        <time>2018-07-28T03:07:07Z</time>
      </trkpt>
      <trkpt lat="36.69062" lon="-5.019125">
        <ele>1735.594</ele>
        <time>2018-07-28T03:07:09Z</time>
      </trkpt>
      <trkpt lat="36.69062" lon="-5.019103">
        <ele>1735.393</ele>
        <time>2018-07-28T03:07:11Z</time>
      </trkpt>
      <trkpt lat="36.69064" lon="-5.019047">
        <ele>1735.098</ele>
        <time>2018-07-28T03:07:16Z</time>
      </trkpt>
      <trkpt lat="36.69065" lon="-5.019034">
        <ele>1735.019</ele>
        <time>2018-07-28T03:07:17Z</time>
      </trkpt>
      <trkpt lat="36.69065" lon="-5.019021">
        <ele>1734.941</ele>
        <time>2018-07-28T03:07:18Z</time>
      </trkpt>
      <trkpt lat="36.69065" lon="-5.019008">
        <ele>1734.773</ele>
        <time>2018-07-28T03:07:19Z</time>
      </trkpt>
      <trkpt lat="36.69065" lon="-5.018992">
        <ele>1734.561</ele>
        <time>2018-07-28T03:07:20Z</time>
      </trkpt>
      <trkpt lat="36.69066" lon="-5.01891">
        <ele>1733.769</ele>
        <time>2018-07-28T03:07:26Z</time>
      </trkpt>
      <trkpt lat="36.69067" lon="-5.0189">
        <ele>1733.917</ele>
        <time>2018-07-28T03:07:27Z</time>
      </trkpt>
      <trkpt lat="36.69071" lon="-5.018864">
        <ele>1734.298</ele>
        <time>2018-07-28T03:07:31Z</time>
      </trkpt>
      <trkpt lat="36.69071" lon="-5.018854">
        <ele>1734.264</ele>
        <time>2018-07-28T03:07:32Z</time>
      </trkpt>
      <trkpt lat="36.69073" lon="-5.01883">
        <ele>1734.427</ele>
        <time>2018-07-28T03:07:34Z</time>
      </trkpt>
      <trkpt lat="36.69076" lon="-5.018792">
        <ele>1734.715</ele>
        <time>2018-07-28T03:07:37Z</time>
      </trkpt>
      <trkpt lat="36.69078" lon="-5.018771">
        <ele>1734.933</ele>
        <time>2018-07-28T03:07:39Z</time>
      </trkpt>
      <trkpt lat="36.69079" lon="-5.018762">
        <ele>1735.013</ele>
        <time>2018-07-28T03:07:40Z</time>
      </trkpt>
      <trkpt lat="36.6908" lon="-5.018753">
        <ele>1735.094</ele>
        <time>2018-07-28T03:07:41Z</time>
      </trkpt>
      <trkpt lat="36.69081" lon="-5.01874">
        <ele>1735.418</ele>
        <time>2018-07-28T03:07:43Z</time>
      </trkpt>
      <trkpt lat="36.69085" lon="-5.018714">
        <ele>1736.048</ele>
        <time>2018-07-28T03:07:47Z</time>
      </trkpt>
      <trkpt lat="36.69089" lon="-5.018685">
        <ele>1736.641</ele>
        <time>2018-07-28T03:07:51Z</time>
      </trkpt>
      <trkpt lat="36.69092" lon="-5.018657">
        <ele>1737.08</ele>
        <time>2018-07-28T03:07:54Z</time>
      </trkpt>
      <trkpt lat="36.69094" lon="-5.018632">
        <ele>1737.369</ele>
        <time>2018-07-28T03:07:57Z</time>
      </trkpt>
      <trkpt lat="36.69098" lon="-5.018608">
        <ele>1737.876</ele>
        <time>2018-07-28T03:08:00Z</time>
      </trkpt>
      <trkpt lat="36.69099" lon="-5.018567">
        <ele>1737.922</ele>
        <time>2018-07-28T03:08:04Z</time>
      </trkpt>
      <trkpt lat="36.69101" lon="-5.018538">
        <ele>1737.909</ele>
        <time>2018-07-28T03:08:06Z</time>
      </trkpt>
      <trkpt lat="36.69101" lon="-5.018523">
        <ele>1737.753</ele>
        <time>2018-07-28T03:08:07Z</time>
      </trkpt>
      <trkpt lat="36.69102" lon="-5.018485">
        <ele>1737.854</ele>
        <time>2018-07-28T03:08:10Z</time>
      </trkpt>
      <trkpt lat="36.69102" lon="-5.018472">
        <ele>1737.721</ele>
        <time>2018-07-28T03:08:11Z</time>
      </trkpt>
      <trkpt lat="36.69103" lon="-5.018459">
        <ele>1737.785</ele>
        <time>2018-07-28T03:08:12Z</time>
      </trkpt>
      <trkpt lat="36.69105" lon="-5.018406">
        <ele>1737.755</ele>
        <time>2018-07-28T03:08:16Z</time>
      </trkpt>
      <trkpt lat="36.69106" lon="-5.018393">
        <ele>1737.728</ele>
        <time>2018-07-28T03:08:17Z</time>
      </trkpt>
      <trkpt lat="36.69108" lon="-5.018342">
        <ele>1737.844</ele>
        <time>2018-07-28T03:08:21Z</time>
      </trkpt>
      <trkpt lat="36.69109" lon="-5.01833">
        <ele>1737.942</ele>
        <time>2018-07-28T03:08:22Z</time>
      </trkpt>
      <trkpt lat="36.6911" lon="-5.018305">
        <ele>1738.054</ele>
        <time>2018-07-28T03:08:24Z</time>
      </trkpt>
      <trkpt lat="36.6911" lon="-5.018256">
        <ele>1737.768</ele>
        <time>2018-07-28T03:08:27Z</time>
      </trkpt>
      <trkpt lat="36.69111" lon="-5.018159">
        <ele>1737.202</ele>
        <time>2018-07-28T03:08:33Z</time>
      </trkpt>
      <trkpt lat="36.69111" lon="-5.018145">
        <ele>1737.201</ele>
        <time>2018-07-28T03:08:34Z</time>
      </trkpt>
      <trkpt lat="36.69113" lon="-5.018109">
        <ele>1737.352</ele>
        <time>2018-07-28T03:08:37Z</time>
      </trkpt>
      <trkpt lat="36.69115" lon="-5.018064">
        <ele>1737.554</ele>
        <time>2018-07-28T03:08:42Z</time>
      </trkpt>
      <trkpt lat="36.69116" lon="-5.01798">
        <ele>1737.352</ele>
        <time>2018-07-28T03:08:47Z</time>
      </trkpt>
      <trkpt lat="36.69117" lon="-5.017919">
        <ele>1737.225</ele>
        <time>2018-07-28T03:08:51Z</time>
      </trkpt>
      <trkpt lat="36.69118" lon="-5.017889">
        <ele>1737.225</ele>
        <time>2018-07-28T03:08:53Z</time>
      </trkpt>
      <trkpt lat="36.69118" lon="-5.017849">
        <ele>1736.921</ele>
        <time>2018-07-28T03:08:56Z</time>
      </trkpt>
      <trkpt lat="36.69118" lon="-5.017833">
        <ele>1736.918</ele>
        <time>2018-07-28T03:08:57Z</time>
      </trkpt>
      <trkpt lat="36.69118" lon="-5.017818">
        <ele>1736.802</ele>
        <time>2018-07-28T03:08:58Z</time>
      </trkpt>
      <trkpt lat="36.69119" lon="-5.01779">
        <ele>1736.707</ele>
        <time>2018-07-28T03:09:00Z</time>
      </trkpt>
      <trkpt lat="36.69119" lon="-5.017733">
        <ele>1736.396</ele>
        <time>2018-07-28T03:09:04Z</time>
      </trkpt>
      <trkpt lat="36.6912" lon="-5.017694">
        <ele>1736.341</ele>
        <time>2018-07-28T03:09:07Z</time>
      </trkpt>
      <trkpt lat="36.6912" lon="-5.01768">
        <ele>1736.357</ele>
        <time>2018-07-28T03:09:08Z</time>
      </trkpt>
      <trkpt lat="36.69121" lon="-5.017644">
        <ele>1736.207</ele>
        <time>2018-07-28T03:09:11Z</time>
      </trkpt>
      <trkpt lat="36.69122" lon="-5.017581">
        <ele>1735.982</ele>
        <time>2018-07-28T03:09:16Z</time>
      </trkpt>
      <trkpt lat="36.69121" lon="-5.017568">
        <ele>1735.765</ele>
        <time>2018-07-28T03:09:17Z</time>
      </trkpt>
      <trkpt lat="36.69121" lon="-5.017551">
        <ele>1735.637</ele>
        <time>2018-07-28T03:09:18Z</time>
      </trkpt>
      <trkpt lat="36.69121" lon="-5.017517">
        <ele>1735.263</ele>
        <time>2018-07-28T03:09:20Z</time>
      </trkpt>
      <trkpt lat="36.69121" lon="-5.017487">
        <ele>1735.232</ele>
        <time>2018-07-28T03:09:22Z</time>
      </trkpt>
      <trkpt lat="36.69122" lon="-5.017427">
        <ele>1735.229</ele>
        <time>2018-07-28T03:09:26Z</time>
      </trkpt>
      <trkpt lat="36.69121" lon="-5.017409">
        <ele>1735.07</ele>
        <time>2018-07-28T03:09:27Z</time>
      </trkpt>
      <trkpt lat="36.69122" lon="-5.017366">
        <ele>1735.101</ele>
        <time>2018-07-28T03:09:30Z</time>
      </trkpt>
      <trkpt lat="36.69122" lon="-5.017316">
        <ele>1734.996</ele>
        <time>2018-07-28T03:09:34Z</time>
      </trkpt>
      <trkpt lat="36.69122" lon="-5.01729">
        <ele>1734.942</ele>
        <time>2018-07-28T03:09:36Z</time>
      </trkpt>
      <trkpt lat="36.69121" lon="-5.01728">
        <ele>1734.804</ele>
        <time>2018-07-28T03:09:37Z</time>
      </trkpt>
      <trkpt lat="36.6912" lon="-5.017233">
        <ele>1734.362</ele>
        <time>2018-07-28T03:09:41Z</time>
      </trkpt>
      <trkpt lat="36.6912" lon="-5.017152">
        <ele>1734.09</ele>
        <time>2018-07-28T03:09:47Z</time>
      </trkpt>
      <trkpt lat="36.6912" lon="-5.017137">
        <ele>1734.062</ele>
        <time>2018-07-28T03:09:48Z</time>
      </trkpt>
      <trkpt lat="36.6912" lon="-5.017095">
        <ele>1734.091</ele>
        <time>2018-07-28T03:09:51Z</time>
      </trkpt>
      <trkpt lat="36.6912" lon="-5.017048">
        <ele>1733.998</ele>
        <time>2018-07-28T03:09:55Z</time>
      </trkpt>
      <trkpt lat="36.6912" lon="-5.017021">
        <ele>1733.945</ele>
        <time>2018-07-28T03:09:57Z</time>
      </trkpt>
      <trkpt lat="36.6912" lon="-5.016936">
        <ele>1733.777</ele>
        <time>2018-07-28T03:10:03Z</time>
      </trkpt>
      <trkpt lat="36.6912" lon="-5.01688">
        <ele>1733.564</ele>
        <time>2018-07-28T03:10:07Z</time>
      </trkpt>
      <trkpt lat="36.6912" lon="-5.016812">
        <ele>1733.532</ele>
        <time>2018-07-28T03:10:11Z</time>
      </trkpt>
      <trkpt lat="36.6912" lon="-5.016728">
        <ele>1733.269</ele>
        <time>2018-07-28T03:10:17Z</time>
      </trkpt>
      <trkpt lat="36.6912" lon="-5.016715">
        <ele>1733.244</ele>
        <time>2018-07-28T03:10:18Z</time>
      </trkpt>
      <trkpt lat="36.6912" lon="-5.016631">
        <ele>1732.84</ele>
        <time>2018-07-28T03:10:24Z</time>
      </trkpt>
      <trkpt lat="36.69121" lon="-5.016604">
        <ele>1732.717</ele>
        <time>2018-07-28T03:10:26Z</time>
      </trkpt>
      <trkpt lat="36.69121" lon="-5.01659">
        <ele>1732.557</ele>
        <time>2018-07-28T03:10:27Z</time>
      </trkpt>
      <trkpt lat="36.69121" lon="-5.016562">
        <ele>1732.233</ele>
        <time>2018-07-28T03:10:29Z</time>
      </trkpt>
      <trkpt lat="36.69122" lon="-5.016539">
        <ele>1732.151</ele>
        <time>2018-07-28T03:10:31Z</time>
      </trkpt>
      <trkpt lat="36.69122" lon="-5.016517">
        <ele>1731.986</ele>
        <time>2018-07-28T03:10:33Z</time>
      </trkpt>
      <trkpt lat="36.69122" lon="-5.016505">
        <ele>1731.841</ele>
        <time>2018-07-28T03:10:34Z</time>
      </trkpt>
      <trkpt lat="36.69122" lon="-5.016494">
        <ele>1731.714</ele>
        <time>2018-07-28T03:10:35Z</time>
      </trkpt>
      <trkpt lat="36.69123" lon="-5.016464">
        <ele>1731.544</ele>
        <time>2018-07-28T03:10:37Z</time>
      </trkpt>
      <trkpt lat="36.69126" lon="-5.016394">
        <ele>1731.395</ele>
        <time>2018-07-28T03:10:42Z</time>
      </trkpt>
      <trkpt lat="36.69127" lon="-5.016374">
        <ele>1731.486</ele>
        <time>2018-07-28T03:10:44Z</time>
      </trkpt>
      <trkpt lat="36.6913" lon="-5.016342">
        <ele>1731.585</ele>
        <time>2018-07-28T03:10:47Z</time>
      </trkpt>
      <trkpt lat="36.69131" lon="-5.016333">
        <ele>1731.716</ele>
        <time>2018-07-28T03:10:48Z</time>
      </trkpt>
      <trkpt lat="36.69133" lon="-5.016322">
        <ele>1732.063</ele>
        <time>2018-07-28T03:10:50Z</time>
      </trkpt>
      <trkpt lat="36.69135" lon="-5.016308">
        <ele>1732.36</ele>
        <time>2018-07-28T03:10:52Z</time>
      </trkpt>
      <trkpt lat="36.6914" lon="-5.016287">
        <ele>1733.117</ele>
        <time>2018-07-28T03:10:56Z</time>
      </trkpt>
      <trkpt lat="36.69141" lon="-5.016284">
        <ele>1733.236</ele>
        <time>2018-07-28T03:10:57Z</time>
      </trkpt>
      <trkpt lat="36.69143" lon="-5.016281">
        <ele>1733.513</ele>
        <time>2018-07-28T03:10:58Z</time>
      </trkpt>
      <trkpt lat="36.69146" lon="-5.016275">
        <ele>1734.057</ele>
        <time>2018-07-28T03:11:01Z</time>
      </trkpt>
      <trkpt lat="36.69146" lon="-5.016275">
        <ele>1734.215</ele>
        <time>2018-07-28T03:11:02Z</time>
      </trkpt>
      <trkpt lat="36.69148" lon="-5.016273">
        <ele>1734.582</ele>
        <time>2018-07-28T03:11:03Z</time>
      </trkpt>
      <trkpt lat="36.69152" lon="-5.016252">
        <ele>1735.131</ele>
        <time>2018-07-28T03:11:07Z</time>
      </trkpt>
      <trkpt lat="36.69157" lon="-5.016215">
        <ele>1735.406</ele>
        <time>2018-07-28T03:11:12Z</time>
      </trkpt>
      <trkpt lat="36.69161" lon="-5.016199">
        <ele>1736.067</ele>
        <time>2018-07-28T03:11:17Z</time>
      </trkpt>
      <trkpt lat="36.69162" lon="-5.016193">
        <ele>1736.192</ele>
        <time>2018-07-28T03:11:18Z</time>
      </trkpt>
      <trkpt lat="36.69163" lon="-5.016187">
        <ele>1736.249</ele>
        <time>2018-07-28T03:11:19Z</time>
      </trkpt>
      <trkpt lat="36.69164" lon="-5.016178">
        <ele>1736.25</ele>
        <time>2018-07-28T03:11:20Z</time>
      </trkpt>
      <trkpt lat="36.69165" lon="-5.016171">
        <ele>1736.281</ele>
        <time>2018-07-28T03:11:21Z</time>
      </trkpt>
      <trkpt lat="36.69168" lon="-5.016148">
        <ele>1736.542</ele>
        <time>2018-07-28T03:11:25Z</time>
      </trkpt>
      <trkpt lat="36.69169" lon="-5.016141">
        <ele>1736.625</ele>
        <time>2018-07-28T03:11:26Z</time>
      </trkpt>
      <trkpt lat="36.6917" lon="-5.016135">
        <ele>1736.664</ele>
        <time>2018-07-28T03:11:27Z</time>
      </trkpt>
      <trkpt lat="36.69173" lon="-5.016099">
        <ele>1736.647</ele>
        <time>2018-07-28T03:11:32Z</time>
      </trkpt>
      <trkpt lat="36.69174" lon="-5.016095">
        <ele>1736.648</ele>
        <time>2018-07-28T03:11:33Z</time>
      </trkpt>
      <trkpt lat="36.69175" lon="-5.016088">
        <ele>1736.657</ele>
        <time>2018-07-28T03:11:34Z</time>
      </trkpt>
      <trkpt lat="36.69178" lon="-5.016059">
        <ele>1736.678</ele>
        <time>2018-07-28T03:11:37Z</time>
      </trkpt>
      <trkpt lat="36.69181" lon="-5.016029">
        <ele>1736.668</ele>
        <time>2018-07-28T03:11:40Z</time>
      </trkpt>
      <trkpt lat="36.69183" lon="-5.016006">
        <ele>1736.711</ele>
        <time>2018-07-28T03:11:42Z</time>
      </trkpt>
      <trkpt lat="36.69189" lon="-5.015949">
        <ele>1736.621</ele>
        <time>2018-07-28T03:11:47Z</time>
      </trkpt>
      <trkpt lat="36.6919" lon="-5.015936">
        <ele>1736.571</ele>
        <time>2018-07-28T03:11:48Z</time>
      </trkpt>
      <trkpt lat="36.69195" lon="-5.015841">
        <ele>1735.532</ele>
        <time>2018-07-28T03:11:55Z</time>
      </trkpt>
      <trkpt lat="36.69196" lon="-5.015825">
        <ele>1735.413</ele>
        <time>2018-07-28T03:11:57Z</time>
      </trkpt>
      <trkpt lat="36.692" lon="-5.015789">
        <ele>1735.364</ele>
        <time>2018-07-28T03:12:01Z</time>
      </trkpt>
      <trkpt lat="36.69201" lon="-5.015783">
        <ele>1735.371</ele>
        <time>2018-07-28T03:12:02Z</time>
      </trkpt>
      <trkpt lat="36.69204" lon="-5.015736">
        <ele>1735.066</ele>
        <time>2018-07-28T03:12:07Z</time>
      </trkpt>
      <trkpt lat="36.69204" lon="-5.015722">
        <ele>1734.868</ele>
        <time>2018-07-28T03:12:08Z</time>
      </trkpt>
      <trkpt lat="36.69207" lon="-5.015644">
        <ele>1733.945</ele>
        <time>2018-07-28T03:12:14Z</time>
      </trkpt>
      <trkpt lat="36.69209" lon="-5.01563">
        <ele>1733.926</ele>
        <time>2018-07-28T03:12:16Z</time>
      </trkpt>
      <trkpt lat="36.6921" lon="-5.015623">
        <ele>1733.924</ele>
        <time>2018-07-28T03:12:17Z</time>
      </trkpt>
      <trkpt lat="36.6921" lon="-5.015612">
        <ele>1733.846</ele>
        <time>2018-07-28T03:12:19Z</time>
      </trkpt>
      <trkpt lat="36.69212" lon="-5.015597">
        <ele>1733.809</ele>
        <time>2018-07-28T03:12:22Z</time>
      </trkpt>
      <trkpt lat="36.69212" lon="-5.015591">
        <ele>1733.766</ele>
        <time>2018-07-28T03:12:23Z</time>
      </trkpt>
      <trkpt lat="36.69212" lon="-5.015584">
        <ele>1733.637</ele>
        <time>2018-07-28T03:12:25Z</time>
      </trkpt>
      <trkpt lat="36.69212" lon="-5.015585">
        <ele>1733.654</ele>
        <time>2018-07-28T03:12:27Z</time>
      </trkpt>
      <trkpt lat="36.69212" lon="-5.015584">
        <ele>1733.637</ele>
        <time>2018-07-28T03:12:29Z</time>
      </trkpt>
      <trkpt lat="36.69213" lon="-5.015572">
        <ele>1733.542</ele>
        <time>2018-07-28T03:12:32Z</time>
      </trkpt>
      <trkpt lat="36.69216" lon="-5.015532">
        <ele>1733.297</ele>
        <time>2018-07-28T03:12:37Z</time>
      </trkpt>
      <trkpt lat="36.69217" lon="-5.015523">
        <ele>1733.193</ele>
        <time>2018-07-28T03:12:38Z</time>
      </trkpt>
      <trkpt lat="36.69218" lon="-5.015493">
        <ele>1732.95</ele>
        <time>2018-07-28T03:12:42Z</time>
      </trkpt>
      <trkpt lat="36.6922" lon="-5.015462">
        <ele>1732.63</ele>
        <time>2018-07-28T03:12:45Z</time>
      </trkpt>
      <trkpt lat="36.69221" lon="-5.015439">
        <ele>1732.397</ele>
        <time>2018-07-28T03:12:47Z</time>
      </trkpt>
      <trkpt lat="36.69225" lon="-5.015388">
        <ele>1732.073</ele>
        <time>2018-07-28T03:12:52Z</time>
      </trkpt>
      <trkpt lat="36.69226" lon="-5.015381">
        <ele>1732.063</ele>
        <time>2018-07-28T03:12:53Z</time>
      </trkpt>
      <trkpt lat="36.69229" lon="-5.015353">
        <ele>1732.042</ele>
        <time>2018-07-28T03:12:57Z</time>
      </trkpt>
      <trkpt lat="36.69233" lon="-5.01532">
        <ele>1732.036</ele>
        <time>2018-07-28T03:13:01Z</time>
      </trkpt>
      <trkpt lat="36.69237" lon="-5.015283">
        <ele>1732.03</ele>
        <time>2018-07-28T03:13:07Z</time>
      </trkpt>
      <trkpt lat="36.69239" lon="-5.015272">
        <ele>1732.13</ele>
        <time>2018-07-28T03:13:09Z</time>
      </trkpt>
      <trkpt lat="36.69243" lon="-5.015204">
        <ele>1731.557</ele>
        <time>2018-07-28T03:13:17Z</time>
      </trkpt>
      <trkpt lat="36.69244" lon="-5.015185">
        <ele>1731.452</ele>
        <time>2018-07-28T03:13:19Z</time>
      </trkpt>
      <trkpt lat="36.6925" lon="-5.015118">
        <ele>1731.171</ele>
        <time>2018-07-28T03:13:26Z</time>
      </trkpt>
      <trkpt lat="36.69251" lon="-5.015108">
        <ele>1731.059</ele>
        <time>2018-07-28T03:13:27Z</time>
      </trkpt>
      <trkpt lat="36.69254" lon="-5.015087">
        <ele>1730.917</ele>
        <time>2018-07-28T03:13:30Z</time>
      </trkpt>
      <trkpt lat="36.69257" lon="-5.015066">
        <ele>1730.803</ele>
        <time>2018-07-28T03:13:33Z</time>
      </trkpt>
      <trkpt lat="36.69262" lon="-5.015034">
        <ele>1730.609</ele>
        <time>2018-07-28T03:13:37Z</time>
      </trkpt>
      <trkpt lat="36.69262" lon="-5.015028">
        <ele>1730.558</ele>
        <time>2018-07-28T03:13:38Z</time>
      </trkpt>
      <trkpt lat="36.69268" lon="-5.014999">
        <ele>1730.493</ele>
        <time>2018-07-28T03:13:44Z</time>
      </trkpt>
      <trkpt lat="36.6927" lon="-5.014987">
        <ele>1730.41</ele>
        <time>2018-07-28T03:13:46Z</time>
      </trkpt>
      <trkpt lat="36.69271" lon="-5.014979">
        <ele>1730.309</ele>
        <time>2018-07-28T03:13:47Z</time>
      </trkpt>
      <trkpt lat="36.69276" lon="-5.014961">
        <ele>1730.355</ele>
        <time>2018-07-28T03:13:52Z</time>
      </trkpt>
      <trkpt lat="36.69277" lon="-5.014961">
        <ele>1730.452</ele>
        <time>2018-07-28T03:13:53Z</time>
      </trkpt>
      <trkpt lat="36.69279" lon="-5.014961">
        <ele>1730.676</ele>
        <time>2018-07-28T03:13:55Z</time>
      </trkpt>
      <trkpt lat="36.69282" lon="-5.014968">
        <ele>1731.014</ele>
        <time>2018-07-28T03:13:57Z</time>
      </trkpt>
      <trkpt lat="36.69286" lon="-5.014985">
        <ele>1731.717</ele>
        <time>2018-07-28T03:14:01Z</time>
      </trkpt>
      <trkpt lat="36.69287" lon="-5.014988">
        <ele>1731.871</ele>
        <time>2018-07-28T03:14:02Z</time>
      </trkpt>
      <trkpt lat="36.69288" lon="-5.014987">
        <ele>1731.916</ele>
        <time>2018-07-28T03:14:03Z</time>
      </trkpt>
      <trkpt lat="36.69289" lon="-5.014986">
        <ele>1731.993</ele>
        <time>2018-07-28T03:14:04Z</time>
      </trkpt>
      <trkpt lat="36.6929" lon="-5.014985">
        <ele>1732.069</ele>
        <time>2018-07-28T03:14:05Z</time>
      </trkpt>
      <trkpt lat="36.69292" lon="-5.014986">
        <ele>1732.249</ele>
        <time>2018-07-28T03:14:07Z</time>
      </trkpt>
      <trkpt lat="36.69294" lon="-5.014979">
        <ele>1732.295</ele>
        <time>2018-07-28T03:14:09Z</time>
      </trkpt>
      <trkpt lat="36.693" lon="-5.014966">
        <ele>1732.513</ele>
        <time>2018-07-28T03:14:15Z</time>
      </trkpt>
      <trkpt lat="36.69302" lon="-5.014962">
        <ele>1732.596</ele>
        <time>2018-07-28T03:14:17Z</time>
      </trkpt>
      <trkpt lat="36.69303" lon="-5.014958">
        <ele>1732.572</ele>
        <time>2018-07-28T03:14:18Z</time>
      </trkpt>
      <trkpt lat="36.69307" lon="-5.014936">
        <ele>1732.477</ele>
        <time>2018-07-28T03:14:22Z</time>
      </trkpt>
      <trkpt lat="36.69309" lon="-5.014933">
        <ele>1732.579</ele>
        <time>2018-07-28T03:14:24Z</time>
      </trkpt>
      <trkpt lat="36.69311" lon="-5.014932">
        <ele>1732.752</ele>
        <time>2018-07-28T03:14:27Z</time>
      </trkpt>
      <trkpt lat="36.69315" lon="-5.01493">
        <ele>1733.024</ele>
        <time>2018-07-28T03:14:31Z</time>
      </trkpt>
      <trkpt lat="36.69317" lon="-5.014925">
        <ele>1733.119</ele>
        <time>2018-07-28T03:14:34Z</time>
      </trkpt>
      <trkpt lat="36.69318" lon="-5.014921">
        <ele>1733.137</ele>
        <time>2018-07-28T03:14:35Z</time>
      </trkpt>
      <trkpt lat="36.69319" lon="-5.014912">
        <ele>1733.016</ele>
        <time>2018-07-28T03:14:37Z</time>
      </trkpt>
      <trkpt lat="36.6932" lon="-5.014904">
        <ele>1732.883</ele>
        <time>2018-07-28T03:14:38Z</time>
      </trkpt>
      <trkpt lat="36.69322" lon="-5.014876">
        <ele>1732.501</ele>
        <time>2018-07-28T03:14:42Z</time>
      </trkpt>
      <trkpt lat="36.69324" lon="-5.014863">
        <ele>1732.399</ele>
        <time>2018-07-28T03:14:44Z</time>
      </trkpt>
      <trkpt lat="36.69327" lon="-5.014847">
        <ele>1732.324</ele>
        <time>2018-07-28T03:14:47Z</time>
      </trkpt>
      <trkpt lat="36.69328" lon="-5.014843">
        <ele>1732.311</ele>
        <time>2018-07-28T03:14:48Z</time>
      </trkpt>
      <trkpt lat="36.69331" lon="-5.014836">
        <ele>1732.453</ele>
        <time>2018-07-28T03:14:51Z</time>
      </trkpt>
      <trkpt lat="36.69335" lon="-5.014833">
        <ele>1732.739</ele>
        <time>2018-07-28T03:14:56Z</time>
      </trkpt>
      <trkpt lat="36.69336" lon="-5.014834">
        <ele>1732.849</ele>
        <time>2018-07-28T03:14:57Z</time>
      </trkpt>
      <trkpt lat="36.69337" lon="-5.014831">
        <ele>1732.851</ele>
        <time>2018-07-28T03:14:58Z</time>
      </trkpt>
      <trkpt lat="36.69338" lon="-5.014826">
        <ele>1732.806</ele>
        <time>2018-07-28T03:14:59Z</time>
      </trkpt>
      <trkpt lat="36.69344" lon="-5.014801">
        <ele>1732.796</ele>
        <time>2018-07-28T03:15:05Z</time>
      </trkpt>
      <trkpt lat="36.69346" lon="-5.01479">
        <ele>1732.732</ele>
        <time>2018-07-28T03:15:07Z</time>
      </trkpt>
      <trkpt lat="36.6935" lon="-5.014751">
        <ele>1732.303</ele>
        <time>2018-07-28T03:15:12Z</time>
      </trkpt>
      <trkpt lat="36.69351" lon="-5.014729">
        <ele>1731.967</ele>
        <time>2018-07-28T03:15:14Z</time>
      </trkpt>
      <trkpt lat="36.69353" lon="-5.014692">
        <ele>1731.432</ele>
        <time>2018-07-28T03:15:17Z</time>
      </trkpt>
      <trkpt lat="36.69354" lon="-5.014657">
        <ele>1730.819</ele>
        <time>2018-07-28T03:15:20Z</time>
      </trkpt>
      <trkpt lat="36.69354" lon="-5.014632">
        <ele>1730.336</ele>
        <time>2018-07-28T03:15:22Z</time>
      </trkpt>
      <trkpt lat="36.69353" lon="-5.014612">
        <ele>1729.877</ele>
        <time>2018-07-28T03:15:24Z</time>
      </trkpt>
      <trkpt lat="36.69353" lon="-5.014577">
        <ele>1729.119</ele>
        <time>2018-07-28T03:15:27Z</time>
      </trkpt>
      <trkpt lat="36.69352" lon="-5.014553">
        <ele>1728.618</ele>
        <time>2018-07-28T03:15:29Z</time>
      </trkpt>
      <trkpt lat="36.69353" lon="-5.014533">
        <ele>1728.296</ele>
        <time>2018-07-28T03:15:31Z</time>
      </trkpt>
      <trkpt lat="36.69353" lon="-5.014521">
        <ele>1728.099</ele>
        <time>2018-07-28T03:15:32Z</time>
      </trkpt>
      <trkpt lat="36.69354" lon="-5.014461">
        <ele>1726.962</ele>
        <time>2018-07-28T03:15:37Z</time>
      </trkpt>
      <trkpt lat="36.69357" lon="-5.014375">
        <ele>1725.627</ele>
        <time>2018-07-28T03:15:45Z</time>
      </trkpt>
      <trkpt lat="36.69358" lon="-5.014363">
        <ele>1725.425</ele>
        <time>2018-07-28T03:15:46Z</time>
      </trkpt>
      <trkpt lat="36.69358" lon="-5.014353">
        <ele>1725.231</ele>
        <time>2018-07-28T03:15:47Z</time>
      </trkpt>
      <trkpt lat="36.69359" lon="-5.014319">
        <ele>1724.692</ele>
        <time>2018-07-28T03:15:50Z</time>
      </trkpt>
      <trkpt lat="36.6936" lon="-5.014301">
        <ele>1724.42</ele>
        <time>2018-07-28T03:15:52Z</time>
      </trkpt>
      <trkpt lat="36.6936" lon="-5.014289">
        <ele>1724.191</ele>
        <time>2018-07-28T03:15:53Z</time>
      </trkpt>
      <trkpt lat="36.69361" lon="-5.014273">
        <ele>1724.006</ele>
        <time>2018-07-28T03:15:55Z</time>
      </trkpt>
      <trkpt lat="36.69362" lon="-5.014254">
        <ele>1723.798</ele>
        <time>2018-07-28T03:15:57Z</time>
      </trkpt>
      <trkpt lat="36.69364" lon="-5.014236">
        <ele>1723.611</ele>
        <time>2018-07-28T03:15:59Z</time>
      </trkpt>
      <trkpt lat="36.6937" lon="-5.01419">
        <ele>1723.391</ele>
        <time>2018-07-28T03:16:05Z</time>
      </trkpt>
      <trkpt lat="36.69371" lon="-5.014185">
        <ele>1723.374</ele>
        <time>2018-07-28T03:16:06Z</time>
      </trkpt>
      <trkpt lat="36.69372" lon="-5.014179">
        <ele>1723.389</ele>
        <time>2018-07-28T03:16:07Z</time>
      </trkpt>
      <trkpt lat="36.69378" lon="-5.014154">
        <ele>1723.717</ele>
        <time>2018-07-28T03:16:13Z</time>
      </trkpt>
      <trkpt lat="36.69379" lon="-5.014152">
        <ele>1723.827</ele>
        <time>2018-07-28T03:16:14Z</time>
      </trkpt>
      <trkpt lat="36.69381" lon="-5.014144">
        <ele>1724.017</ele>
        <time>2018-07-28T03:16:17Z</time>
      </trkpt>
      <trkpt lat="36.69383" lon="-5.014131">
        <ele>1724.091</ele>
        <time>2018-07-28T03:16:19Z</time>
      </trkpt>
      <trkpt lat="36.69383" lon="-5.014121">
        <ele>1724.061</ele>
        <time>2018-07-28T03:16:20Z</time>
      </trkpt>
      <trkpt lat="36.69385" lon="-5.014102">
        <ele>1724.096</ele>
        <time>2018-07-28T03:16:22Z</time>
      </trkpt>
      <trkpt lat="36.69389" lon="-5.01407">
        <ele>1724.307</ele>
        <time>2018-07-28T03:16:27Z</time>
      </trkpt>
      <trkpt lat="36.69389" lon="-5.014065">
        <ele>1724.36</ele>
        <time>2018-07-28T03:16:28Z</time>
      </trkpt>
      <trkpt lat="36.69392" lon="-5.014046">
        <ele>1724.501</ele>
        <time>2018-07-28T03:16:31Z</time>
      </trkpt>
      <trkpt lat="36.69394" lon="-5.014034">
        <ele>1724.643</ele>
        <time>2018-07-28T03:16:33Z</time>
      </trkpt>
      <trkpt lat="36.69396" lon="-5.014018">
        <ele>1724.813</ele>
        <time>2018-07-28T03:16:35Z</time>
      </trkpt>
      <trkpt lat="36.69398" lon="-5.013999">
        <ele>1724.922</ele>
        <time>2018-07-28T03:16:37Z</time>
      </trkpt>
      <trkpt lat="36.69402" lon="-5.013955">
        <ele>1725.169</ele>
        <time>2018-07-28T03:16:42Z</time>
      </trkpt>
      <trkpt lat="36.69407" lon="-5.013914">
        <ele>1725.554</ele>
        <time>2018-07-28T03:16:47Z</time>
      </trkpt>
      <trkpt lat="36.69408" lon="-5.013897">
        <ele>1725.557</ele>
        <time>2018-07-28T03:16:49Z</time>
      </trkpt>
      <trkpt lat="36.69408" lon="-5.013893">
        <ele>1725.585</ele>
        <time>2018-07-28T03:16:53Z</time>
      </trkpt>
      <trkpt lat="36.69408" lon="-5.013892">
        <ele>1725.58</ele>
        <time>2018-07-28T03:16:57Z</time>
      </trkpt>
      <trkpt lat="36.69408" lon="-5.013893">
        <ele>1725.585</ele>
        <time>2018-07-28T03:16:59Z</time>
      </trkpt>
      <trkpt lat="36.69408" lon="-5.013892">
        <ele>1725.628</ele>
        <time>2018-07-28T03:17:04Z</time>
      </trkpt>
      <trkpt lat="36.69408" lon="-5.013889">
        <ele>1725.61</ele>
        <time>2018-07-28T03:17:07Z</time>
      </trkpt>
      <trkpt lat="36.69408" lon="-5.013871">
        <ele>1725.417</ele>
        <time>2018-07-28T03:17:10Z</time>
      </trkpt>
      <trkpt lat="36.69408" lon="-5.01384">
        <ele>1725.298</ele>
        <time>2018-07-28T03:17:13Z</time>
      </trkpt>
      <trkpt lat="36.6941" lon="-5.013824">
        <ele>1725.463</ele>
        <time>2018-07-28T03:17:17Z</time>
      </trkpt>
      <trkpt lat="36.6941" lon="-5.013823">
        <ele>1725.509</ele>
        <time>2018-07-28T03:17:18Z</time>
      </trkpt>
      <trkpt lat="36.69411" lon="-5.013823">
        <ele>1725.559</ele>
        <time>2018-07-28T03:17:20Z</time>
      </trkpt>
      <trkpt lat="36.69411" lon="-5.013824">
        <ele>1725.615</ele>
        <time>2018-07-28T03:17:21Z</time>
      </trkpt>
      <trkpt lat="36.69411" lon="-5.013816">
        <ele>1725.624</ele>
        <time>2018-07-28T03:17:26Z</time>
      </trkpt>
      <trkpt lat="36.69411" lon="-5.013808">
        <ele>1725.531</ele>
        <time>2018-07-28T03:17:27Z</time>
      </trkpt>
      <trkpt lat="36.6941" lon="-5.013793">
        <ele>1725.248</ele>
        <time>2018-07-28T03:17:30Z</time>
      </trkpt>
      <trkpt lat="36.69407" lon="-5.013782">
        <ele>1724.879</ele>
        <time>2018-07-28T03:17:37Z</time>
      </trkpt>
      <trkpt lat="36.69407" lon="-5.013781">
        <ele>1724.874</ele>
        <time>2018-07-28T03:17:38Z</time>
      </trkpt>
      <trkpt lat="36.69407" lon="-5.013781">
        <ele>1724.822</ele>
        <time>2018-07-28T03:17:47Z</time>
      </trkpt>
      <trkpt lat="36.69407" lon="-5.013783">
        <ele>1724.832</ele>
        <time>2018-07-28T03:17:52Z</time>
      </trkpt>
      <trkpt lat="36.69407" lon="-5.013784">
        <ele>1724.838</ele>
        <time>2018-07-28T03:17:55Z</time>
      </trkpt>
      <trkpt lat="36.69407" lon="-5.013784">
        <ele>1724.838</ele>
        <time>2018-07-28T03:17:57Z</time>
      </trkpt>
      <trkpt lat="36.69407" lon="-5.013777">
        <ele>1724.85</ele>
        <time>2018-07-28T03:18:03Z</time>
      </trkpt>
      <trkpt lat="36.69407" lon="-5.013738">
        <ele>1724.639</ele>
        <time>2018-07-28T03:18:07Z</time>
      </trkpt>
      <trkpt lat="36.69407" lon="-5.013729">
        <ele>1724.536</ele>
        <time>2018-07-28T03:18:08Z</time>
      </trkpt>
      <trkpt lat="36.69404" lon="-5.013622">
        <ele>1723.496</ele>
        <time>2018-07-28T03:18:17Z</time>
      </trkpt>
      <trkpt lat="36.69402" lon="-5.013585">
        <ele>1723.057</ele>
        <time>2018-07-28T03:18:20Z</time>
      </trkpt>
      <trkpt lat="36.69402" lon="-5.013553">
        <ele>1722.755</ele>
        <time>2018-07-28T03:18:23Z</time>
      </trkpt>
      <trkpt lat="36.69402" lon="-5.013541">
        <ele>1722.685</ele>
        <time>2018-07-28T03:18:24Z</time>
      </trkpt>
      <trkpt lat="36.69402" lon="-5.01352">
        <ele>1722.676</ele>
        <time>2018-07-28T03:18:26Z</time>
      </trkpt>
      <trkpt lat="36.69402" lon="-5.013507">
        <ele>1722.601</ele>
        <time>2018-07-28T03:18:27Z</time>
      </trkpt>
      <trkpt lat="36.69404" lon="-5.013474">
        <ele>1722.65</ele>
        <time>2018-07-28T03:18:30Z</time>
      </trkpt>
      <trkpt lat="36.69404" lon="-5.013463">
        <ele>1722.648</ele>
        <time>2018-07-28T03:18:31Z</time>
      </trkpt>
      <trkpt lat="36.69404" lon="-5.013451">
        <ele>1722.58</ele>
        <time>2018-07-28T03:18:32Z</time>
      </trkpt>
      <trkpt lat="36.69405" lon="-5.013439">
        <ele>1722.573</ele>
        <time>2018-07-28T03:18:33Z</time>
      </trkpt>
      <trkpt lat="36.69405" lon="-5.013394">
        <ele>1722.441</ele>
        <time>2018-07-28T03:18:37Z</time>
      </trkpt>
      <trkpt lat="36.69406" lon="-5.013297">
        <ele>1722.425</ele>
        <time>2018-07-28T03:18:44Z</time>
      </trkpt>
      <trkpt lat="36.69406" lon="-5.013286">
        <ele>1722.484</ele>
        <time>2018-07-28T03:18:45Z</time>
      </trkpt>
      <trkpt lat="36.69405" lon="-5.013263">
        <ele>1722.476</ele>
        <time>2018-07-28T03:18:47Z</time>
      </trkpt>
      <trkpt lat="36.69404" lon="-5.01323">
        <ele>1722.456</ele>
        <time>2018-07-28T03:18:50Z</time>
      </trkpt>
      <trkpt lat="36.69403" lon="-5.013138">
        <ele>1722.668</ele>
        <time>2018-07-28T03:18:57Z</time>
      </trkpt>
      <trkpt lat="36.69402" lon="-5.013022">
        <ele>1723.199</ele>
        <time>2018-07-28T03:19:05Z</time>
      </trkpt>
      <trkpt lat="36.69402" lon="-5.012997">
        <ele>1723.256</ele>
        <time>2018-07-28T03:19:07Z</time>
      </trkpt>
      <trkpt lat="36.694" lon="-5.012934">
        <ele>1723.289</ele>
        <time>2018-07-28T03:19:13Z</time>
      </trkpt>
      <trkpt lat="36.694" lon="-5.012908">
        <ele>1723.422</ele>
        <time>2018-07-28T03:19:15Z</time>
      </trkpt>
      <trkpt lat="36.694" lon="-5.012882">
        <ele>1723.478</ele>
        <time>2018-07-28T03:19:17Z</time>
      </trkpt>
      <trkpt lat="36.69399" lon="-5.012835">
        <ele>1723.566</ele>
        <time>2018-07-28T03:19:21Z</time>
      </trkpt>
      <trkpt lat="36.69399" lon="-5.012823">
        <ele>1723.551</ele>
        <time>2018-07-28T03:19:22Z</time>
      </trkpt>
      <trkpt lat="36.69398" lon="-5.012788">
        <ele>1723.574</ele>
        <time>2018-07-28T03:19:25Z</time>
      </trkpt>
      <trkpt lat="36.69397" lon="-5.012766">
        <ele>1723.529</ele>
        <time>2018-07-28T03:19:27Z</time>
      </trkpt>
      <trkpt lat="36.69396" lon="-5.012734">
        <ele>1723.453</ele>
        <time>2018-07-28T03:19:30Z</time>
      </trkpt>
      <trkpt lat="36.69394" lon="-5.012663">
        <ele>1723.323</ele>
        <time>2018-07-28T03:19:37Z</time>
      </trkpt>
      <trkpt lat="36.69394" lon="-5.012654">
        <ele>1723.286</ele>
        <time>2018-07-28T03:19:38Z</time>
      </trkpt>
      <trkpt lat="36.69394" lon="-5.012634">
        <ele>1723.38</ele>
        <time>2018-07-28T03:19:40Z</time>
      </trkpt>
      <trkpt lat="36.69395" lon="-5.012577">
        <ele>1723.887</ele>
        <time>2018-07-28T03:19:45Z</time>
      </trkpt>
      <trkpt lat="36.69394" lon="-5.012555">
        <ele>1723.828</ele>
        <time>2018-07-28T03:19:47Z</time>
      </trkpt>
      <trkpt lat="36.69392" lon="-5.012484">
        <ele>1723.617</ele>
        <time>2018-07-28T03:19:53Z</time>
      </trkpt>
      <trkpt lat="36.69392" lon="-5.012472">
        <ele>1723.636</ele>
        <time>2018-07-28T03:19:54Z</time>
      </trkpt>
      <trkpt lat="36.69392" lon="-5.012446">
        <ele>1723.677</ele>
        <time>2018-07-28T03:19:56Z</time>
      </trkpt>
      <trkpt lat="36.69392" lon="-5.012431">
        <ele>1723.7</ele>
        <time>2018-07-28T03:19:57Z</time>
      </trkpt>
      <trkpt lat="36.69392" lon="-5.012401">
        <ele>1723.747</ele>
        <time>2018-07-28T03:19:59Z</time>
      </trkpt>
      <trkpt lat="36.69392" lon="-5.012346">
        <ele>1723.907</ele>
        <time>2018-07-28T03:20:04Z</time>
      </trkpt>
      <trkpt lat="36.69392" lon="-5.01231">
        <ele>1723.961</ele>
        <time>2018-07-28T03:20:07Z</time>
      </trkpt>
      <trkpt lat="36.69393" lon="-5.012229">
        <ele>1724.281</ele>
        <time>2018-07-28T03:20:13Z</time>
      </trkpt>
      <trkpt lat="36.69394" lon="-5.012193">
        <ele>1724.456</ele>
        <time>2018-07-28T03:20:16Z</time>
      </trkpt>
      <trkpt lat="36.69394" lon="-5.012179">
        <ele>1724.536</ele>
        <time>2018-07-28T03:20:17Z</time>
      </trkpt>
      <trkpt lat="36.69396" lon="-5.012146">
        <ele>1724.879</ele>
        <time>2018-07-28T03:20:20Z</time>
      </trkpt>
      <trkpt lat="36.69397" lon="-5.012117">
        <ele>1725.022</ele>
        <time>2018-07-28T03:20:23Z</time>
      </trkpt>
      <trkpt lat="36.69398" lon="-5.012065">
        <ele>1725.227</ele>
        <time>2018-07-28T03:20:27Z</time>
      </trkpt>
      <trkpt lat="36.69398" lon="-5.012041">
        <ele>1725.186</ele>
        <time>2018-07-28T03:20:29Z</time>
      </trkpt>
      <trkpt lat="36.69397" lon="-5.01203">
        <ele>1725.138</ele>
        <time>2018-07-28T03:20:30Z</time>
      </trkpt>
      <trkpt lat="36.69397" lon="-5.011981">
        <ele>1725.171</ele>
        <time>2018-07-28T03:20:34Z</time>
      </trkpt>
      <trkpt lat="36.69396" lon="-5.011943">
        <ele>1725.05</ele>
        <time>2018-07-28T03:20:37Z</time>
      </trkpt>
      <trkpt lat="36.69395" lon="-5.011931">
        <ele>1724.964</ele>
        <time>2018-07-28T03:20:38Z</time>
      </trkpt>
      <trkpt lat="36.69395" lon="-5.011888">
        <ele>1724.914</ele>
        <time>2018-07-28T03:20:42Z</time>
      </trkpt>
      <trkpt lat="36.69395" lon="-5.011845">
        <ele>1725.003</ele>
        <time>2018-07-28T03:20:45Z</time>
      </trkpt>
      <trkpt lat="36.69395" lon="-5.011821">
        <ele>1725.028</ele>
        <time>2018-07-28T03:20:47Z</time>
      </trkpt>
      <trkpt lat="36.69395" lon="-5.011788">
        <ele>1725.022</ele>
        <time>2018-07-28T03:20:50Z</time>
      </trkpt>
      <trkpt lat="36.69395" lon="-5.011787">
        <ele>1725.023</ele>
        <time>2018-07-28T03:20:51Z</time>
      </trkpt>
      <trkpt lat="36.69394" lon="-5.011774">
        <ele>1724.922</ele>
        <time>2018-07-28T03:20:53Z</time>
      </trkpt>
      <trkpt lat="36.69392" lon="-5.01173">
        <ele>1724.869</ele>
        <time>2018-07-28T03:20:57Z</time>
      </trkpt>
      <trkpt lat="36.69391" lon="-5.011693">
        <ele>1724.822</ele>
        <time>2018-07-28T03:21:00Z</time>
      </trkpt>
      <trkpt lat="36.69392" lon="-5.011689">
        <ele>1724.862</ele>
        <time>2018-07-28T03:21:03Z</time>
      </trkpt>
      <trkpt lat="36.69391" lon="-5.011662">
        <ele>1724.857</ele>
        <time>2018-07-28T03:21:07Z</time>
      </trkpt>
      <trkpt lat="36.6939" lon="-5.011628">
        <ele>1724.945</ele>
        <time>2018-07-28T03:21:10Z</time>
      </trkpt>
      <trkpt lat="36.69387" lon="-5.011584">
        <ele>1725.038</ele>
        <time>2018-07-28T03:21:14Z</time>
      </trkpt>
      <trkpt lat="36.69387" lon="-5.011571">
        <ele>1725.115</ele>
        <time>2018-07-28T03:21:15Z</time>
      </trkpt>
      <trkpt lat="36.69387" lon="-5.011543">
        <ele>1725.282</ele>
        <time>2018-07-28T03:21:17Z</time>
      </trkpt>
      <trkpt lat="36.69387" lon="-5.011529">
        <ele>1725.345</ele>
        <time>2018-07-28T03:21:18Z</time>
      </trkpt>
      <trkpt lat="36.69384" lon="-5.011423">
        <ele>1725.911</ele>
        <time>2018-07-28T03:21:26Z</time>
      </trkpt>
      <trkpt lat="36.69384" lon="-5.011411">
        <ele>1725.984</ele>
        <time>2018-07-28T03:21:27Z</time>
      </trkpt>
      <trkpt lat="36.69383" lon="-5.0114">
        <ele>1726.053</ele>
        <time>2018-07-28T03:21:28Z</time>
      </trkpt>
      <trkpt lat="36.69383" lon="-5.011361">
        <ele>1726.322</ele>
        <time>2018-07-28T03:21:31Z</time>
      </trkpt>
      <trkpt lat="36.69383" lon="-5.011346">
        <ele>1726.43</ele>
        <time>2018-07-28T03:21:32Z</time>
      </trkpt>
      <trkpt lat="36.69383" lon="-5.011332">
        <ele>1726.529</ele>
        <time>2018-07-28T03:21:33Z</time>
      </trkpt>
      <trkpt lat="36.69384" lon="-5.01132">
        <ele>1726.612</ele>
        <time>2018-07-28T03:21:34Z</time>
      </trkpt>
      <trkpt lat="36.69384" lon="-5.011295">
        <ele>1726.781</ele>
        <time>2018-07-28T03:21:36Z</time>
      </trkpt>
      <trkpt lat="36.69387" lon="-5.011236">
        <ele>1727.125</ele>
        <time>2018-07-28T03:21:40Z</time>
      </trkpt>
      <trkpt lat="36.69387" lon="-5.011222">
        <ele>1727.203</ele>
        <time>2018-07-28T03:21:41Z</time>
      </trkpt>
      <trkpt lat="36.69388" lon="-5.011178">
        <ele>1727.441</ele>
        <time>2018-07-28T03:21:44Z</time>
      </trkpt>
      <trkpt lat="36.69389" lon="-5.011154">
        <ele>1727.549</ele>
        <time>2018-07-28T03:21:46Z</time>
      </trkpt>
      <trkpt lat="36.69389" lon="-5.011143">
        <ele>1727.578</ele>
        <time>2018-07-28T03:21:47Z</time>
      </trkpt>
      <trkpt lat="36.6939" lon="-5.011132">
        <ele>1727.587</ele>
        <time>2018-07-28T03:21:48Z</time>
      </trkpt>
      <trkpt lat="36.69393" lon="-5.011106">
        <ele>1727.579</ele>
        <time>2018-07-28T03:21:51Z</time>
      </trkpt>
      <trkpt lat="36.69396" lon="-5.011084">
        <ele>1727.5</ele>
        <time>2018-07-28T03:21:54Z</time>
      </trkpt>
      <trkpt lat="36.69397" lon="-5.011071">
        <ele>1727.502</ele>
        <time>2018-07-28T03:21:55Z</time>
      </trkpt>
      <trkpt lat="36.69398" lon="-5.011047">
        <ele>1727.512</ele>
        <time>2018-07-28T03:21:57Z</time>
      </trkpt>
      <trkpt lat="36.69399" lon="-5.011026">
        <ele>1727.527</ele>
        <time>2018-07-28T03:21:59Z</time>
      </trkpt>
      <trkpt lat="36.69399" lon="-5.010994">
        <ele>1727.597</ele>
        <time>2018-07-28T03:22:01Z</time>
      </trkpt>
      <trkpt lat="36.69402" lon="-5.010908">
        <ele>1727.627</ele>
        <time>2018-07-28T03:22:07Z</time>
      </trkpt>
      <trkpt lat="36.69402" lon="-5.010894">
        <ele>1727.663</ele>
        <time>2018-07-28T03:22:08Z</time>
      </trkpt>
      <trkpt lat="36.69402" lon="-5.010881">
        <ele>1727.695</ele>
        <time>2018-07-28T03:22:09Z</time>
      </trkpt>
      <trkpt lat="36.69402" lon="-5.010791">
        <ele>1728.128</ele>
        <time>2018-07-28T03:22:16Z</time>
      </trkpt>
      <trkpt lat="36.69402" lon="-5.010779">
        <ele>1728.229</ele>
        <time>2018-07-28T03:22:17Z</time>
      </trkpt>
      <trkpt lat="36.69402" lon="-5.010765">
        <ele>1728.395</ele>
        <time>2018-07-28T03:22:18Z</time>
      </trkpt>
      <trkpt lat="36.694" lon="-5.010732">
        <ele>1728.822</ele>
        <time>2018-07-28T03:22:21Z</time>
      </trkpt>
      <trkpt lat="36.694" lon="-5.010717">
        <ele>1728.953</ele>
        <time>2018-07-28T03:22:22Z</time>
      </trkpt>
      <trkpt lat="36.69401" lon="-5.010696">
        <ele>1729.083</ele>
        <time>2018-07-28T03:22:24Z</time>
      </trkpt>
      <trkpt lat="36.69402" lon="-5.010657">
        <ele>1729.315</ele>
        <time>2018-07-28T03:22:27Z</time>
      </trkpt>
      <trkpt lat="36.69402" lon="-5.010645">
        <ele>1729.365</ele>
        <time>2018-07-28T03:22:28Z</time>
      </trkpt>
      <trkpt lat="36.69402" lon="-5.010605">
        <ele>1729.757</ele>
        <time>2018-07-28T03:22:32Z</time>
      </trkpt>
      <trkpt lat="36.69403" lon="-5.010577">
        <ele>1729.776</ele>
        <time>2018-07-28T03:22:35Z</time>
      </trkpt>
      <trkpt lat="36.69402" lon="-5.010554">
        <ele>1730.081</ele>
        <time>2018-07-28T03:22:37Z</time>
      </trkpt>
      <trkpt lat="36.69403" lon="-5.010524">
        <ele>1730.167</ele>
        <time>2018-07-28T03:22:40Z</time>
      </trkpt>
      <trkpt lat="36.69406" lon="-5.010456">
        <ele>1730.324</ele>
        <time>2018-07-28T03:22:46Z</time>
      </trkpt>
      <trkpt lat="36.69406" lon="-5.010443">
        <ele>1730.429</ele>
        <time>2018-07-28T03:22:47Z</time>
      </trkpt>
      <trkpt lat="36.69407" lon="-5.01043">
        <ele>1730.478</ele>
        <time>2018-07-28T03:22:48Z</time>
      </trkpt>
      <trkpt lat="36.6941" lon="-5.010363">
        <ele>1730.404</ele>
        <time>2018-07-28T03:22:54Z</time>
      </trkpt>
      <trkpt lat="36.69412" lon="-5.010327">
        <ele>1730.435</ele>
        <time>2018-07-28T03:22:57Z</time>
      </trkpt>
      <trkpt lat="36.69414" lon="-5.010288">
        <ele>1730.351</ele>
        <time>2018-07-28T03:23:01Z</time>
      </trkpt>
      <trkpt lat="36.69414" lon="-5.010274">
        <ele>1730.453</ele>
        <time>2018-07-28T03:23:02Z</time>
      </trkpt>
      <trkpt lat="36.69415" lon="-5.010225">
        <ele>1730.752</ele>
        <time>2018-07-28T03:23:06Z</time>
      </trkpt>
      <trkpt lat="36.69415" lon="-5.010212">
        <ele>1730.781</ele>
        <time>2018-07-28T03:23:07Z</time>
      </trkpt>
      <trkpt lat="36.69415" lon="-5.010202">
        <ele>1730.854</ele>
        <time>2018-07-28T03:23:08Z</time>
      </trkpt>
      <trkpt lat="36.69416" lon="-5.010154">
        <ele>1731.072</ele>
        <time>2018-07-28T03:23:12Z</time>
      </trkpt>
      <trkpt lat="36.69417" lon="-5.010117">
        <ele>1731.11</ele>
        <time>2018-07-28T03:23:15Z</time>
      </trkpt>
      <trkpt lat="36.69417" lon="-5.010089">
        <ele>1731.311</ele>
        <time>2018-07-28T03:23:17Z</time>
      </trkpt>
      <trkpt lat="36.69418" lon="-5.010023">
        <ele>1731.699</ele>
        <time>2018-07-28T03:23:22Z</time>
      </trkpt>
      <trkpt lat="36.69418" lon="-5.009982">
        <ele>1731.907</ele>
        <time>2018-07-28T03:23:25Z</time>
      </trkpt>
      <trkpt lat="36.69418" lon="-5.009953">
        <ele>1732.02</ele>
        <time>2018-07-28T03:23:27Z</time>
      </trkpt>
      <trkpt lat="36.69418" lon="-5.009925">
        <ele>1732.09</ele>
        <time>2018-07-28T03:23:29Z</time>
      </trkpt>
      <trkpt lat="36.69417" lon="-5.009912">
        <ele>1732.16</ele>
        <time>2018-07-28T03:23:30Z</time>
      </trkpt>
      <trkpt lat="36.69417" lon="-5.009885">
        <ele>1732.263</ele>
        <time>2018-07-28T03:23:32Z</time>
      </trkpt>
      <trkpt lat="36.69417" lon="-5.009857">
        <ele>1732.33</ele>
        <time>2018-07-28T03:23:34Z</time>
      </trkpt>
      <trkpt lat="36.69416" lon="-5.009817">
        <ele>1732.608</ele>
        <time>2018-07-28T03:23:37Z</time>
      </trkpt>
      <trkpt lat="36.69415" lon="-5.009806">
        <ele>1732.696</ele>
        <time>2018-07-28T03:23:38Z</time>
      </trkpt>
      <trkpt lat="36.69415" lon="-5.00978">
        <ele>1732.879</ele>
        <time>2018-07-28T03:23:40Z</time>
      </trkpt>
      <trkpt lat="36.69414" lon="-5.009753">
        <ele>1732.997</ele>
        <time>2018-07-28T03:23:42Z</time>
      </trkpt>
      <trkpt lat="36.69413" lon="-5.009729">
        <ele>1733.167</ele>
        <time>2018-07-28T03:23:44Z</time>
      </trkpt>
      <trkpt lat="36.69413" lon="-5.009714">
        <ele>1733.255</ele>
        <time>2018-07-28T03:23:45Z</time>
      </trkpt>
      <trkpt lat="36.69412" lon="-5.009687">
        <ele>1733.423</ele>
        <time>2018-07-28T03:23:47Z</time>
      </trkpt>
      <trkpt lat="36.6941" lon="-5.009656">
        <ele>1733.761</ele>
        <time>2018-07-28T03:23:50Z</time>
      </trkpt>
      <trkpt lat="36.6941" lon="-5.009635">
        <ele>1733.904</ele>
        <time>2018-07-28T03:23:52Z</time>
      </trkpt>
      <trkpt lat="36.69409" lon="-5.009622">
        <ele>1733.978</ele>
        <time>2018-07-28T03:23:53Z</time>
      </trkpt>
      <trkpt lat="36.69407" lon="-5.009576">
        <ele>1734.358</ele>
        <time>2018-07-28T03:23:57Z</time>
      </trkpt>
      <trkpt lat="36.69405" lon="-5.009558">
        <ele>1734.583</ele>
        <time>2018-07-28T03:23:59Z</time>
      </trkpt>
      <trkpt lat="36.69405" lon="-5.00955">
        <ele>1734.693</ele>
        <time>2018-07-28T03:24:00Z</time>
      </trkpt>
      <trkpt lat="36.69403" lon="-5.009531">
        <ele>1734.909</ele>
        <time>2018-07-28T03:24:02Z</time>
      </trkpt>
      <trkpt lat="36.69403" lon="-5.009522">
        <ele>1734.964</ele>
        <time>2018-07-28T03:24:03Z</time>
      </trkpt>
      <trkpt lat="36.69402" lon="-5.009514">
        <ele>1735.068</ele>
        <time>2018-07-28T03:24:04Z</time>
      </trkpt>
      <trkpt lat="36.69401" lon="-5.009488">
        <ele>1735.224</ele>
        <time>2018-07-28T03:24:07Z</time>
      </trkpt>
      <trkpt lat="36.69401" lon="-5.009476">
        <ele>1735.228</ele>
        <time>2018-07-28T03:24:08Z</time>
      </trkpt>
      <trkpt lat="36.69398" lon="-5.00943">
        <ele>1735.559</ele>
        <time>2018-07-28T03:24:13Z</time>
      </trkpt>
      <trkpt lat="36.69398" lon="-5.009418">
        <ele>1735.559</ele>
        <time>2018-07-28T03:24:14Z</time>
      </trkpt>
      <trkpt lat="36.69398" lon="-5.009396">
        <ele>1735.602</ele>
        <time>2018-07-28T03:24:16Z</time>
      </trkpt>
      <trkpt lat="36.69397" lon="-5.009384">
        <ele>1735.645</ele>
        <time>2018-07-28T03:24:17Z</time>
      </trkpt>
      <trkpt lat="36.69396" lon="-5.009356">
        <ele>1735.807</ele>
        <time>2018-07-28T03:24:20Z</time>
      </trkpt>
      <trkpt lat="36.69396" lon="-5.009325">
        <ele>1735.798</ele>
        <time>2018-07-28T03:24:23Z</time>
      </trkpt>
      <trkpt lat="36.69395" lon="-5.009317">
        <ele>1735.914</ele>
        <time>2018-07-28T03:24:24Z</time>
      </trkpt>
      <trkpt lat="36.69394" lon="-5.009299">
        <ele>1736.022</ele>
        <time>2018-07-28T03:24:26Z</time>
      </trkpt>
      <trkpt lat="36.69393" lon="-5.009279">
        <ele>1736.085</ele>
        <time>2018-07-28T03:24:28Z</time>
      </trkpt>
      <trkpt lat="36.69392" lon="-5.009269">
        <ele>1736.152</ele>
        <time>2018-07-28T03:24:29Z</time>
      </trkpt>
      <trkpt lat="36.6939" lon="-5.009235">
        <ele>1736.267</ele>
        <time>2018-07-28T03:24:32Z</time>
      </trkpt>
      <trkpt lat="36.6939" lon="-5.009225">
        <ele>1736.327</ele>
        <time>2018-07-28T03:24:33Z</time>
      </trkpt>
      <trkpt lat="36.69389" lon="-5.009202">
        <ele>1736.369</ele>
        <time>2018-07-28T03:24:35Z</time>
      </trkpt>
      <trkpt lat="36.69388" lon="-5.009165">
        <ele>1736.42</ele>
        <time>2018-07-28T03:24:38Z</time>
      </trkpt>
      <trkpt lat="36.69387" lon="-5.009152">
        <ele>1736.432</ele>
        <time>2018-07-28T03:24:39Z</time>
      </trkpt>
      <trkpt lat="36.69386" lon="-5.009115">
        <ele>1736.499</ele>
        <time>2018-07-28T03:24:42Z</time>
      </trkpt>
      <trkpt lat="36.69385" lon="-5.009104">
        <ele>1736.544</ele>
        <time>2018-07-28T03:24:43Z</time>
      </trkpt>
      <trkpt lat="36.69383" lon="-5.009053">
        <ele>1736.649</ele>
        <time>2018-07-28T03:24:47Z</time>
      </trkpt>
      <trkpt lat="36.69382" lon="-5.009038">
        <ele>1736.654</ele>
        <time>2018-07-28T03:24:48Z</time>
      </trkpt>
      <trkpt lat="36.69381" lon="-5.008997">
        <ele>1736.74</ele>
        <time>2018-07-28T03:24:51Z</time>
      </trkpt>
      <trkpt lat="36.69379" lon="-5.008971">
        <ele>1736.82</ele>
        <time>2018-07-28T03:24:53Z</time>
      </trkpt>
      <trkpt lat="36.69378" lon="-5.008935">
        <ele>1736.88</ele>
        <time>2018-07-28T03:24:56Z</time>
      </trkpt>
      <trkpt lat="36.69377" lon="-5.008924">
        <ele>1736.891</ele>
        <time>2018-07-28T03:24:57Z</time>
      </trkpt>
      <trkpt lat="36.69377" lon="-5.008914">
        <ele>1736.904</ele>
        <time>2018-07-28T03:24:58Z</time>
      </trkpt>
      <trkpt lat="36.69376" lon="-5.008905">
        <ele>1736.919</ele>
        <time>2018-07-28T03:24:59Z</time>
      </trkpt>
      <trkpt lat="36.69376" lon="-5.008863">
        <ele>1736.905</ele>
        <time>2018-07-28T03:25:03Z</time>
      </trkpt>
      <trkpt lat="36.69376" lon="-5.008859">
        <ele>1736.898</ele>
        <time>2018-07-28T03:25:04Z</time>
      </trkpt>
      <trkpt lat="36.69375" lon="-5.008851">
        <ele>1736.914</ele>
        <time>2018-07-28T03:25:08Z</time>
      </trkpt>
      <trkpt lat="36.69372" lon="-5.008793">
        <ele>1737.049</ele>
        <time>2018-07-28T03:25:15Z</time>
      </trkpt>
      <trkpt lat="36.69371" lon="-5.008759">
        <ele>1737.076</ele>
        <time>2018-07-28T03:25:18Z</time>
      </trkpt>
      <trkpt lat="36.6937" lon="-5.008735">
        <ele>1737.091</ele>
        <time>2018-07-28T03:25:20Z</time>
      </trkpt>
      <trkpt lat="36.69368" lon="-5.008672">
        <ele>1737.15</ele>
        <time>2018-07-28T03:25:25Z</time>
      </trkpt>
      <trkpt lat="36.69367" lon="-5.008658">
        <ele>1737.181</ele>
        <time>2018-07-28T03:25:26Z</time>
      </trkpt>
      <trkpt lat="36.69366" lon="-5.008632">
        <ele>1737.19</ele>
        <time>2018-07-28T03:25:28Z</time>
      </trkpt>
      <trkpt lat="36.69365" lon="-5.008613">
        <ele>1737.24</ele>
        <time>2018-07-28T03:25:30Z</time>
      </trkpt>
      <trkpt lat="36.69363" lon="-5.00857">
        <ele>1737.33</ele>
        <time>2018-07-28T03:25:34Z</time>
      </trkpt>
      <trkpt lat="36.69361" lon="-5.008533">
        <ele>1737.428</ele>
        <time>2018-07-28T03:25:38Z</time>
      </trkpt>
      <trkpt lat="36.69359" lon="-5.008495">
        <ele>1737.465</ele>
        <time>2018-07-28T03:25:42Z</time>
      </trkpt>
      <trkpt lat="36.69359" lon="-5.008486">
        <ele>1737.474</ele>
        <time>2018-07-28T03:25:43Z</time>
      </trkpt>
      <trkpt lat="36.69358" lon="-5.008429">
        <ele>1737.415</ele>
        <time>2018-07-28T03:25:48Z</time>
      </trkpt>
      <trkpt lat="36.69358" lon="-5.008405">
        <ele>1737.366</ele>
        <time>2018-07-28T03:25:50Z</time>
      </trkpt>
      <trkpt lat="36.69358" lon="-5.008372">
        <ele>1737.271</ele>
        <time>2018-07-28T03:25:53Z</time>
      </trkpt>
      <trkpt lat="36.69358" lon="-5.00836">
        <ele>1737.274</ele>
        <time>2018-07-28T03:25:54Z</time>
      </trkpt>
      <trkpt lat="36.69357" lon="-5.008318">
        <ele>1737.24</ele>
        <time>2018-07-28T03:25:58Z</time>
      </trkpt>
      <trkpt lat="36.69356" lon="-5.008308">
        <ele>1737.21</ele>
        <time>2018-07-28T03:25:59Z</time>
      </trkpt>
      <trkpt lat="36.69356" lon="-5.008282">
        <ele>1737.089</ele>
        <time>2018-07-28T03:26:02Z</time>
      </trkpt>
      <trkpt lat="36.69354" lon="-5.008241">
        <ele>1736.998</ele>
        <time>2018-07-28T03:26:06Z</time>
      </trkpt>
      <trkpt lat="36.69353" lon="-5.008235">
        <ele>1736.991</ele>
        <time>2018-07-28T03:26:07Z</time>
      </trkpt>
      <trkpt lat="36.69353" lon="-5.00823">
        <ele>1737.023</ele>
        <time>2018-07-28T03:26:08Z</time>
      </trkpt>
      <trkpt lat="36.69353" lon="-5.008184">
        <ele>1736.762</ele>
        <time>2018-07-28T03:26:14Z</time>
      </trkpt>
      <trkpt lat="36.69353" lon="-5.008156">
        <ele>1736.573</ele>
        <time>2018-07-28T03:26:16Z</time>
      </trkpt>
      <trkpt lat="36.69353" lon="-5.008132">
        <ele>1736.438</ele>
        <time>2018-07-28T03:26:18Z</time>
      </trkpt>
      <trkpt lat="36.69352" lon="-5.008108">
        <ele>1736.366</ele>
        <time>2018-07-28T03:26:20Z</time>
      </trkpt>
      <trkpt lat="36.69352" lon="-5.008098">
        <ele>1736.309</ele>
        <time>2018-07-28T03:26:21Z</time>
      </trkpt>
      <trkpt lat="36.69349" lon="-5.008044">
        <ele>1736.326</ele>
        <time>2018-07-28T03:26:28Z</time>
      </trkpt>
      <trkpt lat="36.69348" lon="-5.008023">
        <ele>1736.277</ele>
        <time>2018-07-28T03:26:30Z</time>
      </trkpt>
      <trkpt lat="36.69347" lon="-5.008016">
        <ele>1736.306</ele>
        <time>2018-07-28T03:26:31Z</time>
      </trkpt>
      <trkpt lat="36.69343" lon="-5.007968">
        <ele>1736.381</ele>
        <time>2018-07-28T03:26:37Z</time>
      </trkpt>
      <trkpt lat="36.69343" lon="-5.007957">
        <ele>1736.358</ele>
        <time>2018-07-28T03:26:38Z</time>
      </trkpt>
      <trkpt lat="36.69342" lon="-5.007946">
        <ele>1736.334</ele>
        <time>2018-07-28T03:26:39Z</time>
      </trkpt>
      <trkpt lat="36.69342" lon="-5.007938">
        <ele>1736.36</ele>
        <time>2018-07-28T03:26:40Z</time>
      </trkpt>
      <trkpt lat="36.69341" lon="-5.00793">
        <ele>1736.421</ele>
        <time>2018-07-28T03:26:41Z</time>
      </trkpt>
      <trkpt lat="36.69339" lon="-5.007907">
        <ele>1736.407</ele>
        <time>2018-07-28T03:26:43Z</time>
      </trkpt>
      <trkpt lat="36.69338" lon="-5.007888">
        <ele>1736.45</ele>
        <time>2018-07-28T03:26:45Z</time>
      </trkpt>
      <trkpt lat="36.69336" lon="-5.007862">
        <ele>1736.498</ele>
        <time>2018-07-28T03:26:48Z</time>
      </trkpt>
      <trkpt lat="36.69335" lon="-5.007856">
        <ele>1736.538</ele>
        <time>2018-07-28T03:26:49Z</time>
      </trkpt>
      <trkpt lat="36.69329" lon="-5.007811">
        <ele>1737.704</ele>
        <time>2018-07-28T03:26:57Z</time>
      </trkpt>
      <trkpt lat="36.69329" lon="-5.007805">
        <ele>1737.912</ele>
        <time>2018-07-28T03:26:58Z</time>
      </trkpt>
      <trkpt lat="36.69327" lon="-5.00779">
        <ele>1738.317</ele>
        <time>2018-07-28T03:27:00Z</time>
      </trkpt>
      <trkpt lat="36.69326" lon="-5.007777">
        <ele>1738.732</ele>
        <time>2018-07-28T03:27:02Z</time>
      </trkpt>
      <trkpt lat="36.69324" lon="-5.007768">
        <ele>1739.164</ele>
        <time>2018-07-28T03:27:04Z</time>
      </trkpt>
      <trkpt lat="36.69323" lon="-5.007768">
        <ele>1739.521</ele>
        <time>2018-07-28T03:27:05Z</time>
      </trkpt>
      <trkpt lat="36.69321" lon="-5.007756">
        <ele>1740.059</ele>
        <time>2018-07-28T03:27:08Z</time>
      </trkpt>
      <trkpt lat="36.69316" lon="-5.007738">
        <ele>1741.519</ele>
        <time>2018-07-28T03:27:14Z</time>
      </trkpt>
      <trkpt lat="36.69315" lon="-5.007737">
        <ele>1741.991</ele>
        <time>2018-07-28T03:27:16Z</time>
      </trkpt>
      <trkpt lat="36.69313" lon="-5.00773">
        <ele>1742.314</ele>
        <time>2018-07-28T03:27:17Z</time>
      </trkpt>
      <trkpt lat="36.69312" lon="-5.007722">
        <ele>1742.632</ele>
        <time>2018-07-28T03:27:18Z</time>
      </trkpt>
      <trkpt lat="36.69308" lon="-5.00768">
        <ele>1743.859</ele>
        <time>2018-07-28T03:27:24Z</time>
      </trkpt>
      <trkpt lat="36.69306" lon="-5.007665">
        <ele>1744.383</ele>
        <time>2018-07-28T03:27:26Z</time>
      </trkpt>
      <trkpt lat="36.69305" lon="-5.00765">
        <ele>1744.667</ele>
        <time>2018-07-28T03:27:28Z</time>
      </trkpt>
      <trkpt lat="36.69304" lon="-5.00761">
        <ele>1744.831</ele>
        <time>2018-07-28T03:27:31Z</time>
      </trkpt>
      <trkpt lat="36.69303" lon="-5.007599">
        <ele>1744.898</ele>
        <time>2018-07-28T03:27:32Z</time>
      </trkpt>
      <trkpt lat="36.69302" lon="-5.00758">
        <ele>1745.282</ele>
        <time>2018-07-28T03:27:34Z</time>
      </trkpt>
      <trkpt lat="36.693" lon="-5.00757">
        <ele>1745.71</ele>
        <time>2018-07-28T03:27:36Z</time>
      </trkpt>
      <trkpt lat="36.69299" lon="-5.007563">
        <ele>1745.916</ele>
        <time>2018-07-28T03:27:37Z</time>
      </trkpt>
      <trkpt lat="36.69299" lon="-5.007553">
        <ele>1745.987</ele>
        <time>2018-07-28T03:27:38Z</time>
      </trkpt>
      <trkpt lat="36.69293" lon="-5.007478">
        <ele>1747.585</ele>
        <time>2018-07-28T03:27:45Z</time>
      </trkpt>
      <trkpt lat="36.69291" lon="-5.007447">
        <ele>1747.984</ele>
        <time>2018-07-28T03:27:48Z</time>
      </trkpt>
      <trkpt lat="36.69289" lon="-5.007405">
        <ele>1748.709</ele>
        <time>2018-07-28T03:27:52Z</time>
      </trkpt>
      <trkpt lat="36.69288" lon="-5.007395">
        <ele>1748.802</ele>
        <time>2018-07-28T03:27:53Z</time>
      </trkpt>
      <trkpt lat="36.69288" lon="-5.007385">
        <ele>1748.895</ele>
        <time>2018-07-28T03:27:54Z</time>
      </trkpt>
      <trkpt lat="36.69285" lon="-5.007344">
        <ele>1749.73</ele>
        <time>2018-07-28T03:27:58Z</time>
      </trkpt>
      <trkpt lat="36.69284" lon="-5.007333">
        <ele>1749.819</ele>
        <time>2018-07-28T03:27:59Z</time>
      </trkpt>
      <trkpt lat="36.69284" lon="-5.007322">
        <ele>1750.024</ele>
        <time>2018-07-28T03:28:00Z</time>
      </trkpt>
      <trkpt lat="36.69282" lon="-5.007286">
        <ele>1750.397</ele>
        <time>2018-07-28T03:28:03Z</time>
      </trkpt>
      <trkpt lat="36.69281" lon="-5.007262">
        <ele>1750.566</ele>
        <time>2018-07-28T03:28:05Z</time>
      </trkpt>
      <trkpt lat="36.69281" lon="-5.00725">
        <ele>1750.765</ele>
        <time>2018-07-28T03:28:06Z</time>
      </trkpt>
      <trkpt lat="36.6928" lon="-5.00723">
        <ele>1750.943</ele>
        <time>2018-07-28T03:28:08Z</time>
      </trkpt>
      <trkpt lat="36.69279" lon="-5.007218">
        <ele>1751.026</ele>
        <time>2018-07-28T03:28:09Z</time>
      </trkpt>
      <trkpt lat="36.69278" lon="-5.00718">
        <ele>1751.269</ele>
        <time>2018-07-28T03:28:12Z</time>
      </trkpt>
      <trkpt lat="36.69278" lon="-5.007137">
        <ele>1751.263</ele>
        <time>2018-07-28T03:28:15Z</time>
      </trkpt>
      <trkpt lat="36.69278" lon="-5.007126">
        <ele>1751.118</ele>
        <time>2018-07-28T03:28:16Z</time>
      </trkpt>
      <trkpt lat="36.69278" lon="-5.007102">
        <ele>1751.051</ele>
        <time>2018-07-28T03:28:18Z</time>
      </trkpt>
      <trkpt lat="36.69279" lon="-5.007075">
        <ele>1750.861</ele>
        <time>2018-07-28T03:28:20Z</time>
      </trkpt>
      <trkpt lat="36.69278" lon="-5.007064">
        <ele>1750.945</ele>
        <time>2018-07-28T03:28:21Z</time>
      </trkpt>
      <trkpt lat="36.69278" lon="-5.007056">
        <ele>1751.038</ele>
        <time>2018-07-28T03:28:22Z</time>
      </trkpt>
      <trkpt lat="36.69278" lon="-5.007039">
        <ele>1750.876</ele>
        <time>2018-07-28T03:28:24Z</time>
      </trkpt>
      <trkpt lat="36.69279" lon="-5.007021">
        <ele>1750.712</ele>
        <time>2018-07-28T03:28:26Z</time>
      </trkpt>
      <trkpt lat="36.69279" lon="-5.007011">
        <ele>1750.684</ele>
        <time>2018-07-28T03:28:27Z</time>
      </trkpt>
      <trkpt lat="36.69279" lon="-5.007002">
        <ele>1750.432</ele>
        <time>2018-07-28T03:28:28Z</time>
      </trkpt>
      <trkpt lat="36.69282" lon="-5.006963">
        <ele>1749.646</ele>
        <time>2018-07-28T03:28:32Z</time>
      </trkpt>
      <trkpt lat="36.69284" lon="-5.006946">
        <ele>1749.036</ele>
        <time>2018-07-28T03:28:34Z</time>
      </trkpt>
      <trkpt lat="36.69286" lon="-5.006906">
        <ele>1748.143</ele>
        <time>2018-07-28T03:28:38Z</time>
      </trkpt>
      <trkpt lat="36.69287" lon="-5.006867">
        <ele>1747.707</ele>
        <time>2018-07-28T03:28:41Z</time>
      </trkpt>
      <trkpt lat="36.69287" lon="-5.006837">
        <ele>1747.632</ele>
        <time>2018-07-28T03:28:44Z</time>
      </trkpt>
      <trkpt lat="36.69287" lon="-5.006822">
        <ele>1747.594</ele>
        <time>2018-07-28T03:28:46Z</time>
      </trkpt>
      <trkpt lat="36.69288" lon="-5.006799">
        <ele>1747.425</ele>
        <time>2018-07-28T03:28:48Z</time>
      </trkpt>
      <trkpt lat="36.69288" lon="-5.00679">
        <ele>1747.403</ele>
        <time>2018-07-28T03:28:49Z</time>
      </trkpt>
      <trkpt lat="36.69288" lon="-5.006772">
        <ele>1747.357</ele>
        <time>2018-07-28T03:28:51Z</time>
      </trkpt>
      <trkpt lat="36.69288" lon="-5.006762">
        <ele>1747.221</ele>
        <time>2018-07-28T03:28:52Z</time>
      </trkpt>
      <trkpt lat="36.69289" lon="-5.006698">
        <ele>1746.841</ele>
        <time>2018-07-28T03:28:57Z</time>
      </trkpt>
      <trkpt lat="36.69289" lon="-5.006685">
        <ele>1746.698</ele>
        <time>2018-07-28T03:28:58Z</time>
      </trkpt>
      <trkpt lat="36.6929" lon="-5.006658">
        <ele>1746.361</ele>
        <time>2018-07-28T03:29:00Z</time>
      </trkpt>
      <trkpt lat="36.69291" lon="-5.00663">
        <ele>1746.014</ele>
        <time>2018-07-28T03:29:02Z</time>
      </trkpt>
      <trkpt lat="36.69291" lon="-5.006584">
        <ele>1745.628</ele>
        <time>2018-07-28T03:29:05Z</time>
      </trkpt>
      <trkpt lat="36.69291" lon="-5.006569">
        <ele>1745.499</ele>
        <time>2018-07-28T03:29:06Z</time>
      </trkpt>
      <trkpt lat="36.6929" lon="-5.006554">
        <ele>1745.483</ele>
        <time>2018-07-28T03:29:07Z</time>
      </trkpt>
      <trkpt lat="36.6929" lon="-5.006541">
        <ele>1745.479</ele>
        <time>2018-07-28T03:29:08Z</time>
      </trkpt>
      <trkpt lat="36.69289" lon="-5.006528">
        <ele>1745.479</ele>
        <time>2018-07-28T03:29:09Z</time>
      </trkpt>
      <trkpt lat="36.69286" lon="-5.006431">
        <ele>1745.625</ele>
        <time>2018-07-28T03:29:17Z</time>
      </trkpt>
      <trkpt lat="36.69286" lon="-5.006419">
        <ele>1745.523</ele>
        <time>2018-07-28T03:29:18Z</time>
      </trkpt>
      <trkpt lat="36.69284" lon="-5.006373">
        <ele>1745.766</ele>
        <time>2018-07-28T03:29:23Z</time>
      </trkpt>
      <trkpt lat="36.69283" lon="-5.00636">
        <ele>1745.975</ele>
        <time>2018-07-28T03:29:25Z</time>
      </trkpt>
      <trkpt lat="36.69281" lon="-5.006347">
        <ele>1746.289</ele>
        <time>2018-07-28T03:29:27Z</time>
      </trkpt>
      <trkpt lat="36.6928" lon="-5.006342">
        <ele>1746.455</ele>
        <time>2018-07-28T03:29:28Z</time>
      </trkpt>
      <trkpt lat="36.69277" lon="-5.006301">
        <ele>1746.944</ele>
        <time>2018-07-28T03:29:33Z</time>
      </trkpt>
      <trkpt lat="36.69276" lon="-5.006266">
        <ele>1747.059</ele>
        <time>2018-07-28T03:29:36Z</time>
      </trkpt>
      <trkpt lat="36.69275" lon="-5.006245">
        <ele>1746.979</ele>
        <time>2018-07-28T03:29:38Z</time>
      </trkpt>
      <trkpt lat="36.69272" lon="-5.006186">
        <ele>1747.291</ele>
        <time>2018-07-28T03:29:43Z</time>
      </trkpt>
      <trkpt lat="36.6927" lon="-5.006162">
        <ele>1747.807</ele>
        <time>2018-07-28T03:29:46Z</time>
      </trkpt>
      <trkpt lat="36.69268" lon="-5.006149">
        <ele>1748.207</ele>
        <time>2018-07-28T03:29:48Z</time>
      </trkpt>
      <trkpt lat="36.69266" lon="-5.006152">
        <ele>1748.655</ele>
        <time>2018-07-28T03:29:49Z</time>
      </trkpt>
      <trkpt lat="36.69265" lon="-5.006161">
        <ele>1748.946</ele>
        <time>2018-07-28T03:29:50Z</time>
      </trkpt>
      <trkpt lat="36.69265" lon="-5.006179">
        <ele>1749.212</ele>
        <time>2018-07-28T03:29:52Z</time>
      </trkpt>
      <trkpt lat="36.69265" lon="-5.006187">
        <ele>1749.286</ele>
        <time>2018-07-28T03:29:53Z</time>
      </trkpt>
      <trkpt lat="36.69264" lon="-5.006193">
        <ele>1749.553</ele>
        <time>2018-07-28T03:29:54Z</time>
      </trkpt>
      <trkpt lat="36.69264" lon="-5.006202">
        <ele>1749.636</ele>
        <time>2018-07-28T03:29:55Z</time>
      </trkpt>
      <trkpt lat="36.69265" lon="-5.006211">
        <ele>1749.61</ele>
        <time>2018-07-28T03:29:56Z</time>
      </trkpt>
      <trkpt lat="36.69264" lon="-5.00622">
        <ele>1749.798</ele>
        <time>2018-07-28T03:29:57Z</time>
      </trkpt>
      <trkpt lat="36.69265" lon="-5.006228">
        <ele>1749.767</ele>
        <time>2018-07-28T03:29:58Z</time>
      </trkpt>
      <trkpt lat="36.69265" lon="-5.006238">
        <ele>1749.859</ele>
        <time>2018-07-28T03:29:59Z</time>
      </trkpt>
      <trkpt lat="36.69264" lon="-5.006249">
        <ele>1750.065</ele>
        <time>2018-07-28T03:30:00Z</time>
      </trkpt>
      <trkpt lat="36.69265" lon="-5.006263">
        <ele>1749.982</ele>
        <time>2018-07-28T03:30:02Z</time>
      </trkpt>
      <trkpt lat="36.69265" lon="-5.006265">
        <ele>1750.109</ele>
        <time>2018-07-28T03:30:03Z</time>
      </trkpt>
      <trkpt lat="36.69265" lon="-5.00627">
        <ele>1750.153</ele>
        <time>2018-07-28T03:30:04Z</time>
      </trkpt>
      <trkpt lat="36.69265" lon="-5.006291">
        <ele>1750.345</ele>
        <time>2018-07-28T03:30:06Z</time>
      </trkpt>
      <trkpt lat="36.69265" lon="-5.006313">
        <ele>1750.547</ele>
        <time>2018-07-28T03:30:08Z</time>
      </trkpt>
      <trkpt lat="36.69265" lon="-5.006331">
        <ele>1750.607</ele>
        <time>2018-07-28T03:30:10Z</time>
      </trkpt>
      <trkpt lat="36.69265" lon="-5.006349">
        <ele>1750.667</ele>
        <time>2018-07-28T03:30:12Z</time>
      </trkpt>
      <trkpt lat="36.69266" lon="-5.006355">
        <ele>1750.612</ele>
        <time>2018-07-28T03:30:13Z</time>
      </trkpt>
      <trkpt lat="36.69265" lon="-5.00636">
        <ele>1750.767</ele>
        <time>2018-07-28T03:30:14Z</time>
      </trkpt>
      <trkpt lat="36.69264" lon="-5.006358">
        <ele>1751.069</ele>
        <time>2018-07-28T03:30:17Z</time>
      </trkpt>
      <trkpt lat="36.69263" lon="-5.006355">
        <ele>1751.251</ele>
        <time>2018-07-28T03:30:18Z</time>
      </trkpt>
      <trkpt lat="36.69263" lon="-5.006351">
        <ele>1751.322</ele>
        <time>2018-07-28T03:30:19Z</time>
      </trkpt>
      <trkpt lat="36.69262" lon="-5.006341">
        <ele>1751.443</ele>
        <time>2018-07-28T03:30:20Z</time>
      </trkpt>
      <trkpt lat="36.69261" lon="-5.006324">
        <ele>1751.602</ele>
        <time>2018-07-28T03:30:22Z</time>
      </trkpt>
      <trkpt lat="36.6926" lon="-5.006307">
        <ele>1751.765</ele>
        <time>2018-07-28T03:30:24Z</time>
      </trkpt>
      <trkpt lat="36.69258" lon="-5.006286">
        <ele>1751.992</ele>
        <time>2018-07-28T03:30:27Z</time>
      </trkpt>
      <trkpt lat="36.69258" lon="-5.00628">
        <ele>1752.146</ele>
        <time>2018-07-28T03:30:28Z</time>
      </trkpt>
      <trkpt lat="36.69257" lon="-5.006276">
        <ele>1752.321</ele>
        <time>2018-07-28T03:30:29Z</time>
      </trkpt>
      <trkpt lat="36.69254" lon="-5.006239">
        <ele>1752.708</ele>
        <time>2018-07-28T03:30:34Z</time>
      </trkpt>
      <trkpt lat="36.69254" lon="-5.006228">
        <ele>1752.814</ele>
        <time>2018-07-28T03:30:35Z</time>
      </trkpt>
      <trkpt lat="36.69253" lon="-5.006205">
        <ele>1752.806</ele>
        <time>2018-07-28T03:30:37Z</time>
      </trkpt>
      <trkpt lat="36.69252" lon="-5.006194">
        <ele>1752.806</ele>
        <time>2018-07-28T03:30:38Z</time>
      </trkpt>
      <trkpt lat="36.69252" lon="-5.006182">
        <ele>1752.902</ele>
        <time>2018-07-28T03:30:39Z</time>
      </trkpt>
      <trkpt lat="36.69251" lon="-5.006169">
        <ele>1752.878</ele>
        <time>2018-07-28T03:30:40Z</time>
      </trkpt>
      <trkpt lat="36.6925" lon="-5.006147">
        <ele>1753.018</ele>
        <time>2018-07-28T03:30:42Z</time>
      </trkpt>
      <trkpt lat="36.69249" lon="-5.006137">
        <ele>1752.943</ele>
        <time>2018-07-28T03:30:43Z</time>
      </trkpt>
      <trkpt lat="36.69248" lon="-5.006126">
        <ele>1752.863</ele>
        <time>2018-07-28T03:30:44Z</time>
      </trkpt>
      <trkpt lat="36.69247" lon="-5.006119">
        <ele>1752.831</ele>
        <time>2018-07-28T03:30:45Z</time>
      </trkpt>
      <trkpt lat="36.69246" lon="-5.006115">
        <ele>1752.832</ele>
        <time>2018-07-28T03:30:46Z</time>
      </trkpt>
      <trkpt lat="36.69245" lon="-5.006111">
        <ele>1752.822</ele>
        <time>2018-07-28T03:30:47Z</time>
      </trkpt>
      <trkpt lat="36.69244" lon="-5.006108">
        <ele>1752.817</ele>
        <time>2018-07-28T03:30:48Z</time>
      </trkpt>
      <trkpt lat="36.69243" lon="-5.0061">
        <ele>1752.802</ele>
        <time>2018-07-28T03:30:50Z</time>
      </trkpt>
      <trkpt lat="36.69242" lon="-5.006087">
        <ele>1752.714</ele>
        <time>2018-07-28T03:30:52Z</time>
      </trkpt>
      <trkpt lat="36.69242" lon="-5.006085">
        <ele>1752.712</ele>
        <time>2018-07-28T03:30:53Z</time>
      </trkpt>
      <trkpt lat="36.69242" lon="-5.006086">
        <ele>1752.72</ele>
        <time>2018-07-28T03:30:54Z</time>
      </trkpt>
      <trkpt lat="36.69241" lon="-5.00607">
        <ele>1752.602</ele>
        <time>2018-07-28T03:30:58Z</time>
      </trkpt>
      <trkpt lat="36.6924" lon="-5.006057">
        <ele>1752.536</ele>
        <time>2018-07-28T03:31:01Z</time>
      </trkpt>
      <trkpt lat="36.6924" lon="-5.006042">
        <ele>1752.415</ele>
        <time>2018-07-28T03:31:08Z</time>
      </trkpt>
      <trkpt lat="36.69239" lon="-5.006028">
        <ele>1752.335</ele>
        <time>2018-07-28T03:31:10Z</time>
      </trkpt>
      <trkpt lat="36.69238" lon="-5.006014">
        <ele>1752.29</ele>
        <time>2018-07-28T03:31:12Z</time>
      </trkpt>
      <trkpt lat="36.69236" lon="-5.006003">
        <ele>1752.294</ele>
        <time>2018-07-28T03:31:14Z</time>
      </trkpt>
      <trkpt lat="36.69235" lon="-5.006">
        <ele>1752.328</ele>
        <time>2018-07-28T03:31:15Z</time>
      </trkpt>
      <trkpt lat="36.69233" lon="-5.005989">
        <ele>1752.36</ele>
        <time>2018-07-28T03:31:18Z</time>
      </trkpt>
      <trkpt lat="36.69225" lon="-5.005953">
        <ele>1752.5</ele>
        <time>2018-07-28T03:31:26Z</time>
      </trkpt>
      <trkpt lat="36.69225" lon="-5.005942">
        <ele>1752.477</ele>
        <time>2018-07-28T03:31:27Z</time>
      </trkpt>
      <trkpt lat="36.69224" lon="-5.005933">
        <ele>1752.467</ele>
        <time>2018-07-28T03:31:28Z</time>
      </trkpt>
      <trkpt lat="36.69223" lon="-5.005924">
        <ele>1752.462</ele>
        <time>2018-07-28T03:31:29Z</time>
      </trkpt>
      <trkpt lat="36.69218" lon="-5.005895">
        <ele>1752.609</ele>
        <time>2018-07-28T03:31:34Z</time>
      </trkpt>
      <trkpt lat="36.69217" lon="-5.005892">
        <ele>1752.64</ele>
        <time>2018-07-28T03:31:35Z</time>
      </trkpt>
      <trkpt lat="36.69214" lon="-5.005869">
        <ele>1752.733</ele>
        <time>2018-07-28T03:31:38Z</time>
      </trkpt>
      <trkpt lat="36.69213" lon="-5.005854">
        <ele>1752.746</ele>
        <time>2018-07-28T03:31:40Z</time>
      </trkpt>
      <trkpt lat="36.69212" lon="-5.005844">
        <ele>1752.783</ele>
        <time>2018-07-28T03:31:41Z</time>
      </trkpt>
      <trkpt lat="36.6921" lon="-5.005824">
        <ele>1752.702</ele>
        <time>2018-07-28T03:31:43Z</time>
      </trkpt>
      <trkpt lat="36.69209" lon="-5.005811">
        <ele>1752.612</ele>
        <time>2018-07-28T03:31:45Z</time>
      </trkpt>
      <trkpt lat="36.69208" lon="-5.005801">
        <ele>1752.513</ele>
        <time>2018-07-28T03:31:46Z</time>
      </trkpt>
      <trkpt lat="36.69207" lon="-5.00579">
        <ele>1752.401</ele>
        <time>2018-07-28T03:31:47Z</time>
      </trkpt>
      <trkpt lat="36.69207" lon="-5.005779">
        <ele>1752.283</ele>
        <time>2018-07-28T03:31:48Z</time>
      </trkpt>
      <trkpt lat="36.69205" lon="-5.005755">
        <ele>1752.009</ele>
        <time>2018-07-28T03:31:50Z</time>
      </trkpt>
      <trkpt lat="36.69202" lon="-5.005711">
        <ele>1751.634</ele>
        <time>2018-07-28T03:31:54Z</time>
      </trkpt>
      <trkpt lat="36.69201" lon="-5.005699">
        <ele>1751.524</ele>
        <time>2018-07-28T03:31:55Z</time>
      </trkpt>
      <trkpt lat="36.69198" lon="-5.005675">
        <ele>1751.44</ele>
        <time>2018-07-28T03:31:58Z</time>
      </trkpt>
      <trkpt lat="36.69196" lon="-5.005667">
        <ele>1751.573</ele>
        <time>2018-07-28T03:32:00Z</time>
      </trkpt>
      <trkpt lat="36.69193" lon="-5.005661">
        <ele>1751.731</ele>
        <time>2018-07-28T03:32:02Z</time>
      </trkpt>
      <trkpt lat="36.69191" lon="-5.005653">
        <ele>1751.76</ele>
        <time>2018-07-28T03:32:04Z</time>
      </trkpt>
      <trkpt lat="36.69188" lon="-5.005648">
        <ele>1752.016</ele>
        <time>2018-07-28T03:32:07Z</time>
      </trkpt>
      <trkpt lat="36.69187" lon="-5.005646">
        <ele>1752.097</ele>
        <time>2018-07-28T03:32:08Z</time>
      </trkpt>
      <trkpt lat="36.69185" lon="-5.005646">
        <ele>1752.24</ele>
        <time>2018-07-28T03:32:09Z</time>
      </trkpt>
      <trkpt lat="36.69181" lon="-5.005643">
        <ele>1752.627</ele>
        <time>2018-07-28T03:32:13Z</time>
      </trkpt>
      <trkpt lat="36.69177" lon="-5.00566">
        <ele>1753.191</ele>
        <time>2018-07-28T03:32:16Z</time>
      </trkpt>
      <trkpt lat="36.69175" lon="-5.005669">
        <ele>1753.473</ele>
        <time>2018-07-28T03:32:18Z</time>
      </trkpt>
      <trkpt lat="36.6917" lon="-5.00569">
        <ele>1754.125</ele>
        <time>2018-07-28T03:32:23Z</time>
      </trkpt>
      <trkpt lat="36.69168" lon="-5.005694">
        <ele>1754.335</ele>
        <time>2018-07-28T03:32:25Z</time>
      </trkpt>
      <trkpt lat="36.69165" lon="-5.005701">
        <ele>1754.433</ele>
        <time>2018-07-28T03:32:28Z</time>
      </trkpt>
      <trkpt lat="36.69161" lon="-5.005683">
        <ele>1753.988</ele>
        <time>2018-07-28T03:32:32Z</time>
      </trkpt>
      <trkpt lat="36.69156" lon="-5.005668">
        <ele>1753.54</ele>
        <time>2018-07-28T03:32:36Z</time>
      </trkpt>
      <trkpt lat="36.69154" lon="-5.005673">
        <ele>1753.461</ele>
        <time>2018-07-28T03:32:38Z</time>
      </trkpt>
      <trkpt lat="36.69153" lon="-5.005674">
        <ele>1753.37</ele>
        <time>2018-07-28T03:32:39Z</time>
      </trkpt>
      <trkpt lat="36.69152" lon="-5.00567">
        <ele>1753.26</ele>
        <time>2018-07-28T03:32:40Z</time>
      </trkpt>
      <trkpt lat="36.69151" lon="-5.005665">
        <ele>1753.139</ele>
        <time>2018-07-28T03:32:41Z</time>
      </trkpt>
      <trkpt lat="36.6915" lon="-5.00566">
        <ele>1753.047</ele>
        <time>2018-07-28T03:32:42Z</time>
      </trkpt>
      <trkpt lat="36.69146" lon="-5.005658">
        <ele>1752.811</ele>
        <time>2018-07-28T03:32:45Z</time>
      </trkpt>
      <trkpt lat="36.69146" lon="-5.005659">
        <ele>1752.771</ele>
        <time>2018-07-28T03:32:46Z</time>
      </trkpt>
      <trkpt lat="36.69144" lon="-5.005658">
        <ele>1752.641</ele>
        <time>2018-07-28T03:32:48Z</time>
      </trkpt>
      <trkpt lat="36.6914" lon="-5.005649">
        <ele>1752.351</ele>
        <time>2018-07-28T03:32:51Z</time>
      </trkpt>
      <trkpt lat="36.69139" lon="-5.005646">
        <ele>1752.234</ele>
        <time>2018-07-28T03:32:52Z</time>
      </trkpt>
      <trkpt lat="36.69137" lon="-5.00564">
        <ele>1752.069</ele>
        <time>2018-07-28T03:32:54Z</time>
      </trkpt>
      <trkpt lat="36.69132" lon="-5.005627">
        <ele>1751.699</ele>
        <time>2018-07-28T03:32:58Z</time>
      </trkpt>
      <trkpt lat="36.6913" lon="-5.005621">
        <ele>1751.52</ele>
        <time>2018-07-28T03:33:00Z</time>
      </trkpt>
      <trkpt lat="36.69129" lon="-5.005618">
        <ele>1751.433</ele>
        <time>2018-07-28T03:33:01Z</time>
      </trkpt>
      <trkpt lat="36.69128" lon="-5.005618">
        <ele>1751.366</ele>
        <time>2018-07-28T03:33:02Z</time>
      </trkpt>
      <trkpt lat="36.69124" lon="-5.005617">
        <ele>1751.134</ele>
        <time>2018-07-28T03:33:06Z</time>
      </trkpt>
      <trkpt lat="36.69122" lon="-5.005611">
        <ele>1750.987</ele>
        <time>2018-07-28T03:33:08Z</time>
      </trkpt>
      <trkpt lat="36.69117" lon="-5.005603">
        <ele>1750.678</ele>
        <time>2018-07-28T03:33:12Z</time>
      </trkpt>
      <trkpt lat="36.69114" lon="-5.005603">
        <ele>1750.481</ele>
        <time>2018-07-28T03:33:15Z</time>
      </trkpt>
      <trkpt lat="36.6911" lon="-5.005608">
        <ele>1750.306</ele>
        <time>2018-07-28T03:33:18Z</time>
      </trkpt>
      <trkpt lat="36.69109" lon="-5.005607">
        <ele>1750.214</ele>
        <time>2018-07-28T03:33:19Z</time>
      </trkpt>
      <trkpt lat="36.69108" lon="-5.005606">
        <ele>1750.143</ele>
        <time>2018-07-28T03:33:20Z</time>
      </trkpt>
      <trkpt lat="36.69102" lon="-5.005602">
        <ele>1749.798</ele>
        <time>2018-07-28T03:33:25Z</time>
      </trkpt>
      <trkpt lat="36.69099" lon="-5.005607">
        <ele>1749.661</ele>
        <time>2018-07-28T03:33:27Z</time>
      </trkpt>
      <trkpt lat="36.69098" lon="-5.005611">
        <ele>1749.606</ele>
        <time>2018-07-28T03:33:28Z</time>
      </trkpt>
      <trkpt lat="36.69091" lon="-5.005609">
        <ele>1749.156</ele>
        <time>2018-07-28T03:33:34Z</time>
      </trkpt>
      <trkpt lat="36.6909" lon="-5.005609">
        <ele>1749.09</ele>
        <time>2018-07-28T03:33:35Z</time>
      </trkpt>
      <trkpt lat="36.69086" lon="-5.005617">
        <ele>1748.903</ele>
        <time>2018-07-28T03:33:38Z</time>
      </trkpt>
      <trkpt lat="36.69084" lon="-5.005618">
        <ele>1748.791</ele>
        <time>2018-07-28T03:33:40Z</time>
      </trkpt>
      <trkpt lat="36.69083" lon="-5.005618">
        <ele>1748.712</ele>
        <time>2018-07-28T03:33:41Z</time>
      </trkpt>
      <trkpt lat="36.69082" lon="-5.005618">
        <ele>1748.603</ele>
        <time>2018-07-28T03:33:42Z</time>
      </trkpt>
      <trkpt lat="36.69076" lon="-5.005612">
        <ele>1748.02</ele>
        <time>2018-07-28T03:33:48Z</time>
      </trkpt>
      <trkpt lat="36.69074" lon="-5.005612">
        <ele>1747.84</ele>
        <time>2018-07-28T03:33:50Z</time>
      </trkpt>
      <trkpt lat="36.69073" lon="-5.005611">
        <ele>1747.804</ele>
        <time>2018-07-28T03:33:51Z</time>
      </trkpt>
      <trkpt lat="36.69072" lon="-5.005603">
        <ele>1747.661</ele>
        <time>2018-07-28T03:33:53Z</time>
      </trkpt>
      <trkpt lat="36.69071" lon="-5.005597">
        <ele>1747.555</ele>
        <time>2018-07-28T03:33:54Z</time>
      </trkpt>
      <trkpt lat="36.69069" lon="-5.005586">
        <ele>1747.383</ele>
        <time>2018-07-28T03:33:56Z</time>
      </trkpt>
      <trkpt lat="36.69067" lon="-5.005575">
        <ele>1747.216</ele>
        <time>2018-07-28T03:33:58Z</time>
      </trkpt>
      <trkpt lat="36.69065" lon="-5.005567">
        <ele>1747.017</ele>
        <time>2018-07-28T03:34:00Z</time>
      </trkpt>
      <trkpt lat="36.69059" lon="-5.005549">
        <ele>1746.502</ele>
        <time>2018-07-28T03:34:06Z</time>
      </trkpt>
      <trkpt lat="36.69057" lon="-5.005533">
        <ele>1746.365</ele>
        <time>2018-07-28T03:34:08Z</time>
      </trkpt>
      <trkpt lat="36.69056" lon="-5.005525">
        <ele>1746.315</ele>
        <time>2018-07-28T03:34:09Z</time>
      </trkpt>
      <trkpt lat="36.69055" lon="-5.005517">
        <ele>1746.236</ele>
        <time>2018-07-28T03:34:10Z</time>
      </trkpt>
      <trkpt lat="36.69052" lon="-5.005501">
        <ele>1746.02</ele>
        <time>2018-07-28T03:34:13Z</time>
      </trkpt>
      <trkpt lat="36.69048" lon="-5.005481">
        <ele>1745.766</ele>
        <time>2018-07-28T03:34:17Z</time>
      </trkpt>
      <trkpt lat="36.69047" lon="-5.005475">
        <ele>1745.723</ele>
        <time>2018-07-28T03:34:18Z</time>
      </trkpt>
      <trkpt lat="36.69045" lon="-5.005462">
        <ele>1745.584</ele>
        <time>2018-07-28T03:34:20Z</time>
      </trkpt>
      <trkpt lat="36.6904" lon="-5.005435">
        <ele>1745.276</ele>
        <time>2018-07-28T03:34:25Z</time>
      </trkpt>
      <trkpt lat="36.69037" lon="-5.005421">
        <ele>1745.136</ele>
        <time>2018-07-28T03:34:28Z</time>
      </trkpt>
      <trkpt lat="36.69033" lon="-5.005406">
        <ele>1744.956</ele>
        <time>2018-07-28T03:34:32Z</time>
      </trkpt>
      <trkpt lat="36.69033" lon="-5.005402">
        <ele>1744.92</ele>
        <time>2018-07-28T03:34:33Z</time>
      </trkpt>
      <trkpt lat="36.69031" lon="-5.005381">
        <ele>1744.888</ele>
        <time>2018-07-28T03:34:36Z</time>
      </trkpt>
      <trkpt lat="36.69028" lon="-5.005369">
        <ele>1744.768</ele>
        <time>2018-07-28T03:34:38Z</time>
      </trkpt>
      <trkpt lat="36.69027" lon="-5.005364">
        <ele>1744.745</ele>
        <time>2018-07-28T03:34:39Z</time>
      </trkpt>
      <trkpt lat="36.69027" lon="-5.005361">
        <ele>1744.734</ele>
        <time>2018-07-28T03:34:40Z</time>
      </trkpt>
      <trkpt lat="36.69025" lon="-5.005352">
        <ele>1744.635</ele>
        <time>2018-07-28T03:34:43Z</time>
      </trkpt>
      <trkpt lat="36.69024" lon="-5.00535">
        <ele>1744.596</ele>
        <time>2018-07-28T03:34:44Z</time>
      </trkpt>
      <trkpt lat="36.69022" lon="-5.005345">
        <ele>1744.504</ele>
        <time>2018-07-28T03:34:46Z</time>
      </trkpt>
      <trkpt lat="36.6902" lon="-5.005338">
        <ele>1744.423</ele>
        <time>2018-07-28T03:34:48Z</time>
      </trkpt>
      <trkpt lat="36.69016" lon="-5.00532">
        <ele>1744.278</ele>
        <time>2018-07-28T03:34:53Z</time>
      </trkpt>
      <trkpt lat="36.69015" lon="-5.005305">
        <ele>1744.333</ele>
        <time>2018-07-28T03:34:55Z</time>
      </trkpt>
      <trkpt lat="36.69014" lon="-5.005298">
        <ele>1744.333</ele>
        <time>2018-07-28T03:34:56Z</time>
      </trkpt>
      <trkpt lat="36.69013" lon="-5.005286">
        <ele>1744.327</ele>
        <time>2018-07-28T03:34:58Z</time>
      </trkpt>
      <trkpt lat="36.69012" lon="-5.005281">
        <ele>1744.32</ele>
        <time>2018-07-28T03:34:59Z</time>
      </trkpt>
      <trkpt lat="36.69007" lon="-5.005255">
        <ele>1744.215</ele>
        <time>2018-07-28T03:35:05Z</time>
      </trkpt>
      <trkpt lat="36.69004" lon="-5.005243">
        <ele>1744.191</ele>
        <time>2018-07-28T03:35:08Z</time>
      </trkpt>
      <trkpt lat="36.69004" lon="-5.005237">
        <ele>1744.197</ele>
        <time>2018-07-28T03:35:10Z</time>
      </trkpt>
      <trkpt lat="36.69003" lon="-5.005235">
        <ele>1744.193</ele>
        <time>2018-07-28T03:35:11Z</time>
      </trkpt>
      <trkpt lat="36.68999" lon="-5.005206">
        <ele>1744.185</ele>
        <time>2018-07-28T03:35:15Z</time>
      </trkpt>
      <trkpt lat="36.68999" lon="-5.005199">
        <ele>1744.122</ele>
        <time>2018-07-28T03:35:16Z</time>
      </trkpt>
      <trkpt lat="36.68997" lon="-5.005193">
        <ele>1743.864</ele>
        <time>2018-07-28T03:35:18Z</time>
      </trkpt>
      <trkpt lat="36.68989" lon="-5.005204">
        <ele>1742.536</ele>
        <time>2018-07-28T03:35:26Z</time>
      </trkpt>
      <trkpt lat="36.68987" lon="-5.005192">
        <ele>1742.284</ele>
        <time>2018-07-28T03:35:28Z</time>
      </trkpt>
      <trkpt lat="36.68979" lon="-5.005185">
        <ele>1741.005</ele>
        <time>2018-07-28T03:35:36Z</time>
      </trkpt>
      <trkpt lat="36.68978" lon="-5.005189">
        <ele>1740.844</ele>
        <time>2018-07-28T03:35:37Z</time>
      </trkpt>
      <trkpt lat="36.68977" lon="-5.005192">
        <ele>1740.692</ele>
        <time>2018-07-28T03:35:38Z</time>
      </trkpt>
      <trkpt lat="36.68976" lon="-5.005196">
        <ele>1740.524</ele>
        <time>2018-07-28T03:35:39Z</time>
      </trkpt>
      <trkpt lat="36.68971" lon="-5.00521">
        <ele>1739.514</ele>
        <time>2018-07-28T03:35:44Z</time>
      </trkpt>
      <trkpt lat="36.68969" lon="-5.005208">
        <ele>1739.287</ele>
        <time>2018-07-28T03:35:45Z</time>
      </trkpt>
      <trkpt lat="36.68968" lon="-5.005193">
        <ele>1739.206</ele>
        <time>2018-07-28T03:35:47Z</time>
      </trkpt>
      <trkpt lat="36.68967" lon="-5.005185">
        <ele>1739.113</ele>
        <time>2018-07-28T03:35:48Z</time>
      </trkpt>
      <trkpt lat="36.68965" lon="-5.005168">
        <ele>1739.004</ele>
        <time>2018-07-28T03:35:50Z</time>
      </trkpt>
      <trkpt lat="36.68964" lon="-5.00516">
        <ele>1738.917</ele>
        <time>2018-07-28T03:35:51Z</time>
      </trkpt>
      <trkpt lat="36.68961" lon="-5.005151">
        <ele>1738.662</ele>
        <time>2018-07-28T03:35:53Z</time>
      </trkpt>
      <trkpt lat="36.68958" lon="-5.005139">
        <ele>1738.326</ele>
        <time>2018-07-28T03:35:56Z</time>
      </trkpt>
      <trkpt lat="36.68957" lon="-5.005131">
        <ele>1738.186</ele>
        <time>2018-07-28T03:35:57Z</time>
      </trkpt>
      <trkpt lat="36.68956" lon="-5.005123">
        <ele>1738.102</ele>
        <time>2018-07-28T03:35:58Z</time>
      </trkpt>
      <trkpt lat="36.68954" lon="-5.00511">
        <ele>1737.972</ele>
        <time>2018-07-28T03:36:00Z</time>
      </trkpt>
      <trkpt lat="36.68949" lon="-5.005095">
        <ele>1737.401</ele>
        <time>2018-07-28T03:36:04Z</time>
      </trkpt>
      <trkpt lat="36.68948" lon="-5.005091">
        <ele>1737.334</ele>
        <time>2018-07-28T03:36:05Z</time>
      </trkpt>
      <trkpt lat="36.68944" lon="-5.005073">
        <ele>1736.994</ele>
        <time>2018-07-28T03:36:08Z</time>
      </trkpt>
      <trkpt lat="36.68941" lon="-5.005053">
        <ele>1736.749</ele>
        <time>2018-07-28T03:36:11Z</time>
      </trkpt>
      <trkpt lat="36.68937" lon="-5.005031">
        <ele>1736.486</ele>
        <time>2018-07-28T03:36:15Z</time>
      </trkpt>
      <trkpt lat="36.68936" lon="-5.005028">
        <ele>1736.42</ele>
        <time>2018-07-28T03:36:16Z</time>
      </trkpt>
      <trkpt lat="36.68935" lon="-5.005018">
        <ele>1736.331</ele>
        <time>2018-07-28T03:36:18Z</time>
      </trkpt>
      <trkpt lat="36.68932" lon="-5.005002">
        <ele>1736.119</ele>
        <time>2018-07-28T03:36:21Z</time>
      </trkpt>
      <trkpt lat="36.6893" lon="-5.004995">
        <ele>1735.908</ele>
        <time>2018-07-28T03:36:23Z</time>
      </trkpt>
      <trkpt lat="36.68929" lon="-5.004988">
        <ele>1735.774</ele>
        <time>2018-07-28T03:36:24Z</time>
      </trkpt>
      <trkpt lat="36.68927" lon="-5.004977">
        <ele>1735.413</ele>
        <time>2018-07-28T03:36:26Z</time>
      </trkpt>
      <trkpt lat="36.68926" lon="-5.004973">
        <ele>1735.241</ele>
        <time>2018-07-28T03:36:27Z</time>
      </trkpt>
      <trkpt lat="36.68925" lon="-5.00497">
        <ele>1735.127</ele>
        <time>2018-07-28T03:36:28Z</time>
      </trkpt>
      <trkpt lat="36.68922" lon="-5.00496">
        <ele>1734.683</ele>
        <time>2018-07-28T03:36:31Z</time>
      </trkpt>
      <trkpt lat="36.68918" lon="-5.004928">
        <ele>1734.116</ele>
        <time>2018-07-28T03:36:35Z</time>
      </trkpt>
      <trkpt lat="36.68916" lon="-5.004908">
        <ele>1733.724</ele>
        <time>2018-07-28T03:36:38Z</time>
      </trkpt>
      <trkpt lat="36.68914" lon="-5.004894">
        <ele>1733.363</ele>
        <time>2018-07-28T03:36:40Z</time>
      </trkpt>
      <trkpt lat="36.68913" lon="-5.004888">
        <ele>1733.099</ele>
        <time>2018-07-28T03:36:41Z</time>
      </trkpt>
      <trkpt lat="36.6891" lon="-5.004851">
        <ele>1732.398</ele>
        <time>2018-07-28T03:36:45Z</time>
      </trkpt>
      <trkpt lat="36.68908" lon="-5.004842">
        <ele>1731.892</ele>
        <time>2018-07-28T03:36:47Z</time>
      </trkpt>
      <trkpt lat="36.68907" lon="-5.004837">
        <ele>1731.641</ele>
        <time>2018-07-28T03:36:48Z</time>
      </trkpt>
      <trkpt lat="36.68903" lon="-5.004771">
        <ele>1730.844</ele>
        <time>2018-07-28T03:36:54Z</time>
      </trkpt>
      <trkpt lat="36.68903" lon="-5.004759">
        <ele>1730.772</ele>
        <time>2018-07-28T03:36:55Z</time>
      </trkpt>
      <trkpt lat="36.68901" lon="-5.004721">
        <ele>1730.406</ele>
        <time>2018-07-28T03:36:58Z</time>
      </trkpt>
      <trkpt lat="36.689" lon="-5.00471">
        <ele>1730.261</ele>
        <time>2018-07-28T03:36:59Z</time>
      </trkpt>
      <trkpt lat="36.689" lon="-5.004699">
        <ele>1730.195</ele>
        <time>2018-07-28T03:37:00Z</time>
      </trkpt>
      <trkpt lat="36.68899" lon="-5.004666">
        <ele>1730.155</ele>
        <time>2018-07-28T03:37:03Z</time>
      </trkpt>
      <trkpt lat="36.68899" lon="-5.004654">
        <ele>1730.167</ele>
        <time>2018-07-28T03:37:04Z</time>
      </trkpt>
      <trkpt lat="36.68897" lon="-5.004601">
        <ele>1729.865</ele>
        <time>2018-07-28T03:37:08Z</time>
      </trkpt>
      <trkpt lat="36.68895" lon="-5.004567">
        <ele>1729.559</ele>
        <time>2018-07-28T03:37:11Z</time>
      </trkpt>
      <trkpt lat="36.68895" lon="-5.004526">
        <ele>1729.486</ele>
        <time>2018-07-28T03:37:14Z</time>
      </trkpt>
      <trkpt lat="36.68893" lon="-5.004495">
        <ele>1729.338</ele>
        <time>2018-07-28T03:37:17Z</time>
      </trkpt>
      <trkpt lat="36.68893" lon="-5.004483">
        <ele>1729.294</ele>
        <time>2018-07-28T03:37:18Z</time>
      </trkpt>
      <trkpt lat="36.68893" lon="-5.004468">
        <ele>1729.257</ele>
        <time>2018-07-28T03:37:19Z</time>
      </trkpt>
      <trkpt lat="36.68892" lon="-5.004453">
        <ele>1729.221</ele>
        <time>2018-07-28T03:37:20Z</time>
      </trkpt>
      <trkpt lat="36.68891" lon="-5.0044">
        <ele>1729.14</ele>
        <time>2018-07-28T03:37:24Z</time>
      </trkpt>
      <trkpt lat="36.6889" lon="-5.004358">
        <ele>1728.989</ele>
        <time>2018-07-28T03:37:27Z</time>
      </trkpt>
      <trkpt lat="36.68889" lon="-5.004346">
        <ele>1728.957</ele>
        <time>2018-07-28T03:37:28Z</time>
      </trkpt>
      <trkpt lat="36.68888" lon="-5.004323">
        <ele>1728.895</ele>
        <time>2018-07-28T03:37:30Z</time>
      </trkpt>
      <trkpt lat="36.68885" lon="-5.004267">
        <ele>1728.589</ele>
        <time>2018-07-28T03:37:35Z</time>
      </trkpt>
      <trkpt lat="36.68883" lon="-5.004231">
        <ele>1728.318</ele>
        <time>2018-07-28T03:37:38Z</time>
      </trkpt>
      <trkpt lat="36.68881" lon="-5.004211">
        <ele>1728.172</ele>
        <time>2018-07-28T03:37:40Z</time>
      </trkpt>
      <trkpt lat="36.6888" lon="-5.004191">
        <ele>1728.033</ele>
        <time>2018-07-28T03:37:42Z</time>
      </trkpt>
      <trkpt lat="36.68874" lon="-5.004124">
        <ele>1726.889</ele>
        <time>2018-07-28T03:37:48Z</time>
      </trkpt>
      <trkpt lat="36.68874" lon="-5.004109">
        <ele>1726.614</ele>
        <time>2018-07-28T03:37:49Z</time>
      </trkpt>
      <trkpt lat="36.68873" lon="-5.004086">
        <ele>1726.256</ele>
        <time>2018-07-28T03:37:51Z</time>
      </trkpt>
      <trkpt lat="36.6887" lon="-5.004022">
        <ele>1725.272</ele>
        <time>2018-07-28T03:37:56Z</time>
      </trkpt>
      <trkpt lat="36.68869" lon="-5.003999">
        <ele>1724.962</ele>
        <time>2018-07-28T03:37:58Z</time>
      </trkpt>
      <trkpt lat="36.68869" lon="-5.003988">
        <ele>1724.811</ele>
        <time>2018-07-28T03:37:59Z</time>
      </trkpt>
      <trkpt lat="36.68867" lon="-5.003949">
        <ele>1724.309</ele>
        <time>2018-07-28T03:38:02Z</time>
      </trkpt>
      <trkpt lat="36.68864" lon="-5.003873">
        <ele>1723.405</ele>
        <time>2018-07-28T03:38:08Z</time>
      </trkpt>
      <trkpt lat="36.68857" lon="-5.003755">
        <ele>1722.393</ele>
        <time>2018-07-28T03:38:17Z</time>
      </trkpt>
      <trkpt lat="36.68856" lon="-5.003741">
        <ele>1722.305</ele>
        <time>2018-07-28T03:38:18Z</time>
      </trkpt>
      <trkpt lat="36.68851" lon="-5.00368">
        <ele>1722.067</ele>
        <time>2018-07-28T03:38:23Z</time>
      </trkpt>
      <trkpt lat="36.68849" lon="-5.003655">
        <ele>1722.02</ele>
        <time>2018-07-28T03:38:25Z</time>
      </trkpt>
      <trkpt lat="36.68848" lon="-5.003644">
        <ele>1722.007</ele>
        <time>2018-07-28T03:38:26Z</time>
      </trkpt>
      <trkpt lat="36.68848" lon="-5.003632">
        <ele>1721.996</ele>
        <time>2018-07-28T03:38:27Z</time>
      </trkpt>
      <trkpt lat="36.68847" lon="-5.003625">
        <ele>1721.989</ele>
        <time>2018-07-28T03:38:28Z</time>
      </trkpt>
      <trkpt lat="36.68847" lon="-5.003609">
        <ele>1721.975</ele>
        <time>2018-07-28T03:38:30Z</time>
      </trkpt>
      <trkpt lat="36.68847" lon="-5.003608">
        <ele>1721.972</ele>
        <time>2018-07-28T03:38:32Z</time>
      </trkpt>
      <trkpt lat="36.68847" lon="-5.003608">
        <ele>1721.972</ele>
        <time>2018-07-28T03:38:33Z</time>
      </trkpt>
      <trkpt lat="36.68846" lon="-5.003607">
        <ele>1721.988</ele>
        <time>2018-07-28T03:38:38Z</time>
      </trkpt>
      <trkpt lat="36.68846" lon="-5.003607">
        <ele>1721.988</ele>
        <time>2018-07-28T03:38:42Z</time>
      </trkpt>
      <trkpt lat="36.68846" lon="-5.003607">
        <ele>1721.988</ele>
        <time>2018-07-28T03:38:44Z</time>
      </trkpt>
      <trkpt lat="36.68846" lon="-5.003607">
        <ele>1721.988</ele>
        <time>2018-07-28T03:38:46Z</time>
      </trkpt>
      <trkpt lat="36.68846" lon="-5.003607">
        <ele>1721.988</ele>
        <time>2018-07-28T03:38:48Z</time>
      </trkpt>
      <trkpt lat="36.68846" lon="-5.003607">
        <ele>1721.988</ele>
        <time>2018-07-28T03:38:49Z</time>
      </trkpt>
      <trkpt lat="36.68846" lon="-5.003608">
        <ele>1721.992</ele>
        <time>2018-07-28T03:38:56Z</time>
      </trkpt>
      <trkpt lat="36.68846" lon="-5.003608">
        <ele>1721.992</ele>
        <time>2018-07-28T03:38:57Z</time>
      </trkpt>
      <trkpt lat="36.68846" lon="-5.003609">
        <ele>1721.995</ele>
        <time>2018-07-28T03:38:58Z</time>
      </trkpt>
      <trkpt lat="36.68846" lon="-5.003607">
        <ele>1721.988</ele>
        <time>2018-07-28T03:38:59Z</time>
      </trkpt>
      <trkpt lat="36.68845" lon="-5.0036">
        <ele>1722.031</ele>
        <time>2018-07-28T03:39:03Z</time>
      </trkpt>
      <trkpt lat="36.68843" lon="-5.003592">
        <ele>1722.121</ele>
        <time>2018-07-28T03:39:05Z</time>
      </trkpt>
      <trkpt lat="36.68841" lon="-5.003581">
        <ele>1722.217</ele>
        <time>2018-07-28T03:39:07Z</time>
      </trkpt>
      <trkpt lat="36.6884" lon="-5.003573">
        <ele>1722.255</ele>
        <time>2018-07-28T03:39:08Z</time>
      </trkpt>
      <trkpt lat="36.6884" lon="-5.003564">
        <ele>1722.296</ele>
        <time>2018-07-28T03:39:09Z</time>
      </trkpt>
      <trkpt lat="36.68838" lon="-5.003547">
        <ele>1722.421</ele>
        <time>2018-07-28T03:39:11Z</time>
      </trkpt>
      <trkpt lat="36.68835" lon="-5.003523">
        <ele>1722.632</ele>
        <time>2018-07-28T03:39:15Z</time>
      </trkpt>
      <trkpt lat="36.68835" lon="-5.00352">
        <ele>1722.665</ele>
        <time>2018-07-28T03:39:17Z</time>
      </trkpt>
      <trkpt lat="36.68834" lon="-5.003514">
        <ele>1722.702</ele>
        <time>2018-07-28T03:39:18Z</time>
      </trkpt>
      <trkpt lat="36.6883" lon="-5.003456">
        <ele>1722.569</ele>
        <time>2018-07-28T03:39:25Z</time>
      </trkpt>
      <trkpt lat="36.68829" lon="-5.003432">
        <ele>1722.479</ele>
        <time>2018-07-28T03:39:27Z</time>
      </trkpt>
      <trkpt lat="36.68828" lon="-5.003421">
        <ele>1722.436</ele>
        <time>2018-07-28T03:39:28Z</time>
      </trkpt>
      <trkpt lat="36.68824" lon="-5.003352">
        <ele>1722.311</ele>
        <time>2018-07-28T03:39:33Z</time>
      </trkpt>
      <trkpt lat="36.6882" lon="-5.003297">
        <ele>1721.965</ele>
        <time>2018-07-28T03:39:38Z</time>
      </trkpt>
      <trkpt lat="36.68818" lon="-5.003282">
        <ele>1721.825</ele>
        <time>2018-07-28T03:39:40Z</time>
      </trkpt>
      <trkpt lat="36.68815" lon="-5.003264">
        <ele>1721.653</ele>
        <time>2018-07-28T03:39:43Z</time>
      </trkpt>
      <trkpt lat="36.68814" lon="-5.003252">
        <ele>1721.605</ele>
        <time>2018-07-28T03:39:44Z</time>
      </trkpt>
      <trkpt lat="36.68811" lon="-5.003214">
        <ele>1721.452</ele>
        <time>2018-07-28T03:39:47Z</time>
      </trkpt>
      <trkpt lat="36.68811" lon="-5.003202">
        <ele>1721.423</ele>
        <time>2018-07-28T03:39:48Z</time>
      </trkpt>
      <trkpt lat="36.68804" lon="-5.003141">
        <ele>1721.259</ele>
        <time>2018-07-28T03:39:55Z</time>
      </trkpt>
      <trkpt lat="36.68802" lon="-5.00313">
        <ele>1721.243</ele>
        <time>2018-07-28T03:39:57Z</time>
      </trkpt>
      <trkpt lat="36.68802" lon="-5.003125">
        <ele>1721.254</ele>
        <time>2018-07-28T03:39:58Z</time>
      </trkpt>
      <trkpt lat="36.68801" lon="-5.003114">
        <ele>1721.247</ele>
        <time>2018-07-28T03:40:01Z</time>
      </trkpt>
      <trkpt lat="36.688" lon="-5.003108">
        <ele>1721.256</ele>
        <time>2018-07-28T03:40:03Z</time>
      </trkpt>
      <trkpt lat="36.688" lon="-5.003108">
        <ele>1721.248</ele>
        <time>2018-07-28T03:40:05Z</time>
      </trkpt>
      <trkpt lat="36.688" lon="-5.003109">
        <ele>1721.246</ele>
        <time>2018-07-28T03:40:08Z</time>
      </trkpt>
      <trkpt lat="36.688" lon="-5.003109">
        <ele>1721.246</ele>
        <time>2018-07-28T03:40:13Z</time>
      </trkpt>
      <trkpt lat="36.688" lon="-5.003109">
        <ele>1721.246</ele>
        <time>2018-07-28T03:40:14Z</time>
      </trkpt>
      <trkpt lat="36.688" lon="-5.003108">
        <ele>1721.248</ele>
        <time>2018-07-28T03:40:15Z</time>
      </trkpt>
      <trkpt lat="36.688" lon="-5.00311">
        <ele>1721.243</ele>
        <time>2018-07-28T03:40:18Z</time>
      </trkpt>
      <trkpt lat="36.688" lon="-5.003109">
        <ele>1721.246</ele>
        <time>2018-07-28T03:40:19Z</time>
      </trkpt>
      <trkpt lat="36.68798" lon="-5.003101">
        <ele>1721.234</ele>
        <time>2018-07-28T03:40:23Z</time>
      </trkpt>
      <trkpt lat="36.68798" lon="-5.003101">
        <ele>1721.234</ele>
        <time>2018-07-28T03:40:27Z</time>
      </trkpt>
      <trkpt lat="36.68798" lon="-5.003101">
        <ele>1721.234</ele>
        <time>2018-07-28T03:40:28Z</time>
      </trkpt>
      <trkpt lat="36.68798" lon="-5.0031">
        <ele>1721.237</ele>
        <time>2018-07-28T03:40:30Z</time>
      </trkpt>
      <trkpt lat="36.68798" lon="-5.0031">
        <ele>1721.237</ele>
        <time>2018-07-28T03:40:31Z</time>
      </trkpt>
      <trkpt lat="36.68798" lon="-5.003098">
        <ele>1721.237</ele>
        <time>2018-07-28T03:40:36Z</time>
      </trkpt>
      <trkpt lat="36.68796" lon="-5.003099">
        <ele>1721.206</ele>
        <time>2018-07-28T03:40:38Z</time>
      </trkpt>
      <trkpt lat="36.68795" lon="-5.003102">
        <ele>1721.181</ele>
        <time>2018-07-28T03:40:39Z</time>
      </trkpt>
      <trkpt lat="36.68795" lon="-5.003109">
        <ele>1721.137</ele>
        <time>2018-07-28T03:40:40Z</time>
      </trkpt>
      <trkpt lat="36.68795" lon="-5.00312">
        <ele>1721.101</ele>
        <time>2018-07-28T03:40:41Z</time>
      </trkpt>
      <trkpt lat="36.68795" lon="-5.003129">
        <ele>1721.055</ele>
        <time>2018-07-28T03:40:42Z</time>
      </trkpt>
      <trkpt lat="36.68794" lon="-5.003148">
        <ele>1720.954</ele>
        <time>2018-07-28T03:40:44Z</time>
      </trkpt>
      <trkpt lat="36.68793" lon="-5.003162">
        <ele>1720.882</ele>
        <time>2018-07-28T03:40:45Z</time>
      </trkpt>
      <trkpt lat="36.68793" lon="-5.003176">
        <ele>1720.792</ele>
        <time>2018-07-28T03:40:47Z</time>
      </trkpt>
      <trkpt lat="36.68792" lon="-5.003188">
        <ele>1720.723</ele>
        <time>2018-07-28T03:40:48Z</time>
      </trkpt>
      <trkpt lat="36.68792" lon="-5.003197">
        <ele>1720.665</ele>
        <time>2018-07-28T03:40:49Z</time>
      </trkpt>
      <trkpt lat="36.6879" lon="-5.003226">
        <ele>1720.458</ele>
        <time>2018-07-28T03:40:53Z</time>
      </trkpt>
      <trkpt lat="36.6879" lon="-5.003256">
        <ele>1720.285</ele>
        <time>2018-07-28T03:40:57Z</time>
      </trkpt>
      <trkpt lat="36.6879" lon="-5.003263">
        <ele>1720.248</ele>
        <time>2018-07-28T03:40:58Z</time>
      </trkpt>
      <trkpt lat="36.6879" lon="-5.003267">
        <ele>1720.228</ele>
        <time>2018-07-28T03:40:59Z</time>
      </trkpt>
      <trkpt lat="36.6879" lon="-5.003276">
        <ele>1720.159</ele>
        <time>2018-07-28T03:41:03Z</time>
      </trkpt>
      <trkpt lat="36.6879" lon="-5.003281">
        <ele>1720.131</ele>
        <time>2018-07-28T03:41:05Z</time>
      </trkpt>
      <trkpt lat="36.68789" lon="-5.003279">
        <ele>1720.118</ele>
        <time>2018-07-28T03:41:08Z</time>
      </trkpt>
      <trkpt lat="36.68789" lon="-5.003279">
        <ele>1720.118</ele>
        <time>2018-07-28T03:41:09Z</time>
      </trkpt>
      <trkpt lat="36.6879" lon="-5.003278">
        <ele>1720.149</ele>
        <time>2018-07-28T03:41:12Z</time>
      </trkpt>
      <trkpt lat="36.6879" lon="-5.003277">
        <ele>1720.154</ele>
        <time>2018-07-28T03:41:15Z</time>
      </trkpt>
      <trkpt lat="36.68789" lon="-5.003278">
        <ele>1720.126</ele>
        <time>2018-07-28T03:41:18Z</time>
      </trkpt>
      <trkpt lat="36.68788" lon="-5.00328">
        <ele>1720.045</ele>
        <time>2018-07-28T03:41:21Z</time>
      </trkpt>
      <trkpt lat="36.68787" lon="-5.003282">
        <ele>1719.942</ele>
        <time>2018-07-28T03:41:24Z</time>
      </trkpt>
      <trkpt lat="36.68787" lon="-5.00328">
        <ele>1719.954</ele>
        <time>2018-07-28T03:41:28Z</time>
      </trkpt>
      <trkpt lat="36.68787" lon="-5.003276">
        <ele>1719.979</ele>
        <time>2018-07-28T03:41:32Z</time>
      </trkpt>
      <trkpt lat="36.68787" lon="-5.003255">
        <ele>1720.146</ele>
        <time>2018-07-28T03:41:37Z</time>
      </trkpt>
      <trkpt lat="36.68787" lon="-5.003256">
        <ele>1720.14</ele>
        <time>2018-07-28T03:41:38Z</time>
      </trkpt>
      <trkpt lat="36.68787" lon="-5.003256">
        <ele>1720.119</ele>
        <time>2018-07-28T03:41:39Z</time>
      </trkpt>
      <trkpt lat="36.68787" lon="-5.003251">
        <ele>1720.127</ele>
        <time>2018-07-28T03:41:44Z</time>
      </trkpt>
      <trkpt lat="36.68787" lon="-5.003251">
        <ele>1720.127</ele>
        <time>2018-07-28T03:41:45Z</time>
      </trkpt>
      <trkpt lat="36.68787" lon="-5.003251">
        <ele>1720.127</ele>
        <time>2018-07-28T03:41:46Z</time>
      </trkpt>
      <trkpt lat="36.68787" lon="-5.003252">
        <ele>1720.121</ele>
        <time>2018-07-28T03:41:48Z</time>
      </trkpt>
      <trkpt lat="36.68787" lon="-5.003251">
        <ele>1720.127</ele>
        <time>2018-07-28T03:41:49Z</time>
      </trkpt>
      <trkpt lat="36.68787" lon="-5.003251">
        <ele>1720.127</ele>
        <time>2018-07-28T03:41:50Z</time>
      </trkpt>
      <trkpt lat="36.68787" lon="-5.00325">
        <ele>1720.133</ele>
        <time>2018-07-28T03:41:51Z</time>
      </trkpt>
      <trkpt lat="36.68787" lon="-5.00325">
        <ele>1720.133</ele>
        <time>2018-07-28T03:41:52Z</time>
      </trkpt>
      <trkpt lat="36.68787" lon="-5.00325">
        <ele>1720.133</ele>
        <time>2018-07-28T03:41:53Z</time>
      </trkpt>
      <trkpt lat="36.68787" lon="-5.003249">
        <ele>1720.139</ele>
        <time>2018-07-28T03:41:57Z</time>
      </trkpt>
      <trkpt lat="36.68787" lon="-5.003244">
        <ele>1720.17</ele>
        <time>2018-07-28T03:41:58Z</time>
      </trkpt>
      <trkpt lat="36.68787" lon="-5.003236">
        <ele>1720.256</ele>
        <time>2018-07-28T03:42:00Z</time>
      </trkpt>
      <trkpt lat="36.68787" lon="-5.003208">
        <ele>1720.416</ele>
        <time>2018-07-28T03:42:03Z</time>
      </trkpt>
      <trkpt lat="36.68786" lon="-5.003188">
        <ele>1720.488</ele>
        <time>2018-07-28T03:42:06Z</time>
      </trkpt>
      <trkpt lat="36.68786" lon="-5.003176">
        <ele>1720.546</ele>
        <time>2018-07-28T03:42:08Z</time>
      </trkpt>
      <trkpt lat="36.68785" lon="-5.003154">
        <ele>1720.672</ele>
        <time>2018-07-28T03:42:11Z</time>
      </trkpt>
      <trkpt lat="36.68785" lon="-5.00314">
        <ele>1720.748</ele>
        <time>2018-07-28T03:42:13Z</time>
      </trkpt>
      <trkpt lat="36.68784" lon="-5.003126">
        <ele>1720.817</ele>
        <time>2018-07-28T03:42:15Z</time>
      </trkpt>
      <trkpt lat="36.68784" lon="-5.003125">
        <ele>1720.823</ele>
        <time>2018-07-28T03:42:16Z</time>
      </trkpt>
      <trkpt lat="36.68784" lon="-5.003123">
        <ele>1720.838</ele>
        <time>2018-07-28T03:42:18Z</time>
      </trkpt>
      <trkpt lat="36.68784" lon="-5.00311">
        <ele>1720.906</ele>
        <time>2018-07-28T03:42:21Z</time>
      </trkpt>
      <trkpt lat="36.68783" lon="-5.003103">
        <ele>1720.939</ele>
        <time>2018-07-28T03:42:22Z</time>
      </trkpt>
      <trkpt lat="36.68777" lon="-5.003059">
        <ele>1721.193</ele>
        <time>2018-07-28T03:42:28Z</time>
      </trkpt>
      <trkpt lat="36.68777" lon="-5.003053">
        <ele>1721.233</ele>
        <time>2018-07-28T03:42:29Z</time>
      </trkpt>
      <trkpt lat="36.68776" lon="-5.003046">
        <ele>1721.29</ele>
        <time>2018-07-28T03:42:30Z</time>
      </trkpt>
      <trkpt lat="36.68774" lon="-5.003018">
        <ele>1721.526</ele>
        <time>2018-07-28T03:42:33Z</time>
      </trkpt>
      <trkpt lat="36.68774" lon="-5.002989">
        <ele>1721.787</ele>
        <time>2018-07-28T03:42:36Z</time>
      </trkpt>
      <trkpt lat="36.68774" lon="-5.002977">
        <ele>1721.893</ele>
        <time>2018-07-28T03:42:37Z</time>
      </trkpt>
      <trkpt lat="36.68773" lon="-5.002966">
        <ele>1722.001</ele>
        <time>2018-07-28T03:42:38Z</time>
      </trkpt>
      <trkpt lat="36.68773" lon="-5.002955">
        <ele>1722.107</ele>
        <time>2018-07-28T03:42:39Z</time>
      </trkpt>
      <trkpt lat="36.68768" lon="-5.002903">
        <ele>1722.7</ele>
        <time>2018-07-28T03:42:44Z</time>
      </trkpt>
      <trkpt lat="36.68765" lon="-5.002868">
        <ele>1723.175</ele>
        <time>2018-07-28T03:42:48Z</time>
      </trkpt>
      <trkpt lat="36.68762" lon="-5.002843">
        <ele>1723.562</ele>
        <time>2018-07-28T03:42:51Z</time>
      </trkpt>
      <trkpt lat="36.68761" lon="-5.002836">
        <ele>1723.672</ele>
        <time>2018-07-28T03:42:52Z</time>
      </trkpt>
      <trkpt lat="36.6876" lon="-5.002828">
        <ele>1723.852</ele>
        <time>2018-07-28T03:42:54Z</time>
      </trkpt>
      <trkpt lat="36.68755" lon="-5.002799">
        <ele>1724.421</ele>
        <time>2018-07-28T03:42:58Z</time>
      </trkpt>
      <trkpt lat="36.68753" lon="-5.002777">
        <ele>1724.838</ele>
        <time>2018-07-28T03:43:00Z</time>
      </trkpt>
      <trkpt lat="36.68748" lon="-5.002727">
        <ele>1725.656</ele>
        <time>2018-07-28T03:43:07Z</time>
      </trkpt>
      <trkpt lat="36.68747" lon="-5.002723">
        <ele>1725.686</ele>
        <time>2018-07-28T03:43:08Z</time>
      </trkpt>
      <trkpt lat="36.68744" lon="-5.002715">
        <ele>1725.689</ele>
        <time>2018-07-28T03:43:11Z</time>
      </trkpt>
      <trkpt lat="36.68741" lon="-5.002698">
        <ele>1725.859</ele>
        <time>2018-07-28T03:43:14Z</time>
      </trkpt>
      <trkpt lat="36.68737" lon="-5.002677">
        <ele>1726.031</ele>
        <time>2018-07-28T03:43:18Z</time>
      </trkpt>
      <trkpt lat="36.68734" lon="-5.002653">
        <ele>1726.241</ele>
        <time>2018-07-28T03:43:22Z</time>
      </trkpt>
      <trkpt lat="36.68733" lon="-5.002649">
        <ele>1726.276</ele>
        <time>2018-07-28T03:43:23Z</time>
      </trkpt>
      <trkpt lat="36.68727" lon="-5.002625">
        <ele>1726.43</ele>
        <time>2018-07-28T03:43:28Z</time>
      </trkpt>
      <trkpt lat="36.68726" lon="-5.002622">
        <ele>1726.432</ele>
        <time>2018-07-28T03:43:29Z</time>
      </trkpt>
      <trkpt lat="36.68726" lon="-5.002619">
        <ele>1726.452</ele>
        <time>2018-07-28T03:43:30Z</time>
      </trkpt>
      <trkpt lat="36.6872" lon="-5.002604">
        <ele>1726.476</ele>
        <time>2018-07-28T03:43:35Z</time>
      </trkpt>
      <trkpt lat="36.68718" lon="-5.002594">
        <ele>1726.55</ele>
        <time>2018-07-28T03:43:37Z</time>
      </trkpt>
      <trkpt lat="36.68717" lon="-5.00259">
        <ele>1726.563</ele>
        <time>2018-07-28T03:43:38Z</time>
      </trkpt>
      <trkpt lat="36.68711" lon="-5.002581">
        <ele>1726.463</ele>
        <time>2018-07-28T03:43:45Z</time>
      </trkpt>
      <trkpt lat="36.68708" lon="-5.002584">
        <ele>1726.331</ele>
        <time>2018-07-28T03:43:48Z</time>
      </trkpt>
      <trkpt lat="36.68707" lon="-5.00258">
        <ele>1726.357</ele>
        <time>2018-07-28T03:43:49Z</time>
      </trkpt>
      <trkpt lat="36.68705" lon="-5.002586">
        <ele>1726.212</ele>
        <time>2018-07-28T03:43:51Z</time>
      </trkpt>
      <trkpt lat="36.68704" lon="-5.002587">
        <ele>1726.159</ele>
        <time>2018-07-28T03:43:52Z</time>
      </trkpt>
      <trkpt lat="36.68703" lon="-5.002581">
        <ele>1726.184</ele>
        <time>2018-07-28T03:43:54Z</time>
      </trkpt>
      <trkpt lat="36.687" lon="-5.00257">
        <ele>1726.228</ele>
        <time>2018-07-28T03:43:57Z</time>
      </trkpt>
      <trkpt lat="36.68699" lon="-5.002568">
        <ele>1726.234</ele>
        <time>2018-07-28T03:43:58Z</time>
      </trkpt>
      <trkpt lat="36.68697" lon="-5.002563">
        <ele>1726.219</ele>
        <time>2018-07-28T03:44:01Z</time>
      </trkpt>
      <trkpt lat="36.68694" lon="-5.002543">
        <ele>1726.384</ele>
        <time>2018-07-28T03:44:05Z</time>
      </trkpt>
      <trkpt lat="36.68692" lon="-5.002541">
        <ele>1726.369</ele>
        <time>2018-07-28T03:44:06Z</time>
      </trkpt>
      <trkpt lat="36.68691" lon="-5.002541">
        <ele>1726.328</ele>
        <time>2018-07-28T03:44:07Z</time>
      </trkpt>
      <trkpt lat="36.6869" lon="-5.00254">
        <ele>1726.301</ele>
        <time>2018-07-28T03:44:08Z</time>
      </trkpt>
      <trkpt lat="36.68689" lon="-5.002539">
        <ele>1726.273</ele>
        <time>2018-07-28T03:44:09Z</time>
      </trkpt>
      <trkpt lat="36.68687" lon="-5.002539">
        <ele>1726.192</ele>
        <time>2018-07-28T03:44:11Z</time>
      </trkpt>
      <trkpt lat="36.68686" lon="-5.002541">
        <ele>1726.126</ele>
        <time>2018-07-28T03:44:12Z</time>
      </trkpt>
      <trkpt lat="36.68683" lon="-5.00254">
        <ele>1726.058</ele>
        <time>2018-07-28T03:44:14Z</time>
      </trkpt>
      <trkpt lat="36.68682" lon="-5.002541">
        <ele>1726.004</ele>
        <time>2018-07-28T03:44:15Z</time>
      </trkpt>
      <trkpt lat="36.68679" lon="-5.00254">
        <ele>1725.896</ele>
        <time>2018-07-28T03:44:18Z</time>
      </trkpt>
      <trkpt lat="36.68678" lon="-5.002538">
        <ele>1725.88</ele>
        <time>2018-07-28T03:44:19Z</time>
      </trkpt>
      <trkpt lat="36.6867" lon="-5.002517">
        <ele>1725.874</ele>
        <time>2018-07-28T03:44:26Z</time>
      </trkpt>
      <trkpt lat="36.68668" lon="-5.002511">
        <ele>1725.888</ele>
        <time>2018-07-28T03:44:28Z</time>
      </trkpt>
      <trkpt lat="36.68664" lon="-5.002487">
        <ele>1725.795</ele>
        <time>2018-07-28T03:44:32Z</time>
      </trkpt>
      <trkpt lat="36.68663" lon="-5.002486">
        <ele>1725.689</ele>
        <time>2018-07-28T03:44:33Z</time>
      </trkpt>
      <trkpt lat="36.68662" lon="-5.002485">
        <ele>1725.531</ele>
        <time>2018-07-28T03:44:34Z</time>
      </trkpt>
      <trkpt lat="36.68659" lon="-5.002473">
        <ele>1725.165</ele>
        <time>2018-07-28T03:44:38Z</time>
      </trkpt>
      <trkpt lat="36.68658" lon="-5.002468">
        <ele>1725.114</ele>
        <time>2018-07-28T03:44:39Z</time>
      </trkpt>
      <trkpt lat="36.68656" lon="-5.002462">
        <ele>1724.844</ele>
        <time>2018-07-28T03:44:42Z</time>
      </trkpt>
      <trkpt lat="36.68652" lon="-5.002457">
        <ele>1724.374</ele>
        <time>2018-07-28T03:44:45Z</time>
      </trkpt>
      <trkpt lat="36.68649" lon="-5.002455">
        <ele>1723.923</ele>
        <time>2018-07-28T03:44:48Z</time>
      </trkpt>
      <trkpt lat="36.68647" lon="-5.002446">
        <ele>1723.633</ele>
        <time>2018-07-28T03:44:51Z</time>
      </trkpt>
      <trkpt lat="36.68645" lon="-5.002434">
        <ele>1723.508</ele>
        <time>2018-07-28T03:44:53Z</time>
      </trkpt>
      <trkpt lat="36.68642" lon="-5.002416">
        <ele>1723.337</ele>
        <time>2018-07-28T03:44:56Z</time>
      </trkpt>
      <trkpt lat="36.68641" lon="-5.0024">
        <ele>1723.384</ele>
        <time>2018-07-28T03:44:58Z</time>
      </trkpt>
      <trkpt lat="36.68641" lon="-5.002388">
        <ele>1723.491</ele>
        <time>2018-07-28T03:44:59Z</time>
      </trkpt>
      <trkpt lat="36.68639" lon="-5.002348">
        <ele>1723.751</ele>
        <time>2018-07-28T03:45:03Z</time>
      </trkpt>
      <trkpt lat="36.68637" lon="-5.002327">
        <ele>1723.864</ele>
        <time>2018-07-28T03:45:05Z</time>
      </trkpt>
      <trkpt lat="36.68636" lon="-5.002293">
        <ele>1724.034</ele>
        <time>2018-07-28T03:45:08Z</time>
      </trkpt>
      <trkpt lat="36.68633" lon="-5.002253">
        <ele>1724.167</ele>
        <time>2018-07-28T03:45:12Z</time>
      </trkpt>
      <trkpt lat="36.68632" lon="-5.002243">
        <ele>1724.184</ele>
        <time>2018-07-28T03:45:13Z</time>
      </trkpt>
      <trkpt lat="36.68628" lon="-5.002203">
        <ele>1724.13</ele>
        <time>2018-07-28T03:45:18Z</time>
      </trkpt>
      <trkpt lat="36.68626" lon="-5.002182">
        <ele>1723.991</ele>
        <time>2018-07-28T03:45:22Z</time>
      </trkpt>
      <trkpt lat="36.68624" lon="-5.002178">
        <ele>1723.738</ele>
        <time>2018-07-28T03:45:24Z</time>
      </trkpt>
      <trkpt lat="36.6862" lon="-5.00217">
        <ele>1723.297</ele>
        <time>2018-07-28T03:45:28Z</time>
      </trkpt>
      <trkpt lat="36.68618" lon="-5.002154">
        <ele>1723.213</ele>
        <time>2018-07-28T03:45:30Z</time>
      </trkpt>
      <trkpt lat="36.68615" lon="-5.002131">
        <ele>1722.973</ele>
        <time>2018-07-28T03:45:34Z</time>
      </trkpt>
      <trkpt lat="36.68614" lon="-5.002126">
        <ele>1722.915</ele>
        <time>2018-07-28T03:45:35Z</time>
      </trkpt>
      <trkpt lat="36.68612" lon="-5.002105">
        <ele>1722.769</ele>
        <time>2018-07-28T03:45:38Z</time>
      </trkpt>
      <trkpt lat="36.68607" lon="-5.002071">
        <ele>1722.494</ele>
        <time>2018-07-28T03:45:43Z</time>
      </trkpt>
      <trkpt lat="36.68605" lon="-5.002065">
        <ele>1722.2</ele>
        <time>2018-07-28T03:45:46Z</time>
      </trkpt>
      <trkpt lat="36.68603" lon="-5.002058">
        <ele>1722.049</ele>
        <time>2018-07-28T03:45:48Z</time>
      </trkpt>
      <trkpt lat="36.68601" lon="-5.002046">
        <ele>1721.9</ele>
        <time>2018-07-28T03:45:51Z</time>
      </trkpt>
      <trkpt lat="36.68601" lon="-5.002043">
        <ele>1721.883</ele>
        <time>2018-07-28T03:45:52Z</time>
      </trkpt>
      <trkpt lat="36.686" lon="-5.00204">
        <ele>1721.797</ele>
        <time>2018-07-28T03:45:53Z</time>
      </trkpt>
      <trkpt lat="36.68598" lon="-5.002026">
        <ele>1721.672</ele>
        <time>2018-07-28T03:45:55Z</time>
      </trkpt>
      <trkpt lat="36.68597" lon="-5.002013">
        <ele>1721.596</ele>
        <time>2018-07-28T03:45:57Z</time>
      </trkpt>
      <trkpt lat="36.68596" lon="-5.002007">
        <ele>1721.555</ele>
        <time>2018-07-28T03:45:58Z</time>
      </trkpt>
      <trkpt lat="36.68591" lon="-5.001986">
        <ele>1721.088</ele>
        <time>2018-07-28T03:46:03Z</time>
      </trkpt>
      <trkpt lat="36.68587" lon="-5.001966">
        <ele>1720.605</ele>
        <time>2018-07-28T03:46:08Z</time>
      </trkpt>
      <trkpt lat="36.68586" lon="-5.001962">
        <ele>1720.531</ele>
        <time>2018-07-28T03:46:09Z</time>
      </trkpt>
      <trkpt lat="36.68585" lon="-5.001959">
        <ele>1720.387</ele>
        <time>2018-07-28T03:46:10Z</time>
      </trkpt>
      <trkpt lat="36.68581" lon="-5.001928">
        <ele>1720.051</ele>
        <time>2018-07-28T03:46:15Z</time>
      </trkpt>
      <trkpt lat="36.68579" lon="-5.001923">
        <ele>1719.901</ele>
        <time>2018-07-28T03:46:16Z</time>
      </trkpt>
      <trkpt lat="36.68578" lon="-5.001913">
        <ele>1719.746</ele>
        <time>2018-07-28T03:46:18Z</time>
      </trkpt>
      <trkpt lat="36.68575" lon="-5.001898">
        <ele>1719.37</ele>
        <time>2018-07-28T03:46:21Z</time>
      </trkpt>
      <trkpt lat="36.68568" lon="-5.001881">
        <ele>1718.357</ele>
        <time>2018-07-28T03:46:27Z</time>
      </trkpt>
      <trkpt lat="36.68567" lon="-5.001882">
        <ele>1718.13</ele>
        <time>2018-07-28T03:46:28Z</time>
      </trkpt>
      <trkpt lat="36.68565" lon="-5.001881">
        <ele>1717.782</ele>
        <time>2018-07-28T03:46:30Z</time>
      </trkpt>
      <trkpt lat="36.68562" lon="-5.001872">
        <ele>1717.24</ele>
        <time>2018-07-28T03:46:33Z</time>
      </trkpt>
      <trkpt lat="36.68558" lon="-5.001848">
        <ele>1716.717</ele>
        <time>2018-07-28T03:46:37Z</time>
      </trkpt>
      <trkpt lat="36.68557" lon="-5.001838">
        <ele>1716.684</ele>
        <time>2018-07-28T03:46:38Z</time>
      </trkpt>
      <trkpt lat="36.68554" lon="-5.001801">
        <ele>1716.438</ele>
        <time>2018-07-28T03:46:42Z</time>
      </trkpt>
      <trkpt lat="36.68553" lon="-5.001792">
        <ele>1716.463</ele>
        <time>2018-07-28T03:46:43Z</time>
      </trkpt>
      <trkpt lat="36.68552" lon="-5.001783">
        <ele>1716.339</ele>
        <time>2018-07-28T03:46:44Z</time>
      </trkpt>
      <trkpt lat="36.68549" lon="-5.001754">
        <ele>1715.979</ele>
        <time>2018-07-28T03:46:48Z</time>
      </trkpt>
      <trkpt lat="36.68544" lon="-5.001708">
        <ele>1715.472</ele>
        <time>2018-07-28T03:46:53Z</time>
      </trkpt>
      <trkpt lat="36.68541" lon="-5.001676">
        <ele>1715.259</ele>
        <time>2018-07-28T03:46:56Z</time>
      </trkpt>
      <trkpt lat="36.68539" lon="-5.001658">
        <ele>1714.987</ele>
        <time>2018-07-28T03:46:58Z</time>
      </trkpt>
      <trkpt lat="36.68538" lon="-5.001652">
        <ele>1714.825</ele>
        <time>2018-07-28T03:46:59Z</time>
      </trkpt>
      <trkpt lat="36.68536" lon="-5.001633">
        <ele>1714.728</ele>
        <time>2018-07-28T03:47:01Z</time>
      </trkpt>
      <trkpt lat="36.68533" lon="-5.001571">
        <ele>1714.821</ele>
        <time>2018-07-28T03:47:06Z</time>
      </trkpt>
      <trkpt lat="36.68533" lon="-5.001559">
        <ele>1714.887</ele>
        <time>2018-07-28T03:47:07Z</time>
      </trkpt>
      <trkpt lat="36.68532" lon="-5.001548">
        <ele>1714.859</ele>
        <time>2018-07-28T03:47:08Z</time>
      </trkpt>
      <trkpt lat="36.68531" lon="-5.001538">
        <ele>1714.897</ele>
        <time>2018-07-28T03:47:09Z</time>
      </trkpt>
      <trkpt lat="36.68531" lon="-5.001528">
        <ele>1714.936</ele>
        <time>2018-07-28T03:47:10Z</time>
      </trkpt>
      <trkpt lat="36.6853" lon="-5.0015">
        <ele>1714.948</ele>
        <time>2018-07-28T03:47:13Z</time>
      </trkpt>
      <trkpt lat="36.68528" lon="-5.001474">
        <ele>1714.868</ele>
        <time>2018-07-28T03:47:16Z</time>
      </trkpt>
      <trkpt lat="36.68527" lon="-5.001456">
        <ele>1714.924</ele>
        <time>2018-07-28T03:47:18Z</time>
      </trkpt>
      <trkpt lat="36.68526" lon="-5.001445">
        <ele>1714.822</ele>
        <time>2018-07-28T03:47:20Z</time>
      </trkpt>
      <trkpt lat="36.68525" lon="-5.00144">
        <ele>1714.801</ele>
        <time>2018-07-28T03:47:21Z</time>
      </trkpt>
      <trkpt lat="36.68525" lon="-5.00142">
        <ele>1714.881</ele>
        <time>2018-07-28T03:47:24Z</time>
      </trkpt>
      <trkpt lat="36.68524" lon="-5.001414">
        <ele>1714.877</ele>
        <time>2018-07-28T03:47:25Z</time>
      </trkpt>
      <trkpt lat="36.68523" lon="-5.001398">
        <ele>1714.907</ele>
        <time>2018-07-28T03:47:28Z</time>
      </trkpt>
      <trkpt lat="36.68523" lon="-5.001386">
        <ele>1714.97</ele>
        <time>2018-07-28T03:47:29Z</time>
      </trkpt>
      <trkpt lat="36.68519" lon="-5.001331">
        <ele>1714.856</ele>
        <time>2018-07-28T03:47:35Z</time>
      </trkpt>
      <trkpt lat="36.68517" lon="-5.001307">
        <ele>1714.68</ele>
        <time>2018-07-28T03:47:38Z</time>
      </trkpt>
      <trkpt lat="36.68513" lon="-5.001252">
        <ele>1714.645</ele>
        <time>2018-07-28T03:47:45Z</time>
      </trkpt>
      <trkpt lat="36.68512" lon="-5.001237">
        <ele>1714.523</ele>
        <time>2018-07-28T03:47:47Z</time>
      </trkpt>
      <trkpt lat="36.68511" lon="-5.001229">
        <ele>1714.469</ele>
        <time>2018-07-28T03:47:48Z</time>
      </trkpt>
      <trkpt lat="36.6851" lon="-5.001221">
        <ele>1714.408</ele>
        <time>2018-07-28T03:47:49Z</time>
      </trkpt>
      <trkpt lat="36.68509" lon="-5.001192">
        <ele>1714.452</ele>
        <time>2018-07-28T03:47:52Z</time>
      </trkpt>
      <trkpt lat="36.68507" lon="-5.001152">
        <ele>1714.552</ele>
        <time>2018-07-28T03:47:56Z</time>
      </trkpt>
      <trkpt lat="36.68505" lon="-5.001136">
        <ele>1714.446</ele>
        <time>2018-07-28T03:47:58Z</time>
      </trkpt>
      <trkpt lat="36.68505" lon="-5.001131">
        <ele>1714.353</ele>
        <time>2018-07-28T03:47:59Z</time>
      </trkpt>
      <trkpt lat="36.68502" lon="-5.001084">
        <ele>1714.319</ele>
        <time>2018-07-28T03:48:05Z</time>
      </trkpt>
      <trkpt lat="36.685" lon="-5.00106">
        <ele>1714.307</ele>
        <time>2018-07-28T03:48:08Z</time>
      </trkpt>
      <trkpt lat="36.68496" lon="-5.001011">
        <ele>1714.362</ele>
        <time>2018-07-28T03:48:13Z</time>
      </trkpt>
      <trkpt lat="36.68495" lon="-5.000993">
        <ele>1714.431</ele>
        <time>2018-07-28T03:48:15Z</time>
      </trkpt>
      <trkpt lat="36.68493" lon="-5.000964">
        <ele>1714.534</ele>
        <time>2018-07-28T03:48:18Z</time>
      </trkpt>
      <trkpt lat="36.68489" lon="-5.000913">
        <ele>1714.692</ele>
        <time>2018-07-28T03:48:23Z</time>
      </trkpt>
      <trkpt lat="36.68487" lon="-5.000879">
        <ele>1714.808</ele>
        <time>2018-07-28T03:48:26Z</time>
      </trkpt>
      <trkpt lat="36.68485" lon="-5.000855">
        <ele>1714.939</ele>
        <time>2018-07-28T03:48:28Z</time>
      </trkpt>
      <trkpt lat="36.68483" lon="-5.00082">
        <ele>1714.907</ele>
        <time>2018-07-28T03:48:31Z</time>
      </trkpt>
      <trkpt lat="36.68483" lon="-5.000806">
        <ele>1714.809</ele>
        <time>2018-07-28T03:48:32Z</time>
      </trkpt>
      <trkpt lat="36.68479" lon="-5.00074">
        <ele>1714.219</ele>
        <time>2018-07-28T03:48:38Z</time>
      </trkpt>
      <trkpt lat="36.68477" lon="-5.000726">
        <ele>1713.99</ele>
        <time>2018-07-28T03:48:40Z</time>
      </trkpt>
      <trkpt lat="36.68473" lon="-5.000691">
        <ele>1713.515</ele>
        <time>2018-07-28T03:48:44Z</time>
      </trkpt>
      <trkpt lat="36.68468" lon="-5.000657">
        <ele>1713.068</ele>
        <time>2018-07-28T03:48:48Z</time>
      </trkpt>
      <trkpt lat="36.68467" lon="-5.000649">
        <ele>1712.967</ele>
        <time>2018-07-28T03:48:49Z</time>
      </trkpt>
      <trkpt lat="36.68464" lon="-5.000614">
        <ele>1712.714</ele>
        <time>2018-07-28T03:48:53Z</time>
      </trkpt>
      <trkpt lat="36.68462" lon="-5.000587">
        <ele>1712.553</ele>
        <time>2018-07-28T03:48:56Z</time>
      </trkpt>
      <trkpt lat="36.68462" lon="-5.000584">
        <ele>1712.528</ele>
        <time>2018-07-28T03:48:57Z</time>
      </trkpt>
      <trkpt lat="36.68461" lon="-5.000578">
        <ele>1712.505</ele>
        <time>2018-07-28T03:48:58Z</time>
      </trkpt>
      <trkpt lat="36.6846" lon="-5.000575">
        <ele>1712.455</ele>
        <time>2018-07-28T03:49:01Z</time>
      </trkpt>
      <trkpt lat="36.68459" lon="-5.000567">
        <ele>1712.385</ele>
        <time>2018-07-28T03:49:05Z</time>
      </trkpt>
      <trkpt lat="36.68457" lon="-5.000539">
        <ele>1712.251</ele>
        <time>2018-07-28T03:49:08Z</time>
      </trkpt>
      <trkpt lat="36.68453" lon="-5.000505">
        <ele>1712.119</ele>
        <time>2018-07-28T03:49:12Z</time>
      </trkpt>
      <trkpt lat="36.68447" lon="-5.000475">
        <ele>1711.894</ele>
        <time>2018-07-28T03:49:17Z</time>
      </trkpt>
      <trkpt lat="36.68446" lon="-5.000471">
        <ele>1711.854</ele>
        <time>2018-07-28T03:49:18Z</time>
      </trkpt>
      <trkpt lat="36.68444" lon="-5.000462">
        <ele>1711.784</ele>
        <time>2018-07-28T03:49:20Z</time>
      </trkpt>
      <trkpt lat="36.68443" lon="-5.000458">
        <ele>1711.751</ele>
        <time>2018-07-28T03:49:21Z</time>
      </trkpt>
      <trkpt lat="36.68436" lon="-5.000433">
        <ele>1711.62</ele>
        <time>2018-07-28T03:49:27Z</time>
      </trkpt>
      <trkpt lat="36.68436" lon="-5.000429">
        <ele>1711.612</ele>
        <time>2018-07-28T03:49:28Z</time>
      </trkpt>
      <trkpt lat="36.68431" lon="-5.000431">
        <ele>1711.438</ele>
        <time>2018-07-28T03:49:32Z</time>
      </trkpt>
      <trkpt lat="36.6843" lon="-5.000436">
        <ele>1711.361</ele>
        <time>2018-07-28T03:49:33Z</time>
      </trkpt>
      <trkpt lat="36.68429" lon="-5.000437">
        <ele>1711.308</ele>
        <time>2018-07-28T03:49:35Z</time>
      </trkpt>
      <trkpt lat="36.68428" lon="-5.000441">
        <ele>1711.247</ele>
        <time>2018-07-28T03:49:37Z</time>
      </trkpt>
      <trkpt lat="36.68428" lon="-5.000443">
        <ele>1711.217</ele>
        <time>2018-07-28T03:49:38Z</time>
      </trkpt>
      <trkpt lat="36.68428" lon="-5.000443">
        <ele>1711.201</ele>
        <time>2018-07-28T03:49:39Z</time>
      </trkpt>
      <trkpt lat="36.68427" lon="-5.000439">
        <ele>1711.199</ele>
        <time>2018-07-28T03:49:42Z</time>
      </trkpt>
      <trkpt lat="36.68427" lon="-5.000438">
        <ele>1711.206</ele>
        <time>2018-07-28T03:49:45Z</time>
      </trkpt>
      <trkpt lat="36.68427" lon="-5.000439">
        <ele>1711.199</ele>
        <time>2018-07-28T03:49:46Z</time>
      </trkpt>
      <trkpt lat="36.68426" lon="-5.000442">
        <ele>1711.146</ele>
        <time>2018-07-28T03:49:48Z</time>
      </trkpt>
      <trkpt lat="36.68423" lon="-5.000489">
        <ele>1710.628</ele>
        <time>2018-07-28T03:49:53Z</time>
      </trkpt>
      <trkpt lat="36.68422" lon="-5.000495">
        <ele>1710.541</ele>
        <time>2018-07-28T03:49:54Z</time>
      </trkpt>
      <trkpt lat="36.68423" lon="-5.000493">
        <ele>1710.577</ele>
        <time>2018-07-28T03:49:56Z</time>
      </trkpt>
      <trkpt lat="36.68423" lon="-5.000494">
        <ele>1710.569</ele>
        <time>2018-07-28T03:49:58Z</time>
      </trkpt>
      <trkpt lat="36.68423" lon="-5.000497">
        <ele>1710.565</ele>
        <time>2018-07-28T03:50:00Z</time>
      </trkpt>
      <trkpt lat="36.68423" lon="-5.000497">
        <ele>1710.565</ele>
        <time>2018-07-28T03:50:02Z</time>
      </trkpt>
      <trkpt lat="36.68423" lon="-5.000497">
        <ele>1710.545</ele>
        <time>2018-07-28T03:50:04Z</time>
      </trkpt>
      <trkpt lat="36.68423" lon="-5.000496">
        <ele>1710.553</ele>
        <time>2018-07-28T03:50:08Z</time>
      </trkpt>
      <trkpt lat="36.68423" lon="-5.000496">
        <ele>1710.553</ele>
        <time>2018-07-28T03:50:10Z</time>
      </trkpt>
      <trkpt lat="36.68423" lon="-5.000495">
        <ele>1710.581</ele>
        <time>2018-07-28T03:50:12Z</time>
      </trkpt>
      <trkpt lat="36.68423" lon="-5.000495">
        <ele>1710.581</ele>
        <time>2018-07-28T03:50:13Z</time>
      </trkpt>
      <trkpt lat="36.68423" lon="-5.000495">
        <ele>1710.581</ele>
        <time>2018-07-28T03:50:14Z</time>
      </trkpt>
      <trkpt lat="36.68423" lon="-5.000495">
        <ele>1710.581</ele>
        <time>2018-07-28T03:50:15Z</time>
      </trkpt>
      <trkpt lat="36.68423" lon="-5.0005">
        <ele>1710.517</ele>
        <time>2018-07-28T03:50:18Z</time>
      </trkpt>
      <trkpt lat="36.68422" lon="-5.000502">
        <ele>1710.48</ele>
        <time>2018-07-28T03:50:19Z</time>
      </trkpt>
      <trkpt lat="36.6842" lon="-5.000524">
        <ele>1710.163</ele>
        <time>2018-07-28T03:50:23Z</time>
      </trkpt>
      <trkpt lat="36.68418" lon="-5.000536">
        <ele>1709.942</ele>
        <time>2018-07-28T03:50:25Z</time>
      </trkpt>
      <trkpt lat="36.68417" lon="-5.000554">
        <ele>1709.694</ele>
        <time>2018-07-28T03:50:27Z</time>
      </trkpt>
      <trkpt lat="36.68416" lon="-5.000562">
        <ele>1709.759</ele>
        <time>2018-07-28T03:50:28Z</time>
      </trkpt>
      <trkpt lat="36.68415" lon="-5.000575">
        <ele>1709.847</ele>
        <time>2018-07-28T03:50:30Z</time>
      </trkpt>
      <trkpt lat="36.68412" lon="-5.000602">
        <ele>1710.072</ele>
        <time>2018-07-28T03:50:33Z</time>
      </trkpt>
      <trkpt lat="36.68411" lon="-5.000623">
        <ele>1710.061</ele>
        <time>2018-07-28T03:50:35Z</time>
      </trkpt>
      <trkpt lat="36.6841" lon="-5.000635">
        <ele>1710.007</ele>
        <time>2018-07-28T03:50:36Z</time>
      </trkpt>
      <trkpt lat="36.6841" lon="-5.000645">
        <ele>1710.039</ele>
        <time>2018-07-28T03:50:37Z</time>
      </trkpt>
      <trkpt lat="36.68409" lon="-5.000652">
        <ele>1710.037</ele>
        <time>2018-07-28T03:50:38Z</time>
      </trkpt>
      <trkpt lat="36.68406" lon="-5.000688">
        <ele>1710.252</ele>
        <time>2018-07-28T03:50:42Z</time>
      </trkpt>
      <trkpt lat="36.68404" lon="-5.000707">
        <ele>1710.37</ele>
        <time>2018-07-28T03:50:45Z</time>
      </trkpt>
      <trkpt lat="36.68402" lon="-5.000725">
        <ele>1710.497</ele>
        <time>2018-07-28T03:50:47Z</time>
      </trkpt>
      <trkpt lat="36.68401" lon="-5.000733">
        <ele>1710.597</ele>
        <time>2018-07-28T03:50:48Z</time>
      </trkpt>
      <trkpt lat="36.68394" lon="-5.000817">
        <ele>1710.784</ele>
        <time>2018-07-28T03:50:58Z</time>
      </trkpt>
      <trkpt lat="36.68393" lon="-5.000825">
        <ele>1710.864</ele>
        <time>2018-07-28T03:50:59Z</time>
      </trkpt>
      <trkpt lat="36.68386" lon="-5.000867">
        <ele>1711.013</ele>
        <time>2018-07-28T03:51:06Z</time>
      </trkpt>
      <trkpt lat="36.68384" lon="-5.000871">
        <ele>1711.209</ele>
        <time>2018-07-28T03:51:08Z</time>
      </trkpt>
      <trkpt lat="36.68382" lon="-5.00088">
        <ele>1711.363</ele>
        <time>2018-07-28T03:51:10Z</time>
      </trkpt>
      <trkpt lat="36.6838" lon="-5.000899">
        <ele>1711.215</ele>
        <time>2018-07-28T03:51:12Z</time>
      </trkpt>
      <trkpt lat="36.68375" lon="-5.000935">
        <ele>1711.117</ele>
        <time>2018-07-28T03:51:17Z</time>
      </trkpt>
      <trkpt lat="36.68375" lon="-5.000944">
        <ele>1710.961</ele>
        <time>2018-07-28T03:51:18Z</time>
      </trkpt>
      <trkpt lat="36.68374" lon="-5.000948">
        <ele>1710.928</ele>
        <time>2018-07-28T03:51:19Z</time>
      </trkpt>
      <trkpt lat="36.68374" lon="-5.000954">
        <ele>1710.783</ele>
        <time>2018-07-28T03:51:27Z</time>
      </trkpt>
      <trkpt lat="36.68374" lon="-5.000961">
        <ele>1710.626</ele>
        <time>2018-07-28T03:51:28Z</time>
      </trkpt>
      <trkpt lat="36.68373" lon="-5.00099">
        <ele>1710.055</ele>
        <time>2018-07-28T03:51:31Z</time>
      </trkpt>
      <trkpt lat="36.68371" lon="-5.001058">
        <ele>1708.772</ele>
        <time>2018-07-28T03:51:38Z</time>
      </trkpt>
      <trkpt lat="36.6837" lon="-5.001069">
        <ele>1708.618</ele>
        <time>2018-07-28T03:51:41Z</time>
      </trkpt>
      <trkpt lat="36.6837" lon="-5.001071">
        <ele>1708.573</ele>
        <time>2018-07-28T03:51:42Z</time>
      </trkpt>
      <trkpt lat="36.6837" lon="-5.001075">
        <ele>1708.482</ele>
        <time>2018-07-28T03:51:46Z</time>
      </trkpt>
      <trkpt lat="36.68371" lon="-5.001085">
        <ele>1708.192</ele>
        <time>2018-07-28T03:51:48Z</time>
      </trkpt>
      <trkpt lat="36.68372" lon="-5.001091">
        <ele>1707.835</ele>
        <time>2018-07-28T03:51:49Z</time>
      </trkpt>
      <trkpt lat="36.68373" lon="-5.001093">
        <ele>1707.686</ele>
        <time>2018-07-28T03:51:50Z</time>
      </trkpt>
      <trkpt lat="36.68372" lon="-5.001098">
        <ele>1707.667</ele>
        <time>2018-07-28T03:51:52Z</time>
      </trkpt>
      <trkpt lat="36.68374" lon="-5.001106">
        <ele>1707.227</ele>
        <time>2018-07-28T03:51:55Z</time>
      </trkpt>
      <trkpt lat="36.68375" lon="-5.001114">
        <ele>1706.985</ele>
        <time>2018-07-28T03:51:58Z</time>
      </trkpt>
      <trkpt lat="36.68375" lon="-5.001115">
        <ele>1706.962</ele>
        <time>2018-07-28T03:51:59Z</time>
      </trkpt>
      <trkpt lat="36.68375" lon="-5.001114">
        <ele>1706.985</ele>
        <time>2018-07-28T03:52:01Z</time>
      </trkpt>
      <trkpt lat="36.68374" lon="-5.001114">
        <ele>1707.036</ele>
        <time>2018-07-28T03:52:04Z</time>
      </trkpt>
      <trkpt lat="36.68374" lon="-5.001114">
        <ele>1707.036</ele>
        <time>2018-07-28T03:52:06Z</time>
      </trkpt>
      <trkpt lat="36.68374" lon="-5.001113">
        <ele>1707.059</ele>
        <time>2018-07-28T03:52:08Z</time>
      </trkpt>
      <trkpt lat="36.68374" lon="-5.001112">
        <ele>1707.081</ele>
        <time>2018-07-28T03:52:11Z</time>
      </trkpt>
      <trkpt lat="36.68374" lon="-5.001113">
        <ele>1707.059</ele>
        <time>2018-07-28T03:52:17Z</time>
      </trkpt>
      <trkpt lat="36.68374" lon="-5.001113">
        <ele>1707.059</ele>
        <time>2018-07-28T03:52:18Z</time>
      </trkpt>
      <trkpt lat="36.68374" lon="-5.001112">
        <ele>1707.133</ele>
        <time>2018-07-28T03:52:26Z</time>
      </trkpt>
      <trkpt lat="36.68374" lon="-5.001112">
        <ele>1707.133</ele>
        <time>2018-07-28T03:52:28Z</time>
      </trkpt>
      <trkpt lat="36.68374" lon="-5.001109">
        <ele>1707.2</ele>
        <time>2018-07-28T03:52:30Z</time>
      </trkpt>
      <trkpt lat="36.68373" lon="-5.001089">
        <ele>1707.776</ele>
        <time>2018-07-28T03:52:35Z</time>
      </trkpt>
      <trkpt lat="36.68373" lon="-5.001082">
        <ele>1707.944</ele>
        <time>2018-07-28T03:52:37Z</time>
      </trkpt>
      <trkpt lat="36.68373" lon="-5.00108">
        <ele>1707.989</ele>
        <time>2018-07-28T03:52:38Z</time>
      </trkpt>
      <trkpt lat="36.68373" lon="-5.001076">
        <ele>1708.078</ele>
        <time>2018-07-28T03:52:42Z</time>
      </trkpt>
      <trkpt lat="36.68373" lon="-5.001076">
        <ele>1708.078</ele>
        <time>2018-07-28T03:52:46Z</time>
      </trkpt>
      <trkpt lat="36.68373" lon="-5.001076">
        <ele>1708.078</ele>
        <time>2018-07-28T03:52:47Z</time>
      </trkpt>
      <trkpt lat="36.68373" lon="-5.001076">
        <ele>1708.078</ele>
        <time>2018-07-28T03:52:48Z</time>
      </trkpt>
      <trkpt lat="36.68373" lon="-5.001075">
        <ele>1708.112</ele>
        <time>2018-07-28T03:52:52Z</time>
      </trkpt>
      <trkpt lat="36.68373" lon="-5.001074">
        <ele>1708.135</ele>
        <time>2018-07-28T03:52:53Z</time>
      </trkpt>
      <trkpt lat="36.68373" lon="-5.001072">
        <ele>1708.232</ele>
        <time>2018-07-28T03:52:54Z</time>
      </trkpt>
      <trkpt lat="36.68371" lon="-5.001069">
        <ele>1708.565</ele>
        <time>2018-07-28T03:52:58Z</time>
      </trkpt>
      <trkpt lat="36.6837" lon="-5.001067">
        <ele>1708.663</ele>
        <time>2018-07-28T03:52:59Z</time>
      </trkpt>
      <trkpt lat="36.6837" lon="-5.001057">
        <ele>1708.954</ele>
        <time>2018-07-28T03:53:01Z</time>
      </trkpt>
      <trkpt lat="36.68369" lon="-5.001043">
        <ele>1709.455</ele>
        <time>2018-07-28T03:53:03Z</time>
      </trkpt>
      <trkpt lat="36.68368" lon="-5.00104">
        <ele>1709.631</ele>
        <time>2018-07-28T03:53:04Z</time>
      </trkpt>
      <trkpt lat="36.68368" lon="-5.001031">
        <ele>1709.902</ele>
        <time>2018-07-28T03:53:06Z</time>
      </trkpt>
      <trkpt lat="36.68367" lon="-5.00102">
        <ele>1710.219</ele>
        <time>2018-07-28T03:53:08Z</time>
      </trkpt>
      <trkpt lat="36.68367" lon="-5.001008">
        <ele>1710.559</ele>
        <time>2018-07-28T03:53:10Z</time>
      </trkpt>
      <trkpt lat="36.68366" lon="-5.001007">
        <ele>1710.691</ele>
        <time>2018-07-28T03:53:15Z</time>
      </trkpt>
      <trkpt lat="36.68366" lon="-5.001008">
        <ele>1710.668</ele>
        <time>2018-07-28T03:53:18Z</time>
      </trkpt>
      <trkpt lat="36.68366" lon="-5.001008">
        <ele>1710.668</ele>
        <time>2018-07-28T03:53:20Z</time>
      </trkpt>
      <trkpt lat="36.68367" lon="-5.001008">
        <ele>1710.613</ele>
        <time>2018-07-28T03:53:23Z</time>
      </trkpt>
      <trkpt lat="36.68367" lon="-5.001007">
        <ele>1710.636</ele>
        <time>2018-07-28T03:53:25Z</time>
      </trkpt>
      <trkpt lat="36.68367" lon="-5.001007">
        <ele>1710.636</ele>
        <time>2018-07-28T03:53:27Z</time>
      </trkpt>
      <trkpt lat="36.68367" lon="-5.001007">
        <ele>1710.636</ele>
        <time>2018-07-28T03:53:28Z</time>
      </trkpt>
      <trkpt lat="36.68367" lon="-5.001007">
        <ele>1710.636</ele>
        <time>2018-07-28T03:53:30Z</time>
      </trkpt>
      <trkpt lat="36.68367" lon="-5.001007">
        <ele>1710.636</ele>
        <time>2018-07-28T03:53:33Z</time>
      </trkpt>
      <trkpt lat="36.68367" lon="-5.001007">
        <ele>1710.636</ele>
        <time>2018-07-28T03:53:34Z</time>
      </trkpt>
      <trkpt lat="36.68367" lon="-5.001007">
        <ele>1710.636</ele>
        <time>2018-07-28T03:53:38Z</time>
      </trkpt>
      <trkpt lat="36.68367" lon="-5.001007">
        <ele>1710.636</ele>
        <time>2018-07-28T03:53:45Z</time>
      </trkpt>
      <trkpt lat="36.68367" lon="-5.001007">
        <ele>1710.636</ele>
        <time>2018-07-28T03:53:48Z</time>
      </trkpt>
      <trkpt lat="36.68367" lon="-5.001007">
        <ele>1710.636</ele>
        <time>2018-07-28T03:53:51Z</time>
      </trkpt>
      <trkpt lat="36.68366" lon="-5.001006">
        <ele>1710.714</ele>
        <time>2018-07-28T03:53:57Z</time>
      </trkpt>
      <trkpt lat="36.68366" lon="-5.001011">
        <ele>1710.599</ele>
        <time>2018-07-28T03:53:58Z</time>
      </trkpt>
      <trkpt lat="36.68365" lon="-5.001022">
        <ele>1710.445</ele>
        <time>2018-07-28T03:54:00Z</time>
      </trkpt>
      <trkpt lat="36.68362" lon="-5.001047">
        <ele>1710.265</ele>
        <time>2018-07-28T03:54:04Z</time>
      </trkpt>
      <trkpt lat="36.68359" lon="-5.001067">
        <ele>1710.203</ele>
        <time>2018-07-28T03:54:07Z</time>
      </trkpt>
      <trkpt lat="36.68358" lon="-5.001069">
        <ele>1710.315</ele>
        <time>2018-07-28T03:54:08Z</time>
      </trkpt>
      <trkpt lat="36.68356" lon="-5.001076">
        <ele>1710.403</ele>
        <time>2018-07-28T03:54:10Z</time>
      </trkpt>
      <trkpt lat="36.6835" lon="-5.001084">
        <ele>1711.109</ele>
        <time>2018-07-28T03:54:15Z</time>
      </trkpt>
      <trkpt lat="36.68345" lon="-5.00109">
        <ele>1711.635</ele>
        <time>2018-07-28T03:54:18Z</time>
      </trkpt>
      <trkpt lat="36.6834" lon="-5.00111">
        <ele>1711.746</ele>
        <time>2018-07-28T03:54:22Z</time>
      </trkpt>
      <trkpt lat="36.68337" lon="-5.001112">
        <ele>1712.163</ele>
        <time>2018-07-28T03:54:25Z</time>
      </trkpt>
      <trkpt lat="36.68333" lon="-5.001124">
        <ele>1712.315</ele>
        <time>2018-07-28T03:54:28Z</time>
      </trkpt>
      <trkpt lat="36.6833" lon="-5.001141">
        <ele>1712.004</ele>
        <time>2018-07-28T03:54:32Z</time>
      </trkpt>
      <trkpt lat="36.6833" lon="-5.00115">
        <ele>1711.783</ele>
        <time>2018-07-28T03:54:33Z</time>
      </trkpt>
      <trkpt lat="36.68327" lon="-5.001205">
        <ele>1710.47</ele>
        <time>2018-07-28T03:54:38Z</time>
      </trkpt>
      <trkpt lat="36.68326" lon="-5.00122">
        <ele>1710.111</ele>
        <time>2018-07-28T03:54:40Z</time>
      </trkpt>
      <trkpt lat="36.68326" lon="-5.001224">
        <ele>1710.012</ele>
        <time>2018-07-28T03:54:41Z</time>
      </trkpt>
      <trkpt lat="36.68326" lon="-5.001229">
        <ele>1709.889</ele>
        <time>2018-07-28T03:54:44Z</time>
      </trkpt>
      <trkpt lat="36.68327" lon="-5.001227">
        <ele>1709.921</ele>
        <time>2018-07-28T03:54:48Z</time>
      </trkpt>
      <trkpt lat="36.68327" lon="-5.001227">
        <ele>1709.921</ele>
        <time>2018-07-28T03:54:50Z</time>
      </trkpt>
      <trkpt lat="36.68325" lon="-5.001242">
        <ele>1709.599</ele>
        <time>2018-07-28T03:54:54Z</time>
      </trkpt>
      <trkpt lat="36.68323" lon="-5.001255">
        <ele>1709.38</ele>
        <time>2018-07-28T03:54:57Z</time>
      </trkpt>
      <trkpt lat="36.68322" lon="-5.001262">
        <ele>1709.235</ele>
        <time>2018-07-28T03:54:58Z</time>
      </trkpt>
      <trkpt lat="36.68321" lon="-5.001275">
        <ele>1708.946</ele>
        <time>2018-07-28T03:54:59Z</time>
      </trkpt>
      <trkpt lat="36.68314" lon="-5.001312">
        <ele>1708.401</ele>
        <time>2018-07-28T03:55:06Z</time>
      </trkpt>
      <trkpt lat="36.68312" lon="-5.001315">
        <ele>1708.442</ele>
        <time>2018-07-28T03:55:08Z</time>
      </trkpt>
      <trkpt lat="36.68309" lon="-5.001306">
        <ele>1708.785</ele>
        <time>2018-07-28T03:55:10Z</time>
      </trkpt>
      <trkpt lat="36.68308" lon="-5.001302">
        <ele>1708.949</ele>
        <time>2018-07-28T03:55:11Z</time>
      </trkpt>
      <trkpt lat="36.68305" lon="-5.001308">
        <ele>1708.981</ele>
        <time>2018-07-28T03:55:14Z</time>
      </trkpt>
      <trkpt lat="36.68299" lon="-5.00131">
        <ele>1709.24</ele>
        <time>2018-07-28T03:55:18Z</time>
      </trkpt>
      <trkpt lat="36.68298" lon="-5.001308">
        <ele>1709.365</ele>
        <time>2018-07-28T03:55:19Z</time>
      </trkpt>
      <trkpt lat="36.68293" lon="-5.001307">
        <ele>1709.65</ele>
        <time>2018-07-28T03:55:23Z</time>
      </trkpt>
      <trkpt lat="36.6829" lon="-5.001326">
        <ele>1709.38</ele>
        <time>2018-07-28T03:55:26Z</time>
      </trkpt>
      <trkpt lat="36.68287" lon="-5.001325">
        <ele>1709.547</ele>
        <time>2018-07-28T03:55:28Z</time>
      </trkpt>
      <trkpt lat="36.68286" lon="-5.001324">
        <ele>1709.631</ele>
        <time>2018-07-28T03:55:29Z</time>
      </trkpt>
      <trkpt lat="36.68281" lon="-5.001328">
        <ele>1709.817</ele>
        <time>2018-07-28T03:55:33Z</time>
      </trkpt>
      <trkpt lat="36.68279" lon="-5.001321">
        <ele>1710.097</ele>
        <time>2018-07-28T03:55:35Z</time>
      </trkpt>
      <trkpt lat="36.68275" lon="-5.001304">
        <ele>1710.64</ele>
        <time>2018-07-28T03:55:38Z</time>
      </trkpt>
      <trkpt lat="36.68272" lon="-5.001283">
        <ele>1711.224</ele>
        <time>2018-07-28T03:55:41Z</time>
      </trkpt>
      <trkpt lat="36.68271" lon="-5.001283">
        <ele>1711.282</ele>
        <time>2018-07-28T03:55:42Z</time>
      </trkpt>
      <trkpt lat="36.68268" lon="-5.001297">
        <ele>1711.17</ele>
        <time>2018-07-28T03:55:45Z</time>
      </trkpt>
      <trkpt lat="36.68264" lon="-5.001315">
        <ele>1710.978</ele>
        <time>2018-07-28T03:55:48Z</time>
      </trkpt>
      <trkpt lat="36.68263" lon="-5.00132">
        <ele>1710.943</ele>
        <time>2018-07-28T03:55:49Z</time>
      </trkpt>
      <trkpt lat="36.68262" lon="-5.001326">
        <ele>1710.858</ele>
        <time>2018-07-28T03:55:50Z</time>
      </trkpt>
      <trkpt lat="36.68257" lon="-5.001385">
        <ele>1710</ele>
        <time>2018-07-28T03:55:56Z</time>
      </trkpt>
      <trkpt lat="36.68255" lon="-5.001406">
        <ele>1709.703</ele>
        <time>2018-07-28T03:55:58Z</time>
      </trkpt>
      <trkpt lat="36.68254" lon="-5.001413">
        <ele>1709.643</ele>
        <time>2018-07-28T03:55:59Z</time>
      </trkpt>
      <trkpt lat="36.68251" lon="-5.001426">
        <ele>1709.575</ele>
        <time>2018-07-28T03:56:03Z</time>
      </trkpt>
      <trkpt lat="36.68249" lon="-5.001427">
        <ele>1709.422</ele>
        <time>2018-07-28T03:56:05Z</time>
      </trkpt>
      <trkpt lat="36.68249" lon="-5.001427">
        <ele>1709.345</ele>
        <time>2018-07-28T03:56:06Z</time>
      </trkpt>
      <trkpt lat="36.68248" lon="-5.00143">
        <ele>1709.214</ele>
        <time>2018-07-28T03:56:08Z</time>
      </trkpt>
      <trkpt lat="36.68248" lon="-5.001431">
        <ele>1709.196</ele>
        <time>2018-07-28T03:56:11Z</time>
      </trkpt>
      <trkpt lat="36.68248" lon="-5.001434">
        <ele>1709.142</ele>
        <time>2018-07-28T03:56:15Z</time>
      </trkpt>
      <trkpt lat="36.68247" lon="-5.001434">
        <ele>1708.835</ele>
        <time>2018-07-28T03:56:17Z</time>
      </trkpt>
      <trkpt lat="36.68246" lon="-5.001431">
        <ele>1708.657</ele>
        <time>2018-07-28T03:56:18Z</time>
      </trkpt>
      <trkpt lat="36.68244" lon="-5.00142">
        <ele>1708.544</ele>
        <time>2018-07-28T03:56:20Z</time>
      </trkpt>
      <trkpt lat="36.68243" lon="-5.001415">
        <ele>1708.402</ele>
        <time>2018-07-28T03:56:21Z</time>
      </trkpt>
      <trkpt lat="36.68242" lon="-5.001415">
        <ele>1708.167</ele>
        <time>2018-07-28T03:56:22Z</time>
      </trkpt>
      <trkpt lat="36.6824" lon="-5.001396">
        <ele>1708.006</ele>
        <time>2018-07-28T03:56:25Z</time>
      </trkpt>
      <trkpt lat="36.68238" lon="-5.001371">
        <ele>1708.096</ele>
        <time>2018-07-28T03:56:28Z</time>
      </trkpt>
      <trkpt lat="36.68237" lon="-5.001354">
        <ele>1708.116</ele>
        <time>2018-07-28T03:56:30Z</time>
      </trkpt>
      <trkpt lat="36.68234" lon="-5.001326">
        <ele>1707.872</ele>
        <time>2018-07-28T03:56:33Z</time>
      </trkpt>
      <trkpt lat="36.68231" lon="-5.001311">
        <ele>1707.488</ele>
        <time>2018-07-28T03:56:36Z</time>
      </trkpt>
      <trkpt lat="36.68229" lon="-5.001306">
        <ele>1707.026</ele>
        <time>2018-07-28T03:56:38Z</time>
      </trkpt>
      <trkpt lat="36.68228" lon="-5.001304">
        <ele>1706.875</ele>
        <time>2018-07-28T03:56:39Z</time>
      </trkpt>
      <trkpt lat="36.68227" lon="-5.001292">
        <ele>1706.68</ele>
        <time>2018-07-28T03:56:41Z</time>
      </trkpt>
      <trkpt lat="36.68224" lon="-5.001258">
        <ele>1706.398</ele>
        <time>2018-07-28T03:56:44Z</time>
      </trkpt>
      <trkpt lat="36.68221" lon="-5.001212">
        <ele>1706.202</ele>
        <time>2018-07-28T03:56:48Z</time>
      </trkpt>
      <trkpt lat="36.68219" lon="-5.001191">
        <ele>1705.957</ele>
        <time>2018-07-28T03:56:50Z</time>
      </trkpt>
      <trkpt lat="36.68217" lon="-5.001175">
        <ele>1705.639</ele>
        <time>2018-07-28T03:56:52Z</time>
      </trkpt>
      <trkpt lat="36.68211" lon="-5.001109">
        <ele>1704.654</ele>
        <time>2018-07-28T03:56:58Z</time>
      </trkpt>
      <trkpt lat="36.68208" lon="-5.001063">
        <ele>1704.428</ele>
        <time>2018-07-28T03:57:01Z</time>
      </trkpt>
      <trkpt lat="36.68208" lon="-5.000997">
        <ele>1704.785</ele>
        <time>2018-07-28T03:57:05Z</time>
      </trkpt>
      <trkpt lat="36.68207" lon="-5.00095">
        <ele>1705.079</ele>
        <time>2018-07-28T03:57:08Z</time>
      </trkpt>
      <trkpt lat="36.68207" lon="-5.000932">
        <ele>1705.109</ele>
        <time>2018-07-28T03:57:09Z</time>
      </trkpt>
      <trkpt lat="36.68205" lon="-5.000849">
        <ele>1705.304</ele>
        <time>2018-07-28T03:57:14Z</time>
      </trkpt>
      <trkpt lat="36.68204" lon="-5.000788">
        <ele>1705.278</ele>
        <time>2018-07-28T03:57:18Z</time>
      </trkpt>
      <trkpt lat="36.68205" lon="-5.000756">
        <ele>1705.496</ele>
        <time>2018-07-28T03:57:20Z</time>
      </trkpt>
      <trkpt lat="36.68204" lon="-5.000721">
        <ele>1705.447</ele>
        <time>2018-07-28T03:57:22Z</time>
      </trkpt>
      <trkpt lat="36.68204" lon="-5.000692">
        <ele>1705.38</ele>
        <time>2018-07-28T03:57:24Z</time>
      </trkpt>
      <trkpt lat="36.68204" lon="-5.000667">
        <ele>1705.441</ele>
        <time>2018-07-28T03:57:26Z</time>
      </trkpt>
      <trkpt lat="36.68204" lon="-5.000641">
        <ele>1705.363</ele>
        <time>2018-07-28T03:57:28Z</time>
      </trkpt>
      <trkpt lat="36.68203" lon="-5.00063">
        <ele>1705.246</ele>
        <time>2018-07-28T03:57:29Z</time>
      </trkpt>
      <trkpt lat="36.68202" lon="-5.000609">
        <ele>1704.864</ele>
        <time>2018-07-28T03:57:31Z</time>
      </trkpt>
      <trkpt lat="36.68202" lon="-5.000595">
        <ele>1704.895</ele>
        <time>2018-07-28T03:57:32Z</time>
      </trkpt>
      <trkpt lat="36.68202" lon="-5.00055">
        <ele>1704.848</ele>
        <time>2018-07-28T03:57:35Z</time>
      </trkpt>
      <trkpt lat="36.68201" lon="-5.000508">
        <ele>1704.789</ele>
        <time>2018-07-28T03:57:38Z</time>
      </trkpt>
      <trkpt lat="36.68201" lon="-5.00044">
        <ele>1704.628</ele>
        <time>2018-07-28T03:57:43Z</time>
      </trkpt>
      <trkpt lat="36.682" lon="-5.000405">
        <ele>1704.237</ele>
        <time>2018-07-28T03:57:46Z</time>
      </trkpt>
      <trkpt lat="36.68199" lon="-5.000385">
        <ele>1703.964</ele>
        <time>2018-07-28T03:57:48Z</time>
      </trkpt>
      <trkpt lat="36.68198" lon="-5.000375">
        <ele>1703.826</ele>
        <time>2018-07-28T03:57:49Z</time>
      </trkpt>
      <trkpt lat="36.68198" lon="-5.000355">
        <ele>1703.548</ele>
        <time>2018-07-28T03:57:51Z</time>
      </trkpt>
      <trkpt lat="36.68197" lon="-5.000332">
        <ele>1703.27</ele>
        <time>2018-07-28T03:57:53Z</time>
      </trkpt>
      <trkpt lat="36.68196" lon="-5.000288">
        <ele>1702.857</ele>
        <time>2018-07-28T03:57:57Z</time>
      </trkpt>
      <trkpt lat="36.68196" lon="-5.000277">
        <ele>1702.872</ele>
        <time>2018-07-28T03:57:58Z</time>
      </trkpt>
      <trkpt lat="36.68196" lon="-5.000264">
        <ele>1702.89</ele>
        <time>2018-07-28T03:57:59Z</time>
      </trkpt>
      <trkpt lat="36.68196" lon="-5.00025">
        <ele>1703.071</ele>
        <time>2018-07-28T03:58:00Z</time>
      </trkpt>
      <trkpt lat="36.68197" lon="-5.000219">
        <ele>1703.441</ele>
        <time>2018-07-28T03:58:03Z</time>
      </trkpt>
      <trkpt lat="36.68196" lon="-5.000164">
        <ele>1703.358</ele>
        <time>2018-07-28T03:58:08Z</time>
      </trkpt>
      <trkpt lat="36.68196" lon="-5.000154">
        <ele>1703.373</ele>
        <time>2018-07-28T03:58:09Z</time>
      </trkpt>
      <trkpt lat="36.68197" lon="-5.000123">
        <ele>1703.754</ele>
        <time>2018-07-28T03:58:12Z</time>
      </trkpt>
      <trkpt lat="36.68199" lon="-5.000074">
        <ele>1704.512</ele>
        <time>2018-07-28T03:58:17Z</time>
      </trkpt>
      <trkpt lat="36.68199" lon="-5.000062">
        <ele>1704.533</ele>
        <time>2018-07-28T03:58:18Z</time>
      </trkpt>
      <trkpt lat="36.68198" lon="-5.00005">
        <ele>1704.039</ele>
        <time>2018-07-28T03:58:20Z</time>
      </trkpt>
      <trkpt lat="36.68198" lon="-5.000018">
        <ele>1704.437</ele>
        <time>2018-07-28T03:58:23Z</time>
      </trkpt>
      <trkpt lat="36.68198" lon="-5.000008">
        <ele>1704.454</ele>
        <time>2018-07-28T03:58:24Z</time>
      </trkpt>
      <trkpt lat="36.68198" lon="-4.999983">
        <ele>1704.316</ele>
        <time>2018-07-28T03:58:26Z</time>
      </trkpt>
      <trkpt lat="36.68198" lon="-4.999971">
        <ele>1704.21</ele>
        <time>2018-07-28T03:58:27Z</time>
      </trkpt>
      <trkpt lat="36.68198" lon="-4.999958">
        <ele>1704.096</ele>
        <time>2018-07-28T03:58:28Z</time>
      </trkpt>
      <trkpt lat="36.68199" lon="-4.999947">
        <ele>1704.173</ele>
        <time>2018-07-28T03:58:29Z</time>
      </trkpt>
      <trkpt lat="36.682" lon="-4.999908">
        <ele>1704.173</ele>
        <time>2018-07-28T03:58:32Z</time>
      </trkpt>
      <trkpt lat="36.682" lon="-4.999883">
        <ele>1704.127</ele>
        <time>2018-07-28T03:58:34Z</time>
      </trkpt>
      <trkpt lat="36.682" lon="-4.99983">
        <ele>1703.825</ele>
        <time>2018-07-28T03:58:38Z</time>
      </trkpt>
      <trkpt lat="36.68201" lon="-4.999818">
        <ele>1703.892</ele>
        <time>2018-07-28T03:58:39Z</time>
      </trkpt>
      <trkpt lat="36.68201" lon="-4.99979">
        <ele>1703.819</ele>
        <time>2018-07-28T03:58:41Z</time>
      </trkpt>
      <trkpt lat="36.68201" lon="-4.99972">
        <ele>1703.368</ele>
        <time>2018-07-28T03:58:46Z</time>
      </trkpt>
      <trkpt lat="36.68202" lon="-4.999696">
        <ele>1703.496</ele>
        <time>2018-07-28T03:58:48Z</time>
      </trkpt>
      <trkpt lat="36.68203" lon="-4.999672">
        <ele>1703.8</ele>
        <time>2018-07-28T03:58:50Z</time>
      </trkpt>
      <trkpt lat="36.68204" lon="-4.999633">
        <ele>1703.623</ele>
        <time>2018-07-28T03:58:53Z</time>
      </trkpt>
      <trkpt lat="36.68204" lon="-4.999621">
        <ele>1703.517</ele>
        <time>2018-07-28T03:58:54Z</time>
      </trkpt>
      <trkpt lat="36.68204" lon="-4.999609">
        <ele>1703.582</ele>
        <time>2018-07-28T03:58:55Z</time>
      </trkpt>
      <trkpt lat="36.68204" lon="-4.999569">
        <ele>1703.396</ele>
        <time>2018-07-28T03:58:58Z</time>
      </trkpt>
      <trkpt lat="36.68206" lon="-4.999525">
        <ele>1703.517</ele>
        <time>2018-07-28T03:59:01Z</time>
      </trkpt>
      <trkpt lat="36.68206" lon="-4.999482">
        <ele>1703.304</ele>
        <time>2018-07-28T03:59:05Z</time>
      </trkpt>
      <trkpt lat="36.68206" lon="-4.999447">
        <ele>1702.987</ele>
        <time>2018-07-28T03:59:08Z</time>
      </trkpt>
      <trkpt lat="36.68206" lon="-4.999415">
        <ele>1702.701</ele>
        <time>2018-07-28T03:59:11Z</time>
      </trkpt>
      <trkpt lat="36.68206" lon="-4.999391">
        <ele>1702.658</ele>
        <time>2018-07-28T03:59:13Z</time>
      </trkpt>
      <trkpt lat="36.68206" lon="-4.999356">
        <ele>1702</ele>
        <time>2018-07-28T03:59:16Z</time>
      </trkpt>
      <trkpt lat="36.68206" lon="-4.999334">
        <ele>1701.804</ele>
        <time>2018-07-28T03:59:18Z</time>
      </trkpt>
      <trkpt lat="36.68205" lon="-4.99931">
        <ele>1701.25</ele>
        <time>2018-07-28T03:59:20Z</time>
      </trkpt>
      <trkpt lat="36.68204" lon="-4.999275">
        <ele>1700.598</ele>
        <time>2018-07-28T03:59:23Z</time>
      </trkpt>
      <trkpt lat="36.68203" lon="-4.999234">
        <ele>1699.892</ele>
        <time>2018-07-28T03:59:26Z</time>
      </trkpt>
      <trkpt lat="36.68203" lon="-4.999204">
        <ele>1699.285</ele>
        <time>2018-07-28T03:59:28Z</time>
      </trkpt>
      <trkpt lat="36.68201" lon="-4.999173">
        <ele>1698.5</ele>
        <time>2018-07-28T03:59:31Z</time>
      </trkpt>
      <trkpt lat="36.68201" lon="-4.999166">
        <ele>1698.271</ele>
        <time>2018-07-28T03:59:32Z</time>
      </trkpt>
      <trkpt lat="36.68199" lon="-4.99912">
        <ele>1697.296</ele>
        <time>2018-07-28T03:59:37Z</time>
      </trkpt>
      <trkpt lat="36.68199" lon="-4.999111">
        <ele>1697.27</ele>
        <time>2018-07-28T03:59:38Z</time>
      </trkpt>
      <trkpt lat="36.68199" lon="-4.999082">
        <ele>1697.022</ele>
        <time>2018-07-28T03:59:41Z</time>
      </trkpt>
      <trkpt lat="36.68198" lon="-4.999075">
        <ele>1696.836</ele>
        <time>2018-07-28T03:59:42Z</time>
      </trkpt>
      <trkpt lat="36.68197" lon="-4.999062">
        <ele>1696.303</ele>
        <time>2018-07-28T03:59:44Z</time>
      </trkpt>
      <trkpt lat="36.68196" lon="-4.999051">
        <ele>1695.777</ele>
        <time>2018-07-28T03:59:46Z</time>
      </trkpt>
      <trkpt lat="36.68195" lon="-4.999045">
        <ele>1695.431</ele>
        <time>2018-07-28T03:59:47Z</time>
      </trkpt>
      <trkpt lat="36.68195" lon="-4.99904">
        <ele>1695.254</ele>
        <time>2018-07-28T03:59:48Z</time>
      </trkpt>
      <trkpt lat="36.68194" lon="-4.999027">
        <ele>1694.727</ele>
        <time>2018-07-28T03:59:50Z</time>
      </trkpt>
      <trkpt lat="36.68192" lon="-4.999012">
        <ele>1693.871</ele>
        <time>2018-07-28T03:59:52Z</time>
      </trkpt>
      <trkpt lat="36.6819" lon="-4.999002">
        <ele>1693.029</ele>
        <time>2018-07-28T03:59:54Z</time>
      </trkpt>
      <trkpt lat="36.68189" lon="-4.998989">
        <ele>1692.513</ele>
        <time>2018-07-28T03:59:56Z</time>
      </trkpt>
      <trkpt lat="36.68188" lon="-4.998971">
        <ele>1692.315</ele>
        <time>2018-07-28T03:59:58Z</time>
      </trkpt>
      <trkpt lat="36.68188" lon="-4.998965">
        <ele>1691.978</ele>
        <time>2018-07-28T03:59:59Z</time>
      </trkpt>
      <trkpt lat="36.68187" lon="-4.99896">
        <ele>1691.481</ele>
        <time>2018-07-28T04:00:01Z</time>
      </trkpt>
      <trkpt lat="36.68186" lon="-4.998953">
        <ele>1691.307</ele>
        <time>2018-07-28T04:00:02Z</time>
      </trkpt>
      <trkpt lat="36.68186" lon="-4.998933">
        <ele>1691.273</ele>
        <time>2018-07-28T04:00:04Z</time>
      </trkpt>
      <trkpt lat="36.68186" lon="-4.99891">
        <ele>1691.234</ele>
        <time>2018-07-28T04:00:06Z</time>
      </trkpt>
      <trkpt lat="36.68186" lon="-4.99889">
        <ele>1691.201</ele>
        <time>2018-07-28T04:00:08Z</time>
      </trkpt>
      <trkpt lat="36.68186" lon="-4.998882">
        <ele>1691.187</ele>
        <time>2018-07-28T04:00:09Z</time>
      </trkpt>
      <trkpt lat="36.68186" lon="-4.998874">
        <ele>1691.174</ele>
        <time>2018-07-28T04:00:10Z</time>
      </trkpt>
      <trkpt lat="36.68186" lon="-4.998864">
        <ele>1690.998</ele>
        <time>2018-07-28T04:00:11Z</time>
      </trkpt>
      <trkpt lat="36.68186" lon="-4.99879">
        <ele>1690.875</ele>
        <time>2018-07-28T04:00:18Z</time>
      </trkpt>
      <trkpt lat="36.68186" lon="-4.99879">
        <ele>1690.875</ele>
        <time>2018-07-28T04:00:19Z</time>
      </trkpt>
      <trkpt lat="36.68186" lon="-4.998782">
        <ele>1691.019</ele>
        <time>2018-07-28T04:00:21Z</time>
      </trkpt>
      <trkpt lat="36.68186" lon="-4.998782">
        <ele>1691.019</ele>
        <time>2018-07-28T04:00:24Z</time>
      </trkpt>
      <trkpt lat="36.68187" lon="-4.998785">
        <ele>1691.18</ele>
        <time>2018-07-28T04:00:28Z</time>
      </trkpt>
      <trkpt lat="36.68187" lon="-4.998787">
        <ele>1691.184</ele>
        <time>2018-07-28T04:00:30Z</time>
      </trkpt>
      <trkpt lat="36.68186" lon="-4.998794">
        <ele>1690.882</ele>
        <time>2018-07-28T04:00:36Z</time>
      </trkpt>
      <trkpt lat="36.68185" lon="-4.998796">
        <ele>1690.728</ele>
        <time>2018-07-28T04:00:38Z</time>
      </trkpt>
      <trkpt lat="36.68185" lon="-4.998797">
        <ele>1690.729</ele>
        <time>2018-07-28T04:00:39Z</time>
      </trkpt>
      <trkpt lat="36.68185" lon="-4.998796">
        <ele>1690.571</ele>
        <time>2018-07-28T04:00:40Z</time>
      </trkpt>
      <trkpt lat="36.68185" lon="-4.998787">
        <ele>1690.713</ele>
        <time>2018-07-28T04:00:42Z</time>
      </trkpt>
      <trkpt lat="36.68187" lon="-4.99878">
        <ele>1691.171</ele>
        <time>2018-07-28T04:00:48Z</time>
      </trkpt>
      <trkpt lat="36.68188" lon="-4.998776">
        <ele>1691.791</ele>
        <time>2018-07-28T04:00:53Z</time>
      </trkpt>
      <trkpt lat="36.68188" lon="-4.998776">
        <ele>1691.791</ele>
        <time>2018-07-28T04:00:54Z</time>
      </trkpt>
      <trkpt lat="36.68189" lon="-4.998777">
        <ele>1692.106</ele>
        <time>2018-07-28T04:00:58Z</time>
      </trkpt>
      <trkpt lat="36.6819" lon="-4.998779">
        <ele>1692.422</ele>
        <time>2018-07-28T04:01:02Z</time>
      </trkpt>
      <trkpt lat="36.6819" lon="-4.998774">
        <ele>1692.726</ele>
        <time>2018-07-28T04:01:08Z</time>
      </trkpt>
      <trkpt lat="36.68191" lon="-4.998774">
        <ele>1692.882</ele>
        <time>2018-07-28T04:01:11Z</time>
      </trkpt>
      <trkpt lat="36.68191" lon="-4.998773">
        <ele>1692.88</ele>
        <time>2018-07-28T04:01:14Z</time>
      </trkpt>
      <trkpt lat="36.68191" lon="-4.998767">
        <ele>1692.867</ele>
        <time>2018-07-28T04:01:18Z</time>
      </trkpt>
      <trkpt lat="36.68187" lon="-4.998774">
        <ele>1691.474</ele>
        <time>2018-07-28T04:01:23Z</time>
      </trkpt>
      <trkpt lat="36.68186" lon="-4.998784">
        <ele>1691.022</ele>
        <time>2018-07-28T04:01:28Z</time>
      </trkpt>
      <trkpt lat="36.68186" lon="-4.998784">
        <ele>1691.022</ele>
        <time>2018-07-28T04:01:29Z</time>
      </trkpt>
      <trkpt lat="36.68186" lon="-4.998783">
        <ele>1691.02</ele>
        <time>2018-07-28T04:01:32Z</time>
      </trkpt>
      <trkpt lat="36.68186" lon="-4.998779">
        <ele>1691.013</ele>
        <time>2018-07-28T04:01:33Z</time>
      </trkpt>
      <trkpt lat="36.68186" lon="-4.998768">
        <ele>1690.839</ele>
        <time>2018-07-28T04:01:34Z</time>
      </trkpt>
      <trkpt lat="36.68185" lon="-4.998761">
        <ele>1690.515</ele>
        <time>2018-07-28T04:01:35Z</time>
      </trkpt>
      <trkpt lat="36.68185" lon="-4.998754">
        <ele>1690.504</ele>
        <time>2018-07-28T04:01:36Z</time>
      </trkpt>
      <trkpt lat="36.68184" lon="-4.99874">
        <ele>1690.172</ele>
        <time>2018-07-28T04:01:38Z</time>
      </trkpt>
      <trkpt lat="36.68183" lon="-4.998637">
        <ele>1689.559</ele>
        <time>2018-07-28T04:01:46Z</time>
      </trkpt>
      <trkpt lat="36.68182" lon="-4.99861">
        <ele>1689.067</ele>
        <time>2018-07-28T04:01:48Z</time>
      </trkpt>
      <trkpt lat="36.68179" lon="-4.998529">
        <ele>1687.625</ele>
        <time>2018-07-28T04:01:53Z</time>
      </trkpt>
      <trkpt lat="36.68177" lon="-4.998467">
        <ele>1687.122</ele>
        <time>2018-07-28T04:01:57Z</time>
      </trkpt>
      <trkpt lat="36.68177" lon="-4.998452">
        <ele>1687.108</ele>
        <time>2018-07-28T04:01:58Z</time>
      </trkpt>
      <trkpt lat="36.68177" lon="-4.998435">
        <ele>1687.092</ele>
        <time>2018-07-28T04:01:59Z</time>
      </trkpt>
      <trkpt lat="36.68177" lon="-4.998418">
        <ele>1686.932</ele>
        <time>2018-07-28T04:02:00Z</time>
      </trkpt>
      <trkpt lat="36.68176" lon="-4.998389">
        <ele>1686.618</ele>
        <time>2018-07-28T04:02:02Z</time>
      </trkpt>
      <trkpt lat="36.68175" lon="-4.998323">
        <ele>1686.17</ele>
        <time>2018-07-28T04:02:06Z</time>
      </trkpt>
      <trkpt lat="36.68175" lon="-4.998306">
        <ele>1686.07</ele>
        <time>2018-07-28T04:02:07Z</time>
      </trkpt>
      <trkpt lat="36.68175" lon="-4.998288">
        <ele>1686.111</ele>
        <time>2018-07-28T04:02:08Z</time>
      </trkpt>
      <trkpt lat="36.68174" lon="-4.998202">
        <ele>1686.061</ele>
        <time>2018-07-28T04:02:13Z</time>
      </trkpt>
      <trkpt lat="36.68174" lon="-4.998187">
        <ele>1686.099</ele>
        <time>2018-07-28T04:02:14Z</time>
      </trkpt>
      <trkpt lat="36.68174" lon="-4.998131">
        <ele>1686.364</ele>
        <time>2018-07-28T04:02:18Z</time>
      </trkpt>
      <trkpt lat="36.68174" lon="-4.998102">
        <ele>1686.434</ele>
        <time>2018-07-28T04:02:20Z</time>
      </trkpt>
      <trkpt lat="36.68174" lon="-4.998088">
        <ele>1686.356</ele>
        <time>2018-07-28T04:02:21Z</time>
      </trkpt>
      <trkpt lat="36.68175" lon="-4.99804">
        <ele>1686.696</ele>
        <time>2018-07-28T04:02:24Z</time>
      </trkpt>
      <trkpt lat="36.68175" lon="-4.997998">
        <ele>1686.898</ele>
        <time>2018-07-28T04:02:27Z</time>
      </trkpt>
      <trkpt lat="36.68175" lon="-4.997983">
        <ele>1686.932</ele>
        <time>2018-07-28T04:02:28Z</time>
      </trkpt>
      <trkpt lat="36.68175" lon="-4.997909">
        <ele>1687.005</ele>
        <time>2018-07-28T04:02:33Z</time>
      </trkpt>
      <trkpt lat="36.68175" lon="-4.997895">
        <ele>1687.039</ele>
        <time>2018-07-28T04:02:34Z</time>
      </trkpt>
      <trkpt lat="36.68175" lon="-4.997867">
        <ele>1687.192</ele>
        <time>2018-07-28T04:02:36Z</time>
      </trkpt>
      <trkpt lat="36.68176" lon="-4.997843">
        <ele>1687.332</ele>
        <time>2018-07-28T04:02:38Z</time>
      </trkpt>
      <trkpt lat="36.68176" lon="-4.997828">
        <ele>1687.363</ele>
        <time>2018-07-28T04:02:39Z</time>
      </trkpt>
      <trkpt lat="36.68176" lon="-4.997783">
        <ele>1687.615</ele>
        <time>2018-07-28T04:02:42Z</time>
      </trkpt>
      <trkpt lat="36.68177" lon="-4.997702">
        <ele>1687.838</ele>
        <time>2018-07-28T04:02:48Z</time>
      </trkpt>
      <trkpt lat="36.68177" lon="-4.997672">
        <ele>1687.957</ele>
        <time>2018-07-28T04:02:50Z</time>
      </trkpt>
      <trkpt lat="36.68179" lon="-4.997594">
        <ele>1688.371</ele>
        <time>2018-07-28T04:02:56Z</time>
      </trkpt>
      <trkpt lat="36.6818" lon="-4.997581">
        <ele>1688.495</ele>
        <time>2018-07-28T04:02:57Z</time>
      </trkpt>
      <trkpt lat="36.6818" lon="-4.997572">
        <ele>1688.557</ele>
        <time>2018-07-28T04:02:58Z</time>
      </trkpt>
      <trkpt lat="36.68182" lon="-4.997524">
        <ele>1688.835</ele>
        <time>2018-07-28T04:03:02Z</time>
      </trkpt>
      <trkpt lat="36.68182" lon="-4.997512">
        <ele>1688.884</ele>
        <time>2018-07-28T04:03:03Z</time>
      </trkpt>
      <trkpt lat="36.68183" lon="-4.997477">
        <ele>1689.303</ele>
        <time>2018-07-28T04:03:06Z</time>
      </trkpt>
      <trkpt lat="36.68183" lon="-4.997465">
        <ele>1689.433</ele>
        <time>2018-07-28T04:03:07Z</time>
      </trkpt>
      <trkpt lat="36.68182" lon="-4.997452">
        <ele>1689.588</ele>
        <time>2018-07-28T04:03:08Z</time>
      </trkpt>
      <trkpt lat="36.68181" lon="-4.997441">
        <ele>1689.641</ele>
        <time>2018-07-28T04:03:09Z</time>
      </trkpt>
      <trkpt lat="36.68179" lon="-4.997423">
        <ele>1689.744</ele>
        <time>2018-07-28T04:03:11Z</time>
      </trkpt>
      <trkpt lat="36.68175" lon="-4.997409">
        <ele>1689.639</ele>
        <time>2018-07-28T04:03:14Z</time>
      </trkpt>
      <trkpt lat="36.68174" lon="-4.997401">
        <ele>1689.688</ele>
        <time>2018-07-28T04:03:15Z</time>
      </trkpt>
      <trkpt lat="36.68172" lon="-4.997393">
        <ele>1689.727</ele>
        <time>2018-07-28T04:03:16Z</time>
      </trkpt>
      <trkpt lat="36.68171" lon="-4.997386">
        <ele>1689.784</ele>
        <time>2018-07-28T04:03:17Z</time>
      </trkpt>
      <trkpt lat="36.6817" lon="-4.997379">
        <ele>1689.823</ele>
        <time>2018-07-28T04:03:18Z</time>
      </trkpt>
      <trkpt lat="36.68168" lon="-4.997371">
        <ele>1689.882</ele>
        <time>2018-07-28T04:03:19Z</time>
      </trkpt>
      <trkpt lat="36.68167" lon="-4.997362">
        <ele>1690.004</ele>
        <time>2018-07-28T04:03:20Z</time>
      </trkpt>
      <trkpt lat="36.68165" lon="-4.997347">
        <ele>1690.517</ele>
        <time>2018-07-28T04:03:22Z</time>
      </trkpt>
      <trkpt lat="36.68163" lon="-4.997337">
        <ele>1690.998</ele>
        <time>2018-07-28T04:03:24Z</time>
      </trkpt>
      <trkpt lat="36.68159" lon="-4.99732">
        <ele>1691.812</ele>
        <time>2018-07-28T04:03:28Z</time>
      </trkpt>
      <trkpt lat="36.68157" lon="-4.997308">
        <ele>1692.271</ele>
        <time>2018-07-28T04:03:30Z</time>
      </trkpt>
      <trkpt lat="36.68157" lon="-4.997304">
        <ele>1692.403</ele>
        <time>2018-07-28T04:03:31Z</time>
      </trkpt>
      <trkpt lat="36.6815" lon="-4.997281">
        <ele>1693.755</ele>
        <time>2018-07-28T04:03:38Z</time>
      </trkpt>
      <trkpt lat="36.68149" lon="-4.99728">
        <ele>1693.917</ele>
        <time>2018-07-28T04:03:39Z</time>
      </trkpt>
      <trkpt lat="36.68146" lon="-4.997272">
        <ele>1694.482</ele>
        <time>2018-07-28T04:03:42Z</time>
      </trkpt>
      <trkpt lat="36.68144" lon="-4.997261">
        <ele>1694.98</ele>
        <time>2018-07-28T04:03:44Z</time>
      </trkpt>
      <trkpt lat="36.6814" lon="-4.997241">
        <ele>1695.898</ele>
        <time>2018-07-28T04:03:47Z</time>
      </trkpt>
      <trkpt lat="36.6814" lon="-4.997236">
        <ele>1696.123</ele>
        <time>2018-07-28T04:03:48Z</time>
      </trkpt>
      <trkpt lat="36.68138" lon="-4.997231">
        <ele>1696.483</ele>
        <time>2018-07-28T04:03:50Z</time>
      </trkpt>
      <trkpt lat="36.68137" lon="-4.997231">
        <ele>1696.58</ele>
        <time>2018-07-28T04:03:51Z</time>
      </trkpt>
      <trkpt lat="36.68135" lon="-4.997236">
        <ele>1696.654</ele>
        <time>2018-07-28T04:03:54Z</time>
      </trkpt>
      <trkpt lat="36.68131" lon="-4.997213">
        <ele>1697.772</ele>
        <time>2018-07-28T04:03:58Z</time>
      </trkpt>
      <trkpt lat="36.6813" lon="-4.997207">
        <ele>1698.068</ele>
        <time>2018-07-28T04:03:59Z</time>
      </trkpt>
      <trkpt lat="36.68129" lon="-4.997199">
        <ele>1698.377</ele>
        <time>2018-07-28T04:04:00Z</time>
      </trkpt>
      <trkpt lat="36.68128" lon="-4.997192">
        <ele>1698.712</ele>
        <time>2018-07-28T04:04:01Z</time>
      </trkpt>
      <trkpt lat="36.68126" lon="-4.997179">
        <ele>1699.352</ele>
        <time>2018-07-28T04:04:03Z</time>
      </trkpt>
      <trkpt lat="36.6812" lon="-4.997132">
        <ele>1701.385</ele>
        <time>2018-07-28T04:04:08Z</time>
      </trkpt>
      <trkpt lat="36.68118" lon="-4.997121">
        <ele>1702</ele>
        <time>2018-07-28T04:04:10Z</time>
      </trkpt>
      <trkpt lat="36.68117" lon="-4.997117">
        <ele>1702.265</ele>
        <time>2018-07-28T04:04:11Z</time>
      </trkpt>
      <trkpt lat="36.68113" lon="-4.997096">
        <ele>1703.382</ele>
        <time>2018-07-28T04:04:15Z</time>
      </trkpt>
      <trkpt lat="36.68112" lon="-4.997095">
        <ele>1703.572</ele>
        <time>2018-07-28T04:04:16Z</time>
      </trkpt>
      <trkpt lat="36.6811" lon="-4.997093">
        <ele>1703.952</ele>
        <time>2018-07-28T04:04:18Z</time>
      </trkpt>
      <trkpt lat="36.68108" lon="-4.997088">
        <ele>1704.264</ele>
        <time>2018-07-28T04:04:19Z</time>
      </trkpt>
      <trkpt lat="36.68108" lon="-4.997082">
        <ele>1704.536</ele>
        <time>2018-07-28T04:04:20Z</time>
      </trkpt>
      <trkpt lat="36.68107" lon="-4.997076">
        <ele>1704.767</ele>
        <time>2018-07-28T04:04:21Z</time>
      </trkpt>
      <trkpt lat="36.68107" lon="-4.997068">
        <ele>1705.054</ele>
        <time>2018-07-28T04:04:22Z</time>
      </trkpt>
      <trkpt lat="36.68102" lon="-4.997035">
        <ele>1706.733</ele>
        <time>2018-07-28T04:04:28Z</time>
      </trkpt>
      <trkpt lat="36.681" lon="-4.997027">
        <ele>1707.198</ele>
        <time>2018-07-28T04:04:30Z</time>
      </trkpt>
      <trkpt lat="36.68095" lon="-4.997024">
        <ele>1708.03</ele>
        <time>2018-07-28T04:04:35Z</time>
      </trkpt>
      <trkpt lat="36.68094" lon="-4.997026">
        <ele>1708.145</ele>
        <time>2018-07-28T04:04:37Z</time>
      </trkpt>
      <trkpt lat="36.68093" lon="-4.997025">
        <ele>1708.289</ele>
        <time>2018-07-28T04:04:38Z</time>
      </trkpt>
      <trkpt lat="36.68092" lon="-4.99702">
        <ele>1708.677</ele>
        <time>2018-07-28T04:04:39Z</time>
      </trkpt>
      <trkpt lat="36.6809" lon="-4.997019">
        <ele>1708.937</ele>
        <time>2018-07-28T04:04:41Z</time>
      </trkpt>
      <trkpt lat="36.68088" lon="-4.997019">
        <ele>1709.284</ele>
        <time>2018-07-28T04:04:44Z</time>
      </trkpt>
      <trkpt lat="36.68087" lon="-4.997013">
        <ele>1709.691</ele>
        <time>2018-07-28T04:04:46Z</time>
      </trkpt>
      <trkpt lat="36.68085" lon="-4.997003">
        <ele>1710.175</ele>
        <time>2018-07-28T04:04:48Z</time>
      </trkpt>
      <trkpt lat="36.6808" lon="-4.996984">
        <ele>1712.114</ele>
        <time>2018-07-28T04:04:55Z</time>
      </trkpt>
      <trkpt lat="36.68079" lon="-4.996982">
        <ele>1712.416</ele>
        <time>2018-07-28T04:04:56Z</time>
      </trkpt>
      <trkpt lat="36.68078" lon="-4.996981">
        <ele>1712.931</ele>
        <time>2018-07-28T04:04:58Z</time>
      </trkpt>
      <trkpt lat="36.68077" lon="-4.996983">
        <ele>1712.992</ele>
        <time>2018-07-28T04:04:59Z</time>
      </trkpt>
      <trkpt lat="36.68076" lon="-4.996985">
        <ele>1713.296</ele>
        <time>2018-07-28T04:05:00Z</time>
      </trkpt>
      <trkpt lat="36.68076" lon="-4.996987">
        <ele>1713.478</ele>
        <time>2018-07-28T04:05:01Z</time>
      </trkpt>
      <trkpt lat="36.68074" lon="-4.996991">
        <ele>1713.947</ele>
        <time>2018-07-28T04:05:03Z</time>
      </trkpt>
      <trkpt lat="36.68071" lon="-4.997002">
        <ele>1714.565</ele>
        <time>2018-07-28T04:05:06Z</time>
      </trkpt>
      <trkpt lat="36.68069" lon="-4.997004">
        <ele>1714.987</ele>
        <time>2018-07-28T04:05:08Z</time>
      </trkpt>
      <trkpt lat="36.68066" lon="-4.997005">
        <ele>1715.802</ele>
        <time>2018-07-28T04:05:11Z</time>
      </trkpt>
      <trkpt lat="36.68066" lon="-4.997006">
        <ele>1716.013</ele>
        <time>2018-07-28T04:05:12Z</time>
      </trkpt>
      <trkpt lat="36.68062" lon="-4.997021">
        <ele>1716.725</ele>
        <time>2018-07-28T04:05:16Z</time>
      </trkpt>
      <trkpt lat="36.68061" lon="-4.997024">
        <ele>1716.993</ele>
        <time>2018-07-28T04:05:17Z</time>
      </trkpt>
      <trkpt lat="36.6806" lon="-4.997028">
        <ele>1717.11</ele>
        <time>2018-07-28T04:05:18Z</time>
      </trkpt>
      <trkpt lat="36.68056" lon="-4.997018">
        <ele>1718.64</ele>
        <time>2018-07-28T04:05:23Z</time>
      </trkpt>
      <trkpt lat="36.68055" lon="-4.997014">
        <ele>1719.006</ele>
        <time>2018-07-28T04:05:24Z</time>
      </trkpt>
      <trkpt lat="36.68055" lon="-4.99701">
        <ele>1719.373</ele>
        <time>2018-07-28T04:05:25Z</time>
      </trkpt>
      <trkpt lat="36.68053" lon="-4.997005">
        <ele>1719.907</ele>
        <time>2018-07-28T04:05:26Z</time>
      </trkpt>
      <trkpt lat="36.68053" lon="-4.997001">
        <ele>1720.275</ele>
        <time>2018-07-28T04:05:27Z</time>
      </trkpt>
      <trkpt lat="36.68052" lon="-4.996999">
        <ele>1720.595</ele>
        <time>2018-07-28T04:05:28Z</time>
      </trkpt>
      <trkpt lat="36.68051" lon="-4.996994">
        <ele>1720.994</ele>
        <time>2018-07-28T04:05:29Z</time>
      </trkpt>
      <trkpt lat="36.6805" lon="-4.996996">
        <ele>1721.415</ele>
        <time>2018-07-28T04:05:31Z</time>
      </trkpt>
      <trkpt lat="36.68048" lon="-4.996994">
        <ele>1721.962</ele>
        <time>2018-07-28T04:05:33Z</time>
      </trkpt>
      <trkpt lat="36.68047" lon="-4.996993">
        <ele>1722.236</ele>
        <time>2018-07-28T04:05:35Z</time>
      </trkpt>
      <trkpt lat="36.68047" lon="-4.99699">
        <ele>1722.452</ele>
        <time>2018-07-28T04:05:36Z</time>
      </trkpt>
      <trkpt lat="36.68046" lon="-4.996986">
        <ele>1722.837</ele>
        <time>2018-07-28T04:05:37Z</time>
      </trkpt>
      <trkpt lat="36.68045" lon="-4.996985">
        <ele>1723.111</ele>
        <time>2018-07-28T04:05:38Z</time>
      </trkpt>
      <trkpt lat="36.68045" lon="-4.996981">
        <ele>1723.481</ele>
        <time>2018-07-28T04:05:39Z</time>
      </trkpt>
      <trkpt lat="36.68044" lon="-4.996978">
        <ele>1723.835</ele>
        <time>2018-07-28T04:05:40Z</time>
      </trkpt>
      <trkpt lat="36.68043" lon="-4.996975">
        <ele>1724.174</ele>
        <time>2018-07-28T04:05:41Z</time>
      </trkpt>
      <trkpt lat="36.68042" lon="-4.996969">
        <ele>1724.73</ele>
        <time>2018-07-28T04:05:43Z</time>
      </trkpt>
      <trkpt lat="36.68041" lon="-4.996968">
        <ele>1725.022</ele>
        <time>2018-07-28T04:05:44Z</time>
      </trkpt>
      <trkpt lat="36.68041" lon="-4.996964">
        <ele>1725.271</ele>
        <time>2018-07-28T04:05:45Z</time>
      </trkpt>
      <trkpt lat="36.6804" lon="-4.996957">
        <ele>1725.756</ele>
        <time>2018-07-28T04:05:47Z</time>
      </trkpt>
      <trkpt lat="36.6804" lon="-4.996951">
        <ele>1726.07</ele>
        <time>2018-07-28T04:05:48Z</time>
      </trkpt>
      <trkpt lat="36.68036" lon="-4.996953">
        <ele>1727.347</ele>
        <time>2018-07-28T04:05:54Z</time>
      </trkpt>
      <trkpt lat="36.68035" lon="-4.996952">
        <ele>1727.501</ele>
        <time>2018-07-28T04:05:55Z</time>
      </trkpt>
      <trkpt lat="36.68034" lon="-4.996947">
        <ele>1728.167</ele>
        <time>2018-07-28T04:05:58Z</time>
      </trkpt>
      <trkpt lat="36.68033" lon="-4.996947">
        <ele>1728.411</ele>
        <time>2018-07-28T04:06:02Z</time>
      </trkpt>
      <trkpt lat="36.68033" lon="-4.996938">
        <ele>1728.704</ele>
        <time>2018-07-28T04:06:08Z</time>
      </trkpt>
      <trkpt lat="36.68029" lon="-4.996917">
        <ele>1730.786</ele>
        <time>2018-07-28T04:06:13Z</time>
      </trkpt>
      <trkpt lat="36.68025" lon="-4.996907">
        <ele>1732.219</ele>
        <time>2018-07-28T04:06:17Z</time>
      </trkpt>
      <trkpt lat="36.68024" lon="-4.996906">
        <ele>1732.637</ele>
        <time>2018-07-28T04:06:18Z</time>
      </trkpt>
      <trkpt lat="36.68023" lon="-4.996905">
        <ele>1732.916</ele>
        <time>2018-07-28T04:06:19Z</time>
      </trkpt>
      <trkpt lat="36.68019" lon="-4.996906">
        <ele>1734.112</ele>
        <time>2018-07-28T04:06:23Z</time>
      </trkpt>
      <trkpt lat="36.68018" lon="-4.996909">
        <ele>1734.365</ele>
        <time>2018-07-28T04:06:24Z</time>
      </trkpt>
      <trkpt lat="36.68016" lon="-4.996911">
        <ele>1734.912</ele>
        <time>2018-07-28T04:06:26Z</time>
      </trkpt>
      <trkpt lat="36.68015" lon="-4.996929">
        <ele>1734.766</ele>
        <time>2018-07-28T04:06:28Z</time>
      </trkpt>
      <trkpt lat="36.68011" lon="-4.996956">
        <ele>1735.168</ele>
        <time>2018-07-28T04:06:32Z</time>
      </trkpt>
      <trkpt lat="36.6801" lon="-4.99696">
        <ele>1735.26</ele>
        <time>2018-07-28T04:06:33Z</time>
      </trkpt>
      <trkpt lat="36.68006" lon="-4.99697">
        <ele>1736.241</ele>
        <time>2018-07-28T04:06:38Z</time>
      </trkpt>
      <trkpt lat="36.68005" lon="-4.996975">
        <ele>1736.314</ele>
        <time>2018-07-28T04:06:40Z</time>
      </trkpt>
      <trkpt lat="36.68005" lon="-4.996978">
        <ele>1736.212</ele>
        <time>2018-07-28T04:06:41Z</time>
      </trkpt>
      <trkpt lat="36.68003" lon="-4.996981">
        <ele>1736.578</ele>
        <time>2018-07-28T04:06:46Z</time>
      </trkpt>
      <trkpt lat="36.68003" lon="-4.996972">
        <ele>1736.902</ele>
        <time>2018-07-28T04:06:48Z</time>
      </trkpt>
      <trkpt lat="36.68003" lon="-4.996954">
        <ele>1737.673</ele>
        <time>2018-07-28T04:06:52Z</time>
      </trkpt>
      <trkpt lat="36.68003" lon="-4.996944">
        <ele>1738.153</ele>
        <time>2018-07-28T04:06:55Z</time>
      </trkpt>
      <trkpt lat="36.68002" lon="-4.996943">
        <ele>1738.554</ele>
        <time>2018-07-28T04:06:57Z</time>
      </trkpt>
      <trkpt lat="36.68001" lon="-4.996948">
        <ele>1738.627</ele>
        <time>2018-07-28T04:06:58Z</time>
      </trkpt>
      <trkpt lat="36.68" lon="-4.996952">
        <ele>1738.594</ele>
        <time>2018-07-28T04:06:59Z</time>
      </trkpt>
      <trkpt lat="36.68" lon="-4.996956">
        <ele>1738.716</ele>
        <time>2018-07-28T04:07:00Z</time>
      </trkpt>
      <trkpt lat="36.67999" lon="-4.996961">
        <ele>1738.805</ele>
        <time>2018-07-28T04:07:01Z</time>
      </trkpt>
      <trkpt lat="36.67995" lon="-4.996969">
        <ele>1739.76</ele>
        <time>2018-07-28T04:07:05Z</time>
      </trkpt>
      <trkpt lat="36.67994" lon="-4.996964">
        <ele>1740.504</ele>
        <time>2018-07-28T04:07:08Z</time>
      </trkpt>
      <trkpt lat="36.67993" lon="-4.996963">
        <ele>1740.816</ele>
        <time>2018-07-28T04:07:09Z</time>
      </trkpt>
      <trkpt lat="36.67992" lon="-4.996964">
        <ele>1741.197</ele>
        <time>2018-07-28T04:07:10Z</time>
      </trkpt>
      <trkpt lat="36.67991" lon="-4.996967">
        <ele>1741.509</ele>
        <time>2018-07-28T04:07:12Z</time>
      </trkpt>
      <trkpt lat="36.67989" lon="-4.99697">
        <ele>1742.22</ele>
        <time>2018-07-28T04:07:17Z</time>
      </trkpt>
      <trkpt lat="36.67988" lon="-4.996966">
        <ele>1742.514</ele>
        <time>2018-07-28T04:07:18Z</time>
      </trkpt>
      <trkpt lat="36.67988" lon="-4.996928">
        <ele>1744.022</ele>
        <time>2018-07-28T04:07:24Z</time>
      </trkpt>
      <trkpt lat="36.67988" lon="-4.996911">
        <ele>1744.646</ele>
        <time>2018-07-28T04:07:28Z</time>
      </trkpt>
      <trkpt lat="36.67988" lon="-4.99688">
        <ele>1745.773</ele>
        <time>2018-07-28T04:07:33Z</time>
      </trkpt>
      <trkpt lat="36.67985" lon="-4.996887">
        <ele>1746.629</ele>
        <time>2018-07-28T04:07:38Z</time>
      </trkpt>
      <trkpt lat="36.67984" lon="-4.996885">
        <ele>1746.995</ele>
        <time>2018-07-28T04:07:40Z</time>
      </trkpt>
      <trkpt lat="36.67984" lon="-4.996882">
        <ele>1747.239</ele>
        <time>2018-07-28T04:07:41Z</time>
      </trkpt>
      <trkpt lat="36.67983" lon="-4.996875">
        <ele>1747.779</ele>
        <time>2018-07-28T04:07:46Z</time>
      </trkpt>
      <trkpt lat="36.67983" lon="-4.996876">
        <ele>1747.744</ele>
        <time>2018-07-28T04:07:48Z</time>
      </trkpt>
      <trkpt lat="36.67983" lon="-4.996861">
        <ele>1748.283</ele>
        <time>2018-07-28T04:07:53Z</time>
      </trkpt>
      <trkpt lat="36.67983" lon="-4.996823">
        <ele>1749.675</ele>
        <time>2018-07-28T04:07:58Z</time>
      </trkpt>
      <trkpt lat="36.67982" lon="-4.99682">
        <ele>1750.06</ele>
        <time>2018-07-28T04:08:00Z</time>
      </trkpt>
      <trkpt lat="36.67981" lon="-4.996818">
        <ele>1750.691</ele>
        <time>2018-07-28T04:08:03Z</time>
      </trkpt>
      <trkpt lat="36.67979" lon="-4.996817">
        <ele>1751.287</ele>
        <time>2018-07-28T04:08:05Z</time>
      </trkpt>
      <trkpt lat="36.67978" lon="-4.996813">
        <ele>1752.005</ele>
        <time>2018-07-28T04:08:08Z</time>
      </trkpt>
      <trkpt lat="36.67977" lon="-4.996809">
        <ele>1752.426</ele>
        <time>2018-07-28T04:08:09Z</time>
      </trkpt>
      <trkpt lat="36.67976" lon="-4.996806">
        <ele>1752.811</ele>
        <time>2018-07-28T04:08:12Z</time>
      </trkpt>
      <trkpt lat="36.67975" lon="-4.996807">
        <ele>1753.197</ele>
        <time>2018-07-28T04:08:14Z</time>
      </trkpt>
      <trkpt lat="36.67974" lon="-4.996813">
        <ele>1753.268</ele>
        <time>2018-07-28T04:08:17Z</time>
      </trkpt>
      <trkpt lat="36.67974" lon="-4.996814">
        <ele>1753.373</ele>
        <time>2018-07-28T04:08:18Z</time>
      </trkpt>
      <trkpt lat="36.67973" lon="-4.996814">
        <ele>1753.513</ele>
        <time>2018-07-28T04:08:20Z</time>
      </trkpt>
      <trkpt lat="36.67973" lon="-4.996811">
        <ele>1753.759</ele>
        <time>2018-07-28T04:08:23Z</time>
      </trkpt>
      <trkpt lat="36.67973" lon="-4.99681">
        <ele>1753.794</ele>
        <time>2018-07-28T04:08:25Z</time>
      </trkpt>
      <trkpt lat="36.67973" lon="-4.996808">
        <ele>1753.864</ele>
        <time>2018-07-28T04:08:28Z</time>
      </trkpt>
      <trkpt lat="36.67973" lon="-4.996804">
        <ele>1753.864</ele>
        <time>2018-07-28T04:08:31Z</time>
      </trkpt>
      <trkpt lat="36.67975" lon="-4.996795">
        <ele>1753.635</ele>
        <time>2018-07-28T04:08:34Z</time>
      </trkpt>
      <trkpt lat="36.67975" lon="-4.996796">
        <ele>1753.6</ele>
        <time>2018-07-28T04:08:35Z</time>
      </trkpt>
      <trkpt lat="36.67977" lon="-4.996803">
        <ele>1752.653</ele>
        <time>2018-07-28T04:08:38Z</time>
      </trkpt>
      <trkpt lat="36.67979" lon="-4.996806">
        <ele>1751.688</ele>
        <time>2018-07-28T04:08:41Z</time>
      </trkpt>
      <trkpt lat="36.67979" lon="-4.996809">
        <ele>1751.443</ele>
        <time>2018-07-28T04:08:42Z</time>
      </trkpt>
      <trkpt lat="36.67981" lon="-4.996815">
        <ele>1750.655</ele>
        <time>2018-07-28T04:08:44Z</time>
      </trkpt>
      <trkpt lat="36.67982" lon="-4.996814">
        <ele>1750.427</ele>
        <time>2018-07-28T04:08:46Z</time>
      </trkpt>
      <trkpt lat="36.67982" lon="-4.996815">
        <ele>1750.234</ele>
        <time>2018-07-28T04:08:47Z</time>
      </trkpt>
      <trkpt lat="36.67983" lon="-4.996822">
        <ele>1749.71</ele>
        <time>2018-07-28T04:08:48Z</time>
      </trkpt>
      <trkpt lat="36.67982" lon="-4.996839">
        <ele>1749.224</ele>
        <time>2018-07-28T04:08:50Z</time>
      </trkpt>
      <trkpt lat="36.67979" lon="-4.996872">
        <ele>1749.14</ele>
        <time>2018-07-28T04:08:55Z</time>
      </trkpt>
      <trkpt lat="36.67979" lon="-4.996879">
        <ele>1749.018</ele>
        <time>2018-07-28T04:08:56Z</time>
      </trkpt>
      <trkpt lat="36.67978" lon="-4.996885">
        <ele>1749.087</ele>
        <time>2018-07-28T04:08:57Z</time>
      </trkpt>
      <trkpt lat="36.67978" lon="-4.996889">
        <ele>1749.209</ele>
        <time>2018-07-28T04:08:58Z</time>
      </trkpt>
      <trkpt lat="36.67977" lon="-4.99689">
        <ele>1749.313</ele>
        <time>2018-07-28T04:08:59Z</time>
      </trkpt>
      <trkpt lat="36.67976" lon="-4.99689">
        <ele>1749.592</ele>
        <time>2018-07-28T04:09:00Z</time>
      </trkpt>
      <trkpt lat="36.67976" lon="-4.99689">
        <ele>1749.732</ele>
        <time>2018-07-28T04:09:01Z</time>
      </trkpt>
      <trkpt lat="36.67974" lon="-4.996884">
        <ele>1750.517</ele>
        <time>2018-07-28T04:09:03Z</time>
      </trkpt>
      <trkpt lat="36.67973" lon="-4.996878">
        <ele>1751.426</ele>
        <time>2018-07-28T04:09:05Z</time>
      </trkpt>
      <trkpt lat="36.67972" lon="-4.996881">
        <ele>1751.599</ele>
        <time>2018-07-28T04:09:06Z</time>
      </trkpt>
      <trkpt lat="36.6797" lon="-4.99689">
        <ele>1751.824</ele>
        <time>2018-07-28T04:09:08Z</time>
      </trkpt>
      <trkpt lat="36.67968" lon="-4.996893">
        <ele>1752.415</ele>
        <time>2018-07-28T04:09:10Z</time>
      </trkpt>
      <trkpt lat="36.67963" lon="-4.996899">
        <ele>1753.998</ele>
        <time>2018-07-28T04:09:16Z</time>
      </trkpt>
      <trkpt lat="36.67962" lon="-4.996904">
        <ele>1754.518</ele>
        <time>2018-07-28T04:09:18Z</time>
      </trkpt>
      <trkpt lat="36.6796" lon="-4.996907">
        <ele>1754.951</ele>
        <time>2018-07-28T04:09:20Z</time>
      </trkpt>
      <trkpt lat="36.67957" lon="-4.996911">
        <ele>1755.784</ele>
        <time>2018-07-28T04:09:23Z</time>
      </trkpt>
      <trkpt lat="36.67955" lon="-4.996916">
        <ele>1756.441</ele>
        <time>2018-07-28T04:09:25Z</time>
      </trkpt>
      <trkpt lat="36.67952" lon="-4.996925">
        <ele>1757.077</ele>
        <time>2018-07-28T04:09:28Z</time>
      </trkpt>
      <trkpt lat="36.6795" lon="-4.996932">
        <ele>1757.783</ele>
        <time>2018-07-28T04:09:32Z</time>
      </trkpt>
      <trkpt lat="36.67949" lon="-4.996935">
        <ele>1757.953</ele>
        <time>2018-07-28T04:09:33Z</time>
      </trkpt>
      <trkpt lat="36.67949" lon="-4.996936">
        <ele>1758.057</ele>
        <time>2018-07-28T04:09:34Z</time>
      </trkpt>
      <trkpt lat="36.67948" lon="-4.996912">
        <ele>1759.229</ele>
        <time>2018-07-28T04:09:38Z</time>
      </trkpt>
      <trkpt lat="36.67947" lon="-4.996899">
        <ele>1759.99</ele>
        <time>2018-07-28T04:09:40Z</time>
      </trkpt>
      <trkpt lat="36.67947" lon="-4.996897">
        <ele>1760.201</ele>
        <time>2018-07-28T04:09:41Z</time>
      </trkpt>
      <trkpt lat="36.67946" lon="-4.996895">
        <ele>1760.43</ele>
        <time>2018-07-28T04:09:44Z</time>
      </trkpt>
      <trkpt lat="36.67947" lon="-4.996894">
        <ele>1760.327</ele>
        <time>2018-07-28T04:09:47Z</time>
      </trkpt>
      <trkpt lat="36.67947" lon="-4.996889">
        <ele>1760.227</ele>
        <time>2018-07-28T04:09:48Z</time>
      </trkpt>
      <trkpt lat="36.67947" lon="-4.996887">
        <ele>1760.298</ele>
        <time>2018-07-28T04:09:49Z</time>
      </trkpt>
      <trkpt lat="36.67948" lon="-4.996875">
        <ele>1760.624</ele>
        <time>2018-07-28T04:09:51Z</time>
      </trkpt>
      <trkpt lat="36.67949" lon="-4.996837">
        <ele>1761.476</ele>
        <time>2018-07-28T04:09:56Z</time>
      </trkpt>
      <trkpt lat="36.67949" lon="-4.996821">
        <ele>1762.224</ele>
        <time>2018-07-28T04:09:58Z</time>
      </trkpt>
      <trkpt lat="36.67947" lon="-4.996811">
        <ele>1763.16</ele>
        <time>2018-07-28T04:10:00Z</time>
      </trkpt>
      <trkpt lat="36.67945" lon="-4.996808">
        <ele>1763.969</ele>
        <time>2018-07-28T04:10:04Z</time>
      </trkpt>
      <trkpt lat="36.67944" lon="-4.996813">
        <ele>1764.351</ele>
        <time>2018-07-28T04:10:06Z</time>
      </trkpt>
      <trkpt lat="36.67943" lon="-4.996816">
        <ele>1764.506</ele>
        <time>2018-07-28T04:10:07Z</time>
      </trkpt>
      <trkpt lat="36.67943" lon="-4.996819">
        <ele>1764.539</ele>
        <time>2018-07-28T04:10:08Z</time>
      </trkpt>
      <trkpt lat="36.67942" lon="-4.996822">
        <ele>1764.712</ele>
        <time>2018-07-28T04:10:09Z</time>
      </trkpt>
      <trkpt lat="36.67941" lon="-4.996827">
        <ele>1764.794</ele>
        <time>2018-07-28T04:10:10Z</time>
      </trkpt>
      <trkpt lat="36.6794" lon="-4.996834">
        <ele>1764.963</ele>
        <time>2018-07-28T04:10:11Z</time>
      </trkpt>
      <trkpt lat="36.67939" lon="-4.996841">
        <ele>1765.113</ele>
        <time>2018-07-28T04:10:13Z</time>
      </trkpt>
      <trkpt lat="36.67938" lon="-4.99685">
        <ele>1765.051</ele>
        <time>2018-07-28T04:10:14Z</time>
      </trkpt>
      <trkpt lat="36.67937" lon="-4.996856">
        <ele>1765.096</ele>
        <time>2018-07-28T04:10:15Z</time>
      </trkpt>
      <trkpt lat="36.67935" lon="-4.996875">
        <ele>1765.231</ele>
        <time>2018-07-28T04:10:18Z</time>
      </trkpt>
      <trkpt lat="36.6793" lon="-4.996909">
        <ele>1765.741</ele>
        <time>2018-07-28T04:10:25Z</time>
      </trkpt>
      <trkpt lat="36.67928" lon="-4.996916">
        <ele>1766.183</ele>
        <time>2018-07-28T04:10:28Z</time>
      </trkpt>
      <trkpt lat="36.67927" lon="-4.99692">
        <ele>1766.576</ele>
        <time>2018-07-28T04:10:31Z</time>
      </trkpt>
      <trkpt lat="36.67924" lon="-4.996935">
        <ele>1766.847</ele>
        <time>2018-07-28T04:10:34Z</time>
      </trkpt>
      <trkpt lat="36.67924" lon="-4.996938">
        <ele>1766.997</ele>
        <time>2018-07-28T04:10:35Z</time>
      </trkpt>
      <trkpt lat="36.67923" lon="-4.996938">
        <ele>1767.275</ele>
        <time>2018-07-28T04:10:36Z</time>
      </trkpt>
      <trkpt lat="36.67922" lon="-4.996944">
        <ele>1767.334</ele>
        <time>2018-07-28T04:10:37Z</time>
      </trkpt>
      <trkpt lat="36.67921" lon="-4.99695">
        <ele>1767.375</ele>
        <time>2018-07-28T04:10:38Z</time>
      </trkpt>
      <trkpt lat="36.67916" lon="-4.996986">
        <ele>1768.169</ele>
        <time>2018-07-28T04:10:47Z</time>
      </trkpt>
      <trkpt lat="36.67915" lon="-4.996986">
        <ele>1768.343</ele>
        <time>2018-07-28T04:10:48Z</time>
      </trkpt>
      <trkpt lat="36.67915" lon="-4.996977">
        <ele>1769.036</ele>
        <time>2018-07-28T04:10:50Z</time>
      </trkpt>
      <trkpt lat="36.67912" lon="-4.996968">
        <ele>1770.767</ele>
        <time>2018-07-28T04:10:56Z</time>
      </trkpt>
      <trkpt lat="36.67911" lon="-4.996963">
        <ele>1771.122</ele>
        <time>2018-07-28T04:10:58Z</time>
      </trkpt>
      <trkpt lat="36.67908" lon="-4.996953">
        <ele>1772.711</ele>
        <time>2018-07-28T04:11:04Z</time>
      </trkpt>
      <trkpt lat="36.67908" lon="-4.996952">
        <ele>1772.92</ele>
        <time>2018-07-28T04:11:05Z</time>
      </trkpt>
      <trkpt lat="36.67908" lon="-4.996949">
        <ele>1773.2</ele>
        <time>2018-07-28T04:11:06Z</time>
      </trkpt>
      <trkpt lat="36.67907" lon="-4.996941">
        <ele>1773.851</ele>
        <time>2018-07-28T04:11:08Z</time>
      </trkpt>
      <trkpt lat="36.67906" lon="-4.996932">
        <ele>1774.537</ele>
        <time>2018-07-28T04:11:11Z</time>
      </trkpt>
      <trkpt lat="36.67905" lon="-4.996929">
        <ele>1775.332</ele>
        <time>2018-07-28T04:11:14Z</time>
      </trkpt>
      <trkpt lat="36.67903" lon="-4.996928">
        <ele>1776.056</ele>
        <time>2018-07-28T04:11:18Z</time>
      </trkpt>
      <trkpt lat="36.67903" lon="-4.996931">
        <ele>1775.949</ele>
        <time>2018-07-28T04:11:21Z</time>
      </trkpt>
      <trkpt lat="36.67903" lon="-4.996935">
        <ele>1775.806</ele>
        <time>2018-07-28T04:11:23Z</time>
      </trkpt>
      <trkpt lat="36.67903" lon="-4.996934">
        <ele>1775.842</ele>
        <time>2018-07-28T04:11:25Z</time>
      </trkpt>
      <trkpt lat="36.67903" lon="-4.996935">
        <ele>1775.978</ele>
        <time>2018-07-28T04:11:28Z</time>
      </trkpt>
      <trkpt lat="36.67903" lon="-4.996901">
        <ele>1777.073</ele>
        <time>2018-07-28T04:11:36Z</time>
      </trkpt>
      <trkpt lat="36.67904" lon="-4.996898">
        <ele>1777.009</ele>
        <time>2018-07-28T04:11:38Z</time>
      </trkpt>
      <trkpt lat="36.67904" lon="-4.996894">
        <ele>1777.17</ele>
        <time>2018-07-28T04:11:39Z</time>
      </trkpt>
      <trkpt lat="36.67903" lon="-4.996888">
        <ele>1777.555</ele>
        <time>2018-07-28T04:11:43Z</time>
      </trkpt>
      <trkpt lat="36.67903" lon="-4.996889">
        <ele>1777.519</ele>
        <time>2018-07-28T04:11:47Z</time>
      </trkpt>
      <trkpt lat="36.67903" lon="-4.996891">
        <ele>1777.619</ele>
        <time>2018-07-28T04:11:48Z</time>
      </trkpt>
      <trkpt lat="36.67901" lon="-4.996914">
        <ele>1777.449</ele>
        <time>2018-07-28T04:11:52Z</time>
      </trkpt>
      <trkpt lat="36.67901" lon="-4.99692">
        <ele>1777.39</ele>
        <time>2018-07-28T04:11:53Z</time>
      </trkpt>
      <trkpt lat="36.679" lon="-4.996927">
        <ele>1777.313</ele>
        <time>2018-07-28T04:11:54Z</time>
      </trkpt>
      <trkpt lat="36.679" lon="-4.996936">
        <ele>1777.148</ele>
        <time>2018-07-28T04:11:55Z</time>
      </trkpt>
      <trkpt lat="36.67899" lon="-4.996943">
        <ele>1777.227</ele>
        <time>2018-07-28T04:11:56Z</time>
      </trkpt>
      <trkpt lat="36.67899" lon="-4.996953">
        <ele>1777.2</ele>
        <time>2018-07-28T04:11:58Z</time>
      </trkpt>
      <trkpt lat="36.67896" lon="-4.996975">
        <ele>1777.426</ele>
        <time>2018-07-28T04:12:02Z</time>
      </trkpt>
      <trkpt lat="36.67894" lon="-4.996992">
        <ele>1778.008</ele>
        <time>2018-07-28T04:12:06Z</time>
      </trkpt>
      <trkpt lat="36.67892" lon="-4.996997">
        <ele>1778.528</ele>
        <time>2018-07-28T04:12:08Z</time>
      </trkpt>
      <trkpt lat="36.67891" lon="-4.996998">
        <ele>1778.841</ele>
        <time>2018-07-28T04:12:09Z</time>
      </trkpt>
      <trkpt lat="36.67887" lon="-4.997011">
        <ele>1780.444</ele>
        <time>2018-07-28T04:12:14Z</time>
      </trkpt>
      <trkpt lat="36.67886" lon="-4.997014">
        <ele>1780.863</ele>
        <time>2018-07-28T04:12:16Z</time>
      </trkpt>
      <trkpt lat="36.67884" lon="-4.997015">
        <ele>1781.526</ele>
        <time>2018-07-28T04:12:18Z</time>
      </trkpt>
      <trkpt lat="36.67882" lon="-4.997022">
        <ele>1782.141</ele>
        <time>2018-07-28T04:12:21Z</time>
      </trkpt>
      <trkpt lat="36.67881" lon="-4.99703">
        <ele>1782.217</ele>
        <time>2018-07-28T04:12:22Z</time>
      </trkpt>
      <trkpt lat="36.67881" lon="-4.997033">
        <ele>1782.447</ele>
        <time>2018-07-28T04:12:23Z</time>
      </trkpt>
      <trkpt lat="36.67878" lon="-4.997049">
        <ele>1783.11</ele>
        <time>2018-07-28T04:12:28Z</time>
      </trkpt>
      <trkpt lat="36.67876" lon="-4.997062">
        <ele>1783.513</ele>
        <time>2018-07-28T04:12:32Z</time>
      </trkpt>
      <trkpt lat="36.67874" lon="-4.997095">
        <ele>1783.405</ele>
        <time>2018-07-28T04:12:37Z</time>
      </trkpt>
      <trkpt lat="36.67873" lon="-4.9971">
        <ele>1783.414</ele>
        <time>2018-07-28T04:12:38Z</time>
      </trkpt>
      <trkpt lat="36.67873" lon="-4.997105">
        <ele>1783.229</ele>
        <time>2018-07-28T04:12:41Z</time>
      </trkpt>
      <trkpt lat="36.67873" lon="-4.997106">
        <ele>1783.372</ele>
        <time>2018-07-28T04:12:42Z</time>
      </trkpt>
      <trkpt lat="36.67873" lon="-4.997111">
        <ele>1783.381</ele>
        <time>2018-07-28T04:12:44Z</time>
      </trkpt>
      <trkpt lat="36.67872" lon="-4.997113">
        <ele>1783.474</ele>
        <time>2018-07-28T04:12:46Z</time>
      </trkpt>
      <trkpt lat="36.67872" lon="-4.997112">
        <ele>1783.701</ele>
        <time>2018-07-28T04:12:48Z</time>
      </trkpt>
      <trkpt lat="36.67871" lon="-4.997116">
        <ele>1783.727</ele>
        <time>2018-07-28T04:12:51Z</time>
      </trkpt>
      <trkpt lat="36.67871" lon="-4.997117">
        <ele>1783.871</ele>
        <time>2018-07-28T04:12:54Z</time>
      </trkpt>
      <trkpt lat="36.67871" lon="-4.997116">
        <ele>1783.904</ele>
        <time>2018-07-28T04:12:55Z</time>
      </trkpt>
      <trkpt lat="36.67871" lon="-4.997118">
        <ele>1784.015</ele>
        <time>2018-07-28T04:12:58Z</time>
      </trkpt>
      <trkpt lat="36.6787" lon="-4.997127">
        <ele>1783.874</ele>
        <time>2018-07-28T04:13:02Z</time>
      </trkpt>
      <trkpt lat="36.6787" lon="-4.997134">
        <ele>1783.801</ele>
        <time>2018-07-28T04:13:03Z</time>
      </trkpt>
      <trkpt lat="36.67869" lon="-4.997144">
        <ele>1783.984</ele>
        <time>2018-07-28T04:13:05Z</time>
      </trkpt>
      <trkpt lat="36.67868" lon="-4.997153">
        <ele>1784.218</ele>
        <time>2018-07-28T04:13:08Z</time>
      </trkpt>
      <trkpt lat="36.67867" lon="-4.997166">
        <ele>1783.931</ele>
        <time>2018-07-28T04:13:13Z</time>
      </trkpt>
      <trkpt lat="36.67868" lon="-4.997191">
        <ele>1782.888</ele>
        <time>2018-07-28T04:13:18Z</time>
      </trkpt>
      <trkpt lat="36.67868" lon="-4.997191">
        <ele>1782.888</ele>
        <time>2018-07-28T04:13:20Z</time>
      </trkpt>
      <trkpt lat="36.67867" lon="-4.997194">
        <ele>1782.968</ele>
        <time>2018-07-28T04:13:21Z</time>
      </trkpt>
      <trkpt lat="36.67867" lon="-4.997201">
        <ele>1783.077</ele>
        <time>2018-07-28T04:13:22Z</time>
      </trkpt>
      <trkpt lat="36.67862" lon="-4.997236">
        <ele>1784.212</ele>
        <time>2018-07-28T04:13:28Z</time>
      </trkpt>
      <trkpt lat="36.67861" lon="-4.997242">
        <ele>1784.359</ele>
        <time>2018-07-28T04:13:29Z</time>
      </trkpt>
      <trkpt lat="36.67859" lon="-4.997257">
        <ele>1784.559</ele>
        <time>2018-07-28T04:13:31Z</time>
      </trkpt>
      <trkpt lat="36.67858" lon="-4.997275">
        <ele>1784.68</ele>
        <time>2018-07-28T04:13:33Z</time>
      </trkpt>
      <trkpt lat="36.67857" lon="-4.997283">
        <ele>1784.767</ele>
        <time>2018-07-28T04:13:34Z</time>
      </trkpt>
      <trkpt lat="36.67855" lon="-4.997297">
        <ele>1785.024</ele>
        <time>2018-07-28T04:13:36Z</time>
      </trkpt>
      <trkpt lat="36.67854" lon="-4.997307">
        <ele>1785.413</ele>
        <time>2018-07-28T04:13:38Z</time>
      </trkpt>
      <trkpt lat="36.67852" lon="-4.997326">
        <ele>1785.498</ele>
        <time>2018-07-28T04:13:41Z</time>
      </trkpt>
      <trkpt lat="36.67851" lon="-4.99734">
        <ele>1785.565</ele>
        <time>2018-07-28T04:13:43Z</time>
      </trkpt>
      <trkpt lat="36.67848" lon="-4.99736">
        <ele>1786.361</ele>
        <time>2018-07-28T04:13:48Z</time>
      </trkpt>
      <trkpt lat="36.67845" lon="-4.99737">
        <ele>1787.515</ele>
        <time>2018-07-28T04:13:52Z</time>
      </trkpt>
      <trkpt lat="36.6784" lon="-4.997385">
        <ele>1789.591</ele>
        <time>2018-07-28T04:13:58Z</time>
      </trkpt>
      <trkpt lat="36.67835" lon="-4.997401">
        <ele>1791.277</ele>
        <time>2018-07-28T04:14:04Z</time>
      </trkpt>
      <trkpt lat="36.67834" lon="-4.997402">
        <ele>1791.616</ele>
        <time>2018-07-28T04:14:05Z</time>
      </trkpt>
      <trkpt lat="36.67833" lon="-4.9974">
        <ele>1792.248</ele>
        <time>2018-07-28T04:14:07Z</time>
      </trkpt>
      <trkpt lat="36.67833" lon="-4.997397">
        <ele>1792.604</ele>
        <time>2018-07-28T04:14:08Z</time>
      </trkpt>
      <trkpt lat="36.6783" lon="-4.997397">
        <ele>1793.657</ele>
        <time>2018-07-28T04:14:12Z</time>
      </trkpt>
      <trkpt lat="36.67828" lon="-4.997403">
        <ele>1793.988</ele>
        <time>2018-07-28T04:14:14Z</time>
      </trkpt>
      <trkpt lat="36.67827" lon="-4.997405">
        <ele>1794.192</ele>
        <time>2018-07-28T04:14:15Z</time>
      </trkpt>
      <trkpt lat="36.67826" lon="-4.99741">
        <ele>1794.306</ele>
        <time>2018-07-28T04:14:16Z</time>
      </trkpt>
      <trkpt lat="36.67825" lon="-4.997425">
        <ele>1794.36</ele>
        <time>2018-07-28T04:14:18Z</time>
      </trkpt>
      <trkpt lat="36.67823" lon="-4.997435">
        <ele>1794.85</ele>
        <time>2018-07-28T04:14:21Z</time>
      </trkpt>
      <trkpt lat="36.6782" lon="-4.997444">
        <ele>1795.51</ele>
        <time>2018-07-28T04:14:24Z</time>
      </trkpt>
      <trkpt lat="36.67816" lon="-4.997457">
        <ele>1796.468</ele>
        <time>2018-07-28T04:14:28Z</time>
      </trkpt>
      <trkpt lat="36.67815" lon="-4.99746">
        <ele>1796.652</ele>
        <time>2018-07-28T04:14:29Z</time>
      </trkpt>
      <trkpt lat="36.67812" lon="-4.997479">
        <ele>1797.173</ele>
        <time>2018-07-28T04:14:33Z</time>
      </trkpt>
      <trkpt lat="36.67811" lon="-4.997488">
        <ele>1797.453</ele>
        <time>2018-07-28T04:14:35Z</time>
      </trkpt>
      <trkpt lat="36.67809" lon="-4.997502">
        <ele>1797.851</ele>
        <time>2018-07-28T04:14:38Z</time>
      </trkpt>
      <trkpt lat="36.67807" lon="-4.997508">
        <ele>1798.003</ele>
        <time>2018-07-28T04:14:39Z</time>
      </trkpt>
      <trkpt lat="36.67802" lon="-4.997551">
        <ele>1798.243</ele>
        <time>2018-07-28T04:14:46Z</time>
      </trkpt>
      <trkpt lat="36.67801" lon="-4.997559">
        <ele>1798.17</ele>
        <time>2018-07-28T04:14:47Z</time>
      </trkpt>
      <trkpt lat="36.678" lon="-4.997568">
        <ele>1798.056</ele>
        <time>2018-07-28T04:14:48Z</time>
      </trkpt>
      <trkpt lat="36.67799" lon="-4.997578">
        <ele>1797.9</ele>
        <time>2018-07-28T04:14:49Z</time>
      </trkpt>
      <trkpt lat="36.67797" lon="-4.997605">
        <ele>1797.568</ele>
        <time>2018-07-28T04:14:52Z</time>
      </trkpt>
      <trkpt lat="36.67795" lon="-4.997623">
        <ele>1797.46</ele>
        <time>2018-07-28T04:14:54Z</time>
      </trkpt>
      <trkpt lat="36.67792" lon="-4.997644">
        <ele>1797.753</ele>
        <time>2018-07-28T04:14:58Z</time>
      </trkpt>
      <trkpt lat="36.6779" lon="-4.997654">
        <ele>1797.85</ele>
        <time>2018-07-28T04:15:00Z</time>
      </trkpt>
      <trkpt lat="36.67786" lon="-4.997691">
        <ele>1797.68</ele>
        <time>2018-07-28T04:15:05Z</time>
      </trkpt>
      <trkpt lat="36.67783" lon="-4.997712">
        <ele>1797.675</ele>
        <time>2018-07-28T04:15:08Z</time>
      </trkpt>
      <trkpt lat="36.67782" lon="-4.997722">
        <ele>1797.756</ele>
        <time>2018-07-28T04:15:10Z</time>
      </trkpt>
      <trkpt lat="36.67777" lon="-4.99773">
        <ele>1799.106</ele>
        <time>2018-07-28T04:15:15Z</time>
      </trkpt>
      <trkpt lat="36.67775" lon="-4.997749">
        <ele>1799.033</ele>
        <time>2018-07-28T04:15:18Z</time>
      </trkpt>
      <trkpt lat="36.67774" lon="-4.997757">
        <ele>1798.928</ele>
        <time>2018-07-28T04:15:19Z</time>
      </trkpt>
      <trkpt lat="36.6777" lon="-4.997792">
        <ele>1798.52</ele>
        <time>2018-07-28T04:15:23Z</time>
      </trkpt>
      <trkpt lat="36.67766" lon="-4.997812">
        <ele>1799.143</ele>
        <time>2018-07-28T04:15:28Z</time>
      </trkpt>
      <trkpt lat="36.67765" lon="-4.997818">
        <ele>1799.242</ele>
        <time>2018-07-28T04:15:29Z</time>
      </trkpt>
      <trkpt lat="36.67762" lon="-4.997842">
        <ele>1799.039</ele>
        <time>2018-07-28T04:15:34Z</time>
      </trkpt>
      <trkpt lat="36.67762" lon="-4.997844">
        <ele>1799.056</ele>
        <time>2018-07-28T04:15:36Z</time>
      </trkpt>
      <trkpt lat="36.67761" lon="-4.997847">
        <ele>1799.05</ele>
        <time>2018-07-28T04:15:38Z</time>
      </trkpt>
      <trkpt lat="36.67757" lon="-4.997846">
        <ele>1800.353</ele>
        <time>2018-07-28T04:15:45Z</time>
      </trkpt>
      <trkpt lat="36.67757" lon="-4.99786">
        <ele>1799.966</ele>
        <time>2018-07-28T04:15:47Z</time>
      </trkpt>
      <trkpt lat="36.67756" lon="-4.997866">
        <ele>1799.93</ele>
        <time>2018-07-28T04:15:48Z</time>
      </trkpt>
      <trkpt lat="36.67756" lon="-4.997871">
        <ele>1799.834</ele>
        <time>2018-07-28T04:15:49Z</time>
      </trkpt>
      <trkpt lat="36.6775" lon="-4.997883">
        <ele>1801.028</ele>
        <time>2018-07-28T04:15:56Z</time>
      </trkpt>
      <trkpt lat="36.67749" lon="-4.99788">
        <ele>1801.391</ele>
        <time>2018-07-28T04:15:58Z</time>
      </trkpt>
      <trkpt lat="36.67747" lon="-4.997869">
        <ele>1802.309</ele>
        <time>2018-07-28T04:16:01Z</time>
      </trkpt>
      <trkpt lat="36.67745" lon="-4.997867">
        <ele>1802.668</ele>
        <time>2018-07-28T04:16:03Z</time>
      </trkpt>
      <trkpt lat="36.67744" lon="-4.997864">
        <ele>1803.026</ele>
        <time>2018-07-28T04:16:05Z</time>
      </trkpt>
      <trkpt lat="36.67743" lon="-4.997868">
        <ele>1803.097</ele>
        <time>2018-07-28T04:16:07Z</time>
      </trkpt>
      <trkpt lat="36.67742" lon="-4.997869">
        <ele>1803.188</ele>
        <time>2018-07-28T04:16:08Z</time>
      </trkpt>
      <trkpt lat="36.67738" lon="-4.997877">
        <ele>1803.558</ele>
        <time>2018-07-28T04:16:13Z</time>
      </trkpt>
      <trkpt lat="36.67733" lon="-4.997904">
        <ele>1803.217</ele>
        <time>2018-07-28T04:16:18Z</time>
      </trkpt>
      <trkpt lat="36.67731" lon="-4.997912">
        <ele>1803.188</ele>
        <time>2018-07-28T04:16:20Z</time>
      </trkpt>
      <trkpt lat="36.67727" lon="-4.997929">
        <ele>1803.093</ele>
        <time>2018-07-28T04:16:24Z</time>
      </trkpt>
      <trkpt lat="36.67723" lon="-4.997945">
        <ele>1803.001</ele>
        <time>2018-07-28T04:16:28Z</time>
      </trkpt>
      <trkpt lat="36.67723" lon="-4.997951">
        <ele>1802.859</ele>
        <time>2018-07-28T04:16:29Z</time>
      </trkpt>
      <trkpt lat="36.67721" lon="-4.997961">
        <ele>1802.685</ele>
        <time>2018-07-28T04:16:31Z</time>
      </trkpt>
      <trkpt lat="36.6772" lon="-4.997967">
        <ele>1802.566</ele>
        <time>2018-07-28T04:16:32Z</time>
      </trkpt>
      <trkpt lat="36.6772" lon="-4.997972">
        <ele>1802.47</ele>
        <time>2018-07-28T04:16:33Z</time>
      </trkpt>
      <trkpt lat="36.67718" lon="-4.997982">
        <ele>1802.299</ele>
        <time>2018-07-28T04:16:36Z</time>
      </trkpt>
      <trkpt lat="36.67718" lon="-4.997988">
        <ele>1802.02</ele>
        <time>2018-07-28T04:16:38Z</time>
      </trkpt>
      <trkpt lat="36.67718" lon="-4.997989">
        <ele>1801.977</ele>
        <time>2018-07-28T04:16:39Z</time>
      </trkpt>
      <trkpt lat="36.67718" lon="-4.997989">
        <ele>1801.977</ele>
        <time>2018-07-28T04:16:40Z</time>
      </trkpt>
      <trkpt lat="36.67718" lon="-4.99799">
        <ele>1801.934</ele>
        <time>2018-07-28T04:16:41Z</time>
      </trkpt>
      <trkpt lat="36.67718" lon="-4.997988">
        <ele>1802.02</ele>
        <time>2018-07-28T04:16:42Z</time>
      </trkpt>
      <trkpt lat="36.67718" lon="-4.997987">
        <ele>1802.084</ele>
        <time>2018-07-28T04:16:44Z</time>
      </trkpt>
      <trkpt lat="36.67718" lon="-4.997985">
        <ele>1802.24</ele>
        <time>2018-07-28T04:16:46Z</time>
      </trkpt>
      <trkpt lat="36.67717" lon="-4.997979">
        <ele>1802.638</ele>
        <time>2018-07-28T04:16:48Z</time>
      </trkpt>
      <trkpt lat="36.67716" lon="-4.997971">
        <ele>1803.211</ele>
        <time>2018-07-28T04:16:50Z</time>
      </trkpt>
      <trkpt lat="36.67715" lon="-4.997967">
        <ele>1803.473</ele>
        <time>2018-07-28T04:16:51Z</time>
      </trkpt>
      <trkpt lat="36.67715" lon="-4.997963">
        <ele>1803.784</ele>
        <time>2018-07-28T04:16:52Z</time>
      </trkpt>
      <trkpt lat="36.67712" lon="-4.997952">
        <ele>1804.83</ele>
        <time>2018-07-28T04:16:56Z</time>
      </trkpt>
      <trkpt lat="36.6771" lon="-4.99795">
        <ele>1805.123</ele>
        <time>2018-07-28T04:16:58Z</time>
      </trkpt>
      <trkpt lat="36.67709" lon="-4.997951">
        <ele>1805.359</ele>
        <time>2018-07-28T04:17:00Z</time>
      </trkpt>
      <trkpt lat="36.67708" lon="-4.997949">
        <ele>1805.651</ele>
        <time>2018-07-28T04:17:01Z</time>
      </trkpt>
      <trkpt lat="36.67707" lon="-4.997946">
        <ele>1805.938</ele>
        <time>2018-07-28T04:17:02Z</time>
      </trkpt>
      <trkpt lat="36.67705" lon="-4.997941">
        <ele>1806.495</ele>
        <time>2018-07-28T04:17:04Z</time>
      </trkpt>
      <trkpt lat="36.67704" lon="-4.997931">
        <ele>1807.145</ele>
        <time>2018-07-28T04:17:07Z</time>
      </trkpt>
      <trkpt lat="36.67704" lon="-4.997923">
        <ele>1807.572</ele>
        <time>2018-07-28T04:17:08Z</time>
      </trkpt>
      <trkpt lat="36.67703" lon="-4.997893">
        <ele>1808.966</ele>
        <time>2018-07-28T04:17:12Z</time>
      </trkpt>
      <trkpt lat="36.67703" lon="-4.997878">
        <ele>1809.618</ele>
        <time>2018-07-28T04:17:14Z</time>
      </trkpt>
      <trkpt lat="36.67704" lon="-4.997845">
        <ele>1810.868</ele>
        <time>2018-07-28T04:17:18Z</time>
      </trkpt>
      <trkpt lat="36.67706" lon="-4.997829">
        <ele>1811.384</ele>
        <time>2018-07-28T04:17:20Z</time>
      </trkpt>
      <trkpt lat="36.67707" lon="-4.997821">
        <ele>1811.542</ele>
        <time>2018-07-28T04:17:21Z</time>
      </trkpt>
      <trkpt lat="36.6771" lon="-4.997785">
        <ele>1812.601</ele>
        <time>2018-07-28T04:17:26Z</time>
      </trkpt>
      <trkpt lat="36.6771" lon="-4.997768">
        <ele>1813.234</ele>
        <time>2018-07-28T04:17:28Z</time>
      </trkpt>
      <trkpt lat="36.67711" lon="-4.99776">
        <ele>1813.529</ele>
        <time>2018-07-28T04:17:29Z</time>
      </trkpt>
      <trkpt lat="36.67712" lon="-4.997744">
        <ele>1814.1</ele>
        <time>2018-07-28T04:17:31Z</time>
      </trkpt>
      <trkpt lat="36.67712" lon="-4.997724">
        <ele>1814.929</ele>
        <time>2018-07-28T04:17:33Z</time>
      </trkpt>
      <trkpt lat="36.67713" lon="-4.997701">
        <ele>1815.758</ele>
        <time>2018-07-28T04:17:36Z</time>
      </trkpt>
      <trkpt lat="36.67713" lon="-4.997687">
        <ele>1816.397</ele>
        <time>2018-07-28T04:17:38Z</time>
      </trkpt>
      <trkpt lat="36.67714" lon="-4.997679">
        <ele>1816.675</ele>
        <time>2018-07-28T04:17:39Z</time>
      </trkpt>
      <trkpt lat="36.67715" lon="-4.997628">
        <ele>1818.644</ele>
        <time>2018-07-28T04:17:48Z</time>
      </trkpt>
      <trkpt lat="36.67715" lon="-4.997628">
        <ele>1818.644</ele>
        <time>2018-07-28T04:17:50Z</time>
      </trkpt>
      <trkpt lat="36.67715" lon="-4.997629">
        <ele>1818.601</ele>
        <time>2018-07-28T04:17:52Z</time>
      </trkpt>
      <trkpt lat="36.67715" lon="-4.997628">
        <ele>1818.706</ele>
        <time>2018-07-28T04:17:55Z</time>
      </trkpt>
      <trkpt lat="36.67715" lon="-4.997626">
        <ele>1818.875</ele>
        <time>2018-07-28T04:17:58Z</time>
      </trkpt>
      <trkpt lat="36.67714" lon="-4.997608">
        <ele>1819.727</ele>
        <time>2018-07-28T04:18:04Z</time>
      </trkpt>
      <trkpt lat="36.67714" lon="-4.997596">
        <ele>1820.405</ele>
        <time>2018-07-28T04:18:08Z</time>
      </trkpt>
      <trkpt lat="36.67712" lon="-4.997574">
        <ele>1821.63</ele>
        <time>2018-07-28T04:18:12Z</time>
      </trkpt>
      <trkpt lat="36.67712" lon="-4.99757">
        <ele>1821.8</ele>
        <time>2018-07-28T04:18:14Z</time>
      </trkpt>
      <trkpt lat="36.67713" lon="-4.997559">
        <ele>1822.168</ele>
        <time>2018-07-28T04:18:16Z</time>
      </trkpt>
      <trkpt lat="36.67713" lon="-4.997539">
        <ele>1823.002</ele>
        <time>2018-07-28T04:18:18Z</time>
      </trkpt>
      <trkpt lat="36.67712" lon="-4.997523">
        <ele>1823.966</ele>
        <time>2018-07-28T04:18:20Z</time>
      </trkpt>
      <trkpt lat="36.67711" lon="-4.99752">
        <ele>1824.214</ele>
        <time>2018-07-28T04:18:21Z</time>
      </trkpt>
      <trkpt lat="36.6771" lon="-4.997519">
        <ele>1824.436</ele>
        <time>2018-07-28T04:18:23Z</time>
      </trkpt>
      <trkpt lat="36.67708" lon="-4.997521">
        <ele>1824.591</ele>
        <time>2018-07-28T04:18:25Z</time>
      </trkpt>
      <trkpt lat="36.67707" lon="-4.997522">
        <ele>1824.669</ele>
        <time>2018-07-28T04:18:26Z</time>
      </trkpt>
      <trkpt lat="36.67707" lon="-4.997522">
        <ele>1824.789</ele>
        <time>2018-07-28T04:18:27Z</time>
      </trkpt>
      <trkpt lat="36.67706" lon="-4.997522">
        <ele>1824.849</ele>
        <time>2018-07-28T04:18:28Z</time>
      </trkpt>
      <trkpt lat="36.67705" lon="-4.997525">
        <ele>1824.881</ele>
        <time>2018-07-28T04:18:30Z</time>
      </trkpt>
      <trkpt lat="36.67705" lon="-4.997525">
        <ele>1824.941</ele>
        <time>2018-07-28T04:18:31Z</time>
      </trkpt>
      <trkpt lat="36.67704" lon="-4.997522">
        <ele>1825.208</ele>
        <time>2018-07-28T04:18:32Z</time>
      </trkpt>
      <trkpt lat="36.67703" lon="-4.99752">
        <ele>1825.413</ele>
        <time>2018-07-28T04:18:33Z</time>
      </trkpt>
      <trkpt lat="36.67702" lon="-4.997517">
        <ele>1825.659</ele>
        <time>2018-07-28T04:18:34Z</time>
      </trkpt>
      <trkpt lat="36.67701" lon="-4.997508">
        <ele>1826.237</ele>
        <time>2018-07-28T04:18:36Z</time>
      </trkpt>
      <trkpt lat="36.67701" lon="-4.997506">
        <ele>1826.38</ele>
        <time>2018-07-28T04:18:37Z</time>
      </trkpt>
      <trkpt lat="36.67701" lon="-4.997503">
        <ele>1826.587</ele>
        <time>2018-07-28T04:18:38Z</time>
      </trkpt>
      <trkpt lat="36.677" lon="-4.997506">
        <ele>1826.559</ele>
        <time>2018-07-28T04:18:39Z</time>
      </trkpt>
      <trkpt lat="36.67699" lon="-4.997508">
        <ele>1826.595</ele>
        <time>2018-07-28T04:18:41Z</time>
      </trkpt>
      <trkpt lat="36.67698" lon="-4.997506">
        <ele>1826.798</ele>
        <time>2018-07-28T04:18:42Z</time>
      </trkpt>
      <trkpt lat="36.67698" lon="-4.997503">
        <ele>1827.063</ele>
        <time>2018-07-28T04:18:44Z</time>
      </trkpt>
      <trkpt lat="36.67696" lon="-4.997472">
        <ele>1828.179</ele>
        <time>2018-07-28T04:18:48Z</time>
      </trkpt>
      <trkpt lat="36.67696" lon="-4.997456">
        <ele>1828.758</ele>
        <time>2018-07-28T04:18:50Z</time>
      </trkpt>
      <trkpt lat="36.67693" lon="-4.997439">
        <ele>1829.762</ele>
        <time>2018-07-28T04:18:57Z</time>
      </trkpt>
      <trkpt lat="36.67692" lon="-4.997434">
        <ele>1829.966</ele>
        <time>2018-07-28T04:18:58Z</time>
      </trkpt>
      <trkpt lat="36.67691" lon="-4.997432">
        <ele>1830.15</ele>
        <time>2018-07-28T04:18:59Z</time>
      </trkpt>
      <trkpt lat="36.67689" lon="-4.997429">
        <ele>1830.631</ele>
        <time>2018-07-28T04:19:03Z</time>
      </trkpt>
      <trkpt lat="36.67688" lon="-4.997426">
        <ele>1830.845</ele>
        <time>2018-07-28T04:19:04Z</time>
      </trkpt>
      <trkpt lat="36.67687" lon="-4.997421">
        <ele>1831.196</ele>
        <time>2018-07-28T04:19:06Z</time>
      </trkpt>
      <trkpt lat="36.67687" lon="-4.997415">
        <ele>1831.435</ele>
        <time>2018-07-28T04:19:07Z</time>
      </trkpt>
      <trkpt lat="36.67686" lon="-4.99741">
        <ele>1831.724</ele>
        <time>2018-07-28T04:19:08Z</time>
      </trkpt>
      <trkpt lat="36.67685" lon="-4.9974">
        <ele>1832.226</ele>
        <time>2018-07-28T04:19:10Z</time>
      </trkpt>
      <trkpt lat="36.67686" lon="-4.997393">
        <ele>1832.234</ele>
        <time>2018-07-28T04:19:15Z</time>
      </trkpt>
      <trkpt lat="36.67686" lon="-4.997384">
        <ele>1832.444</ele>
        <time>2018-07-28T04:19:17Z</time>
      </trkpt>
      <trkpt lat="36.67687" lon="-4.997378">
        <ele>1832.566</ele>
        <time>2018-07-28T04:19:18Z</time>
      </trkpt>
      <trkpt lat="36.67689" lon="-4.997361">
        <ele>1832.666</ele>
        <time>2018-07-28T04:19:21Z</time>
      </trkpt>
      <trkpt lat="36.6769" lon="-4.997349">
        <ele>1832.832</ele>
        <time>2018-07-28T04:19:23Z</time>
      </trkpt>
      <trkpt lat="36.6769" lon="-4.997338">
        <ele>1833.16</ele>
        <time>2018-07-28T04:19:25Z</time>
      </trkpt>
      <trkpt lat="36.67691" lon="-4.997314">
        <ele>1833.801</ele>
        <time>2018-07-28T04:19:28Z</time>
      </trkpt>
      <trkpt lat="36.6769" lon="-4.997278">
        <ele>1834.939</ele>
        <time>2018-07-28T04:19:34Z</time>
      </trkpt>
      <trkpt lat="36.67689" lon="-4.997264">
        <ele>1835.588</ele>
        <time>2018-07-28T04:19:38Z</time>
      </trkpt>
      <trkpt lat="36.67686" lon="-4.997258">
        <ele>1836.427</ele>
        <time>2018-07-28T04:19:44Z</time>
      </trkpt>
      <trkpt lat="36.67685" lon="-4.997256">
        <ele>1836.648</ele>
        <time>2018-07-28T04:19:46Z</time>
      </trkpt>
      <trkpt lat="36.67685" lon="-4.997254">
        <ele>1836.707</ele>
        <time>2018-07-28T04:19:47Z</time>
      </trkpt>
      <trkpt lat="36.67684" lon="-4.997251">
        <ele>1836.944</ele>
        <time>2018-07-28T04:19:48Z</time>
      </trkpt>
      <trkpt lat="36.67684" lon="-4.99725">
        <ele>1837.048</ele>
        <time>2018-07-28T04:19:49Z</time>
      </trkpt>
      <trkpt lat="36.67682" lon="-4.997246">
        <ele>1837.555</ele>
        <time>2018-07-28T04:19:53Z</time>
      </trkpt>
      <trkpt lat="36.67682" lon="-4.997239">
        <ele>1837.838</ele>
        <time>2018-07-28T04:19:54Z</time>
      </trkpt>
      <trkpt lat="36.6768" lon="-4.997206">
        <ele>1839.098</ele>
        <time>2018-07-28T04:19:58Z</time>
      </trkpt>
      <trkpt lat="36.67679" lon="-4.99719">
        <ele>1839.921</ele>
        <time>2018-07-28T04:20:03Z</time>
      </trkpt>
      <trkpt lat="36.67676" lon="-4.997195">
        <ele>1840.393</ele>
        <time>2018-07-28T04:20:08Z</time>
      </trkpt>
      <trkpt lat="36.67675" lon="-4.997194">
        <ele>1840.58</ele>
        <time>2018-07-28T04:20:09Z</time>
      </trkpt>
      <trkpt lat="36.67674" lon="-4.997193">
        <ele>1840.767</ele>
        <time>2018-07-28T04:20:10Z</time>
      </trkpt>
      <trkpt lat="36.67673" lon="-4.997193">
        <ele>1840.923</ele>
        <time>2018-07-28T04:20:11Z</time>
      </trkpt>
      <trkpt lat="36.67673" lon="-4.997192">
        <ele>1841.11</ele>
        <time>2018-07-28T04:20:12Z</time>
      </trkpt>
      <trkpt lat="36.67672" lon="-4.997188">
        <ele>1841.391</ele>
        <time>2018-07-28T04:20:13Z</time>
      </trkpt>
      <trkpt lat="36.67672" lon="-4.997186">
        <ele>1841.454</ele>
        <time>2018-07-28T04:20:14Z</time>
      </trkpt>
      <trkpt lat="36.67672" lon="-4.997186">
        <ele>1841.532</ele>
        <time>2018-07-28T04:20:15Z</time>
      </trkpt>
      <trkpt lat="36.67671" lon="-4.997171">
        <ele>1842.192</ele>
        <time>2018-07-28T04:20:17Z</time>
      </trkpt>
      <trkpt lat="36.6767" lon="-4.997165">
        <ele>1842.46</ele>
        <time>2018-07-28T04:20:18Z</time>
      </trkpt>
      <trkpt lat="36.6767" lon="-4.99716">
        <ele>1842.714</ele>
        <time>2018-07-28T04:20:19Z</time>
      </trkpt>
      <trkpt lat="36.67669" lon="-4.997149">
        <ele>1843.238</ele>
        <time>2018-07-28T04:20:21Z</time>
      </trkpt>
      <trkpt lat="36.67669" lon="-4.997137">
        <ele>1843.714</ele>
        <time>2018-07-28T04:20:24Z</time>
      </trkpt>
      <trkpt lat="36.67669" lon="-4.997124">
        <ele>1844.225</ele>
        <time>2018-07-28T04:20:28Z</time>
      </trkpt>
      <trkpt lat="36.6767" lon="-4.9971">
        <ele>1844.784</ele>
        <time>2018-07-28T04:20:31Z</time>
      </trkpt>
      <trkpt lat="36.6767" lon="-4.997061">
        <ele>1846.079</ele>
        <time>2018-07-28T04:20:38Z</time>
      </trkpt>
      <trkpt lat="36.67669" lon="-4.997051">
        <ele>1846.584</ele>
        <time>2018-07-28T04:20:40Z</time>
      </trkpt>
      <trkpt lat="36.67669" lon="-4.997049">
        <ele>1846.647</ele>
        <time>2018-07-28T04:20:41Z</time>
      </trkpt>
      <trkpt lat="36.67669" lon="-4.997042">
        <ele>1846.869</ele>
        <time>2018-07-28T04:20:46Z</time>
      </trkpt>
      <trkpt lat="36.67668" lon="-4.997035">
        <ele>1847.282</ele>
        <time>2018-07-28T04:20:48Z</time>
      </trkpt>
      <trkpt lat="36.67668" lon="-4.997034">
        <ele>1847.401</ele>
        <time>2018-07-28T04:20:49Z</time>
      </trkpt>
      <trkpt lat="36.67667" lon="-4.997022">
        <ele>1848.063</ele>
        <time>2018-07-28T04:20:52Z</time>
      </trkpt>
      <trkpt lat="36.67666" lon="-4.997017">
        <ele>1848.304</ele>
        <time>2018-07-28T04:20:53Z</time>
      </trkpt>
      <trkpt lat="36.67666" lon="-4.997008">
        <ele>1848.675</ele>
        <time>2018-07-28T04:20:54Z</time>
      </trkpt>
      <trkpt lat="36.67665" lon="-4.996998">
        <ele>1849.215</ele>
        <time>2018-07-28T04:20:56Z</time>
      </trkpt>
      <trkpt lat="36.67664" lon="-4.996993">
        <ele>1849.581</ele>
        <time>2018-07-28T04:20:58Z</time>
      </trkpt>
      <trkpt lat="36.67663" lon="-4.996989">
        <ele>1849.866</ele>
        <time>2018-07-28T04:20:59Z</time>
      </trkpt>
      <trkpt lat="36.67662" lon="-4.996987">
        <ele>1850.069</ele>
        <time>2018-07-28T04:21:00Z</time>
      </trkpt>
      <trkpt lat="36.67661" lon="-4.996988">
        <ele>1850.24</ele>
        <time>2018-07-28T04:21:02Z</time>
      </trkpt>
      <trkpt lat="36.6766" lon="-4.996992">
        <ele>1850.224</ele>
        <time>2018-07-28T04:21:06Z</time>
      </trkpt>
      <trkpt lat="36.67659" lon="-4.99699">
        <ele>1850.564</ele>
        <time>2018-07-28T04:21:08Z</time>
      </trkpt>
      <trkpt lat="36.67658" lon="-4.996987">
        <ele>1850.752</ele>
        <time>2018-07-28T04:21:09Z</time>
      </trkpt>
      <trkpt lat="36.67657" lon="-4.996981">
        <ele>1851.166</ele>
        <time>2018-07-28T04:21:11Z</time>
      </trkpt>
      <trkpt lat="36.67656" lon="-4.996976">
        <ele>1851.636</ele>
        <time>2018-07-28T04:21:13Z</time>
      </trkpt>
      <trkpt lat="36.67654" lon="-4.996953">
        <ele>1852.843</ele>
        <time>2018-07-28T04:21:18Z</time>
      </trkpt>
      <trkpt lat="36.67653" lon="-4.996935">
        <ele>1853.598</ele>
        <time>2018-07-28T04:21:21Z</time>
      </trkpt>
      <trkpt lat="36.67654" lon="-4.996926">
        <ele>1853.863</ele>
        <time>2018-07-28T04:21:23Z</time>
      </trkpt>
      <trkpt lat="36.67654" lon="-4.996914">
        <ele>1854.157</ele>
        <time>2018-07-28T04:21:26Z</time>
      </trkpt>
      <trkpt lat="36.67655" lon="-4.996905">
        <ele>1854.417</ele>
        <time>2018-07-28T04:21:28Z</time>
      </trkpt>
      <trkpt lat="36.67655" lon="-4.996903">
        <ele>1854.41</ele>
        <time>2018-07-28T04:21:29Z</time>
      </trkpt>
      <trkpt lat="36.67655" lon="-4.996884">
        <ele>1855.117</ele>
        <time>2018-07-28T04:21:33Z</time>
      </trkpt>
      <trkpt lat="36.67655" lon="-4.996859">
        <ele>1856.12</ele>
        <time>2018-07-28T04:21:38Z</time>
      </trkpt>
      <trkpt lat="36.67654" lon="-4.996823">
        <ele>1857.555</ele>
        <time>2018-07-28T04:21:45Z</time>
      </trkpt>
      <trkpt lat="36.67654" lon="-4.996818">
        <ele>1857.82</ele>
        <time>2018-07-28T04:21:46Z</time>
      </trkpt>
      <trkpt lat="36.67654" lon="-4.99681">
        <ele>1858.124</ele>
        <time>2018-07-28T04:21:48Z</time>
      </trkpt>
      <trkpt lat="36.67657" lon="-4.996795">
        <ele>1857.953</ele>
        <time>2018-07-28T04:21:54Z</time>
      </trkpt>
      <trkpt lat="36.67658" lon="-4.996784">
        <ele>1858.078</ele>
        <time>2018-07-28T04:21:58Z</time>
      </trkpt>
      <trkpt lat="36.67659" lon="-4.996786">
        <ele>1857.826</ele>
        <time>2018-07-28T04:22:02Z</time>
      </trkpt>
      <trkpt lat="36.67661" lon="-4.996763">
        <ele>1858.084</ele>
        <time>2018-07-28T04:22:08Z</time>
      </trkpt>
      <trkpt lat="36.67661" lon="-4.996744">
        <ele>1858.755</ele>
        <time>2018-07-28T04:22:12Z</time>
      </trkpt>
      <trkpt lat="36.67662" lon="-4.996719">
        <ele>1859.447</ele>
        <time>2018-07-28T04:22:18Z</time>
      </trkpt>
      <trkpt lat="36.67662" lon="-4.996711">
        <ele>1859.731</ele>
        <time>2018-07-28T04:22:19Z</time>
      </trkpt>
      <trkpt lat="36.67663" lon="-4.996696">
        <ele>1860.044</ele>
        <time>2018-07-28T04:22:21Z</time>
      </trkpt>
      <trkpt lat="36.67667" lon="-4.996673">
        <ele>1859.795</ele>
        <time>2018-07-28T04:22:28Z</time>
      </trkpt>
      <trkpt lat="36.67667" lon="-4.996658">
        <ele>1859.984</ele>
        <time>2018-07-28T04:22:31Z</time>
      </trkpt>
      <trkpt lat="36.67667" lon="-4.996645">
        <ele>1860.264</ele>
        <time>2018-07-28T04:22:35Z</time>
      </trkpt>
      <trkpt lat="36.67667" lon="-4.996641">
        <ele>1860.455</ele>
        <time>2018-07-28T04:22:38Z</time>
      </trkpt>
      <trkpt lat="36.67667" lon="-4.996638">
        <ele>1860.419</ele>
        <time>2018-07-28T04:22:41Z</time>
      </trkpt>
      <trkpt lat="36.67667" lon="-4.996635">
        <ele>1860.696</ele>
        <time>2018-07-28T04:22:48Z</time>
      </trkpt>
      <trkpt lat="36.67665" lon="-4.996633">
        <ele>1861.045</ele>
        <time>2018-07-28T04:22:50Z</time>
      </trkpt>
      <trkpt lat="36.67664" lon="-4.996626">
        <ele>1861.504</ele>
        <time>2018-07-28T04:22:53Z</time>
      </trkpt>
      <trkpt lat="36.67664" lon="-4.996618">
        <ele>1861.879</ele>
        <time>2018-07-28T04:22:57Z</time>
      </trkpt>
      <trkpt lat="36.67664" lon="-4.996613">
        <ele>1861.979</ele>
        <time>2018-07-28T04:22:58Z</time>
      </trkpt>
      <trkpt lat="36.67664" lon="-4.996594">
        <ele>1862.279</ele>
        <time>2018-07-28T04:23:01Z</time>
      </trkpt>
      <trkpt lat="36.67664" lon="-4.996583">
        <ele>1862.51</ele>
        <time>2018-07-28T04:23:03Z</time>
      </trkpt>
      <trkpt lat="36.67664" lon="-4.996557">
        <ele>1862.955</ele>
        <time>2018-07-28T04:23:08Z</time>
      </trkpt>
      <trkpt lat="36.67664" lon="-4.996534">
        <ele>1863.544</ele>
        <time>2018-07-28T04:23:11Z</time>
      </trkpt>
      <trkpt lat="36.67665" lon="-4.99651">
        <ele>1863.859</ele>
        <time>2018-07-28T04:23:18Z</time>
      </trkpt>
      <trkpt lat="36.67665" lon="-4.996505">
        <ele>1863.878</ele>
        <time>2018-07-28T04:23:19Z</time>
      </trkpt>
      <trkpt lat="36.67665" lon="-4.996493">
        <ele>1864.04</ele>
        <time>2018-07-28T04:23:21Z</time>
      </trkpt>
      <trkpt lat="36.67666" lon="-4.99647">
        <ele>1864.348</ele>
        <time>2018-07-28T04:23:28Z</time>
      </trkpt>
      <trkpt lat="36.67667" lon="-4.996445">
        <ele>1864.794</ele>
        <time>2018-07-28T04:23:34Z</time>
      </trkpt>
      <trkpt lat="36.67666" lon="-4.996442">
        <ele>1865.042</ele>
        <time>2018-07-28T04:23:36Z</time>
      </trkpt>
      <trkpt lat="36.67665" lon="-4.996443">
        <ele>1865.109</ele>
        <time>2018-07-28T04:23:38Z</time>
      </trkpt>
      <trkpt lat="36.67665" lon="-4.996438">
        <ele>1865.299</ele>
        <time>2018-07-28T04:23:40Z</time>
      </trkpt>
      <trkpt lat="36.67664" lon="-4.996416">
        <ele>1866.11</ele>
        <time>2018-07-28T04:23:45Z</time>
      </trkpt>
      <trkpt lat="36.67662" lon="-4.99641">
        <ele>1866.582</ele>
        <time>2018-07-28T04:23:48Z</time>
      </trkpt>
      <trkpt lat="36.67662" lon="-4.99641">
        <ele>1866.667</ele>
        <time>2018-07-28T04:23:49Z</time>
      </trkpt>
      <trkpt lat="36.67661" lon="-4.99641">
        <ele>1866.924</ele>
        <time>2018-07-28T04:23:51Z</time>
      </trkpt>
      <trkpt lat="36.6766" lon="-4.996409">
        <ele>1867.029</ele>
        <time>2018-07-28T04:23:52Z</time>
      </trkpt>
      <trkpt lat="36.6766" lon="-4.996408">
        <ele>1867.134</ele>
        <time>2018-07-28T04:23:53Z</time>
      </trkpt>
      <trkpt lat="36.67659" lon="-4.996406">
        <ele>1867.343</ele>
        <time>2018-07-28T04:23:55Z</time>
      </trkpt>
      <trkpt lat="36.67659" lon="-4.996402">
        <ele>1867.429</ele>
        <time>2018-07-28T04:23:56Z</time>
      </trkpt>
      <trkpt lat="36.67658" lon="-4.996397">
        <ele>1867.693</ele>
        <time>2018-07-28T04:23:58Z</time>
      </trkpt>
      <trkpt lat="36.67658" lon="-4.996397">
        <ele>1867.778</ele>
        <time>2018-07-28T04:23:59Z</time>
      </trkpt>
      <trkpt lat="36.67657" lon="-4.996395">
        <ele>1867.9</ele>
        <time>2018-07-28T04:24:01Z</time>
      </trkpt>
      <trkpt lat="36.67657" lon="-4.996363">
        <ele>1868.613</ele>
        <time>2018-07-28T04:24:08Z</time>
      </trkpt>
      <trkpt lat="36.67655" lon="-4.99634">
        <ele>1869.473</ele>
        <time>2018-07-28T04:24:14Z</time>
      </trkpt>
      <trkpt lat="36.67653" lon="-4.996329">
        <ele>1870.161</ele>
        <time>2018-07-28T04:24:16Z</time>
      </trkpt>
      <trkpt lat="36.67651" lon="-4.996326">
        <ele>1870.531</ele>
        <time>2018-07-28T04:24:18Z</time>
      </trkpt>
      <trkpt lat="36.67651" lon="-4.996331">
        <ele>1870.593</ele>
        <time>2018-07-28T04:24:19Z</time>
      </trkpt>
      <trkpt lat="36.6765" lon="-4.996336">
        <ele>1870.665</ele>
        <time>2018-07-28T04:24:20Z</time>
      </trkpt>
      <trkpt lat="36.67649" lon="-4.996339">
        <ele>1870.773</ele>
        <time>2018-07-28T04:24:21Z</time>
      </trkpt>
      <trkpt lat="36.67648" lon="-4.996342">
        <ele>1870.873</ele>
        <time>2018-07-28T04:24:22Z</time>
      </trkpt>
      <trkpt lat="36.67648" lon="-4.996343">
        <ele>1871.017</ele>
        <time>2018-07-28T04:24:23Z</time>
      </trkpt>
      <trkpt lat="36.67647" lon="-4.996345">
        <ele>1871.144</ele>
        <time>2018-07-28T04:24:24Z</time>
      </trkpt>
      <trkpt lat="36.67646" lon="-4.996345">
        <ele>1871.305</ele>
        <time>2018-07-28T04:24:25Z</time>
      </trkpt>
      <trkpt lat="36.67646" lon="-4.996348">
        <ele>1871.336</ele>
        <time>2018-07-28T04:24:26Z</time>
      </trkpt>
      <trkpt lat="36.67645" lon="-4.996353">
        <ele>1871.489</ele>
        <time>2018-07-28T04:24:28Z</time>
      </trkpt>
      <trkpt lat="36.67645" lon="-4.996354">
        <ele>1871.472</ele>
        <time>2018-07-28T04:24:29Z</time>
      </trkpt>
      <trkpt lat="36.67644" lon="-4.996355">
        <ele>1871.537</ele>
        <time>2018-07-28T04:24:31Z</time>
      </trkpt>
      <trkpt lat="36.67643" lon="-4.996351">
        <ele>1871.773</ele>
        <time>2018-07-28T04:24:32Z</time>
      </trkpt>
      <trkpt lat="36.67642" lon="-4.996344">
        <ele>1872.127</ele>
        <time>2018-07-28T04:24:34Z</time>
      </trkpt>
      <trkpt lat="36.67641" lon="-4.996342">
        <ele>1872.48</ele>
        <time>2018-07-28T04:24:38Z</time>
      </trkpt>
      <trkpt lat="36.6764" lon="-4.996342">
        <ele>1872.56</ele>
        <time>2018-07-28T04:24:40Z</time>
      </trkpt>
      <trkpt lat="36.6764" lon="-4.996344">
        <ele>1872.61</ele>
        <time>2018-07-28T04:24:41Z</time>
      </trkpt>
      <trkpt lat="36.67638" lon="-4.996349">
        <ele>1872.856</ele>
        <time>2018-07-28T04:24:44Z</time>
      </trkpt>
      <trkpt lat="36.67637" lon="-4.996354">
        <ele>1873.016</ele>
        <time>2018-07-28T04:24:46Z</time>
      </trkpt>
      <trkpt lat="36.67637" lon="-4.996356">
        <ele>1873.068</ele>
        <time>2018-07-28T04:24:47Z</time>
      </trkpt>
      <trkpt lat="36.67636" lon="-4.996353">
        <ele>1873.193</ele>
        <time>2018-07-28T04:24:48Z</time>
      </trkpt>
      <trkpt lat="36.67636" lon="-4.996348">
        <ele>1873.436</ele>
        <time>2018-07-28T04:24:49Z</time>
      </trkpt>
      <trkpt lat="36.67635" lon="-4.996336">
        <ele>1873.859</ele>
        <time>2018-07-28T04:24:52Z</time>
      </trkpt>
      <trkpt lat="36.67634" lon="-4.996335">
        <ele>1874.033</ele>
        <time>2018-07-28T04:24:53Z</time>
      </trkpt>
      <trkpt lat="36.67633" lon="-4.996333">
        <ele>1874.141</ele>
        <time>2018-07-28T04:24:54Z</time>
      </trkpt>
      <trkpt lat="36.67633" lon="-4.996332">
        <ele>1874.235</ele>
        <time>2018-07-28T04:24:55Z</time>
      </trkpt>
      <trkpt lat="36.67631" lon="-4.996329">
        <ele>1874.76</ele>
        <time>2018-07-28T04:24:58Z</time>
      </trkpt>
      <trkpt lat="36.67628" lon="-4.996328">
        <ele>1875.249</ele>
        <time>2018-07-28T04:25:01Z</time>
      </trkpt>
      <trkpt lat="36.67626" lon="-4.996336">
        <ele>1875.696</ele>
        <time>2018-07-28T04:25:04Z</time>
      </trkpt>
      <trkpt lat="36.67624" lon="-4.996334">
        <ele>1876.199</ele>
        <time>2018-07-28T04:25:08Z</time>
      </trkpt>
      <trkpt lat="36.67624" lon="-4.996327">
        <ele>1876.292</ele>
        <time>2018-07-28T04:25:09Z</time>
      </trkpt>
      <trkpt lat="36.67624" lon="-4.996323">
        <ele>1876.341</ele>
        <time>2018-07-28T04:25:10Z</time>
      </trkpt>
      <trkpt lat="36.67624" lon="-4.996312">
        <ele>1876.482</ele>
        <time>2018-07-28T04:25:12Z</time>
      </trkpt>
      <trkpt lat="36.67624" lon="-4.996308">
        <ele>1876.46</ele>
        <time>2018-07-28T04:25:13Z</time>
      </trkpt>
      <trkpt lat="36.67624" lon="-4.996274">
        <ele>1876.824</ele>
        <time>2018-07-28T04:25:18Z</time>
      </trkpt>
      <trkpt lat="36.67621" lon="-4.996257">
        <ele>1877.639</ele>
        <time>2018-07-28T04:25:22Z</time>
      </trkpt>
      <trkpt lat="36.6762" lon="-4.996252">
        <ele>1877.992</ele>
        <time>2018-07-28T04:25:24Z</time>
      </trkpt>
      <trkpt lat="36.67616" lon="-4.996247">
        <ele>1878.712</ele>
        <time>2018-07-28T04:25:28Z</time>
      </trkpt>
      <trkpt lat="36.67612" lon="-4.996223">
        <ele>1879.839</ele>
        <time>2018-07-28T04:25:35Z</time>
      </trkpt>
      <trkpt lat="36.6761" lon="-4.996219">
        <ele>1880.233</ele>
        <time>2018-07-28T04:25:38Z</time>
      </trkpt>
      <trkpt lat="36.67607" lon="-4.996224">
        <ele>1880.613</ele>
        <time>2018-07-28T04:25:42Z</time>
      </trkpt>
      <trkpt lat="36.67606" lon="-4.996212">
        <ele>1881.009</ele>
        <time>2018-07-28T04:25:46Z</time>
      </trkpt>
      <trkpt lat="36.67605" lon="-4.996213">
        <ele>1881.211</ele>
        <time>2018-07-28T04:25:48Z</time>
      </trkpt>
      <trkpt lat="36.67603" lon="-4.996212">
        <ele>1881.642</ele>
        <time>2018-07-28T04:25:52Z</time>
      </trkpt>
      <trkpt lat="36.67602" lon="-4.996213">
        <ele>1881.775</ele>
        <time>2018-07-28T04:25:53Z</time>
      </trkpt>
      <trkpt lat="36.67601" lon="-4.996211">
        <ele>1881.931</ele>
        <time>2018-07-28T04:25:54Z</time>
      </trkpt>
      <trkpt lat="36.676" lon="-4.996211">
        <ele>1882.072</ele>
        <time>2018-07-28T04:25:55Z</time>
      </trkpt>
      <trkpt lat="36.67599" lon="-4.996211">
        <ele>1882.212</ele>
        <time>2018-07-28T04:25:56Z</time>
      </trkpt>
      <trkpt lat="36.67598" lon="-4.996211">
        <ele>1882.423</ele>
        <time>2018-07-28T04:25:57Z</time>
      </trkpt>
      <trkpt lat="36.67598" lon="-4.996211">
        <ele>1882.493</ele>
        <time>2018-07-28T04:25:58Z</time>
      </trkpt>
      <trkpt lat="36.67598" lon="-4.99621">
        <ele>1882.571</ele>
        <time>2018-07-28T04:25:59Z</time>
      </trkpt>
      <trkpt lat="36.67597" lon="-4.996207">
        <ele>1882.663</ele>
        <time>2018-07-28T04:26:02Z</time>
      </trkpt>
      <trkpt lat="36.67597" lon="-4.996207">
        <ele>1882.663</ele>
        <time>2018-07-28T04:26:04Z</time>
      </trkpt>
      <trkpt lat="36.67596" lon="-4.996199">
        <ele>1882.863</ele>
        <time>2018-07-28T04:26:08Z</time>
      </trkpt>
      <trkpt lat="36.67597" lon="-4.996197">
        <ele>1882.808</ele>
        <time>2018-07-28T04:26:13Z</time>
      </trkpt>
      <trkpt lat="36.67597" lon="-4.996198">
        <ele>1882.801</ele>
        <time>2018-07-28T04:26:16Z</time>
      </trkpt>
      <trkpt lat="36.67596" lon="-4.996196">
        <ele>1882.888</ele>
        <time>2018-07-28T04:26:18Z</time>
      </trkpt>
      <trkpt lat="36.67596" lon="-4.996191">
        <ele>1883.061</ele>
        <time>2018-07-28T04:26:22Z</time>
      </trkpt>
      <trkpt lat="36.67595" lon="-4.996191">
        <ele>1883.129</ele>
        <time>2018-07-28T04:26:23Z</time>
      </trkpt>
      <trkpt lat="36.67595" lon="-4.996191">
        <ele>1883.129</ele>
        <time>2018-07-28T04:26:25Z</time>
      </trkpt>
      <trkpt lat="36.67595" lon="-4.99619">
        <ele>1883.205</ele>
        <time>2018-07-28T04:26:28Z</time>
      </trkpt>
      <trkpt lat="36.67595" lon="-4.996194">
        <ele>1883.184</ele>
        <time>2018-07-28T04:26:31Z</time>
      </trkpt>
      <trkpt lat="36.6760177612305" lon="-4.99624395370483">
        <ele>1881.51049804688</ele>
        <time>2018-07-28T06:03:40Z</time>
      </trkpt>
      <trkpt lat="36.6760215759277" lon="-4.99624681472778">
        <ele>1881.4130859375</ele>
        <time>2018-07-28T06:03:41Z</time>
      </trkpt>
      <trkpt lat="36.6760215759277" lon="-4.99625110626221">
        <ele>1881.37622070312</ele>
        <time>2018-07-28T06:03:42Z</time>
      </trkpt>
      <trkpt lat="36.676025390625" lon="-4.99625587463379">
        <ele>1881.26159667969</ele>
        <time>2018-07-28T06:03:43Z</time>
      </trkpt>
      <trkpt lat="36.6760292053223" lon="-4.9962592124939">
        <ele>1881.15869140625</ele>
        <time>2018-07-28T06:03:44Z</time>
      </trkpt>
      <trkpt lat="36.6760330200195" lon="-4.99626207351685">
        <ele>1881.05944824219</ele>
        <time>2018-07-28T06:03:45Z</time>
      </trkpt>
      <trkpt lat="36.6760368347168" lon="-4.99626398086548">
        <ele>1880.96826171875</ele>
        <time>2018-07-28T06:03:46Z</time>
      </trkpt>
      <trkpt lat="36.6760406494141" lon="-4.99626588821411">
        <ele>1880.87683105469</ele>
        <time>2018-07-28T06:03:47Z</time>
      </trkpt>
      <trkpt lat="36.6760406494141" lon="-4.99626779556274">
        <ele>1880.85974121094</ele>
        <time>2018-07-28T06:03:48Z</time>
      </trkpt>
      <trkpt lat="36.6760482788086" lon="-4.99627017974854">
        <ele>1880.68872070312</ele>
        <time>2018-07-28T06:03:49Z</time>
      </trkpt>
      <trkpt lat="36.6760520935059" lon="-4.99627304077148">
        <ele>1880.58764648438</ele>
        <time>2018-07-28T06:03:50Z</time>
      </trkpt>
      <trkpt lat="36.6760559082031" lon="-4.99627590179443">
        <ele>1880.48596191406</ele>
        <time>2018-07-28T06:03:51Z</time>
      </trkpt>
      <trkpt lat="36.6760635375977" lon="-4.99628114700317">
        <ele>1880.28601074219</ele>
        <time>2018-07-28T06:03:52Z</time>
      </trkpt>
      <trkpt lat="36.6760673522949" lon="-4.99628305435181">
        <ele>1880.19226074219</ele>
        <time>2018-07-28T06:03:53Z</time>
      </trkpt>
      <trkpt lat="36.6760711669922" lon="-4.99628591537476">
        <ele>1880.08898925781</ele>
        <time>2018-07-28T06:03:54Z</time>
      </trkpt>
      <trkpt lat="36.6760749816894" lon="-4.99628686904907">
        <ele>1880.00378417969</ele>
        <time>2018-07-28T06:03:55Z</time>
      </trkpt>
      <trkpt lat="36.6760787963867" lon="-4.99628686904907">
        <ele>1879.927734375</ele>
        <time>2018-07-28T06:03:56Z</time>
      </trkpt>
      <trkpt lat="36.6760787963867" lon="-4.99628686904907">
        <ele>1879.927734375</ele>
        <time>2018-07-28T06:03:57Z</time>
      </trkpt>
      <trkpt lat="36.6760787963867" lon="-4.99628782272339">
        <ele>1879.91833496094</ele>
        <time>2018-07-28T06:03:58Z</time>
      </trkpt>
      <trkpt lat="36.6760787963867" lon="-4.99628782272339">
        <ele>1879.91833496094</ele>
        <time>2018-07-28T06:03:59Z</time>
      </trkpt>
      <trkpt lat="36.6760787963867" lon="-4.99628782272339">
        <ele>1879.91833496094</ele>
        <time>2018-07-28T06:04:00Z</time>
      </trkpt>
      <trkpt lat="36.6760787963867" lon="-4.99628782272339">
        <ele>1879.91833496094</ele>
        <time>2018-07-28T06:04:01Z</time>
      </trkpt>
      <trkpt lat="36.6760864257812" lon="-4.99629020690918">
        <ele>1879.74243164062</ele>
        <time>2018-07-28T06:04:02Z</time>
      </trkpt>
      <trkpt lat="36.6760940551758" lon="-4.99629211425781">
        <ele>1879.57067871094</ele>
        <time>2018-07-28T06:04:03Z</time>
      </trkpt>
      <trkpt lat="36.6761016845703" lon="-4.9962911605835">
        <ele>1879.42736816406</ele>
        <time>2018-07-28T06:04:04Z</time>
      </trkpt>
      <trkpt lat="36.6761093139648" lon="-4.99628782272339">
        <ele>1879.30920410156</ele>
        <time>2018-07-28T06:04:05Z</time>
      </trkpt>
      <trkpt lat="36.6761131286621" lon="-4.99628210067749">
        <ele>1879.29272460938</ele>
        <time>2018-07-28T06:04:06Z</time>
      </trkpt>
      <trkpt lat="36.6761169433594" lon="-4.99627590179443">
        <ele>1879.2822265625</ele>
        <time>2018-07-28T06:04:07Z</time>
      </trkpt>
      <trkpt lat="36.6761245727539" lon="-4.99627113342285">
        <ele>1879.18273925781</ele>
        <time>2018-07-28T06:04:08Z</time>
      </trkpt>
      <trkpt lat="36.6761283874512" lon="-4.99626588821411">
        <ele>1879.16418457031</ele>
        <time>2018-07-28T06:04:09Z</time>
      </trkpt>
      <trkpt lat="36.6761283874512" lon="-4.99626302719116">
        <ele>1879.19494628906</ele>
        <time>2018-07-28T06:04:10Z</time>
      </trkpt>
      <trkpt lat="36.6761322021484" lon="-4.9962592124939">
        <ele>1879.16198730469</ele>
        <time>2018-07-28T06:04:11Z</time>
      </trkpt>
      <trkpt lat="36.6761322021484" lon="-4.99625682830811">
        <ele>1879.18774414062</ele>
        <time>2018-07-28T06:04:12Z</time>
      </trkpt>
      <trkpt lat="36.6761360168457" lon="-4.99625492095947">
        <ele>1879.13488769531</ele>
        <time>2018-07-28T06:04:13Z</time>
      </trkpt>
      <trkpt lat="36.676139831543" lon="-4.99625301361084">
        <ele>1879.08215332031</ele>
        <time>2018-07-28T06:04:14Z</time>
      </trkpt>
      <trkpt lat="36.676139831543" lon="-4.99625301361084">
        <ele>1879.08215332031</ele>
        <time>2018-07-28T06:04:15Z</time>
      </trkpt>
      <trkpt lat="36.6761436462402" lon="-4.99625205993652">
        <ele>1879.01916503906</ele>
        <time>2018-07-28T06:04:16Z</time>
      </trkpt>
      <trkpt lat="36.6761436462402" lon="-4.99625301361084">
        <ele>1879.00866699219</ele>
        <time>2018-07-28T06:04:17Z</time>
      </trkpt>
      <trkpt lat="36.6761474609375" lon="-4.99625492095947">
        <ele>1878.91394042969</ele>
        <time>2018-07-28T06:04:18Z</time>
      </trkpt>
      <trkpt lat="36.6761512756348" lon="-4.9962592124939">
        <ele>1878.79223632812</ele>
        <time>2018-07-28T06:04:19Z</time>
      </trkpt>
      <trkpt lat="36.676155090332" lon="-4.99626302719116">
        <ele>1878.67529296875</ele>
        <time>2018-07-28T06:04:20Z</time>
      </trkpt>
      <trkpt lat="36.6761589050293" lon="-4.99626684188843">
        <ele>1878.5576171875</ele>
        <time>2018-07-28T06:04:21Z</time>
      </trkpt>
      <trkpt lat="36.6761627197266" lon="-4.99627113342285">
        <ele>1878.43395996094</ele>
        <time>2018-07-28T06:04:22Z</time>
      </trkpt>
      <trkpt lat="36.6761703491211" lon="-4.99627494812012">
        <ele>1878.23999023438</ele>
        <time>2018-07-28T06:04:23Z</time>
      </trkpt>
      <trkpt lat="36.6761741638184" lon="-4.99627590179443">
        <ele>1878.15380859375</ele>
        <time>2018-07-28T06:04:24Z</time>
      </trkpt>
      <trkpt lat="36.6761817932129" lon="-4.99627780914307">
        <ele>1877.98071289062</ele>
        <time>2018-07-28T06:04:25Z</time>
      </trkpt>
      <trkpt lat="36.6761894226074" lon="-4.99628019332886">
        <ele>1877.80139160156</ele>
        <time>2018-07-28T06:04:26Z</time>
      </trkpt>
      <trkpt lat="36.6761932373047" lon="-4.99628400802612">
        <ele>1877.67980957031</ele>
        <time>2018-07-28T06:04:27Z</time>
      </trkpt>
      <trkpt lat="36.6762008666992" lon="-4.99628686904907">
        <ele>1877.4931640625</ele>
        <time>2018-07-28T06:04:28Z</time>
      </trkpt>
      <trkpt lat="36.6762084960938" lon="-4.99628782272339">
        <ele>1877.32922363281</ele>
        <time>2018-07-28T06:04:29Z</time>
      </trkpt>
      <trkpt lat="36.676212310791" lon="-4.99629020690918">
        <ele>1877.22351074219</ele>
        <time>2018-07-28T06:04:30Z</time>
      </trkpt>
      <trkpt lat="36.6762161254883" lon="-4.9962911605835">
        <ele>1877.13513183594</ele>
        <time>2018-07-28T06:04:31Z</time>
      </trkpt>
      <trkpt lat="36.6762237548828" lon="-4.99629306793213">
        <ele>1876.95825195312</ele>
        <time>2018-07-28T06:04:32Z</time>
      </trkpt>
      <trkpt lat="36.6762275695801" lon="-4.99629497528076">
        <ele>1876.85729980469</ele>
        <time>2018-07-28T06:04:33Z</time>
      </trkpt>
      <trkpt lat="36.6762313842773" lon="-4.99629497528076">
        <ele>1876.78063964844</ele>
        <time>2018-07-28T06:04:34Z</time>
      </trkpt>
      <trkpt lat="36.6762351989746" lon="-4.99629497528076">
        <ele>1876.70397949219</ele>
        <time>2018-07-28T06:04:35Z</time>
      </trkpt>
      <trkpt lat="36.6762390136719" lon="-4.99629497528076">
        <ele>1876.62719726562</ele>
        <time>2018-07-28T06:04:36Z</time>
      </trkpt>
      <trkpt lat="36.6762428283691" lon="-4.99629592895508">
        <ele>1876.5380859375</ele>
        <time>2018-07-28T06:04:37Z</time>
      </trkpt>
      <trkpt lat="36.6762466430664" lon="-4.99629783630371">
        <ele>1876.43627929688</ele>
        <time>2018-07-28T06:04:38Z</time>
      </trkpt>
      <trkpt lat="36.6762504577637" lon="-4.9963002204895">
        <ele>1876.32788085938</ele>
        <time>2018-07-28T06:04:39Z</time>
      </trkpt>
      <trkpt lat="36.6762542724609" lon="-4.99630117416382">
        <ele>1876.23803710938</ele>
        <time>2018-07-28T06:04:40Z</time>
      </trkpt>
      <trkpt lat="36.6762542724609" lon="-4.99630212783814">
        <ele>1876.22534179688</ele>
        <time>2018-07-28T06:04:41Z</time>
      </trkpt>
      <trkpt lat="36.6762542724609" lon="-4.99630308151245">
        <ele>1876.21276855469</ele>
        <time>2018-07-28T06:04:42Z</time>
      </trkpt>
      <trkpt lat="36.6762542724609" lon="-4.99630403518677">
        <ele>1876.20007324219</ele>
        <time>2018-07-28T06:04:43Z</time>
      </trkpt>
      <trkpt lat="36.6762542724609" lon="-4.99630403518677">
        <ele>1876.20007324219</ele>
        <time>2018-07-28T06:04:44Z</time>
      </trkpt>
      <trkpt lat="36.6762580871582" lon="-4.99630403518677">
        <ele>1876.12268066406</ele>
        <time>2018-07-28T06:04:45Z</time>
      </trkpt>
      <trkpt lat="36.6762580871582" lon="-4.99630403518677">
        <ele>1876.12268066406</ele>
        <time>2018-07-28T06:04:46Z</time>
      </trkpt>
      <trkpt lat="36.6762580871582" lon="-4.99630403518677">
        <ele>1876.12268066406</ele>
        <time>2018-07-28T06:04:47Z</time>
      </trkpt>
      <trkpt lat="36.6762542724609" lon="-4.99630403518677">
        <ele>1876.20007324219</ele>
        <time>2018-07-28T06:04:48Z</time>
      </trkpt>
      <trkpt lat="36.6762542724609" lon="-4.99630498886108">
        <ele>1876.18737792969</ele>
        <time>2018-07-28T06:04:49Z</time>
      </trkpt>
      <trkpt lat="36.6762542724609" lon="-4.99630689620972">
        <ele>1876.16198730469</ele>
        <time>2018-07-28T06:04:50Z</time>
      </trkpt>
      <trkpt lat="36.6762542724609" lon="-4.99630880355835">
        <ele>1876.13671875</ele>
        <time>2018-07-28T06:04:51Z</time>
      </trkpt>
      <trkpt lat="36.6762542724609" lon="-4.99631118774414">
        <ele>1876.10498046875</ele>
        <time>2018-07-28T06:04:52Z</time>
      </trkpt>
      <trkpt lat="36.6762542724609" lon="-4.99631214141846">
        <ele>1876.09240722656</ele>
        <time>2018-07-28T06:04:53Z</time>
      </trkpt>
      <trkpt lat="36.6762580871582" lon="-4.99631309509277">
        <ele>1876.00158691406</ele>
        <time>2018-07-28T06:04:54Z</time>
      </trkpt>
      <trkpt lat="36.6762580871582" lon="-4.99631500244141">
        <ele>1875.97607421875</ele>
        <time>2018-07-28T06:04:55Z</time>
      </trkpt>
      <trkpt lat="36.6762580871582" lon="-4.99631595611572">
        <ele>1875.96337890625</ele>
        <time>2018-07-28T06:04:56Z</time>
      </trkpt>
      <trkpt lat="36.6762580871582" lon="-4.99631786346436">
        <ele>1875.93786621094</ele>
        <time>2018-07-28T06:04:57Z</time>
      </trkpt>
      <trkpt lat="36.6762619018555" lon="-4.99631881713867">
        <ele>1875.84655761719</ele>
        <time>2018-07-28T06:04:58Z</time>
      </trkpt>
      <trkpt lat="36.6762619018555" lon="-4.99632120132446">
        <ele>1875.81457519531</ele>
        <time>2018-07-28T06:04:59Z</time>
      </trkpt>
      <trkpt lat="36.6762619018555" lon="-4.99632501602173">
        <ele>1875.76330566406</ele>
        <time>2018-07-28T06:05:00Z</time>
      </trkpt>
      <trkpt lat="36.6762580871582" lon="-4.99633121490478">
        <ele>1875.75939941406</ele>
        <time>2018-07-28T06:05:01Z</time>
      </trkpt>
      <trkpt lat="36.6762542724609" lon="-4.99633598327637">
        <ele>1875.77563476562</ele>
        <time>2018-07-28T06:05:02Z</time>
      </trkpt>
      <trkpt lat="36.6762466430664" lon="-4.99634218215942">
        <ele>1875.85388183594</ele>
        <time>2018-07-28T06:05:03Z</time>
      </trkpt>
      <trkpt lat="36.6762466430664" lon="-4.99634599685669">
        <ele>1875.80383300781</ele>
        <time>2018-07-28T06:05:04Z</time>
      </trkpt>
      <trkpt lat="36.6762466430664" lon="-4.99634885787964">
        <ele>1875.76623535156</ele>
        <time>2018-07-28T06:05:05Z</time>
      </trkpt>
      <trkpt lat="36.6762428283691" lon="-4.99634885787964">
        <ele>1875.84704589844</ele>
        <time>2018-07-28T06:05:06Z</time>
      </trkpt>
      <trkpt lat="36.6762428283691" lon="-4.99634885787964">
        <ele>1875.84704589844</ele>
        <time>2018-07-28T06:05:07Z</time>
      </trkpt>
      <trkpt lat="36.6762428283691" lon="-4.99634981155396">
        <ele>1875.83459472656</ele>
        <time>2018-07-28T06:05:08Z</time>
      </trkpt>
      <trkpt lat="36.6762428283691" lon="-4.99635219573975">
        <ele>1875.80346679688</ele>
        <time>2018-07-28T06:05:09Z</time>
      </trkpt>
      <trkpt lat="36.6762428283691" lon="-4.9963550567627">
        <ele>1875.76611328125</ele>
        <time>2018-07-28T06:05:10Z</time>
      </trkpt>
      <trkpt lat="36.6762428283691" lon="-4.99635696411133">
        <ele>1875.7412109375</ele>
        <time>2018-07-28T06:05:11Z</time>
      </trkpt>
      <trkpt lat="36.6762428283691" lon="-4.99635982513428">
        <ele>1875.70385742188</ele>
        <time>2018-07-28T06:05:12Z</time>
      </trkpt>
      <trkpt lat="36.6762466430664" lon="-4.99636316299438">
        <ele>1875.57836914062</ele>
        <time>2018-07-28T06:05:13Z</time>
      </trkpt>
      <trkpt lat="36.6762466430664" lon="-4.9963641166687">
        <ele>1875.56579589844</ele>
        <time>2018-07-28T06:05:14Z</time>
      </trkpt>
      <trkpt lat="36.6762466430664" lon="-4.9963641166687">
        <ele>1875.56579589844</ele>
        <time>2018-07-28T06:05:15Z</time>
      </trkpt>
      <trkpt lat="36.6762466430664" lon="-4.99636316299438">
        <ele>1875.57836914062</ele>
        <time>2018-07-28T06:05:16Z</time>
      </trkpt>
      <trkpt lat="36.6762466430664" lon="-4.99636220932007">
        <ele>1875.59094238281</ele>
        <time>2018-07-28T06:05:17Z</time>
      </trkpt>
      <trkpt lat="36.6762466430664" lon="-4.99636220932007">
        <ele>1875.59094238281</ele>
        <time>2018-07-28T06:05:18Z</time>
      </trkpt>
      <trkpt lat="36.6762466430664" lon="-4.99636316299438">
        <ele>1875.57836914062</ele>
        <time>2018-07-28T06:05:19Z</time>
      </trkpt>
      <trkpt lat="36.6762466430664" lon="-4.99636316299438">
        <ele>1875.57836914062</ele>
        <time>2018-07-28T06:05:20Z</time>
      </trkpt>
      <trkpt lat="36.6762504577637" lon="-4.9963641166687">
        <ele>1875.48376464844</ele>
        <time>2018-07-28T06:05:21Z</time>
      </trkpt>
      <trkpt lat="36.6762542724609" lon="-4.99636507034302">
        <ele>1875.38916015625</ele>
        <time>2018-07-28T06:05:22Z</time>
      </trkpt>
      <trkpt lat="36.6762580871582" lon="-4.99636697769165">
        <ele>1875.28149414062</ele>
        <time>2018-07-28T06:05:23Z</time>
      </trkpt>
      <trkpt lat="36.6762657165527" lon="-4.99636697769165">
        <ele>1875.11706542969</ele>
        <time>2018-07-28T06:05:24Z</time>
      </trkpt>
      <trkpt lat="36.67626953125" lon="-4.99636793136597">
        <ele>1875.02185058594</ele>
        <time>2018-07-28T06:05:25Z</time>
      </trkpt>
      <trkpt lat="36.6762733459473" lon="-4.99636793136597">
        <ele>1874.93957519531</ele>
        <time>2018-07-28T06:05:26Z</time>
      </trkpt>
      <trkpt lat="36.6762733459473" lon="-4.99636888504028">
        <ele>1874.92651367188</ele>
        <time>2018-07-28T06:05:27Z</time>
      </trkpt>
      <trkpt lat="36.6762771606445" lon="-4.99636793136597">
        <ele>1874.85729980469</ele>
        <time>2018-07-28T06:05:28Z</time>
      </trkpt>
      <trkpt lat="36.6762847900391" lon="-4.99636602401733">
        <ele>1874.71911621094</ele>
        <time>2018-07-28T06:05:29Z</time>
      </trkpt>
      <trkpt lat="36.6762886047363" lon="-4.99636316299438">
        <ele>1874.67700195312</ele>
        <time>2018-07-28T06:05:30Z</time>
      </trkpt>
      <trkpt lat="36.6762886047363" lon="-4.99636077880859">
        <ele>1874.71032714844</ele>
        <time>2018-07-28T06:05:31Z</time>
      </trkpt>
      <trkpt lat="36.6762886047363" lon="-4.99635982513428">
        <ele>1874.7236328125</ele>
        <time>2018-07-28T06:05:32Z</time>
      </trkpt>
      <trkpt lat="36.6762886047363" lon="-4.99635982513428">
        <ele>1874.7236328125</ele>
        <time>2018-07-28T06:05:33Z</time>
      </trkpt>
      <trkpt lat="36.6762886047363" lon="-4.99635982513428">
        <ele>1874.7236328125</ele>
        <time>2018-07-28T06:05:34Z</time>
      </trkpt>
      <trkpt lat="36.6762886047363" lon="-4.99635982513428">
        <ele>1874.7236328125</ele>
        <time>2018-07-28T06:05:35Z</time>
      </trkpt>
      <trkpt lat="36.6762924194336" lon="-4.99636220932007">
        <ele>1874.6083984375</ele>
        <time>2018-07-28T06:05:36Z</time>
      </trkpt>
      <trkpt lat="36.6762962341309" lon="-4.99636316299438">
        <ele>1874.51306152344</ele>
        <time>2018-07-28T06:05:37Z</time>
      </trkpt>
      <trkpt lat="36.6763000488281" lon="-4.99636507034302">
        <ele>1874.40405273438</ele>
        <time>2018-07-28T06:05:38Z</time>
      </trkpt>
      <trkpt lat="36.6763038635254" lon="-4.99636697769165">
        <ele>1874.29467773438</ele>
        <time>2018-07-28T06:05:39Z</time>
      </trkpt>
      <trkpt lat="36.6763114929199" lon="-4.99636888504028">
        <ele>1874.10266113281</ele>
        <time>2018-07-28T06:05:40Z</time>
      </trkpt>
      <trkpt lat="36.6763191223144" lon="-4.99637079238892">
        <ele>1873.91003417969</ele>
        <time>2018-07-28T06:05:41Z</time>
      </trkpt>
      <trkpt lat="36.676326751709" lon="-4.99637222290039">
        <ele>1873.72387695312</ele>
        <time>2018-07-28T06:05:42Z</time>
      </trkpt>
      <trkpt lat="36.6763343811035" lon="-4.99637413024902">
        <ele>1873.53015136719</ele>
        <time>2018-07-28T06:05:43Z</time>
      </trkpt>
      <trkpt lat="36.6763381958008" lon="-4.99637699127197">
        <ele>1873.40454101562</ele>
        <time>2018-07-28T06:05:44Z</time>
      </trkpt>
      <trkpt lat="36.676342010498" lon="-4.99637889862061">
        <ele>1873.29284667969</ele>
        <time>2018-07-28T06:05:45Z</time>
      </trkpt>
      <trkpt lat="36.676342010498" lon="-4.99637985229492">
        <ele>1873.27844238281</ele>
        <time>2018-07-28T06:05:46Z</time>
      </trkpt>
      <trkpt lat="36.6763458251953" lon="-4.99638080596924">
        <ele>1873.18078613281</ele>
        <time>2018-07-28T06:05:47Z</time>
      </trkpt>
      <trkpt lat="36.6763458251953" lon="-4.99638223648071">
        <ele>1873.1591796875</ele>
        <time>2018-07-28T06:05:48Z</time>
      </trkpt>
      <trkpt lat="36.6763496398926" lon="-4.99638319015503">
        <ele>1873.06127929688</ele>
        <time>2018-07-28T06:05:49Z</time>
      </trkpt>
      <trkpt lat="36.6763496398926" lon="-4.99638319015503">
        <ele>1873.06127929688</ele>
        <time>2018-07-28T06:05:50Z</time>
      </trkpt>
      <trkpt lat="36.6763534545898" lon="-4.99638414382935">
        <ele>1872.96325683594</ele>
        <time>2018-07-28T06:05:51Z</time>
      </trkpt>
      <trkpt lat="36.6763572692871" lon="-4.99638319015503">
        <ele>1872.89428710938</ele>
        <time>2018-07-28T06:05:52Z</time>
      </trkpt>
      <trkpt lat="36.6763610839844" lon="-4.99638319015503">
        <ele>1872.81079101562</ele>
        <time>2018-07-28T06:05:53Z</time>
      </trkpt>
      <trkpt lat="36.6763648986816" lon="-4.99638414382935">
        <ele>1872.71252441406</ele>
        <time>2018-07-28T06:05:54Z</time>
      </trkpt>
      <trkpt lat="36.6763687133789" lon="-4.99638605117798">
        <ele>1872.59924316406</ele>
        <time>2018-07-28T06:05:55Z</time>
      </trkpt>
      <trkpt lat="36.6763687133789" lon="-4.99638795852661">
        <ele>1872.56945800781</ele>
        <time>2018-07-28T06:05:56Z</time>
      </trkpt>
      <trkpt lat="36.6763687133789" lon="-4.99638986587524">
        <ele>1872.53979492188</ele>
        <time>2018-07-28T06:05:57Z</time>
      </trkpt>
      <trkpt lat="36.6763687133789" lon="-4.99638986587524">
        <ele>1872.53979492188</ele>
        <time>2018-07-28T06:05:58Z</time>
      </trkpt>
      <trkpt lat="36.6763725280762" lon="-4.99639320373535">
        <ele>1872.40344238281</ele>
        <time>2018-07-28T06:05:59Z</time>
      </trkpt>
      <trkpt lat="36.6763763427734" lon="-4.9963960647583">
        <ele>1872.27416992188</ele>
        <time>2018-07-28T06:06:00Z</time>
      </trkpt>
      <trkpt lat="36.6763801574707" lon="-4.99640083312988">
        <ele>1872.1142578125</ele>
        <time>2018-07-28T06:06:01Z</time>
      </trkpt>
      <trkpt lat="36.6763916015625" lon="-4.9964017868042">
        <ele>1871.84436035156</ele>
        <time>2018-07-28T06:06:02Z</time>
      </trkpt>
      <trkpt lat="36.6763954162598" lon="-4.9964017868042">
        <ele>1871.75939941406</ele>
        <time>2018-07-28T06:06:03Z</time>
      </trkpt>
      <trkpt lat="36.676399230957" lon="-4.99640083312988">
        <ele>1871.68994140625</ele>
        <time>2018-07-28T06:06:04Z</time>
      </trkpt>
      <trkpt lat="36.6764030456543" lon="-4.99639892578125">
        <ele>1871.63623046875</ele>
        <time>2018-07-28T06:06:05Z</time>
      </trkpt>
      <trkpt lat="36.6764068603516" lon="-4.99639701843262">
        <ele>1871.58276367188</ele>
        <time>2018-07-28T06:06:06Z</time>
      </trkpt>
      <trkpt lat="36.6764106750488" lon="-4.99639511108398">
        <ele>1871.52954101562</ele>
        <time>2018-07-28T06:06:07Z</time>
      </trkpt>
      <trkpt lat="36.6764144897461" lon="-4.99639320373535">
        <ele>1871.47668457031</ele>
        <time>2018-07-28T06:06:08Z</time>
      </trkpt>
      <trkpt lat="36.6764221191406" lon="-4.99639081954956">
        <ele>1871.34790039062</ele>
        <time>2018-07-28T06:06:09Z</time>
      </trkpt>
      <trkpt lat="36.6764297485352" lon="-4.99638795852661">
        <ele>1871.22790527344</ele>
        <time>2018-07-28T06:06:10Z</time>
      </trkpt>
      <trkpt lat="36.6764335632324" lon="-4.9963870048523">
        <ele>1871.16015625</ele>
        <time>2018-07-28T06:06:11Z</time>
      </trkpt>
      <trkpt lat="36.6764335632324" lon="-4.9963870048523">
        <ele>1871.16015625</ele>
        <time>2018-07-28T06:06:12Z</time>
      </trkpt>
      <trkpt lat="36.6764373779297" lon="-4.99638795852661">
        <ele>1871.06018066406</ele>
        <time>2018-07-28T06:06:13Z</time>
      </trkpt>
      <trkpt lat="36.6764450073242" lon="-4.99638986587524">
        <ele>1870.85974121094</ele>
        <time>2018-07-28T06:06:14Z</time>
      </trkpt>
      <trkpt lat="36.6764488220215" lon="-4.99639081954956">
        <ele>1870.75939941406</ele>
        <time>2018-07-28T06:06:15Z</time>
      </trkpt>
      <trkpt lat="36.6764526367188" lon="-4.99639177322388">
        <ele>1870.65881347656</ele>
        <time>2018-07-28T06:06:16Z</time>
      </trkpt>
      <trkpt lat="36.676456451416" lon="-4.99639320373535">
        <ele>1870.5498046875</ele>
        <time>2018-07-28T06:06:17Z</time>
      </trkpt>
      <trkpt lat="36.6764602661133" lon="-4.99639320373535">
        <ele>1870.46557617188</ele>
        <time>2018-07-28T06:06:18Z</time>
      </trkpt>
      <trkpt lat="36.6764678955078" lon="-4.99639415740967">
        <ele>1870.2802734375</ele>
        <time>2018-07-28T06:06:19Z</time>
      </trkpt>
      <trkpt lat="36.6764717102051" lon="-4.99639415740967">
        <ele>1870.19592285156</ele>
        <time>2018-07-28T06:06:20Z</time>
      </trkpt>
      <trkpt lat="36.6764793395996" lon="-4.99639320373535">
        <ele>1870.04431152344</ele>
        <time>2018-07-28T06:06:21Z</time>
      </trkpt>
      <trkpt lat="36.6764831542969" lon="-4.99639081954956">
        <ele>1870.00268554688</ele>
        <time>2018-07-28T06:06:22Z</time>
      </trkpt>
      <trkpt lat="36.6764907836914" lon="-4.99638891220093">
        <ele>1869.86901855469</ele>
        <time>2018-07-28T06:06:23Z</time>
      </trkpt>
      <trkpt lat="36.6764984130859" lon="-4.9963870048523">
        <ele>1869.73583984375</ele>
        <time>2018-07-28T06:06:24Z</time>
      </trkpt>
      <trkpt lat="36.6765022277832" lon="-4.99638414382935">
        <ele>1869.70446777344</ele>
        <time>2018-07-28T06:06:25Z</time>
      </trkpt>
      <trkpt lat="36.6765098571777" lon="-4.99637985229492">
        <ele>1869.61645507812</ele>
        <time>2018-07-28T06:06:26Z</time>
      </trkpt>
      <trkpt lat="36.676513671875" lon="-4.99637603759766">
        <ele>1869.60388183594</ele>
        <time>2018-07-28T06:06:27Z</time>
      </trkpt>
      <trkpt lat="36.6765174865723" lon="-4.99637222290039">
        <ele>1869.591796875</ele>
        <time>2018-07-28T06:06:28Z</time>
      </trkpt>
      <trkpt lat="36.6765213012695" lon="-4.9963698387146">
        <ele>1869.5537109375</ele>
        <time>2018-07-28T06:06:29Z</time>
      </trkpt>
      <trkpt lat="36.6765251159668" lon="-4.99636888504028">
        <ele>1869.48913574219</ele>
        <time>2018-07-28T06:06:30Z</time>
      </trkpt>
      <trkpt lat="36.6765289306641" lon="-4.99636888504028">
        <ele>1869.40673828125</ele>
        <time>2018-07-28T06:06:31Z</time>
      </trkpt>
      <trkpt lat="36.6765327453613" lon="-4.9963698387146">
        <ele>1869.30627441406</ele>
        <time>2018-07-28T06:06:32Z</time>
      </trkpt>
      <trkpt lat="36.6765365600586" lon="-4.9963698387146">
        <ele>1869.22387695312</ele>
        <time>2018-07-28T06:06:33Z</time>
      </trkpt>
      <trkpt lat="36.6765403747559" lon="-4.99637079238892">
        <ele>1869.12329101562</ele>
        <time>2018-07-28T06:06:34Z</time>
      </trkpt>
      <trkpt lat="36.6765441894531" lon="-4.99637079238892">
        <ele>1869.04064941406</ele>
        <time>2018-07-28T06:06:35Z</time>
      </trkpt>
      <trkpt lat="36.6765518188477" lon="-4.9963698387146">
        <ele>1868.89404296875</ele>
        <time>2018-07-28T06:06:36Z</time>
      </trkpt>
      <trkpt lat="36.6765594482422" lon="-4.99636888504028">
        <ele>1868.74768066406</ele>
        <time>2018-07-28T06:06:37Z</time>
      </trkpt>
      <trkpt lat="36.6765670776367" lon="-4.99636697769165">
        <ele>1868.62023925781</ele>
        <time>2018-07-28T06:06:38Z</time>
      </trkpt>
      <trkpt lat="36.676570892334" lon="-4.99636507034302">
        <ele>1868.57556152344</ele>
        <time>2018-07-28T06:06:39Z</time>
      </trkpt>
      <trkpt lat="36.6765747070312" lon="-4.99636220932007">
        <ele>1868.54992675781</ele>
        <time>2018-07-28T06:06:40Z</time>
      </trkpt>
      <trkpt lat="36.6765785217285" lon="-4.99635887145996">
        <ele>1868.5341796875</ele>
        <time>2018-07-28T06:06:41Z</time>
      </trkpt>
      <trkpt lat="36.676586151123" lon="-4.99635601043701">
        <ele>1868.42810058594</ele>
        <time>2018-07-28T06:06:42Z</time>
      </trkpt>
      <trkpt lat="36.6765937805176" lon="-4.99635314941406">
        <ele>1868.32299804688</ele>
        <time>2018-07-28T06:06:43Z</time>
      </trkpt>
      <trkpt lat="36.6765975952148" lon="-4.99634981155396">
        <ele>1868.30920410156</ele>
        <time>2018-07-28T06:06:44Z</time>
      </trkpt>
      <trkpt lat="36.6766052246094" lon="-4.99634504318237">
        <ele>1868.24450683594</ele>
        <time>2018-07-28T06:06:45Z</time>
      </trkpt>
      <trkpt lat="36.6766090393066" lon="-4.99633979797363">
        <ele>1868.27111816406</ele>
        <time>2018-07-28T06:06:46Z</time>
      </trkpt>
      <trkpt lat="36.6766166687012" lon="-4.99633502960205">
        <ele>1868.208984375</ele>
        <time>2018-07-28T06:06:47Z</time>
      </trkpt>
      <trkpt lat="36.6766204833984" lon="-4.99633121490478">
        <ele>1868.20812988281</ele>
        <time>2018-07-28T06:06:48Z</time>
      </trkpt>
      <trkpt lat="36.6766242980957" lon="-4.99632596969604">
        <ele>1868.23742675781</ele>
        <time>2018-07-28T06:06:49Z</time>
      </trkpt>
      <trkpt lat="36.6766357421875" lon="-4.99632215499878">
        <ele>1868.08020019531</ele>
        <time>2018-07-28T06:06:50Z</time>
      </trkpt>
      <trkpt lat="36.676643371582" lon="-4.99631881713867">
        <ele>1867.9931640625</ele>
        <time>2018-07-28T06:06:51Z</time>
      </trkpt>
      <trkpt lat="36.6766548156738" lon="-4.99631690979004">
        <ele>1867.79821777344</ele>
        <time>2018-07-28T06:06:52Z</time>
      </trkpt>
      <trkpt lat="36.6766586303711" lon="-4.99631404876709">
        <ele>1867.78125</ele>
        <time>2018-07-28T06:06:53Z</time>
      </trkpt>
      <trkpt lat="36.6766624450684" lon="-4.99631309509277">
        <ele>1867.72351074219</ele>
        <time>2018-07-28T06:06:54Z</time>
      </trkpt>
      <trkpt lat="36.6766662597656" lon="-4.99631214141846">
        <ele>1867.666015625</ele>
        <time>2018-07-28T06:06:55Z</time>
      </trkpt>
      <trkpt lat="36.6766738891602" lon="-4.99631214141846">
        <ele>1867.50134277344</ele>
        <time>2018-07-28T06:06:56Z</time>
      </trkpt>
      <trkpt lat="36.6766777038574" lon="-4.99631023406982">
        <ele>1867.46032714844</ele>
        <time>2018-07-28T06:06:57Z</time>
      </trkpt>
      <trkpt lat="36.6766815185547" lon="-4.99630880355835">
        <ele>1867.40930175781</ele>
        <time>2018-07-28T06:06:58Z</time>
      </trkpt>
      <trkpt lat="36.6766891479492" lon="-4.99630498886108">
        <ele>1867.32873535156</ele>
        <time>2018-07-28T06:06:59Z</time>
      </trkpt>
      <trkpt lat="36.6766967773438" lon="-4.99630212783814">
        <ele>1867.22814941406</ele>
        <time>2018-07-28T06:07:00Z</time>
      </trkpt>
      <trkpt lat="36.6767044067383" lon="-4.99629592895508">
        <ele>1867.203125</ele>
        <time>2018-07-28T06:07:01Z</time>
      </trkpt>
      <trkpt lat="36.6767082214356" lon="-4.99629020690918">
        <ele>1867.25012207031</ele>
        <time>2018-07-28T06:07:02Z</time>
      </trkpt>
      <trkpt lat="36.6767196655273" lon="-4.99628400802612">
        <ele>1867.14794921875</ele>
        <time>2018-07-28T06:07:03Z</time>
      </trkpt>
      <trkpt lat="36.6767234802246" lon="-4.99627780914307">
        <ele>1867.20849609375</ele>
        <time>2018-07-28T06:07:04Z</time>
      </trkpt>
      <trkpt lat="36.6767311096191" lon="-4.99627494812012">
        <ele>1867.11401367188</ele>
        <time>2018-07-28T06:07:05Z</time>
      </trkpt>
      <trkpt lat="36.6767387390137" lon="-4.9962739944458">
        <ele>1866.9765625</ele>
        <time>2018-07-28T06:07:06Z</time>
      </trkpt>
      <trkpt lat="36.6767425537109" lon="-4.99627113342285">
        <ele>1866.96313476562</ele>
        <time>2018-07-28T06:07:07Z</time>
      </trkpt>
      <trkpt lat="36.6767463684082" lon="-4.99626922607422">
        <ele>1866.92785644531</ele>
        <time>2018-07-28T06:07:08Z</time>
      </trkpt>
      <trkpt lat="36.6767501831055" lon="-4.99626588821411">
        <ele>1866.92626953125</ele>
        <time>2018-07-28T06:07:09Z</time>
      </trkpt>
      <trkpt lat="36.6767539978027" lon="-4.9962649345398">
        <ele>1866.86950683594</ele>
        <time>2018-07-28T06:07:10Z</time>
      </trkpt>
      <trkpt lat="36.6767578125" lon="-4.99626302719116">
        <ele>1866.83532714844</ele>
        <time>2018-07-28T06:07:11Z</time>
      </trkpt>
      <trkpt lat="36.6767616271973" lon="-4.99626207351685">
        <ele>1866.77893066406</ele>
        <time>2018-07-28T06:07:12Z</time>
      </trkpt>
      <trkpt lat="36.6767654418945" lon="-4.99626207351685">
        <ele>1866.7001953125</ele>
        <time>2018-07-28T06:07:13Z</time>
      </trkpt>
      <trkpt lat="36.6767692565918" lon="-4.99626207351685">
        <ele>1866.62145996094</ele>
        <time>2018-07-28T06:07:14Z</time>
      </trkpt>
      <trkpt lat="36.6767768859863" lon="-4.99626111984253">
        <ele>1866.48657226562</ele>
        <time>2018-07-28T06:07:15Z</time>
      </trkpt>
      <trkpt lat="36.6767845153809" lon="-4.99626111984253">
        <ele>1866.32922363281</ele>
        <time>2018-07-28T06:07:16Z</time>
      </trkpt>
      <trkpt lat="36.6767921447754" lon="-4.9962592124939">
        <ele>1866.21789550781</ele>
        <time>2018-07-28T06:07:17Z</time>
      </trkpt>
      <trkpt lat="36.6767997741699" lon="-4.99625492095947">
        <ele>1866.16516113281</ele>
        <time>2018-07-28T06:07:18Z</time>
      </trkpt>
      <trkpt lat="36.6768074035644" lon="-4.99624919891357">
        <ele>1866.14855957031</ele>
        <time>2018-07-28T06:07:19Z</time>
      </trkpt>
      <trkpt lat="36.6768112182617" lon="-4.9962420463562">
        <ele>1866.24609375</ele>
        <time>2018-07-28T06:07:20Z</time>
      </trkpt>
      <trkpt lat="36.6768188476562" lon="-4.99623489379883">
        <ele>1866.26818847656</ele>
        <time>2018-07-28T06:07:21Z</time>
      </trkpt>
      <trkpt lat="36.6768264770508" lon="-4.99622583389282">
        <ele>1866.33972167969</ele>
        <time>2018-07-28T06:07:22Z</time>
      </trkpt>
      <trkpt lat="36.6768341064453" lon="-4.9962158203125">
        <ele>1866.43786621094</ele>
        <time>2018-07-28T06:07:23Z</time>
      </trkpt>
      <trkpt lat="36.6768417358398" lon="-4.99620580673218">
        <ele>1866.53918457031</ele>
        <time>2018-07-28T06:07:24Z</time>
      </trkpt>
      <trkpt lat="36.6768493652344" lon="-4.99619722366333">
        <ele>1866.60729980469</ele>
        <time>2018-07-28T06:07:25Z</time>
      </trkpt>
      <trkpt lat="36.6768531799316" lon="-4.99618911743164">
        <ele>1866.73913574219</ele>
        <time>2018-07-28T06:07:26Z</time>
      </trkpt>
      <trkpt lat="36.6768569946289" lon="-4.99618005752564">
        <ele>1866.896484375</ele>
        <time>2018-07-28T06:07:27Z</time>
      </trkpt>
      <trkpt lat="36.6768608093262" lon="-4.99617099761963">
        <ele>1867.05517578125</ele>
        <time>2018-07-28T06:07:28Z</time>
      </trkpt>
      <trkpt lat="36.6768646240234" lon="-4.99616289138794">
        <ele>1867.19079589844</ele>
        <time>2018-07-28T06:07:29Z</time>
      </trkpt>
      <trkpt lat="36.6768684387207" lon="-4.99615478515625">
        <ele>1867.32775878906</ele>
        <time>2018-07-28T06:07:30Z</time>
      </trkpt>
      <trkpt lat="36.676872253418" lon="-4.99614906311035">
        <ele>1867.40466308594</ele>
        <time>2018-07-28T06:07:31Z</time>
      </trkpt>
      <trkpt lat="36.6768760681152" lon="-4.9961428642273">
        <ele>1867.49462890625</ele>
        <time>2018-07-28T06:07:32Z</time>
      </trkpt>
      <trkpt lat="36.6768798828125" lon="-4.9961371421814">
        <ele>1867.5732421875</ele>
        <time>2018-07-28T06:07:33Z</time>
      </trkpt>
      <trkpt lat="36.6768836975098" lon="-4.99613285064697">
        <ele>1867.61560058594</ele>
        <time>2018-07-28T06:07:34Z</time>
      </trkpt>
      <trkpt lat="36.676887512207" lon="-4.99612998962402">
        <ele>1867.62133789062</ele>
        <time>2018-07-28T06:07:35Z</time>
      </trkpt>
      <trkpt lat="36.6768913269043" lon="-4.99612808227539">
        <ele>1867.6025390625</ele>
        <time>2018-07-28T06:07:36Z</time>
      </trkpt>
      <trkpt lat="36.6768951416016" lon="-4.99612617492676">
        <ele>1867.58410644531</ele>
        <time>2018-07-28T06:07:37Z</time>
      </trkpt>
      <trkpt lat="36.6769027709961" lon="-4.99612522125244">
        <ele>1867.47265625</ele>
        <time>2018-07-28T06:07:38Z</time>
      </trkpt>
      <trkpt lat="36.6769065856934" lon="-4.99612379074097">
        <ele>1867.44226074219</ele>
        <time>2018-07-28T06:07:39Z</time>
      </trkpt>
      <trkpt lat="36.6769142150879" lon="-4.99612379074097">
        <ele>1867.30603027344</ele>
        <time>2018-07-28T06:07:40Z</time>
      </trkpt>
      <trkpt lat="36.6769180297852" lon="-4.99612379074097">
        <ele>1867.23791503906</ele>
        <time>2018-07-28T06:07:41Z</time>
      </trkpt>
      <trkpt lat="36.6769218444824" lon="-4.99612379074097">
        <ele>1867.16979980469</ele>
        <time>2018-07-28T06:07:42Z</time>
      </trkpt>
      <trkpt lat="36.6769218444824" lon="-4.99612379074097">
        <ele>1867.16979980469</ele>
        <time>2018-07-28T06:07:43Z</time>
      </trkpt>
      <trkpt lat="36.6769256591797" lon="-4.99612379074097">
        <ele>1867.10168457031</ele>
        <time>2018-07-28T06:07:44Z</time>
      </trkpt>
      <trkpt lat="36.676929473877" lon="-4.99612379074097">
        <ele>1867.03356933594</ele>
        <time>2018-07-28T06:07:45Z</time>
      </trkpt>
      <trkpt lat="36.6769371032715" lon="-4.99612283706665">
        <ele>1866.92309570312</ele>
        <time>2018-07-28T06:07:46Z</time>
      </trkpt>
      <trkpt lat="36.676944732666" lon="-4.9961199760437">
        <ele>1866.86486816406</ele>
        <time>2018-07-28T06:07:47Z</time>
      </trkpt>
      <trkpt lat="36.6769485473633" lon="-4.99611616134644">
        <ele>1866.90112304688</ele>
        <time>2018-07-28T06:07:48Z</time>
      </trkpt>
      <trkpt lat="36.6769561767578" lon="-4.99611282348633">
        <ele>1866.85766601562</ele>
        <time>2018-07-28T06:07:49Z</time>
      </trkpt>
      <trkpt lat="36.6769638061523" lon="-4.99610996246338">
        <ele>1866.80200195312</ele>
        <time>2018-07-28T06:07:50Z</time>
      </trkpt>
      <trkpt lat="36.6769676208496" lon="-4.99610710144043">
        <ele>1866.81408691406</ele>
        <time>2018-07-28T06:07:51Z</time>
      </trkpt>
      <trkpt lat="36.6769714355469" lon="-4.9961051940918">
        <ele>1866.80017089844</ele>
        <time>2018-07-28T06:07:52Z</time>
      </trkpt>
      <trkpt lat="36.6769752502441" lon="-4.99610376358032">
        <ele>1866.77331542969</ele>
        <time>2018-07-28T06:07:53Z</time>
      </trkpt>
      <trkpt lat="36.6769752502441" lon="-4.99610376358032">
        <ele>1866.77331542969</ele>
        <time>2018-07-28T06:07:54Z</time>
      </trkpt>
      <trkpt lat="36.6769752502441" lon="-4.99610376358032">
        <ele>1866.77331542969</ele>
        <time>2018-07-28T06:07:55Z</time>
      </trkpt>
      <trkpt lat="36.6769752502441" lon="-4.99610376358032">
        <ele>1866.77331542969</ele>
        <time>2018-07-28T06:07:56Z</time>
      </trkpt>
      <trkpt lat="36.6769752502441" lon="-4.9961051940918">
        <ele>1866.73352050781</ele>
        <time>2018-07-28T06:07:57Z</time>
      </trkpt>
      <trkpt lat="36.6769790649414" lon="-4.9961051940918">
        <ele>1866.66687011719</ele>
        <time>2018-07-28T06:07:58Z</time>
      </trkpt>
      <trkpt lat="36.6769790649414" lon="-4.99610614776611">
        <ele>1866.64025878906</ele>
        <time>2018-07-28T06:07:59Z</time>
      </trkpt>
      <trkpt lat="36.6769828796387" lon="-4.99610805511475">
        <ele>1866.52014160156</ele>
        <time>2018-07-28T06:08:00Z</time>
      </trkpt>
      <trkpt lat="36.6769828796387" lon="-4.99610996246338">
        <ele>1866.466796875</ele>
        <time>2018-07-28T06:08:01Z</time>
      </trkpt>
      <trkpt lat="36.6769866943359" lon="-4.99611186981201">
        <ele>1866.34619140625</ele>
        <time>2018-07-28T06:08:02Z</time>
      </trkpt>
      <trkpt lat="36.6769905090332" lon="-4.99611282348633">
        <ele>1866.25219726562</ele>
        <time>2018-07-28T06:08:03Z</time>
      </trkpt>
      <trkpt lat="36.6769981384277" lon="-4.99611377716064">
        <ele>1866.09069824219</ele>
        <time>2018-07-28T06:08:04Z</time>
      </trkpt>
      <trkpt lat="36.677001953125" lon="-4.99611616134644">
        <ele>1865.95568847656</ele>
        <time>2018-07-28T06:08:05Z</time>
      </trkpt>
      <trkpt lat="36.6770057678223" lon="-4.99611616134644">
        <ele>1865.88818359375</ele>
        <time>2018-07-28T06:08:06Z</time>
      </trkpt>
      <trkpt lat="36.6770095825195" lon="-4.99611520767212">
        <ele>1865.84790039062</ele>
        <time>2018-07-28T06:08:07Z</time>
      </trkpt>
      <trkpt lat="36.6770133972168" lon="-4.99611282348633">
        <ele>1865.8486328125</ele>
        <time>2018-07-28T06:08:08Z</time>
      </trkpt>
      <trkpt lat="36.6770133972168" lon="-4.99611282348633">
        <ele>1865.8486328125</ele>
        <time>2018-07-28T06:08:09Z</time>
      </trkpt>
      <trkpt lat="36.6770172119141" lon="-4.99611282348633">
        <ele>1865.78137207031</ele>
        <time>2018-07-28T06:08:10Z</time>
      </trkpt>
      <trkpt lat="36.6770210266113" lon="-4.99611186981201">
        <ele>1865.74145507812</ele>
        <time>2018-07-28T06:08:11Z</time>
      </trkpt>
      <trkpt lat="36.6770248413086" lon="-4.99610900878906">
        <ele>1865.75671386719</ele>
        <time>2018-07-28T06:08:12Z</time>
      </trkpt>
      <trkpt lat="36.6770324707031" lon="-4.9961051940918">
        <ele>1865.73327636719</ele>
        <time>2018-07-28T06:08:13Z</time>
      </trkpt>
      <trkpt lat="36.6770362854004" lon="-4.99610185623169">
        <ele>1865.76354980469</ele>
        <time>2018-07-28T06:08:14Z</time>
      </trkpt>
      <trkpt lat="36.6770362854004" lon="-4.99610185623169">
        <ele>1865.76354980469</ele>
        <time>2018-07-28T06:08:15Z</time>
      </trkpt>
      <trkpt lat="36.6770362854004" lon="-4.99610185623169">
        <ele>1865.76354980469</ele>
        <time>2018-07-28T06:08:16Z</time>
      </trkpt>
      <trkpt lat="36.6770324707031" lon="-4.99610185623169">
        <ele>1865.82995605469</ele>
        <time>2018-07-28T06:08:17Z</time>
      </trkpt>
      <trkpt lat="36.6770362854004" lon="-4.99610185623169">
        <ele>1865.76354980469</ele>
        <time>2018-07-28T06:08:18Z</time>
      </trkpt>
      <trkpt lat="36.6770362854004" lon="-4.99610185623169">
        <ele>1865.76354980469</ele>
        <time>2018-07-28T06:08:19Z</time>
      </trkpt>
      <trkpt lat="36.6770362854004" lon="-4.99610280990601">
        <ele>1865.73583984375</ele>
        <time>2018-07-28T06:08:20Z</time>
      </trkpt>
      <trkpt lat="36.6770401000977" lon="-4.99610710144043">
        <ele>1865.54431152344</ele>
        <time>2018-07-28T06:08:21Z</time>
      </trkpt>
      <trkpt lat="36.6770477294922" lon="-4.99610996246338">
        <ele>1865.32690429688</ele>
        <time>2018-07-28T06:08:22Z</time>
      </trkpt>
      <trkpt lat="36.6770515441894" lon="-4.9961109161377">
        <ele>1865.23193359375</ele>
        <time>2018-07-28T06:08:23Z</time>
      </trkpt>
      <trkpt lat="36.6770515441894" lon="-4.9961109161377">
        <ele>1865.23193359375</ele>
        <time>2018-07-28T06:08:24Z</time>
      </trkpt>
      <trkpt lat="36.6770515441894" lon="-4.9961109161377">
        <ele>1865.23193359375</ele>
        <time>2018-07-28T06:08:25Z</time>
      </trkpt>
      <trkpt lat="36.6770515441894" lon="-4.99611186981201">
        <ele>1865.20385742188</ele>
        <time>2018-07-28T06:08:26Z</time>
      </trkpt>
      <trkpt lat="36.6770515441894" lon="-4.99611186981201">
        <ele>1865.20385742188</ele>
        <time>2018-07-28T06:08:27Z</time>
      </trkpt>
      <trkpt lat="36.6770553588867" lon="-4.9961109161377">
        <ele>1865.16479492188</ele>
        <time>2018-07-28T06:08:28Z</time>
      </trkpt>
      <trkpt lat="36.6770553588867" lon="-4.99610996246338">
        <ele>1865.19287109375</ele>
        <time>2018-07-28T06:08:29Z</time>
      </trkpt>
      <trkpt lat="36.6770553588867" lon="-4.99610996246338">
        <ele>1865.19287109375</ele>
        <time>2018-07-28T06:08:30Z</time>
      </trkpt>
      <trkpt lat="36.677059173584" lon="-4.99611186981201">
        <ele>1865.06945800781</ele>
        <time>2018-07-28T06:08:31Z</time>
      </trkpt>
      <trkpt lat="36.677059173584" lon="-4.99611520767212">
        <ele>1864.97094726562</ele>
        <time>2018-07-28T06:08:32Z</time>
      </trkpt>
      <trkpt lat="36.6770668029785" lon="-4.99611520767212">
        <ele>1864.83605957031</ele>
        <time>2018-07-28T06:08:33Z</time>
      </trkpt>
      <trkpt lat="36.677074432373" lon="-4.99611282348633">
        <ele>1864.77221679688</ele>
        <time>2018-07-28T06:08:34Z</time>
      </trkpt>
      <trkpt lat="36.6770782470703" lon="-4.99610805511475">
        <ele>1864.84753417969</ele>
        <time>2018-07-28T06:08:35Z</time>
      </trkpt>
      <trkpt lat="36.6770820617676" lon="-4.99610614776611">
        <ele>1864.83776855469</ele>
        <time>2018-07-28T06:08:36Z</time>
      </trkpt>
      <trkpt lat="36.6770858764648" lon="-4.9961051940918">
        <ele>1864.79968261719</ele>
        <time>2018-07-28T06:08:37Z</time>
      </trkpt>
      <trkpt lat="36.6770858764648" lon="-4.99610376358032">
        <ele>1864.84265136719</ele>
        <time>2018-07-28T06:08:38Z</time>
      </trkpt>
      <trkpt lat="36.6770896911621" lon="-4.9961051940918">
        <ele>1864.73303222656</ele>
        <time>2018-07-28T06:08:39Z</time>
      </trkpt>
      <trkpt lat="36.6770896911621" lon="-4.9961051940918">
        <ele>1864.73303222656</ele>
        <time>2018-07-28T06:08:40Z</time>
      </trkpt>
      <trkpt lat="36.6770896911621" lon="-4.99610614776611">
        <ele>1864.70434570312</ele>
        <time>2018-07-28T06:08:41Z</time>
      </trkpt>
      <trkpt lat="36.6770896911621" lon="-4.99610614776611">
        <ele>1864.70434570312</ele>
        <time>2018-07-28T06:08:42Z</time>
      </trkpt>
      <trkpt lat="36.6770896911621" lon="-4.99610710144043">
        <ele>1864.67553710938</ele>
        <time>2018-07-28T06:08:43Z</time>
      </trkpt>
      <trkpt lat="36.6770896911621" lon="-4.99610805511475">
        <ele>1864.64685058594</ele>
        <time>2018-07-28T06:08:44Z</time>
      </trkpt>
      <trkpt lat="36.6770896911621" lon="-4.99610900878906">
        <ele>1864.6181640625</ele>
        <time>2018-07-28T06:08:45Z</time>
      </trkpt>
      <trkpt lat="36.6770935058594" lon="-4.99610996246338">
        <ele>1864.52233886719</ele>
        <time>2018-07-28T06:08:46Z</time>
      </trkpt>
      <trkpt lat="36.6770973205566" lon="-4.99610996246338">
        <ele>1864.45532226562</ele>
        <time>2018-07-28T06:08:47Z</time>
      </trkpt>
      <trkpt lat="36.6771011352539" lon="-4.99610996246338">
        <ele>1864.38818359375</ele>
        <time>2018-07-28T06:08:48Z</time>
      </trkpt>
      <trkpt lat="36.6771049499512" lon="-4.99610996246338">
        <ele>1864.32116699219</ele>
        <time>2018-07-28T06:08:49Z</time>
      </trkpt>
      <trkpt lat="36.6771049499512" lon="-4.99610900878906">
        <ele>1864.35021972656</ele>
        <time>2018-07-28T06:08:50Z</time>
      </trkpt>
      <trkpt lat="36.6771049499512" lon="-4.99610996246338">
        <ele>1864.32116699219</ele>
        <time>2018-07-28T06:08:51Z</time>
      </trkpt>
      <trkpt lat="36.6771087646484" lon="-4.99611186981201">
        <ele>1864.19592285156</ele>
        <time>2018-07-28T06:08:52Z</time>
      </trkpt>
      <trkpt lat="36.6771087646484" lon="-4.99611282348633">
        <ele>1864.16687011719</ele>
        <time>2018-07-28T06:08:53Z</time>
      </trkpt>
      <trkpt lat="36.6771087646484" lon="-4.99611520767212">
        <ele>1864.09411621094</ele>
        <time>2018-07-28T06:08:54Z</time>
      </trkpt>
      <trkpt lat="36.6771087646484" lon="-4.99611520767212">
        <ele>1864.09411621094</ele>
        <time>2018-07-28T06:08:55Z</time>
      </trkpt>
      <trkpt lat="36.6771087646484" lon="-4.99611520767212">
        <ele>1864.09411621094</ele>
        <time>2018-07-28T06:08:56Z</time>
      </trkpt>
      <trkpt lat="36.6771049499512" lon="-4.99611520767212">
        <ele>1864.16149902344</ele>
        <time>2018-07-28T06:08:57Z</time>
      </trkpt>
      <trkpt lat="36.6771087646484" lon="-4.99611377716064">
        <ele>1864.1376953125</ele>
        <time>2018-07-28T06:08:58Z</time>
      </trkpt>
      <trkpt lat="36.6771087646484" lon="-4.99611520767212">
        <ele>1864.09411621094</ele>
        <time>2018-07-28T06:08:59Z</time>
      </trkpt>
      <trkpt lat="36.6771125793457" lon="-4.99611616134644">
        <ele>1863.99743652344</ele>
        <time>2018-07-28T06:09:00Z</time>
      </trkpt>
      <trkpt lat="36.6771125793457" lon="-4.99611616134644">
        <ele>1863.99743652344</ele>
        <time>2018-07-28T06:09:01Z</time>
      </trkpt>
      <trkpt lat="36.6771125793457" lon="-4.99611377716064">
        <ele>1864.07043457031</ele>
        <time>2018-07-28T06:09:02Z</time>
      </trkpt>
      <trkpt lat="36.677116394043" lon="-4.99611186981201">
        <ele>1864.0615234375</ele>
        <time>2018-07-28T06:09:03Z</time>
      </trkpt>
      <trkpt lat="36.677116394043" lon="-4.99610996246338">
        <ele>1864.11999511719</ele>
        <time>2018-07-28T06:09:04Z</time>
      </trkpt>
      <trkpt lat="36.677116394043" lon="-4.99610996246338">
        <ele>1864.11999511719</ele>
        <time>2018-07-28T06:09:05Z</time>
      </trkpt>
      <trkpt lat="36.6771202087402" lon="-4.99610900878906">
        <ele>1864.08227539062</ele>
        <time>2018-07-28T06:09:06Z</time>
      </trkpt>
      <trkpt lat="36.677116394043" lon="-4.99610900878906">
        <ele>1864.14929199219</ele>
        <time>2018-07-28T06:09:07Z</time>
      </trkpt>
      <trkpt lat="36.677116394043" lon="-4.99610900878906">
        <ele>1864.14929199219</ele>
        <time>2018-07-28T06:09:08Z</time>
      </trkpt>
      <trkpt lat="36.677116394043" lon="-4.99610996246338">
        <ele>1864.11999511719</ele>
        <time>2018-07-28T06:09:09Z</time>
      </trkpt>
      <trkpt lat="36.677116394043" lon="-4.9961109161377">
        <ele>1864.0908203125</ele>
        <time>2018-07-28T06:09:10Z</time>
      </trkpt>
      <trkpt lat="36.677116394043" lon="-4.99611186981201">
        <ele>1864.0615234375</ele>
        <time>2018-07-28T06:09:11Z</time>
      </trkpt>
      <trkpt lat="36.6771202087402" lon="-4.99611186981201">
        <ele>1863.99438476562</ele>
        <time>2018-07-28T06:09:12Z</time>
      </trkpt>
      <trkpt lat="36.6771202087402" lon="-4.99611186981201">
        <ele>1863.99438476562</ele>
        <time>2018-07-28T06:09:13Z</time>
      </trkpt>
      <trkpt lat="36.6771240234375" lon="-4.99611186981201">
        <ele>1863.92712402344</ele>
        <time>2018-07-28T06:09:14Z</time>
      </trkpt>
      <trkpt lat="36.6771278381348" lon="-4.99611186981201">
        <ele>1863.85998535156</ele>
        <time>2018-07-28T06:09:15Z</time>
      </trkpt>
      <trkpt lat="36.6771354675293" lon="-4.99611186981201">
        <ele>1863.7255859375</ele>
        <time>2018-07-28T06:09:16Z</time>
      </trkpt>
      <trkpt lat="36.6771469116211" lon="-4.99611186981201">
        <ele>1863.52392578125</ele>
        <time>2018-07-28T06:09:17Z</time>
      </trkpt>
      <trkpt lat="36.6771583557129" lon="-4.99611186981201">
        <ele>1863.32238769531</ele>
        <time>2018-07-28T06:09:18Z</time>
      </trkpt>
      <trkpt lat="36.6771697998047" lon="-4.99610900878906">
        <ele>1863.21154785156</ele>
        <time>2018-07-28T06:09:19Z</time>
      </trkpt>
      <trkpt lat="36.677173614502" lon="-4.99610710144043">
        <ele>1863.20532226562</ele>
        <time>2018-07-28T06:09:20Z</time>
      </trkpt>
      <trkpt lat="36.677173614502" lon="-4.99610614776611">
        <ele>1863.23559570312</ele>
        <time>2018-07-28T06:09:21Z</time>
      </trkpt>
      <trkpt lat="36.677173614502" lon="-4.9961051940918">
        <ele>1863.26599121094</ele>
        <time>2018-07-28T06:09:22Z</time>
      </trkpt>
      <trkpt lat="36.6771774291992" lon="-4.9961051940918">
        <ele>1863.19934082031</ele>
        <time>2018-07-28T06:09:23Z</time>
      </trkpt>
      <trkpt lat="36.6771774291992" lon="-4.9961051940918">
        <ele>1863.19934082031</ele>
        <time>2018-07-28T06:09:24Z</time>
      </trkpt>
      <trkpt lat="36.6771812438965" lon="-4.9961051940918">
        <ele>1863.13269042969</ele>
        <time>2018-07-28T06:09:25Z</time>
      </trkpt>
      <trkpt lat="36.6771850585938" lon="-4.99610376358032">
        <ele>1863.11181640625</ele>
        <time>2018-07-28T06:09:26Z</time>
      </trkpt>
      <trkpt lat="36.677188873291" lon="-4.99610376358032">
        <ele>1863.04516601562</ele>
        <time>2018-07-28T06:09:27Z</time>
      </trkpt>
      <trkpt lat="36.677188873291" lon="-4.9961051940918">
        <ele>1862.99926757812</ele>
        <time>2018-07-28T06:09:28Z</time>
      </trkpt>
      <trkpt lat="36.6771926879883" lon="-4.99610710144043">
        <ele>1862.87109375</ele>
        <time>2018-07-28T06:09:29Z</time>
      </trkpt>
      <trkpt lat="36.6772003173828" lon="-4.99610805511475">
        <ele>1862.70666503906</ele>
        <time>2018-07-28T06:09:30Z</time>
      </trkpt>
      <trkpt lat="36.6772079467773" lon="-4.99610996246338">
        <ele>1862.51086425781</ele>
        <time>2018-07-28T06:09:31Z</time>
      </trkpt>
      <trkpt lat="36.6772117614746" lon="-4.99610996246338">
        <ele>1862.44372558594</ele>
        <time>2018-07-28T06:09:32Z</time>
      </trkpt>
      <trkpt lat="36.6772155761719" lon="-4.99610996246338">
        <ele>1862.37670898438</ele>
        <time>2018-07-28T06:09:33Z</time>
      </trkpt>
      <trkpt lat="36.6772232055664" lon="-4.99610900878906">
        <ele>1862.27392578125</ele>
        <time>2018-07-28T06:09:34Z</time>
      </trkpt>
      <trkpt lat="36.6772270202637" lon="-4.99610900878906">
        <ele>1862.20690917969</ele>
        <time>2018-07-28T06:09:35Z</time>
      </trkpt>
      <trkpt lat="36.6772346496582" lon="-4.99610996246338">
        <ele>1862.04150390625</ele>
        <time>2018-07-28T06:09:36Z</time>
      </trkpt>
      <trkpt lat="36.6772384643555" lon="-4.9961109161377">
        <ele>1861.94287109375</ele>
        <time>2018-07-28T06:09:37Z</time>
      </trkpt>
      <trkpt lat="36.6772422790527" lon="-4.99611282348633">
        <ele>1861.81237792969</ele>
        <time>2018-07-28T06:09:38Z</time>
      </trkpt>
      <trkpt lat="36.6772499084473" lon="-4.99611377716064">
        <ele>1861.64599609375</ele>
        <time>2018-07-28T06:09:39Z</time>
      </trkpt>
      <trkpt lat="36.6772537231445" lon="-4.9961109161377">
        <ele>1861.67431640625</ele>
        <time>2018-07-28T06:09:40Z</time>
      </trkpt>
      <trkpt lat="36.6772613525391" lon="-4.99610710144043">
        <ele>1861.66821289062</ele>
        <time>2018-07-28T06:09:41Z</time>
      </trkpt>
      <trkpt lat="36.6772651672363" lon="-4.99610185623169">
        <ele>1861.77795410156</ele>
        <time>2018-07-28T06:09:42Z</time>
      </trkpt>
      <trkpt lat="36.6772727966309" lon="-4.99609613418579">
        <ele>1861.83862304688</ele>
        <time>2018-07-28T06:09:43Z</time>
      </trkpt>
      <trkpt lat="36.6772766113281" lon="-4.99608993530273">
        <ele>1861.98278808594</ele>
        <time>2018-07-28T06:09:44Z</time>
      </trkpt>
      <trkpt lat="36.6772842407227" lon="-4.99608612060547">
        <ele>1861.98168945312</ele>
        <time>2018-07-28T06:09:45Z</time>
      </trkpt>
      <trkpt lat="36.6772842407227" lon="-4.99608182907104">
        <ele>1862.12780761719</ele>
        <time>2018-07-28T06:09:46Z</time>
      </trkpt>
      <trkpt lat="36.6772880554199" lon="-4.99607992172241">
        <ele>1862.1279296875</ele>
        <time>2018-07-28T06:09:47Z</time>
      </trkpt>
      <trkpt lat="36.6772918701172" lon="-4.9960789680481">
        <ele>1862.09582519531</ele>
        <time>2018-07-28T06:09:48Z</time>
      </trkpt>
      <trkpt lat="36.6772918701172" lon="-4.99608087539673">
        <ele>1862.03063964844</ele>
        <time>2018-07-28T06:09:49Z</time>
      </trkpt>
      <trkpt lat="36.6772956848144" lon="-4.99608278274536">
        <ele>1861.900390625</ele>
        <time>2018-07-28T06:09:50Z</time>
      </trkpt>
      <trkpt lat="36.677303314209" lon="-4.99608516693115">
        <ele>1861.68835449219</ele>
        <time>2018-07-28T06:09:51Z</time>
      </trkpt>
      <trkpt lat="36.6773071289062" lon="-4.99608707427978">
        <ele>1861.55737304688</ele>
        <time>2018-07-28T06:09:52Z</time>
      </trkpt>
      <trkpt lat="36.6773147583008" lon="-4.99608707427978">
        <ele>1861.42687988281</ele>
        <time>2018-07-28T06:09:53Z</time>
      </trkpt>
      <trkpt lat="36.677318572998" lon="-4.99608612060547">
        <ele>1861.39465332031</ele>
        <time>2018-07-28T06:09:54Z</time>
      </trkpt>
      <trkpt lat="36.6773223876953" lon="-4.99608516693115">
        <ele>1861.36267089844</ele>
        <time>2018-07-28T06:09:55Z</time>
      </trkpt>
      <trkpt lat="36.6773262023926" lon="-4.99608278274536">
        <ele>1861.38073730469</ele>
        <time>2018-07-28T06:09:56Z</time>
      </trkpt>
      <trkpt lat="36.6773338317871" lon="-4.99608087539673">
        <ele>1861.31762695312</ele>
        <time>2018-07-28T06:09:57Z</time>
      </trkpt>
      <trkpt lat="36.6773376464844" lon="-4.99607992172241">
        <ele>1861.28637695312</ele>
        <time>2018-07-28T06:09:58Z</time>
      </trkpt>
      <trkpt lat="36.6773414611816" lon="-4.9960789680481">
        <ele>1861.25512695312</ele>
        <time>2018-07-28T06:09:59Z</time>
      </trkpt>
      <trkpt lat="36.6773490905762" lon="-4.99607992172241">
        <ele>1861.09216308594</ele>
        <time>2018-07-28T06:10:00Z</time>
      </trkpt>
      <trkpt lat="36.6773567199707" lon="-4.99607992172241">
        <ele>1860.96264648438</ele>
        <time>2018-07-28T06:10:01Z</time>
      </trkpt>
      <trkpt lat="36.6773643493652" lon="-4.99607992172241">
        <ele>1860.83312988281</ele>
        <time>2018-07-28T06:10:02Z</time>
      </trkpt>
      <trkpt lat="36.6773681640625" lon="-4.99607801437378">
        <ele>1860.83654785156</ele>
        <time>2018-07-28T06:10:03Z</time>
      </trkpt>
      <trkpt lat="36.677375793457" lon="-4.99607706069946">
        <ele>1860.74169921875</ele>
        <time>2018-07-28T06:10:04Z</time>
      </trkpt>
      <trkpt lat="36.6773834228516" lon="-4.99607706069946">
        <ele>1860.61254882812</ele>
        <time>2018-07-28T06:10:05Z</time>
      </trkpt>
      <trkpt lat="36.6773910522461" lon="-4.99607801437378">
        <ele>1860.44897460938</ele>
        <time>2018-07-28T06:10:06Z</time>
      </trkpt>
      <trkpt lat="36.6773986816406" lon="-4.9960789680481">
        <ele>1860.28515625</ele>
        <time>2018-07-28T06:10:07Z</time>
      </trkpt>
      <trkpt lat="36.6774024963379" lon="-4.99607801437378">
        <ele>1860.25524902344</ele>
        <time>2018-07-28T06:10:08Z</time>
      </trkpt>
      <trkpt lat="36.6774063110352" lon="-4.99607706069946">
        <ele>1860.22546386719</ele>
        <time>2018-07-28T06:10:09Z</time>
      </trkpt>
      <trkpt lat="36.677417755127" lon="-4.99607419967651">
        <ele>1860.13708496094</ele>
        <time>2018-07-28T06:10:10Z</time>
      </trkpt>
      <trkpt lat="36.6774253845215" lon="-4.99606990814209">
        <ele>1860.16674804688</ele>
        <time>2018-07-28T06:10:11Z</time>
      </trkpt>
      <trkpt lat="36.6774368286133" lon="-4.99606704711914">
        <ele>1860.0810546875</ele>
        <time>2018-07-28T06:10:12Z</time>
      </trkpt>
      <trkpt lat="36.6774444580078" lon="-4.99606323242188">
        <ele>1860.09582519531</ele>
        <time>2018-07-28T06:10:13Z</time>
      </trkpt>
      <trkpt lat="36.6774482727051" lon="-4.99605894088745">
        <ele>1860.19262695312</ele>
        <time>2018-07-28T06:10:14Z</time>
      </trkpt>
      <trkpt lat="36.6774559020996" lon="-4.99605321884155">
        <ele>1860.28100585938</ele>
        <time>2018-07-28T06:10:15Z</time>
      </trkpt>
      <trkpt lat="36.6774635314941" lon="-4.99604797363281">
        <ele>1860.35327148438</ele>
        <time>2018-07-28T06:10:16Z</time>
      </trkpt>
      <trkpt lat="36.6774673461914" lon="-4.99604320526123">
        <ele>1860.47094726562</ele>
        <time>2018-07-28T06:10:17Z</time>
      </trkpt>
      <trkpt lat="36.6774749755859" lon="-4.99603986740112">
        <ele>1860.4736328125</ele>
        <time>2018-07-28T06:10:18Z</time>
      </trkpt>
      <trkpt lat="36.6774826049805" lon="-4.99603700637817">
        <ele>1860.45910644531</ele>
        <time>2018-07-28T06:10:19Z</time>
      </trkpt>
      <trkpt lat="36.677490234375" lon="-4.99603605270386">
        <ele>1860.37268066406</ele>
        <time>2018-07-28T06:10:20Z</time>
      </trkpt>
      <trkpt lat="36.6774940490723" lon="-4.99603509902954">
        <ele>1860.34777832031</ele>
        <time>2018-07-28T06:10:21Z</time>
      </trkpt>
      <trkpt lat="36.6775016784668" lon="-4.99603509902954">
        <ele>1860.20581054688</ele>
        <time>2018-07-28T06:10:22Z</time>
      </trkpt>
      <trkpt lat="36.6775093078613" lon="-4.99603509902954">
        <ele>1859.99499511719</ele>
        <time>2018-07-28T06:10:23Z</time>
      </trkpt>
      <trkpt lat="36.6775169372559" lon="-4.99603605270386">
        <ele>1859.74755859375</ele>
        <time>2018-07-28T06:10:24Z</time>
      </trkpt>
      <trkpt lat="36.6775245666504" lon="-4.99603700637817">
        <ele>1859.50024414062</ele>
        <time>2018-07-28T06:10:25Z</time>
      </trkpt>
      <trkpt lat="36.6775321960449" lon="-4.99603986740112">
        <ele>1859.18017578125</ele>
        <time>2018-07-28T06:10:26Z</time>
      </trkpt>
      <trkpt lat="36.6775398254394" lon="-4.99604320526123">
        <ele>1858.84204101562</ele>
        <time>2018-07-28T06:10:27Z</time>
      </trkpt>
      <trkpt lat="36.6775436401367" lon="-4.99604511260986">
        <ele>1858.6640625</ele>
        <time>2018-07-28T06:10:28Z</time>
      </trkpt>
      <trkpt lat="36.6775512695312" lon="-4.99604606628418">
        <ele>1858.41735839844</ele>
        <time>2018-07-28T06:10:29Z</time>
      </trkpt>
      <trkpt lat="36.6775588989258" lon="-4.9960470199585">
        <ele>1858.17065429688</ele>
        <time>2018-07-28T06:10:30Z</time>
      </trkpt>
      <trkpt lat="36.677562713623" lon="-4.99604892730713">
        <ele>1857.99291992188</ele>
        <time>2018-07-28T06:10:31Z</time>
      </trkpt>
      <trkpt lat="36.6775703430176" lon="-4.99605178833008">
        <ele>1857.67395019531</ele>
        <time>2018-07-28T06:10:32Z</time>
      </trkpt>
      <trkpt lat="36.6775741577148" lon="-4.99605417251587">
        <ele>1857.47839355469</ele>
        <time>2018-07-28T06:10:33Z</time>
      </trkpt>
      <trkpt lat="36.6775779724121" lon="-4.9960560798645">
        <ele>1857.30102539062</ele>
        <time>2018-07-28T06:10:34Z</time>
      </trkpt>
      <trkpt lat="36.6775817871094" lon="-4.99605798721314">
        <ele>1857.12365722656</ele>
        <time>2018-07-28T06:10:35Z</time>
      </trkpt>
      <trkpt lat="36.6775856018066" lon="-4.99605894088745">
        <ele>1856.98254394531</ele>
        <time>2018-07-28T06:10:36Z</time>
      </trkpt>
      <trkpt lat="36.6775894165039" lon="-4.9960618019104">
        <ele>1856.76928710938</ele>
        <time>2018-07-28T06:10:37Z</time>
      </trkpt>
      <trkpt lat="36.6775932312012" lon="-4.99606418609619">
        <ele>1856.57421875</ele>
        <time>2018-07-28T06:10:38Z</time>
      </trkpt>
      <trkpt lat="36.6776008605957" lon="-4.99606609344482">
        <ele>1856.29248046875</ele>
        <time>2018-07-28T06:10:39Z</time>
      </trkpt>
      <trkpt lat="36.677604675293" lon="-4.99606800079346">
        <ele>1856.11560058594</ele>
        <time>2018-07-28T06:10:40Z</time>
      </trkpt>
      <trkpt lat="36.6776123046875" lon="-4.99606800079346">
        <ele>1855.90625</ele>
        <time>2018-07-28T06:10:41Z</time>
      </trkpt>
      <trkpt lat="36.6776161193848" lon="-4.99606895446777">
        <ele>1855.76550292969</ele>
        <time>2018-07-28T06:10:42Z</time>
      </trkpt>
      <trkpt lat="36.6776275634766" lon="-4.99606990814209">
        <ele>1855.41552734375</ele>
        <time>2018-07-28T06:10:43Z</time>
      </trkpt>
      <trkpt lat="36.6776351928711" lon="-4.99607086181641">
        <ele>1855.17028808594</ele>
        <time>2018-07-28T06:10:44Z</time>
      </trkpt>
      <trkpt lat="36.6776428222656" lon="-4.99606895446777">
        <ele>1855.03271484375</ele>
        <time>2018-07-28T06:10:45Z</time>
      </trkpt>
      <trkpt lat="36.6776504516602" lon="-4.99606704711914">
        <ele>1854.89489746094</ele>
        <time>2018-07-28T06:10:46Z</time>
      </trkpt>
      <trkpt lat="36.6776542663574" lon="-4.99606513977051">
        <ele>1854.86169433594</ele>
        <time>2018-07-28T06:10:47Z</time>
      </trkpt>
      <trkpt lat="36.6776657104492" lon="-4.99606323242188">
        <ele>1854.61889648438</ele>
        <time>2018-07-28T06:10:48Z</time>
      </trkpt>
      <trkpt lat="36.6776733398438" lon="-4.99605989456177">
        <ele>1854.53405761719</ele>
        <time>2018-07-28T06:10:49Z</time>
      </trkpt>
      <trkpt lat="36.6776847839356" lon="-4.99605703353882">
        <ele>1854.326171875</ele>
        <time>2018-07-28T06:10:50Z</time>
      </trkpt>
      <trkpt lat="36.6776924133301" lon="-4.99605512619019">
        <ele>1854.1875</ele>
        <time>2018-07-28T06:10:51Z</time>
      </trkpt>
      <trkpt lat="36.6777000427246" lon="-4.99605321884155">
        <ele>1854.04858398438</ele>
        <time>2018-07-28T06:10:52Z</time>
      </trkpt>
      <trkpt lat="36.6777076721191" lon="-4.99605321884155">
        <ele>1853.83850097656</ele>
        <time>2018-07-28T06:10:53Z</time>
      </trkpt>
      <trkpt lat="36.6777114868164" lon="-4.99605417251587">
        <ele>1853.69799804688</ele>
        <time>2018-07-28T06:10:54Z</time>
      </trkpt>
      <trkpt lat="36.6777153015137" lon="-4.99605703353882">
        <ele>1853.48669433594</ele>
        <time>2018-07-28T06:10:55Z</time>
      </trkpt>
      <trkpt lat="36.6777191162109" lon="-4.99605989456177">
        <ele>1853.275390625</ele>
        <time>2018-07-28T06:10:56Z</time>
      </trkpt>
      <trkpt lat="36.6777267456055" lon="-4.99606084823608">
        <ele>1853.0302734375</ele>
        <time>2018-07-28T06:10:57Z</time>
      </trkpt>
      <trkpt lat="36.6777305603027" lon="-4.9960618019104">
        <ele>1852.89013671875</ele>
        <time>2018-07-28T06:10:58Z</time>
      </trkpt>
      <trkpt lat="36.6777381896973" lon="-4.9960618019104">
        <ele>1852.68041992188</ele>
        <time>2018-07-28T06:10:59Z</time>
      </trkpt>
      <trkpt lat="36.6777496337891" lon="-4.9960618019104">
        <ele>1852.36584472656</ele>
        <time>2018-07-28T06:11:00Z</time>
      </trkpt>
      <trkpt lat="36.6777534484863" lon="-4.9960618019104">
        <ele>1852.26098632812</ele>
        <time>2018-07-28T06:11:01Z</time>
      </trkpt>
      <trkpt lat="36.6777572631836" lon="-4.99606323242188">
        <ele>1852.10339355469</ele>
        <time>2018-07-28T06:11:02Z</time>
      </trkpt>
      <trkpt lat="36.6777648925781" lon="-4.99606513977051">
        <ele>1851.82336425781</ele>
        <time>2018-07-28T06:11:03Z</time>
      </trkpt>
      <trkpt lat="36.6777687072754" lon="-4.99606800079346">
        <ele>1851.61315917969</ele>
        <time>2018-07-28T06:11:04Z</time>
      </trkpt>
      <trkpt lat="36.6777687072754" lon="-4.99606990814209">
        <ele>1851.54296875</ele>
        <time>2018-07-28T06:11:05Z</time>
      </trkpt>
      <trkpt lat="36.6777725219727" lon="-4.99607181549072">
        <ele>1851.36804199219</ele>
        <time>2018-07-28T06:11:06Z</time>
      </trkpt>
      <trkpt lat="36.6777763366699" lon="-4.99607419967651">
        <ele>1851.17565917969</ele>
        <time>2018-07-28T06:11:07Z</time>
      </trkpt>
      <trkpt lat="36.6777801513672" lon="-4.99607706069946">
        <ele>1850.9658203125</ele>
        <time>2018-07-28T06:11:08Z</time>
      </trkpt>
      <trkpt lat="36.6777801513672" lon="-4.99607992172241">
        <ele>1850.86059570312</ele>
        <time>2018-07-28T06:11:09Z</time>
      </trkpt>
      <trkpt lat="36.6777763366699" lon="-4.99608516693115">
        <ele>1850.77197265625</ele>
        <time>2018-07-28T06:11:10Z</time>
      </trkpt>
      <trkpt lat="36.6777763366699" lon="-4.99609088897705">
        <ele>1850.56127929688</ele>
        <time>2018-07-28T06:11:11Z</time>
      </trkpt>
      <trkpt lat="36.6777725219727" lon="-4.99609899520874">
        <ele>1850.36694335938</ele>
        <time>2018-07-28T06:11:12Z</time>
      </trkpt>
      <trkpt lat="36.6777725219727" lon="-4.99610710144043">
        <ele>1850.068359375</ele>
        <time>2018-07-28T06:11:13Z</time>
      </trkpt>
      <trkpt lat="36.6777725219727" lon="-4.99611282348633">
        <ele>1849.85766601562</ele>
        <time>2018-07-28T06:11:14Z</time>
      </trkpt>
      <trkpt lat="36.6777725219727" lon="-4.99611711502075">
        <ele>1849.69958496094</ele>
        <time>2018-07-28T06:11:15Z</time>
      </trkpt>
      <trkpt lat="36.6777687072754" lon="-4.9961199760437">
        <ele>1849.69775390625</ele>
        <time>2018-07-28T06:11:16Z</time>
      </trkpt>
      <trkpt lat="36.6777687072754" lon="-4.99612188339233">
        <ele>1849.62756347656</ele>
        <time>2018-07-28T06:11:17Z</time>
      </trkpt>
      <trkpt lat="36.6777648925781" lon="-4.99612617492676">
        <ele>1849.57275390625</ele>
        <time>2018-07-28T06:11:18Z</time>
      </trkpt>
      <trkpt lat="36.6777648925781" lon="-4.99612998962402">
        <ele>1849.43212890625</ele>
        <time>2018-07-28T06:11:19Z</time>
      </trkpt>
      <trkpt lat="36.6777687072754" lon="-4.99613618850708">
        <ele>1849.10034179688</ele>
        <time>2018-07-28T06:11:20Z</time>
      </trkpt>
      <trkpt lat="36.6777725219727" lon="-4.99613904953003">
        <ele>1848.89172363281</ele>
        <time>2018-07-28T06:11:21Z</time>
      </trkpt>
      <trkpt lat="36.6777801513672" lon="-4.99614000320435">
        <ele>1848.650390625</ele>
        <time>2018-07-28T06:11:22Z</time>
      </trkpt>
      <trkpt lat="36.6777877807617" lon="-4.99613618850708">
        <ele>1848.58435058594</ele>
        <time>2018-07-28T06:11:23Z</time>
      </trkpt>
      <trkpt lat="36.6777954101562" lon="-4.99613380432129">
        <ele>1848.46533203125</ele>
        <time>2018-07-28T06:11:24Z</time>
      </trkpt>
      <trkpt lat="36.6778030395508" lon="-4.99613189697266">
        <ele>1848.32873535156</ele>
        <time>2018-07-28T06:11:25Z</time>
      </trkpt>
      <trkpt lat="36.677806854248" lon="-4.99613285064697">
        <ele>1848.19055175781</ele>
        <time>2018-07-28T06:11:26Z</time>
      </trkpt>
      <trkpt lat="36.6778144836426" lon="-4.99613523483276">
        <ele>1847.89672851562</ele>
        <time>2018-07-28T06:11:27Z</time>
      </trkpt>
      <trkpt lat="36.6778182983398" lon="-4.9961371421814">
        <ele>1847.72375488281</ele>
        <time>2018-07-28T06:11:28Z</time>
      </trkpt>
      <trkpt lat="36.6778259277344" lon="-4.99613809585571">
        <ele>1847.48254394531</ele>
        <time>2018-07-28T06:11:29Z</time>
      </trkpt>
      <trkpt lat="36.6778297424316" lon="-4.99613904953003">
        <ele>1847.34460449219</ele>
        <time>2018-07-28T06:11:30Z</time>
      </trkpt>
      <trkpt lat="36.6778373718262" lon="-4.99613904953003">
        <ele>1847.13830566406</ele>
        <time>2018-07-28T06:11:31Z</time>
      </trkpt>
      <trkpt lat="36.6778450012207" lon="-4.99613809585571">
        <ele>1846.96667480469</ele>
        <time>2018-07-28T06:11:32Z</time>
      </trkpt>
      <trkpt lat="36.677848815918" lon="-4.99613523483276">
        <ele>1846.96765136719</ele>
        <time>2018-07-28T06:11:33Z</time>
      </trkpt>
      <trkpt lat="36.6778526306152" lon="-4.99613285064697">
        <ele>1846.951171875</ele>
        <time>2018-07-28T06:11:34Z</time>
      </trkpt>
      <trkpt lat="36.6778564453125" lon="-4.99613189697266">
        <ele>1846.88256835938</ele>
        <time>2018-07-28T06:11:35Z</time>
      </trkpt>
      <trkpt lat="36.6778602600098" lon="-4.99613094329834">
        <ele>1846.81384277344</ele>
        <time>2018-07-28T06:11:36Z</time>
      </trkpt>
      <trkpt lat="36.6778602600098" lon="-4.99613094329834">
        <ele>1846.81384277344</ele>
        <time>2018-07-28T06:11:37Z</time>
      </trkpt>
      <trkpt lat="36.677864074707" lon="-4.99612998962402">
        <ele>1846.7451171875</ele>
        <time>2018-07-28T06:11:38Z</time>
      </trkpt>
      <trkpt lat="36.6778678894043" lon="-4.99613094329834">
        <ele>1846.60717773438</ele>
        <time>2018-07-28T06:11:39Z</time>
      </trkpt>
      <trkpt lat="36.6778717041016" lon="-4.99613189697266">
        <ele>1846.46936035156</ele>
        <time>2018-07-28T06:11:40Z</time>
      </trkpt>
      <trkpt lat="36.6778793334961" lon="-4.99613380432129">
        <ele>1846.19360351562</ele>
        <time>2018-07-28T06:11:41Z</time>
      </trkpt>
      <trkpt lat="36.6778907775879" lon="-4.99613618850708">
        <ele>1845.79760742188</ele>
        <time>2018-07-28T06:11:42Z</time>
      </trkpt>
      <trkpt lat="36.6778984069824" lon="-4.99613618850708">
        <ele>1845.59118652344</ele>
        <time>2018-07-28T06:11:43Z</time>
      </trkpt>
      <trkpt lat="36.677906036377" lon="-4.99613380432129">
        <ele>1845.47082519531</ele>
        <time>2018-07-28T06:11:44Z</time>
      </trkpt>
      <trkpt lat="36.6779136657715" lon="-4.99613094329834">
        <ele>1845.36730957031</ele>
        <time>2018-07-28T06:11:45Z</time>
      </trkpt>
      <trkpt lat="36.677921295166" lon="-4.99612617492676">
        <ele>1845.33215332031</ele>
        <time>2018-07-28T06:11:46Z</time>
      </trkpt>
      <trkpt lat="36.6779289245606" lon="-4.99612092971802">
        <ele>1845.31384277344</ele>
        <time>2018-07-28T06:11:47Z</time>
      </trkpt>
      <trkpt lat="36.6779403686523" lon="-4.99611616134644">
        <ele>1845.17419433594</ele>
        <time>2018-07-28T06:11:48Z</time>
      </trkpt>
      <trkpt lat="36.6779479980469" lon="-4.99610996246338">
        <ele>1845.18896484375</ele>
        <time>2018-07-28T06:11:49Z</time>
      </trkpt>
      <trkpt lat="36.6779556274414" lon="-4.99610376358032">
        <ele>1845.203125</ele>
        <time>2018-07-28T06:11:50Z</time>
      </trkpt>
      <trkpt lat="36.6779670715332" lon="-4.99609899520874">
        <ele>1845.06164550781</ele>
        <time>2018-07-28T06:11:51Z</time>
      </trkpt>
      <trkpt lat="36.6779747009277" lon="-4.99609279632568">
        <ele>1845.07470703125</ele>
        <time>2018-07-28T06:11:52Z</time>
      </trkpt>
      <trkpt lat="36.6779823303223" lon="-4.99608898162842">
        <ele>1845.00219726562</ele>
        <time>2018-07-28T06:11:53Z</time>
      </trkpt>
      <trkpt lat="36.6779899597168" lon="-4.99608421325684">
        <ele>1844.96337890625</ele>
        <time>2018-07-28T06:11:54Z</time>
      </trkpt>
      <trkpt lat="36.6779975891113" lon="-4.99607801437378">
        <ele>1844.97497558594</ele>
        <time>2018-07-28T06:11:55Z</time>
      </trkpt>
      <trkpt lat="36.6780014038086" lon="-4.99607276916504">
        <ele>1845.05676269531</ele>
        <time>2018-07-28T06:11:56Z</time>
      </trkpt>
      <trkpt lat="36.6780090332031" lon="-4.99606990814209">
        <ele>1844.94897460938</ele>
        <time>2018-07-28T06:11:57Z</time>
      </trkpt>
      <trkpt lat="36.6780128479004" lon="-4.99606800079346">
        <ele>1844.91198730469</ele>
        <time>2018-07-28T06:11:58Z</time>
      </trkpt>
      <trkpt lat="36.6780166625977" lon="-4.99606800079346">
        <ele>1844.80725097656</ele>
        <time>2018-07-28T06:11:59Z</time>
      </trkpt>
      <trkpt lat="36.6780242919922" lon="-4.99606990814209">
        <ele>1844.53039550781</ele>
        <time>2018-07-28T06:12:00Z</time>
      </trkpt>
      <trkpt lat="36.6780319213867" lon="-4.99607086181641">
        <ele>1844.28735351562</ele>
        <time>2018-07-28T06:12:01Z</time>
      </trkpt>
      <trkpt lat="36.6780395507812" lon="-4.99607086181641">
        <ele>1844.07800292969</ele>
        <time>2018-07-28T06:12:02Z</time>
      </trkpt>
      <trkpt lat="36.6780471801758" lon="-4.99606800079346">
        <ele>1843.96960449219</ele>
        <time>2018-07-28T06:12:03Z</time>
      </trkpt>
      <trkpt lat="36.678050994873" lon="-4.99606609344482">
        <ele>1843.93212890625</ele>
        <time>2018-07-28T06:12:04Z</time>
      </trkpt>
      <trkpt lat="36.6780548095703" lon="-4.99606418609619">
        <ele>1843.89453125</ele>
        <time>2018-07-28T06:12:05Z</time>
      </trkpt>
      <trkpt lat="36.6780586242676" lon="-4.99606418609619">
        <ele>1843.78967285156</ele>
        <time>2018-07-28T06:12:06Z</time>
      </trkpt>
      <trkpt lat="36.6780662536621" lon="-4.99606418609619">
        <ele>1843.580078125</ele>
        <time>2018-07-28T06:12:07Z</time>
      </trkpt>
      <trkpt lat="36.6780738830566" lon="-4.99606513977051">
        <ele>1843.33703613281</ele>
        <time>2018-07-28T06:12:08Z</time>
      </trkpt>
      <trkpt lat="36.6780776977539" lon="-4.99606513977051">
        <ele>1843.23229980469</ele>
        <time>2018-07-28T06:12:09Z</time>
      </trkpt>
      <trkpt lat="36.6780815124512" lon="-4.99606609344482">
        <ele>1843.09411621094</ele>
        <time>2018-07-28T06:12:10Z</time>
      </trkpt>
      <trkpt lat="36.6780891418457" lon="-4.99606609344482">
        <ele>1842.88464355469</ele>
        <time>2018-07-28T06:12:11Z</time>
      </trkpt>
      <trkpt lat="36.678092956543" lon="-4.99606609344482">
        <ele>1842.77978515625</ele>
        <time>2018-07-28T06:12:12Z</time>
      </trkpt>
      <trkpt lat="36.6781005859375" lon="-4.99606418609619">
        <ele>1842.63696289062</ele>
        <time>2018-07-28T06:12:13Z</time>
      </trkpt>
      <trkpt lat="36.6781044006348" lon="-4.99606323242188">
        <ele>1842.56555175781</ele>
        <time>2018-07-28T06:12:14Z</time>
      </trkpt>
      <trkpt lat="36.6781120300293" lon="-4.99606084823608">
        <ele>1842.43896484375</ele>
        <time>2018-07-28T06:12:15Z</time>
      </trkpt>
      <trkpt lat="36.6781158447266" lon="-4.99605989456177">
        <ele>1842.36743164062</ele>
        <time>2018-07-28T06:12:16Z</time>
      </trkpt>
      <trkpt lat="36.6781158447266" lon="-4.99605989456177">
        <ele>1842.36743164062</ele>
        <time>2018-07-28T06:12:17Z</time>
      </trkpt>
      <trkpt lat="36.6781196594238" lon="-4.99606084823608">
        <ele>1842.22924804688</ele>
        <time>2018-07-28T06:12:18Z</time>
      </trkpt>
      <trkpt lat="36.6781234741211" lon="-4.99606323242188">
        <ele>1842.04138183594</ele>
        <time>2018-07-28T06:12:19Z</time>
      </trkpt>
      <trkpt lat="36.6781272888184" lon="-4.99606513977051">
        <ele>1841.87023925781</ele>
        <time>2018-07-28T06:12:20Z</time>
      </trkpt>
      <trkpt lat="36.6781311035156" lon="-4.99606609344482">
        <ele>1841.73229980469</ele>
        <time>2018-07-28T06:12:21Z</time>
      </trkpt>
      <trkpt lat="36.6781387329102" lon="-4.99606704711914">
        <ele>1841.48974609375</ele>
        <time>2018-07-28T06:12:22Z</time>
      </trkpt>
      <trkpt lat="36.6781425476074" lon="-4.99606800079346">
        <ele>1841.35192871094</ele>
        <time>2018-07-28T06:12:23Z</time>
      </trkpt>
      <trkpt lat="36.6781463623047" lon="-4.99606895446777">
        <ele>1841.21411132812</ele>
        <time>2018-07-28T06:12:24Z</time>
      </trkpt>
      <trkpt lat="36.678150177002" lon="-4.99606895446777">
        <ele>1841.10949707031</ele>
        <time>2018-07-28T06:12:25Z</time>
      </trkpt>
      <trkpt lat="36.6781578063965" lon="-4.99606895446777">
        <ele>1840.90002441406</ele>
        <time>2018-07-28T06:12:26Z</time>
      </trkpt>
      <trkpt lat="36.6781616210938" lon="-4.99606800079346">
        <ele>1840.82836914062</ele>
        <time>2018-07-28T06:12:27Z</time>
      </trkpt>
      <trkpt lat="36.6781692504883" lon="-4.99606800079346">
        <ele>1840.61901855469</ele>
        <time>2018-07-28T06:12:28Z</time>
      </trkpt>
      <trkpt lat="36.6781730651856" lon="-4.99606895446777">
        <ele>1840.48132324219</ele>
        <time>2018-07-28T06:12:29Z</time>
      </trkpt>
      <trkpt lat="36.6781768798828" lon="-4.99606990814209">
        <ele>1840.34375</ele>
        <time>2018-07-28T06:12:30Z</time>
      </trkpt>
      <trkpt lat="36.6781806945801" lon="-4.99607086181641">
        <ele>1840.20617675781</ele>
        <time>2018-07-28T06:12:31Z</time>
      </trkpt>
      <trkpt lat="36.6781883239746" lon="-4.99607276916504">
        <ele>1839.93127441406</ele>
        <time>2018-07-28T06:12:32Z</time>
      </trkpt>
      <trkpt lat="36.6781921386719" lon="-4.99607419967651">
        <ele>1839.77746582031</ele>
        <time>2018-07-28T06:12:33Z</time>
      </trkpt>
      <trkpt lat="36.6781997680664" lon="-4.99607419967651">
        <ele>1839.56823730469</ele>
        <time>2018-07-28T06:12:34Z</time>
      </trkpt>
      <trkpt lat="36.6782035827637" lon="-4.99607276916504">
        <ele>1839.51281738281</ele>
        <time>2018-07-28T06:12:35Z</time>
      </trkpt>
      <trkpt lat="36.6782073974609" lon="-4.99607086181641">
        <ele>1839.47375488281</ele>
        <time>2018-07-28T06:12:36Z</time>
      </trkpt>
      <trkpt lat="36.6782112121582" lon="-4.99606800079346">
        <ele>1839.46716308594</ele>
        <time>2018-07-28T06:12:37Z</time>
      </trkpt>
      <trkpt lat="36.6782150268555" lon="-4.99606609344482">
        <ele>1839.42785644531</ele>
        <time>2018-07-28T06:12:38Z</time>
      </trkpt>
      <trkpt lat="36.6782188415527" lon="-4.99606513977051">
        <ele>1839.35583496094</ele>
        <time>2018-07-28T06:12:39Z</time>
      </trkpt>
      <trkpt lat="36.67822265625" lon="-4.99606513977051">
        <ele>1839.2509765625</ele>
        <time>2018-07-28T06:12:40Z</time>
      </trkpt>
      <trkpt lat="36.67822265625" lon="-4.99606513977051">
        <ele>1839.2509765625</ele>
        <time>2018-07-28T06:12:41Z</time>
      </trkpt>
      <trkpt lat="36.6782264709473" lon="-4.99606513977051">
        <ele>1839.14624023438</ele>
        <time>2018-07-28T06:12:42Z</time>
      </trkpt>
      <trkpt lat="36.6782302856445" lon="-4.99606513977051">
        <ele>1839.04150390625</ele>
        <time>2018-07-28T06:12:43Z</time>
      </trkpt>
      <trkpt lat="36.6782341003418" lon="-4.99606513977051">
        <ele>1838.93676757812</ele>
        <time>2018-07-28T06:12:44Z</time>
      </trkpt>
      <trkpt lat="36.6782341003418" lon="-4.99606418609619">
        <ele>1838.96936035156</ele>
        <time>2018-07-28T06:12:45Z</time>
      </trkpt>
      <trkpt lat="36.6782379150391" lon="-4.99606418609619">
        <ele>1838.86450195312</ele>
        <time>2018-07-28T06:12:46Z</time>
      </trkpt>
      <trkpt lat="36.6782379150391" lon="-4.99606418609619">
        <ele>1838.86450195312</ele>
        <time>2018-07-28T06:12:47Z</time>
      </trkpt>
      <trkpt lat="36.6782379150391" lon="-4.99606513977051">
        <ele>1838.83190917969</ele>
        <time>2018-07-28T06:12:48Z</time>
      </trkpt>
      <trkpt lat="36.6782379150391" lon="-4.99606513977051">
        <ele>1838.83190917969</ele>
        <time>2018-07-28T06:12:49Z</time>
      </trkpt>
      <trkpt lat="36.6782379150391" lon="-4.99606513977051">
        <ele>1838.83190917969</ele>
        <time>2018-07-28T06:12:50Z</time>
      </trkpt>
      <trkpt lat="36.6782379150391" lon="-4.99606609344482">
        <ele>1838.79943847656</ele>
        <time>2018-07-28T06:12:51Z</time>
      </trkpt>
      <trkpt lat="36.6782379150391" lon="-4.99606609344482">
        <ele>1838.79943847656</ele>
        <time>2018-07-28T06:12:52Z</time>
      </trkpt>
      <trkpt lat="36.6782341003418" lon="-4.99606800079346">
        <ele>1838.83898925781</ele>
        <time>2018-07-28T06:12:53Z</time>
      </trkpt>
      <trkpt lat="36.6782341003418" lon="-4.99607086181641">
        <ele>1838.7412109375</ele>
        <time>2018-07-28T06:12:54Z</time>
      </trkpt>
      <trkpt lat="36.6782379150391" lon="-4.99607610702515">
        <ele>1838.45739746094</ele>
        <time>2018-07-28T06:12:55Z</time>
      </trkpt>
      <trkpt lat="36.6782417297363" lon="-4.99607992172241">
        <ele>1838.22265625</ele>
        <time>2018-07-28T06:12:56Z</time>
      </trkpt>
      <trkpt lat="36.6782417297363" lon="-4.99608278274536">
        <ele>1838.12512207031</ele>
        <time>2018-07-28T06:12:57Z</time>
      </trkpt>
      <trkpt lat="36.6782455444336" lon="-4.99608612060547">
        <ele>1837.90686035156</ele>
        <time>2018-07-28T06:12:58Z</time>
      </trkpt>
      <trkpt lat="36.6782455444336" lon="-4.9960880279541">
        <ele>1837.841796875</ele>
        <time>2018-07-28T06:12:59Z</time>
      </trkpt>
      <trkpt lat="36.6782455444336" lon="-4.99609088897705">
        <ele>1837.74426269531</ele>
        <time>2018-07-28T06:13:00Z</time>
      </trkpt>
      <trkpt lat="36.6782455444336" lon="-4.99609184265137">
        <ele>1837.71166992188</ele>
        <time>2018-07-28T06:13:01Z</time>
      </trkpt>
      <trkpt lat="36.6782455444336" lon="-4.99609518051147">
        <ele>1837.59790039062</ele>
        <time>2018-07-28T06:13:02Z</time>
      </trkpt>
      <trkpt lat="36.6782455444336" lon="-4.99609994888306">
        <ele>1837.43518066406</ele>
        <time>2018-07-28T06:13:03Z</time>
      </trkpt>
      <trkpt lat="36.6782455444336" lon="-4.99610710144043">
        <ele>1837.19128417969</ele>
        <time>2018-07-28T06:13:04Z</time>
      </trkpt>
      <trkpt lat="36.6782455444336" lon="-4.99611377716064">
        <ele>1836.96362304688</ele>
        <time>2018-07-28T06:13:05Z</time>
      </trkpt>
      <trkpt lat="36.6782417297363" lon="-4.99612092971802">
        <ele>1836.8232421875</ele>
        <time>2018-07-28T06:13:06Z</time>
      </trkpt>
      <trkpt lat="36.6782417297363" lon="-4.99612903594971">
        <ele>1836.54650878906</ele>
        <time>2018-07-28T06:13:07Z</time>
      </trkpt>
      <trkpt lat="36.6782341003418" lon="-4.99613809585571">
        <ele>1836.44372558594</ele>
        <time>2018-07-28T06:13:08Z</time>
      </trkpt>
      <trkpt lat="36.6782302856445" lon="-4.99614810943604">
        <ele>1836.20446777344</ele>
        <time>2018-07-28T06:13:09Z</time>
      </trkpt>
      <trkpt lat="36.6782264709473" lon="-4.99615812301636">
        <ele>1835.96484375</ele>
        <time>2018-07-28T06:13:10Z</time>
      </trkpt>
      <trkpt lat="36.67822265625" lon="-4.99616622924805">
        <ele>1835.78991699219</ele>
        <time>2018-07-28T06:13:11Z</time>
      </trkpt>
      <trkpt lat="36.6782188415527" lon="-4.99617385864258">
        <ele>1835.63110351562</ele>
        <time>2018-07-28T06:13:12Z</time>
      </trkpt>
      <trkpt lat="36.6782150268555" lon="-4.99618291854858">
        <ele>1835.42297363281</ele>
        <time>2018-07-28T06:13:13Z</time>
      </trkpt>
      <trkpt lat="36.6782112121582" lon="-4.99618911743164">
        <ele>1835.3125</ele>
        <time>2018-07-28T06:13:14Z</time>
      </trkpt>
      <trkpt lat="36.6782073974609" lon="-4.99619388580322">
        <ele>1835.25085449219</ele>
        <time>2018-07-28T06:13:15Z</time>
      </trkpt>
      <trkpt lat="36.6782035827637" lon="-4.99619913101196">
        <ele>1835.17260742188</ele>
        <time>2018-07-28T06:13:16Z</time>
      </trkpt>
      <trkpt lat="36.6782035827637" lon="-4.99620389938354">
        <ele>1835.0087890625</ele>
        <time>2018-07-28T06:13:17Z</time>
      </trkpt>
      <trkpt lat="36.6781997680664" lon="-4.99620819091797">
        <ele>1834.96301269531</ele>
        <time>2018-07-28T06:13:18Z</time>
      </trkpt>
      <trkpt lat="36.6781921386719" lon="-4.99621105194092">
        <ele>1835.06787109375</ele>
        <time>2018-07-28T06:13:19Z</time>
      </trkpt>
      <trkpt lat="36.6781921386719" lon="-4.99621677398682">
        <ele>1834.87097167969</ele>
        <time>2018-07-28T06:13:20Z</time>
      </trkpt>
      <trkpt lat="36.6781921386719" lon="-4.99622392654419">
        <ele>1834.62475585938</ele>
        <time>2018-07-28T06:13:21Z</time>
      </trkpt>
      <trkpt lat="36.6781959533691" lon="-4.99623107910156">
        <ele>1834.27758789062</ele>
        <time>2018-07-28T06:13:22Z</time>
      </trkpt>
      <trkpt lat="36.6781997680664" lon="-4.9962329864502">
        <ele>1834.11083984375</ele>
        <time>2018-07-28T06:13:23Z</time>
      </trkpt>
      <trkpt lat="36.6781997680664" lon="-4.9962329864502">
        <ele>1834.11083984375</ele>
        <time>2018-07-28T06:13:24Z</time>
      </trkpt>
      <trkpt lat="36.6782035827637" lon="-4.99623203277588">
        <ele>1834.04260253906</ele>
        <time>2018-07-28T06:13:25Z</time>
      </trkpt>
      <trkpt lat="36.6782073974609" lon="-4.99623107910156">
        <ele>1833.97412109375</ele>
        <time>2018-07-28T06:13:26Z</time>
      </trkpt>
      <trkpt lat="36.6782112121582" lon="-4.99623107910156">
        <ele>1833.873046875</ele>
        <time>2018-07-28T06:13:27Z</time>
      </trkpt>
      <trkpt lat="36.6782188415527" lon="-4.99623012542725">
        <ele>1833.70349121094</ele>
        <time>2018-07-28T06:13:28Z</time>
      </trkpt>
      <trkpt lat="36.6782264709473" lon="-4.99622821807861">
        <ele>1833.56640625</ele>
        <time>2018-07-28T06:13:29Z</time>
      </trkpt>
      <trkpt lat="36.6782302856445" lon="-4.99622583389282">
        <ele>1833.54675292969</ele>
        <time>2018-07-28T06:13:30Z</time>
      </trkpt>
      <trkpt lat="36.6782379150391" lon="-4.99622583389282">
        <ele>1833.34436035156</ele>
        <time>2018-07-28T06:13:31Z</time>
      </trkpt>
      <trkpt lat="36.6782417297363" lon="-4.99622583389282">
        <ele>1833.24304199219</ele>
        <time>2018-07-28T06:13:32Z</time>
      </trkpt>
      <trkpt lat="36.6782493591309" lon="-4.99622488021851">
        <ele>1833.07312011719</ele>
        <time>2018-07-28T06:13:33Z</time>
      </trkpt>
      <trkpt lat="36.6782531738281" lon="-4.99622392654419">
        <ele>1833.00427246094</ele>
        <time>2018-07-28T06:13:34Z</time>
      </trkpt>
      <trkpt lat="36.6782608032227" lon="-4.99622201919556">
        <ele>1832.86669921875</ele>
        <time>2018-07-28T06:13:35Z</time>
      </trkpt>
      <trkpt lat="36.6782684326172" lon="-4.99622011184692">
        <ele>1832.72875976562</ele>
        <time>2018-07-28T06:13:36Z</time>
      </trkpt>
      <trkpt lat="36.6782722473144" lon="-4.99621820449829">
        <ele>1832.69213867188</ele>
        <time>2018-07-28T06:13:37Z</time>
      </trkpt>
      <trkpt lat="36.678279876709" lon="-4.99621820449829">
        <ele>1832.48937988281</ele>
        <time>2018-07-28T06:13:38Z</time>
      </trkpt>
      <trkpt lat="36.6782836914062" lon="-4.99621915817261">
        <ele>1832.35559082031</ele>
        <time>2018-07-28T06:13:39Z</time>
      </trkpt>
      <trkpt lat="36.6782913208008" lon="-4.99622011184692">
        <ele>1832.12060546875</ele>
        <time>2018-07-28T06:13:40Z</time>
      </trkpt>
      <trkpt lat="36.6782989501953" lon="-4.99622106552124">
        <ele>1831.88562011719</ele>
        <time>2018-07-28T06:13:41Z</time>
      </trkpt>
      <trkpt lat="36.6783027648926" lon="-4.99622297286987">
        <ele>1831.71984863281</ele>
        <time>2018-07-28T06:13:42Z</time>
      </trkpt>
      <trkpt lat="36.6783027648926" lon="-4.99622392654419">
        <ele>1831.68762207031</ele>
        <time>2018-07-28T06:13:43Z</time>
      </trkpt>
      <trkpt lat="36.6783065795898" lon="-4.99622488021851">
        <ele>1831.55419921875</ele>
        <time>2018-07-28T06:13:44Z</time>
      </trkpt>
      <trkpt lat="36.6783103942871" lon="-4.99622392654419">
        <ele>1831.48510742188</ele>
        <time>2018-07-28T06:13:45Z</time>
      </trkpt>
      <trkpt lat="36.6783180236816" lon="-4.99622106552124">
        <ele>1831.37890625</ele>
        <time>2018-07-28T06:13:46Z</time>
      </trkpt>
      <trkpt lat="36.6783256530762" lon="-4.99621677398682">
        <ele>1831.32067871094</ele>
        <time>2018-07-28T06:13:47Z</time>
      </trkpt>
      <trkpt lat="36.6783332824707" lon="-4.99621391296387">
        <ele>1831.2138671875</ele>
        <time>2018-07-28T06:13:48Z</time>
      </trkpt>
      <trkpt lat="36.678337097168" lon="-4.99621105194092">
        <ele>1831.15344238281</ele>
        <time>2018-07-28T06:13:49Z</time>
      </trkpt>
      <trkpt lat="36.6783447265625" lon="-4.9962100982666">
        <ele>1830.87097167969</ele>
        <time>2018-07-28T06:13:50Z</time>
      </trkpt>
      <trkpt lat="36.6783485412598" lon="-4.99620819091797">
        <ele>1830.77795410156</ele>
        <time>2018-07-28T06:13:51Z</time>
      </trkpt>
      <trkpt lat="36.678352355957" lon="-4.99620723724365">
        <ele>1830.65283203125</ele>
        <time>2018-07-28T06:13:52Z</time>
      </trkpt>
      <trkpt lat="36.6783561706543" lon="-4.99620485305786">
        <ele>1830.57592773438</ele>
        <time>2018-07-28T06:13:53Z</time>
      </trkpt>
      <trkpt lat="36.6783599853516" lon="-4.99620389938354">
        <ele>1830.45092773438</ele>
        <time>2018-07-28T06:13:54Z</time>
      </trkpt>
      <trkpt lat="36.6783638000488" lon="-4.99620389938354">
        <ele>1830.29370117188</ele>
        <time>2018-07-28T06:13:55Z</time>
      </trkpt>
      <trkpt lat="36.6783676147461" lon="-4.99620389938354">
        <ele>1830.13659667969</ele>
        <time>2018-07-28T06:13:56Z</time>
      </trkpt>
      <trkpt lat="36.6783752441406" lon="-4.9962010383606">
        <ele>1829.91882324219</ele>
        <time>2018-07-28T06:13:57Z</time>
      </trkpt>
      <trkpt lat="36.6783828735352" lon="-4.99619579315186">
        <ele>1829.78198242188</ele>
        <time>2018-07-28T06:13:58Z</time>
      </trkpt>
      <trkpt lat="36.6783905029297" lon="-4.99618816375732">
        <ele>1829.72619628906</ele>
        <time>2018-07-28T06:13:59Z</time>
      </trkpt>
      <trkpt lat="36.678394317627" lon="-4.99618101119995">
        <ele>1829.81140136719</ele>
        <time>2018-07-28T06:14:00Z</time>
      </trkpt>
      <trkpt lat="36.6783981323242" lon="-4.99617385864258">
        <ele>1829.89697265625</ele>
        <time>2018-07-28T06:14:01Z</time>
      </trkpt>
      <trkpt lat="36.6784057617188" lon="-4.99617004394531">
        <ele>1829.71301269531</ele>
        <time>2018-07-28T06:14:02Z</time>
      </trkpt>
      <trkpt lat="36.678409576416" lon="-4.99616718292236">
        <ele>1829.65344238281</ele>
        <time>2018-07-28T06:14:03Z</time>
      </trkpt>
      <trkpt lat="36.6784133911133" lon="-4.99616289138794">
        <ele>1829.642578125</ele>
        <time>2018-07-28T06:14:04Z</time>
      </trkpt>
      <trkpt lat="36.6784172058106" lon="-4.99615907669067">
        <ele>1829.61560058594</ele>
        <time>2018-07-28T06:14:05Z</time>
      </trkpt>
      <trkpt lat="36.6784210205078" lon="-4.99615478515625">
        <ele>1829.60498046875</ele>
        <time>2018-07-28T06:14:06Z</time>
      </trkpt>
      <trkpt lat="36.6784286499023" lon="-4.9961519241333">
        <ele>1829.3896484375</ele>
        <time>2018-07-28T06:14:07Z</time>
      </trkpt>
      <trkpt lat="36.6784324645996" lon="-4.99614810943604">
        <ele>1829.36315917969</ele>
        <time>2018-07-28T06:14:08Z</time>
      </trkpt>
      <trkpt lat="36.6784400939941" lon="-4.99614715576172">
        <ele>1829.08312988281</ele>
        <time>2018-07-28T06:14:09Z</time>
      </trkpt>
      <trkpt lat="36.6784439086914" lon="-4.9961462020874">
        <ele>1828.95935058594</ele>
        <time>2018-07-28T06:14:10Z</time>
      </trkpt>
      <trkpt lat="36.6784477233887" lon="-4.99614477157593">
        <ele>1828.85192871094</ele>
        <time>2018-07-28T06:14:11Z</time>
      </trkpt>
      <trkpt lat="36.6784515380859" lon="-4.99614477157593">
        <ele>1828.69567871094</ele>
        <time>2018-07-28T06:14:12Z</time>
      </trkpt>
      <trkpt lat="36.6784553527832" lon="-4.99614477157593">
        <ele>1828.53955078125</ele>
        <time>2018-07-28T06:14:13Z</time>
      </trkpt>
      <trkpt lat="36.6784591674805" lon="-4.9961462020874">
        <ele>1828.33447265625</ele>
        <time>2018-07-28T06:14:14Z</time>
      </trkpt>
      <trkpt lat="36.678466796875" lon="-4.99614477157593">
        <ele>1828.07092285156</ele>
        <time>2018-07-28T06:14:15Z</time>
      </trkpt>
      <trkpt lat="36.6784744262695" lon="-4.9961428642273">
        <ele>1827.82385253906</ele>
        <time>2018-07-28T06:14:16Z</time>
      </trkpt>
      <trkpt lat="36.6784820556641" lon="-4.99614095687866">
        <ele>1827.57678222656</ele>
        <time>2018-07-28T06:14:17Z</time>
      </trkpt>
      <trkpt lat="36.6784896850586" lon="-4.99613904953003">
        <ele>1827.32995605469</ele>
        <time>2018-07-28T06:14:18Z</time>
      </trkpt>
      <trkpt lat="36.6784973144531" lon="-4.9961371421814">
        <ele>1827.08312988281</ele>
        <time>2018-07-28T06:14:19Z</time>
      </trkpt>
      <trkpt lat="36.6785049438477" lon="-4.99613523483276">
        <ele>1826.83654785156</ele>
        <time>2018-07-28T06:14:20Z</time>
      </trkpt>
      <trkpt lat="36.6785125732422" lon="-4.99613189697266">
        <ele>1826.63916015625</ele>
        <time>2018-07-28T06:14:21Z</time>
      </trkpt>
      <trkpt lat="36.6785202026367" lon="-4.99613189697266">
        <ele>1826.32727050781</ele>
        <time>2018-07-28T06:14:22Z</time>
      </trkpt>
      <trkpt lat="36.6785278320312" lon="-4.99613094329834">
        <ele>1826.04809570312</ele>
        <time>2018-07-28T06:14:23Z</time>
      </trkpt>
      <trkpt lat="36.678539276123" lon="-4.99612903594971">
        <ele>1825.64599609375</ele>
        <time>2018-07-28T06:14:24Z</time>
      </trkpt>
      <trkpt lat="36.6785469055176" lon="-4.99612617492676">
        <ele>1825.43286132812</ele>
        <time>2018-07-28T06:14:25Z</time>
      </trkpt>
      <trkpt lat="36.6785507202148" lon="-4.99612283706665">
        <ele>1825.39233398438</ele>
        <time>2018-07-28T06:14:26Z</time>
      </trkpt>
      <trkpt lat="36.6785583496094" lon="-4.99612092971802">
        <ele>1825.14660644531</ele>
        <time>2018-07-28T06:14:27Z</time>
      </trkpt>
      <trkpt lat="36.6785659790039" lon="-4.99611902236938">
        <ele>1824.90100097656</ele>
        <time>2018-07-28T06:14:28Z</time>
      </trkpt>
      <trkpt lat="36.6785736083984" lon="-4.99611616134644">
        <ele>1824.6884765625</ele>
        <time>2018-07-28T06:14:29Z</time>
      </trkpt>
      <trkpt lat="36.678581237793" lon="-4.99611186981201">
        <ele>1824.52587890625</ele>
        <time>2018-07-28T06:14:30Z</time>
      </trkpt>
      <trkpt lat="36.6785926818848" lon="-4.99610805511475">
        <ele>1824.19140625</ele>
        <time>2018-07-28T06:14:31Z</time>
      </trkpt>
      <trkpt lat="36.6786003112793" lon="-4.99610376358032">
        <ele>1824.029296875</ele>
        <time>2018-07-28T06:14:32Z</time>
      </trkpt>
      <trkpt lat="36.6786079406738" lon="-4.99610090255737">
        <ele>1823.81774902344</ele>
        <time>2018-07-28T06:14:33Z</time>
      </trkpt>
      <trkpt lat="36.6786155700684" lon="-4.99609899520874">
        <ele>1823.5732421875</ele>
        <time>2018-07-28T06:14:34Z</time>
      </trkpt>
      <trkpt lat="36.6786193847656" lon="-4.99609708786011">
        <ele>1823.48425292969</ele>
        <time>2018-07-28T06:14:35Z</time>
      </trkpt>
      <trkpt lat="36.6786270141602" lon="-4.99609422683716">
        <ele>1823.27319335938</ele>
        <time>2018-07-28T06:14:36Z</time>
      </trkpt>
      <trkpt lat="36.6786346435547" lon="-4.99609184265137">
        <ele>1823.04565429688</ele>
        <time>2018-07-28T06:14:37Z</time>
      </trkpt>
      <trkpt lat="36.678638458252" lon="-4.99609184265137">
        <ele>1822.89038085938</ele>
        <time>2018-07-28T06:14:38Z</time>
      </trkpt>
      <trkpt lat="36.6786460876465" lon="-4.99609422683716">
        <ele>1822.49645996094</ele>
        <time>2018-07-28T06:14:39Z</time>
      </trkpt>
      <trkpt lat="36.6786499023438" lon="-4.99609518051147">
        <ele>1822.30773925781</ele>
        <time>2018-07-28T06:14:40Z</time>
      </trkpt>
      <trkpt lat="36.678653717041" lon="-4.99609613418579">
        <ele>1822.11901855469</ele>
        <time>2018-07-28T06:14:41Z</time>
      </trkpt>
      <trkpt lat="36.6786575317383" lon="-4.99609613418579">
        <ele>1821.96362304688</ele>
        <time>2018-07-28T06:14:42Z</time>
      </trkpt>
      <trkpt lat="36.6786651611328" lon="-4.99609422683716">
        <ele>1821.71960449219</ele>
        <time>2018-07-28T06:14:43Z</time>
      </trkpt>
      <trkpt lat="36.6786727905273" lon="-4.99609184265137">
        <ele>1821.49243164062</ele>
        <time>2018-07-28T06:14:44Z</time>
      </trkpt>
      <trkpt lat="36.6786766052246" lon="-4.99608898162842">
        <ele>1821.4375</ele>
        <time>2018-07-28T06:14:45Z</time>
      </trkpt>
      <trkpt lat="36.6786842346191" lon="-4.99608612060547">
        <ele>1821.22741699219</ele>
        <time>2018-07-28T06:14:46Z</time>
      </trkpt>
      <trkpt lat="36.6786918640137" lon="-4.99608182907104">
        <ele>1821.06787109375</ele>
        <time>2018-07-28T06:14:47Z</time>
      </trkpt>
      <trkpt lat="36.6786956787109" lon="-4.99607992172241">
        <ele>1820.97973632812</ele>
        <time>2018-07-28T06:14:48Z</time>
      </trkpt>
      <trkpt lat="36.6786994934082" lon="-4.99607801437378">
        <ele>1820.89172363281</ele>
        <time>2018-07-28T06:14:49Z</time>
      </trkpt>
      <trkpt lat="36.6787033081055" lon="-4.99607706069946">
        <ele>1820.77026367188</ele>
        <time>2018-07-28T06:14:50Z</time>
      </trkpt>
      <trkpt lat="36.6787071228027" lon="-4.99607706069946">
        <ele>1820.61511230469</ele>
        <time>2018-07-28T06:14:51Z</time>
      </trkpt>
      <trkpt lat="36.6787147521973" lon="-4.99607801437378">
        <ele>1820.27136230469</ele>
        <time>2018-07-28T06:14:52Z</time>
      </trkpt>
      <trkpt lat="36.6787223815918" lon="-4.99607801437378">
        <ele>1819.96118164062</ele>
        <time>2018-07-28T06:14:53Z</time>
      </trkpt>
      <trkpt lat="36.6787300109863" lon="-4.99607706069946">
        <ele>1819.68469238281</ele>
        <time>2018-07-28T06:14:54Z</time>
      </trkpt>
      <trkpt lat="36.6787376403809" lon="-4.99607419967651">
        <ele>1819.4755859375</ele>
        <time>2018-07-28T06:14:55Z</time>
      </trkpt>
      <trkpt lat="36.6787414550781" lon="-4.99607086181641">
        <ele>1819.43859863281</ele>
        <time>2018-07-28T06:14:56Z</time>
      </trkpt>
      <trkpt lat="36.6787452697754" lon="-4.99606895446777">
        <ele>1819.35119628906</ele>
        <time>2018-07-28T06:14:57Z</time>
      </trkpt>
      <trkpt lat="36.6787528991699" lon="-4.99606704711914">
        <ele>1819.10876464844</ele>
        <time>2018-07-28T06:14:58Z</time>
      </trkpt>
      <trkpt lat="36.6787605285644" lon="-4.99606418609619">
        <ele>1818.900390625</ele>
        <time>2018-07-28T06:14:59Z</time>
      </trkpt>
      <trkpt lat="36.678768157959" lon="-4.99606084823608">
        <ele>1818.70910644531</ele>
        <time>2018-07-28T06:15:00Z</time>
      </trkpt>
      <trkpt lat="36.6787757873535" lon="-4.9960560798645">
        <ele>1818.56872558594</ele>
        <time>2018-07-28T06:15:01Z</time>
      </trkpt>
      <trkpt lat="36.678783416748" lon="-4.99604988098144">
        <ele>1818.47961425781</ele>
        <time>2018-07-28T06:15:02Z</time>
      </trkpt>
      <trkpt lat="36.6787910461426" lon="-4.99604320526123">
        <ele>1818.40783691406</ele>
        <time>2018-07-28T06:15:03Z</time>
      </trkpt>
      <trkpt lat="36.6787986755371" lon="-4.99603605270386">
        <ele>1818.353515625</ele>
        <time>2018-07-28T06:15:04Z</time>
      </trkpt>
      <trkpt lat="36.6788063049316" lon="-4.9960298538208">
        <ele>1818.26574707031</ele>
        <time>2018-07-28T06:15:05Z</time>
      </trkpt>
      <trkpt lat="36.6788139343262" lon="-4.99602603912354">
        <ele>1818.09313964844</ele>
        <time>2018-07-28T06:15:06Z</time>
      </trkpt>
      <trkpt lat="36.6788215637207" lon="-4.99602317810059">
        <ele>1817.88684082031</ele>
        <time>2018-07-28T06:15:07Z</time>
      </trkpt>
      <trkpt lat="36.678825378418" lon="-4.9960207939148">
        <ele>1817.81787109375</ele>
        <time>2018-07-28T06:15:08Z</time>
      </trkpt>
      <trkpt lat="36.6788330078125" lon="-4.99602317810059">
        <ele>1817.42431640625</ele>
        <time>2018-07-28T06:15:09Z</time>
      </trkpt>
      <trkpt lat="36.6788368225098" lon="-4.99602317810059">
        <ele>1817.27014160156</ele>
        <time>2018-07-28T06:15:10Z</time>
      </trkpt>
      <trkpt lat="36.6788444519043" lon="-4.99602222442627">
        <ele>1816.99584960938</ele>
        <time>2018-07-28T06:15:11Z</time>
      </trkpt>
      <trkpt lat="36.6788482666016" lon="-4.99601984024048">
        <ele>1816.92712402344</ele>
        <time>2018-07-28T06:15:12Z</time>
      </trkpt>
      <trkpt lat="36.6788520812988" lon="-4.99601984024048">
        <ele>1816.77294921875</ele>
        <time>2018-07-28T06:15:13Z</time>
      </trkpt>
      <trkpt lat="36.6788558959961" lon="-4.99601888656616">
        <ele>1816.65307617188</ele>
        <time>2018-07-28T06:15:14Z</time>
      </trkpt>
      <trkpt lat="36.6788597106934" lon="-4.99601888656616">
        <ele>1816.49890136719</ele>
        <time>2018-07-28T06:15:15Z</time>
      </trkpt>
      <trkpt lat="36.6788635253906" lon="-4.99601793289185">
        <ele>1816.37902832031</ele>
        <time>2018-07-28T06:15:16Z</time>
      </trkpt>
      <trkpt lat="36.6788673400879" lon="-4.99601697921753">
        <ele>1816.25915527344</ele>
        <time>2018-07-28T06:15:17Z</time>
      </trkpt>
      <trkpt lat="36.6788749694824" lon="-4.99601602554321">
        <ele>1815.98522949219</ele>
        <time>2018-07-28T06:15:18Z</time>
      </trkpt>
      <trkpt lat="36.6788787841797" lon="-4.9960150718689">
        <ele>1815.86547851562</ele>
        <time>2018-07-28T06:15:19Z</time>
      </trkpt>
      <trkpt lat="36.678882598877" lon="-4.99601411819458">
        <ele>1815.74572753906</ele>
        <time>2018-07-28T06:15:20Z</time>
      </trkpt>
      <trkpt lat="36.678882598877" lon="-4.9960150718689">
        <ele>1815.71142578125</ele>
        <time>2018-07-28T06:15:21Z</time>
      </trkpt>
      <trkpt lat="36.678882598877" lon="-4.99601602554321">
        <ele>1815.67712402344</ele>
        <time>2018-07-28T06:15:22Z</time>
      </trkpt>
      <trkpt lat="36.678882598877" lon="-4.99601697921753">
        <ele>1815.64282226562</ele>
        <time>2018-07-28T06:15:23Z</time>
      </trkpt>
      <trkpt lat="36.6788864135742" lon="-4.99601888656616">
        <ele>1815.42004394531</ele>
        <time>2018-07-28T06:15:24Z</time>
      </trkpt>
      <trkpt lat="36.6788902282715" lon="-4.99601888656616">
        <ele>1815.26599121094</ele>
        <time>2018-07-28T06:15:25Z</time>
      </trkpt>
      <trkpt lat="36.6788940429688" lon="-4.9960207939148">
        <ele>1815.04309082031</ele>
        <time>2018-07-28T06:15:26Z</time>
      </trkpt>
      <trkpt lat="36.678897857666" lon="-4.9960207939148">
        <ele>1814.88903808594</ele>
        <time>2018-07-28T06:15:27Z</time>
      </trkpt>
      <trkpt lat="36.6789016723633" lon="-4.99602317810059">
        <ele>1814.64892578125</ele>
        <time>2018-07-28T06:15:28Z</time>
      </trkpt>
      <trkpt lat="36.6789093017578" lon="-4.99602317810059">
        <ele>1814.34045410156</ele>
        <time>2018-07-28T06:15:29Z</time>
      </trkpt>
      <trkpt lat="36.6789169311523" lon="-4.99602222442627">
        <ele>1814.06652832031</ele>
        <time>2018-07-28T06:15:30Z</time>
      </trkpt>
      <trkpt lat="36.6789207458496" lon="-4.9960207939148">
        <ele>1813.96411132812</ele>
        <time>2018-07-28T06:15:31Z</time>
      </trkpt>
      <trkpt lat="36.6789283752441" lon="-4.99601984024048">
        <ele>1813.69030761719</ele>
        <time>2018-07-28T06:15:32Z</time>
      </trkpt>
      <trkpt lat="36.6789321899414" lon="-4.99601888656616">
        <ele>1813.57067871094</ele>
        <time>2018-07-28T06:15:33Z</time>
      </trkpt>
      <trkpt lat="36.6789360046387" lon="-4.9960207939148">
        <ele>1813.34753417969</ele>
        <time>2018-07-28T06:15:34Z</time>
      </trkpt>
      <trkpt lat="36.6789398193359" lon="-4.99602317810059">
        <ele>1813.10693359375</ele>
        <time>2018-07-28T06:15:35Z</time>
      </trkpt>
      <trkpt lat="36.6789436340332" lon="-4.9960241317749">
        <ele>1812.91821289062</ele>
        <time>2018-07-28T06:15:36Z</time>
      </trkpt>
      <trkpt lat="36.6789474487305" lon="-4.99602222442627">
        <ele>1812.83312988281</ele>
        <time>2018-07-28T06:15:37Z</time>
      </trkpt>
      <trkpt lat="36.678955078125" lon="-4.99601888656616">
        <ele>1812.64587402344</ele>
        <time>2018-07-28T06:15:38Z</time>
      </trkpt>
      <trkpt lat="36.6789588928223" lon="-4.99601602554321">
        <ele>1812.595703125</ele>
        <time>2018-07-28T06:15:39Z</time>
      </trkpt>
      <trkpt lat="36.6789627075195" lon="-4.99601411819458">
        <ele>1812.51086425781</ele>
        <time>2018-07-28T06:15:40Z</time>
      </trkpt>
      <trkpt lat="36.6789703369141" lon="-4.9960150718689">
        <ele>1812.16809082031</ele>
        <time>2018-07-28T06:15:41Z</time>
      </trkpt>
      <trkpt lat="36.6789741516113" lon="-4.9960150718689">
        <ele>1812.01403808594</ele>
        <time>2018-07-28T06:15:42Z</time>
      </trkpt>
      <trkpt lat="36.6789779663086" lon="-4.9960150718689">
        <ele>1811.85998535156</ele>
        <time>2018-07-28T06:15:43Z</time>
      </trkpt>
      <trkpt lat="36.6789817810059" lon="-4.99601411819458">
        <ele>1811.74072265625</ele>
        <time>2018-07-28T06:15:44Z</time>
      </trkpt>
      <trkpt lat="36.6789855957031" lon="-4.99601316452026">
        <ele>1811.62133789062</ele>
        <time>2018-07-28T06:15:45Z</time>
      </trkpt>
      <trkpt lat="36.6789932250977" lon="-4.99601316452026">
        <ele>1811.31335449219</ele>
        <time>2018-07-28T06:15:46Z</time>
      </trkpt>
      <trkpt lat="36.6790008544922" lon="-4.99601316452026">
        <ele>1811.00524902344</ele>
        <time>2018-07-28T06:15:47Z</time>
      </trkpt>
      <trkpt lat="36.6790084838867" lon="-4.99601078033447">
        <ele>1810.78430175781</ele>
        <time>2018-07-28T06:15:48Z</time>
      </trkpt>
      <trkpt lat="36.6790161132812" lon="-4.99600696563721">
        <ele>1810.61572265625</ele>
        <time>2018-07-28T06:15:49Z</time>
      </trkpt>
      <trkpt lat="36.6790237426758" lon="-4.99600505828857">
        <ele>1810.37768554688</ele>
        <time>2018-07-28T06:15:50Z</time>
      </trkpt>
      <trkpt lat="36.6790313720703" lon="-4.99600505828857">
        <ele>1810.06982421875</ele>
        <time>2018-07-28T06:15:51Z</time>
      </trkpt>
      <trkpt lat="36.6790351867676" lon="-4.99600601196289">
        <ele>1809.88098144531</ele>
        <time>2018-07-28T06:15:52Z</time>
      </trkpt>
      <trkpt lat="36.6790351867676" lon="-4.99600887298584">
        <ele>1809.77624511719</ele>
        <time>2018-07-28T06:15:53Z</time>
      </trkpt>
      <trkpt lat="36.6790390014648" lon="-4.99601316452026">
        <ele>1809.46496582031</ele>
        <time>2018-07-28T06:15:54Z</time>
      </trkpt>
      <trkpt lat="36.6790466308594" lon="-4.99601793289185">
        <ele>1808.98205566406</ele>
        <time>2018-07-28T06:15:55Z</time>
      </trkpt>
      <trkpt lat="36.6790504455566" lon="-4.99602222442627">
        <ele>1808.67041015625</ele>
        <time>2018-07-28T06:15:56Z</time>
      </trkpt>
      <trkpt lat="36.6790542602539" lon="-4.99602317810059">
        <ele>1808.48120117188</ele>
        <time>2018-07-28T06:15:57Z</time>
      </trkpt>
      <trkpt lat="36.6790542602539" lon="-4.99602508544922">
        <ele>1808.41125488281</ele>
        <time>2018-07-28T06:15:58Z</time>
      </trkpt>
      <trkpt lat="36.6790580749512" lon="-4.99602699279785">
        <ele>1808.18688964844</ele>
        <time>2018-07-28T06:15:59Z</time>
      </trkpt>
      <trkpt lat="36.6790618896484" lon="-4.99602794647217">
        <ele>1807.99768066406</ele>
        <time>2018-07-28T06:16:00Z</time>
      </trkpt>
      <trkpt lat="36.679069519043" lon="-4.99603080749512">
        <ele>1807.58386230469</ele>
        <time>2018-07-28T06:16:01Z</time>
      </trkpt>
      <trkpt lat="36.6790771484375" lon="-4.99603605270386">
        <ele>1807.08215332031</ele>
        <time>2018-07-28T06:16:02Z</time>
      </trkpt>
      <trkpt lat="36.679084777832" lon="-4.99603986740112">
        <ele>1806.6328125</ele>
        <time>2018-07-28T06:16:03Z</time>
      </trkpt>
      <trkpt lat="36.6790962219238" lon="-4.99604082107544">
        <ele>1806.13415527344</ele>
        <time>2018-07-28T06:16:04Z</time>
      </trkpt>
      <trkpt lat="36.6791076660156" lon="-4.99603700637817">
        <ele>1805.81164550781</ele>
        <time>2018-07-28T06:16:05Z</time>
      </trkpt>
      <trkpt lat="36.6791152954102" lon="-4.99603414535522">
        <ele>1805.60864257812</ele>
        <time>2018-07-28T06:16:06Z</time>
      </trkpt>
      <trkpt lat="36.679126739502" lon="-4.9960298538208">
        <ele>1805.30444335938</ele>
        <time>2018-07-28T06:16:07Z</time>
      </trkpt>
      <trkpt lat="36.6791305541992" lon="-4.99602699279785">
        <ele>1805.25610351562</ele>
        <time>2018-07-28T06:16:08Z</time>
      </trkpt>
      <trkpt lat="36.6791381835938" lon="-4.99602317810059">
        <ele>1805.08911132812</ele>
        <time>2018-07-28T06:16:09Z</time>
      </trkpt>
      <trkpt lat="36.679141998291" lon="-4.99601888656616">
        <ele>1805.09411621094</ele>
        <time>2018-07-28T06:16:10Z</time>
      </trkpt>
      <trkpt lat="36.679141998291" lon="-4.99601888656616">
        <ele>1805.09411621094</ele>
        <time>2018-07-28T06:16:11Z</time>
      </trkpt>
      <trkpt lat="36.679141998291" lon="-4.9960207939148">
        <ele>1805.02331542969</ele>
        <time>2018-07-28T06:16:12Z</time>
      </trkpt>
      <trkpt lat="36.679141998291" lon="-4.99602794647217">
        <ele>1804.75805664062</ele>
        <time>2018-07-28T06:16:13Z</time>
      </trkpt>
      <trkpt lat="36.6791458129883" lon="-4.99603319168091">
        <ele>1804.40905761719</ele>
        <time>2018-07-28T06:16:14Z</time>
      </trkpt>
      <trkpt lat="36.6791496276856" lon="-4.99603509902954">
        <ele>1804.18395996094</ele>
        <time>2018-07-28T06:16:15Z</time>
      </trkpt>
      <trkpt lat="36.6791572570801" lon="-4.99603509902954">
        <ele>1803.87512207031</ele>
        <time>2018-07-28T06:16:16Z</time>
      </trkpt>
      <trkpt lat="36.6791610717773" lon="-4.99603223800659">
        <ele>1803.8271484375</ele>
        <time>2018-07-28T06:16:17Z</time>
      </trkpt>
      <trkpt lat="36.6791648864746" lon="-4.9960298538208">
        <ele>1803.76147460938</ele>
        <time>2018-07-28T06:16:18Z</time>
      </trkpt>
      <trkpt lat="36.6791687011719" lon="-4.99602699279785">
        <ele>1803.72583007812</ele>
        <time>2018-07-28T06:16:19Z</time>
      </trkpt>
      <trkpt lat="36.6791725158691" lon="-4.99602699279785">
        <ele>1803.59448242188</ele>
        <time>2018-07-28T06:16:20Z</time>
      </trkpt>
      <trkpt lat="36.6791763305664" lon="-4.99602603912354">
        <ele>1803.49853515625</ele>
        <time>2018-07-28T06:16:21Z</time>
      </trkpt>
      <trkpt lat="36.6791763305664" lon="-4.99602508544922">
        <ele>1803.53405761719</ele>
        <time>2018-07-28T06:16:22Z</time>
      </trkpt>
      <trkpt lat="36.6791763305664" lon="-4.9960241317749">
        <ele>1803.56958007812</ele>
        <time>2018-07-28T06:16:23Z</time>
      </trkpt>
      <trkpt lat="36.6791763305664" lon="-4.99602508544922">
        <ele>1803.53405761719</ele>
        <time>2018-07-28T06:16:24Z</time>
      </trkpt>
      <trkpt lat="36.6791763305664" lon="-4.99602699279785">
        <ele>1803.46313476562</ele>
        <time>2018-07-28T06:16:25Z</time>
      </trkpt>
      <trkpt lat="36.6791763305664" lon="-4.99602794647217">
        <ele>1803.42761230469</ele>
        <time>2018-07-28T06:16:26Z</time>
      </trkpt>
      <trkpt lat="36.6791763305664" lon="-4.9960298538208">
        <ele>1803.35656738281</ele>
        <time>2018-07-28T06:16:27Z</time>
      </trkpt>
      <trkpt lat="36.6791801452637" lon="-4.99603223800659">
        <ele>1803.13623046875</ele>
        <time>2018-07-28T06:16:28Z</time>
      </trkpt>
      <trkpt lat="36.6791839599609" lon="-4.99603414535522">
        <ele>1802.93371582031</ele>
        <time>2018-07-28T06:16:29Z</time>
      </trkpt>
      <trkpt lat="36.6791877746582" lon="-4.99603414535522">
        <ele>1802.80224609375</ele>
        <time>2018-07-28T06:16:30Z</time>
      </trkpt>
      <trkpt lat="36.6791915893555" lon="-4.99603509902954">
        <ele>1802.63513183594</ele>
        <time>2018-07-28T06:16:31Z</time>
      </trkpt>
      <trkpt lat="36.6791954040527" lon="-4.99603605270386">
        <ele>1802.46813964844</ele>
        <time>2018-07-28T06:16:32Z</time>
      </trkpt>
      <trkpt lat="36.67919921875" lon="-4.99603700637817">
        <ele>1802.30102539062</ele>
        <time>2018-07-28T06:16:33Z</time>
      </trkpt>
      <trkpt lat="36.6792068481445" lon="-4.99603414535522">
        <ele>1802.14489746094</ele>
        <time>2018-07-28T06:16:34Z</time>
      </trkpt>
      <trkpt lat="36.6792106628418" lon="-4.99602890014648">
        <ele>1802.20947265625</ele>
        <time>2018-07-28T06:16:35Z</time>
      </trkpt>
      <trkpt lat="36.6792144775391" lon="-4.99602603912354">
        <ele>1802.18505859375</ele>
        <time>2018-07-28T06:16:36Z</time>
      </trkpt>
      <trkpt lat="36.6792182922363" lon="-4.99602508544922">
        <ele>1802.08947753906</ele>
        <time>2018-07-28T06:16:37Z</time>
      </trkpt>
      <trkpt lat="36.6792221069336" lon="-4.99602699279785">
        <ele>1801.88671875</ele>
        <time>2018-07-28T06:16:38Z</time>
      </trkpt>
      <trkpt lat="36.6792259216309" lon="-4.99602890014648">
        <ele>1801.68383789062</ele>
        <time>2018-07-28T06:16:39Z</time>
      </trkpt>
      <trkpt lat="36.6792297363281" lon="-4.99603080749512">
        <ele>1801.48095703125</ele>
        <time>2018-07-28T06:16:40Z</time>
      </trkpt>
      <trkpt lat="36.6792335510254" lon="-4.99603414535522">
        <ele>1801.22448730469</ele>
        <time>2018-07-28T06:16:41Z</time>
      </trkpt>
      <trkpt lat="36.6792335510254" lon="-4.99603796005249">
        <ele>1801.08142089844</ele>
        <time>2018-07-28T06:16:42Z</time>
      </trkpt>
      <trkpt lat="36.6792335510254" lon="-4.99604320526123">
        <ele>1800.884765625</ele>
        <time>2018-07-28T06:16:43Z</time>
      </trkpt>
      <trkpt lat="36.6792335510254" lon="-4.99605178833008">
        <ele>1800.56298828125</ele>
        <time>2018-07-28T06:16:44Z</time>
      </trkpt>
      <trkpt lat="36.6792297363281" lon="-4.9960618019104">
        <ele>1800.31958007812</ele>
        <time>2018-07-28T06:16:45Z</time>
      </trkpt>
      <trkpt lat="36.6792259216309" lon="-4.99607086181641">
        <ele>1800.11218261719</ele>
        <time>2018-07-28T06:16:46Z</time>
      </trkpt>
      <trkpt lat="36.6792259216309" lon="-4.99607706069946">
        <ele>1799.88000488281</ele>
        <time>2018-07-28T06:16:47Z</time>
      </trkpt>
      <trkpt lat="36.6792259216309" lon="-4.99608612060547">
        <ele>1799.54064941406</ele>
        <time>2018-07-28T06:16:48Z</time>
      </trkpt>
      <trkpt lat="36.6792221069336" lon="-4.99609613418579">
        <ele>1799.29809570312</ele>
        <time>2018-07-28T06:16:49Z</time>
      </trkpt>
      <trkpt lat="36.6792221069336" lon="-4.99610805511475">
        <ele>1798.85180664062</ele>
        <time>2018-07-28T06:16:50Z</time>
      </trkpt>
      <trkpt lat="36.6792221069336" lon="-4.99611806869507">
        <ele>1798.47680664062</ele>
        <time>2018-07-28T06:16:51Z</time>
      </trkpt>
      <trkpt lat="36.6792221069336" lon="-4.99612617492676">
        <ele>1798.17333984375</ele>
        <time>2018-07-28T06:16:52Z</time>
      </trkpt>
      <trkpt lat="36.6792221069336" lon="-4.99612903594971">
        <ele>1798.06628417969</ele>
        <time>2018-07-28T06:16:53Z</time>
      </trkpt>
      <trkpt lat="36.6792259216309" lon="-4.99612998962402">
        <ele>1797.8974609375</ele>
        <time>2018-07-28T06:16:54Z</time>
      </trkpt>
      <trkpt lat="36.6792259216309" lon="-4.99612808227539">
        <ele>1797.96887207031</ele>
        <time>2018-07-28T06:16:55Z</time>
      </trkpt>
      <trkpt lat="36.6792259216309" lon="-4.99612617492676">
        <ele>1798.04040527344</ele>
        <time>2018-07-28T06:16:56Z</time>
      </trkpt>
      <trkpt lat="36.6792297363281" lon="-4.99612522125244">
        <ele>1797.94311523438</ele>
        <time>2018-07-28T06:16:57Z</time>
      </trkpt>
      <trkpt lat="36.6792297363281" lon="-4.99612617492676">
        <ele>1797.90734863281</ele>
        <time>2018-07-28T06:16:58Z</time>
      </trkpt>
      <trkpt lat="36.6792297363281" lon="-4.99612808227539">
        <ele>1797.8359375</ele>
        <time>2018-07-28T06:16:59Z</time>
      </trkpt>
      <trkpt lat="36.6792297363281" lon="-4.99613189697266">
        <ele>1797.69299316406</ele>
        <time>2018-07-28T06:17:00Z</time>
      </trkpt>
      <trkpt lat="36.6792297363281" lon="-4.99613618850708">
        <ele>1797.53210449219</ele>
        <time>2018-07-28T06:17:01Z</time>
      </trkpt>
      <trkpt lat="36.6792335510254" lon="-4.99614000320435">
        <ele>1797.25598144531</ele>
        <time>2018-07-28T06:17:02Z</time>
      </trkpt>
      <trkpt lat="36.6792335510254" lon="-4.99614095687866">
        <ele>1797.22021484375</ele>
        <time>2018-07-28T06:17:03Z</time>
      </trkpt>
      <trkpt lat="36.6792335510254" lon="-4.99614191055298">
        <ele>1797.18444824219</ele>
        <time>2018-07-28T06:17:04Z</time>
      </trkpt>
      <trkpt lat="36.6792335510254" lon="-4.9961428642273">
        <ele>1797.14868164062</ele>
        <time>2018-07-28T06:17:05Z</time>
      </trkpt>
      <trkpt lat="36.6792335510254" lon="-4.9961428642273">
        <ele>1797.14868164062</ele>
        <time>2018-07-28T06:17:06Z</time>
      </trkpt>
      <trkpt lat="36.6792373657227" lon="-4.99614381790161">
        <ele>1796.97961425781</ele>
        <time>2018-07-28T06:17:07Z</time>
      </trkpt>
      <trkpt lat="36.6792373657227" lon="-4.9961462020874">
        <ele>1796.89025878906</ele>
        <time>2018-07-28T06:17:08Z</time>
      </trkpt>
      <trkpt lat="36.6792373657227" lon="-4.99614906311035">
        <ele>1796.78295898438</ele>
        <time>2018-07-28T06:17:09Z</time>
      </trkpt>
      <trkpt lat="36.6792373657227" lon="-4.99615097045898">
        <ele>1796.71142578125</ele>
        <time>2018-07-28T06:17:10Z</time>
      </trkpt>
      <trkpt lat="36.6792373657227" lon="-4.99615287780762">
        <ele>1796.63989257812</ele>
        <time>2018-07-28T06:17:11Z</time>
      </trkpt>
      <trkpt lat="36.6792335510254" lon="-4.99615716934204">
        <ele>1796.61242675781</ele>
        <time>2018-07-28T06:17:12Z</time>
      </trkpt>
      <trkpt lat="36.6792335510254" lon="-4.99616098403931">
        <ele>1796.46936035156</ele>
        <time>2018-07-28T06:17:13Z</time>
      </trkpt>
      <trkpt lat="36.6792297363281" lon="-4.99616718292236">
        <ele>1796.37072753906</ele>
        <time>2018-07-28T06:17:14Z</time>
      </trkpt>
      <trkpt lat="36.6792297363281" lon="-4.99617195129394">
        <ele>1796.19201660156</ele>
        <time>2018-07-28T06:17:15Z</time>
      </trkpt>
      <trkpt lat="36.6792259216309" lon="-4.99617719650269">
        <ele>1796.12927246094</ele>
        <time>2018-07-28T06:17:16Z</time>
      </trkpt>
      <trkpt lat="36.6792182922363" lon="-4.99618291854858">
        <ele>1796.18286132812</ele>
        <time>2018-07-28T06:17:17Z</time>
      </trkpt>
      <trkpt lat="36.6792144775391" lon="-4.99619007110596">
        <ele>1796.04919433594</ele>
        <time>2018-07-28T06:17:18Z</time>
      </trkpt>
      <trkpt lat="36.6792106628418" lon="-4.99619483947754">
        <ele>1796.00500488281</ele>
        <time>2018-07-28T06:17:19Z</time>
      </trkpt>
      <trkpt lat="36.6792068481445" lon="-4.99619913101196">
        <ele>1795.97875976562</ele>
        <time>2018-07-28T06:17:20Z</time>
      </trkpt>
      <trkpt lat="36.67919921875" lon="-4.99620199203491">
        <ele>1796.14025878906</ele>
        <time>2018-07-28T06:17:21Z</time>
      </trkpt>
      <trkpt lat="36.6791954040527" lon="-4.99620485305786">
        <ele>1796.16772460938</ele>
        <time>2018-07-28T06:17:22Z</time>
      </trkpt>
      <trkpt lat="36.6791915893555" lon="-4.99621105194092">
        <ele>1796.07080078125</ele>
        <time>2018-07-28T06:17:23Z</time>
      </trkpt>
      <trkpt lat="36.6791839599609" lon="-4.99621915817261">
        <ele>1796.03747558594</ele>
        <time>2018-07-28T06:17:24Z</time>
      </trkpt>
      <trkpt lat="36.6791801452637" lon="-4.99622678756714">
        <ele>1795.8876953125</ele>
        <time>2018-07-28T06:17:25Z</time>
      </trkpt>
      <trkpt lat="36.6791763305664" lon="-4.99623823165894">
        <ele>1795.59619140625</ele>
        <time>2018-07-28T06:17:26Z</time>
      </trkpt>
      <trkpt lat="36.6791725158691" lon="-4.99624919891357">
        <ele>1795.32275390625</ele>
        <time>2018-07-28T06:17:27Z</time>
      </trkpt>
      <trkpt lat="36.6791648864746" lon="-4.99626207351685">
        <ele>1795.12463378906</ele>
        <time>2018-07-28T06:17:28Z</time>
      </trkpt>
      <trkpt lat="36.6791610717773" lon="-4.9962739944458">
        <ele>1794.83959960938</ele>
        <time>2018-07-28T06:17:29Z</time>
      </trkpt>
      <trkpt lat="36.6791534423828" lon="-4.99628496170044">
        <ele>1794.74890136719</ele>
        <time>2018-07-28T06:17:30Z</time>
      </trkpt>
      <trkpt lat="36.6791496276856" lon="-4.99629497528076">
        <ele>1794.53564453125</ele>
        <time>2018-07-28T06:17:31Z</time>
      </trkpt>
      <trkpt lat="36.679141998291" lon="-4.99630212783814">
        <ele>1794.58764648438</ele>
        <time>2018-07-28T06:17:32Z</time>
      </trkpt>
      <trkpt lat="36.6791381835938" lon="-4.9963059425354">
        <ele>1794.60498046875</ele>
        <time>2018-07-28T06:17:33Z</time>
      </trkpt>
      <trkpt lat="36.6791305541992" lon="-4.99631023406982">
        <ele>1794.76379394531</ele>
        <time>2018-07-28T06:17:34Z</time>
      </trkpt>
      <trkpt lat="36.679126739502" lon="-4.99631500244141">
        <ele>1794.74609375</ele>
        <time>2018-07-28T06:17:35Z</time>
      </trkpt>
      <trkpt lat="36.6791229248047" lon="-4.99631977081299">
        <ele>1794.72863769531</ele>
        <time>2018-07-28T06:17:36Z</time>
      </trkpt>
      <trkpt lat="36.6791191101074" lon="-4.99632501602173">
        <ele>1794.69360351562</ele>
        <time>2018-07-28T06:17:37Z</time>
      </trkpt>
      <trkpt lat="36.6791152954102" lon="-4.99632787704468">
        <ele>1794.7470703125</ele>
        <time>2018-07-28T06:17:38Z</time>
      </trkpt>
      <trkpt lat="36.6791152954102" lon="-4.99633121490478">
        <ele>1794.62365722656</ele>
        <time>2018-07-28T06:17:39Z</time>
      </trkpt>
      <trkpt lat="36.6791152954102" lon="-4.99633312225342">
        <ele>1794.55310058594</ele>
        <time>2018-07-28T06:17:40Z</time>
      </trkpt>
      <trkpt lat="36.6791152954102" lon="-4.99633502960205">
        <ele>1794.48254394531</ele>
        <time>2018-07-28T06:17:41Z</time>
      </trkpt>
      <trkpt lat="36.6791114807129" lon="-4.99633979797363">
        <ele>1794.46557617188</ele>
        <time>2018-07-28T06:17:42Z</time>
      </trkpt>
      <trkpt lat="36.6791076660156" lon="-4.99634599685669">
        <ele>1794.39599609375</ele>
        <time>2018-07-28T06:17:43Z</time>
      </trkpt>
      <trkpt lat="36.6791038513184" lon="-4.99635410308838">
        <ele>1794.25622558594</ele>
        <time>2018-07-28T06:17:44Z</time>
      </trkpt>
      <trkpt lat="36.6791038513184" lon="-4.99636220932007">
        <ele>1793.95678710938</ele>
        <time>2018-07-28T06:17:45Z</time>
      </trkpt>
      <trkpt lat="36.6791038513184" lon="-4.99636888504028">
        <ele>1793.71032714844</ele>
        <time>2018-07-28T06:17:46Z</time>
      </trkpt>
      <trkpt lat="36.6791038513184" lon="-4.99637699127197">
        <ele>1793.41088867188</ele>
        <time>2018-07-28T06:17:47Z</time>
      </trkpt>
      <trkpt lat="36.6791038513184" lon="-4.99638319015503">
        <ele>1793.18200683594</ele>
        <time>2018-07-28T06:17:48Z</time>
      </trkpt>
      <trkpt lat="36.6791076660156" lon="-4.99638795852661">
        <ele>1792.845703125</ele>
        <time>2018-07-28T06:17:49Z</time>
      </trkpt>
      <trkpt lat="36.6791114807129" lon="-4.99638795852661">
        <ele>1792.685546875</ele>
        <time>2018-07-28T06:17:50Z</time>
      </trkpt>
      <trkpt lat="36.6791114807129" lon="-4.99638795852661">
        <ele>1792.685546875</ele>
        <time>2018-07-28T06:17:51Z</time>
      </trkpt>
      <trkpt lat="36.6791114807129" lon="-4.9963870048523">
        <ele>1792.72082519531</ele>
        <time>2018-07-28T06:17:52Z</time>
      </trkpt>
      <trkpt lat="36.6791114807129" lon="-4.9963870048523">
        <ele>1792.72082519531</ele>
        <time>2018-07-28T06:17:53Z</time>
      </trkpt>
      <trkpt lat="36.6791152954102" lon="-4.99638605117798">
        <ele>1792.59582519531</ele>
        <time>2018-07-28T06:17:54Z</time>
      </trkpt>
      <trkpt lat="36.6791191101074" lon="-4.99638605117798">
        <ele>1792.43566894531</ele>
        <time>2018-07-28T06:17:55Z</time>
      </trkpt>
      <trkpt lat="36.679126739502" lon="-4.99638605117798">
        <ele>1792.11535644531</ele>
        <time>2018-07-28T06:17:56Z</time>
      </trkpt>
      <trkpt lat="36.6791343688965" lon="-4.99638795852661">
        <ele>1791.72436523438</ele>
        <time>2018-07-28T06:17:57Z</time>
      </trkpt>
      <trkpt lat="36.6791381835938" lon="-4.99638986587524">
        <ele>1791.49340820312</ele>
        <time>2018-07-28T06:17:58Z</time>
      </trkpt>
      <trkpt lat="36.679141998291" lon="-4.99639081954956">
        <ele>1791.29772949219</ele>
        <time>2018-07-28T06:17:59Z</time>
      </trkpt>
      <trkpt lat="36.6791458129883" lon="-4.99638986587524">
        <ele>1791.17297363281</ele>
        <time>2018-07-28T06:18:00Z</time>
      </trkpt>
      <trkpt lat="36.6791496276856" lon="-4.99638891220093">
        <ele>1791.04809570312</ele>
        <time>2018-07-28T06:18:01Z</time>
      </trkpt>
      <trkpt lat="36.6791534423828" lon="-4.99638891220093">
        <ele>1790.88793945312</ele>
        <time>2018-07-28T06:18:02Z</time>
      </trkpt>
      <trkpt lat="36.6791572570801" lon="-4.99638986587524">
        <ele>1790.69226074219</ele>
        <time>2018-07-28T06:18:03Z</time>
      </trkpt>
      <trkpt lat="36.6791610717773" lon="-4.99638986587524">
        <ele>1790.53198242188</ele>
        <time>2018-07-28T06:18:04Z</time>
      </trkpt>
      <trkpt lat="36.6791687011719" lon="-4.99639081954956">
        <ele>1790.18823242188</ele>
        <time>2018-07-28T06:18:05Z</time>
      </trkpt>
      <trkpt lat="36.6791763305664" lon="-4.99639081954956">
        <ele>1789.91357421875</ele>
        <time>2018-07-28T06:18:06Z</time>
      </trkpt>
      <trkpt lat="36.6791763305664" lon="-4.99639177322388">
        <ele>1789.87805175781</ele>
        <time>2018-07-28T06:18:07Z</time>
      </trkpt>
      <trkpt lat="36.6791801452637" lon="-4.99639177322388">
        <ele>1789.74060058594</ele>
        <time>2018-07-28T06:18:08Z</time>
      </trkpt>
      <trkpt lat="36.6791801452637" lon="-4.99639081954956">
        <ele>1789.77612304688</ele>
        <time>2018-07-28T06:18:09Z</time>
      </trkpt>
      <trkpt lat="36.6791839599609" lon="-4.99638986587524">
        <ele>1789.67431640625</ele>
        <time>2018-07-28T06:18:10Z</time>
      </trkpt>
      <trkpt lat="36.6791877746582" lon="-4.99639081954956">
        <ele>1789.50146484375</ele>
        <time>2018-07-28T06:18:11Z</time>
      </trkpt>
      <trkpt lat="36.6791915893555" lon="-4.99639081954956">
        <ele>1789.36413574219</ele>
        <time>2018-07-28T06:18:12Z</time>
      </trkpt>
      <trkpt lat="36.6791954040527" lon="-4.99638986587524">
        <ele>1789.26232910156</ele>
        <time>2018-07-28T06:18:13Z</time>
      </trkpt>
      <trkpt lat="36.67919921875" lon="-4.9963870048523">
        <ele>1789.23181152344</ele>
        <time>2018-07-28T06:18:14Z</time>
      </trkpt>
      <trkpt lat="36.67919921875" lon="-4.99638319015503">
        <ele>1789.37426757812</ele>
        <time>2018-07-28T06:18:15Z</time>
      </trkpt>
      <trkpt lat="36.67919921875" lon="-4.99638080596924">
        <ele>1789.46325683594</ele>
        <time>2018-07-28T06:18:16Z</time>
      </trkpt>
      <trkpt lat="36.67919921875" lon="-4.99638080596924">
        <ele>1789.46325683594</ele>
        <time>2018-07-28T06:18:17Z</time>
      </trkpt>
      <trkpt lat="36.6792030334473" lon="-4.99637985229492">
        <ele>1789.36169433594</ele>
        <time>2018-07-28T06:18:18Z</time>
      </trkpt>
      <trkpt lat="36.6792068481445" lon="-4.99637699127197">
        <ele>1789.33142089844</ele>
        <time>2018-07-28T06:18:19Z</time>
      </trkpt>
      <trkpt lat="36.6792068481445" lon="-4.99637317657471">
        <ele>1789.47399902344</ele>
        <time>2018-07-28T06:18:20Z</time>
      </trkpt>
      <trkpt lat="36.6792068481445" lon="-4.9963698387146">
        <ele>1789.59875488281</ele>
        <time>2018-07-28T06:18:21Z</time>
      </trkpt>
      <trkpt lat="36.6792068481445" lon="-4.99636888504028">
        <ele>1789.63439941406</ele>
        <time>2018-07-28T06:18:22Z</time>
      </trkpt>
      <trkpt lat="36.6792030334473" lon="-4.99636888504028">
        <ele>1789.77136230469</ele>
        <time>2018-07-28T06:18:23Z</time>
      </trkpt>
      <trkpt lat="36.6792030334473" lon="-4.9963698387146">
        <ele>1789.73583984375</ele>
        <time>2018-07-28T06:18:24Z</time>
      </trkpt>
      <trkpt lat="36.6792068481445" lon="-4.99637222290039">
        <ele>1789.50964355469</ele>
        <time>2018-07-28T06:18:25Z</time>
      </trkpt>
      <trkpt lat="36.6792068481445" lon="-4.99637222290039">
        <ele>1789.50964355469</ele>
        <time>2018-07-28T06:18:26Z</time>
      </trkpt>
      <trkpt lat="36.6792144775391" lon="-4.99637222290039">
        <ele>1789.23559570312</ele>
        <time>2018-07-28T06:18:27Z</time>
      </trkpt>
      <trkpt lat="36.6792182922363" lon="-4.99637079238892">
        <ele>1789.15197753906</ele>
        <time>2018-07-28T06:18:28Z</time>
      </trkpt>
      <trkpt lat="36.6792221069336" lon="-4.99637079238892">
        <ele>1789.01501464844</ele>
        <time>2018-07-28T06:18:29Z</time>
      </trkpt>
      <trkpt lat="36.6792259216309" lon="-4.99637222290039">
        <ele>1788.82434082031</ele>
        <time>2018-07-28T06:18:30Z</time>
      </trkpt>
      <trkpt lat="36.6792297363281" lon="-4.99637317657471">
        <ele>1788.65161132812</ele>
        <time>2018-07-28T06:18:31Z</time>
      </trkpt>
      <trkpt lat="36.6792335510254" lon="-4.99637508392334">
        <ele>1788.44299316406</ele>
        <time>2018-07-28T06:18:32Z</time>
      </trkpt>
      <trkpt lat="36.6792411804199" lon="-4.99637603759766">
        <ele>1788.13305664062</ele>
        <time>2018-07-28T06:18:33Z</time>
      </trkpt>
      <trkpt lat="36.6792449951172" lon="-4.99637508392334">
        <ele>1788.03173828125</ele>
        <time>2018-07-28T06:18:34Z</time>
      </trkpt>
      <trkpt lat="36.6792488098144" lon="-4.99637222290039">
        <ele>1788.00207519531</ele>
        <time>2018-07-28T06:18:35Z</time>
      </trkpt>
      <trkpt lat="36.6792526245117" lon="-4.9963698387146">
        <ele>1787.95458984375</ele>
        <time>2018-07-28T06:18:36Z</time>
      </trkpt>
      <trkpt lat="36.679256439209" lon="-4.99636793136597">
        <ele>1787.88928222656</ele>
        <time>2018-07-28T06:18:37Z</time>
      </trkpt>
      <trkpt lat="36.6792602539062" lon="-4.99636602401733">
        <ele>1787.82397460938</ele>
        <time>2018-07-28T06:18:38Z</time>
      </trkpt>
      <trkpt lat="36.6792640686035" lon="-4.99636602401733">
        <ele>1787.68701171875</ele>
        <time>2018-07-28T06:18:39Z</time>
      </trkpt>
      <trkpt lat="36.6792640686035" lon="-4.99636602401733">
        <ele>1787.68701171875</ele>
        <time>2018-07-28T06:18:40Z</time>
      </trkpt>
      <trkpt lat="36.6792640686035" lon="-4.99636602401733">
        <ele>1787.68701171875</ele>
        <time>2018-07-28T06:18:41Z</time>
      </trkpt>
      <trkpt lat="36.6792640686035" lon="-4.99636602401733">
        <ele>1787.68701171875</ele>
        <time>2018-07-28T06:18:42Z</time>
      </trkpt>
      <trkpt lat="36.6792678833008" lon="-4.99636602401733">
        <ele>1787.55004882812</ele>
        <time>2018-07-28T06:18:43Z</time>
      </trkpt>
      <trkpt lat="36.679271697998" lon="-4.99636602401733">
        <ele>1787.41320800781</ele>
        <time>2018-07-28T06:18:44Z</time>
      </trkpt>
      <trkpt lat="36.6792755126953" lon="-4.99636602401733">
        <ele>1787.27624511719</ele>
        <time>2018-07-28T06:18:45Z</time>
      </trkpt>
      <trkpt lat="36.6792831420898" lon="-4.99636507034302">
        <ele>1787.03820800781</ele>
        <time>2018-07-28T06:18:46Z</time>
      </trkpt>
      <trkpt lat="36.6792907714844" lon="-4.99636507034302">
        <ele>1786.76440429688</ele>
        <time>2018-07-28T06:18:47Z</time>
      </trkpt>
      <trkpt lat="36.6792945861816" lon="-4.99636602401733">
        <ele>1786.59143066406</ele>
        <time>2018-07-28T06:18:48Z</time>
      </trkpt>
      <trkpt lat="36.6792984008789" lon="-4.99636697769165">
        <ele>1786.41845703125</ele>
        <time>2018-07-28T06:18:49Z</time>
      </trkpt>
      <trkpt lat="36.6793060302734" lon="-4.99636793136597">
        <ele>1786.10852050781</ele>
        <time>2018-07-28T06:18:50Z</time>
      </trkpt>
      <trkpt lat="36.6793098449707" lon="-4.99636793136597">
        <ele>1785.97155761719</ele>
        <time>2018-07-28T06:18:51Z</time>
      </trkpt>
      <trkpt lat="36.6793174743652" lon="-4.99636602401733">
        <ele>1785.76977539062</ele>
        <time>2018-07-28T06:18:52Z</time>
      </trkpt>
      <trkpt lat="36.6793212890625" lon="-4.99636602401733">
        <ele>1785.6328125</ele>
        <time>2018-07-28T06:18:53Z</time>
      </trkpt>
      <trkpt lat="36.6793212890625" lon="-4.99636507034302">
        <ele>1785.6689453125</ele>
        <time>2018-07-28T06:18:54Z</time>
      </trkpt>
      <trkpt lat="36.6793212890625" lon="-4.99636602401733">
        <ele>1785.6328125</ele>
        <time>2018-07-28T06:18:55Z</time>
      </trkpt>
      <trkpt lat="36.6793212890625" lon="-4.99636697769165">
        <ele>1785.5966796875</ele>
        <time>2018-07-28T06:18:56Z</time>
      </trkpt>
      <trkpt lat="36.6793212890625" lon="-4.99636793136597">
        <ele>1785.560546875</ele>
        <time>2018-07-28T06:18:57Z</time>
      </trkpt>
      <trkpt lat="36.6793212890625" lon="-4.99636888504028">
        <ele>1785.5244140625</ele>
        <time>2018-07-28T06:18:58Z</time>
      </trkpt>
      <trkpt lat="36.6793212890625" lon="-4.99636888504028">
        <ele>1785.5244140625</ele>
        <time>2018-07-28T06:18:59Z</time>
      </trkpt>
      <trkpt lat="36.6793212890625" lon="-4.99636697769165">
        <ele>1785.5966796875</ele>
        <time>2018-07-28T06:19:00Z</time>
      </trkpt>
      <trkpt lat="36.6793251037598" lon="-4.99636507034302">
        <ele>1785.53198242188</ele>
        <time>2018-07-28T06:19:01Z</time>
      </trkpt>
      <trkpt lat="36.6793327331543" lon="-4.99636316299438">
        <ele>1785.33044433594</ele>
        <time>2018-07-28T06:19:02Z</time>
      </trkpt>
      <trkpt lat="36.6793365478516" lon="-4.99636077880859">
        <ele>1785.28393554688</ele>
        <time>2018-07-28T06:19:03Z</time>
      </trkpt>
      <trkpt lat="36.6793441772461" lon="-4.99635791778564">
        <ele>1785.11877441406</ele>
        <time>2018-07-28T06:19:04Z</time>
      </trkpt>
      <trkpt lat="36.6793479919434" lon="-4.9963550567627">
        <ele>1785.09069824219</ele>
        <time>2018-07-28T06:19:05Z</time>
      </trkpt>
      <trkpt lat="36.6793518066406" lon="-4.99635219573975">
        <ele>1785.06262207031</ele>
        <time>2018-07-28T06:19:06Z</time>
      </trkpt>
      <trkpt lat="36.6793518066406" lon="-4.99635314941406">
        <ele>1785.0263671875</ele>
        <time>2018-07-28T06:19:07Z</time>
      </trkpt>
      <trkpt lat="36.6793556213379" lon="-4.9963550567627">
        <ele>1784.81713867188</ele>
        <time>2018-07-28T06:19:08Z</time>
      </trkpt>
      <trkpt lat="36.6793594360352" lon="-4.99635791778564">
        <ele>1784.57153320312</ele>
        <time>2018-07-28T06:19:09Z</time>
      </trkpt>
      <trkpt lat="36.6793594360352" lon="-4.99635982513428">
        <ele>1784.4990234375</ele>
        <time>2018-07-28T06:19:10Z</time>
      </trkpt>
      <trkpt lat="36.6793632507324" lon="-4.99636077880859">
        <ele>1784.32592773438</ele>
        <time>2018-07-28T06:19:11Z</time>
      </trkpt>
      <trkpt lat="36.6793632507324" lon="-4.99636220932007">
        <ele>1784.271484375</ele>
        <time>2018-07-28T06:19:12Z</time>
      </trkpt>
      <trkpt lat="36.6793670654297" lon="-4.99636077880859">
        <ele>1784.18896484375</ele>
        <time>2018-07-28T06:19:13Z</time>
      </trkpt>
      <trkpt lat="36.679370880127" lon="-4.99635791778564">
        <ele>1784.1611328125</ele>
        <time>2018-07-28T06:19:14Z</time>
      </trkpt>
      <trkpt lat="36.6793746948242" lon="-4.99635314941406">
        <ele>1784.20593261719</ele>
        <time>2018-07-28T06:19:15Z</time>
      </trkpt>
      <trkpt lat="36.6793785095215" lon="-4.99634790420532">
        <ele>1784.26916503906</ele>
        <time>2018-07-28T06:19:16Z</time>
      </trkpt>
      <trkpt lat="36.679386138916" lon="-4.99634122848511">
        <ele>1784.25048828125</ele>
        <time>2018-07-28T06:19:17Z</time>
      </trkpt>
      <trkpt lat="36.6793899536133" lon="-4.99633407592773">
        <ele>1784.38696289062</ele>
        <time>2018-07-28T06:19:18Z</time>
      </trkpt>
      <trkpt lat="36.6793975830078" lon="-4.99632692337036">
        <ele>1784.38732910156</ele>
        <time>2018-07-28T06:19:19Z</time>
      </trkpt>
      <trkpt lat="36.6794013977051" lon="-4.99632120132446">
        <ele>1784.46960449219</ele>
        <time>2018-07-28T06:19:20Z</time>
      </trkpt>
      <trkpt lat="36.6794052124023" lon="-4.99631500244141">
        <ele>1784.57043457031</ele>
        <time>2018-07-28T06:19:21Z</time>
      </trkpt>
      <trkpt lat="36.6794052124023" lon="-4.99631118774414">
        <ele>1784.71618652344</ele>
        <time>2018-07-28T06:19:22Z</time>
      </trkpt>
      <trkpt lat="36.6794090270996" lon="-4.99630784988403">
        <ele>1784.70788574219</ele>
        <time>2018-07-28T06:19:23Z</time>
      </trkpt>
      <trkpt lat="36.6794090270996" lon="-4.99630689620972">
        <ele>1784.74438476562</ele>
        <time>2018-07-28T06:19:24Z</time>
      </trkpt>
      <trkpt lat="36.6794128417969" lon="-4.9963059425354">
        <ele>1784.64489746094</ele>
        <time>2018-07-28T06:19:25Z</time>
      </trkpt>
      <trkpt lat="36.6794166564941" lon="-4.9963059425354">
        <ele>1784.50891113281</ele>
        <time>2018-07-28T06:19:26Z</time>
      </trkpt>
      <trkpt lat="36.6794204711914" lon="-4.9963059425354">
        <ele>1784.37292480469</ele>
        <time>2018-07-28T06:19:27Z</time>
      </trkpt>
      <trkpt lat="36.6794242858887" lon="-4.99630784988403">
        <ele>1784.16394042969</ele>
        <time>2018-07-28T06:19:28Z</time>
      </trkpt>
      <trkpt lat="36.6794242858887" lon="-4.99631118774414">
        <ele>1784.03601074219</ele>
        <time>2018-07-28T06:19:29Z</time>
      </trkpt>
      <trkpt lat="36.6794242858887" lon="-4.99631595611572">
        <ele>1783.85327148438</ele>
        <time>2018-07-28T06:19:30Z</time>
      </trkpt>
      <trkpt lat="36.6794204711914" lon="-4.99632406234741">
        <ele>1783.67895507812</ele>
        <time>2018-07-28T06:19:31Z</time>
      </trkpt>
      <trkpt lat="36.6794204711914" lon="-4.99632978439331">
        <ele>1783.45983886719</ele>
        <time>2018-07-28T06:19:32Z</time>
      </trkpt>
      <trkpt lat="36.6794242858887" lon="-4.99633407592773">
        <ele>1783.15905761719</ele>
        <time>2018-07-28T06:19:33Z</time>
      </trkpt>
      <trkpt lat="36.6794281005859" lon="-4.99633598327637">
        <ele>1782.94958496094</ele>
        <time>2018-07-28T06:19:34Z</time>
      </trkpt>
      <trkpt lat="36.6794319152832" lon="-4.99633693695068">
        <ele>1782.77648925781</ele>
        <time>2018-07-28T06:19:35Z</time>
      </trkpt>
      <trkpt lat="36.6794319152832" lon="-4.99633979797363">
        <ele>1782.66687011719</ele>
        <time>2018-07-28T06:19:36Z</time>
      </trkpt>
      <trkpt lat="36.6794357299805" lon="-4.99634408950806">
        <ele>1782.36572265625</ele>
        <time>2018-07-28T06:19:37Z</time>
      </trkpt>
      <trkpt lat="36.6794319152832" lon="-4.99634885787964">
        <ele>1782.31945800781</ele>
        <time>2018-07-28T06:19:38Z</time>
      </trkpt>
      <trkpt lat="36.6794357299805" lon="-4.9963550567627">
        <ele>1781.94494628906</ele>
        <time>2018-07-28T06:19:39Z</time>
      </trkpt>
      <trkpt lat="36.6794357299805" lon="-4.99636316299438">
        <ele>1781.63391113281</ele>
        <time>2018-07-28T06:19:40Z</time>
      </trkpt>
      <trkpt lat="36.6794395446777" lon="-4.99637079238892">
        <ele>1781.20422363281</ele>
        <time>2018-07-28T06:19:41Z</time>
      </trkpt>
      <trkpt lat="36.6794395446777" lon="-4.99637794494629">
        <ele>1780.9296875</ele>
        <time>2018-07-28T06:19:42Z</time>
      </trkpt>
      <trkpt lat="36.679443359375" lon="-4.99638509750366">
        <ele>1780.51794433594</ele>
        <time>2018-07-28T06:19:43Z</time>
      </trkpt>
      <trkpt lat="36.6794471740723" lon="-4.99639081954956">
        <ele>1780.16088867188</ele>
        <time>2018-07-28T06:19:44Z</time>
      </trkpt>
      <trkpt lat="36.6794548034668" lon="-4.99639511108398">
        <ele>1779.72119140625</ele>
        <time>2018-07-28T06:19:45Z</time>
      </trkpt>
      <trkpt lat="36.6794586181641" lon="-4.9963960647583">
        <ele>1779.54711914062</ele>
        <time>2018-07-28T06:19:46Z</time>
      </trkpt>
      <trkpt lat="36.6794624328613" lon="-4.99639511108398">
        <ele>1779.4462890625</ele>
        <time>2018-07-28T06:19:47Z</time>
      </trkpt>
      <trkpt lat="36.6794662475586" lon="-4.99639415740967">
        <ele>1779.34558105469</ele>
        <time>2018-07-28T06:19:48Z</time>
      </trkpt>
      <trkpt lat="36.6794700622559" lon="-4.99639415740967">
        <ele>1779.20825195312</ele>
        <time>2018-07-28T06:19:49Z</time>
      </trkpt>
      <trkpt lat="36.6794738769531" lon="-4.99639511108398">
        <ele>1779.03405761719</ele>
        <time>2018-07-28T06:19:50Z</time>
      </trkpt>
      <trkpt lat="36.6794815063477" lon="-4.99639797210693">
        <ele>1778.64880371094</ele>
        <time>2018-07-28T06:19:51Z</time>
      </trkpt>
      <trkpt lat="36.6794815063477" lon="-4.99639892578125">
        <ele>1778.61206054688</ele>
        <time>2018-07-28T06:19:52Z</time>
      </trkpt>
      <trkpt lat="36.6794853210449" lon="-4.99639892578125">
        <ele>1778.474609375</ele>
        <time>2018-07-28T06:19:53Z</time>
      </trkpt>
      <trkpt lat="36.6794853210449" lon="-4.99639892578125">
        <ele>1778.474609375</ele>
        <time>2018-07-28T06:19:54Z</time>
      </trkpt>
      <trkpt lat="36.6794853210449" lon="-4.99639892578125">
        <ele>1778.474609375</ele>
        <time>2018-07-28T06:19:55Z</time>
      </trkpt>
      <trkpt lat="36.6794853210449" lon="-4.99639987945557">
        <ele>1778.43774414062</ele>
        <time>2018-07-28T06:19:56Z</time>
      </trkpt>
      <trkpt lat="36.6794891357422" lon="-4.99639892578125">
        <ele>1778.33703613281</ele>
        <time>2018-07-28T06:19:57Z</time>
      </trkpt>
      <trkpt lat="36.6794967651367" lon="-4.99639701843262">
        <ele>1778.1357421875</ele>
        <time>2018-07-28T06:19:58Z</time>
      </trkpt>
      <trkpt lat="36.679500579834" lon="-4.99639415740967">
        <ele>1778.10888671875</ele>
        <time>2018-07-28T06:19:59Z</time>
      </trkpt>
      <trkpt lat="36.6795043945312" lon="-4.99639415740967">
        <ele>1777.97143554688</ele>
        <time>2018-07-28T06:20:00Z</time>
      </trkpt>
      <trkpt lat="36.6795120239258" lon="-4.99639415740967">
        <ele>1777.69665527344</ele>
        <time>2018-07-28T06:20:01Z</time>
      </trkpt>
      <trkpt lat="36.6795196533203" lon="-4.99639415740967">
        <ele>1777.42175292969</ele>
        <time>2018-07-28T06:20:02Z</time>
      </trkpt>
      <trkpt lat="36.6795234680176" lon="-4.99639320373535">
        <ele>1777.3212890625</ele>
        <time>2018-07-28T06:20:03Z</time>
      </trkpt>
      <trkpt lat="36.6795272827148" lon="-4.99639081954956">
        <ele>1777.2763671875</ele>
        <time>2018-07-28T06:20:04Z</time>
      </trkpt>
      <trkpt lat="36.6795310974121" lon="-4.9963870048523">
        <ele>1777.28686523438</ele>
        <time>2018-07-28T06:20:05Z</time>
      </trkpt>
      <trkpt lat="36.6795349121094" lon="-4.99638414382935">
        <ele>1777.26062011719</ele>
        <time>2018-07-28T06:20:06Z</time>
      </trkpt>
      <trkpt lat="36.6795349121094" lon="-4.99638319015503">
        <ele>1777.29760742188</ele>
        <time>2018-07-28T06:20:07Z</time>
      </trkpt>
      <trkpt lat="36.6795349121094" lon="-4.99638414382935">
        <ele>1777.26062011719</ele>
        <time>2018-07-28T06:20:08Z</time>
      </trkpt>
      <trkpt lat="36.6795387268066" lon="-4.99638605117798">
        <ele>1777.04931640625</ele>
        <time>2018-07-28T06:20:09Z</time>
      </trkpt>
      <trkpt lat="36.6795463562012" lon="-4.9963870048523">
        <ele>1776.73767089844</ele>
        <time>2018-07-28T06:20:10Z</time>
      </trkpt>
      <trkpt lat="36.6795501708984" lon="-4.99638605117798">
        <ele>1776.63745117188</ele>
        <time>2018-07-28T06:20:11Z</time>
      </trkpt>
      <trkpt lat="36.6795539855957" lon="-4.99638223648071">
        <ele>1776.6484375</ele>
        <time>2018-07-28T06:20:12Z</time>
      </trkpt>
      <trkpt lat="36.679557800293" lon="-4.99637794494629">
        <ele>1776.67810058594</ele>
        <time>2018-07-28T06:20:13Z</time>
      </trkpt>
      <trkpt lat="36.6795616149902" lon="-4.99637413024902">
        <ele>1776.689453125</ele>
        <time>2018-07-28T06:20:14Z</time>
      </trkpt>
      <trkpt lat="36.6795616149902" lon="-4.99637079238892">
        <ele>1776.81921386719</ele>
        <time>2018-07-28T06:20:15Z</time>
      </trkpt>
      <trkpt lat="36.6795654296875" lon="-4.99636888504028">
        <ele>1776.75646972656</ele>
        <time>2018-07-28T06:20:16Z</time>
      </trkpt>
      <trkpt lat="36.6795692443848" lon="-4.99636697769165">
        <ele>1776.69372558594</ele>
        <time>2018-07-28T06:20:17Z</time>
      </trkpt>
      <trkpt lat="36.679573059082" lon="-4.99636507034302">
        <ele>1776.63110351562</ele>
        <time>2018-07-28T06:20:18Z</time>
      </trkpt>
      <trkpt lat="36.6795768737793" lon="-4.99636507034302">
        <ele>1776.494140625</ele>
        <time>2018-07-28T06:20:19Z</time>
      </trkpt>
      <trkpt lat="36.6795768737793" lon="-4.99636507034302">
        <ele>1776.494140625</ele>
        <time>2018-07-28T06:20:20Z</time>
      </trkpt>
      <trkpt lat="36.6795768737793" lon="-4.99636602401733">
        <ele>1776.45690917969</ele>
        <time>2018-07-28T06:20:21Z</time>
      </trkpt>
      <trkpt lat="36.6795768737793" lon="-4.99636697769165">
        <ele>1776.41979980469</ele>
        <time>2018-07-28T06:20:22Z</time>
      </trkpt>
      <trkpt lat="36.6795806884766" lon="-4.99636793136597">
        <ele>1776.24560546875</ele>
        <time>2018-07-28T06:20:23Z</time>
      </trkpt>
      <trkpt lat="36.6795845031738" lon="-4.99636888504028">
        <ele>1776.07141113281</ele>
        <time>2018-07-28T06:20:24Z</time>
      </trkpt>
      <trkpt lat="36.6795921325684" lon="-4.99636888504028">
        <ele>1775.79748535156</ele>
        <time>2018-07-28T06:20:25Z</time>
      </trkpt>
      <trkpt lat="36.6795959472656" lon="-4.99636888504028">
        <ele>1775.66052246094</ele>
        <time>2018-07-28T06:20:26Z</time>
      </trkpt>
      <trkpt lat="36.6796035766602" lon="-4.99636888504028">
        <ele>1775.38647460938</ele>
        <time>2018-07-28T06:20:27Z</time>
      </trkpt>
      <trkpt lat="36.6796073913574" lon="-4.99636888504028">
        <ele>1775.24951171875</ele>
        <time>2018-07-28T06:20:28Z</time>
      </trkpt>
      <trkpt lat="36.6796112060547" lon="-4.9963698387146">
        <ele>1775.0751953125</ele>
        <time>2018-07-28T06:20:29Z</time>
      </trkpt>
      <trkpt lat="36.6796112060547" lon="-4.99637222290039">
        <ele>1774.98193359375</ele>
        <time>2018-07-28T06:20:30Z</time>
      </trkpt>
      <trkpt lat="36.6796188354492" lon="-4.99637413024902">
        <ele>1774.63305664062</ele>
        <time>2018-07-28T06:20:31Z</time>
      </trkpt>
      <trkpt lat="36.6796226501465" lon="-4.99637699127197">
        <ele>1774.38391113281</ele>
        <time>2018-07-28T06:20:32Z</time>
      </trkpt>
      <trkpt lat="36.679630279541" lon="-4.99637985229492">
        <ele>1773.99755859375</ele>
        <time>2018-07-28T06:20:33Z</time>
      </trkpt>
      <trkpt lat="36.6796340942383" lon="-4.99638414382935">
        <ele>1773.69201660156</ele>
        <time>2018-07-28T06:20:34Z</time>
      </trkpt>
      <trkpt lat="36.6796417236328" lon="-4.99638605117798">
        <ele>1773.34265136719</ele>
        <time>2018-07-28T06:20:35Z</time>
      </trkpt>
      <trkpt lat="36.6796493530273" lon="-4.99638605117798">
        <ele>1773.06811523438</ele>
        <time>2018-07-28T06:20:36Z</time>
      </trkpt>
      <trkpt lat="36.6796569824219" lon="-4.99638414382935">
        <ele>1772.86853027344</ele>
        <time>2018-07-28T06:20:37Z</time>
      </trkpt>
      <trkpt lat="36.6796646118164" lon="-4.99638080596924">
        <ele>1772.72534179688</ele>
        <time>2018-07-28T06:20:38Z</time>
      </trkpt>
      <trkpt lat="36.6796684265137" lon="-4.99637603759766">
        <ele>1772.77587890625</ele>
        <time>2018-07-28T06:20:39Z</time>
      </trkpt>
      <trkpt lat="36.6796798706055" lon="-4.9963698387146">
        <ele>1772.60888671875</ele>
        <time>2018-07-28T06:20:40Z</time>
      </trkpt>
      <trkpt lat="36.6796875" lon="-4.99636316299438">
        <ele>1772.59826660156</ele>
        <time>2018-07-28T06:20:41Z</time>
      </trkpt>
      <trkpt lat="36.6796989440918" lon="-4.99635791778564">
        <ele>1772.39465332031</ele>
        <time>2018-07-28T06:20:42Z</time>
      </trkpt>
      <trkpt lat="36.6797065734863" lon="-4.99635601043701">
        <ele>1772.19641113281</ele>
        <time>2018-07-28T06:20:43Z</time>
      </trkpt>
      <trkpt lat="36.6797180175781" lon="-4.9963550567627">
        <ele>1771.82385253906</ele>
        <time>2018-07-28T06:20:44Z</time>
      </trkpt>
      <trkpt lat="36.6797256469727" lon="-4.9963550567627">
        <ele>1771.55029296875</ele>
        <time>2018-07-28T06:20:45Z</time>
      </trkpt>
      <trkpt lat="36.6797256469727" lon="-4.99635601043701">
        <ele>1771.51257324219</ele>
        <time>2018-07-28T06:20:46Z</time>
      </trkpt>
      <trkpt lat="36.6797294616699" lon="-4.99635696411133">
        <ele>1771.337890625</ele>
        <time>2018-07-28T06:20:47Z</time>
      </trkpt>
      <trkpt lat="36.6797332763672" lon="-4.99635601043701">
        <ele>1771.23889160156</ele>
        <time>2018-07-28T06:20:48Z</time>
      </trkpt>
      <trkpt lat="36.6797409057617" lon="-4.99635219573975">
        <ele>1771.11669921875</ele>
        <time>2018-07-28T06:20:49Z</time>
      </trkpt>
      <trkpt lat="36.679744720459" lon="-4.99634695053101">
        <ele>1771.18823242188</ele>
        <time>2018-07-28T06:20:50Z</time>
      </trkpt>
      <trkpt lat="36.679744720459" lon="-4.99634408950806">
        <ele>1771.3017578125</ele>
        <time>2018-07-28T06:20:51Z</time>
      </trkpt>
      <trkpt lat="36.6797485351562" lon="-4.99634313583374">
        <ele>1771.203125</ele>
        <time>2018-07-28T06:20:52Z</time>
      </trkpt>
      <trkpt lat="36.6797485351562" lon="-4.99634313583374">
        <ele>1771.203125</ele>
        <time>2018-07-28T06:20:53Z</time>
      </trkpt>
      <trkpt lat="36.6797523498535" lon="-4.99634218215942">
        <ele>1771.10437011719</ele>
        <time>2018-07-28T06:20:54Z</time>
      </trkpt>
      <trkpt lat="36.6797561645508" lon="-4.99633884429932">
        <ele>1771.10046386719</ele>
        <time>2018-07-28T06:20:55Z</time>
      </trkpt>
      <trkpt lat="36.6797637939453" lon="-4.99633407592773">
        <ele>1771.01721191406</ele>
        <time>2018-07-28T06:20:56Z</time>
      </trkpt>
      <trkpt lat="36.6797714233398" lon="-4.99633121490478">
        <ele>1770.85827636719</ele>
        <time>2018-07-28T06:20:57Z</time>
      </trkpt>
      <trkpt lat="36.6797752380371" lon="-4.99632978439331">
        <ele>1770.77880859375</ele>
        <time>2018-07-28T06:20:58Z</time>
      </trkpt>
      <trkpt lat="36.6797828674316" lon="-4.99633121490478">
        <ele>1770.44909667969</ele>
        <time>2018-07-28T06:20:59Z</time>
      </trkpt>
      <trkpt lat="36.6797866821289" lon="-4.99632787704468">
        <ele>1770.44580078125</ele>
        <time>2018-07-28T06:21:00Z</time>
      </trkpt>
      <trkpt lat="36.6797943115234" lon="-4.99632406234741">
        <ele>1770.32543945312</ele>
        <time>2018-07-28T06:21:01Z</time>
      </trkpt>
      <trkpt lat="36.6797981262207" lon="-4.99632120132446">
        <ele>1770.30346679688</ele>
        <time>2018-07-28T06:21:02Z</time>
      </trkpt>
      <trkpt lat="36.679801940918" lon="-4.99632215499878">
        <ele>1770.12915039062</ele>
        <time>2018-07-28T06:21:03Z</time>
      </trkpt>
      <trkpt lat="36.6798095703125" lon="-4.99632406234741">
        <ele>1769.78039550781</ele>
        <time>2018-07-28T06:21:04Z</time>
      </trkpt>
      <trkpt lat="36.679817199707" lon="-4.99632596969604">
        <ele>1769.43151855469</ele>
        <time>2018-07-28T06:21:05Z</time>
      </trkpt>
      <trkpt lat="36.6798210144043" lon="-4.99632692337036">
        <ele>1769.25708007812</ele>
        <time>2018-07-28T06:21:06Z</time>
      </trkpt>
      <trkpt lat="36.6798248291016" lon="-4.99632787704468">
        <ele>1769.08264160156</ele>
        <time>2018-07-28T06:21:07Z</time>
      </trkpt>
      <trkpt lat="36.6798248291016" lon="-4.99632978439331">
        <ele>1769.00622558594</ele>
        <time>2018-07-28T06:21:08Z</time>
      </trkpt>
      <trkpt lat="36.6798248291016" lon="-4.99633121490478">
        <ele>1768.94897460938</ele>
        <time>2018-07-28T06:21:09Z</time>
      </trkpt>
      <trkpt lat="36.6798286437988" lon="-4.9963321685791">
        <ele>1768.7744140625</ele>
        <time>2018-07-28T06:21:10Z</time>
      </trkpt>
      <trkpt lat="36.6798286437988" lon="-4.99633121490478">
        <ele>1768.81262207031</ele>
        <time>2018-07-28T06:21:11Z</time>
      </trkpt>
      <trkpt lat="36.6798324584961" lon="-4.99633121490478">
        <ele>1768.67614746094</ele>
        <time>2018-07-28T06:21:12Z</time>
      </trkpt>
      <trkpt lat="36.6798362731934" lon="-4.99633312225342">
        <ele>1768.46337890625</ele>
        <time>2018-07-28T06:21:13Z</time>
      </trkpt>
      <trkpt lat="36.6798362731934" lon="-4.99633598327637">
        <ele>1768.3486328125</ele>
        <time>2018-07-28T06:21:14Z</time>
      </trkpt>
      <trkpt lat="36.6798400878906" lon="-4.99633979797363">
        <ele>1768.05920410156</ele>
        <time>2018-07-28T06:21:15Z</time>
      </trkpt>
      <trkpt lat="36.6798439025879" lon="-4.99634122848511">
        <ele>1767.865234375</ele>
        <time>2018-07-28T06:21:16Z</time>
      </trkpt>
      <trkpt lat="36.6798477172852" lon="-4.99633979797363">
        <ele>1767.7861328125</ele>
        <time>2018-07-28T06:21:17Z</time>
      </trkpt>
      <trkpt lat="36.6798515319824" lon="-4.99633884429932">
        <ele>1767.68786621094</ele>
        <time>2018-07-28T06:21:18Z</time>
      </trkpt>
      <trkpt lat="36.6798553466797" lon="-4.99633884429932">
        <ele>1767.55139160156</ele>
        <time>2018-07-28T06:21:19Z</time>
      </trkpt>
      <trkpt lat="36.6798629760742" lon="-4.99634122848511">
        <ele>1767.18249511719</ele>
        <time>2018-07-28T06:21:20Z</time>
      </trkpt>
      <trkpt lat="36.6798706054688" lon="-4.99634313583374">
        <ele>1766.83264160156</ele>
        <time>2018-07-28T06:21:21Z</time>
      </trkpt>
      <trkpt lat="36.679874420166" lon="-4.99634408950806">
        <ele>1766.65771484375</ele>
        <time>2018-07-28T06:21:22Z</time>
      </trkpt>
      <trkpt lat="36.6798820495606" lon="-4.99634695053101">
        <ele>1766.26928710938</ele>
        <time>2018-07-28T06:21:23Z</time>
      </trkpt>
      <trkpt lat="36.6798858642578" lon="-4.99635076522827">
        <ele>1765.97888183594</ele>
        <time>2018-07-28T06:21:24Z</time>
      </trkpt>
      <trkpt lat="36.6798934936523" lon="-4.99635219573975">
        <ele>1765.64770507812</ele>
        <time>2018-07-28T06:21:25Z</time>
      </trkpt>
      <trkpt lat="36.6798973083496" lon="-4.99635076522827">
        <ele>1765.56872558594</ele>
        <time>2018-07-28T06:21:26Z</time>
      </trkpt>
      <trkpt lat="36.6798973083496" lon="-4.99634885787964">
        <ele>1765.64575195312</ele>
        <time>2018-07-28T06:21:27Z</time>
      </trkpt>
      <trkpt lat="36.6798973083496" lon="-4.99634790420532">
        <ele>1765.68420410156</ele>
        <time>2018-07-28T06:21:28Z</time>
      </trkpt>
      <trkpt lat="36.6798973083496" lon="-4.99634790420532">
        <ele>1765.68420410156</ele>
        <time>2018-07-28T06:21:29Z</time>
      </trkpt>
      <trkpt lat="36.6798973083496" lon="-4.99634790420532">
        <ele>1765.68420410156</ele>
        <time>2018-07-28T06:21:30Z</time>
      </trkpt>
      <trkpt lat="36.6798973083496" lon="-4.99634790420532">
        <ele>1765.68420410156</ele>
        <time>2018-07-28T06:21:31Z</time>
      </trkpt>
      <trkpt lat="36.6798973083496" lon="-4.99635076522827">
        <ele>1765.56872558594</ele>
        <time>2018-07-28T06:21:32Z</time>
      </trkpt>
      <trkpt lat="36.6798934936523" lon="-4.99635314941406">
        <ele>1765.60925292969</ele>
        <time>2018-07-28T06:21:33Z</time>
      </trkpt>
      <trkpt lat="36.6798973083496" lon="-4.99635601043701">
        <ele>1765.35705566406</ele>
        <time>2018-07-28T06:21:34Z</time>
      </trkpt>
      <trkpt lat="36.6798973083496" lon="-4.99635887145996">
        <ele>1765.24157714844</ele>
        <time>2018-07-28T06:21:35Z</time>
      </trkpt>
      <trkpt lat="36.6799011230469" lon="-4.99636077880859">
        <ele>1765.02783203125</ele>
        <time>2018-07-28T06:21:36Z</time>
      </trkpt>
      <trkpt lat="36.6799049377441" lon="-4.99636220932007">
        <ele>1764.83312988281</ele>
        <time>2018-07-28T06:21:37Z</time>
      </trkpt>
      <trkpt lat="36.6799125671387" lon="-4.99636077880859">
        <ele>1764.6171875</ele>
        <time>2018-07-28T06:21:38Z</time>
      </trkpt>
      <trkpt lat="36.6799163818359" lon="-4.99636077880859">
        <ele>1764.48034667969</ele>
        <time>2018-07-28T06:21:39Z</time>
      </trkpt>
      <trkpt lat="36.6799240112305" lon="-4.99635791778564">
        <ele>1764.32238769531</ele>
        <time>2018-07-28T06:21:40Z</time>
      </trkpt>
      <trkpt lat="36.6799278259277" lon="-4.99635696411133">
        <ele>1764.22412109375</ele>
        <time>2018-07-28T06:21:41Z</time>
      </trkpt>
      <trkpt lat="36.679931640625" lon="-4.99635410308838">
        <ele>1764.20324707031</ele>
        <time>2018-07-28T06:21:42Z</time>
      </trkpt>
      <trkpt lat="36.6799354553223" lon="-4.99635314941406">
        <ele>1764.10510253906</ele>
        <time>2018-07-28T06:21:43Z</time>
      </trkpt>
      <trkpt lat="36.6799392700195" lon="-4.99635076522827">
        <ele>1764.06506347656</ele>
        <time>2018-07-28T06:21:44Z</time>
      </trkpt>
      <trkpt lat="36.6799468994141" lon="-4.99635219573975">
        <ele>1763.73364257812</ele>
        <time>2018-07-28T06:21:45Z</time>
      </trkpt>
      <trkpt lat="36.6799507141113" lon="-4.99635314941406">
        <ele>1763.55822753906</ele>
        <time>2018-07-28T06:21:46Z</time>
      </trkpt>
      <trkpt lat="36.6799545288086" lon="-4.99635219573975">
        <ele>1763.46020507812</ele>
        <time>2018-07-28T06:21:47Z</time>
      </trkpt>
      <trkpt lat="36.6799583435059" lon="-4.99635076522827">
        <ele>1763.38159179688</ele>
        <time>2018-07-28T06:21:48Z</time>
      </trkpt>
      <trkpt lat="36.6799583435059" lon="-4.99634885787964">
        <ele>1763.458984375</ele>
        <time>2018-07-28T06:21:49Z</time>
      </trkpt>
      <trkpt lat="36.6799583435059" lon="-4.99634981155396">
        <ele>1763.42028808594</ele>
        <time>2018-07-28T06:21:50Z</time>
      </trkpt>
      <trkpt lat="36.6799583435059" lon="-4.99634981155396">
        <ele>1763.42028808594</ele>
        <time>2018-07-28T06:21:51Z</time>
      </trkpt>
      <trkpt lat="36.6799621582031" lon="-4.99635219573975">
        <ele>1763.18676757812</ele>
        <time>2018-07-28T06:21:52Z</time>
      </trkpt>
      <trkpt lat="36.6799697875977" lon="-4.99635314941406">
        <ele>1762.87451171875</ele>
        <time>2018-07-28T06:21:53Z</time>
      </trkpt>
      <trkpt lat="36.6799812316894" lon="-4.99635314941406">
        <ele>1762.46423339844</ele>
        <time>2018-07-28T06:21:54Z</time>
      </trkpt>
      <trkpt lat="36.6799926757812" lon="-4.99634885787964">
        <ele>1762.22900390625</ele>
        <time>2018-07-28T06:21:55Z</time>
      </trkpt>
      <trkpt lat="36.680004119873" lon="-4.99634408950806">
        <ele>1762.02075195312</ele>
        <time>2018-07-28T06:21:56Z</time>
      </trkpt>
      <trkpt lat="36.6800117492676" lon="-4.996337890625">
        <ele>1762.013671875</ele>
        <time>2018-07-28T06:21:57Z</time>
      </trkpt>
      <trkpt lat="36.6800193786621" lon="-4.99633312225342">
        <ele>1761.9482421875</ele>
        <time>2018-07-28T06:21:58Z</time>
      </trkpt>
      <trkpt lat="36.6800270080566" lon="-4.99632978439331">
        <ele>1761.82421875</ele>
        <time>2018-07-28T06:21:59Z</time>
      </trkpt>
      <trkpt lat="36.6800346374512" lon="-4.99633121490478">
        <ele>1761.505859375</ele>
        <time>2018-07-28T06:22:00Z</time>
      </trkpt>
      <trkpt lat="36.680046081543" lon="-4.99633121490478">
        <ele>1761.11584472656</ele>
        <time>2018-07-28T06:22:01Z</time>
      </trkpt>
      <trkpt lat="36.6800537109375" lon="-4.99632978439331">
        <ele>1760.9140625</ele>
        <time>2018-07-28T06:22:02Z</time>
      </trkpt>
      <trkpt lat="36.680061340332" lon="-4.99632692337036">
        <ele>1760.7705078125</ele>
        <time>2018-07-28T06:22:03Z</time>
      </trkpt>
      <trkpt lat="36.6800689697266" lon="-4.99632596969604">
        <ele>1760.54919433594</ele>
        <time>2018-07-28T06:22:04Z</time>
      </trkpt>
      <trkpt lat="36.6800727844238" lon="-4.99632501602173">
        <ele>1760.4580078125</ele>
        <time>2018-07-28T06:22:05Z</time>
      </trkpt>
      <trkpt lat="36.6800765991211" lon="-4.99632406234741">
        <ele>1760.36669921875</ele>
        <time>2018-07-28T06:22:06Z</time>
      </trkpt>
      <trkpt lat="36.6800765991211" lon="-4.9963231086731">
        <ele>1760.40551757812</ele>
        <time>2018-07-28T06:22:07Z</time>
      </trkpt>
      <trkpt lat="36.6800765991211" lon="-4.9963231086731">
        <ele>1760.40551757812</ele>
        <time>2018-07-28T06:22:08Z</time>
      </trkpt>
      <trkpt lat="36.6800765991211" lon="-4.99632406234741">
        <ele>1760.36669921875</ele>
        <time>2018-07-28T06:22:09Z</time>
      </trkpt>
      <trkpt lat="36.6800765991211" lon="-4.99632406234741">
        <ele>1760.36669921875</ele>
        <time>2018-07-28T06:22:10Z</time>
      </trkpt>
      <trkpt lat="36.6800804138184" lon="-4.99632406234741">
        <ele>1760.23669433594</ele>
        <time>2018-07-28T06:22:11Z</time>
      </trkpt>
      <trkpt lat="36.6800880432129" lon="-4.99632120132446">
        <ele>1760.09289550781</ele>
        <time>2018-07-28T06:22:12Z</time>
      </trkpt>
      <trkpt lat="36.6800956726074" lon="-4.99631786346436">
        <ele>1759.96850585938</ele>
        <time>2018-07-28T06:22:13Z</time>
      </trkpt>
      <trkpt lat="36.680103302002" lon="-4.99631404876709">
        <ele>1759.86340332031</ele>
        <time>2018-07-28T06:22:14Z</time>
      </trkpt>
      <trkpt lat="36.6801147460938" lon="-4.99631309509277">
        <ele>1759.51184082031</ele>
        <time>2018-07-28T06:22:15Z</time>
      </trkpt>
      <trkpt lat="36.6801223754883" lon="-4.99631309509277">
        <ele>1759.25158691406</ele>
        <time>2018-07-28T06:22:16Z</time>
      </trkpt>
      <trkpt lat="36.6801300048828" lon="-4.99631309509277">
        <ele>1758.99133300781</ele>
        <time>2018-07-28T06:22:17Z</time>
      </trkpt>
      <trkpt lat="36.6801376342773" lon="-4.99631118774414">
        <ele>1758.80859375</ele>
        <time>2018-07-28T06:22:18Z</time>
      </trkpt>
      <trkpt lat="36.6801452636719" lon="-4.99630689620972">
        <ele>1758.72253417969</ele>
        <time>2018-07-28T06:22:19Z</time>
      </trkpt>
      <trkpt lat="36.6801452636719" lon="-4.99630403518677">
        <ele>1758.83862304688</ele>
        <time>2018-07-28T06:22:20Z</time>
      </trkpt>
      <trkpt lat="36.6801490783691" lon="-4.99630308151245">
        <ele>1758.74719238281</ele>
        <time>2018-07-28T06:22:21Z</time>
      </trkpt>
      <trkpt lat="36.6801528930664" lon="-4.99630212783814">
        <ele>1758.65576171875</ele>
        <time>2018-07-28T06:22:22Z</time>
      </trkpt>
      <trkpt lat="36.6801567077637" lon="-4.99630212783814">
        <ele>1758.52551269531</ele>
        <time>2018-07-28T06:22:23Z</time>
      </trkpt>
      <trkpt lat="36.6801643371582" lon="-4.99630212783814">
        <ele>1758.26513671875</ele>
        <time>2018-07-28T06:22:24Z</time>
      </trkpt>
      <trkpt lat="36.6801719665527" lon="-4.99630117416382">
        <ele>1758.04345703125</ele>
        <time>2018-07-28T06:22:25Z</time>
      </trkpt>
      <trkpt lat="36.6801834106445" lon="-4.99629783630371">
        <ele>1757.78820800781</ele>
        <time>2018-07-28T06:22:26Z</time>
      </trkpt>
      <trkpt lat="36.6801948547363" lon="-4.99629306793213">
        <ele>1757.5908203125</ele>
        <time>2018-07-28T06:22:27Z</time>
      </trkpt>
      <trkpt lat="36.6802062988281" lon="-4.99628686904907">
        <ele>1757.45129394531</ele>
        <time>2018-07-28T06:22:28Z</time>
      </trkpt>
      <trkpt lat="36.6802177429199" lon="-4.99628210067749">
        <ele>1757.25354003906</ele>
        <time>2018-07-28T06:22:29Z</time>
      </trkpt>
      <trkpt lat="36.6802291870117" lon="-4.99627494812012">
        <ele>1757.15209960938</ele>
        <time>2018-07-28T06:22:30Z</time>
      </trkpt>
      <trkpt lat="36.6802406311035" lon="-4.99626779556274">
        <ele>1757.05053710938</ele>
        <time>2018-07-28T06:22:31Z</time>
      </trkpt>
      <trkpt lat="36.6802558898926" lon="-4.99626207351685">
        <ele>1756.76037597656</ele>
        <time>2018-07-28T06:22:32Z</time>
      </trkpt>
      <trkpt lat="36.6802673339844" lon="-4.99625778198242">
        <ele>1756.54272460938</ele>
        <time>2018-07-28T06:22:33Z</time>
      </trkpt>
      <trkpt lat="36.6802825927734" lon="-4.99625778198242">
        <ele>1756.02099609375</ele>
        <time>2018-07-28T06:22:34Z</time>
      </trkpt>
      <trkpt lat="36.6802940368652" lon="-4.99625587463379">
        <ele>1755.70678710938</ele>
        <time>2018-07-28T06:22:35Z</time>
      </trkpt>
      <trkpt lat="36.680305480957" lon="-4.99625396728516">
        <ele>1755.39245605469</ele>
        <time>2018-07-28T06:22:36Z</time>
      </trkpt>
      <trkpt lat="36.6803169250488" lon="-4.99625015258789">
        <ele>1755.15502929688</ele>
        <time>2018-07-28T06:22:37Z</time>
      </trkpt>
      <trkpt lat="36.6803283691406" lon="-4.99624586105347">
        <ele>1754.93664550781</ele>
        <time>2018-07-28T06:22:38Z</time>
      </trkpt>
      <trkpt lat="36.6803398132324" lon="-4.99624013900757">
        <ele>1754.77587890625</ele>
        <time>2018-07-28T06:22:39Z</time>
      </trkpt>
      <trkpt lat="36.680347442627" lon="-4.99623394012451">
        <ele>1754.7646484375</ele>
        <time>2018-07-28T06:22:40Z</time>
      </trkpt>
      <trkpt lat="36.6803512573242" lon="-4.99622917175293">
        <ele>1754.82629394531</ele>
        <time>2018-07-28T06:22:41Z</time>
      </trkpt>
      <trkpt lat="36.6803512573242" lon="-4.99622583389282">
        <ele>1754.96069335938</ele>
        <time>2018-07-28T06:22:42Z</time>
      </trkpt>
      <trkpt lat="36.6803588867188" lon="-4.99622297286987">
        <ele>1754.81481933594</ele>
        <time>2018-07-28T06:22:43Z</time>
      </trkpt>
      <trkpt lat="36.6803665161133" lon="-4.99622011184692">
        <ele>1754.66882324219</ele>
        <time>2018-07-28T06:22:44Z</time>
      </trkpt>
      <trkpt lat="36.6803703308106" lon="-4.99621677398682">
        <ele>1754.67260742188</ele>
        <time>2018-07-28T06:22:45Z</time>
      </trkpt>
      <trkpt lat="36.6803741455078" lon="-4.99621486663818">
        <ele>1754.61877441406</ele>
        <time>2018-07-28T06:22:46Z</time>
      </trkpt>
      <trkpt lat="36.6803779602051" lon="-4.99621295928955">
        <ele>1754.56481933594</ele>
        <time>2018-07-28T06:22:47Z</time>
      </trkpt>
      <trkpt lat="36.6803817749023" lon="-4.99621295928955">
        <ele>1754.43420410156</ele>
        <time>2018-07-28T06:22:48Z</time>
      </trkpt>
      <trkpt lat="36.6803855895996" lon="-4.99621391296387">
        <ele>1754.26513671875</ele>
        <time>2018-07-28T06:22:49Z</time>
      </trkpt>
      <trkpt lat="36.6803894042969" lon="-4.9962158203125">
        <ele>1754.05773925781</ele>
        <time>2018-07-28T06:22:50Z</time>
      </trkpt>
      <trkpt lat="36.6803970336914" lon="-4.99621677398682">
        <ele>1753.75805664062</ele>
        <time>2018-07-28T06:22:51Z</time>
      </trkpt>
      <trkpt lat="36.6804046630859" lon="-4.99621677398682">
        <ele>1753.49682617188</ele>
        <time>2018-07-28T06:22:52Z</time>
      </trkpt>
      <trkpt lat="36.6804084777832" lon="-4.99621677398682">
        <ele>1753.36608886719</ele>
        <time>2018-07-28T06:22:53Z</time>
      </trkpt>
      <trkpt lat="36.6804122924805" lon="-4.99621820449829">
        <ele>1753.17797851562</ele>
        <time>2018-07-28T06:22:54Z</time>
      </trkpt>
      <trkpt lat="36.6804161071777" lon="-4.99621820449829">
        <ele>1753.04736328125</ele>
        <time>2018-07-28T06:22:55Z</time>
      </trkpt>
      <trkpt lat="36.6804161071777" lon="-4.99621820449829">
        <ele>1753.04736328125</ele>
        <time>2018-07-28T06:22:56Z</time>
      </trkpt>
      <trkpt lat="36.6804161071777" lon="-4.99621915817261">
        <ele>1753.00903320312</ele>
        <time>2018-07-28T06:22:57Z</time>
      </trkpt>
      <trkpt lat="36.6804161071777" lon="-4.99621915817261">
        <ele>1753.00903320312</ele>
        <time>2018-07-28T06:22:58Z</time>
      </trkpt>
      <trkpt lat="36.6804237365723" lon="-4.99622011184692">
        <ele>1752.70935058594</ele>
        <time>2018-07-28T06:22:59Z</time>
      </trkpt>
      <trkpt lat="36.6804275512695" lon="-4.99622106552124">
        <ele>1752.54040527344</ele>
        <time>2018-07-28T06:23:00Z</time>
      </trkpt>
      <trkpt lat="36.6804275512695" lon="-4.99622106552124">
        <ele>1752.54040527344</ele>
        <time>2018-07-28T06:23:01Z</time>
      </trkpt>
      <trkpt lat="36.6804275512695" lon="-4.99622011184692">
        <ele>1752.57873535156</ele>
        <time>2018-07-28T06:23:02Z</time>
      </trkpt>
      <trkpt lat="36.6804313659668" lon="-4.99621915817261">
        <ele>1752.48645019531</ele>
        <time>2018-07-28T06:23:03Z</time>
      </trkpt>
      <trkpt lat="36.6804275512695" lon="-4.99621820449829">
        <ele>1752.65539550781</ele>
        <time>2018-07-28T06:23:04Z</time>
      </trkpt>
      <trkpt lat="36.6804275512695" lon="-4.99621677398682">
        <ele>1752.712890625</ele>
        <time>2018-07-28T06:23:05Z</time>
      </trkpt>
      <trkpt lat="36.6804275512695" lon="-4.9962158203125">
        <ele>1752.75122070312</ele>
        <time>2018-07-28T06:23:06Z</time>
      </trkpt>
      <trkpt lat="36.6804275512695" lon="-4.9962158203125">
        <ele>1752.75122070312</ele>
        <time>2018-07-28T06:23:07Z</time>
      </trkpt>
      <trkpt lat="36.6804275512695" lon="-4.99621677398682">
        <ele>1752.712890625</ele>
        <time>2018-07-28T06:23:08Z</time>
      </trkpt>
      <trkpt lat="36.6804275512695" lon="-4.99621915817261">
        <ele>1752.61706542969</ele>
        <time>2018-07-28T06:23:09Z</time>
      </trkpt>
      <trkpt lat="36.6804313659668" lon="-4.99622106552124">
        <ele>1752.40979003906</ele>
        <time>2018-07-28T06:23:10Z</time>
      </trkpt>
      <trkpt lat="36.6804351806641" lon="-4.99622201919556">
        <ele>1752.24084472656</ele>
        <time>2018-07-28T06:23:11Z</time>
      </trkpt>
      <trkpt lat="36.6804389953613" lon="-4.99622106552124">
        <ele>1752.14855957031</ele>
        <time>2018-07-28T06:23:12Z</time>
      </trkpt>
      <trkpt lat="36.6804466247559" lon="-4.99621915817261">
        <ele>1751.96398925781</ele>
        <time>2018-07-28T06:23:13Z</time>
      </trkpt>
      <trkpt lat="36.6804504394531" lon="-4.99621820449829">
        <ele>1751.87158203125</ele>
        <time>2018-07-28T06:23:14Z</time>
      </trkpt>
      <trkpt lat="36.6804504394531" lon="-4.99621820449829">
        <ele>1751.87158203125</ele>
        <time>2018-07-28T06:23:15Z</time>
      </trkpt>
      <trkpt lat="36.6804504394531" lon="-4.99621820449829">
        <ele>1751.87158203125</ele>
        <time>2018-07-28T06:23:16Z</time>
      </trkpt>
      <trkpt lat="36.6804542541504" lon="-4.99621915817261">
        <ele>1751.70263671875</ele>
        <time>2018-07-28T06:23:17Z</time>
      </trkpt>
      <trkpt lat="36.6804580688477" lon="-4.99622297286987">
        <ele>1751.4189453125</ele>
        <time>2018-07-28T06:23:18Z</time>
      </trkpt>
      <trkpt lat="36.6804618835449" lon="-4.99622917175293">
        <ele>1751.03955078125</ele>
        <time>2018-07-28T06:23:19Z</time>
      </trkpt>
      <trkpt lat="36.6804695129394" lon="-4.9962329864502">
        <ele>1750.62536621094</ele>
        <time>2018-07-28T06:23:20Z</time>
      </trkpt>
      <trkpt lat="36.680477142334" lon="-4.99623489379883">
        <ele>1750.28771972656</ele>
        <time>2018-07-28T06:23:21Z</time>
      </trkpt>
      <trkpt lat="36.6804809570312" lon="-4.99623584747314">
        <ele>1750.11889648438</ele>
        <time>2018-07-28T06:23:22Z</time>
      </trkpt>
      <trkpt lat="36.6804847717285" lon="-4.99623680114746">
        <ele>1749.95007324219</ele>
        <time>2018-07-28T06:23:23Z</time>
      </trkpt>
      <trkpt lat="36.6804885864258" lon="-4.99623680114746">
        <ele>1749.81958007812</ele>
        <time>2018-07-28T06:23:24Z</time>
      </trkpt>
      <trkpt lat="36.6804885864258" lon="-4.99623489379883">
        <ele>1749.89599609375</ele>
        <time>2018-07-28T06:23:25Z</time>
      </trkpt>
      <trkpt lat="36.6804962158203" lon="-4.99623203277588">
        <ele>1749.74963378906</ele>
        <time>2018-07-28T06:23:26Z</time>
      </trkpt>
      <trkpt lat="36.6805038452148" lon="-4.99623012542725">
        <ele>1749.56494140625</ele>
        <time>2018-07-28T06:23:27Z</time>
      </trkpt>
      <trkpt lat="36.6805076599121" lon="-4.99622917175293">
        <ele>1749.47265625</ele>
        <time>2018-07-28T06:23:28Z</time>
      </trkpt>
      <trkpt lat="36.6805114746094" lon="-4.99623012542725">
        <ele>1749.30383300781</ele>
        <time>2018-07-28T06:23:29Z</time>
      </trkpt>
      <trkpt lat="36.6805152893066" lon="-4.99623203277588">
        <ele>1749.09680175781</ele>
        <time>2018-07-28T06:23:30Z</time>
      </trkpt>
      <trkpt lat="36.6805191040039" lon="-4.99623394012451">
        <ele>1748.88989257812</ele>
        <time>2018-07-28T06:23:31Z</time>
      </trkpt>
      <trkpt lat="36.6805229187012" lon="-4.99623394012451">
        <ele>1748.75927734375</ele>
        <time>2018-07-28T06:23:32Z</time>
      </trkpt>
      <trkpt lat="36.6805267333984" lon="-4.99623489379883">
        <ele>1748.59057617188</ele>
        <time>2018-07-28T06:23:33Z</time>
      </trkpt>
      <trkpt lat="36.6805267333984" lon="-4.99623584747314">
        <ele>1748.55236816406</ele>
        <time>2018-07-28T06:23:34Z</time>
      </trkpt>
      <trkpt lat="36.6805305480957" lon="-4.99623918533325">
        <ele>1748.28820800781</ele>
        <time>2018-07-28T06:23:35Z</time>
      </trkpt>
      <trkpt lat="36.680534362793" lon="-4.99624109268188">
        <ele>1748.08129882812</ele>
        <time>2018-07-28T06:23:36Z</time>
      </trkpt>
      <trkpt lat="36.6805419921875" lon="-4.99624013900757">
        <ele>1747.85852050781</ele>
        <time>2018-07-28T06:23:37Z</time>
      </trkpt>
      <trkpt lat="36.6805458068848" lon="-4.99623823165894">
        <ele>1747.80432128906</ele>
        <time>2018-07-28T06:23:38Z</time>
      </trkpt>
      <trkpt lat="36.680549621582" lon="-4.99623584747314">
        <ele>1747.76916503906</ele>
        <time>2018-07-28T06:23:39Z</time>
      </trkpt>
      <trkpt lat="36.680549621582" lon="-4.99623584747314">
        <ele>1747.76916503906</ele>
        <time>2018-07-28T06:23:40Z</time>
      </trkpt>
      <trkpt lat="36.6805534362793" lon="-4.99623823165894">
        <ele>1747.54321289062</ele>
        <time>2018-07-28T06:23:41Z</time>
      </trkpt>
      <trkpt lat="36.6805572509766" lon="-4.99623918533325">
        <ele>1747.37463378906</ele>
        <time>2018-07-28T06:23:42Z</time>
      </trkpt>
      <trkpt lat="36.6805686950684" lon="-4.99623823165894">
        <ele>1747.02111816406</ele>
        <time>2018-07-28T06:23:43Z</time>
      </trkpt>
      <trkpt lat="36.6805763244629" lon="-4.99623394012451">
        <ele>1746.931640625</ele>
        <time>2018-07-28T06:23:44Z</time>
      </trkpt>
      <trkpt lat="36.6805877685547" lon="-4.99622917175293">
        <ele>1746.73046875</ele>
        <time>2018-07-28T06:23:45Z</time>
      </trkpt>
      <trkpt lat="36.6805953979492" lon="-4.99622201919556">
        <ele>1746.75500488281</ele>
        <time>2018-07-28T06:23:46Z</time>
      </trkpt>
      <trkpt lat="36.6806030273438" lon="-4.99621486663818">
        <ele>1746.77941894531</ele>
        <time>2018-07-28T06:23:47Z</time>
      </trkpt>
      <trkpt lat="36.6806106567383" lon="-4.99620914459228">
        <ele>1746.74645996094</ele>
        <time>2018-07-28T06:23:48Z</time>
      </trkpt>
      <trkpt lat="36.6806144714356" lon="-4.99620580673218">
        <ele>1746.7490234375</ele>
        <time>2018-07-28T06:23:49Z</time>
      </trkpt>
      <trkpt lat="36.6806221008301" lon="-4.99620294570923">
        <ele>1746.60180664062</ele>
        <time>2018-07-28T06:23:50Z</time>
      </trkpt>
      <trkpt lat="36.6806259155273" lon="-4.9962010383606">
        <ele>1746.54724121094</ele>
        <time>2018-07-28T06:23:51Z</time>
      </trkpt>
      <trkpt lat="36.6806335449219" lon="-4.99620008468628">
        <ele>1746.32373046875</ele>
        <time>2018-07-28T06:23:52Z</time>
      </trkpt>
      <trkpt lat="36.6806411743164" lon="-4.99620008468628">
        <ele>1746.06225585938</ele>
        <time>2018-07-28T06:23:53Z</time>
      </trkpt>
      <trkpt lat="36.6806526184082" lon="-4.99620008468628">
        <ele>1745.67004394531</ele>
        <time>2018-07-28T06:23:54Z</time>
      </trkpt>
      <trkpt lat="36.6806602478027" lon="-4.99619817733765">
        <ele>1745.48461914062</ele>
        <time>2018-07-28T06:23:55Z</time>
      </trkpt>
      <trkpt lat="36.6806640625" lon="-4.99619722366333">
        <ele>1745.39184570312</ele>
        <time>2018-07-28T06:23:56Z</time>
      </trkpt>
      <trkpt lat="36.6806678771973" lon="-4.99619579315186">
        <ele>1745.31811523438</ele>
        <time>2018-07-28T06:23:57Z</time>
      </trkpt>
      <trkpt lat="36.6806716918945" lon="-4.99619388580322">
        <ele>1745.26330566406</ele>
        <time>2018-07-28T06:23:58Z</time>
      </trkpt>
      <trkpt lat="36.6806793212891" lon="-4.99619293212891">
        <ele>1745.03979492188</ele>
        <time>2018-07-28T06:23:59Z</time>
      </trkpt>
      <trkpt lat="36.6806869506836" lon="-4.99619007110596">
        <ele>1744.89208984375</ele>
        <time>2018-07-28T06:24:00Z</time>
      </trkpt>
      <trkpt lat="36.6806945800781" lon="-4.99618911743164">
        <ele>1744.66845703125</ele>
        <time>2018-07-28T06:24:01Z</time>
      </trkpt>
      <trkpt lat="36.6807060241699" lon="-4.99618721008301">
        <ele>1744.35192871094</ele>
        <time>2018-07-28T06:24:02Z</time>
      </trkpt>
      <trkpt lat="36.6807136535644" lon="-4.9961838722229">
        <ele>1744.22314453125</ele>
        <time>2018-07-28T06:24:03Z</time>
      </trkpt>
      <trkpt lat="36.680721282959" lon="-4.99618196487427">
        <ele>1744.03723144531</ele>
        <time>2018-07-28T06:24:04Z</time>
      </trkpt>
      <trkpt lat="36.6807327270508" lon="-4.99618005752564">
        <ele>1743.72058105469</ele>
        <time>2018-07-28T06:24:05Z</time>
      </trkpt>
      <trkpt lat="36.680736541748" lon="-4.99618005752564">
        <ele>1743.58972167969</ele>
        <time>2018-07-28T06:24:06Z</time>
      </trkpt>
      <trkpt lat="36.6807441711426" lon="-4.99617910385132">
        <ele>1743.36596679688</ele>
        <time>2018-07-28T06:24:07Z</time>
      </trkpt>
      <trkpt lat="36.6807518005371" lon="-4.996178150177">
        <ele>1743.14208984375</ele>
        <time>2018-07-28T06:24:08Z</time>
      </trkpt>
      <trkpt lat="36.6807594299316" lon="-4.99617719650269">
        <ele>1742.91821289062</ele>
        <time>2018-07-28T06:24:09Z</time>
      </trkpt>
      <trkpt lat="36.6807670593262" lon="-4.99617385864258">
        <ele>1742.7890625</ele>
        <time>2018-07-28T06:24:10Z</time>
      </trkpt>
      <trkpt lat="36.6807746887207" lon="-4.99617004394531">
        <ele>1742.6787109375</ele>
        <time>2018-07-28T06:24:11Z</time>
      </trkpt>
      <trkpt lat="36.6807823181152" lon="-4.99616718292236">
        <ele>1742.53039550781</ele>
        <time>2018-07-28T06:24:12Z</time>
      </trkpt>
      <trkpt lat="36.6807899475098" lon="-4.99616718292236">
        <ele>1742.2685546875</ele>
        <time>2018-07-28T06:24:13Z</time>
      </trkpt>
      <trkpt lat="36.6807975769043" lon="-4.99616813659668">
        <ele>1741.96887207031</ele>
        <time>2018-07-28T06:24:14Z</time>
      </trkpt>
      <trkpt lat="36.6808013916016" lon="-4.99617004394531">
        <ele>1741.76232910156</ele>
        <time>2018-07-28T06:24:15Z</time>
      </trkpt>
      <trkpt lat="36.6808013916016" lon="-4.99617099761963">
        <ele>1741.72448730469</ele>
        <time>2018-07-28T06:24:16Z</time>
      </trkpt>
      <trkpt lat="36.6808013916016" lon="-4.99617099761963">
        <ele>1741.72448730469</ele>
        <time>2018-07-28T06:24:17Z</time>
      </trkpt>
      <trkpt lat="36.6808013916016" lon="-4.99617099761963">
        <ele>1741.72448730469</ele>
        <time>2018-07-28T06:24:18Z</time>
      </trkpt>
      <trkpt lat="36.6808013916016" lon="-4.99617004394531">
        <ele>1741.76232910156</ele>
        <time>2018-07-28T06:24:19Z</time>
      </trkpt>
      <trkpt lat="36.6808013916016" lon="-4.99617099761963">
        <ele>1741.72448730469</ele>
        <time>2018-07-28T06:24:20Z</time>
      </trkpt>
      <trkpt lat="36.6808013916016" lon="-4.99617004394531">
        <ele>1741.76232910156</ele>
        <time>2018-07-28T06:24:21Z</time>
      </trkpt>
      <trkpt lat="36.6808052062988" lon="-4.996169090271">
        <ele>1741.66918945312</ele>
        <time>2018-07-28T06:24:22Z</time>
      </trkpt>
      <trkpt lat="36.6808128356934" lon="-4.99616718292236">
        <ele>1741.48303222656</ele>
        <time>2018-07-28T06:24:23Z</time>
      </trkpt>
      <trkpt lat="36.6808204650879" lon="-4.99616622924805">
        <ele>1741.25891113281</ele>
        <time>2018-07-28T06:24:24Z</time>
      </trkpt>
      <trkpt lat="36.6808280944824" lon="-4.99616718292236">
        <ele>1740.95935058594</ele>
        <time>2018-07-28T06:24:25Z</time>
      </trkpt>
      <trkpt lat="36.6808319091797" lon="-4.996169090271">
        <ele>1740.7529296875</ele>
        <time>2018-07-28T06:24:26Z</time>
      </trkpt>
      <trkpt lat="36.6808395385742" lon="-4.99617099761963">
        <ele>1740.43408203125</ele>
        <time>2018-07-28T06:24:27Z</time>
      </trkpt>
      <trkpt lat="36.6808433532715" lon="-4.99617481231689">
        <ele>1740.16442871094</ele>
        <time>2018-07-28T06:24:28Z</time>
      </trkpt>
      <trkpt lat="36.6808471679688" lon="-4.99618101119995">
        <ele>1739.80187988281</ele>
        <time>2018-07-28T06:24:29Z</time>
      </trkpt>
      <trkpt lat="36.6808547973633" lon="-4.99618721008301">
        <ele>1739.32238769531</ele>
        <time>2018-07-28T06:24:30Z</time>
      </trkpt>
      <trkpt lat="36.6808586120606" lon="-4.99619102478027">
        <ele>1739.05578613281</ele>
        <time>2018-07-28T06:24:31Z</time>
      </trkpt>
      <trkpt lat="36.6808624267578" lon="-4.99619197845459">
        <ele>1738.90100097656</ele>
        <time>2018-07-28T06:24:32Z</time>
      </trkpt>
      <trkpt lat="36.6808662414551" lon="-4.99619293212891">
        <ele>1738.74645996094</ele>
        <time>2018-07-28T06:24:33Z</time>
      </trkpt>
      <trkpt lat="36.6808700561523" lon="-4.99619293212891">
        <ele>1738.62890625</ele>
        <time>2018-07-28T06:24:34Z</time>
      </trkpt>
      <trkpt lat="36.6808738708496" lon="-4.99619388580322">
        <ele>1738.474609375</ele>
        <time>2018-07-28T06:24:35Z</time>
      </trkpt>
      <trkpt lat="36.6808776855469" lon="-4.99619483947754">
        <ele>1738.32055664062</ele>
        <time>2018-07-28T06:24:36Z</time>
      </trkpt>
      <trkpt lat="36.6808815002441" lon="-4.99619483947754">
        <ele>1738.20324707031</ele>
        <time>2018-07-28T06:24:37Z</time>
      </trkpt>
      <trkpt lat="36.6808853149414" lon="-4.99619293212891">
        <ele>1738.15905761719</ele>
        <time>2018-07-28T06:24:38Z</time>
      </trkpt>
      <trkpt lat="36.6808853149414" lon="-4.99619293212891">
        <ele>1738.15905761719</ele>
        <time>2018-07-28T06:24:39Z</time>
      </trkpt>
      <trkpt lat="36.6808853149414" lon="-4.99619388580322">
        <ele>1738.12243652344</ele>
        <time>2018-07-28T06:24:40Z</time>
      </trkpt>
      <trkpt lat="36.6808815002441" lon="-4.99619483947754">
        <ele>1738.20324707031</ele>
        <time>2018-07-28T06:24:41Z</time>
      </trkpt>
      <trkpt lat="36.6808815002441" lon="-4.99619722366333">
        <ele>1738.11157226562</ele>
        <time>2018-07-28T06:24:42Z</time>
      </trkpt>
      <trkpt lat="36.6808853149414" lon="-4.99619913101196">
        <ele>1737.92138671875</ele>
        <time>2018-07-28T06:24:43Z</time>
      </trkpt>
      <trkpt lat="36.6808891296387" lon="-4.99620294570923">
        <ele>1737.65869140625</ele>
        <time>2018-07-28T06:24:44Z</time>
      </trkpt>
      <trkpt lat="36.6808929443359" lon="-4.99620723724365">
        <ele>1737.37841796875</ele>
        <time>2018-07-28T06:24:45Z</time>
      </trkpt>
      <trkpt lat="36.6808967590332" lon="-4.99621200561523">
        <ele>1737.08081054688</ele>
        <time>2018-07-28T06:24:46Z</time>
      </trkpt>
      <trkpt lat="36.6809043884277" lon="-4.99621677398682">
        <ele>1736.6689453125</ele>
        <time>2018-07-28T06:24:47Z</time>
      </trkpt>
      <trkpt lat="36.680908203125" lon="-4.99622011184692">
        <ele>1736.42761230469</ele>
        <time>2018-07-28T06:24:48Z</time>
      </trkpt>
      <trkpt lat="36.6809158325195" lon="-4.99622106552124">
        <ele>1736.16186523438</ele>
        <time>2018-07-28T06:24:49Z</time>
      </trkpt>
      <trkpt lat="36.6809234619141" lon="-4.99621915817261">
        <ele>1736.00354003906</ele>
        <time>2018-07-28T06:24:50Z</time>
      </trkpt>
      <trkpt lat="36.6809310913086" lon="-4.99621820449829">
        <ele>1735.80895996094</ele>
        <time>2018-07-28T06:24:51Z</time>
      </trkpt>
      <trkpt lat="36.6809349060059" lon="-4.99621820449829">
        <ele>1735.69384765625</ele>
        <time>2018-07-28T06:24:52Z</time>
      </trkpt>
      <trkpt lat="36.6809349060059" lon="-4.99622201919556">
        <ele>1735.55224609375</ele>
        <time>2018-07-28T06:24:53Z</time>
      </trkpt>
      <trkpt lat="36.6809349060059" lon="-4.99622678756714">
        <ele>1735.37524414062</ele>
        <time>2018-07-28T06:24:54Z</time>
      </trkpt>
      <trkpt lat="36.6809349060059" lon="-4.99623107910156">
        <ele>1735.21594238281</ele>
        <time>2018-07-28T06:24:55Z</time>
      </trkpt>
      <trkpt lat="36.6809349060059" lon="-4.99623489379883">
        <ele>1735.07446289062</ele>
        <time>2018-07-28T06:24:56Z</time>
      </trkpt>
      <trkpt lat="36.6809349060059" lon="-4.99623823165894">
        <ele>1734.95056152344</ele>
        <time>2018-07-28T06:24:57Z</time>
      </trkpt>
      <trkpt lat="36.6809387207031" lon="-4.99623918533325">
        <ele>1734.80200195312</ele>
        <time>2018-07-28T06:24:58Z</time>
      </trkpt>
      <trkpt lat="36.6809387207031" lon="-4.99624013900757">
        <ele>1734.76672363281</ele>
        <time>2018-07-28T06:24:59Z</time>
      </trkpt>
      <trkpt lat="36.6809387207031" lon="-4.9962420463562">
        <ele>1734.69604492188</ele>
        <time>2018-07-28T06:25:00Z</time>
      </trkpt>
      <trkpt lat="36.6809387207031" lon="-4.99624586105347">
        <ele>1734.55480957031</ele>
        <time>2018-07-28T06:25:01Z</time>
      </trkpt>
      <trkpt lat="36.6809425354004" lon="-4.99624919891357">
        <ele>1734.31909179688</ele>
        <time>2018-07-28T06:25:02Z</time>
      </trkpt>
      <trkpt lat="36.6809463500977" lon="-4.99625301361084">
        <ele>1734.06628417969</ele>
        <time>2018-07-28T06:25:03Z</time>
      </trkpt>
      <trkpt lat="36.6809539794922" lon="-4.99625587463379">
        <ele>1733.73767089844</ele>
        <time>2018-07-28T06:25:04Z</time>
      </trkpt>
      <trkpt lat="36.6809577941894" lon="-4.99625778198242">
        <ele>1733.55639648438</ele>
        <time>2018-07-28T06:25:05Z</time>
      </trkpt>
      <trkpt lat="36.6809577941894" lon="-4.99626016616821">
        <ele>1733.46923828125</ele>
        <time>2018-07-28T06:25:06Z</time>
      </trkpt>
      <trkpt lat="36.6809616088867" lon="-4.99626207351685">
        <ele>1733.28845214844</ele>
        <time>2018-07-28T06:25:07Z</time>
      </trkpt>
      <trkpt lat="36.680965423584" lon="-4.99626398086548">
        <ele>1733.10815429688</ele>
        <time>2018-07-28T06:25:08Z</time>
      </trkpt>
      <trkpt lat="36.6809692382812" lon="-4.99626684188843">
        <ele>1732.89343261719</ele>
        <time>2018-07-28T06:25:09Z</time>
      </trkpt>
      <trkpt lat="36.6809768676758" lon="-4.99627113342285">
        <ele>1732.51745605469</ele>
        <time>2018-07-28T06:25:10Z</time>
      </trkpt>
      <trkpt lat="36.680980682373" lon="-4.99627685546875">
        <ele>1732.20129394531</ele>
        <time>2018-07-28T06:25:11Z</time>
      </trkpt>
      <trkpt lat="36.6809844970703" lon="-4.99628210067749">
        <ele>1731.90344238281</ele>
        <time>2018-07-28T06:25:12Z</time>
      </trkpt>
      <trkpt lat="36.6809844970703" lon="-4.9962887763977">
        <ele>1731.66369628906</ele>
        <time>2018-07-28T06:25:13Z</time>
      </trkpt>
      <trkpt lat="36.6809844970703" lon="-4.99629592895508">
        <ele>1731.40698242188</ele>
        <time>2018-07-28T06:25:14Z</time>
      </trkpt>
      <trkpt lat="36.6809883117676" lon="-4.99630212783814">
        <ele>1731.0771484375</ele>
        <time>2018-07-28T06:25:15Z</time>
      </trkpt>
      <trkpt lat="36.6809883117676" lon="-4.9963059425354">
        <ele>1730.94055175781</ele>
        <time>2018-07-28T06:25:16Z</time>
      </trkpt>
      <trkpt lat="36.6809921264648" lon="-4.99630498886108">
        <ele>1730.86767578125</ele>
        <time>2018-07-28T06:25:17Z</time>
      </trkpt>
      <trkpt lat="36.6809959411621" lon="-4.99630689620972">
        <ele>1730.69274902344</ele>
        <time>2018-07-28T06:25:18Z</time>
      </trkpt>
      <trkpt lat="36.6810035705566" lon="-4.99630784988403">
        <ele>1730.4453125</ele>
        <time>2018-07-28T06:25:19Z</time>
      </trkpt>
      <trkpt lat="36.6810073852539" lon="-4.99631118774414">
        <ele>1730.22058105469</ele>
        <time>2018-07-28T06:25:20Z</time>
      </trkpt>
      <trkpt lat="36.6810150146484" lon="-4.99631214141846">
        <ele>1729.97412109375</ele>
        <time>2018-07-28T06:25:21Z</time>
      </trkpt>
      <trkpt lat="36.681022644043" lon="-4.99631214141846">
        <ele>1729.76147460938</ele>
        <time>2018-07-28T06:25:22Z</time>
      </trkpt>
      <trkpt lat="36.6810264587402" lon="-4.99631214141846">
        <ele>1729.65515136719</ele>
        <time>2018-07-28T06:25:23Z</time>
      </trkpt>
      <trkpt lat="36.6810264587402" lon="-4.99631309509277">
        <ele>1729.62182617188</ele>
        <time>2018-07-28T06:25:24Z</time>
      </trkpt>
      <trkpt lat="36.6810264587402" lon="-4.99631309509277">
        <ele>1729.62182617188</ele>
        <time>2018-07-28T06:25:25Z</time>
      </trkpt>
      <trkpt lat="36.6810264587402" lon="-4.99631309509277">
        <ele>1729.62182617188</ele>
        <time>2018-07-28T06:25:26Z</time>
      </trkpt>
      <trkpt lat="36.6810264587402" lon="-4.99631404876709">
        <ele>1729.58862304688</ele>
        <time>2018-07-28T06:25:27Z</time>
      </trkpt>
      <trkpt lat="36.6810302734375" lon="-4.99631500244141">
        <ele>1729.44921875</ele>
        <time>2018-07-28T06:25:28Z</time>
      </trkpt>
      <trkpt lat="36.6810340881348" lon="-4.99631595611572">
        <ele>1729.31005859375</ele>
        <time>2018-07-28T06:25:29Z</time>
      </trkpt>
      <trkpt lat="36.681037902832" lon="-4.99631786346436">
        <ele>1729.13806152344</ele>
        <time>2018-07-28T06:25:30Z</time>
      </trkpt>
      <trkpt lat="36.6810455322266" lon="-4.99631786346436">
        <ele>1728.92651367188</ele>
        <time>2018-07-28T06:25:31Z</time>
      </trkpt>
      <trkpt lat="36.6810493469238" lon="-4.99631786346436">
        <ele>1728.82067871094</ele>
        <time>2018-07-28T06:25:32Z</time>
      </trkpt>
      <trkpt lat="36.6810531616211" lon="-4.99631881713867">
        <ele>1728.68225097656</ele>
        <time>2018-07-28T06:25:33Z</time>
      </trkpt>
      <trkpt lat="36.6810531616211" lon="-4.99632120132446">
        <ele>1728.6005859375</ele>
        <time>2018-07-28T06:25:34Z</time>
      </trkpt>
      <trkpt lat="36.6810531616211" lon="-4.99632692337036">
        <ele>1728.40478515625</ele>
        <time>2018-07-28T06:25:35Z</time>
      </trkpt>
      <trkpt lat="36.6810531616211" lon="-4.99633407592773">
        <ele>1728.16003417969</ele>
        <time>2018-07-28T06:25:36Z</time>
      </trkpt>
      <trkpt lat="36.6810531616211" lon="-4.99634313583374">
        <ele>1727.85009765625</ele>
        <time>2018-07-28T06:25:37Z</time>
      </trkpt>
      <trkpt lat="36.6810493469238" lon="-4.99635219573975">
        <ele>1727.64270019531</ele>
        <time>2018-07-28T06:25:38Z</time>
      </trkpt>
      <trkpt lat="36.6810493469238" lon="-4.99636220932007">
        <ele>1727.29907226562</ele>
        <time>2018-07-28T06:25:39Z</time>
      </trkpt>
      <trkpt lat="36.6810455322266" lon="-4.99637079238892">
        <ele>1727.10546875</ele>
        <time>2018-07-28T06:25:40Z</time>
      </trkpt>
      <trkpt lat="36.6810455322266" lon="-4.99637699127197">
        <ele>1726.89221191406</ele>
        <time>2018-07-28T06:25:41Z</time>
      </trkpt>
      <trkpt lat="36.6810417175293" lon="-4.99638223648071">
        <ele>1726.8115234375</ele>
        <time>2018-07-28T06:25:42Z</time>
      </trkpt>
      <trkpt lat="36.681037902832" lon="-4.99638605117798">
        <ele>1726.779296875</ele>
        <time>2018-07-28T06:25:43Z</time>
      </trkpt>
      <trkpt lat="36.681037902832" lon="-4.99639177322388">
        <ele>1726.58142089844</ele>
        <time>2018-07-28T06:25:44Z</time>
      </trkpt>
      <trkpt lat="36.681037902832" lon="-4.99639797210693">
        <ele>1726.36694335938</ele>
        <time>2018-07-28T06:25:45Z</time>
      </trkpt>
      <trkpt lat="36.681037902832" lon="-4.99640417098999">
        <ele>1726.15258789062</ele>
        <time>2018-07-28T06:25:46Z</time>
      </trkpt>
      <trkpt lat="36.6810340881348" lon="-4.9964108467102">
        <ele>1726.01879882812</ele>
        <time>2018-07-28T06:25:47Z</time>
      </trkpt>
      <trkpt lat="36.6810340881348" lon="-4.99641799926758">
        <ele>1725.77062988281</ele>
        <time>2018-07-28T06:25:48Z</time>
      </trkpt>
      <trkpt lat="36.6810340881348" lon="-4.99642610549927">
        <ele>1725.48950195312</ele>
        <time>2018-07-28T06:25:49Z</time>
      </trkpt>
      <trkpt lat="36.6810302734375" lon="-4.99643278121948">
        <ele>1725.35302734375</ele>
        <time>2018-07-28T06:25:50Z</time>
      </trkpt>
      <trkpt lat="36.6810302734375" lon="-4.99643898010254">
        <ele>1725.13745117188</ele>
        <time>2018-07-28T06:25:51Z</time>
      </trkpt>
      <trkpt lat="36.6810302734375" lon="-4.9964451789856">
        <ele>1724.921875</ele>
        <time>2018-07-28T06:25:52Z</time>
      </trkpt>
      <trkpt lat="36.6810302734375" lon="-4.99644994735718">
        <ele>1724.75598144531</ele>
        <time>2018-07-28T06:25:53Z</time>
      </trkpt>
      <trkpt lat="36.6810302734375" lon="-4.99645280838013">
        <ele>1724.65649414062</ele>
        <time>2018-07-28T06:25:54Z</time>
      </trkpt>
      <trkpt lat="36.6810264587402" lon="-4.99645900726318">
        <ele>1724.53356933594</ele>
        <time>2018-07-28T06:25:55Z</time>
      </trkpt>
      <trkpt lat="36.6810264587402" lon="-4.99646377563477">
        <ele>1724.36730957031</ele>
        <time>2018-07-28T06:25:56Z</time>
      </trkpt>
      <trkpt lat="36.681022644043" lon="-4.99647188186646">
        <ele>1724.17602539062</ele>
        <time>2018-07-28T06:25:57Z</time>
      </trkpt>
      <trkpt lat="36.681022644043" lon="-4.99648094177246">
        <ele>1723.85925292969</ele>
        <time>2018-07-28T06:25:58Z</time>
      </trkpt>
      <trkpt lat="36.681022644043" lon="-4.99649095535278">
        <ele>1723.50915527344</ele>
        <time>2018-07-28T06:25:59Z</time>
      </trkpt>
      <trkpt lat="36.681022644043" lon="-4.99649906158447">
        <ele>1723.22570800781</ele>
        <time>2018-07-28T06:26:00Z</time>
      </trkpt>
      <trkpt lat="36.681022644043" lon="-4.99650478363037">
        <ele>1723.02563476562</ele>
        <time>2018-07-28T06:26:01Z</time>
      </trkpt>
      <trkpt lat="36.6810264587402" lon="-4.9965090751648">
        <ele>1722.78759765625</ele>
        <time>2018-07-28T06:26:02Z</time>
      </trkpt>
      <trkpt lat="36.6810264587402" lon="-4.99651098251343">
        <ele>1722.72106933594</ele>
        <time>2018-07-28T06:26:03Z</time>
      </trkpt>
      <trkpt lat="36.6810264587402" lon="-4.99651288986206">
        <ele>1722.65454101562</ele>
        <time>2018-07-28T06:26:04Z</time>
      </trkpt>
      <trkpt lat="36.681022644043" lon="-4.99651288986206">
        <ele>1722.7421875</ele>
        <time>2018-07-28T06:26:05Z</time>
      </trkpt>
      <trkpt lat="36.681022644043" lon="-4.99651384353638">
        <ele>1722.70874023438</ele>
        <time>2018-07-28T06:26:06Z</time>
      </trkpt>
      <trkpt lat="36.681022644043" lon="-4.9965181350708">
        <ele>1722.55871582031</ele>
        <time>2018-07-28T06:26:07Z</time>
      </trkpt>
      <trkpt lat="36.681022644043" lon="-4.99652481079102">
        <ele>1722.32531738281</ele>
        <time>2018-07-28T06:26:08Z</time>
      </trkpt>
      <trkpt lat="36.681022644043" lon="-4.99653100967407">
        <ele>1722.10852050781</ele>
        <time>2018-07-28T06:26:09Z</time>
      </trkpt>
      <trkpt lat="36.681022644043" lon="-4.99653720855713">
        <ele>1721.89184570312</ele>
        <time>2018-07-28T06:26:10Z</time>
      </trkpt>
      <trkpt lat="36.681022644043" lon="-4.99654579162598">
        <ele>1721.59167480469</ele>
        <time>2018-07-28T06:26:11Z</time>
      </trkpt>
      <trkpt lat="36.681022644043" lon="-4.9965558052063">
        <ele>1721.24157714844</ele>
        <time>2018-07-28T06:26:12Z</time>
      </trkpt>
      <trkpt lat="36.6810188293457" lon="-4.99656677246094">
        <ele>1720.94067382812</ele>
        <time>2018-07-28T06:26:13Z</time>
      </trkpt>
      <trkpt lat="36.681022644043" lon="-4.99657583236694">
        <ele>1720.54125976562</ele>
        <time>2018-07-28T06:26:14Z</time>
      </trkpt>
      <trkpt lat="36.6810264587402" lon="-4.99658107757568">
        <ele>1720.27673339844</ele>
        <time>2018-07-28T06:26:15Z</time>
      </trkpt>
      <trkpt lat="36.6810302734375" lon="-4.99658203125">
        <ele>1720.16223144531</ele>
        <time>2018-07-28T06:26:16Z</time>
      </trkpt>
      <trkpt lat="36.6810340881348" lon="-4.99658203125">
        <ele>1720.08117675781</ele>
        <time>2018-07-28T06:26:17Z</time>
      </trkpt>
      <trkpt lat="36.681037902832" lon="-4.99658203125">
        <ele>1720</ele>
        <time>2018-07-28T06:26:18Z</time>
      </trkpt>
      <trkpt lat="36.6810417175293" lon="-4.99658107757568">
        <ele>1719.95178222656</ele>
        <time>2018-07-28T06:26:19Z</time>
      </trkpt>
      <trkpt lat="36.6810455322266" lon="-4.99658107757568">
        <ele>1719.87048339844</ele>
        <time>2018-07-28T06:26:20Z</time>
      </trkpt>
      <trkpt lat="36.6810455322266" lon="-4.99658298492432">
        <ele>1719.80493164062</ele>
        <time>2018-07-28T06:26:21Z</time>
      </trkpt>
      <trkpt lat="36.6810531616211" lon="-4.99658584594727">
        <ele>1719.544921875</ele>
        <time>2018-07-28T06:26:22Z</time>
      </trkpt>
      <trkpt lat="36.6810569763184" lon="-4.99658679962158">
        <ele>1719.43151855469</ele>
        <time>2018-07-28T06:26:23Z</time>
      </trkpt>
      <trkpt lat="36.6810646057129" lon="-4.99658584594727">
        <ele>1719.30249023438</ele>
        <time>2018-07-28T06:26:24Z</time>
      </trkpt>
      <trkpt lat="36.6810684204102" lon="-4.99658393859863">
        <ele>1719.28625488281</ele>
        <time>2018-07-28T06:26:25Z</time>
      </trkpt>
      <trkpt lat="36.6810722351074" lon="-4.99658298492432">
        <ele>1719.23742675781</ele>
        <time>2018-07-28T06:26:26Z</time>
      </trkpt>
      <trkpt lat="36.681079864502" lon="-4.99658393859863">
        <ele>1719.04333496094</ele>
        <time>2018-07-28T06:26:27Z</time>
      </trkpt>
      <trkpt lat="36.6810836791992" lon="-4.99658584594727">
        <ele>1718.89855957031</ele>
        <time>2018-07-28T06:26:28Z</time>
      </trkpt>
      <trkpt lat="36.6810913085938" lon="-4.99658918380737">
        <ele>1718.62585449219</ele>
        <time>2018-07-28T06:26:29Z</time>
      </trkpt>
      <trkpt lat="36.681095123291" lon="-4.99659109115601">
        <ele>1718.48205566406</ele>
        <time>2018-07-28T06:26:30Z</time>
      </trkpt>
      <trkpt lat="36.6810989379883" lon="-4.99659299850464">
        <ele>1718.33862304688</ele>
        <time>2018-07-28T06:26:31Z</time>
      </trkpt>
      <trkpt lat="36.6811027526856" lon="-4.99659299850464">
        <ele>1718.25854492188</ele>
        <time>2018-07-28T06:26:32Z</time>
      </trkpt>
      <trkpt lat="36.6811027526856" lon="-4.99659395217896">
        <ele>1718.22705078125</ele>
        <time>2018-07-28T06:26:33Z</time>
      </trkpt>
      <trkpt lat="36.6811027526856" lon="-4.99659490585327">
        <ele>1718.19555664062</ele>
        <time>2018-07-28T06:26:34Z</time>
      </trkpt>
      <trkpt lat="36.6811103820801" lon="-4.99659490585327">
        <ele>1718.03564453125</ele>
        <time>2018-07-28T06:26:35Z</time>
      </trkpt>
      <trkpt lat="36.6811141967773" lon="-4.9965968132019">
        <ele>1717.89331054688</ele>
        <time>2018-07-28T06:26:36Z</time>
      </trkpt>
      <trkpt lat="36.6811180114746" lon="-4.99660015106201">
        <ele>1717.70471191406</ele>
        <time>2018-07-28T06:26:37Z</time>
      </trkpt>
      <trkpt lat="36.6811218261719" lon="-4.99660491943359">
        <ele>1717.47009277344</ele>
        <time>2018-07-28T06:26:38Z</time>
      </trkpt>
      <trkpt lat="36.6811256408691" lon="-4.99661111831665">
        <ele>1717.18994140625</ele>
        <time>2018-07-28T06:26:39Z</time>
      </trkpt>
      <trkpt lat="36.6811332702637" lon="-4.99661779403686">
        <ele>1716.81774902344</ele>
        <time>2018-07-28T06:26:40Z</time>
      </trkpt>
      <trkpt lat="36.6811408996582" lon="-4.99662303924561">
        <ele>1716.49389648438</ele>
        <time>2018-07-28T06:26:41Z</time>
      </trkpt>
      <trkpt lat="36.6811485290527" lon="-4.99662780761719">
        <ele>1716.18725585938</ele>
        <time>2018-07-28T06:26:42Z</time>
      </trkpt>
      <trkpt lat="36.6811561584473" lon="-4.99663305282593">
        <ele>1715.8671875</ele>
        <time>2018-07-28T06:26:43Z</time>
      </trkpt>
      <trkpt lat="36.6811599731445" lon="-4.99663782119751">
        <ele>1715.64013671875</ele>
        <time>2018-07-28T06:26:44Z</time>
      </trkpt>
      <trkpt lat="36.6811599731445" lon="-4.99664211273193">
        <ele>1715.50451660156</ele>
        <time>2018-07-28T06:26:45Z</time>
      </trkpt>
      <trkpt lat="36.6811637878418" lon="-4.9966459274292">
        <ele>1715.30871582031</ele>
        <time>2018-07-28T06:26:46Z</time>
      </trkpt>
      <trkpt lat="36.6811676025391" lon="-4.99664878845215">
        <ele>1715.14367675781</ele>
        <time>2018-07-28T06:26:47Z</time>
      </trkpt>
      <trkpt lat="36.6811714172363" lon="-4.99665212631226">
        <ele>1714.96423339844</ele>
        <time>2018-07-28T06:26:48Z</time>
      </trkpt>
      <trkpt lat="36.6811790466309" lon="-4.99665594100952">
        <ele>1714.6962890625</ele>
        <time>2018-07-28T06:26:49Z</time>
      </trkpt>
      <trkpt lat="36.6811866760254" lon="-4.99666023254394">
        <ele>1714.41491699219</ele>
        <time>2018-07-28T06:26:50Z</time>
      </trkpt>
      <trkpt lat="36.6811904907227" lon="-4.99666595458984">
        <ele>1714.16455078125</ele>
        <time>2018-07-28T06:26:51Z</time>
      </trkpt>
      <trkpt lat="36.6811943054199" lon="-4.99667310714722">
        <ele>1713.89514160156</ele>
        <time>2018-07-28T06:26:52Z</time>
      </trkpt>
      <trkpt lat="36.6811981201172" lon="-4.99668121337891">
        <ele>1713.60339355469</ele>
        <time>2018-07-28T06:26:53Z</time>
      </trkpt>
      <trkpt lat="36.6812019348144" lon="-4.99668788909912">
        <ele>1713.35083007812</ele>
        <time>2018-07-28T06:26:54Z</time>
      </trkpt>
      <trkpt lat="36.6812057495117" lon="-4.99669408798218">
        <ele>1713.11169433594</ele>
        <time>2018-07-28T06:26:55Z</time>
      </trkpt>
      <trkpt lat="36.681209564209" lon="-4.99670076370239">
        <ele>1712.8603515625</ele>
        <time>2018-07-28T06:26:56Z</time>
      </trkpt>
      <trkpt lat="36.6812171936035" lon="-4.99671220779419">
        <ele>1712.41040039062</ele>
        <time>2018-07-28T06:26:57Z</time>
      </trkpt>
      <trkpt lat="36.6812210083008" lon="-4.99672412872314">
        <ele>1712.0205078125</ele>
        <time>2018-07-28T06:26:58Z</time>
      </trkpt>
      <trkpt lat="36.6812286376953" lon="-4.99673318862915">
        <ele>1711.63757324219</ele>
        <time>2018-07-28T06:26:59Z</time>
      </trkpt>
      <trkpt lat="36.6812362670898" lon="-4.99673795700073">
        <ele>1711.37036132812</ele>
        <time>2018-07-28T06:27:00Z</time>
      </trkpt>
      <trkpt lat="36.6812400817871" lon="-4.99674081802368">
        <ele>1711.22436523438</ele>
        <time>2018-07-28T06:27:01Z</time>
      </trkpt>
      <trkpt lat="36.6812438964844" lon="-4.99674415588379">
        <ele>1711.06604003906</ele>
        <time>2018-07-28T06:27:02Z</time>
      </trkpt>
      <trkpt lat="36.6812477111816" lon="-4.99674701690674">
        <ele>1710.92053222656</ele>
        <time>2018-07-28T06:27:03Z</time>
      </trkpt>
      <trkpt lat="36.6812477111816" lon="-4.99674797058106">
        <ele>1710.89538574219</ele>
        <time>2018-07-28T06:27:04Z</time>
      </trkpt>
      <trkpt lat="36.6812438964844" lon="-4.99674987792969">
        <ele>1710.91455078125</ele>
        <time>2018-07-28T06:27:05Z</time>
      </trkpt>
      <trkpt lat="36.6812438964844" lon="-4.996750831604">
        <ele>1710.88928222656</ele>
        <time>2018-07-28T06:27:06Z</time>
      </trkpt>
      <trkpt lat="36.6812438964844" lon="-4.99675416946411">
        <ele>1710.80090332031</ele>
        <time>2018-07-28T06:27:07Z</time>
      </trkpt>
      <trkpt lat="36.6812477111816" lon="-4.99675607681274">
        <ele>1710.68115234375</ele>
        <time>2018-07-28T06:27:08Z</time>
      </trkpt>
      <trkpt lat="36.6812477111816" lon="-4.99675798416138">
        <ele>1710.63073730469</ele>
        <time>2018-07-28T06:27:09Z</time>
      </trkpt>
      <trkpt lat="36.6812477111816" lon="-4.99675989151001">
        <ele>1710.58032226562</ele>
        <time>2018-07-28T06:27:10Z</time>
      </trkpt>
      <trkpt lat="36.6812515258789" lon="-4.99675989151001">
        <ele>1710.51123046875</ele>
        <time>2018-07-28T06:27:11Z</time>
      </trkpt>
      <trkpt lat="36.6812515258789" lon="-4.99675989151001">
        <ele>1710.51123046875</ele>
        <time>2018-07-28T06:27:12Z</time>
      </trkpt>
      <trkpt lat="36.6812515258789" lon="-4.99675893783569">
        <ele>1710.53637695312</ele>
        <time>2018-07-28T06:27:13Z</time>
      </trkpt>
      <trkpt lat="36.6812515258789" lon="-4.99675893783569">
        <ele>1710.53637695312</ele>
        <time>2018-07-28T06:27:14Z</time>
      </trkpt>
      <trkpt lat="36.6812477111816" lon="-4.99675893783569">
        <ele>1710.60559082031</ele>
        <time>2018-07-28T06:27:15Z</time>
      </trkpt>
      <trkpt lat="36.6812477111816" lon="-4.99675893783569">
        <ele>1710.60559082031</ele>
        <time>2018-07-28T06:27:16Z</time>
      </trkpt>
      <trkpt lat="36.6812477111816" lon="-4.99675798416138">
        <ele>1710.63073730469</ele>
        <time>2018-07-28T06:27:17Z</time>
      </trkpt>
      <trkpt lat="36.6812477111816" lon="-4.99675798416138">
        <ele>1710.63073730469</ele>
        <time>2018-07-28T06:27:18Z</time>
      </trkpt>
      <trkpt lat="36.6812477111816" lon="-4.99675703048706">
        <ele>1710.65600585938</ele>
        <time>2018-07-28T06:27:19Z</time>
      </trkpt>
      <trkpt lat="36.6812515258789" lon="-4.99675893783569">
        <ele>1710.53637695312</ele>
        <time>2018-07-28T06:27:20Z</time>
      </trkpt>
      <trkpt lat="36.6812515258789" lon="-4.99676179885864">
        <ele>1710.4609375</ele>
        <time>2018-07-28T06:27:21Z</time>
      </trkpt>
      <trkpt lat="36.6812553405762" lon="-4.99676513671875">
        <ele>1710.30395507812</ele>
        <time>2018-07-28T06:27:22Z</time>
      </trkpt>
      <trkpt lat="36.6812553405762" lon="-4.99676895141602">
        <ele>1710.20349121094</ele>
        <time>2018-07-28T06:27:23Z</time>
      </trkpt>
      <trkpt lat="36.6812553405762" lon="-4.99677181243896">
        <ele>1710.12805175781</ele>
        <time>2018-07-28T06:27:24Z</time>
      </trkpt>
      <trkpt lat="36.6812553405762" lon="-4.99677610397339">
        <ele>1710.01501464844</ele>
        <time>2018-07-28T06:27:25Z</time>
      </trkpt>
      <trkpt lat="36.6812553405762" lon="-4.99677801132202">
        <ele>1709.96484375</ele>
        <time>2018-07-28T06:27:26Z</time>
      </trkpt>
      <trkpt lat="36.6812591552734" lon="-4.9967770576477">
        <ele>1709.92150878906</ele>
        <time>2018-07-28T06:27:27Z</time>
      </trkpt>
      <trkpt lat="36.6812591552734" lon="-4.99677515029907">
        <ele>1709.9716796875</ele>
        <time>2018-07-28T06:27:28Z</time>
      </trkpt>
      <trkpt lat="36.6812591552734" lon="-4.99677276611328">
        <ele>1710.03442382812</ele>
        <time>2018-07-28T06:27:29Z</time>
      </trkpt>
      <trkpt lat="36.6812591552734" lon="-4.99677085876465">
        <ele>1710.08459472656</ele>
        <time>2018-07-28T06:27:30Z</time>
      </trkpt>
      <trkpt lat="36.6812591552734" lon="-4.99677181243896">
        <ele>1710.05944824219</ele>
        <time>2018-07-28T06:27:31Z</time>
      </trkpt>
      <trkpt lat="36.6812591552734" lon="-4.99677419662476">
        <ele>1709.99682617188</ele>
        <time>2018-07-28T06:27:32Z</time>
      </trkpt>
      <trkpt lat="36.6812629699707" lon="-4.99677896499634">
        <ele>1709.80310058594</ele>
        <time>2018-07-28T06:27:33Z</time>
      </trkpt>
      <trkpt lat="36.681266784668" lon="-4.99678421020508">
        <ele>1709.59729003906</ele>
        <time>2018-07-28T06:27:34Z</time>
      </trkpt>
      <trkpt lat="36.6812705993652" lon="-4.99678993225098">
        <ele>1709.37951660156</ele>
        <time>2018-07-28T06:27:35Z</time>
      </trkpt>
      <trkpt lat="36.6812782287598" lon="-4.9967942237854">
        <ele>1709.13195800781</ele>
        <time>2018-07-28T06:27:36Z</time>
      </trkpt>
      <trkpt lat="36.681282043457" lon="-4.99679708480835">
        <ele>1708.98986816406</ele>
        <time>2018-07-28T06:27:37Z</time>
      </trkpt>
      <trkpt lat="36.6812858581543" lon="-4.9967999458313">
        <ele>1708.84802246094</ele>
        <time>2018-07-28T06:27:38Z</time>
      </trkpt>
      <trkpt lat="36.6812896728516" lon="-4.99680280685425">
        <ele>1708.70642089844</ele>
        <time>2018-07-28T06:27:39Z</time>
      </trkpt>
      <trkpt lat="36.6812896728516" lon="-4.99680614471436">
        <ele>1708.61975097656</ele>
        <time>2018-07-28T06:27:40Z</time>
      </trkpt>
      <trkpt lat="36.6812934875488" lon="-4.9968090057373">
        <ele>1708.47863769531</ele>
        <time>2018-07-28T06:27:41Z</time>
      </trkpt>
      <trkpt lat="36.6812934875488" lon="-4.99681186676025">
        <ele>1708.40454101562</ele>
        <time>2018-07-28T06:27:42Z</time>
      </trkpt>
      <trkpt lat="36.6812973022461" lon="-4.99681615829468">
        <ele>1708.22668457031</ele>
        <time>2018-07-28T06:27:43Z</time>
      </trkpt>
      <trkpt lat="36.6812973022461" lon="-4.99681997299194">
        <ele>1708.12805175781</ele>
        <time>2018-07-28T06:27:44Z</time>
      </trkpt>
      <trkpt lat="36.6813011169434" lon="-4.99682378768921">
        <ele>1707.96313476562</ele>
        <time>2018-07-28T06:27:45Z</time>
      </trkpt>
      <trkpt lat="36.6813049316406" lon="-4.99682903289795">
        <ele>1707.76159667969</ele>
        <time>2018-07-28T06:27:46Z</time>
      </trkpt>
      <trkpt lat="36.6813087463379" lon="-4.9968318939209">
        <ele>1707.62194824219</ele>
        <time>2018-07-28T06:27:47Z</time>
      </trkpt>
      <trkpt lat="36.6813087463379" lon="-4.99683523178101">
        <ele>1707.53601074219</ele>
        <time>2018-07-28T06:27:48Z</time>
      </trkpt>
      <trkpt lat="36.6813125610352" lon="-4.99683618545532">
        <ele>1707.44567871094</ele>
        <time>2018-07-28T06:27:49Z</time>
      </trkpt>
      <trkpt lat="36.6813125610352" lon="-4.9968409538269">
        <ele>1707.3232421875</ele>
        <time>2018-07-28T06:27:50Z</time>
      </trkpt>
      <trkpt lat="36.6813163757324" lon="-4.99684715270996">
        <ele>1707.09875488281</ele>
        <time>2018-07-28T06:27:51Z</time>
      </trkpt>
      <trkpt lat="36.6813201904297" lon="-4.99685382843018">
        <ele>1706.86267089844</ele>
        <time>2018-07-28T06:27:52Z</time>
      </trkpt>
      <trkpt lat="36.6813201904297" lon="-4.99686098098755">
        <ele>1706.67956542969</ele>
        <time>2018-07-28T06:27:53Z</time>
      </trkpt>
      <trkpt lat="36.6813201904297" lon="-4.99686908721924">
        <ele>1706.47216796875</ele>
        <time>2018-07-28T06:27:54Z</time>
      </trkpt>
      <trkpt lat="36.681324005127" lon="-4.99687576293945">
        <ele>1706.23718261719</ele>
        <time>2018-07-28T06:27:55Z</time>
      </trkpt>
      <trkpt lat="36.681324005127" lon="-4.99688291549683">
        <ele>1706.05444335938</ele>
        <time>2018-07-28T06:27:56Z</time>
      </trkpt>
      <trkpt lat="36.681324005127" lon="-4.99689102172852">
        <ele>1705.84741210938</ele>
        <time>2018-07-28T06:27:57Z</time>
      </trkpt>
      <trkpt lat="36.681324005127" lon="-4.99690103530884">
        <ele>1705.59155273438</ele>
        <time>2018-07-28T06:27:58Z</time>
      </trkpt>
      <trkpt lat="36.681324005127" lon="-4.99690914154053">
        <ele>1705.38452148438</ele>
        <time>2018-07-28T06:27:59Z</time>
      </trkpt>
      <trkpt lat="36.6813278198242" lon="-4.99691486358643">
        <ele>1705.17602539062</ele>
        <time>2018-07-28T06:28:00Z</time>
      </trkpt>
      <trkpt lat="36.6813278198242" lon="-4.99691915512085">
        <ele>1705.06652832031</ele>
        <time>2018-07-28T06:28:01Z</time>
      </trkpt>
      <trkpt lat="36.6813316345215" lon="-4.9969220161438">
        <ele>1704.93151855469</ele>
        <time>2018-07-28T06:28:02Z</time>
      </trkpt>
      <trkpt lat="36.6813354492188" lon="-4.99692678451538">
        <ele>1704.74829101562</ele>
        <time>2018-07-28T06:28:03Z</time>
      </trkpt>
      <trkpt lat="36.6813354492188" lon="-4.99693393707275">
        <ele>1704.56652832031</ele>
        <time>2018-07-28T06:28:04Z</time>
      </trkpt>
      <trkpt lat="36.681339263916" lon="-4.99693918228149">
        <ele>1704.37194824219</ele>
        <time>2018-07-28T06:28:05Z</time>
      </trkpt>
      <trkpt lat="36.681339263916" lon="-4.99694395065308">
        <ele>1704.2509765625</ele>
        <time>2018-07-28T06:28:06Z</time>
      </trkpt>
      <trkpt lat="36.6813354492188" lon="-4.99695014953613">
        <ele>1704.15454101562</ele>
        <time>2018-07-28T06:28:07Z</time>
      </trkpt>
      <trkpt lat="36.681339263916" lon="-4.99696016311646">
        <ele>1703.83959960938</ele>
        <time>2018-07-28T06:28:08Z</time>
      </trkpt>
      <trkpt lat="36.681339263916" lon="-4.99697208404541">
        <ele>1703.53723144531</ele>
        <time>2018-07-28T06:28:09Z</time>
      </trkpt>
      <trkpt lat="36.6813430786133" lon="-4.9969801902771">
        <ele>1703.27209472656</ele>
        <time>2018-07-28T06:28:10Z</time>
      </trkpt>
      <trkpt lat="36.6813468933106" lon="-4.99698400497436">
        <ele>1703.11608886719</ele>
        <time>2018-07-28T06:28:11Z</time>
      </trkpt>
      <trkpt lat="36.6813468933106" lon="-4.99698305130005">
        <ele>1703.14025878906</ele>
        <time>2018-07-28T06:28:12Z</time>
      </trkpt>
      <trkpt lat="36.6813468933106" lon="-4.99698305130005">
        <ele>1703.14025878906</ele>
        <time>2018-07-28T06:28:13Z</time>
      </trkpt>
      <trkpt lat="36.6813468933106" lon="-4.99698209762573">
        <ele>1703.16430664062</ele>
        <time>2018-07-28T06:28:14Z</time>
      </trkpt>
      <trkpt lat="36.6813468933106" lon="-4.99698209762573">
        <ele>1703.16430664062</ele>
        <time>2018-07-28T06:28:15Z</time>
      </trkpt>
      <trkpt lat="36.6813468933106" lon="-4.99698209762573">
        <ele>1703.16430664062</ele>
        <time>2018-07-28T06:28:16Z</time>
      </trkpt>
      <trkpt lat="36.6813468933106" lon="-4.99698114395142">
        <ele>1703.1884765625</ele>
        <time>2018-07-28T06:28:17Z</time>
      </trkpt>
      <trkpt lat="36.6813468933106" lon="-4.99698114395142">
        <ele>1703.1884765625</ele>
        <time>2018-07-28T06:28:18Z</time>
      </trkpt>
      <trkpt lat="36.6813430786133" lon="-4.99698209762573">
        <ele>1703.22375488281</ele>
        <time>2018-07-28T06:28:19Z</time>
      </trkpt>
      <trkpt lat="36.6813430786133" lon="-4.99698209762573">
        <ele>1703.22375488281</ele>
        <time>2018-07-28T06:28:20Z</time>
      </trkpt>
      <trkpt lat="36.6813430786133" lon="-4.99698209762573">
        <ele>1703.22375488281</ele>
        <time>2018-07-28T06:28:21Z</time>
      </trkpt>
      <trkpt lat="36.6813430786133" lon="-4.99698209762573">
        <ele>1703.22375488281</ele>
        <time>2018-07-28T06:28:22Z</time>
      </trkpt>
      <trkpt lat="36.6813430786133" lon="-4.99698305130005">
        <ele>1703.19958496094</ele>
        <time>2018-07-28T06:28:23Z</time>
      </trkpt>
      <trkpt lat="36.6813430786133" lon="-4.99698305130005">
        <ele>1703.19958496094</ele>
        <time>2018-07-28T06:28:24Z</time>
      </trkpt>
      <trkpt lat="36.6813430786133" lon="-4.99698305130005">
        <ele>1703.19958496094</ele>
        <time>2018-07-28T06:28:25Z</time>
      </trkpt>
      <trkpt lat="36.6813430786133" lon="-4.99698305130005">
        <ele>1703.19958496094</ele>
        <time>2018-07-28T06:28:26Z</time>
      </trkpt>
      <trkpt lat="36.6813430786133" lon="-4.99698305130005">
        <ele>1703.19958496094</ele>
        <time>2018-07-28T06:28:27Z</time>
      </trkpt>
      <trkpt lat="36.681339263916" lon="-4.99698209762573">
        <ele>1703.28308105469</ele>
        <time>2018-07-28T06:28:28Z</time>
      </trkpt>
      <trkpt lat="36.681339263916" lon="-4.99698209762573">
        <ele>1703.28308105469</ele>
        <time>2018-07-28T06:28:29Z</time>
      </trkpt>
      <trkpt lat="36.681339263916" lon="-4.99698114395142">
        <ele>1703.30737304688</ele>
        <time>2018-07-28T06:28:30Z</time>
      </trkpt>
      <trkpt lat="36.681339263916" lon="-4.99698209762573">
        <ele>1703.28308105469</ele>
        <time>2018-07-28T06:28:31Z</time>
      </trkpt>
      <trkpt lat="36.681339263916" lon="-4.99698209762573">
        <ele>1703.28308105469</ele>
        <time>2018-07-28T06:28:32Z</time>
      </trkpt>
      <trkpt lat="36.681339263916" lon="-4.99698209762573">
        <ele>1703.28308105469</ele>
        <time>2018-07-28T06:28:33Z</time>
      </trkpt>
      <trkpt lat="36.681339263916" lon="-4.99698114395142">
        <ele>1703.30737304688</ele>
        <time>2018-07-28T06:28:34Z</time>
      </trkpt>
      <trkpt lat="36.681339263916" lon="-4.99698114395142">
        <ele>1703.30737304688</ele>
        <time>2018-07-28T06:28:35Z</time>
      </trkpt>
      <trkpt lat="36.6813354492188" lon="-4.99698114395142">
        <ele>1703.36669921875</ele>
        <time>2018-07-28T06:28:36Z</time>
      </trkpt>
      <trkpt lat="36.6813354492188" lon="-4.9969801902771">
        <ele>1703.39099121094</ele>
        <time>2018-07-28T06:28:37Z</time>
      </trkpt>
      <trkpt lat="36.6813354492188" lon="-4.99697923660278">
        <ele>1703.41516113281</ele>
        <time>2018-07-28T06:28:38Z</time>
      </trkpt>
      <trkpt lat="36.6813316345215" lon="-4.99697923660278">
        <ele>1703.47473144531</ele>
        <time>2018-07-28T06:28:39Z</time>
      </trkpt>
      <trkpt lat="36.6813316345215" lon="-4.99698114395142">
        <ele>1703.42614746094</ele>
        <time>2018-07-28T06:28:40Z</time>
      </trkpt>
      <trkpt lat="36.6813316345215" lon="-4.99698495864868">
        <ele>1703.32897949219</ele>
        <time>2018-07-28T06:28:41Z</time>
      </trkpt>
      <trkpt lat="36.6813316345215" lon="-4.99699115753174">
        <ele>1703.17126464844</ele>
        <time>2018-07-28T06:28:42Z</time>
      </trkpt>
      <trkpt lat="36.6813316345215" lon="-4.99699878692627">
        <ele>1702.97692871094</ele>
        <time>2018-07-28T06:28:43Z</time>
      </trkpt>
      <trkpt lat="36.6813316345215" lon="-4.99700498580933">
        <ele>1702.81921386719</ele>
        <time>2018-07-28T06:28:44Z</time>
      </trkpt>
      <trkpt lat="36.6813354492188" lon="-4.99700784683228">
        <ele>1702.68811035156</ele>
        <time>2018-07-28T06:28:45Z</time>
      </trkpt>
      <trkpt lat="36.6813354492188" lon="-4.99701118469238">
        <ele>1702.60327148438</ele>
        <time>2018-07-28T06:28:46Z</time>
      </trkpt>
      <trkpt lat="36.6813354492188" lon="-4.99701309204102">
        <ele>1702.55480957031</ele>
        <time>2018-07-28T06:28:47Z</time>
      </trkpt>
      <trkpt lat="36.6813354492188" lon="-4.99701499938965">
        <ele>1702.50622558594</ele>
        <time>2018-07-28T06:28:48Z</time>
      </trkpt>
      <trkpt lat="36.6813354492188" lon="-4.99701595306396">
        <ele>1702.48205566406</ele>
        <time>2018-07-28T06:28:49Z</time>
      </trkpt>
      <trkpt lat="36.6813354492188" lon="-4.99701690673828">
        <ele>1702.45776367188</ele>
        <time>2018-07-28T06:28:50Z</time>
      </trkpt>
      <trkpt lat="36.6813354492188" lon="-4.99701881408691">
        <ele>1702.40930175781</ele>
        <time>2018-07-28T06:28:51Z</time>
      </trkpt>
      <trkpt lat="36.681339263916" lon="-4.9970211982727">
        <ele>1702.291015625</ele>
        <time>2018-07-28T06:28:52Z</time>
      </trkpt>
      <trkpt lat="36.681339263916" lon="-4.99702501296997">
        <ele>1702.1943359375</ele>
        <time>2018-07-28T06:28:53Z</time>
      </trkpt>
      <trkpt lat="36.6813468933106" lon="-4.99702787399292">
        <ele>1702.00695800781</ele>
        <time>2018-07-28T06:28:54Z</time>
      </trkpt>
      <trkpt lat="36.6813468933106" lon="-4.99703216552734">
        <ele>1701.8984375</ele>
        <time>2018-07-28T06:28:55Z</time>
      </trkpt>
      <trkpt lat="36.6813507080078" lon="-4.99703502655029">
        <ele>1701.76904296875</ele>
        <time>2018-07-28T06:28:56Z</time>
      </trkpt>
      <trkpt lat="36.6813545227051" lon="-4.99703788757324">
        <ele>1701.63989257812</ele>
        <time>2018-07-28T06:28:57Z</time>
      </trkpt>
      <trkpt lat="36.6813583374023" lon="-4.99704122543335">
        <ele>1701.4990234375</ele>
        <time>2018-07-28T06:28:58Z</time>
      </trkpt>
      <trkpt lat="36.6813621520996" lon="-4.99704313278198">
        <ele>1701.39440917969</ele>
        <time>2018-07-28T06:28:59Z</time>
      </trkpt>
      <trkpt lat="36.6813659667969" lon="-4.99704504013062">
        <ele>1701.28991699219</ele>
        <time>2018-07-28T06:29:00Z</time>
      </trkpt>
      <trkpt lat="36.6813659667969" lon="-4.99704599380493">
        <ele>1701.26599121094</ele>
        <time>2018-07-28T06:29:01Z</time>
      </trkpt>
      <trkpt lat="36.6813697814941" lon="-4.99704694747925">
        <ele>1701.185546875</ele>
        <time>2018-07-28T06:29:02Z</time>
      </trkpt>
      <trkpt lat="36.6813697814941" lon="-4.9970498085022">
        <ele>1701.11389160156</ele>
        <time>2018-07-28T06:29:03Z</time>
      </trkpt>
      <trkpt lat="36.6813697814941" lon="-4.99705410003662">
        <ele>1701.00659179688</ele>
        <time>2018-07-28T06:29:04Z</time>
      </trkpt>
      <trkpt lat="36.6813735961914" lon="-4.99706077575684">
        <ele>1700.78356933594</ele>
        <time>2018-07-28T06:29:05Z</time>
      </trkpt>
      <trkpt lat="36.6813735961914" lon="-4.99706983566284">
        <ele>1700.55737304688</ele>
        <time>2018-07-28T06:29:06Z</time>
      </trkpt>
      <trkpt lat="36.6813735961914" lon="-4.99708223342896">
        <ele>1700.24768066406</ele>
        <time>2018-07-28T06:29:07Z</time>
      </trkpt>
      <trkpt lat="36.6813735961914" lon="-4.99709606170654">
        <ele>1699.90234375</ele>
        <time>2018-07-28T06:29:08Z</time>
      </trkpt>
      <trkpt lat="36.6813735961914" lon="-4.99710512161255">
        <ele>1699.67602539062</ele>
        <time>2018-07-28T06:29:09Z</time>
      </trkpt>
      <trkpt lat="36.6813697814941" lon="-4.99711084365845">
        <ele>1699.58679199219</ele>
        <time>2018-07-28T06:29:10Z</time>
      </trkpt>
      <trkpt lat="36.6813659667969" lon="-4.99711608886719">
        <ele>1699.50903320312</ele>
        <time>2018-07-28T06:29:11Z</time>
      </trkpt>
      <trkpt lat="36.6813583374023" lon="-4.99712181091309">
        <ele>1699.47216796875</ele>
        <time>2018-07-28T06:29:12Z</time>
      </trkpt>
      <trkpt lat="36.6813545227051" lon="-4.99712800979614">
        <ele>1699.36926269531</ele>
        <time>2018-07-28T06:29:13Z</time>
      </trkpt>
      <trkpt lat="36.6813507080078" lon="-4.9971342086792">
        <ele>1699.26574707031</ele>
        <time>2018-07-28T06:29:14Z</time>
      </trkpt>
      <trkpt lat="36.6813468933106" lon="-4.99714088439941">
        <ele>1699.14965820312</ele>
        <time>2018-07-28T06:29:15Z</time>
      </trkpt>
      <trkpt lat="36.6813430786133" lon="-4.9971489906311">
        <ele>1698.99670410156</ele>
        <time>2018-07-28T06:29:16Z</time>
      </trkpt>
      <trkpt lat="36.681339263916" lon="-4.99715995788574">
        <ele>1698.7705078125</ele>
        <time>2018-07-28T06:29:17Z</time>
      </trkpt>
      <trkpt lat="36.6813316345215" lon="-4.99716997146606">
        <ele>1698.61865234375</ele>
        <time>2018-07-28T06:29:18Z</time>
      </trkpt>
      <trkpt lat="36.6813278198242" lon="-4.99717712402344">
        <ele>1698.48742675781</ele>
        <time>2018-07-28T06:29:19Z</time>
      </trkpt>
      <trkpt lat="36.681324005127" lon="-4.99718379974365">
        <ele>1698.36767578125</ele>
        <time>2018-07-28T06:29:20Z</time>
      </trkpt>
      <trkpt lat="36.6813201904297" lon="-4.99719190597534">
        <ele>1698.21069335938</ele>
        <time>2018-07-28T06:29:21Z</time>
      </trkpt>
      <trkpt lat="36.6813201904297" lon="-4.99720287322998">
        <ele>1697.93005371094</ele>
        <time>2018-07-28T06:29:22Z</time>
      </trkpt>
      <trkpt lat="36.6813163757324" lon="-4.99721479415894">
        <ele>1697.67419433594</ele>
        <time>2018-07-28T06:29:23Z</time>
      </trkpt>
      <trkpt lat="36.6813201904297" lon="-4.99722623825073">
        <ele>1697.33215332031</ele>
        <time>2018-07-28T06:29:24Z</time>
      </trkpt>
      <trkpt lat="36.6813201904297" lon="-4.9972357749939">
        <ele>1697.08801269531</ele>
        <time>2018-07-28T06:29:25Z</time>
      </trkpt>
      <trkpt lat="36.681324005127" lon="-4.99724292755127">
        <ele>1696.85705566406</ele>
        <time>2018-07-28T06:29:26Z</time>
      </trkpt>
      <trkpt lat="36.6813278198242" lon="-4.99724817276001">
        <ele>1696.67541503906</ele>
        <time>2018-07-28T06:29:27Z</time>
      </trkpt>
      <trkpt lat="36.6813316345215" lon="-4.99725198745728">
        <ele>1696.53063964844</ele>
        <time>2018-07-28T06:29:28Z</time>
      </trkpt>
      <trkpt lat="36.6813316345215" lon="-4.99725580215454">
        <ele>1696.43347167969</ele>
        <time>2018-07-28T06:29:29Z</time>
      </trkpt>
      <trkpt lat="36.6813354492188" lon="-4.99726009368896">
        <ele>1696.27709960938</ele>
        <time>2018-07-28T06:29:30Z</time>
      </trkpt>
      <trkpt lat="36.6813430786133" lon="-4.99726486206055">
        <ele>1696.06201171875</ele>
        <time>2018-07-28T06:29:31Z</time>
      </trkpt>
      <trkpt lat="36.6813468933106" lon="-4.99727010726929">
        <ele>1695.88232421875</ele>
        <time>2018-07-28T06:29:32Z</time>
      </trkpt>
      <trkpt lat="36.6813507080078" lon="-4.99727487564087">
        <ele>1695.71533203125</ele>
        <time>2018-07-28T06:29:33Z</time>
      </trkpt>
      <trkpt lat="36.6813545227051" lon="-4.9972767829895">
        <ele>1695.62072753906</ele>
        <time>2018-07-28T06:29:34Z</time>
      </trkpt>
      <trkpt lat="36.6813583374023" lon="-4.99727582931519">
        <ele>1695.59826660156</ele>
        <time>2018-07-28T06:29:35Z</time>
      </trkpt>
      <trkpt lat="36.6813659667969" lon="-4.99727487564087">
        <ele>1695.529296875</ele>
        <time>2018-07-28T06:29:36Z</time>
      </trkpt>
      <trkpt lat="36.6813697814941" lon="-4.99727487564087">
        <ele>1695.48278808594</ele>
        <time>2018-07-28T06:29:37Z</time>
      </trkpt>
      <trkpt lat="36.6813697814941" lon="-4.99727582931519">
        <ele>1695.45886230469</ele>
        <time>2018-07-28T06:29:38Z</time>
      </trkpt>
      <trkpt lat="36.6813735961914" lon="-4.99727916717529">
        <ele>1695.32897949219</ele>
        <time>2018-07-28T06:29:39Z</time>
      </trkpt>
      <trkpt lat="36.6813812255859" lon="-4.99728107452393">
        <ele>1695.18896484375</ele>
        <time>2018-07-28T06:29:40Z</time>
      </trkpt>
      <trkpt lat="36.6813888549805" lon="-4.99728202819824">
        <ele>1695.07275390625</ele>
        <time>2018-07-28T06:29:41Z</time>
      </trkpt>
      <trkpt lat="36.6814002990723" lon="-4.99728202819824">
        <ele>1694.93420410156</ele>
        <time>2018-07-28T06:29:42Z</time>
      </trkpt>
      <trkpt lat="36.6814117431641" lon="-4.99728298187256">
        <ele>1694.77221679688</ele>
        <time>2018-07-28T06:29:43Z</time>
      </trkpt>
      <trkpt lat="36.6814231872559" lon="-4.99728393554688">
        <ele>1694.61047363281</ele>
        <time>2018-07-28T06:29:44Z</time>
      </trkpt>
      <trkpt lat="36.6814308166504" lon="-4.99728488922119">
        <ele>1694.49499511719</ele>
        <time>2018-07-28T06:29:45Z</time>
      </trkpt>
      <trkpt lat="36.6814384460449" lon="-4.99728679656982">
        <ele>1694.35668945312</ele>
        <time>2018-07-28T06:29:46Z</time>
      </trkpt>
      <trkpt lat="36.6814460754394" lon="-4.99729013442993">
        <ele>1694.18408203125</ele>
        <time>2018-07-28T06:29:47Z</time>
      </trkpt>
      <trkpt lat="36.6814575195312" lon="-4.9972939491272">
        <ele>1693.95495605469</ele>
        <time>2018-07-28T06:29:48Z</time>
      </trkpt>
      <trkpt lat="36.6814651489258" lon="-4.99729681015015">
        <ele>1693.79516601562</ele>
        <time>2018-07-28T06:29:49Z</time>
      </trkpt>
      <trkpt lat="36.6814727783203" lon="-4.99730014801025">
        <ele>1693.62451171875</ele>
        <time>2018-07-28T06:29:50Z</time>
      </trkpt>
      <trkpt lat="36.6814765930176" lon="-4.9973030090332">
        <ele>1693.51110839844</ele>
        <time>2018-07-28T06:29:51Z</time>
      </trkpt>
      <trkpt lat="36.6814842224121" lon="-4.99730777740478">
        <ele>1693.30749511719</ele>
        <time>2018-07-28T06:29:52Z</time>
      </trkpt>
      <trkpt lat="36.6814918518066" lon="-4.99731302261353">
        <ele>1693.09350585938</ele>
        <time>2018-07-28T06:29:53Z</time>
      </trkpt>
      <trkpt lat="36.6814994812012" lon="-4.99731683731079">
        <ele>1692.9140625</ele>
        <time>2018-07-28T06:29:54Z</time>
      </trkpt>
      <trkpt lat="36.681510925293" lon="-4.99731922149658">
        <ele>1692.72424316406</ele>
        <time>2018-07-28T06:29:55Z</time>
      </trkpt>
      <trkpt lat="36.6815185546875" lon="-4.99731922149658">
        <ele>1692.63513183594</ele>
        <time>2018-07-28T06:29:56Z</time>
      </trkpt>
      <trkpt lat="36.681526184082" lon="-4.99731779098511">
        <ele>1692.57922363281</ele>
        <time>2018-07-28T06:29:57Z</time>
      </trkpt>
      <trkpt lat="36.6815338134766" lon="-4.99731588363647">
        <ele>1692.53405761719</ele>
        <time>2018-07-28T06:29:58Z</time>
      </trkpt>
      <trkpt lat="36.6815376281738" lon="-4.99731683731079">
        <ele>1692.46740722656</ele>
        <time>2018-07-28T06:29:59Z</time>
      </trkpt>
      <trkpt lat="36.6815414428711" lon="-4.99731922149658">
        <ele>1692.36779785156</ele>
        <time>2018-07-28T06:30:00Z</time>
      </trkpt>
      <trkpt lat="36.6815452575684" lon="-4.99732112884522">
        <ele>1692.279296875</ele>
        <time>2018-07-28T06:30:01Z</time>
      </trkpt>
      <trkpt lat="36.6815528869629" lon="-4.99732494354248">
        <ele>1692.10290527344</ele>
        <time>2018-07-28T06:30:02Z</time>
      </trkpt>
      <trkpt lat="36.6815605163574" lon="-4.9973292350769">
        <ele>1691.91638183594</ele>
        <time>2018-07-28T06:30:03Z</time>
      </trkpt>
      <trkpt lat="36.681568145752" lon="-4.9973349571228">
        <ele>1691.69799804688</ele>
        <time>2018-07-28T06:30:04Z</time>
      </trkpt>
      <trkpt lat="36.6815757751465" lon="-4.99734210968018">
        <ele>1691.44836425781</ele>
        <time>2018-07-28T06:30:05Z</time>
      </trkpt>
      <trkpt lat="36.681583404541" lon="-4.99734878540039">
        <ele>1691.21057128906</ele>
        <time>2018-07-28T06:30:06Z</time>
      </trkpt>
      <trkpt lat="36.6815910339356" lon="-4.99735403060913">
        <ele>1691.00622558594</ele>
        <time>2018-07-28T06:30:07Z</time>
      </trkpt>
      <trkpt lat="36.6815948486328" lon="-4.99735879898071">
        <ele>1690.85620117188</ele>
        <time>2018-07-28T06:30:08Z</time>
      </trkpt>
      <trkpt lat="36.6816024780273" lon="-4.99736404418945">
        <ele>1690.65344238281</ele>
        <time>2018-07-28T06:30:09Z</time>
      </trkpt>
      <trkpt lat="36.6816101074219" lon="-4.99736785888672">
        <ele>1690.48327636719</ele>
        <time>2018-07-28T06:30:10Z</time>
      </trkpt>
      <trkpt lat="36.6816215515137" lon="-4.99737310409546">
        <ele>1690.23999023438</ele>
        <time>2018-07-28T06:30:11Z</time>
      </trkpt>
      <trkpt lat="36.6816368103027" lon="-4.99737787246704">
        <ele>1689.96655273438</ele>
        <time>2018-07-28T06:30:12Z</time>
      </trkpt>
      <trkpt lat="36.6816482543945" lon="-4.99738311767578">
        <ele>1689.72619628906</ele>
        <time>2018-07-28T06:30:13Z</time>
      </trkpt>
      <trkpt lat="36.6816596984863" lon="-4.99738788604736">
        <ele>1689.49755859375</ele>
        <time>2018-07-28T06:30:14Z</time>
      </trkpt>
      <trkpt lat="36.6816673278809" lon="-4.99739408493042">
        <ele>1689.29260253906</ele>
        <time>2018-07-28T06:30:15Z</time>
      </trkpt>
      <trkpt lat="36.6816787719727" lon="-4.99739789962769">
        <ele>1689.29541015625</ele>
        <time>2018-07-28T06:30:16Z</time>
      </trkpt>
      <trkpt lat="36.6816902160644" lon="-4.99740123748779">
        <ele>1689.31201171875</ele>
        <time>2018-07-28T06:30:17Z</time>
      </trkpt>
      <trkpt lat="36.6817016601562" lon="-4.99740219116211">
        <ele>1689.37976074219</ele>
        <time>2018-07-28T06:30:18Z</time>
      </trkpt>
      <trkpt lat="36.681713104248" lon="-4.99740314483643">
        <ele>1689.44848632812</ele>
        <time>2018-07-28T06:30:19Z</time>
      </trkpt>
      <trkpt lat="36.6817245483398" lon="-4.99740695953369">
        <ele>1689.4638671875</ele>
        <time>2018-07-28T06:30:20Z</time>
      </trkpt>
      <trkpt lat="36.6817359924316" lon="-4.99741077423096">
        <ele>1689.48303222656</ele>
        <time>2018-07-28T06:30:21Z</time>
      </trkpt>
      <trkpt lat="36.6817436218262" lon="-4.9974160194397">
        <ele>1689.44897460938</ele>
        <time>2018-07-28T06:30:22Z</time>
      </trkpt>
      <trkpt lat="36.6817512512207" lon="-4.99742078781128">
        <ele>1689.42687988281</ele>
        <time>2018-07-28T06:30:23Z</time>
      </trkpt>
      <trkpt lat="36.6817588806152" lon="-4.99742698669434">
        <ele>1689.38305664062</ele>
        <time>2018-07-28T06:30:24Z</time>
      </trkpt>
      <trkpt lat="36.681770324707" lon="-4.99743318557739">
        <ele>1689.3779296875</ele>
        <time>2018-07-28T06:30:25Z</time>
      </trkpt>
      <trkpt lat="36.6817779541016" lon="-4.99743986129761">
        <ele>1689.33569335938</ele>
        <time>2018-07-28T06:30:26Z</time>
      </trkpt>
      <trkpt lat="36.6817855834961" lon="-4.99744701385498">
        <ele>1689.29028320312</ele>
        <time>2018-07-28T06:30:27Z</time>
      </trkpt>
      <trkpt lat="36.6817970275879" lon="-4.99745416641235">
        <ele>1689.28759765625</ele>
        <time>2018-07-28T06:30:28Z</time>
      </trkpt>
      <trkpt lat="36.6818046569824" lon="-4.99745988845825">
        <ele>1689.27526855469</ele>
        <time>2018-07-28T06:30:29Z</time>
      </trkpt>
      <trkpt lat="36.681812286377" lon="-4.99746894836426">
        <ele>1689.21630859375</ele>
        <time>2018-07-28T06:30:30Z</time>
      </trkpt>
      <trkpt lat="36.6818199157715" lon="-4.99747896194458">
        <ele>1689.14953613281</ele>
        <time>2018-07-28T06:30:31Z</time>
      </trkpt>
      <trkpt lat="36.6818237304688" lon="-4.9974889755249">
        <ele>1689.04565429688</ele>
        <time>2018-07-28T06:30:32Z</time>
      </trkpt>
      <trkpt lat="36.6818237304688" lon="-4.99749898910522">
        <ele>1688.89953613281</ele>
        <time>2018-07-28T06:30:33Z</time>
      </trkpt>
      <trkpt lat="36.6818237304688" lon="-4.99750900268555">
        <ele>1688.88427734375</ele>
        <time>2018-07-28T06:30:34Z</time>
      </trkpt>
      <trkpt lat="36.6818199157715" lon="-4.99751901626587">
        <ele>1688.83581542969</ele>
        <time>2018-07-28T06:30:35Z</time>
      </trkpt>
      <trkpt lat="36.6818199157715" lon="-4.99753189086914">
        <ele>1688.83374023438</ele>
        <time>2018-07-28T06:30:36Z</time>
      </trkpt>
      <trkpt lat="36.6818199157715" lon="-4.9975438117981">
        <ele>1688.83178710938</ele>
        <time>2018-07-28T06:30:37Z</time>
      </trkpt>
      <trkpt lat="36.6818161010742" lon="-4.99755811691284">
        <ele>1688.77685546875</ele>
        <time>2018-07-28T06:30:38Z</time>
      </trkpt>
      <trkpt lat="36.6818161010742" lon="-4.9975700378418">
        <ele>1688.77355957031</ele>
        <time>2018-07-28T06:30:39Z</time>
      </trkpt>
      <trkpt lat="36.6818161010742" lon="-4.99758195877075">
        <ele>1688.77014160156</ele>
        <time>2018-07-28T06:30:40Z</time>
      </trkpt>
      <trkpt lat="36.681812286377" lon="-4.99759292602539">
        <ele>1688.71057128906</ele>
        <time>2018-07-28T06:30:41Z</time>
      </trkpt>
      <trkpt lat="36.681812286377" lon="-4.99760293960571">
        <ele>1688.70666503906</ele>
        <time>2018-07-28T06:30:42Z</time>
      </trkpt>
      <trkpt lat="36.681812286377" lon="-4.99761295318604">
        <ele>1688.70263671875</ele>
        <time>2018-07-28T06:30:43Z</time>
      </trkpt>
      <trkpt lat="36.681812286377" lon="-4.99762296676636">
        <ele>1688.69873046875</ele>
        <time>2018-07-28T06:30:44Z</time>
      </trkpt>
      <trkpt lat="36.6818084716797" lon="-4.99763298034668">
        <ele>1688.63354492188</ele>
        <time>2018-07-28T06:30:45Z</time>
      </trkpt>
      <trkpt lat="36.6818084716797" lon="-4.997642993927">
        <ele>1688.62841796875</ele>
        <time>2018-07-28T06:30:46Z</time>
      </trkpt>
      <trkpt lat="36.681812286377" lon="-4.99765110015869">
        <ele>1688.6875</ele>
        <time>2018-07-28T06:30:47Z</time>
      </trkpt>
      <trkpt lat="36.681812286377" lon="-4.9976601600647">
        <ele>1688.68395996094</ele>
        <time>2018-07-28T06:30:48Z</time>
      </trkpt>
      <trkpt lat="36.6818161010742" lon="-4.99767112731934">
        <ele>1688.7451171875</ele>
        <time>2018-07-28T06:30:49Z</time>
      </trkpt>
      <trkpt lat="36.6818161010742" lon="-4.99768304824829">
        <ele>1688.74169921875</ele>
        <time>2018-07-28T06:30:50Z</time>
      </trkpt>
      <trkpt lat="36.6818161010742" lon="-4.99769687652588">
        <ele>1688.73791503906</ele>
        <time>2018-07-28T06:30:51Z</time>
      </trkpt>
      <trkpt lat="36.6818161010742" lon="-4.99771118164062">
        <ele>1688.73388671875</ele>
        <time>2018-07-28T06:30:52Z</time>
      </trkpt>
      <trkpt lat="36.681812286377" lon="-4.99772500991821">
        <ele>1688.658203125</ele>
        <time>2018-07-28T06:30:53Z</time>
      </trkpt>
      <trkpt lat="36.6818084716797" lon="-4.99773693084717">
        <ele>1688.58044433594</ele>
        <time>2018-07-28T06:30:54Z</time>
      </trkpt>
      <trkpt lat="36.681812286377" lon="-4.99775123596191">
        <ele>1688.64782714844</ele>
        <time>2018-07-28T06:30:55Z</time>
      </trkpt>
      <trkpt lat="36.681812286377" lon="-4.99776411056519">
        <ele>1688.64270019531</ele>
        <time>2018-07-28T06:30:56Z</time>
      </trkpt>
      <trkpt lat="36.681812286377" lon="-4.99777603149414">
        <ele>1688.63806152344</ele>
        <time>2018-07-28T06:30:57Z</time>
      </trkpt>
      <trkpt lat="36.681812286377" lon="-4.99778413772583">
        <ele>1688.634765625</ele>
        <time>2018-07-28T06:30:58Z</time>
      </trkpt>
      <trkpt lat="36.681812286377" lon="-4.99779319763184">
        <ele>1688.63122558594</ele>
        <time>2018-07-28T06:30:59Z</time>
      </trkpt>
      <trkpt lat="36.6818084716797" lon="-4.99780178070068">
        <ele>1688.54724121094</ele>
        <time>2018-07-28T06:31:00Z</time>
      </trkpt>
      <trkpt lat="36.6818084716797" lon="-4.99780988693237">
        <ele>1688.54309082031</ele>
        <time>2018-07-28T06:31:01Z</time>
      </trkpt>
      <trkpt lat="36.6818046569824" lon="-4.99782180786133">
        <ele>1688.4541015625</ele>
        <time>2018-07-28T06:31:02Z</time>
      </trkpt>
      <trkpt lat="36.6818046569824" lon="-4.99783611297607">
        <ele>1688.44506835938</ele>
        <time>2018-07-28T06:31:03Z</time>
      </trkpt>
      <trkpt lat="36.6818008422852" lon="-4.99784994125366">
        <ele>1688.35021972656</ele>
        <time>2018-07-28T06:31:04Z</time>
      </trkpt>
      <trkpt lat="36.6817970275879" lon="-4.99786376953125">
        <ele>1688.25231933594</ele>
        <time>2018-07-28T06:31:05Z</time>
      </trkpt>
      <trkpt lat="36.6817932128906" lon="-4.99787712097168">
        <ele>1688.15148925781</ele>
        <time>2018-07-28T06:31:06Z</time>
      </trkpt>
      <trkpt lat="36.6817893981934" lon="-4.99788808822632">
        <ele>1688.05029296875</ele>
        <time>2018-07-28T06:31:07Z</time>
      </trkpt>
      <trkpt lat="36.6817855834961" lon="-4.99789905548096">
        <ele>1687.94653320312</ele>
        <time>2018-07-28T06:31:08Z</time>
      </trkpt>
      <trkpt lat="36.6817817687988" lon="-4.99790906906128">
        <ele>1687.84155273438</ele>
        <time>2018-07-28T06:31:09Z</time>
      </trkpt>
      <trkpt lat="36.6817779541016" lon="-4.9979190826416">
        <ele>1687.73425292969</ele>
        <time>2018-07-28T06:31:10Z</time>
      </trkpt>
      <trkpt lat="36.6817741394043" lon="-4.99792909622192">
        <ele>1687.62451171875</ele>
        <time>2018-07-28T06:31:11Z</time>
      </trkpt>
      <trkpt lat="36.6817665100098" lon="-4.99793910980225">
        <ele>1687.41613769531</ele>
        <time>2018-07-28T06:31:12Z</time>
      </trkpt>
      <trkpt lat="36.6817626953125" lon="-4.99794721603394">
        <ele>1687.30432128906</ele>
        <time>2018-07-28T06:31:13Z</time>
      </trkpt>
      <trkpt lat="36.6817588806152" lon="-4.99795484542847">
        <ele>1687.19165039062</ele>
        <time>2018-07-28T06:31:14Z</time>
      </trkpt>
      <trkpt lat="36.6817512512207" lon="-4.99796390533447">
        <ele>1686.97485351562</ele>
        <time>2018-07-28T06:31:15Z</time>
      </trkpt>
      <trkpt lat="36.6817474365234" lon="-4.99797487258911">
        <ele>1686.84973144531</ele>
        <time>2018-07-28T06:31:16Z</time>
      </trkpt>
      <trkpt lat="36.6817436218262" lon="-4.99798583984375">
        <ele>1686.72204589844</ele>
        <time>2018-07-28T06:31:17Z</time>
      </trkpt>
      <trkpt lat="36.6817436218262" lon="-4.99799680709839">
        <ele>1686.69494628906</ele>
        <time>2018-07-28T06:31:18Z</time>
      </trkpt>
      <trkpt lat="36.6817436218262" lon="-4.99800777435303">
        <ele>1686.66784667969</ele>
        <time>2018-07-28T06:31:19Z</time>
      </trkpt>
      <trkpt lat="36.6817398071289" lon="-4.99801683425903">
        <ele>1686.5400390625</ele>
        <time>2018-07-28T06:31:20Z</time>
      </trkpt>
      <trkpt lat="36.6817398071289" lon="-4.99802494049072">
        <ele>1686.51904296875</ele>
        <time>2018-07-28T06:31:21Z</time>
      </trkpt>
      <trkpt lat="36.6817398071289" lon="-4.99803400039673">
        <ele>1686.49560546875</ele>
        <time>2018-07-28T06:31:22Z</time>
      </trkpt>
      <trkpt lat="36.6817398071289" lon="-4.99804401397705">
        <ele>1686.46960449219</ele>
        <time>2018-07-28T06:31:23Z</time>
      </trkpt>
      <trkpt lat="36.6817398071289" lon="-4.99805402755737">
        <ele>1686.44372558594</ele>
        <time>2018-07-28T06:31:24Z</time>
      </trkpt>
      <trkpt lat="36.6817398071289" lon="-4.99806499481201">
        <ele>1686.41540527344</ele>
        <time>2018-07-28T06:31:25Z</time>
      </trkpt>
      <trkpt lat="36.6817398071289" lon="-4.99807500839233">
        <ele>1686.38940429688</ele>
        <time>2018-07-28T06:31:26Z</time>
      </trkpt>
      <trkpt lat="36.6817398071289" lon="-4.99808597564697">
        <ele>1686.36108398438</ele>
        <time>2018-07-28T06:31:27Z</time>
      </trkpt>
      <trkpt lat="36.6817398071289" lon="-4.9980959892273">
        <ele>1686.33508300781</ele>
        <time>2018-07-28T06:31:28Z</time>
      </trkpt>
      <trkpt lat="36.6817398071289" lon="-4.99810600280762">
        <ele>1686.30920410156</ele>
        <time>2018-07-28T06:31:29Z</time>
      </trkpt>
      <trkpt lat="36.6817398071289" lon="-4.99811601638794">
        <ele>1686.28332519531</ele>
        <time>2018-07-28T06:31:30Z</time>
      </trkpt>
      <trkpt lat="36.6817398071289" lon="-4.99812698364258">
        <ele>1686.2548828125</ele>
        <time>2018-07-28T06:31:31Z</time>
      </trkpt>
      <trkpt lat="36.6817398071289" lon="-4.99813795089722">
        <ele>1686.2265625</ele>
        <time>2018-07-28T06:31:32Z</time>
      </trkpt>
      <trkpt lat="36.6817398071289" lon="-4.99814987182617">
        <ele>1686.19567871094</ele>
        <time>2018-07-28T06:31:33Z</time>
      </trkpt>
      <trkpt lat="36.6817359924316" lon="-4.9981632232666">
        <ele>1686.03881835938</ele>
        <time>2018-07-28T06:31:34Z</time>
      </trkpt>
      <trkpt lat="36.6817359924316" lon="-4.99817323684692">
        <ele>1686.01171875</ele>
        <time>2018-07-28T06:31:35Z</time>
      </trkpt>
      <trkpt lat="36.6817398071289" lon="-4.99818181991577">
        <ele>1686.11303710938</ele>
        <time>2018-07-28T06:31:36Z</time>
      </trkpt>
      <trkpt lat="36.6817398071289" lon="-4.99819421768188">
        <ele>1686.08093261719</ele>
        <time>2018-07-28T06:31:37Z</time>
      </trkpt>
      <trkpt lat="36.6817398071289" lon="-4.99820899963379">
        <ele>1686.04260253906</ele>
        <time>2018-07-28T06:31:38Z</time>
      </trkpt>
      <trkpt lat="36.6817436218262" lon="-4.99822282791138">
        <ele>1686.13598632812</ele>
        <time>2018-07-28T06:31:39Z</time>
      </trkpt>
      <trkpt lat="36.6817474365234" lon="-4.99823522567749">
        <ele>1686.23596191406</ele>
        <time>2018-07-28T06:31:40Z</time>
      </trkpt>
      <trkpt lat="36.6817474365234" lon="-4.99824810028076">
        <ele>1686.20556640625</ele>
        <time>2018-07-28T06:31:41Z</time>
      </trkpt>
      <trkpt lat="36.6817474365234" lon="-4.9982590675354">
        <ele>1686.1796875</ele>
        <time>2018-07-28T06:31:42Z</time>
      </trkpt>
      <trkpt lat="36.6817474365234" lon="-4.99827003479004">
        <ele>1686.15380859375</ele>
        <time>2018-07-28T06:31:43Z</time>
      </trkpt>
      <trkpt lat="36.6817474365234" lon="-4.99827909469604">
        <ele>1686.13244628906</ele>
        <time>2018-07-28T06:31:44Z</time>
      </trkpt>
      <trkpt lat="36.6817512512207" lon="-4.99829006195068">
        <ele>1686.24353027344</ele>
        <time>2018-07-28T06:31:45Z</time>
      </trkpt>
      <trkpt lat="36.6817512512207" lon="-4.99830293655396">
        <ele>1686.21472167969</ele>
        <time>2018-07-28T06:31:46Z</time>
      </trkpt>
      <trkpt lat="36.681755065918" lon="-4.99831581115723">
        <ele>1686.32568359375</ele>
        <time>2018-07-28T06:31:47Z</time>
      </trkpt>
      <trkpt lat="36.681755065918" lon="-4.99832916259766">
        <ele>1686.29736328125</ele>
        <time>2018-07-28T06:31:48Z</time>
      </trkpt>
      <trkpt lat="36.6817588806152" lon="-4.99834203720093">
        <ele>1686.43725585938</ele>
        <time>2018-07-28T06:31:49Z</time>
      </trkpt>
      <trkpt lat="36.6817588806152" lon="-4.9983549118042">
        <ele>1686.44750976562</ele>
        <time>2018-07-28T06:31:50Z</time>
      </trkpt>
      <trkpt lat="36.6817588806152" lon="-4.99836683273315">
        <ele>1686.45703125</ele>
        <time>2018-07-28T06:31:51Z</time>
      </trkpt>
      <trkpt lat="36.6817588806152" lon="-4.99837923049927">
        <ele>1686.46691894531</ele>
        <time>2018-07-28T06:31:52Z</time>
      </trkpt>
      <trkpt lat="36.6817626953125" lon="-4.99839115142822">
        <ele>1686.62023925781</ele>
        <time>2018-07-28T06:31:53Z</time>
      </trkpt>
      <trkpt lat="36.6817626953125" lon="-4.99840307235718">
        <ele>1686.63012695312</ele>
        <time>2018-07-28T06:31:54Z</time>
      </trkpt>
      <trkpt lat="36.6817665100098" lon="-4.99841499328613">
        <ele>1686.78466796875</ele>
        <time>2018-07-28T06:31:55Z</time>
      </trkpt>
      <trkpt lat="36.6817665100098" lon="-4.99842691421509">
        <ele>1686.794921875</ele>
        <time>2018-07-28T06:31:56Z</time>
      </trkpt>
      <trkpt lat="36.6817665100098" lon="-4.99843883514404">
        <ele>1686.80517578125</ele>
        <time>2018-07-28T06:31:57Z</time>
      </trkpt>
      <trkpt lat="36.681770324707" lon="-4.99845314025879">
        <ele>1686.96337890625</ele>
        <time>2018-07-28T06:31:58Z</time>
      </trkpt>
      <trkpt lat="36.681770324707" lon="-4.99846792221069">
        <ele>1686.9765625</ele>
        <time>2018-07-28T06:31:59Z</time>
      </trkpt>
      <trkpt lat="36.6817779541016" lon="-4.99848318099976">
        <ele>1687.28393554688</ele>
        <time>2018-07-28T06:32:00Z</time>
      </trkpt>
      <trkpt lat="36.6817817687988" lon="-4.99849700927734">
        <ele>1687.44458007812</ele>
        <time>2018-07-28T06:32:01Z</time>
      </trkpt>
      <trkpt lat="36.6817855834961" lon="-4.99850988388062">
        <ele>1687.60510253906</ele>
        <time>2018-07-28T06:32:02Z</time>
      </trkpt>
      <trkpt lat="36.6817855834961" lon="-4.99852418899536">
        <ele>1687.61975097656</ele>
        <time>2018-07-28T06:32:03Z</time>
      </trkpt>
      <trkpt lat="36.6817893981934" lon="-4.99853801727295">
        <ele>1687.78271484375</ele>
        <time>2018-07-28T06:32:04Z</time>
      </trkpt>
      <trkpt lat="36.6817893981934" lon="-4.99855089187622">
        <ele>1687.79626464844</ele>
        <time>2018-07-28T06:32:05Z</time>
      </trkpt>
      <trkpt lat="36.6817932128906" lon="-4.99856519699097">
        <ele>1687.96105957031</ele>
        <time>2018-07-28T06:32:06Z</time>
      </trkpt>
      <trkpt lat="36.6817932128906" lon="-4.99857711791992">
        <ele>1687.97412109375</ele>
        <time>2018-07-28T06:32:07Z</time>
      </trkpt>
      <trkpt lat="36.6817970275879" lon="-4.99858713150024">
        <ele>1688.13525390625</ele>
        <time>2018-07-28T06:32:08Z</time>
      </trkpt>
      <trkpt lat="36.6818046569824" lon="-4.99859619140625">
        <ele>1688.44665527344</ele>
        <time>2018-07-28T06:32:09Z</time>
      </trkpt>
      <trkpt lat="36.6818084716797" lon="-4.99860382080078">
        <ele>1688.60656738281</ele>
        <time>2018-07-28T06:32:10Z</time>
      </trkpt>
      <trkpt lat="36.681812286377" lon="-4.99861097335815">
        <ele>1688.76635742188</ele>
        <time>2018-07-28T06:32:11Z</time>
      </trkpt>
      <trkpt lat="36.6818161010742" lon="-4.99861621856689">
        <ele>1688.92419433594</ele>
        <time>2018-07-28T06:32:12Z</time>
      </trkpt>
      <trkpt lat="36.6818199157715" lon="-4.99862194061279">
        <ele>1689.0830078125</ele>
        <time>2018-07-28T06:32:13Z</time>
      </trkpt>
      <trkpt lat="36.6818237304688" lon="-4.99862813949585">
        <ele>1689.24279785156</ele>
        <time>2018-07-28T06:32:14Z</time>
      </trkpt>
      <trkpt lat="36.681827545166" lon="-4.99863576889038">
        <ele>1689.40502929688</ele>
        <time>2018-07-28T06:32:15Z</time>
      </trkpt>
      <trkpt lat="36.6818313598633" lon="-4.99864482879639">
        <ele>1689.56982421875</ele>
        <time>2018-07-28T06:32:16Z</time>
      </trkpt>
      <trkpt lat="36.6818351745606" lon="-4.99865484237671">
        <ele>1689.73657226562</ele>
        <time>2018-07-28T06:32:17Z</time>
      </trkpt>
      <trkpt lat="36.6818351745606" lon="-4.99866485595703">
        <ele>1689.75122070312</ele>
        <time>2018-07-28T06:32:18Z</time>
      </trkpt>
      <trkpt lat="36.6818389892578" lon="-4.99867486953735">
        <ele>1689.9189453125</ele>
        <time>2018-07-28T06:32:19Z</time>
      </trkpt>
      <trkpt lat="36.6818428039551" lon="-4.99868392944336">
        <ele>1690.08581542969</ele>
        <time>2018-07-28T06:32:20Z</time>
      </trkpt>
      <trkpt lat="36.6818466186523" lon="-4.99869203567505">
        <ele>1690.251953125</ele>
        <time>2018-07-28T06:32:21Z</time>
      </trkpt>
      <trkpt lat="36.6818466186523" lon="-4.99870014190674">
        <ele>1690.26452636719</ele>
        <time>2018-07-28T06:32:22Z</time>
      </trkpt>
      <trkpt lat="36.6818504333496" lon="-4.99870920181274">
        <ele>1690.43286132812</ele>
        <time>2018-07-28T06:32:23Z</time>
      </trkpt>
      <trkpt lat="36.6818542480469" lon="-4.99871587753296">
        <ele>1690.59802246094</ele>
        <time>2018-07-28T06:32:24Z</time>
      </trkpt>
      <trkpt lat="36.6818618774414" lon="-4.99872303009033">
        <ele>1690.91906738281</ele>
        <time>2018-07-28T06:32:25Z</time>
      </trkpt>
      <trkpt lat="36.6818618774414" lon="-4.99872922897339">
        <ele>1690.92956542969</ele>
        <time>2018-07-28T06:32:26Z</time>
      </trkpt>
      <trkpt lat="36.6818656921387" lon="-4.99873304367065">
        <ele>1691.09106445312</ele>
        <time>2018-07-28T06:32:27Z</time>
      </trkpt>
      <trkpt lat="36.6818695068359" lon="-4.99873685836792">
        <ele>1691.25280761719</ele>
        <time>2018-07-28T06:32:28Z</time>
      </trkpt>
      <trkpt lat="36.6818733215332" lon="-4.99874305725098">
        <ele>1691.41906738281</ele>
        <time>2018-07-28T06:32:29Z</time>
      </trkpt>
      <trkpt lat="36.6818771362305" lon="-4.99874782562256">
        <ele>1691.58325195312</ele>
        <time>2018-07-28T06:32:30Z</time>
      </trkpt>
      <trkpt lat="36.6818771362305" lon="-4.99875211715698">
        <ele>1691.59106445312</ele>
        <time>2018-07-28T06:32:31Z</time>
      </trkpt>
      <trkpt lat="36.6818809509277" lon="-4.99875020980835">
        <ele>1691.7431640625</ele>
        <time>2018-07-28T06:32:32Z</time>
      </trkpt>
      <trkpt lat="36.681884765625" lon="-4.99874687194824">
        <ele>1691.892578125</ele>
        <time>2018-07-28T06:32:33Z</time>
      </trkpt>
      <trkpt lat="36.681884765625" lon="-4.99874496459961">
        <ele>1691.88891601562</ele>
        <time>2018-07-28T06:32:34Z</time>
      </trkpt>
      <trkpt lat="36.681884765625" lon="-4.99874305725098">
        <ele>1691.88537597656</ele>
        <time>2018-07-28T06:32:35Z</time>
      </trkpt>
      <trkpt lat="36.681884765625" lon="-4.99874210357666">
        <ele>1691.88354492188</ele>
        <time>2018-07-28T06:32:36Z</time>
      </trkpt>
      <trkpt lat="36.681884765625" lon="-4.99874114990234">
        <ele>1691.88171386719</ele>
        <time>2018-07-28T06:32:37Z</time>
      </trkpt>
      <trkpt lat="36.681884765625" lon="-4.99874114990234">
        <ele>1691.88171386719</ele>
        <time>2018-07-28T06:32:38Z</time>
      </trkpt>
      <trkpt lat="36.681884765625" lon="-4.99874114990234">
        <ele>1691.88171386719</ele>
        <time>2018-07-28T06:32:39Z</time>
      </trkpt>
      <trkpt lat="36.681884765625" lon="-4.99874114990234">
        <ele>1691.88171386719</ele>
        <time>2018-07-28T06:32:40Z</time>
      </trkpt>
      <trkpt lat="36.681884765625" lon="-4.99874114990234">
        <ele>1691.88171386719</ele>
        <time>2018-07-28T06:32:41Z</time>
      </trkpt>
      <trkpt lat="36.681884765625" lon="-4.99874114990234">
        <ele>1691.88171386719</ele>
        <time>2018-07-28T06:32:42Z</time>
      </trkpt>
      <trkpt lat="36.6818809509277" lon="-4.99874305725098">
        <ele>1691.72998046875</ele>
        <time>2018-07-28T06:32:43Z</time>
      </trkpt>
      <trkpt lat="36.6818771362305" lon="-4.99874496459961">
        <ele>1691.57800292969</ele>
        <time>2018-07-28T06:32:44Z</time>
      </trkpt>
      <trkpt lat="36.6818771362305" lon="-4.99874591827393">
        <ele>1691.57971191406</ele>
        <time>2018-07-28T06:32:45Z</time>
      </trkpt>
      <trkpt lat="36.6818733215332" lon="-4.99874687194824">
        <ele>1691.42590332031</ele>
        <time>2018-07-28T06:32:46Z</time>
      </trkpt>
      <trkpt lat="36.6818733215332" lon="-4.99874782562256">
        <ele>1691.42761230469</ele>
        <time>2018-07-28T06:32:47Z</time>
      </trkpt>
      <trkpt lat="36.6818695068359" lon="-4.99875020980835">
        <ele>1691.27624511719</ele>
        <time>2018-07-28T06:32:48Z</time>
      </trkpt>
      <trkpt lat="36.6818695068359" lon="-4.99875211715698">
        <ele>1691.27954101562</ele>
        <time>2018-07-28T06:32:49Z</time>
      </trkpt>
      <trkpt lat="36.6818695068359" lon="-4.9987530708313">
        <ele>1691.28125</ele>
        <time>2018-07-28T06:32:50Z</time>
      </trkpt>
      <trkpt lat="36.6818695068359" lon="-4.9987530708313">
        <ele>1691.28125</ele>
        <time>2018-07-28T06:32:51Z</time>
      </trkpt>
      <trkpt lat="36.6818695068359" lon="-4.9987530708313">
        <ele>1691.28125</ele>
        <time>2018-07-28T06:32:52Z</time>
      </trkpt>
      <trkpt lat="36.6818695068359" lon="-4.9987530708313">
        <ele>1691.28125</ele>
        <time>2018-07-28T06:32:53Z</time>
      </trkpt>
      <trkpt lat="36.6818695068359" lon="-4.99875688552856">
        <ele>1691.28796386719</ele>
        <time>2018-07-28T06:32:54Z</time>
      </trkpt>
      <trkpt lat="36.6818695068359" lon="-4.99876022338867">
        <ele>1691.29382324219</ele>
        <time>2018-07-28T06:32:55Z</time>
      </trkpt>
      <trkpt lat="36.6818695068359" lon="-4.99876022338867">
        <ele>1691.29382324219</ele>
        <time>2018-07-28T06:32:56Z</time>
      </trkpt>
      <trkpt lat="36.6818695068359" lon="-4.9987587928772">
        <ele>1691.29125976562</ele>
        <time>2018-07-28T06:32:57Z</time>
      </trkpt>
      <trkpt lat="36.6818656921387" lon="-4.99875593185425">
        <ele>1691.13049316406</ele>
        <time>2018-07-28T06:32:58Z</time>
      </trkpt>
      <trkpt lat="36.6818618774414" lon="-4.99875402450562">
        <ele>1690.97143554688</ele>
        <time>2018-07-28T06:32:59Z</time>
      </trkpt>
      <trkpt lat="36.6818618774414" lon="-4.99875116348267">
        <ele>1690.96655273438</ele>
        <time>2018-07-28T06:33:00Z</time>
      </trkpt>
      <trkpt lat="36.6818618774414" lon="-4.99875211715698">
        <ele>1690.96813964844</ele>
        <time>2018-07-28T06:33:01Z</time>
      </trkpt>
      <trkpt lat="36.6818618774414" lon="-4.99875211715698">
        <ele>1690.96813964844</ele>
        <time>2018-07-28T06:33:02Z</time>
      </trkpt>
      <trkpt lat="36.6818618774414" lon="-4.99875211715698">
        <ele>1690.96813964844</ele>
        <time>2018-07-28T06:33:03Z</time>
      </trkpt>
      <trkpt lat="36.6818618774414" lon="-4.99875116348267">
        <ele>1690.96655273438</ele>
        <time>2018-07-28T06:33:04Z</time>
      </trkpt>
      <trkpt lat="36.6818656921387" lon="-4.99875116348267">
        <ele>1691.12219238281</ele>
        <time>2018-07-28T06:33:05Z</time>
      </trkpt>
      <trkpt lat="36.6818656921387" lon="-4.99874877929688">
        <ele>1691.1181640625</ele>
        <time>2018-07-28T06:33:06Z</time>
      </trkpt>
      <trkpt lat="36.6818656921387" lon="-4.99874782562256">
        <ele>1691.11645507812</ele>
        <time>2018-07-28T06:33:07Z</time>
      </trkpt>
      <trkpt lat="36.6818618774414" lon="-4.99874687194824">
        <ele>1690.95935058594</ele>
        <time>2018-07-28T06:33:08Z</time>
      </trkpt>
      <trkpt lat="36.6818618774414" lon="-4.99874591827393">
        <ele>1690.95776367188</ele>
        <time>2018-07-28T06:33:09Z</time>
      </trkpt>
      <trkpt lat="36.6818618774414" lon="-4.99874591827393">
        <ele>1690.95776367188</ele>
        <time>2018-07-28T06:33:10Z</time>
      </trkpt>
      <trkpt lat="36.6818618774414" lon="-4.99874496459961">
        <ele>1690.9560546875</ele>
        <time>2018-07-28T06:33:11Z</time>
      </trkpt>
      <trkpt lat="36.6818618774414" lon="-4.99874496459961">
        <ele>1690.9560546875</ele>
        <time>2018-07-28T06:33:12Z</time>
      </trkpt>
      <trkpt lat="36.6818618774414" lon="-4.99874496459961">
        <ele>1690.9560546875</ele>
        <time>2018-07-28T06:33:13Z</time>
      </trkpt>
      <trkpt lat="36.6818618774414" lon="-4.99874496459961">
        <ele>1690.9560546875</ele>
        <time>2018-07-28T06:33:14Z</time>
      </trkpt>
      <trkpt lat="36.6818618774414" lon="-4.99874496459961">
        <ele>1690.9560546875</ele>
        <time>2018-07-28T06:33:15Z</time>
      </trkpt>
      <trkpt lat="36.6818618774414" lon="-4.99874496459961">
        <ele>1690.9560546875</ele>
        <time>2018-07-28T06:33:16Z</time>
      </trkpt>
      <trkpt lat="36.6818618774414" lon="-4.99874591827393">
        <ele>1690.95776367188</ele>
        <time>2018-07-28T06:33:17Z</time>
      </trkpt>
      <trkpt lat="36.6818618774414" lon="-4.99874591827393">
        <ele>1690.95776367188</ele>
        <time>2018-07-28T06:33:18Z</time>
      </trkpt>
      <trkpt lat="36.6818618774414" lon="-4.99874496459961">
        <ele>1690.9560546875</ele>
        <time>2018-07-28T06:33:19Z</time>
      </trkpt>
      <trkpt lat="36.6818580627441" lon="-4.99874496459961">
        <ele>1690.80065917969</ele>
        <time>2018-07-28T06:33:20Z</time>
      </trkpt>
      <trkpt lat="36.6818580627441" lon="-4.99874496459961">
        <ele>1690.80065917969</ele>
        <time>2018-07-28T06:33:21Z</time>
      </trkpt>
      <trkpt lat="36.6818580627441" lon="-4.99874591827393">
        <ele>1690.80224609375</ele>
        <time>2018-07-28T06:33:22Z</time>
      </trkpt>
      <trkpt lat="36.6818580627441" lon="-4.99874401092529">
        <ele>1690.79907226562</ele>
        <time>2018-07-28T06:33:23Z</time>
      </trkpt>
      <trkpt lat="36.6818580627441" lon="-4.99874496459961">
        <ele>1690.80065917969</ele>
        <time>2018-07-28T06:33:24Z</time>
      </trkpt>
      <trkpt lat="36.6818580627441" lon="-4.99874496459961">
        <ele>1690.80065917969</ele>
        <time>2018-07-28T06:33:25Z</time>
      </trkpt>
      <trkpt lat="36.6818580627441" lon="-4.99874591827393">
        <ele>1690.80224609375</ele>
        <time>2018-07-28T06:33:26Z</time>
      </trkpt>
      <trkpt lat="36.6818580627441" lon="-4.99874782562256">
        <ele>1690.80541992188</ele>
        <time>2018-07-28T06:33:27Z</time>
      </trkpt>
      <trkpt lat="36.6818580627441" lon="-4.99874782562256">
        <ele>1690.80541992188</ele>
        <time>2018-07-28T06:33:28Z</time>
      </trkpt>
      <trkpt lat="36.6818580627441" lon="-4.99874782562256">
        <ele>1690.80541992188</ele>
        <time>2018-07-28T06:33:29Z</time>
      </trkpt>
      <trkpt lat="36.6818580627441" lon="-4.99874877929688">
        <ele>1690.80688476562</ele>
        <time>2018-07-28T06:33:30Z</time>
      </trkpt>
      <trkpt lat="36.6818580627441" lon="-4.99875020980835">
        <ele>1690.80932617188</ele>
        <time>2018-07-28T06:33:31Z</time>
      </trkpt>
      <trkpt lat="36.6818580627441" lon="-4.99875020980835">
        <ele>1690.80932617188</ele>
        <time>2018-07-28T06:33:32Z</time>
      </trkpt>
      <trkpt lat="36.6818580627441" lon="-4.99875020980835">
        <ele>1690.80932617188</ele>
        <time>2018-07-28T06:33:33Z</time>
      </trkpt>
      <trkpt lat="36.6818618774414" lon="-4.99874877929688">
        <ele>1690.96252441406</ele>
        <time>2018-07-28T06:33:34Z</time>
      </trkpt>
      <trkpt lat="36.6818618774414" lon="-4.99874877929688">
        <ele>1690.96252441406</ele>
        <time>2018-07-28T06:33:35Z</time>
      </trkpt>
      <trkpt lat="36.6818618774414" lon="-4.99874877929688">
        <ele>1690.96252441406</ele>
        <time>2018-07-28T06:33:36Z</time>
      </trkpt>
      <trkpt lat="36.6818618774414" lon="-4.99874782562256">
        <ele>1690.9609375</ele>
        <time>2018-07-28T06:33:37Z</time>
      </trkpt>
      <trkpt lat="36.6818618774414" lon="-4.99874782562256">
        <ele>1690.9609375</ele>
        <time>2018-07-28T06:33:38Z</time>
      </trkpt>
      <trkpt lat="36.6818656921387" lon="-4.99874687194824">
        <ele>1691.11486816406</ele>
        <time>2018-07-28T06:33:39Z</time>
      </trkpt>
      <trkpt lat="36.6818656921387" lon="-4.99874687194824">
        <ele>1691.11486816406</ele>
        <time>2018-07-28T06:33:40Z</time>
      </trkpt>
      <trkpt lat="36.6818656921387" lon="-4.99874591827393">
        <ele>1691.11328125</ele>
        <time>2018-07-28T06:33:41Z</time>
      </trkpt>
      <trkpt lat="36.6818656921387" lon="-4.99874687194824">
        <ele>1691.11486816406</ele>
        <time>2018-07-28T06:33:42Z</time>
      </trkpt>
      <trkpt lat="36.6818656921387" lon="-4.99874687194824">
        <ele>1691.11486816406</ele>
        <time>2018-07-28T06:33:43Z</time>
      </trkpt>
      <trkpt lat="36.6818656921387" lon="-4.99874782562256">
        <ele>1691.11645507812</ele>
        <time>2018-07-28T06:33:44Z</time>
      </trkpt>
      <trkpt lat="36.6818695068359" lon="-4.99874782562256">
        <ele>1691.27209472656</ele>
        <time>2018-07-28T06:33:45Z</time>
      </trkpt>
      <trkpt lat="36.6818695068359" lon="-4.99874782562256">
        <ele>1691.27209472656</ele>
        <time>2018-07-28T06:33:46Z</time>
      </trkpt>
      <trkpt lat="36.6818656921387" lon="-4.99874877929688">
        <ele>1691.1181640625</ele>
        <time>2018-07-28T06:33:47Z</time>
      </trkpt>
      <trkpt lat="36.6818656921387" lon="-4.99875020980835">
        <ele>1691.12060546875</ele>
        <time>2018-07-28T06:33:48Z</time>
      </trkpt>
      <trkpt lat="36.6818656921387" lon="-4.99875020980835">
        <ele>1691.12060546875</ele>
        <time>2018-07-28T06:33:49Z</time>
      </trkpt>
      <trkpt lat="36.6818656921387" lon="-4.99874877929688">
        <ele>1691.1181640625</ele>
        <time>2018-07-28T06:33:50Z</time>
      </trkpt>
      <trkpt lat="36.6818695068359" lon="-4.99874782562256">
        <ele>1691.27209472656</ele>
        <time>2018-07-28T06:33:51Z</time>
      </trkpt>
      <trkpt lat="36.6818695068359" lon="-4.99874687194824">
        <ele>1691.27038574219</ele>
        <time>2018-07-28T06:33:52Z</time>
      </trkpt>
      <trkpt lat="36.6818656921387" lon="-4.99874782562256">
        <ele>1691.11645507812</ele>
        <time>2018-07-28T06:33:53Z</time>
      </trkpt>
      <trkpt lat="36.6818656921387" lon="-4.99874877929688">
        <ele>1691.1181640625</ele>
        <time>2018-07-28T06:33:54Z</time>
      </trkpt>
      <trkpt lat="36.6818618774414" lon="-4.99875020980835">
        <ele>1690.96496582031</ele>
        <time>2018-07-28T06:33:55Z</time>
      </trkpt>
      <trkpt lat="36.6818618774414" lon="-4.99874877929688">
        <ele>1690.96252441406</ele>
        <time>2018-07-28T06:33:56Z</time>
      </trkpt>
      <trkpt lat="36.6818618774414" lon="-4.99874782562256">
        <ele>1690.9609375</ele>
        <time>2018-07-28T06:33:57Z</time>
      </trkpt>
      <trkpt lat="36.6818618774414" lon="-4.99874877929688">
        <ele>1690.96252441406</ele>
        <time>2018-07-28T06:33:58Z</time>
      </trkpt>
      <trkpt lat="36.6818618774414" lon="-4.99875116348267">
        <ele>1690.96655273438</ele>
        <time>2018-07-28T06:33:59Z</time>
      </trkpt>
      <trkpt lat="36.6818580627441" lon="-4.9987530708313">
        <ele>1690.81408691406</ele>
        <time>2018-07-28T06:34:00Z</time>
      </trkpt>
      <trkpt lat="36.6818618774414" lon="-4.99875497817993">
        <ele>1690.97302246094</ele>
        <time>2018-07-28T06:34:01Z</time>
      </trkpt>
      <trkpt lat="36.6818618774414" lon="-4.99875593185425">
        <ele>1690.974609375</ele>
        <time>2018-07-28T06:34:02Z</time>
      </trkpt>
      <trkpt lat="36.6818656921387" lon="-4.99875593185425">
        <ele>1691.13049316406</ele>
        <time>2018-07-28T06:34:03Z</time>
      </trkpt>
      <trkpt lat="36.6818656921387" lon="-4.99875497817993">
        <ele>1691.12878417969</ele>
        <time>2018-07-28T06:34:04Z</time>
      </trkpt>
      <trkpt lat="36.6818618774414" lon="-4.99875497817993">
        <ele>1690.97302246094</ele>
        <time>2018-07-28T06:34:05Z</time>
      </trkpt>
      <trkpt lat="36.6818618774414" lon="-4.99875497817993">
        <ele>1690.97302246094</ele>
        <time>2018-07-28T06:34:06Z</time>
      </trkpt>
      <trkpt lat="36.6818618774414" lon="-4.99875593185425">
        <ele>1690.974609375</ele>
        <time>2018-07-28T06:34:07Z</time>
      </trkpt>
      <trkpt lat="36.6818656921387" lon="-4.99875593185425">
        <ele>1691.13049316406</ele>
        <time>2018-07-28T06:34:08Z</time>
      </trkpt>
      <trkpt lat="36.6818656921387" lon="-4.99875593185425">
        <ele>1691.13049316406</ele>
        <time>2018-07-28T06:34:09Z</time>
      </trkpt>
      <trkpt lat="36.6818656921387" lon="-4.99875497817993">
        <ele>1691.12878417969</ele>
        <time>2018-07-28T06:34:10Z</time>
      </trkpt>
      <trkpt lat="36.6818656921387" lon="-4.9987530708313">
        <ele>1691.12548828125</ele>
        <time>2018-07-28T06:34:11Z</time>
      </trkpt>
      <trkpt lat="36.6818656921387" lon="-4.99875116348267">
        <ele>1691.12219238281</ele>
        <time>2018-07-28T06:34:12Z</time>
      </trkpt>
      <trkpt lat="36.6818656921387" lon="-4.99875020980835">
        <ele>1691.12060546875</ele>
        <time>2018-07-28T06:34:13Z</time>
      </trkpt>
      <trkpt lat="36.6818656921387" lon="-4.99875020980835">
        <ele>1691.12060546875</ele>
        <time>2018-07-28T06:34:14Z</time>
      </trkpt>
      <trkpt lat="36.6818656921387" lon="-4.99875020980835">
        <ele>1691.12060546875</ele>
        <time>2018-07-28T06:34:15Z</time>
      </trkpt>
      <trkpt lat="36.6818695068359" lon="-4.99875020980835">
        <ele>1691.27624511719</ele>
        <time>2018-07-28T06:34:16Z</time>
      </trkpt>
      <trkpt lat="36.6818695068359" lon="-4.99874877929688">
        <ele>1691.27368164062</ele>
        <time>2018-07-28T06:34:17Z</time>
      </trkpt>
      <trkpt lat="36.6818695068359" lon="-4.99874877929688">
        <ele>1691.27368164062</ele>
        <time>2018-07-28T06:34:18Z</time>
      </trkpt>
      <trkpt lat="36.6818695068359" lon="-4.99874877929688">
        <ele>1691.27368164062</ele>
        <time>2018-07-28T06:34:19Z</time>
      </trkpt>
      <trkpt lat="36.6818695068359" lon="-4.99874877929688">
        <ele>1691.27368164062</ele>
        <time>2018-07-28T06:34:20Z</time>
      </trkpt>
      <trkpt lat="36.6818695068359" lon="-4.99874782562256">
        <ele>1691.27209472656</ele>
        <time>2018-07-28T06:34:21Z</time>
      </trkpt>
      <trkpt lat="36.6818695068359" lon="-4.99874877929688">
        <ele>1691.27368164062</ele>
        <time>2018-07-28T06:34:22Z</time>
      </trkpt>
      <trkpt lat="36.6818695068359" lon="-4.99874877929688">
        <ele>1691.27368164062</ele>
        <time>2018-07-28T06:34:23Z</time>
      </trkpt>
      <trkpt lat="36.6818695068359" lon="-4.99874877929688">
        <ele>1691.27368164062</ele>
        <time>2018-07-28T06:34:24Z</time>
      </trkpt>
      <trkpt lat="36.6818695068359" lon="-4.99874877929688">
        <ele>1691.27368164062</ele>
        <time>2018-07-28T06:34:25Z</time>
      </trkpt>
      <trkpt lat="36.6818695068359" lon="-4.99874877929688">
        <ele>1691.27368164062</ele>
        <time>2018-07-28T06:34:26Z</time>
      </trkpt>
      <trkpt lat="36.6818656921387" lon="-4.99875020980835">
        <ele>1691.12060546875</ele>
        <time>2018-07-28T06:34:27Z</time>
      </trkpt>
      <trkpt lat="36.6818656921387" lon="-4.99874877929688">
        <ele>1691.1181640625</ele>
        <time>2018-07-28T06:34:28Z</time>
      </trkpt>
      <trkpt lat="36.6818656921387" lon="-4.99874687194824">
        <ele>1691.11486816406</ele>
        <time>2018-07-28T06:34:29Z</time>
      </trkpt>
      <trkpt lat="36.6818656921387" lon="-4.99874401092529">
        <ele>1691.10998535156</ele>
        <time>2018-07-28T06:34:30Z</time>
      </trkpt>
      <trkpt lat="36.6818656921387" lon="-4.99874305725098">
        <ele>1691.10827636719</ele>
        <time>2018-07-28T06:34:31Z</time>
      </trkpt>
      <trkpt lat="36.6818695068359" lon="-4.99874114990234">
        <ele>1691.26037597656</ele>
        <time>2018-07-28T06:34:32Z</time>
      </trkpt>
      <trkpt lat="36.6818695068359" lon="-4.99874019622803">
        <ele>1691.25866699219</ele>
        <time>2018-07-28T06:34:33Z</time>
      </trkpt>
      <trkpt lat="36.6818695068359" lon="-4.99873781204224">
        <ele>1691.25451660156</ele>
        <time>2018-07-28T06:34:34Z</time>
      </trkpt>
      <trkpt lat="36.6818695068359" lon="-4.9987359046936">
        <ele>1691.25122070312</ele>
        <time>2018-07-28T06:34:35Z</time>
      </trkpt>
      <trkpt lat="36.6818695068359" lon="-4.99873495101929">
        <ele>1691.24951171875</ele>
        <time>2018-07-28T06:34:36Z</time>
      </trkpt>
      <trkpt lat="36.6818733215332" lon="-4.99873495101929">
        <ele>1691.40466308594</ele>
        <time>2018-07-28T06:34:37Z</time>
      </trkpt>
      <trkpt lat="36.6818695068359" lon="-4.99873495101929">
        <ele>1691.24951171875</ele>
        <time>2018-07-28T06:34:38Z</time>
      </trkpt>
      <trkpt lat="36.6818695068359" lon="-4.99873495101929">
        <ele>1691.24951171875</ele>
        <time>2018-07-28T06:34:39Z</time>
      </trkpt>
      <trkpt lat="36.6818695068359" lon="-4.99873304367065">
        <ele>1691.24621582031</ele>
        <time>2018-07-28T06:34:40Z</time>
      </trkpt>
      <trkpt lat="36.6818695068359" lon="-4.99873208999634">
        <ele>1691.24450683594</ele>
        <time>2018-07-28T06:34:41Z</time>
      </trkpt>
      <trkpt lat="36.6818695068359" lon="-4.99873304367065">
        <ele>1691.24621582031</ele>
        <time>2018-07-28T06:34:42Z</time>
      </trkpt>
      <trkpt lat="36.6818695068359" lon="-4.99873399734497">
        <ele>1691.24780273438</ele>
        <time>2018-07-28T06:34:43Z</time>
      </trkpt>
      <trkpt lat="36.6818656921387" lon="-4.9987359046936">
        <ele>1691.09594726562</ele>
        <time>2018-07-28T06:34:44Z</time>
      </trkpt>
      <trkpt lat="36.6818656921387" lon="-4.99873781204224">
        <ele>1691.09924316406</ele>
        <time>2018-07-28T06:34:45Z</time>
      </trkpt>
      <trkpt lat="36.6818618774414" lon="-4.99873876571655">
        <ele>1690.94567871094</ele>
        <time>2018-07-28T06:34:46Z</time>
      </trkpt>
      <trkpt lat="36.6818618774414" lon="-4.99874210357666">
        <ele>1690.95129394531</ele>
        <time>2018-07-28T06:34:47Z</time>
      </trkpt>
      <trkpt lat="36.6818618774414" lon="-4.99874496459961">
        <ele>1690.9560546875</ele>
        <time>2018-07-28T06:34:48Z</time>
      </trkpt>
      <trkpt lat="36.6818656921387" lon="-4.99875020980835">
        <ele>1691.12060546875</ele>
        <time>2018-07-28T06:34:49Z</time>
      </trkpt>
      <trkpt lat="36.6818656921387" lon="-4.99875211715698">
        <ele>1691.12390136719</ele>
        <time>2018-07-28T06:34:50Z</time>
      </trkpt>
      <trkpt lat="36.6818656921387" lon="-4.99875211715698">
        <ele>1691.12390136719</ele>
        <time>2018-07-28T06:34:51Z</time>
      </trkpt>
      <trkpt lat="36.6818618774414" lon="-4.99875402450562">
        <ele>1690.97143554688</ele>
        <time>2018-07-28T06:34:52Z</time>
      </trkpt>
      <trkpt lat="36.6818618774414" lon="-4.99875688552856">
        <ele>1690.97619628906</ele>
        <time>2018-07-28T06:34:53Z</time>
      </trkpt>
      <trkpt lat="36.6818580627441" lon="-4.99876022338867">
        <ele>1690.82580566406</ele>
        <time>2018-07-28T06:34:54Z</time>
      </trkpt>
      <trkpt lat="36.6818580627441" lon="-4.9987587928772">
        <ele>1690.82348632812</ele>
        <time>2018-07-28T06:34:55Z</time>
      </trkpt>
      <trkpt lat="36.6818580627441" lon="-4.99875783920288">
        <ele>1690.82189941406</ele>
        <time>2018-07-28T06:34:56Z</time>
      </trkpt>
      <trkpt lat="36.6818580627441" lon="-4.99876117706299">
        <ele>1690.82739257812</ele>
        <time>2018-07-28T06:34:57Z</time>
      </trkpt>
      <trkpt lat="36.6818580627441" lon="-4.99876308441162">
        <ele>1690.83056640625</ele>
        <time>2018-07-28T06:34:58Z</time>
      </trkpt>
      <trkpt lat="36.6818580627441" lon="-4.99876594543457">
        <ele>1690.83532714844</ele>
        <time>2018-07-28T06:34:59Z</time>
      </trkpt>
      <trkpt lat="36.6818618774414" lon="-4.99876499176025">
        <ele>1690.98986816406</ele>
        <time>2018-07-28T06:35:00Z</time>
      </trkpt>
      <trkpt lat="36.6818618774414" lon="-4.99876308441162">
        <ele>1690.98669433594</ele>
        <time>2018-07-28T06:35:01Z</time>
      </trkpt>
      <trkpt lat="36.6818618774414" lon="-4.99876117706299">
        <ele>1690.9833984375</ele>
        <time>2018-07-28T06:35:02Z</time>
      </trkpt>
      <trkpt lat="36.6818618774414" lon="-4.99876022338867">
        <ele>1690.98181152344</ele>
        <time>2018-07-28T06:35:03Z</time>
      </trkpt>
      <trkpt lat="36.6818580627441" lon="-4.9987587928772">
        <ele>1690.82348632812</ele>
        <time>2018-07-28T06:35:04Z</time>
      </trkpt>
      <trkpt lat="36.6818580627441" lon="-4.99875783920288">
        <ele>1690.82189941406</ele>
        <time>2018-07-28T06:35:05Z</time>
      </trkpt>
      <trkpt lat="36.6818580627441" lon="-4.99875688552856">
        <ele>1690.8203125</ele>
        <time>2018-07-28T06:35:06Z</time>
      </trkpt>
      <trkpt lat="36.6818580627441" lon="-4.99875497817993">
        <ele>1690.81713867188</ele>
        <time>2018-07-28T06:35:07Z</time>
      </trkpt>
      <trkpt lat="36.6818580627441" lon="-4.9987530708313">
        <ele>1690.81408691406</ele>
        <time>2018-07-28T06:35:08Z</time>
      </trkpt>
      <trkpt lat="36.6818580627441" lon="-4.99875211715698">
        <ele>1690.8125</ele>
        <time>2018-07-28T06:35:09Z</time>
      </trkpt>
      <trkpt lat="36.6818618774414" lon="-4.99875116348267">
        <ele>1690.96655273438</ele>
        <time>2018-07-28T06:35:10Z</time>
      </trkpt>
      <trkpt lat="36.6818618774414" lon="-4.99874877929688">
        <ele>1690.96252441406</ele>
        <time>2018-07-28T06:35:11Z</time>
      </trkpt>
      <trkpt lat="36.6818618774414" lon="-4.99874877929688">
        <ele>1690.96252441406</ele>
        <time>2018-07-28T06:35:12Z</time>
      </trkpt>
      <trkpt lat="36.6818618774414" lon="-4.99874877929688">
        <ele>1690.96252441406</ele>
        <time>2018-07-28T06:35:13Z</time>
      </trkpt>
      <trkpt lat="36.6818618774414" lon="-4.99875020980835">
        <ele>1690.96496582031</ele>
        <time>2018-07-28T06:35:14Z</time>
      </trkpt>
      <trkpt lat="36.6818618774414" lon="-4.9987530708313">
        <ele>1690.9697265625</ele>
        <time>2018-07-28T06:35:15Z</time>
      </trkpt>
      <trkpt lat="36.6818618774414" lon="-4.99875497817993">
        <ele>1690.97302246094</ele>
        <time>2018-07-28T06:35:16Z</time>
      </trkpt>
      <trkpt lat="36.6818618774414" lon="-4.99875783920288">
        <ele>1690.97778320312</ele>
        <time>2018-07-28T06:35:17Z</time>
      </trkpt>
      <trkpt lat="36.6818618774414" lon="-4.99875688552856">
        <ele>1690.97619628906</ele>
        <time>2018-07-28T06:35:18Z</time>
      </trkpt>
      <trkpt lat="36.6818656921387" lon="-4.99875783920288">
        <ele>1691.13366699219</ele>
        <time>2018-07-28T06:35:19Z</time>
      </trkpt>
      <trkpt lat="36.6818656921387" lon="-4.99875688552856">
        <ele>1691.13208007812</ele>
        <time>2018-07-28T06:35:20Z</time>
      </trkpt>
      <trkpt lat="36.6818618774414" lon="-4.9987587928772">
        <ele>1690.97937011719</ele>
        <time>2018-07-28T06:35:21Z</time>
      </trkpt>
      <trkpt lat="36.6818618774414" lon="-4.99876022338867">
        <ele>1690.98181152344</ele>
        <time>2018-07-28T06:35:22Z</time>
      </trkpt>
      <trkpt lat="36.6818618774414" lon="-4.99876022338867">
        <ele>1690.98181152344</ele>
        <time>2018-07-28T06:35:23Z</time>
      </trkpt>
      <trkpt lat="36.6818618774414" lon="-4.9987587928772">
        <ele>1690.97937011719</ele>
        <time>2018-07-28T06:35:24Z</time>
      </trkpt>
      <trkpt lat="36.6818618774414" lon="-4.99875783920288">
        <ele>1690.97778320312</ele>
        <time>2018-07-28T06:35:25Z</time>
      </trkpt>
      <trkpt lat="36.6818618774414" lon="-4.99875688552856">
        <ele>1690.97619628906</ele>
        <time>2018-07-28T06:35:26Z</time>
      </trkpt>
      <trkpt lat="36.6818618774414" lon="-4.99875783920288">
        <ele>1690.97778320312</ele>
        <time>2018-07-28T06:35:27Z</time>
      </trkpt>
      <trkpt lat="36.6818618774414" lon="-4.99875783920288">
        <ele>1690.97778320312</ele>
        <time>2018-07-28T06:35:28Z</time>
      </trkpt>
      <trkpt lat="36.6818618774414" lon="-4.99875783920288">
        <ele>1690.97778320312</ele>
        <time>2018-07-28T06:35:29Z</time>
      </trkpt>
      <trkpt lat="36.6818618774414" lon="-4.99875688552856">
        <ele>1690.97619628906</ele>
        <time>2018-07-28T06:35:30Z</time>
      </trkpt>
      <trkpt lat="36.6818618774414" lon="-4.99875593185425">
        <ele>1690.974609375</ele>
        <time>2018-07-28T06:35:31Z</time>
      </trkpt>
      <trkpt lat="36.6818618774414" lon="-4.99875593185425">
        <ele>1690.974609375</ele>
        <time>2018-07-28T06:35:32Z</time>
      </trkpt>
      <trkpt lat="36.6818618774414" lon="-4.99875688552856">
        <ele>1690.97619628906</ele>
        <time>2018-07-28T06:35:33Z</time>
      </trkpt>
      <trkpt lat="36.6818618774414" lon="-4.99875783920288">
        <ele>1690.97778320312</ele>
        <time>2018-07-28T06:35:34Z</time>
      </trkpt>
      <trkpt lat="36.6818618774414" lon="-4.9987587928772">
        <ele>1690.97937011719</ele>
        <time>2018-07-28T06:35:35Z</time>
      </trkpt>
      <trkpt lat="36.6818618774414" lon="-4.9987587928772">
        <ele>1690.97937011719</ele>
        <time>2018-07-28T06:35:36Z</time>
      </trkpt>
      <trkpt lat="36.6818580627441" lon="-4.99876022338867">
        <ele>1690.82580566406</ele>
        <time>2018-07-28T06:35:37Z</time>
      </trkpt>
      <trkpt lat="36.6818580627441" lon="-4.99876022338867">
        <ele>1690.82580566406</ele>
        <time>2018-07-28T06:35:38Z</time>
      </trkpt>
      <trkpt lat="36.6818580627441" lon="-4.9987621307373">
        <ele>1690.82897949219</ele>
        <time>2018-07-28T06:35:39Z</time>
      </trkpt>
      <trkpt lat="36.6818580627441" lon="-4.99876308441162">
        <ele>1690.83056640625</ele>
        <time>2018-07-28T06:35:40Z</time>
      </trkpt>
      <trkpt lat="36.6818542480469" lon="-4.99876403808594">
        <ele>1690.67602539062</ele>
        <time>2018-07-28T06:35:41Z</time>
      </trkpt>
      <trkpt lat="36.6818542480469" lon="-4.99876594543457">
        <ele>1690.67919921875</ele>
        <time>2018-07-28T06:35:42Z</time>
      </trkpt>
      <trkpt lat="36.6818542480469" lon="-4.99876880645752">
        <ele>1690.68383789062</ele>
        <time>2018-07-28T06:35:43Z</time>
      </trkpt>
      <trkpt lat="36.6818504333496" lon="-4.99877119064331">
        <ele>1690.53137207031</ele>
        <time>2018-07-28T06:35:44Z</time>
      </trkpt>
      <trkpt lat="36.6818504333496" lon="-4.99877405166626">
        <ele>1690.53588867188</ele>
        <time>2018-07-28T06:35:45Z</time>
      </trkpt>
      <trkpt lat="36.6818466186523" lon="-4.99877691268921">
        <ele>1690.38391113281</ele>
        <time>2018-07-28T06:35:46Z</time>
      </trkpt>
      <trkpt lat="36.6818466186523" lon="-4.99877977371216">
        <ele>1690.38830566406</ele>
        <time>2018-07-28T06:35:47Z</time>
      </trkpt>
      <trkpt lat="36.6818428039551" lon="-4.99878311157227">
        <ele>1690.23681640625</ele>
        <time>2018-07-28T06:35:48Z</time>
      </trkpt>
      <trkpt lat="36.6818428039551" lon="-4.9987850189209">
        <ele>1690.23974609375</ele>
        <time>2018-07-28T06:35:49Z</time>
      </trkpt>
      <trkpt lat="36.6818389892578" lon="-4.99878597259522">
        <ele>1690.08435058594</ele>
        <time>2018-07-28T06:35:50Z</time>
      </trkpt>
      <trkpt lat="36.6818389892578" lon="-4.99878597259522">
        <ele>1690.08435058594</ele>
        <time>2018-07-28T06:35:51Z</time>
      </trkpt>
      <trkpt lat="36.6818389892578" lon="-4.99878311157227">
        <ele>1690.080078125</ele>
        <time>2018-07-28T06:35:52Z</time>
      </trkpt>
      <trkpt lat="36.6818428039551" lon="-4.99878120422363">
        <ele>1690.23388671875</ele>
        <time>2018-07-28T06:35:53Z</time>
      </trkpt>
      <trkpt lat="36.6818428039551" lon="-4.99877786636353">
        <ele>1690.22875976562</ele>
        <time>2018-07-28T06:35:54Z</time>
      </trkpt>
      <trkpt lat="36.6818428039551" lon="-4.99877691268921">
        <ele>1690.22741699219</ele>
        <time>2018-07-28T06:35:55Z</time>
      </trkpt>
      <trkpt lat="36.6818466186523" lon="-4.99877500534058">
        <ele>1690.380859375</ele>
        <time>2018-07-28T06:35:56Z</time>
      </trkpt>
      <trkpt lat="36.6818466186523" lon="-4.99877405166626">
        <ele>1690.37939453125</ele>
        <time>2018-07-28T06:35:57Z</time>
      </trkpt>
      <trkpt lat="36.6818466186523" lon="-4.99877309799194">
        <ele>1690.3779296875</ele>
        <time>2018-07-28T06:35:58Z</time>
      </trkpt>
      <trkpt lat="36.6818466186523" lon="-4.99877309799194">
        <ele>1690.3779296875</ele>
        <time>2018-07-28T06:35:59Z</time>
      </trkpt>
      <trkpt lat="36.6818466186523" lon="-4.99877309799194">
        <ele>1690.3779296875</ele>
        <time>2018-07-28T06:36:00Z</time>
      </trkpt>
      <trkpt lat="36.6818466186523" lon="-4.99877405166626">
        <ele>1690.37939453125</ele>
        <time>2018-07-28T06:36:01Z</time>
      </trkpt>
      <trkpt lat="36.6818504333496" lon="-4.99877309799194">
        <ele>1690.53430175781</ele>
        <time>2018-07-28T06:36:02Z</time>
      </trkpt>
      <trkpt lat="36.6818504333496" lon="-4.99877309799194">
        <ele>1690.53430175781</ele>
        <time>2018-07-28T06:36:03Z</time>
      </trkpt>
      <trkpt lat="36.6818504333496" lon="-4.99877309799194">
        <ele>1690.53430175781</ele>
        <time>2018-07-28T06:36:04Z</time>
      </trkpt>
      <trkpt lat="36.6818504333496" lon="-4.99877405166626">
        <ele>1690.53588867188</ele>
        <time>2018-07-28T06:36:05Z</time>
      </trkpt>
      <trkpt lat="36.6818504333496" lon="-4.99877405166626">
        <ele>1690.53588867188</ele>
        <time>2018-07-28T06:36:06Z</time>
      </trkpt>
      <trkpt lat="36.6818504333496" lon="-4.99877405166626">
        <ele>1690.53588867188</ele>
        <time>2018-07-28T06:36:07Z</time>
      </trkpt>
      <trkpt lat="36.6818504333496" lon="-4.99877309799194">
        <ele>1690.53430175781</ele>
        <time>2018-07-28T06:36:08Z</time>
      </trkpt>
      <trkpt lat="36.6818504333496" lon="-4.99877309799194">
        <ele>1690.53430175781</ele>
        <time>2018-07-28T06:36:09Z</time>
      </trkpt>
      <trkpt lat="36.6818504333496" lon="-4.99877214431763">
        <ele>1690.53283691406</ele>
        <time>2018-07-28T06:36:10Z</time>
      </trkpt>
      <trkpt lat="36.6818504333496" lon="-4.99877214431763">
        <ele>1690.53283691406</ele>
        <time>2018-07-28T06:36:11Z</time>
      </trkpt>
      <trkpt lat="36.6818504333496" lon="-4.99877214431763">
        <ele>1690.53283691406</ele>
        <time>2018-07-28T06:36:12Z</time>
      </trkpt>
      <trkpt lat="36.6818504333496" lon="-4.99877214431763">
        <ele>1690.53283691406</ele>
        <time>2018-07-28T06:36:13Z</time>
      </trkpt>
      <trkpt lat="36.6818504333496" lon="-4.99877214431763">
        <ele>1690.53283691406</ele>
        <time>2018-07-28T06:36:14Z</time>
      </trkpt>
      <trkpt lat="36.6818466186523" lon="-4.99877309799194">
        <ele>1690.3779296875</ele>
        <time>2018-07-28T06:36:15Z</time>
      </trkpt>
      <trkpt lat="36.6818466186523" lon="-4.99877309799194">
        <ele>1690.3779296875</ele>
        <time>2018-07-28T06:36:16Z</time>
      </trkpt>
      <trkpt lat="36.6818504333496" lon="-4.99877119064331">
        <ele>1690.53137207031</ele>
        <time>2018-07-28T06:36:17Z</time>
      </trkpt>
      <trkpt lat="36.6818504333496" lon="-4.99876880645752">
        <ele>1690.52758789062</ele>
        <time>2018-07-28T06:36:18Z</time>
      </trkpt>
      <trkpt lat="36.6818542480469" lon="-4.99876689910889">
        <ele>1690.6806640625</ele>
        <time>2018-07-28T06:36:19Z</time>
      </trkpt>
      <trkpt lat="36.6818542480469" lon="-4.99876594543457">
        <ele>1690.67919921875</ele>
        <time>2018-07-28T06:36:20Z</time>
      </trkpt>
      <trkpt lat="36.6818542480469" lon="-4.99876499176025">
        <ele>1690.67761230469</ele>
        <time>2018-07-28T06:36:21Z</time>
      </trkpt>
      <trkpt lat="36.6818542480469" lon="-4.99876499176025">
        <ele>1690.67761230469</ele>
        <time>2018-07-28T06:36:22Z</time>
      </trkpt>
      <trkpt lat="36.6818580627441" lon="-4.99876499176025">
        <ele>1690.83374023438</ele>
        <time>2018-07-28T06:36:23Z</time>
      </trkpt>
      <trkpt lat="36.6818580627441" lon="-4.99876499176025">
        <ele>1690.83374023438</ele>
        <time>2018-07-28T06:36:24Z</time>
      </trkpt>
      <trkpt lat="36.6818580627441" lon="-4.99876499176025">
        <ele>1690.83374023438</ele>
        <time>2018-07-28T06:36:25Z</time>
      </trkpt>
      <trkpt lat="36.6818618774414" lon="-4.99876594543457">
        <ele>1690.99145507812</ele>
        <time>2018-07-28T06:36:26Z</time>
      </trkpt>
      <trkpt lat="36.6818580627441" lon="-4.9987678527832">
        <ele>1690.83850097656</ele>
        <time>2018-07-28T06:36:27Z</time>
      </trkpt>
      <trkpt lat="36.6818580627441" lon="-4.99877023696899">
        <ele>1690.84240722656</ele>
        <time>2018-07-28T06:36:28Z</time>
      </trkpt>
      <trkpt lat="36.6818580627441" lon="-4.99877214431763">
        <ele>1690.84558105469</ele>
        <time>2018-07-28T06:36:29Z</time>
      </trkpt>
      <trkpt lat="36.6818580627441" lon="-4.99877500534058">
        <ele>1690.85034179688</ele>
        <time>2018-07-28T06:36:30Z</time>
      </trkpt>
      <trkpt lat="36.6818542480469" lon="-4.99877500534058">
        <ele>1690.69384765625</ele>
        <time>2018-07-28T06:36:31Z</time>
      </trkpt>
      <trkpt lat="36.6818542480469" lon="-4.99877691268921">
        <ele>1690.69689941406</ele>
        <time>2018-07-28T06:36:32Z</time>
      </trkpt>
      <trkpt lat="36.6818542480469" lon="-4.99877786636353">
        <ele>1690.69848632812</ele>
        <time>2018-07-28T06:36:33Z</time>
      </trkpt>
      <trkpt lat="36.6818542480469" lon="-4.99877977371216">
        <ele>1690.70153808594</ele>
        <time>2018-07-28T06:36:34Z</time>
      </trkpt>
      <trkpt lat="36.6818542480469" lon="-4.99878120422363">
        <ele>1690.70385742188</ele>
        <time>2018-07-28T06:36:35Z</time>
      </trkpt>
      <trkpt lat="36.6818504333496" lon="-4.99878215789795">
        <ele>1690.54870605469</ele>
        <time>2018-07-28T06:36:36Z</time>
      </trkpt>
      <trkpt lat="36.6818504333496" lon="-4.99878311157227">
        <ele>1690.55029296875</ele>
        <time>2018-07-28T06:36:37Z</time>
      </trkpt>
      <trkpt lat="36.6818504333496" lon="-4.9987850189209">
        <ele>1690.55322265625</ele>
        <time>2018-07-28T06:36:38Z</time>
      </trkpt>
      <trkpt lat="36.6818504333496" lon="-4.99878787994385">
        <ele>1690.55786132812</ele>
        <time>2018-07-28T06:36:39Z</time>
      </trkpt>
      <trkpt lat="36.6818504333496" lon="-4.99878978729248">
        <ele>1690.56091308594</ele>
        <time>2018-07-28T06:36:40Z</time>
      </trkpt>
      <trkpt lat="36.6818504333496" lon="-4.99879121780396">
        <ele>1690.56311035156</ele>
        <time>2018-07-28T06:36:41Z</time>
      </trkpt>
      <trkpt lat="36.6818504333496" lon="-4.99878978729248">
        <ele>1690.56091308594</ele>
        <time>2018-07-28T06:36:42Z</time>
      </trkpt>
      <trkpt lat="36.6818504333496" lon="-4.99878883361816">
        <ele>1690.55932617188</ele>
        <time>2018-07-28T06:36:43Z</time>
      </trkpt>
      <trkpt lat="36.6818504333496" lon="-4.99878978729248">
        <ele>1690.56091308594</ele>
        <time>2018-07-28T06:36:44Z</time>
      </trkpt>
      <trkpt lat="36.6818504333496" lon="-4.99879121780396">
        <ele>1690.56311035156</ele>
        <time>2018-07-28T06:36:45Z</time>
      </trkpt>
      <trkpt lat="36.6818504333496" lon="-4.9987940788269">
        <ele>1690.56762695312</ele>
        <time>2018-07-28T06:36:46Z</time>
      </trkpt>
      <trkpt lat="36.6818504333496" lon="-4.9987998008728">
        <ele>1690.57678222656</ele>
        <time>2018-07-28T06:36:47Z</time>
      </trkpt>
      <trkpt lat="36.6818504333496" lon="-4.99880695343018">
        <ele>1690.58813476562</ele>
        <time>2018-07-28T06:36:48Z</time>
      </trkpt>
      <trkpt lat="36.6818504333496" lon="-4.99881315231323">
        <ele>1690.59790039062</ele>
        <time>2018-07-28T06:36:49Z</time>
      </trkpt>
      <trkpt lat="36.6818504333496" lon="-4.99881982803345">
        <ele>1690.60852050781</ele>
        <time>2018-07-28T06:36:50Z</time>
      </trkpt>
      <trkpt lat="36.6818542480469" lon="-4.9988260269165">
        <ele>1690.77648925781</ele>
        <time>2018-07-28T06:36:51Z</time>
      </trkpt>
      <trkpt lat="36.6818542480469" lon="-4.99883508682251">
        <ele>1690.79125976562</ele>
        <time>2018-07-28T06:36:52Z</time>
      </trkpt>
      <trkpt lat="36.6818542480469" lon="-4.99884605407715">
        <ele>1690.80895996094</ele>
        <time>2018-07-28T06:36:53Z</time>
      </trkpt>
      <trkpt lat="36.6818542480469" lon="-4.99885606765747">
        <ele>1690.8251953125</ele>
        <time>2018-07-28T06:36:54Z</time>
      </trkpt>
      <trkpt lat="36.6818542480469" lon="-4.99886322021484">
        <ele>1690.83679199219</ele>
        <time>2018-07-28T06:36:55Z</time>
      </trkpt>
      <trkpt lat="36.6818580627441" lon="-4.99886798858643">
        <ele>1691.00402832031</ele>
        <time>2018-07-28T06:36:56Z</time>
      </trkpt>
      <trkpt lat="36.6818618774414" lon="-4.99887323379517">
        <ele>1691.17248535156</ele>
        <time>2018-07-28T06:36:57Z</time>
      </trkpt>
      <trkpt lat="36.6818656921387" lon="-4.99887895584106">
        <ele>1691.34204101562</ele>
        <time>2018-07-28T06:36:58Z</time>
      </trkpt>
      <trkpt lat="36.6818656921387" lon="-4.99888801574707">
        <ele>1691.35754394531</ele>
        <time>2018-07-28T06:36:59Z</time>
      </trkpt>
      <trkpt lat="36.6818695068359" lon="-4.99889802932739">
        <ele>1691.53527832031</ele>
        <time>2018-07-28T06:37:00Z</time>
      </trkpt>
      <trkpt lat="36.6818695068359" lon="-4.99890804290772">
        <ele>1691.55285644531</ele>
        <time>2018-07-28T06:37:01Z</time>
      </trkpt>
      <trkpt lat="36.6818733215332" lon="-4.99891710281372">
        <ele>1691.72985839844</ele>
        <time>2018-07-28T06:37:02Z</time>
      </trkpt>
      <trkpt lat="36.6818733215332" lon="-4.99892616271973">
        <ele>1691.74609375</ele>
        <time>2018-07-28T06:37:03Z</time>
      </trkpt>
      <trkpt lat="36.6818733215332" lon="-4.99893617630005">
        <ele>1691.76391601562</ele>
        <time>2018-07-28T06:37:04Z</time>
      </trkpt>
      <trkpt lat="36.6818733215332" lon="-4.99894523620606">
        <ele>1691.78015136719</ele>
        <time>2018-07-28T06:37:05Z</time>
      </trkpt>
      <trkpt lat="36.6818733215332" lon="-4.9989538192749">
        <ele>1691.79541015625</ele>
        <time>2018-07-28T06:37:06Z</time>
      </trkpt>
      <trkpt lat="36.6818771362305" lon="-4.99896097183228">
        <ele>1691.97082519531</ele>
        <time>2018-07-28T06:37:07Z</time>
      </trkpt>
      <trkpt lat="36.6818771362305" lon="-4.99896478652954">
        <ele>1691.97778320312</ele>
        <time>2018-07-28T06:37:08Z</time>
      </trkpt>
      <trkpt lat="36.6818809509277" lon="-4.99896907806396">
        <ele>1692.1484375</ele>
        <time>2018-07-28T06:37:09Z</time>
      </trkpt>
      <trkpt lat="36.681884765625" lon="-4.99897289276123">
        <ele>1692.31848144531</ele>
        <time>2018-07-28T06:37:10Z</time>
      </trkpt>
      <trkpt lat="36.681884765625" lon="-4.99897718429565">
        <ele>1692.32653808594</ele>
        <time>2018-07-28T06:37:11Z</time>
      </trkpt>
      <trkpt lat="36.6818885803223" lon="-4.9989800453186">
        <ele>1692.4951171875</ele>
        <time>2018-07-28T06:37:12Z</time>
      </trkpt>
      <trkpt lat="36.6818885803223" lon="-4.99898386001587">
        <ele>1692.50244140625</ele>
        <time>2018-07-28T06:37:13Z</time>
      </trkpt>
      <trkpt lat="36.6818885803223" lon="-4.99898910522461">
        <ele>1692.51257324219</ele>
        <time>2018-07-28T06:37:14Z</time>
      </trkpt>
      <trkpt lat="36.6818885803223" lon="-4.99899482727051">
        <ele>1692.5234375</ele>
        <time>2018-07-28T06:37:15Z</time>
      </trkpt>
      <trkpt lat="36.6818923950195" lon="-4.99899911880493">
        <ele>1692.69555664062</ele>
        <time>2018-07-28T06:37:16Z</time>
      </trkpt>
      <trkpt lat="36.6818923950195" lon="-4.99900197982788">
        <ele>1692.701171875</ele>
        <time>2018-07-28T06:37:17Z</time>
      </trkpt>
      <trkpt lat="36.6818962097168" lon="-4.99900484085083">
        <ele>1692.87072753906</ele>
        <time>2018-07-28T06:37:18Z</time>
      </trkpt>
      <trkpt lat="36.6819000244141" lon="-4.99900913238525">
        <ele>1693.04345703125</ele>
        <time>2018-07-28T06:37:19Z</time>
      </trkpt>
      <trkpt lat="36.6819038391113" lon="-4.9990119934082">
        <ele>1693.21350097656</ele>
        <time>2018-07-28T06:37:20Z</time>
      </trkpt>
      <trkpt lat="36.6819038391113" lon="-4.99901294708252">
        <ele>1693.21545410156</ele>
        <time>2018-07-28T06:37:21Z</time>
      </trkpt>
      <trkpt lat="36.6819038391113" lon="-4.99901294708252">
        <ele>1693.21545410156</ele>
        <time>2018-07-28T06:37:22Z</time>
      </trkpt>
      <trkpt lat="36.6819076538086" lon="-4.99901390075684">
        <ele>1693.38171386719</ele>
        <time>2018-07-28T06:37:23Z</time>
      </trkpt>
      <trkpt lat="36.6819076538086" lon="-4.99901580810547">
        <ele>1693.3857421875</ele>
        <time>2018-07-28T06:37:24Z</time>
      </trkpt>
      <trkpt lat="36.6819114685059" lon="-4.99902105331421">
        <ele>1693.56115722656</ele>
        <time>2018-07-28T06:37:25Z</time>
      </trkpt>
      <trkpt lat="36.6819152832031" lon="-4.99902582168579">
        <ele>1693.73608398438</ele>
        <time>2018-07-28T06:37:26Z</time>
      </trkpt>
      <trkpt lat="36.6819190979004" lon="-4.99903106689453">
        <ele>1693.91223144531</ele>
        <time>2018-07-28T06:37:27Z</time>
      </trkpt>
      <trkpt lat="36.6819190979004" lon="-4.9990348815918">
        <ele>1693.92053222656</ele>
        <time>2018-07-28T06:37:28Z</time>
      </trkpt>
      <trkpt lat="36.6819229125977" lon="-4.9990382194519">
        <ele>1694.09289550781</ele>
        <time>2018-07-28T06:37:29Z</time>
      </trkpt>
      <trkpt lat="36.6819267272949" lon="-4.99904203414917">
        <ele>1694.2666015625</ele>
        <time>2018-07-28T06:37:30Z</time>
      </trkpt>
      <trkpt lat="36.6819305419922" lon="-4.99904680252075">
        <ele>1694.44274902344</ele>
        <time>2018-07-28T06:37:31Z</time>
      </trkpt>
      <trkpt lat="36.6819305419922" lon="-4.99905014038086">
        <ele>1694.45043945312</ele>
        <time>2018-07-28T06:37:32Z</time>
      </trkpt>
      <trkpt lat="36.6819305419922" lon="-4.99905109405518">
        <ele>1694.45251464844</ele>
        <time>2018-07-28T06:37:33Z</time>
      </trkpt>
      <trkpt lat="36.6819305419922" lon="-4.99905014038086">
        <ele>1694.45043945312</ele>
        <time>2018-07-28T06:37:34Z</time>
      </trkpt>
      <trkpt lat="36.6819343566894" lon="-4.99904918670654">
        <ele>1694.61376953125</ele>
        <time>2018-07-28T06:37:35Z</time>
      </trkpt>
      <trkpt lat="36.6819343566894" lon="-4.99904918670654">
        <ele>1694.61376953125</ele>
        <time>2018-07-28T06:37:36Z</time>
      </trkpt>
      <trkpt lat="36.6819343566894" lon="-4.99904823303223">
        <ele>1694.61157226562</ele>
        <time>2018-07-28T06:37:37Z</time>
      </trkpt>
      <trkpt lat="36.6819305419922" lon="-4.99904680252075">
        <ele>1694.44274902344</ele>
        <time>2018-07-28T06:37:38Z</time>
      </trkpt>
      <trkpt lat="36.6819305419922" lon="-4.99904680252075">
        <ele>1694.44274902344</ele>
        <time>2018-07-28T06:37:39Z</time>
      </trkpt>
      <trkpt lat="36.6819267272949" lon="-4.99904680252075">
        <ele>1694.27734375</ele>
        <time>2018-07-28T06:37:40Z</time>
      </trkpt>
      <trkpt lat="36.6819267272949" lon="-4.99904823303223">
        <ele>1694.28063964844</ele>
        <time>2018-07-28T06:37:41Z</time>
      </trkpt>
      <trkpt lat="36.6819267272949" lon="-4.99904680252075">
        <ele>1694.27734375</ele>
        <time>2018-07-28T06:37:42Z</time>
      </trkpt>
      <trkpt lat="36.6819267272949" lon="-4.99904823303223">
        <ele>1694.28063964844</ele>
        <time>2018-07-28T06:37:43Z</time>
      </trkpt>
      <trkpt lat="36.6819267272949" lon="-4.99904823303223">
        <ele>1694.28063964844</ele>
        <time>2018-07-28T06:37:44Z</time>
      </trkpt>
      <trkpt lat="36.6819305419922" lon="-4.99904918670654">
        <ele>1694.4482421875</ele>
        <time>2018-07-28T06:37:45Z</time>
      </trkpt>
      <trkpt lat="36.6819305419922" lon="-4.99904918670654">
        <ele>1694.4482421875</ele>
        <time>2018-07-28T06:37:46Z</time>
      </trkpt>
      <trkpt lat="36.6819305419922" lon="-4.99905014038086">
        <ele>1694.45043945312</ele>
        <time>2018-07-28T06:37:47Z</time>
      </trkpt>
      <trkpt lat="36.6819305419922" lon="-4.99905204772949">
        <ele>1694.45471191406</ele>
        <time>2018-07-28T06:37:48Z</time>
      </trkpt>
      <trkpt lat="36.6819267272949" lon="-4.99905395507812">
        <ele>1694.29345703125</ele>
        <time>2018-07-28T06:37:49Z</time>
      </trkpt>
      <trkpt lat="36.6819267272949" lon="-4.99905490875244">
        <ele>1694.29553222656</ele>
        <time>2018-07-28T06:37:50Z</time>
      </trkpt>
      <trkpt lat="36.6819267272949" lon="-4.99905395507812">
        <ele>1694.29345703125</ele>
        <time>2018-07-28T06:37:51Z</time>
      </trkpt>
      <trkpt lat="36.6819267272949" lon="-4.99905300140381">
        <ele>1694.29125976562</ele>
        <time>2018-07-28T06:37:52Z</time>
      </trkpt>
      <trkpt lat="36.6819267272949" lon="-4.99905300140381">
        <ele>1694.29125976562</ele>
        <time>2018-07-28T06:37:53Z</time>
      </trkpt>
      <trkpt lat="36.6819267272949" lon="-4.99905395507812">
        <ele>1694.29345703125</ele>
        <time>2018-07-28T06:37:54Z</time>
      </trkpt>
      <trkpt lat="36.6819267272949" lon="-4.99905490875244">
        <ele>1694.29553222656</ele>
        <time>2018-07-28T06:37:55Z</time>
      </trkpt>
      <trkpt lat="36.6819305419922" lon="-4.99905490875244">
        <ele>1694.46130371094</ele>
        <time>2018-07-28T06:37:56Z</time>
      </trkpt>
      <trkpt lat="36.6819305419922" lon="-4.99905490875244">
        <ele>1694.46130371094</ele>
        <time>2018-07-28T06:37:57Z</time>
      </trkpt>
      <trkpt lat="36.6819343566894" lon="-4.99905681610107">
        <ele>1694.63134765625</ele>
        <time>2018-07-28T06:37:58Z</time>
      </trkpt>
      <trkpt lat="36.6819381713867" lon="-4.99906206130981">
        <ele>1694.80944824219</ele>
        <time>2018-07-28T06:37:59Z</time>
      </trkpt>
      <trkpt lat="36.6819381713867" lon="-4.9990668296814">
        <ele>1694.82055664062</ele>
        <time>2018-07-28T06:38:00Z</time>
      </trkpt>
      <trkpt lat="36.6819381713867" lon="-4.99907112121582">
        <ele>1694.83068847656</ele>
        <time>2018-07-28T06:38:01Z</time>
      </trkpt>
      <trkpt lat="36.6819381713867" lon="-4.99907398223877">
        <ele>1694.83740234375</ele>
        <time>2018-07-28T06:38:02Z</time>
      </trkpt>
      <trkpt lat="36.6819381713867" lon="-4.99907493591309">
        <ele>1694.83959960938</ele>
        <time>2018-07-28T06:38:03Z</time>
      </trkpt>
      <trkpt lat="36.6819381713867" lon="-4.99907493591309">
        <ele>1694.83959960938</ele>
        <time>2018-07-28T06:38:04Z</time>
      </trkpt>
      <trkpt lat="36.6819381713867" lon="-4.99907493591309">
        <ele>1694.83959960938</ele>
        <time>2018-07-28T06:38:05Z</time>
      </trkpt>
      <trkpt lat="36.6819381713867" lon="-4.99907493591309">
        <ele>1694.83959960938</ele>
        <time>2018-07-28T06:38:06Z</time>
      </trkpt>
      <trkpt lat="36.6819381713867" lon="-4.99907493591309">
        <ele>1694.83959960938</ele>
        <time>2018-07-28T06:38:07Z</time>
      </trkpt>
      <trkpt lat="36.6819381713867" lon="-4.9990758895874">
        <ele>1694.84191894531</ele>
        <time>2018-07-28T06:38:08Z</time>
      </trkpt>
      <trkpt lat="36.6819381713867" lon="-4.9990758895874">
        <ele>1694.84191894531</ele>
        <time>2018-07-28T06:38:09Z</time>
      </trkpt>
      <trkpt lat="36.6819381713867" lon="-4.99907684326172">
        <ele>1694.84411621094</ele>
        <time>2018-07-28T06:38:10Z</time>
      </trkpt>
      <trkpt lat="36.6819343566894" lon="-4.99907779693604">
        <ele>1694.67993164062</ele>
        <time>2018-07-28T06:38:11Z</time>
      </trkpt>
      <trkpt lat="36.6819343566894" lon="-4.99908018112183">
        <ele>1694.68542480469</ele>
        <time>2018-07-28T06:38:12Z</time>
      </trkpt>
      <trkpt lat="36.6819343566894" lon="-4.99908113479614">
        <ele>1694.68762207031</ele>
        <time>2018-07-28T06:38:13Z</time>
      </trkpt>
      <trkpt lat="36.6819343566894" lon="-4.99908304214478">
        <ele>1694.69201660156</ele>
        <time>2018-07-28T06:38:14Z</time>
      </trkpt>
      <trkpt lat="36.6819343566894" lon="-4.99908208847046">
        <ele>1694.68981933594</ele>
        <time>2018-07-28T06:38:15Z</time>
      </trkpt>
      <trkpt lat="36.6819343566894" lon="-4.99908018112183">
        <ele>1694.68542480469</ele>
        <time>2018-07-28T06:38:16Z</time>
      </trkpt>
      <trkpt lat="36.6819381713867" lon="-4.99907684326172">
        <ele>1694.84411621094</ele>
        <time>2018-07-28T06:38:17Z</time>
      </trkpt>
      <trkpt lat="36.681941986084" lon="-4.99907493591309">
        <ele>1695.00598144531</ele>
        <time>2018-07-28T06:38:18Z</time>
      </trkpt>
      <trkpt lat="36.681941986084" lon="-4.99907302856445">
        <ele>1695.00146484375</ele>
        <time>2018-07-28T06:38:19Z</time>
      </trkpt>
      <trkpt lat="36.6819458007812" lon="-4.99907302856445">
        <ele>1695.16772460938</ele>
        <time>2018-07-28T06:38:20Z</time>
      </trkpt>
      <trkpt lat="36.6819458007812" lon="-4.99907398223877">
        <ele>1695.17004394531</ele>
        <time>2018-07-28T06:38:21Z</time>
      </trkpt>
      <trkpt lat="36.6819458007812" lon="-4.99907779693604">
        <ele>1695.17919921875</ele>
        <time>2018-07-28T06:38:22Z</time>
      </trkpt>
      <trkpt lat="36.6819458007812" lon="-4.99908304214478">
        <ele>1695.19189453125</ele>
        <time>2018-07-28T06:38:23Z</time>
      </trkpt>
      <trkpt lat="36.6819496154785" lon="-4.99909019470215">
        <ele>1695.3759765625</ele>
        <time>2018-07-28T06:38:24Z</time>
      </trkpt>
      <trkpt lat="36.6819534301758" lon="-4.99909591674805">
        <ele>1695.55700683594</ele>
        <time>2018-07-28T06:38:25Z</time>
      </trkpt>
      <trkpt lat="36.6819534301758" lon="-4.9991021156311">
        <ele>1695.57238769531</ele>
        <time>2018-07-28T06:38:26Z</time>
      </trkpt>
      <trkpt lat="36.681957244873" lon="-4.99910688400269">
        <ele>1695.75158691406</ele>
        <time>2018-07-28T06:38:27Z</time>
      </trkpt>
      <trkpt lat="36.6819610595703" lon="-4.99911212921143">
        <ele>1695.93237304688</ele>
        <time>2018-07-28T06:38:28Z</time>
      </trkpt>
      <trkpt lat="36.6819610595703" lon="-4.99911594390869">
        <ele>1695.94201660156</ele>
        <time>2018-07-28T06:38:29Z</time>
      </trkpt>
      <trkpt lat="36.6819648742676" lon="-4.99911880493164">
        <ele>1696.11706542969</ele>
        <time>2018-07-28T06:38:30Z</time>
      </trkpt>
      <trkpt lat="36.6819648742676" lon="-4.99912214279175">
        <ele>1696.12573242188</ele>
        <time>2018-07-28T06:38:31Z</time>
      </trkpt>
      <trkpt lat="36.6819686889648" lon="-4.99912691116333">
        <ele>1696.30603027344</ele>
        <time>2018-07-28T06:38:32Z</time>
      </trkpt>
      <trkpt lat="36.6819686889648" lon="-4.99913311004639">
        <ele>1696.322265625</ele>
        <time>2018-07-28T06:38:33Z</time>
      </trkpt>
      <trkpt lat="36.6819686889648" lon="-4.99913787841797">
        <ele>1696.33471679688</ele>
        <time>2018-07-28T06:38:34Z</time>
      </trkpt>
      <trkpt lat="36.6819725036621" lon="-4.99914121627808">
        <ele>1696.51196289062</ele>
        <time>2018-07-28T06:38:35Z</time>
      </trkpt>
      <trkpt lat="36.6819725036621" lon="-4.99914312362671">
        <ele>1696.51696777344</ele>
        <time>2018-07-28T06:38:36Z</time>
      </trkpt>
      <trkpt lat="36.6819763183594" lon="-4.99914216995239">
        <ele>1696.68298339844</ele>
        <time>2018-07-28T06:38:37Z</time>
      </trkpt>
      <trkpt lat="36.6819763183594" lon="-4.99914121627808">
        <ele>1696.68041992188</ele>
        <time>2018-07-28T06:38:38Z</time>
      </trkpt>
      <trkpt lat="36.6819763183594" lon="-4.99914121627808">
        <ele>1696.68041992188</ele>
        <time>2018-07-28T06:38:39Z</time>
      </trkpt>
      <trkpt lat="36.6819763183594" lon="-4.99914312362671">
        <ele>1696.685546875</ele>
        <time>2018-07-28T06:38:40Z</time>
      </trkpt>
      <trkpt lat="36.6819801330566" lon="-4.99914598464966">
        <ele>1696.86193847656</ele>
        <time>2018-07-28T06:38:41Z</time>
      </trkpt>
      <trkpt lat="36.6819801330566" lon="-4.99914789199829">
        <ele>1696.86706542969</ele>
        <time>2018-07-28T06:38:42Z</time>
      </trkpt>
      <trkpt lat="36.6819839477539" lon="-4.99915218353272">
        <ele>1697.04760742188</ele>
        <time>2018-07-28T06:38:43Z</time>
      </trkpt>
      <trkpt lat="36.6819839477539" lon="-4.99915409088135">
        <ele>1697.05285644531</ele>
        <time>2018-07-28T06:38:44Z</time>
      </trkpt>
      <trkpt lat="36.6819915771484" lon="-4.9991569519043">
        <ele>1697.39880371094</ele>
        <time>2018-07-28T06:38:45Z</time>
      </trkpt>
      <trkpt lat="36.6819953918457" lon="-4.99915790557861">
        <ele>1697.57055664062</ele>
        <time>2018-07-28T06:38:46Z</time>
      </trkpt>
      <trkpt lat="36.681999206543" lon="-4.99915885925293">
        <ele>1697.74230957031</ele>
        <time>2018-07-28T06:38:47Z</time>
      </trkpt>
      <trkpt lat="36.681999206543" lon="-4.99915981292725">
        <ele>1697.7451171875</ele>
        <time>2018-07-28T06:38:48Z</time>
      </trkpt>
      <trkpt lat="36.6820068359375" lon="-4.99916219711304">
        <ele>1698.09033203125</ele>
        <time>2018-07-28T06:38:49Z</time>
      </trkpt>
      <trkpt lat="36.6820106506348" lon="-4.99916505813599">
        <ele>1698.26806640625</ele>
        <time>2018-07-28T06:38:50Z</time>
      </trkpt>
      <trkpt lat="36.682014465332" lon="-4.99916887283325">
        <ele>1698.4619140625</ele>
        <time>2018-07-28T06:38:51Z</time>
      </trkpt>
      <trkpt lat="36.682014465332" lon="-4.99917411804199">
        <ele>1698.50854492188</ele>
        <time>2018-07-28T06:38:52Z</time>
      </trkpt>
      <trkpt lat="36.682014465332" lon="-4.99917888641357">
        <ele>1698.55102539062</ele>
        <time>2018-07-28T06:38:53Z</time>
      </trkpt>
      <trkpt lat="36.6820182800293" lon="-4.99918413162231">
        <ele>1698.76721191406</ele>
        <time>2018-07-28T06:38:54Z</time>
      </trkpt>
      <trkpt lat="36.6820182800293" lon="-4.99918985366821">
        <ele>1698.81811523438</ele>
        <time>2018-07-28T06:38:55Z</time>
      </trkpt>
      <trkpt lat="36.6820220947266" lon="-4.99919605255127">
        <ele>1699.04284667969</ele>
        <time>2018-07-28T06:38:56Z</time>
      </trkpt>
      <trkpt lat="36.6820259094238" lon="-4.99920177459717">
        <ele>1699.26342773438</ele>
        <time>2018-07-28T06:38:57Z</time>
      </trkpt>
      <trkpt lat="36.6820297241211" lon="-4.99920797348022">
        <ele>1699.48828125</ele>
        <time>2018-07-28T06:38:58Z</time>
      </trkpt>
      <trkpt lat="36.6820335388184" lon="-4.9992151260376">
        <ele>1699.72180175781</ele>
        <time>2018-07-28T06:38:59Z</time>
      </trkpt>
      <trkpt lat="36.6820335388184" lon="-4.9992241859436">
        <ele>1699.80261230469</ele>
        <time>2018-07-28T06:39:00Z</time>
      </trkpt>
      <trkpt lat="36.6820335388184" lon="-4.99923276901245">
        <ele>1699.87927246094</ele>
        <time>2018-07-28T06:39:01Z</time>
      </trkpt>
      <trkpt lat="36.6820373535156" lon="-4.99923992156982">
        <ele>1700.11291503906</ele>
        <time>2018-07-28T06:39:02Z</time>
      </trkpt>
      <trkpt lat="36.6820373535156" lon="-4.99924516677856">
        <ele>1700.15979003906</ele>
        <time>2018-07-28T06:39:03Z</time>
      </trkpt>
      <trkpt lat="36.6820373535156" lon="-4.99924993515015">
        <ele>1700.20239257812</ele>
        <time>2018-07-28T06:39:04Z</time>
      </trkpt>
      <trkpt lat="36.6820335388184" lon="-4.99925899505615">
        <ele>1700.11340332031</ele>
        <time>2018-07-28T06:39:05Z</time>
      </trkpt>
      <trkpt lat="36.6820335388184" lon="-4.99926996231079">
        <ele>1700.21142578125</ele>
        <time>2018-07-28T06:39:06Z</time>
      </trkpt>
      <trkpt lat="36.6820335388184" lon="-4.99928188323975">
        <ele>1700.31787109375</ele>
        <time>2018-07-28T06:39:07Z</time>
      </trkpt>
      <trkpt lat="36.6820373535156" lon="-4.99929285049438">
        <ele>1700.58581542969</ele>
        <time>2018-07-28T06:39:08Z</time>
      </trkpt>
      <trkpt lat="36.6820373535156" lon="-4.99930381774902">
        <ele>1700.68371582031</ele>
        <time>2018-07-28T06:39:09Z</time>
      </trkpt>
      <trkpt lat="36.6820373535156" lon="-4.99931383132935">
        <ele>1700.77319335938</ele>
        <time>2018-07-28T06:39:10Z</time>
      </trkpt>
      <trkpt lat="36.6820411682129" lon="-4.99932193756104">
        <ele>1701.01586914062</ele>
        <time>2018-07-28T06:39:11Z</time>
      </trkpt>
      <trkpt lat="36.6820449829102" lon="-4.99933099746704">
        <ele>1701.26708984375</ele>
        <time>2018-07-28T06:39:12Z</time>
      </trkpt>
      <trkpt lat="36.6820487976074" lon="-4.99934101104736">
        <ele>1701.52709960938</ele>
        <time>2018-07-28T06:39:13Z</time>
      </trkpt>
      <trkpt lat="36.6820526123047" lon="-4.99935007095337">
        <ele>1701.77856445312</ele>
        <time>2018-07-28T06:39:14Z</time>
      </trkpt>
      <trkpt lat="36.6820526123047" lon="-4.99935817718506">
        <ele>1701.85107421875</ele>
        <time>2018-07-28T06:39:15Z</time>
      </trkpt>
      <trkpt lat="36.6820526123047" lon="-4.99936580657959">
        <ele>1701.91943359375</ele>
        <time>2018-07-28T06:39:16Z</time>
      </trkpt>
      <trkpt lat="36.6820526123047" lon="-4.9993748664856">
        <ele>1702.00061035156</ele>
        <time>2018-07-28T06:39:17Z</time>
      </trkpt>
      <trkpt lat="36.6820526123047" lon="-4.9993839263916">
        <ele>1702.08166503906</ele>
        <time>2018-07-28T06:39:18Z</time>
      </trkpt>
      <trkpt lat="36.6820526123047" lon="-4.99939298629761">
        <ele>1702.16284179688</ele>
        <time>2018-07-28T06:39:19Z</time>
      </trkpt>
      <trkpt lat="36.6820526123047" lon="-4.99940299987793">
        <ele>1702.25256347656</ele>
        <time>2018-07-28T06:39:20Z</time>
      </trkpt>
      <trkpt lat="36.6820526123047" lon="-4.99941110610962">
        <ele>1702.32507324219</ele>
        <time>2018-07-28T06:39:21Z</time>
      </trkpt>
      <trkpt lat="36.6820526123047" lon="-4.99941921234131">
        <ele>1702.39770507812</ele>
        <time>2018-07-28T06:39:22Z</time>
      </trkpt>
      <trkpt lat="36.6820487976074" lon="-4.99942588806152">
        <ele>1702.28674316406</ele>
        <time>2018-07-28T06:39:23Z</time>
      </trkpt>
      <trkpt lat="36.6820487976074" lon="-4.99943494796753">
        <ele>1702.36779785156</ele>
        <time>2018-07-28T06:39:24Z</time>
      </trkpt>
      <trkpt lat="36.6820487976074" lon="-4.99944305419922">
        <ele>1702.44030761719</ele>
        <time>2018-07-28T06:39:25Z</time>
      </trkpt>
      <trkpt lat="36.6820449829102" lon="-4.99945211410522">
        <ele>1702.35046386719</ele>
        <time>2018-07-28T06:39:26Z</time>
      </trkpt>
      <trkpt lat="36.6820449829102" lon="-4.99946117401123">
        <ele>1702.43151855469</ele>
        <time>2018-07-28T06:39:27Z</time>
      </trkpt>
      <trkpt lat="36.6820411682129" lon="-4.99947023391724">
        <ele>1702.34155273438</ele>
        <time>2018-07-28T06:39:28Z</time>
      </trkpt>
      <trkpt lat="36.6820411682129" lon="-4.99947786331177">
        <ele>1702.40979003906</ele>
        <time>2018-07-28T06:39:29Z</time>
      </trkpt>
      <trkpt lat="36.6820411682129" lon="-4.99948692321777">
        <ele>1702.49072265625</ele>
        <time>2018-07-28T06:39:30Z</time>
      </trkpt>
      <trkpt lat="36.6820411682129" lon="-4.99949789047241">
        <ele>1702.58874511719</ele>
        <time>2018-07-28T06:39:31Z</time>
      </trkpt>
      <trkpt lat="36.6820373535156" lon="-4.99950885772705">
        <ele>1702.51550292969</ele>
        <time>2018-07-28T06:39:32Z</time>
      </trkpt>
      <trkpt lat="36.6820373535156" lon="-4.99951887130737">
        <ele>1702.60498046875</ele>
        <time>2018-07-28T06:39:33Z</time>
      </trkpt>
      <trkpt lat="36.6820373535156" lon="-4.99952793121338">
        <ele>1702.68591308594</ele>
        <time>2018-07-28T06:39:34Z</time>
      </trkpt>
      <trkpt lat="36.6820373535156" lon="-4.99953889846802">
        <ele>1702.78393554688</ele>
        <time>2018-07-28T06:39:35Z</time>
      </trkpt>
      <trkpt lat="36.6820335388184" lon="-4.99954986572266">
        <ele>1702.71044921875</ele>
        <time>2018-07-28T06:39:36Z</time>
      </trkpt>
      <trkpt lat="36.6820335388184" lon="-4.9995608329773">
        <ele>1702.80834960938</ele>
        <time>2018-07-28T06:39:37Z</time>
      </trkpt>
      <trkpt lat="36.6820297241211" lon="-4.99957180023193">
        <ele>1702.73461914062</ele>
        <time>2018-07-28T06:39:38Z</time>
      </trkpt>
      <trkpt lat="36.6820297241211" lon="-4.99958276748657">
        <ele>1702.83251953125</ele>
        <time>2018-07-28T06:39:39Z</time>
      </trkpt>
      <trkpt lat="36.6820297241211" lon="-4.99959516525269">
        <ele>1702.94311523438</ele>
        <time>2018-07-28T06:39:40Z</time>
      </trkpt>
      <trkpt lat="36.6820259094238" lon="-4.99960708618164">
        <ele>1702.87768554688</ele>
        <time>2018-07-28T06:39:41Z</time>
      </trkpt>
      <trkpt lat="36.6820259094238" lon="-4.9996190071106">
        <ele>1702.98400878906</ele>
        <time>2018-07-28T06:39:42Z</time>
      </trkpt>
      <trkpt lat="36.6820259094238" lon="-4.99962902069092">
        <ele>1703.07336425781</ele>
        <time>2018-07-28T06:39:43Z</time>
      </trkpt>
      <trkpt lat="36.6820259094238" lon="-4.99963808059692">
        <ele>1703.15417480469</ele>
        <time>2018-07-28T06:39:44Z</time>
      </trkpt>
      <trkpt lat="36.6820259094238" lon="-4.99964618682861">
        <ele>1703.22644042969</ele>
        <time>2018-07-28T06:39:45Z</time>
      </trkpt>
      <trkpt lat="36.6820259094238" lon="-4.99965476989746">
        <ele>1703.30297851562</ele>
        <time>2018-07-28T06:39:46Z</time>
      </trkpt>
      <trkpt lat="36.6820259094238" lon="-4.99966478347778">
        <ele>1703.39221191406</ele>
        <time>2018-07-28T06:39:47Z</time>
      </trkpt>
      <trkpt lat="36.6820220947266" lon="-4.99967384338379">
        <ele>1703.30090332031</ele>
        <time>2018-07-28T06:39:48Z</time>
      </trkpt>
      <trkpt lat="36.6820182800293" lon="-4.99968194961548">
        <ele>1703.20092773438</ele>
        <time>2018-07-28T06:39:49Z</time>
      </trkpt>
      <trkpt lat="36.682014465332" lon="-4.99969005584717">
        <ele>1703.10083007812</ele>
        <time>2018-07-28T06:39:50Z</time>
      </trkpt>
      <trkpt lat="36.6820106506348" lon="-4.99969816207886">
        <ele>1703.00073242188</ele>
        <time>2018-07-28T06:39:51Z</time>
      </trkpt>
      <trkpt lat="36.6820068359375" lon="-4.99970817565918">
        <ele>1702.91748046875</ele>
        <time>2018-07-28T06:39:52Z</time>
      </trkpt>
      <trkpt lat="36.6820030212402" lon="-4.9997181892395">
        <ele>1702.83410644531</ele>
        <time>2018-07-28T06:39:53Z</time>
      </trkpt>
      <trkpt lat="36.681999206543" lon="-4.99973011016846">
        <ele>1702.76745605469</ele>
        <time>2018-07-28T06:39:54Z</time>
      </trkpt>
      <trkpt lat="36.681999206543" lon="-4.9997410774231">
        <ele>1702.86486816406</ele>
        <time>2018-07-28T06:39:55Z</time>
      </trkpt>
      <trkpt lat="36.681999206543" lon="-4.99975109100342">
        <ele>1702.95373535156</ele>
        <time>2018-07-28T06:39:56Z</time>
      </trkpt>
      <trkpt lat="36.6819953918457" lon="-4.99976110458374">
        <ele>1702.8701171875</ele>
        <time>2018-07-28T06:39:57Z</time>
      </trkpt>
      <trkpt lat="36.6819915771484" lon="-4.99977207183838">
        <ele>1702.79467773438</ele>
        <time>2018-07-28T06:39:58Z</time>
      </trkpt>
      <trkpt lat="36.6819915771484" lon="-4.9997820854187">
        <ele>1702.88342285156</ele>
        <time>2018-07-28T06:39:59Z</time>
      </trkpt>
      <trkpt lat="36.6819915771484" lon="-4.99979114532471">
        <ele>1702.9638671875</ele>
        <time>2018-07-28T06:40:00Z</time>
      </trkpt>
      <trkpt lat="36.6819915771484" lon="-4.99979877471924">
        <ele>1703.03149414062</ele>
        <time>2018-07-28T06:40:01Z</time>
      </trkpt>
      <trkpt lat="36.6819915771484" lon="-4.99980688095093">
        <ele>1703.10339355469</ele>
        <time>2018-07-28T06:40:02Z</time>
      </trkpt>
      <trkpt lat="36.6819915771484" lon="-4.99981689453125">
        <ele>1703.19213867188</ele>
        <time>2018-07-28T06:40:03Z</time>
      </trkpt>
      <trkpt lat="36.6819915771484" lon="-4.99982786178589">
        <ele>1703.28942871094</ele>
        <time>2018-07-28T06:40:04Z</time>
      </trkpt>
      <trkpt lat="36.6819915771484" lon="-4.99984121322632">
        <ele>1703.40783691406</ele>
        <time>2018-07-28T06:40:05Z</time>
      </trkpt>
      <trkpt lat="36.6819915771484" lon="-4.99985122680664">
        <ele>1703.49658203125</ele>
        <time>2018-07-28T06:40:06Z</time>
      </trkpt>
      <trkpt lat="36.6819915771484" lon="-4.9998631477356">
        <ele>1703.60229492188</ele>
        <time>2018-07-28T06:40:07Z</time>
      </trkpt>
      <trkpt lat="36.6819915771484" lon="-4.99987411499023">
        <ele>1703.69958496094</ele>
        <time>2018-07-28T06:40:08Z</time>
      </trkpt>
      <trkpt lat="36.6819915771484" lon="-4.99988222122192">
        <ele>1703.771484375</ele>
        <time>2018-07-28T06:40:09Z</time>
      </trkpt>
      <trkpt lat="36.6819915771484" lon="-4.99989080429077">
        <ele>1703.84753417969</ele>
        <time>2018-07-28T06:40:10Z</time>
      </trkpt>
      <trkpt lat="36.6819915771484" lon="-4.99989891052246">
        <ele>1703.91943359375</ele>
        <time>2018-07-28T06:40:11Z</time>
      </trkpt>
      <trkpt lat="36.6819915771484" lon="-4.99990797042847">
        <ele>1703.99975585938</ele>
        <time>2018-07-28T06:40:12Z</time>
      </trkpt>
      <trkpt lat="36.6819877624512" lon="-4.99991703033447">
        <ele>1703.90661621094</ele>
        <time>2018-07-28T06:40:13Z</time>
      </trkpt>
      <trkpt lat="36.6819877624512" lon="-4.99992609024048">
        <ele>1703.98693847656</ele>
        <time>2018-07-28T06:40:14Z</time>
      </trkpt>
      <trkpt lat="36.6819877624512" lon="-4.99993419647217">
        <ele>1704.05883789062</ele>
        <time>2018-07-28T06:40:15Z</time>
      </trkpt>
      <trkpt lat="36.6819877624512" lon="-4.99994277954102">
        <ele>1704.13488769531</ele>
        <time>2018-07-28T06:40:16Z</time>
      </trkpt>
      <trkpt lat="36.6819877624512" lon="-4.99995279312134">
        <ele>1704.2236328125</ele>
        <time>2018-07-28T06:40:17Z</time>
      </trkpt>
      <trkpt lat="36.6819877624512" lon="-4.99996185302734">
        <ele>1704.30395507812</ele>
        <time>2018-07-28T06:40:18Z</time>
      </trkpt>
      <trkpt lat="36.6819877624512" lon="-4.99997282028198">
        <ele>1704.40112304688</ele>
        <time>2018-07-28T06:40:19Z</time>
      </trkpt>
      <trkpt lat="36.6819877624512" lon="-4.99998188018799">
        <ele>1704.48132324219</ele>
        <time>2018-07-28T06:40:20Z</time>
      </trkpt>
      <trkpt lat="36.6819877624512" lon="-4.99999189376831">
        <ele>1704.57006835938</ele>
        <time>2018-07-28T06:40:21Z</time>
      </trkpt>
      <trkpt lat="36.6819877624512" lon="-5.00000190734863">
        <ele>1704.63854980469</ele>
        <time>2018-07-28T06:40:22Z</time>
      </trkpt>
      <trkpt lat="36.6819877624512" lon="-5.00001192092896">
        <ele>1704.62097167969</ele>
        <time>2018-07-28T06:40:23Z</time>
      </trkpt>
      <trkpt lat="36.6819877624512" lon="-5.00002002716064">
        <ele>1704.60668945312</ele>
        <time>2018-07-28T06:40:24Z</time>
      </trkpt>
      <trkpt lat="36.6819877624512" lon="-5.00002908706665">
        <ele>1704.59069824219</ele>
        <time>2018-07-28T06:40:25Z</time>
      </trkpt>
      <trkpt lat="36.6819877624512" lon="-5.00003480911255">
        <ele>1704.58068847656</ele>
        <time>2018-07-28T06:40:26Z</time>
      </trkpt>
      <trkpt lat="36.6819877624512" lon="-5.00004100799561">
        <ele>1704.56970214844</ele>
        <time>2018-07-28T06:40:27Z</time>
      </trkpt>
      <trkpt lat="36.6819915771484" lon="-5.00004577636719">
        <ele>1704.73303222656</ele>
        <time>2018-07-28T06:40:28Z</time>
      </trkpt>
      <trkpt lat="36.6819915771484" lon="-5.00005102157593">
        <ele>1704.72351074219</ele>
        <time>2018-07-28T06:40:29Z</time>
      </trkpt>
      <trkpt lat="36.6819915771484" lon="-5.00005483627319">
        <ele>1704.71667480469</ele>
        <time>2018-07-28T06:40:30Z</time>
      </trkpt>
      <trkpt lat="36.6819915771484" lon="-5.00005912780762">
        <ele>1704.70886230469</ele>
        <time>2018-07-28T06:40:31Z</time>
      </trkpt>
      <trkpt lat="36.6819877624512" lon="-5.00006294250488">
        <ele>1704.53112792969</ele>
        <time>2018-07-28T06:40:32Z</time>
      </trkpt>
      <trkpt lat="36.6819915771484" lon="-5.00006914138794">
        <ele>1704.69067382812</ele>
        <time>2018-07-28T06:40:33Z</time>
      </trkpt>
      <trkpt lat="36.6819915771484" lon="-5.00007677078247">
        <ele>1704.67687988281</ele>
        <time>2018-07-28T06:40:34Z</time>
      </trkpt>
      <trkpt lat="36.6819915771484" lon="-5.00008583068848">
        <ele>1704.66052246094</ele>
        <time>2018-07-28T06:40:35Z</time>
      </trkpt>
      <trkpt lat="36.6819877624512" lon="-5.00009489059448">
        <ele>1704.47485351562</ele>
        <time>2018-07-28T06:40:36Z</time>
      </trkpt>
      <trkpt lat="36.6819839477539" lon="-5.00010108947754">
        <ele>1704.294921875</ele>
        <time>2018-07-28T06:40:37Z</time>
      </trkpt>
      <trkpt lat="36.6819801330566" lon="-5.00010776519775">
        <ele>1704.11486816406</ele>
        <time>2018-07-28T06:40:38Z</time>
      </trkpt>
      <trkpt lat="36.6819801330566" lon="-5.00011587142944">
        <ele>1704.10144042969</ele>
        <time>2018-07-28T06:40:39Z</time>
      </trkpt>
      <trkpt lat="36.6819763183594" lon="-5.00012397766113">
        <ele>1703.92016601562</ele>
        <time>2018-07-28T06:40:40Z</time>
      </trkpt>
      <trkpt lat="36.6819725036621" lon="-5.00013303756714">
        <ele>1703.73815917969</ele>
        <time>2018-07-28T06:40:41Z</time>
      </trkpt>
      <trkpt lat="36.6819725036621" lon="-5.00014019012451">
        <ele>1703.72692871094</ele>
        <time>2018-07-28T06:40:42Z</time>
      </trkpt>
      <trkpt lat="36.6819725036621" lon="-5.00014877319336">
        <ele>1703.71350097656</ele>
        <time>2018-07-28T06:40:43Z</time>
      </trkpt>
      <trkpt lat="36.6819686889648" lon="-5.00015592575073">
        <ele>1703.5361328125</ele>
        <time>2018-07-28T06:40:44Z</time>
      </trkpt>
      <trkpt lat="36.6819686889648" lon="-5.00016307830811">
        <ele>1703.52526855469</ele>
        <time>2018-07-28T06:40:45Z</time>
      </trkpt>
      <trkpt lat="36.6819686889648" lon="-5.000168800354">
        <ele>1703.5166015625</ele>
        <time>2018-07-28T06:40:46Z</time>
      </trkpt>
      <trkpt lat="36.6819686889648" lon="-5.00017595291138">
        <ele>1703.50573730469</ele>
        <time>2018-07-28T06:40:47Z</time>
      </trkpt>
      <trkpt lat="36.6819686889648" lon="-5.00018310546875">
        <ele>1703.49499511719</ele>
        <time>2018-07-28T06:40:48Z</time>
      </trkpt>
      <trkpt lat="36.6819686889648" lon="-5.00018882751465">
        <ele>1703.486328125</ele>
        <time>2018-07-28T06:40:49Z</time>
      </trkpt>
      <trkpt lat="36.6819648742676" lon="-5.00019598007202">
        <ele>1703.31115722656</ele>
        <time>2018-07-28T06:40:50Z</time>
      </trkpt>
      <trkpt lat="36.6819648742676" lon="-5.00020313262939">
        <ele>1703.30078125</ele>
        <time>2018-07-28T06:40:51Z</time>
      </trkpt>
      <trkpt lat="36.6819648742676" lon="-5.0002121925354">
        <ele>1703.28747558594</ele>
        <time>2018-07-28T06:40:52Z</time>
      </trkpt>
      <trkpt lat="36.6819648742676" lon="-5.00021982192993">
        <ele>1703.27624511719</ele>
        <time>2018-07-28T06:40:53Z</time>
      </trkpt>
      <trkpt lat="36.6819648742676" lon="-5.0002269744873">
        <ele>1703.26574707031</ele>
        <time>2018-07-28T06:40:54Z</time>
      </trkpt>
      <trkpt lat="36.6819648742676" lon="-5.00023412704468">
        <ele>1703.25537109375</ele>
        <time>2018-07-28T06:40:55Z</time>
      </trkpt>
      <trkpt lat="36.6819648742676" lon="-5.00023984909058">
        <ele>1703.24694824219</ele>
        <time>2018-07-28T06:40:56Z</time>
      </trkpt>
      <trkpt lat="36.6819648742676" lon="-5.00024890899658">
        <ele>1703.23364257812</ele>
        <time>2018-07-28T06:40:57Z</time>
      </trkpt>
      <trkpt lat="36.6819648742676" lon="-5.00025701522827">
        <ele>1703.22180175781</ele>
        <time>2018-07-28T06:40:58Z</time>
      </trkpt>
      <trkpt lat="36.6819610595703" lon="-5.00026607513428">
        <ele>1703.04772949219</ele>
        <time>2018-07-28T06:40:59Z</time>
      </trkpt>
      <trkpt lat="36.6819610595703" lon="-5.00027418136597">
        <ele>1703.03625488281</ele>
        <time>2018-07-28T06:41:00Z</time>
      </trkpt>
      <trkpt lat="36.681957244873" lon="-5.00028276443481">
        <ele>1702.86413574219</ele>
        <time>2018-07-28T06:41:01Z</time>
      </trkpt>
      <trkpt lat="36.681957244873" lon="-5.00029277801514">
        <ele>1702.85046386719</ele>
        <time>2018-07-28T06:41:02Z</time>
      </trkpt>
      <trkpt lat="36.681957244873" lon="-5.00030422210693">
        <ele>1702.83483886719</ele>
        <time>2018-07-28T06:41:03Z</time>
      </trkpt>
      <trkpt lat="36.681957244873" lon="-5.00031423568726">
        <ele>1702.82116699219</ele>
        <time>2018-07-28T06:41:04Z</time>
      </trkpt>
      <trkpt lat="36.6819610595703" lon="-5.00032186508179">
        <ele>1702.96875</ele>
        <time>2018-07-28T06:41:05Z</time>
      </trkpt>
      <trkpt lat="36.6819610595703" lon="-5.00032997131348">
        <ele>1702.95727539062</ele>
        <time>2018-07-28T06:41:06Z</time>
      </trkpt>
      <trkpt lat="36.6819610595703" lon="-5.00033712387085">
        <ele>1702.94714355469</ele>
        <time>2018-07-28T06:41:07Z</time>
      </trkpt>
      <trkpt lat="36.6819610595703" lon="-5.00034379959106">
        <ele>1702.93774414062</ele>
        <time>2018-07-28T06:41:08Z</time>
      </trkpt>
      <trkpt lat="36.6819610595703" lon="-5.00035095214844">
        <ele>1702.92761230469</ele>
        <time>2018-07-28T06:41:09Z</time>
      </trkpt>
      <trkpt lat="36.6819610595703" lon="-5.00035905838013">
        <ele>1702.91613769531</ele>
        <time>2018-07-28T06:41:10Z</time>
      </trkpt>
      <trkpt lat="36.6819610595703" lon="-5.00036716461182">
        <ele>1702.90466308594</ele>
        <time>2018-07-28T06:41:11Z</time>
      </trkpt>
      <trkpt lat="36.6819648742676" lon="-5.00037479400635">
        <ele>1703.04931640625</ele>
        <time>2018-07-28T06:41:12Z</time>
      </trkpt>
      <trkpt lat="36.6819686889648" lon="-5.00038194656372">
        <ele>1703.19384765625</ele>
        <time>2018-07-28T06:41:13Z</time>
      </trkpt>
      <trkpt lat="36.6819686889648" lon="-5.00038909912109">
        <ele>1703.18298339844</ele>
        <time>2018-07-28T06:41:14Z</time>
      </trkpt>
      <trkpt lat="36.6819725036621" lon="-5.00039577484131">
        <ele>1703.32727050781</ele>
        <time>2018-07-28T06:41:15Z</time>
      </trkpt>
      <trkpt lat="36.6819725036621" lon="-5.000403881073">
        <ele>1703.31469726562</ele>
        <time>2018-07-28T06:41:16Z</time>
      </trkpt>
      <trkpt lat="36.6819763183594" lon="-5.00041198730469">
        <ele>1703.45556640625</ele>
        <time>2018-07-28T06:41:17Z</time>
      </trkpt>
      <trkpt lat="36.6819763183594" lon="-5.00041913986206">
        <ele>1703.44396972656</ele>
        <time>2018-07-28T06:41:18Z</time>
      </trkpt>
      <trkpt lat="36.6819801330566" lon="-5.00042581558228">
        <ele>1703.58618164062</ele>
        <time>2018-07-28T06:41:19Z</time>
      </trkpt>
      <trkpt lat="36.6819839477539" lon="-5.00043296813965">
        <ele>1703.72680664062</ele>
        <time>2018-07-28T06:41:20Z</time>
      </trkpt>
      <trkpt lat="36.6819877624512" lon="-5.00044012069702">
        <ele>1703.86669921875</ele>
        <time>2018-07-28T06:41:21Z</time>
      </trkpt>
      <trkpt lat="36.6819915771484" lon="-5.00044679641724">
        <ele>1704.0068359375</ele>
        <time>2018-07-28T06:41:22Z</time>
      </trkpt>
      <trkpt lat="36.6819953918457" lon="-5.00045585632324">
        <ele>1704.14184570312</ele>
        <time>2018-07-28T06:41:23Z</time>
      </trkpt>
      <trkpt lat="36.681999206543" lon="-5.00046396255493">
        <ele>1704.27783203125</ele>
        <time>2018-07-28T06:41:24Z</time>
      </trkpt>
      <trkpt lat="36.6820030212402" lon="-5.00047302246094">
        <ele>1704.41101074219</ele>
        <time>2018-07-28T06:41:25Z</time>
      </trkpt>
      <trkpt lat="36.6820030212402" lon="-5.00048017501831">
        <ele>1704.39697265625</ele>
        <time>2018-07-28T06:41:26Z</time>
      </trkpt>
      <trkpt lat="36.6820030212402" lon="-5.00048685073853">
        <ele>1704.38391113281</ele>
        <time>2018-07-28T06:41:27Z</time>
      </trkpt>
      <trkpt lat="36.6820030212402" lon="-5.00049591064453">
        <ele>1704.3662109375</ele>
        <time>2018-07-28T06:41:28Z</time>
      </trkpt>
      <trkpt lat="36.6820030212402" lon="-5.00050592422485">
        <ele>1704.34655761719</ele>
        <time>2018-07-28T06:41:29Z</time>
      </trkpt>
      <trkpt lat="36.6820030212402" lon="-5.00051593780518">
        <ele>1704.32702636719</ele>
        <time>2018-07-28T06:41:30Z</time>
      </trkpt>
      <trkpt lat="36.6820068359375" lon="-5.00052499771118">
        <ele>1704.45715332031</ele>
        <time>2018-07-28T06:41:31Z</time>
      </trkpt>
      <trkpt lat="36.6820068359375" lon="-5.00053310394287">
        <ele>1704.44091796875</ele>
        <time>2018-07-28T06:41:32Z</time>
      </trkpt>
      <trkpt lat="36.6820068359375" lon="-5.00053977966309">
        <ele>1704.42749023438</ele>
        <time>2018-07-28T06:41:33Z</time>
      </trkpt>
      <trkpt lat="36.6820068359375" lon="-5.00054788589478">
        <ele>1704.41125488281</ele>
        <time>2018-07-28T06:41:34Z</time>
      </trkpt>
      <trkpt lat="36.6820068359375" lon="-5.0005578994751">
        <ele>1704.39111328125</ele>
        <time>2018-07-28T06:41:35Z</time>
      </trkpt>
      <trkpt lat="36.6820068359375" lon="-5.00056886672974">
        <ele>1704.369140625</ele>
        <time>2018-07-28T06:41:36Z</time>
      </trkpt>
      <trkpt lat="36.6820106506348" lon="-5.00057888031006">
        <ele>1704.49426269531</ele>
        <time>2018-07-28T06:41:37Z</time>
      </trkpt>
      <trkpt lat="36.6820106506348" lon="-5.00058698654175">
        <ele>1704.47766113281</ele>
        <time>2018-07-28T06:41:38Z</time>
      </trkpt>
      <trkpt lat="36.682014465332" lon="-5.0005931854248">
        <ele>1704.60949707031</ele>
        <time>2018-07-28T06:41:39Z</time>
      </trkpt>
      <trkpt lat="36.682014465332" lon="-5.00059509277344">
        <ele>1704.60546875</ele>
        <time>2018-07-28T06:41:40Z</time>
      </trkpt>
      <trkpt lat="36.682014465332" lon="-5.00059604644775">
        <ele>1704.603515625</ele>
        <time>2018-07-28T06:41:41Z</time>
      </trkpt>
      <trkpt lat="36.682014465332" lon="-5.00059604644775">
        <ele>1704.603515625</ele>
        <time>2018-07-28T06:41:42Z</time>
      </trkpt>
      <trkpt lat="36.682014465332" lon="-5.00059700012207">
        <ele>1704.60144042969</ele>
        <time>2018-07-28T06:41:43Z</time>
      </trkpt>
      <trkpt lat="36.6820182800293" lon="-5.00059986114502">
        <ele>1704.73974609375</ele>
        <time>2018-07-28T06:41:44Z</time>
      </trkpt>
      <trkpt lat="36.6820182800293" lon="-5.00060606002808">
        <ele>1704.72631835938</ele>
        <time>2018-07-28T06:41:45Z</time>
      </trkpt>
      <trkpt lat="36.6820220947266" lon="-5.00061511993408">
        <ele>1704.85034179688</ele>
        <time>2018-07-28T06:41:46Z</time>
      </trkpt>
      <trkpt lat="36.6820220947266" lon="-5.00062322616577">
        <ele>1704.83251953125</ele>
        <time>2018-07-28T06:41:47Z</time>
      </trkpt>
      <trkpt lat="36.6820259094238" lon="-5.00063180923462">
        <ele>1704.95629882812</ele>
        <time>2018-07-28T06:41:48Z</time>
      </trkpt>
      <trkpt lat="36.6820259094238" lon="-5.00063991546631">
        <ele>1704.93798828125</ele>
        <time>2018-07-28T06:41:49Z</time>
      </trkpt>
      <trkpt lat="36.6820297241211" lon="-5.00064992904663">
        <ele>1705.05712890625</ele>
        <time>2018-07-28T06:41:50Z</time>
      </trkpt>
      <trkpt lat="36.6820297241211" lon="-5.00065898895264">
        <ele>1705.03625488281</ele>
        <time>2018-07-28T06:41:51Z</time>
      </trkpt>
      <trkpt lat="36.6820335388184" lon="-5.00066709518433">
        <ele>1705.15856933594</ele>
        <time>2018-07-28T06:41:52Z</time>
      </trkpt>
      <trkpt lat="36.6820335388184" lon="-5.00067520141602">
        <ele>1705.13952636719</ele>
        <time>2018-07-28T06:41:53Z</time>
      </trkpt>
      <trkpt lat="36.6820335388184" lon="-5.00068187713623">
        <ele>1705.12377929688</ele>
        <time>2018-07-28T06:41:54Z</time>
      </trkpt>
      <trkpt lat="36.6820335388184" lon="-5.00068616867065">
        <ele>1705.11364746094</ele>
        <time>2018-07-28T06:41:55Z</time>
      </trkpt>
      <trkpt lat="36.6820335388184" lon="-5.00068998336792">
        <ele>1705.10473632812</ele>
        <time>2018-07-28T06:41:56Z</time>
      </trkpt>
      <trkpt lat="36.6820335388184" lon="-5.00069618225098">
        <ele>1705.09008789062</ele>
        <time>2018-07-28T06:41:57Z</time>
      </trkpt>
      <trkpt lat="36.6820335388184" lon="-5.00070381164551">
        <ele>1705.07214355469</ele>
        <time>2018-07-28T06:41:58Z</time>
      </trkpt>
      <trkpt lat="36.6820335388184" lon="-5.00071382522583">
        <ele>1705.04858398438</ele>
        <time>2018-07-28T06:41:59Z</time>
      </trkpt>
      <trkpt lat="36.6820335388184" lon="-5.00072193145752">
        <ele>1705.02941894531</ele>
        <time>2018-07-28T06:42:00Z</time>
      </trkpt>
      <trkpt lat="36.6820335388184" lon="-5.00073099136353">
        <ele>1705.00817871094</ele>
        <time>2018-07-28T06:42:01Z</time>
      </trkpt>
      <trkpt lat="36.6820373535156" lon="-5.00074005126953">
        <ele>1705.12414550781</ele>
        <time>2018-07-28T06:42:02Z</time>
      </trkpt>
      <trkpt lat="36.6820373535156" lon="-5.00074815750122">
        <ele>1705.10461425781</ele>
        <time>2018-07-28T06:42:03Z</time>
      </trkpt>
      <trkpt lat="36.6820373535156" lon="-5.0007529258728">
        <ele>1705.09326171875</ele>
        <time>2018-07-28T06:42:04Z</time>
      </trkpt>
      <trkpt lat="36.6820373535156" lon="-5.00076103210449">
        <ele>1705.07373046875</ele>
        <time>2018-07-28T06:42:05Z</time>
      </trkpt>
      <trkpt lat="36.6820411682129" lon="-5.00077199935913">
        <ele>1705.18310546875</ele>
        <time>2018-07-28T06:42:06Z</time>
      </trkpt>
      <trkpt lat="36.6820411682129" lon="-5.00078678131104">
        <ele>1705.14685058594</ele>
        <time>2018-07-28T06:42:07Z</time>
      </trkpt>
      <trkpt lat="36.6820411682129" lon="-5.0008020401001">
        <ele>1705.109375</ele>
        <time>2018-07-28T06:42:08Z</time>
      </trkpt>
      <trkpt lat="36.6820411682129" lon="-5.000816822052">
        <ele>1705.07312011719</ele>
        <time>2018-07-28T06:42:09Z</time>
      </trkpt>
      <trkpt lat="36.6820411682129" lon="-5.00083112716675">
        <ele>1705.0380859375</ele>
        <time>2018-07-28T06:42:10Z</time>
      </trkpt>
      <trkpt lat="36.6820449829102" lon="-5.00084400177002">
        <ele>1705.07934570312</ele>
        <time>2018-07-28T06:42:11Z</time>
      </trkpt>
      <trkpt lat="36.6820487976074" lon="-5.00085783004761">
        <ele>1705.09838867188</ele>
        <time>2018-07-28T06:42:12Z</time>
      </trkpt>
      <trkpt lat="36.6820487976074" lon="-5.00087213516235">
        <ele>1704.98168945312</ele>
        <time>2018-07-28T06:42:13Z</time>
      </trkpt>
      <trkpt lat="36.6820526123047" lon="-5.00088500976562">
        <ele>1705.00463867188</ele>
        <time>2018-07-28T06:42:14Z</time>
      </trkpt>
      <trkpt lat="36.682056427002" lon="-5.00089693069458">
        <ele>1705.033203125</ele>
        <time>2018-07-28T06:42:15Z</time>
      </trkpt>
      <trkpt lat="36.6820602416992" lon="-5.00090885162354">
        <ele>1705.05944824219</ele>
        <time>2018-07-28T06:42:16Z</time>
      </trkpt>
      <trkpt lat="36.6820602416992" lon="-5.00091981887817">
        <ele>1704.96691894531</ele>
        <time>2018-07-28T06:42:17Z</time>
      </trkpt>
      <trkpt lat="36.6820602416992" lon="-5.00093221664429">
        <ele>1704.8623046875</ele>
        <time>2018-07-28T06:42:18Z</time>
      </trkpt>
      <trkpt lat="36.6820640563965" lon="-5.00094413757324">
        <ele>1704.88415527344</ele>
        <time>2018-07-28T06:42:19Z</time>
      </trkpt>
      <trkpt lat="36.6820678710938" lon="-5.00095701217651">
        <ele>1704.89562988281</ele>
        <time>2018-07-28T06:42:20Z</time>
      </trkpt>
      <trkpt lat="36.6820678710938" lon="-5.00096893310547">
        <ele>1704.79284667969</ele>
        <time>2018-07-28T06:42:21Z</time>
      </trkpt>
      <trkpt lat="36.682071685791" lon="-5.00098085403442">
        <ele>1704.80908203125</ele>
        <time>2018-07-28T06:42:22Z</time>
      </trkpt>
      <trkpt lat="36.6820755004883" lon="-5.00099277496338">
        <ele>1704.82299804688</ele>
        <time>2018-07-28T06:42:23Z</time>
      </trkpt>
      <trkpt lat="36.6820755004883" lon="-5.00100421905518">
        <ele>1704.72216796875</ele>
        <time>2018-07-28T06:42:24Z</time>
      </trkpt>
      <trkpt lat="36.6820793151856" lon="-5.00101613998413">
        <ele>1704.73291015625</ele>
        <time>2018-07-28T06:42:25Z</time>
      </trkpt>
      <trkpt lat="36.6820793151856" lon="-5.00102615356445">
        <ele>1704.64379882812</ele>
        <time>2018-07-28T06:42:26Z</time>
      </trkpt>
      <trkpt lat="36.6820831298828" lon="-5.00103712081909">
        <ele>1704.65979003906</ele>
        <time>2018-07-28T06:42:27Z</time>
      </trkpt>
      <trkpt lat="36.6820831298828" lon="-5.0010461807251">
        <ele>1704.57836914062</ele>
        <time>2018-07-28T06:42:28Z</time>
      </trkpt>
      <trkpt lat="36.6820869445801" lon="-5.00105619430542">
        <ele>1704.60021972656</ele>
        <time>2018-07-28T06:42:29Z</time>
      </trkpt>
      <trkpt lat="36.6820945739746" lon="-5.00106477737427">
        <ele>1704.74450683594</ele>
        <time>2018-07-28T06:42:30Z</time>
      </trkpt>
      <trkpt lat="36.6821022033691" lon="-5.00107383728027">
        <ele>1704.88110351562</ele>
        <time>2018-07-28T06:42:31Z</time>
      </trkpt>
      <trkpt lat="36.6821060180664" lon="-5.00108194351196">
        <ele>1704.91381835938</ele>
        <time>2018-07-28T06:42:32Z</time>
      </trkpt>
      <trkpt lat="36.6821136474609" lon="-5.00109004974365">
        <ele>1705.05395507812</ele>
        <time>2018-07-28T06:42:33Z</time>
      </trkpt>
      <trkpt lat="36.6821174621582" lon="-5.00110006332397">
        <ele>1705.06420898438</ele>
        <time>2018-07-28T06:42:34Z</time>
      </trkpt>
      <trkpt lat="36.6821212768555" lon="-5.00111103057861">
        <ele>1705.06323242188</ele>
        <time>2018-07-28T06:42:35Z</time>
      </trkpt>
      <trkpt lat="36.6821212768555" lon="-5.00112390518188">
        <ele>1704.93542480469</ele>
        <time>2018-07-28T06:42:36Z</time>
      </trkpt>
      <trkpt lat="36.68212890625" lon="-5.00113391876221">
        <ele>1705.04528808594</ele>
        <time>2018-07-28T06:42:37Z</time>
      </trkpt>
      <trkpt lat="36.6821327209473" lon="-5.00114393234253">
        <ele>1705.04772949219</ele>
        <time>2018-07-28T06:42:38Z</time>
      </trkpt>
      <trkpt lat="36.6821365356445" lon="-5.00115299224854">
        <ele>1705.05822753906</ele>
        <time>2018-07-28T06:42:39Z</time>
      </trkpt>
      <trkpt lat="36.6821441650391" lon="-5.00115919113159">
        <ele>1705.19897460938</ele>
        <time>2018-07-28T06:42:40Z</time>
      </trkpt>
      <trkpt lat="36.6821517944336" lon="-5.00116491317749">
        <ele>1705.34252929688</ele>
        <time>2018-07-28T06:42:41Z</time>
      </trkpt>
      <trkpt lat="36.6821556091309" lon="-5.00117111206055">
        <ele>1705.37756347656</ele>
        <time>2018-07-28T06:42:42Z</time>
      </trkpt>
      <trkpt lat="36.6821632385254" lon="-5.00117588043213">
        <ele>1705.52770996094</ele>
        <time>2018-07-28T06:42:43Z</time>
      </trkpt>
      <trkpt lat="36.6821708679199" lon="-5.00118112564087">
        <ele>1705.67077636719</ele>
        <time>2018-07-28T06:42:44Z</time>
      </trkpt>
      <trkpt lat="36.6821784973144" lon="-5.00118494033814">
        <ele>1705.828125</ele>
        <time>2018-07-28T06:42:45Z</time>
      </trkpt>
      <trkpt lat="36.6821823120117" lon="-5.00118923187256">
        <ele>1705.87902832031</ele>
        <time>2018-07-28T06:42:46Z</time>
      </trkpt>
      <trkpt lat="36.6821899414062" lon="-5.00119209289551">
        <ele>1706.04479980469</ele>
        <time>2018-07-28T06:42:47Z</time>
      </trkpt>
      <trkpt lat="36.6821937561035" lon="-5.00119686126709">
        <ele>1706.08825683594</ele>
        <time>2018-07-28T06:42:48Z</time>
      </trkpt>
      <trkpt lat="36.6821975708008" lon="-5.00120210647583">
        <ele>1706.12524414062</ele>
        <time>2018-07-28T06:42:49Z</time>
      </trkpt>
      <trkpt lat="36.682201385498" lon="-5.00120782852173">
        <ele>1706.15551757812</ele>
        <time>2018-07-28T06:42:50Z</time>
      </trkpt>
      <trkpt lat="36.6822052001953" lon="-5.00121593475342">
        <ele>1706.15612792969</ele>
        <time>2018-07-28T06:42:51Z</time>
      </trkpt>
      <trkpt lat="36.6822128295898" lon="-5.00122594833374">
        <ele>1706.22827148438</ele>
        <time>2018-07-28T06:42:52Z</time>
      </trkpt>
      <trkpt lat="36.6822166442871" lon="-5.00123596191406">
        <ele>1706.20166015625</ele>
        <time>2018-07-28T06:42:53Z</time>
      </trkpt>
      <trkpt lat="36.6822204589844" lon="-5.0012469291687">
        <ele>1706.16125488281</ele>
        <time>2018-07-28T06:42:54Z</time>
      </trkpt>
      <trkpt lat="36.6822242736816" lon="-5.00125694274902">
        <ele>1706.13073730469</ele>
        <time>2018-07-28T06:42:55Z</time>
      </trkpt>
      <trkpt lat="36.6822280883789" lon="-5.00126695632935">
        <ele>1706.09826660156</ele>
        <time>2018-07-28T06:42:56Z</time>
      </trkpt>
      <trkpt lat="36.6822357177734" lon="-5.00127696990967">
        <ele>1706.1552734375</ele>
        <time>2018-07-28T06:42:57Z</time>
      </trkpt>
      <trkpt lat="36.6822395324707" lon="-5.00128602981567">
        <ele>1706.13049316406</ele>
        <time>2018-07-28T06:42:58Z</time>
      </trkpt>
      <trkpt lat="36.6822471618652" lon="-5.00129508972168">
        <ele>1706.19348144531</ele>
        <time>2018-07-28T06:42:59Z</time>
      </trkpt>
      <trkpt lat="36.6822509765625" lon="-5.00130414962769">
        <ele>1706.16442871094</ele>
        <time>2018-07-28T06:43:00Z</time>
      </trkpt>
      <trkpt lat="36.682258605957" lon="-5.00131177902222">
        <ele>1706.24060058594</ele>
        <time>2018-07-28T06:43:01Z</time>
      </trkpt>
      <trkpt lat="36.6822624206543" lon="-5.00131988525391">
        <ele>1706.22021484375</ele>
        <time>2018-07-28T06:43:02Z</time>
      </trkpt>
      <trkpt lat="36.6822700500488" lon="-5.00132608413696">
        <ele>1706.31066894531</ele>
        <time>2018-07-28T06:43:03Z</time>
      </trkpt>
      <trkpt lat="36.6822814941406" lon="-5.00133085250854">
        <ele>1706.5048828125</ele>
        <time>2018-07-28T06:43:04Z</time>
      </trkpt>
      <trkpt lat="36.6822891235352" lon="-5.00133419036865">
        <ele>1706.63061523438</ele>
        <time>2018-07-28T06:43:05Z</time>
      </trkpt>
      <trkpt lat="36.6822967529297" lon="-5.00133419036865">
        <ele>1706.80261230469</ele>
        <time>2018-07-28T06:43:06Z</time>
      </trkpt>
      <trkpt lat="36.6823043823242" lon="-5.00133609771728">
        <ele>1706.94702148438</ele>
        <time>2018-07-28T06:43:07Z</time>
      </trkpt>
      <trkpt lat="36.682315826416" lon="-5.00133991241455">
        <ele>1707.1484375</ele>
        <time>2018-07-28T06:43:08Z</time>
      </trkpt>
      <trkpt lat="36.6823234558106" lon="-5.00134515762329">
        <ele>1707.2412109375</ele>
        <time>2018-07-28T06:43:09Z</time>
      </trkpt>
      <trkpt lat="36.6823310852051" lon="-5.00135087966919">
        <ele>1707.32495117188</ele>
        <time>2018-07-28T06:43:10Z</time>
      </trkpt>
      <trkpt lat="36.6823387145996" lon="-5.00135612487793">
        <ele>1707.41381835938</ele>
        <time>2018-07-28T06:43:11Z</time>
      </trkpt>
      <trkpt lat="36.6823463439941" lon="-5.0013599395752">
        <ele>1707.52270507812</ele>
        <time>2018-07-28T06:43:12Z</time>
      </trkpt>
      <trkpt lat="36.6823539733887" lon="-5.00136518478394">
        <ele>1707.60791015625</ele>
        <time>2018-07-28T06:43:13Z</time>
      </trkpt>
      <trkpt lat="36.6823577880859" lon="-5.00136995315552">
        <ele>1707.61608886719</ele>
        <time>2018-07-28T06:43:14Z</time>
      </trkpt>
      <trkpt lat="36.6823616027832" lon="-5.00137376785278">
        <ele>1707.63842773438</ele>
        <time>2018-07-28T06:43:15Z</time>
      </trkpt>
      <trkpt lat="36.6823654174805" lon="-5.00137805938721">
        <ele>1707.65246582031</ele>
        <time>2018-07-28T06:43:16Z</time>
      </trkpt>
      <trkpt lat="36.682373046875" lon="-5.00138092041016">
        <ele>1707.77014160156</ele>
        <time>2018-07-28T06:43:17Z</time>
      </trkpt>
      <trkpt lat="36.6823768615723" lon="-5.00138378143311">
        <ele>1707.80541992188</ele>
        <time>2018-07-28T06:43:18Z</time>
      </trkpt>
      <trkpt lat="36.6823806762695" lon="-5.00138711929321">
        <ele>1707.83251953125</ele>
        <time>2018-07-28T06:43:19Z</time>
      </trkpt>
      <trkpt lat="36.6823844909668" lon="-5.00139093399048">
        <ele>1707.85107421875</ele>
        <time>2018-07-28T06:43:20Z</time>
      </trkpt>
      <trkpt lat="36.6823883056641" lon="-5.0013952255249">
        <ele>1707.86108398438</ele>
        <time>2018-07-28T06:43:21Z</time>
      </trkpt>
      <trkpt lat="36.6823921203613" lon="-5.00139999389648">
        <ele>1707.86242675781</ele>
        <time>2018-07-28T06:43:22Z</time>
      </trkpt>
      <trkpt lat="36.6823921203613" lon="-5.00140476226807">
        <ele>1707.78344726562</ele>
        <time>2018-07-28T06:43:23Z</time>
      </trkpt>
      <trkpt lat="36.6823959350586" lon="-5.00141000747681">
        <ele>1707.77551269531</ele>
        <time>2018-07-28T06:43:24Z</time>
      </trkpt>
      <trkpt lat="36.6823959350586" lon="-5.00141382217407">
        <ele>1707.7119140625</ele>
        <time>2018-07-28T06:43:25Z</time>
      </trkpt>
      <trkpt lat="36.6823997497559" lon="-5.00142002105713">
        <ele>1707.68664550781</ele>
        <time>2018-07-28T06:43:26Z</time>
      </trkpt>
      <trkpt lat="36.6824073791504" lon="-5.00142621994019">
        <ele>1707.73767089844</ele>
        <time>2018-07-28T06:43:27Z</time>
      </trkpt>
      <trkpt lat="36.6824111938477" lon="-5.00143003463745">
        <ele>1707.75012207031</ele>
        <time>2018-07-28T06:43:28Z</time>
      </trkpt>
      <trkpt lat="36.6824150085449" lon="-5.00143194198608">
        <ele>1707.79443359375</ele>
        <time>2018-07-28T06:43:29Z</time>
      </trkpt>
      <trkpt lat="36.6824188232422" lon="-5.0014328956604">
        <ele>1707.85485839844</ele>
        <time>2018-07-28T06:43:30Z</time>
      </trkpt>
      <trkpt lat="36.6824188232422" lon="-5.00143480300903">
        <ele>1707.82202148438</ele>
        <time>2018-07-28T06:43:31Z</time>
      </trkpt>
      <trkpt lat="36.6824226379394" lon="-5.00143814086914">
        <ele>1707.84094238281</ele>
        <time>2018-07-28T06:43:32Z</time>
      </trkpt>
      <trkpt lat="36.6824264526367" lon="-5.00144100189209">
        <ele>1707.86743164062</ele>
        <time>2018-07-28T06:43:33Z</time>
      </trkpt>
      <trkpt lat="36.6824378967285" lon="-5.00144481658936">
        <ele>1708.02795410156</ele>
        <time>2018-07-28T06:43:34Z</time>
      </trkpt>
      <trkpt lat="36.6824417114258" lon="-5.00144815444946">
        <ele>1708.04431152344</ele>
        <time>2018-07-28T06:43:35Z</time>
      </trkpt>
      <trkpt lat="36.6824493408203" lon="-5.0014500617981">
        <ele>1708.16064453125</ele>
        <time>2018-07-28T06:43:36Z</time>
      </trkpt>
      <trkpt lat="36.6824607849121" lon="-5.00145101547241">
        <ele>1708.36877441406</ele>
        <time>2018-07-28T06:43:37Z</time>
      </trkpt>
      <trkpt lat="36.6824684143066" lon="-5.00145196914673">
        <ele>1708.50134277344</ele>
        <time>2018-07-28T06:43:38Z</time>
      </trkpt>
      <trkpt lat="36.6824760437012" lon="-5.00145196914673">
        <ele>1708.6513671875</ele>
        <time>2018-07-28T06:43:39Z</time>
      </trkpt>
      <trkpt lat="36.6824836730957" lon="-5.00145387649536">
        <ele>1708.76538085938</ele>
        <time>2018-07-28T06:43:40Z</time>
      </trkpt>
      <trkpt lat="36.6824951171875" lon="-5.00145578384399">
        <ele>1708.95349121094</ele>
        <time>2018-07-28T06:43:41Z</time>
      </trkpt>
      <trkpt lat="36.6825065612793" lon="-5.00145721435547">
        <ele>1708.97827148438</ele>
        <time>2018-07-28T06:43:42Z</time>
      </trkpt>
      <trkpt lat="36.6825180053711" lon="-5.00145816802978">
        <ele>1708.88439941406</ele>
        <time>2018-07-28T06:43:43Z</time>
      </trkpt>
      <trkpt lat="36.6825294494629" lon="-5.00145483016968">
        <ele>1708.87377929688</ele>
        <time>2018-07-28T06:43:44Z</time>
      </trkpt>
      <trkpt lat="36.682544708252" lon="-5.00145101547241">
        <ele>1708.84826660156</ele>
        <time>2018-07-28T06:43:45Z</time>
      </trkpt>
      <trkpt lat="36.6825523376465" lon="-5.00144386291504">
        <ele>1708.93896484375</ele>
        <time>2018-07-28T06:43:46Z</time>
      </trkpt>
      <trkpt lat="36.6825637817383" lon="-5.00143814086914">
        <ele>1708.97790527344</ele>
        <time>2018-07-28T06:43:47Z</time>
      </trkpt>
      <trkpt lat="36.6825714111328" lon="-5.00143194198608">
        <ele>1709.05163574219</ele>
        <time>2018-07-28T06:43:48Z</time>
      </trkpt>
      <trkpt lat="36.6825828552246" lon="-5.00142288208008">
        <ele>1709.1591796875</ele>
        <time>2018-07-28T06:43:49Z</time>
      </trkpt>
      <trkpt lat="36.6825904846191" lon="-5.00141477584839">
        <ele>1709.27319335938</ele>
        <time>2018-07-28T06:43:50Z</time>
      </trkpt>
      <trkpt lat="36.6825981140137" lon="-5.00140619277954">
        <ele>1709.39770507812</ele>
        <time>2018-07-28T06:43:51Z</time>
      </trkpt>
      <trkpt lat="36.6826095581055" lon="-5.00139808654785">
        <ele>1709.49072265625</ele>
        <time>2018-07-28T06:43:52Z</time>
      </trkpt>
      <trkpt lat="36.6826171875" lon="-5.00138998031616">
        <ele>1709.60815429688</ele>
        <time>2018-07-28T06:43:53Z</time>
      </trkpt>
      <trkpt lat="36.6826248168945" lon="-5.00138187408447">
        <ele>1709.72668457031</ele>
        <time>2018-07-28T06:43:54Z</time>
      </trkpt>
      <trkpt lat="36.6826286315918" lon="-5.00137281417847">
        <ele>1709.88806152344</ele>
        <time>2018-07-28T06:43:55Z</time>
      </trkpt>
      <trkpt lat="36.6826362609863" lon="-5.00136518478394">
        <ele>1709.99877929688</ele>
        <time>2018-07-28T06:43:56Z</time>
      </trkpt>
      <trkpt lat="36.6826477050781" lon="-5.00135707855225">
        <ele>1710.09851074219</ele>
        <time>2018-07-28T06:43:57Z</time>
      </trkpt>
      <trkpt lat="36.6826553344727" lon="-5.00135278701782">
        <ele>1710.14294433594</ele>
        <time>2018-07-28T06:43:58Z</time>
      </trkpt>
      <trkpt lat="36.6826629638672" lon="-5.00134992599487">
        <ele>1710.15844726562</ele>
        <time>2018-07-28T06:43:59Z</time>
      </trkpt>
      <trkpt lat="36.6826705932617" lon="-5.00134611129761">
        <ele>1710.19421386719</ele>
        <time>2018-07-28T06:44:00Z</time>
      </trkpt>
      <trkpt lat="36.6826782226562" lon="-5.00134181976318">
        <ele>1710.240234375</ele>
        <time>2018-07-28T06:44:01Z</time>
      </trkpt>
      <trkpt lat="36.6826858520508" lon="-5.0013370513916">
        <ele>1710.29675292969</ele>
        <time>2018-07-28T06:44:02Z</time>
      </trkpt>
      <trkpt lat="36.6826934814453" lon="-5.00133323669434">
        <ele>1710.333984375</ele>
        <time>2018-07-28T06:44:03Z</time>
      </trkpt>
      <trkpt lat="36.6827011108398" lon="-5.00132894515991">
        <ele>1710.38171386719</ele>
        <time>2018-07-28T06:44:04Z</time>
      </trkpt>
      <trkpt lat="36.6827087402344" lon="-5.00132608413696">
        <ele>1710.40002441406</ele>
        <time>2018-07-28T06:44:05Z</time>
      </trkpt>
      <trkpt lat="36.6827163696289" lon="-5.00132417678833">
        <ele>1710.39855957031</ele>
        <time>2018-07-28T06:44:06Z</time>
      </trkpt>
      <trkpt lat="36.6827239990234" lon="-5.00132322311401">
        <ele>1710.37719726562</ele>
        <time>2018-07-28T06:44:07Z</time>
      </trkpt>
      <trkpt lat="36.682731628418" lon="-5.00132417678833">
        <ele>1710.31555175781</ele>
        <time>2018-07-28T06:44:08Z</time>
      </trkpt>
      <trkpt lat="36.6827392578125" lon="-5.0013279914856">
        <ele>1710.19287109375</ele>
        <time>2018-07-28T06:44:09Z</time>
      </trkpt>
      <trkpt lat="36.682746887207" lon="-5.00133323669434">
        <ele>1710.03918457031</ele>
        <time>2018-07-28T06:44:10Z</time>
      </trkpt>
      <trkpt lat="36.6827507019043" lon="-5.00133991241455">
        <ele>1709.87561035156</ele>
        <time>2018-07-28T06:44:11Z</time>
      </trkpt>
      <trkpt lat="36.6827583312988" lon="-5.00134801864624">
        <ele>1709.65930175781</ele>
        <time>2018-07-28T06:44:12Z</time>
      </trkpt>
      <trkpt lat="36.6827659606934" lon="-5.00135517120361">
        <ele>1709.46240234375</ele>
        <time>2018-07-28T06:44:13Z</time>
      </trkpt>
      <trkpt lat="36.6827735900879" lon="-5.00135898590088">
        <ele>1709.33666992188</ele>
        <time>2018-07-28T06:44:14Z</time>
      </trkpt>
      <trkpt lat="36.6827774047852" lon="-5.00136089324951">
        <ele>1709.27355957031</ele>
        <time>2018-07-28T06:44:15Z</time>
      </trkpt>
      <trkpt lat="36.6827850341797" lon="-5.00136280059814">
        <ele>1709.18823242188</ele>
        <time>2018-07-28T06:44:16Z</time>
      </trkpt>
      <trkpt lat="36.6827926635742" lon="-5.00136709213257">
        <ele>1709.05102539062</ele>
        <time>2018-07-28T06:44:17Z</time>
      </trkpt>
      <trkpt lat="36.6828002929688" lon="-5.00136995315552">
        <ele>1708.94421386719</ele>
        <time>2018-07-28T06:44:18Z</time>
      </trkpt>
      <trkpt lat="36.6828117370606" lon="-5.00137186050415">
        <ele>1708.83569335938</ele>
        <time>2018-07-28T06:44:19Z</time>
      </trkpt>
      <trkpt lat="36.6828193664551" lon="-5.00137090682983">
        <ele>1708.81201171875</ele>
        <time>2018-07-28T06:44:20Z</time>
      </trkpt>
      <trkpt lat="36.6828269958496" lon="-5.00136804580688">
        <ele>1708.83044433594</ele>
        <time>2018-07-28T06:44:21Z</time>
      </trkpt>
      <trkpt lat="36.6828308105469" lon="-5.00136423110962">
        <ele>1708.89233398438</ele>
        <time>2018-07-28T06:44:22Z</time>
      </trkpt>
      <trkpt lat="36.6828346252441" lon="-5.00136089324951">
        <ele>1708.94409179688</ele>
        <time>2018-07-28T06:44:23Z</time>
      </trkpt>
      <trkpt lat="36.6828384399414" lon="-5.00135898590088">
        <ele>1708.96423339844</ele>
        <time>2018-07-28T06:44:24Z</time>
      </trkpt>
      <trkpt lat="36.6828460693359" lon="-5.00135898590088">
        <ele>1708.92041015625</ele>
        <time>2018-07-28T06:44:25Z</time>
      </trkpt>
      <trkpt lat="36.6828498840332" lon="-5.0013599395752">
        <ele>1708.87731933594</ele>
        <time>2018-07-28T06:44:26Z</time>
      </trkpt>
      <trkpt lat="36.6828575134277" lon="-5.00136089324951">
        <ele>1708.81225585938</ele>
        <time>2018-07-28T06:44:27Z</time>
      </trkpt>
      <trkpt lat="36.682861328125" lon="-5.00135898590088">
        <ele>1708.83288574219</ele>
        <time>2018-07-28T06:44:28Z</time>
      </trkpt>
      <trkpt lat="36.6828651428223" lon="-5.00135612487793">
        <ele>1708.87487792969</ele>
        <time>2018-07-28T06:44:29Z</time>
      </trkpt>
      <trkpt lat="36.6828689575195" lon="-5.0013542175293">
        <ele>1708.89575195312</ele>
        <time>2018-07-28T06:44:30Z</time>
      </trkpt>
      <trkpt lat="36.6828765869141" lon="-5.0013542175293">
        <ele>1708.85229492188</ele>
        <time>2018-07-28T06:44:31Z</time>
      </trkpt>
      <trkpt lat="36.6828804016113" lon="-5.00135898590088">
        <ele>1708.72338867188</ele>
        <time>2018-07-28T06:44:32Z</time>
      </trkpt>
      <trkpt lat="36.6828842163086" lon="-5.00136613845825">
        <ele>1708.54040527344</ele>
        <time>2018-07-28T06:44:33Z</time>
      </trkpt>
      <trkpt lat="36.6828880310059" lon="-5.00137186050415">
        <ele>1708.38916015625</ele>
        <time>2018-07-28T06:44:34Z</time>
      </trkpt>
      <trkpt lat="36.6828956604004" lon="-5.00137281417847">
        <ele>1708.32299804688</ele>
        <time>2018-07-28T06:44:35Z</time>
      </trkpt>
      <trkpt lat="36.6829032897949" lon="-5.00137090682983">
        <ele>1708.32153320312</ele>
        <time>2018-07-28T06:44:36Z</time>
      </trkpt>
      <trkpt lat="36.6829147338867" lon="-5.00136613845825">
        <ele>1708.36328125</ele>
        <time>2018-07-28T06:44:37Z</time>
      </trkpt>
      <trkpt lat="36.6829223632812" lon="-5.00135898590088">
        <ele>1708.482421875</ele>
        <time>2018-07-28T06:44:38Z</time>
      </trkpt>
      <trkpt lat="36.6829261779785" lon="-5.00135278701782">
        <ele>1708.60229492188</ele>
        <time>2018-07-28T06:44:39Z</time>
      </trkpt>
      <trkpt lat="36.682933807373" lon="-5.00134992599487">
        <ele>1708.62463378906</ele>
        <time>2018-07-28T06:44:40Z</time>
      </trkpt>
      <trkpt lat="36.6829414367676" lon="-5.00135087966919">
        <ele>1708.55944824219</ele>
        <time>2018-07-28T06:44:41Z</time>
      </trkpt>
      <trkpt lat="36.6829490661621" lon="-5.0013542175293">
        <ele>1708.43920898438</ele>
        <time>2018-07-28T06:44:42Z</time>
      </trkpt>
      <trkpt lat="36.6829566955566" lon="-5.00135517120361">
        <ele>1708.37353515625</ele>
        <time>2018-07-28T06:44:43Z</time>
      </trkpt>
      <trkpt lat="36.6829643249512" lon="-5.00135517120361">
        <ele>1708.330078125</ele>
        <time>2018-07-28T06:44:44Z</time>
      </trkpt>
      <trkpt lat="36.682975769043" lon="-5.0013542175293">
        <ele>1708.28698730469</ele>
        <time>2018-07-28T06:44:45Z</time>
      </trkpt>
      <trkpt lat="36.6829833984375" lon="-5.00135517120361">
        <ele>1708.22119140625</ele>
        <time>2018-07-28T06:44:46Z</time>
      </trkpt>
      <trkpt lat="36.6829872131348" lon="-5.00135612487793">
        <ele>1708.17700195312</ele>
        <time>2018-07-28T06:44:47Z</time>
      </trkpt>
      <trkpt lat="36.6829986572266" lon="-5.00135803222656">
        <ele>1708.06677246094</ele>
        <time>2018-07-28T06:44:48Z</time>
      </trkpt>
      <trkpt lat="36.6830062866211" lon="-5.0013599395752">
        <ele>1707.97802734375</ele>
        <time>2018-07-28T06:44:49Z</time>
      </trkpt>
      <trkpt lat="36.6830139160156" lon="-5.00136184692383">
        <ele>1707.88916015625</ele>
        <time>2018-07-28T06:44:50Z</time>
      </trkpt>
      <trkpt lat="36.6830253601074" lon="-5.0013599395752">
        <ele>1707.86840820312</ele>
        <time>2018-07-28T06:44:51Z</time>
      </trkpt>
      <trkpt lat="36.6830368041992" lon="-5.00135707855225">
        <ele>1707.87084960938</ele>
        <time>2018-07-28T06:44:52Z</time>
      </trkpt>
      <trkpt lat="36.6830444335938" lon="-5.00135278701782">
        <ele>1707.9296875</ele>
        <time>2018-07-28T06:44:53Z</time>
      </trkpt>
      <trkpt lat="36.6830520629883" lon="-5.00135087966919">
        <ele>1707.93200683594</ele>
        <time>2018-07-28T06:44:54Z</time>
      </trkpt>
      <trkpt lat="36.6830596923828" lon="-5.00134897232056">
        <ele>1707.9345703125</ele>
        <time>2018-07-28T06:44:55Z</time>
      </trkpt>
      <trkpt lat="36.6830635070801" lon="-5.00134706497192">
        <ele>1707.958984375</ele>
        <time>2018-07-28T06:44:56Z</time>
      </trkpt>
      <trkpt lat="36.6830673217773" lon="-5.00134611129761">
        <ele>1707.96044921875</ele>
        <time>2018-07-28T06:44:57Z</time>
      </trkpt>
      <trkpt lat="36.6830749511719" lon="-5.00134420394897">
        <ele>1707.96350097656</ele>
        <time>2018-07-28T06:44:58Z</time>
      </trkpt>
      <trkpt lat="36.6830787658691" lon="-5.00134420394897">
        <ele>1707.94213867188</ele>
        <time>2018-07-28T06:44:59Z</time>
      </trkpt>
      <trkpt lat="36.6830863952637" lon="-5.00134515762329">
        <ele>1707.87622070312</ele>
        <time>2018-07-28T06:45:00Z</time>
      </trkpt>
      <trkpt lat="36.6830902099609" lon="-5.00134801864624">
        <ele>1707.78515625</ele>
        <time>2018-07-28T06:45:01Z</time>
      </trkpt>
      <trkpt lat="36.6831016540527" lon="-5.00134897232056">
        <ele>1707.697265625</ele>
        <time>2018-07-28T06:45:02Z</time>
      </trkpt>
      <trkpt lat="36.68310546875" lon="-5.00135087966919">
        <ele>1707.62915039062</ele>
        <time>2018-07-28T06:45:03Z</time>
      </trkpt>
      <trkpt lat="36.6831169128418" lon="-5.0013542175293">
        <ele>1707.48229980469</ele>
        <time>2018-07-28T06:45:04Z</time>
      </trkpt>
      <trkpt lat="36.6831245422363" lon="-5.00135707855225">
        <ele>1707.36853027344</ele>
        <time>2018-07-28T06:45:05Z</time>
      </trkpt>
      <trkpt lat="36.6831321716309" lon="-5.00135612487793">
        <ele>1707.34838867188</ele>
        <time>2018-07-28T06:45:06Z</time>
      </trkpt>
      <trkpt lat="36.6831398010254" lon="-5.00135278701782">
        <ele>1707.38720703125</ele>
        <time>2018-07-28T06:45:07Z</time>
      </trkpt>
      <trkpt lat="36.6831436157227" lon="-5.00134992599487">
        <ele>1707.43640136719</ele>
        <time>2018-07-28T06:45:08Z</time>
      </trkpt>
      <trkpt lat="36.6831512451172" lon="-5.00134515762329">
        <ele>1707.51159667969</ele>
        <time>2018-07-28T06:45:09Z</time>
      </trkpt>
      <trkpt lat="36.6831550598144" lon="-5.00133895874023">
        <ele>1707.64416503906</ele>
        <time>2018-07-28T06:45:10Z</time>
      </trkpt>
      <trkpt lat="36.683162689209" lon="-5.00133514404297">
        <ele>1707.69677734375</ele>
        <time>2018-07-28T06:45:11Z</time>
      </trkpt>
      <trkpt lat="36.6831703186035" lon="-5.00133085250854">
        <ele>1707.76184082031</ele>
        <time>2018-07-28T06:45:12Z</time>
      </trkpt>
      <trkpt lat="36.683177947998" lon="-5.00132703781128">
        <ele>1707.8154296875</ele>
        <time>2018-07-28T06:45:13Z</time>
      </trkpt>
      <trkpt lat="36.6831893920898" lon="-5.00132322311401">
        <ele>1707.84887695312</ele>
        <time>2018-07-28T06:45:14Z</time>
      </trkpt>
      <trkpt lat="36.6832008361816" lon="-5.00131797790527">
        <ele>1707.91918945312</ele>
        <time>2018-07-28T06:45:15Z</time>
      </trkpt>
      <trkpt lat="36.6832084655762" lon="-5.00131320953369">
        <ele>1707.99877929688</ele>
        <time>2018-07-28T06:45:16Z</time>
      </trkpt>
      <trkpt lat="36.6832122802734" lon="-5.00130701065064">
        <ele>1708.13562011719</ele>
        <time>2018-07-28T06:45:17Z</time>
      </trkpt>
      <trkpt lat="36.6832160949707" lon="-5.00130081176758">
        <ele>1708.27282714844</ele>
        <time>2018-07-28T06:45:18Z</time>
      </trkpt>
      <trkpt lat="36.6832237243652" lon="-5.00129413604736">
        <ele>1708.40270996094</ele>
        <time>2018-07-28T06:45:19Z</time>
      </trkpt>
      <trkpt lat="36.6832275390625" lon="-5.00128793716431">
        <ele>1708.54089355469</ele>
        <time>2018-07-28T06:45:20Z</time>
      </trkpt>
      <trkpt lat="36.683235168457" lon="-5.00128316879272">
        <ele>1708.62365722656</ele>
        <time>2018-07-28T06:45:21Z</time>
      </trkpt>
      <trkpt lat="36.6832427978516" lon="-5.0012788772583">
        <ele>1708.69482421875</ele>
        <time>2018-07-28T06:45:22Z</time>
      </trkpt>
      <trkpt lat="36.6832504272461" lon="-5.00127410888672">
        <ele>1708.77868652344</ele>
        <time>2018-07-28T06:45:23Z</time>
      </trkpt>
      <trkpt lat="36.6832542419434" lon="-5.00126791000366">
        <ele>1708.91906738281</ele>
        <time>2018-07-28T06:45:24Z</time>
      </trkpt>
      <trkpt lat="36.6832580566406" lon="-5.0012640953064">
        <ele>1708.99841308594</ele>
        <time>2018-07-28T06:45:25Z</time>
      </trkpt>
      <trkpt lat="36.6832618713379" lon="-5.00125789642334">
        <ele>1709.13940429688</ele>
        <time>2018-07-28T06:45:26Z</time>
      </trkpt>
      <trkpt lat="36.6832695007324" lon="-5.00125312805176">
        <ele>1709.2255859375</ele>
        <time>2018-07-28T06:45:27Z</time>
      </trkpt>
      <trkpt lat="36.6832733154297" lon="-5.00124788284302">
        <ele>1709.34289550781</ele>
        <time>2018-07-28T06:45:28Z</time>
      </trkpt>
      <trkpt lat="36.683277130127" lon="-5.00124311447144">
        <ele>1709.4482421875</ele>
        <time>2018-07-28T06:45:29Z</time>
      </trkpt>
      <trkpt lat="36.6832809448242" lon="-5.00123691558838">
        <ele>1709.59094238281</ele>
        <time>2018-07-28T06:45:30Z</time>
      </trkpt>
      <trkpt lat="36.6832847595215" lon="-5.00122880935669">
        <ele>1709.78369140625</ele>
        <time>2018-07-28T06:45:31Z</time>
      </trkpt>
      <trkpt lat="36.6832885742188" lon="-5.00122117996216">
        <ele>1709.96459960938</ele>
        <time>2018-07-28T06:45:32Z</time>
      </trkpt>
      <trkpt lat="36.683292388916" lon="-5.00121212005615">
        <ele>1710.18310546875</ele>
        <time>2018-07-28T06:45:33Z</time>
      </trkpt>
      <trkpt lat="36.6832962036133" lon="-5.00120496749878">
        <ele>1710.35266113281</ele>
        <time>2018-07-28T06:45:34Z</time>
      </trkpt>
      <trkpt lat="36.6833038330078" lon="-5.00119781494141">
        <ele>1710.50598144531</ele>
        <time>2018-07-28T06:45:35Z</time>
      </trkpt>
      <trkpt lat="36.6833076477051" lon="-5.00119209289551">
        <ele>1710.63916015625</ele>
        <time>2018-07-28T06:45:36Z</time>
      </trkpt>
      <trkpt lat="36.6833152770996" lon="-5.00118684768677">
        <ele>1710.74401855469</ele>
        <time>2018-07-28T06:45:37Z</time>
      </trkpt>
      <trkpt lat="36.6833229064941" lon="-5.0011830329895">
        <ele>1710.81188964844</ele>
        <time>2018-07-28T06:45:38Z</time>
      </trkpt>
      <trkpt lat="36.6833305358887" lon="-5.00117921829224">
        <ele>1710.88037109375</ele>
        <time>2018-07-28T06:45:39Z</time>
      </trkpt>
      <trkpt lat="36.6833381652832" lon="-5.00117301940918">
        <ele>1710.96875</ele>
        <time>2018-07-28T06:45:40Z</time>
      </trkpt>
      <trkpt lat="36.6833419799805" lon="-5.00116586685181">
        <ele>1711.10693359375</ele>
        <time>2018-07-28T06:45:41Z</time>
      </trkpt>
      <trkpt lat="36.683349609375" lon="-5.00115919113159">
        <ele>1711.181640625</ele>
        <time>2018-07-28T06:45:42Z</time>
      </trkpt>
      <trkpt lat="36.6833572387695" lon="-5.0011510848999">
        <ele>1711.29309082031</ele>
        <time>2018-07-28T06:45:43Z</time>
      </trkpt>
      <trkpt lat="36.6833648681641" lon="-5.00114488601685">
        <ele>1711.35375976562</ele>
        <time>2018-07-28T06:45:44Z</time>
      </trkpt>
      <trkpt lat="36.6833724975586" lon="-5.00114107131958">
        <ele>1711.3515625</ele>
        <time>2018-07-28T06:45:45Z</time>
      </trkpt>
      <trkpt lat="36.6833801269531" lon="-5.00113821029663">
        <ele>1711.32397460938</ele>
        <time>2018-07-28T06:45:46Z</time>
      </trkpt>
      <trkpt lat="36.6833877563477" lon="-5.00113821029663">
        <ele>1711.2216796875</ele>
        <time>2018-07-28T06:45:47Z</time>
      </trkpt>
      <trkpt lat="36.6833953857422" lon="-5.00113677978516">
        <ele>1711.15661621094</ele>
        <time>2018-07-28T06:45:48Z</time>
      </trkpt>
      <trkpt lat="36.683406829834" lon="-5.00113296508789">
        <ele>1711.10168457031</ele>
        <time>2018-07-28T06:45:49Z</time>
      </trkpt>
      <trkpt lat="36.6834144592285" lon="-5.00112581253052">
        <ele>1711.18383789062</ele>
        <time>2018-07-28T06:45:50Z</time>
      </trkpt>
      <trkpt lat="36.6834182739258" lon="-5.0011191368103">
        <ele>1711.30456542969</ele>
        <time>2018-07-28T06:45:51Z</time>
      </trkpt>
      <trkpt lat="36.683422088623" lon="-5.0011157989502">
        <ele>1711.3388671875</ele>
        <time>2018-07-28T06:45:52Z</time>
      </trkpt>
      <trkpt lat="36.6834335327148" lon="-5.00111293792725">
        <ele>1711.25708007812</ele>
        <time>2018-07-28T06:45:53Z</time>
      </trkpt>
      <trkpt lat="36.6834411621094" lon="-5.00110816955566">
        <ele>1711.27551269531</ele>
        <time>2018-07-28T06:45:54Z</time>
      </trkpt>
      <trkpt lat="36.6834526062012" lon="-5.00110292434692">
        <ele>1711.25366210938</ele>
        <time>2018-07-28T06:45:55Z</time>
      </trkpt>
      <trkpt lat="36.683464050293" lon="-5.00110006332397">
        <ele>1711.17016601562</ele>
        <time>2018-07-28T06:45:56Z</time>
      </trkpt>
      <trkpt lat="36.6834754943848" lon="-5.00110101699829">
        <ele>1710.98937988281</ele>
        <time>2018-07-28T06:45:57Z</time>
      </trkpt>
      <trkpt lat="36.6834831237793" lon="-5.00110292434692">
        <ele>1710.83679199219</ele>
        <time>2018-07-28T06:45:58Z</time>
      </trkpt>
      <trkpt lat="36.6834945678711" lon="-5.00110483169556">
        <ele>1710.63232421875</ele>
        <time>2018-07-28T06:45:59Z</time>
      </trkpt>
      <trkpt lat="36.6835021972656" lon="-5.00110483169556">
        <ele>1710.52819824219</ele>
        <time>2018-07-28T06:46:00Z</time>
      </trkpt>
      <trkpt lat="36.6835136413574" lon="-5.00110483169556">
        <ele>1710.3720703125</ele>
        <time>2018-07-28T06:46:01Z</time>
      </trkpt>
      <trkpt lat="36.683521270752" lon="-5.00110721588135">
        <ele>1710.20825195312</ele>
        <time>2018-07-28T06:46:02Z</time>
      </trkpt>
      <trkpt lat="36.6835327148438" lon="-5.00110816955566">
        <ele>1710.02856445312</ele>
        <time>2018-07-28T06:46:03Z</time>
      </trkpt>
      <trkpt lat="36.6835403442383" lon="-5.00110816955566">
        <ele>1709.92456054688</ele>
        <time>2018-07-28T06:46:04Z</time>
      </trkpt>
      <trkpt lat="36.6835479736328" lon="-5.00110483169556">
        <ele>1709.90368652344</ele>
        <time>2018-07-28T06:46:05Z</time>
      </trkpt>
      <trkpt lat="36.6835556030273" lon="-5.00110006332397">
        <ele>1709.91772460938</ele>
        <time>2018-07-28T06:46:06Z</time>
      </trkpt>
      <trkpt lat="36.6835594177246" lon="-5.00109481811523">
        <ele>1709.99548339844</ele>
        <time>2018-07-28T06:46:07Z</time>
      </trkpt>
      <trkpt lat="36.6835670471191" lon="-5.00108909606934">
        <ele>1710.03234863281</ele>
        <time>2018-07-28T06:46:08Z</time>
      </trkpt>
      <trkpt lat="36.6835746765137" lon="-5.0010838508606">
        <ele>1710.056640625</ele>
        <time>2018-07-28T06:46:09Z</time>
      </trkpt>
      <trkpt lat="36.6835823059082" lon="-5.00108003616333">
        <ele>1710.04528808594</ele>
        <time>2018-07-28T06:46:10Z</time>
      </trkpt>
      <trkpt lat="36.6835899353027" lon="-5.0010781288147">
        <ele>1709.98669433594</ele>
        <time>2018-07-28T06:46:11Z</time>
      </trkpt>
      <trkpt lat="36.6835975646973" lon="-5.00107717514038">
        <ele>1709.90441894531</ele>
        <time>2018-07-28T06:46:12Z</time>
      </trkpt>
      <trkpt lat="36.6836051940918" lon="-5.00107479095459">
        <ele>1709.85717773438</ele>
        <time>2018-07-28T06:46:13Z</time>
      </trkpt>
      <trkpt lat="36.6836090087891" lon="-5.00107288360596">
        <ele>1709.85083007812</ele>
        <time>2018-07-28T06:46:14Z</time>
      </trkpt>
      <trkpt lat="36.6836128234863" lon="-5.00107097625732">
        <ele>1709.84436035156</ele>
        <time>2018-07-28T06:46:15Z</time>
      </trkpt>
      <trkpt lat="36.6836166381836" lon="-5.00106716156006">
        <ele>1709.88439941406</ele>
        <time>2018-07-28T06:46:16Z</time>
      </trkpt>
      <trkpt lat="36.6836242675781" lon="-5.001060962677">
        <ele>1709.92883300781</ele>
        <time>2018-07-28T06:46:17Z</time>
      </trkpt>
      <trkpt lat="36.6836318969727" lon="-5.00105476379394">
        <ele>1709.97265625</ele>
        <time>2018-07-28T06:46:18Z</time>
      </trkpt>
      <trkpt lat="36.6836395263672" lon="-5.00105094909668">
        <ele>1709.95812988281</ele>
        <time>2018-07-28T06:46:19Z</time>
      </trkpt>
      <trkpt lat="36.6836471557617" lon="-5.00104713439941">
        <ele>1709.94311523438</ele>
        <time>2018-07-28T06:46:20Z</time>
      </trkpt>
      <trkpt lat="36.6836547851562" lon="-5.00104188919067">
        <ele>1709.96215820312</ele>
        <time>2018-07-28T06:46:21Z</time>
      </trkpt>
      <trkpt lat="36.683666229248" lon="-5.00103712081909">
        <ele>1709.91528320312</ele>
        <time>2018-07-28T06:46:22Z</time>
      </trkpt>
      <trkpt lat="36.6836776733398" lon="-5.00102996826172">
        <ele>1709.92468261719</ele>
        <time>2018-07-28T06:46:23Z</time>
      </trkpt>
      <trkpt lat="36.6836853027344" lon="-5.00102090835571">
        <ele>1710.03259277344</ele>
        <time>2018-07-28T06:46:24Z</time>
      </trkpt>
      <trkpt lat="36.6836929321289" lon="-5.00101089477539">
        <ele>1710.16235351562</ele>
        <time>2018-07-28T06:46:25Z</time>
      </trkpt>
      <trkpt lat="36.6837005615234" lon="-5.00100183486938">
        <ele>1710.26831054688</ele>
        <time>2018-07-28T06:46:26Z</time>
      </trkpt>
      <trkpt lat="36.6837043762207" lon="-5.00099515914917">
        <ele>1710.37182617188</ele>
        <time>2018-07-28T06:46:27Z</time>
      </trkpt>
      <trkpt lat="36.6837158203125" lon="-5.00098991394043">
        <ele>1710.33068847656</ele>
        <time>2018-07-28T06:46:28Z</time>
      </trkpt>
      <trkpt lat="36.683723449707" lon="-5.00098514556885">
        <ele>1710.33276367188</ele>
        <time>2018-07-28T06:46:29Z</time>
      </trkpt>
      <trkpt lat="36.6837348937988" lon="-5.00097894668579">
        <ele>1710.3125</ele>
        <time>2018-07-28T06:46:30Z</time>
      </trkpt>
      <trkpt lat="36.6837463378906" lon="-5.00096988677978">
        <ele>1710.35815429688</ele>
        <time>2018-07-28T06:46:31Z</time>
      </trkpt>
      <trkpt lat="36.6837539672852" lon="-5.00096321105957">
        <ele>1710.40270996094</ele>
        <time>2018-07-28T06:46:32Z</time>
      </trkpt>
      <trkpt lat="36.683765411377" lon="-5.00095701217651">
        <ele>1710.37927246094</ele>
        <time>2018-07-28T06:46:33Z</time>
      </trkpt>
      <trkpt lat="36.6837692260742" lon="-5.00095081329346">
        <ele>1710.46728515625</ele>
        <time>2018-07-28T06:46:34Z</time>
      </trkpt>
      <trkpt lat="36.683780670166" lon="-5.00094509124756">
        <ele>1710.43103027344</ele>
        <time>2018-07-28T06:46:35Z</time>
      </trkpt>
      <trkpt lat="36.6837882995606" lon="-5.0009388923645">
        <ele>1710.46154785156</ele>
        <time>2018-07-28T06:46:36Z</time>
      </trkpt>
      <trkpt lat="36.6837997436523" lon="-5.0009298324585">
        <ele>1710.50048828125</ele>
        <time>2018-07-28T06:46:37Z</time>
      </trkpt>
      <trkpt lat="36.6838111877441" lon="-5.00092315673828">
        <ele>1710.48315429688</ele>
        <time>2018-07-28T06:46:38Z</time>
      </trkpt>
      <trkpt lat="36.6838188171387" lon="-5.00091600418091">
        <ele>1710.53295898438</ele>
        <time>2018-07-28T06:46:39Z</time>
      </trkpt>
      <trkpt lat="36.6838264465332" lon="-5.00091314315796">
        <ele>1710.48376464844</ele>
        <time>2018-07-28T06:46:40Z</time>
      </trkpt>
      <trkpt lat="36.6838340759277" lon="-5.00090789794922">
        <ele>1710.48876953125</ele>
        <time>2018-07-28T06:46:41Z</time>
      </trkpt>
      <trkpt lat="36.6838417053223" lon="-5.00090312957764">
        <ele>1710.48229980469</ele>
        <time>2018-07-28T06:46:42Z</time>
      </trkpt>
      <trkpt lat="36.6838531494141" lon="-5.00089883804321">
        <ele>1710.40673828125</ele>
        <time>2018-07-28T06:46:43Z</time>
      </trkpt>
      <trkpt lat="36.6838607788086" lon="-5.00089597702026">
        <ele>1710.35595703125</ele>
        <time>2018-07-28T06:46:44Z</time>
      </trkpt>
      <trkpt lat="36.6838684082031" lon="-5.00089406967163">
        <ele>1710.28332519531</ele>
        <time>2018-07-28T06:46:45Z</time>
      </trkpt>
      <trkpt lat="36.6838760375977" lon="-5.00088977813721">
        <ele>1710.26428222656</ele>
        <time>2018-07-28T06:46:46Z</time>
      </trkpt>
      <trkpt lat="36.6838836669922" lon="-5.00088787078857">
        <ele>1710.19116210938</ele>
        <time>2018-07-28T06:46:47Z</time>
      </trkpt>
      <trkpt lat="36.6838874816894" lon="-5.00088691711426">
        <ele>1710.15441894531</ele>
        <time>2018-07-28T06:46:48Z</time>
      </trkpt>
      <trkpt lat="36.6838912963867" lon="-5.00088405609131">
        <ele>1710.16052246094</ele>
        <time>2018-07-28T06:46:49Z</time>
      </trkpt>
      <trkpt lat="36.6838989257812" lon="-5.00087976455688">
        <ele>1710.14001464844</ele>
        <time>2018-07-28T06:46:50Z</time>
      </trkpt>
      <trkpt lat="36.683910369873" lon="-5.00087308883667">
        <ele>1710.11389160156</ele>
        <time>2018-07-28T06:46:51Z</time>
      </trkpt>
      <trkpt lat="36.6839141845703" lon="-5.00086688995361">
        <ele>1710.19311523438</ele>
        <time>2018-07-28T06:46:52Z</time>
      </trkpt>
      <trkpt lat="36.6839218139648" lon="-5.00086212158203">
        <ele>1710.181640625</ele>
        <time>2018-07-28T06:46:53Z</time>
      </trkpt>
      <trkpt lat="36.6839256286621" lon="-5.00085401535034">
        <ele>1710.30236816406</ele>
        <time>2018-07-28T06:46:54Z</time>
      </trkpt>
      <trkpt lat="36.6839332580566" lon="-5.00084781646728">
        <ele>1710.32141113281</ele>
        <time>2018-07-28T06:46:55Z</time>
      </trkpt>
      <trkpt lat="36.6839370727539" lon="-5.00084018707275">
        <ele>1710.43054199219</ele>
        <time>2018-07-28T06:46:56Z</time>
      </trkpt>
      <trkpt lat="36.6839447021484" lon="-5.0008339881897">
        <ele>1710.4482421875</ele>
        <time>2018-07-28T06:46:57Z</time>
      </trkpt>
      <trkpt lat="36.6839485168457" lon="-5.00082588195801">
        <ele>1710.49340820312</ele>
        <time>2018-07-28T06:46:58Z</time>
      </trkpt>
      <trkpt lat="36.6839561462402" lon="-5.00081777572632">
        <ele>1710.47119140625</ele>
        <time>2018-07-28T06:46:59Z</time>
      </trkpt>
      <trkpt lat="36.6839637756348" lon="-5.00080919265747">
        <ele>1710.45324707031</ele>
        <time>2018-07-28T06:47:00Z</time>
      </trkpt>
      <trkpt lat="36.6839714050293" lon="-5.00080013275146">
        <ele>1710.439453125</ele>
        <time>2018-07-28T06:47:01Z</time>
      </trkpt>
      <trkpt lat="36.6839828491211" lon="-5.00079011917114">
        <ele>1710.37390136719</ele>
        <time>2018-07-28T06:47:02Z</time>
      </trkpt>
      <trkpt lat="36.6839904785156" lon="-5.00077819824219">
        <ele>1710.38977050781</ele>
        <time>2018-07-28T06:47:03Z</time>
      </trkpt>
      <trkpt lat="36.6839981079102" lon="-5.00076913833618">
        <ele>1710.37048339844</ele>
        <time>2018-07-28T06:47:04Z</time>
      </trkpt>
      <trkpt lat="36.684009552002" lon="-5.00076198577881">
        <ele>1710.26501464844</ele>
        <time>2018-07-28T06:47:05Z</time>
      </trkpt>
      <trkpt lat="36.6840171813965" lon="-5.00075483322144">
        <ele>1710.220703125</ele>
        <time>2018-07-28T06:47:06Z</time>
      </trkpt>
      <trkpt lat="36.6840286254883" lon="-5.00074815750122">
        <ele>1710.10656738281</ele>
        <time>2018-07-28T06:47:07Z</time>
      </trkpt>
      <trkpt lat="36.6840362548828" lon="-5.00073909759522">
        <ele>1710.08068847656</ele>
        <time>2018-07-28T06:47:08Z</time>
      </trkpt>
      <trkpt lat="36.6840476989746" lon="-5.00073003768921">
        <ele>1709.98913574219</ele>
        <time>2018-07-28T06:47:09Z</time>
      </trkpt>
      <trkpt lat="36.6840591430664" lon="-5.00072193145752">
        <ele>1709.884765625</ele>
        <time>2018-07-28T06:47:10Z</time>
      </trkpt>
      <trkpt lat="36.6840705871582" lon="-5.00071477890015">
        <ele>1709.76818847656</ele>
        <time>2018-07-28T06:47:11Z</time>
      </trkpt>
      <trkpt lat="36.6840782165527" lon="-5.00070810317993">
        <ele>1709.70959472656</ele>
        <time>2018-07-28T06:47:12Z</time>
      </trkpt>
      <trkpt lat="36.6840858459473" lon="-5.00070095062256">
        <ele>1709.65490722656</ele>
        <time>2018-07-28T06:47:13Z</time>
      </trkpt>
      <trkpt lat="36.6840972900391" lon="-5.00069284439087">
        <ele>1709.54321289062</ele>
        <time>2018-07-28T06:47:14Z</time>
      </trkpt>
      <trkpt lat="36.6841011047363" lon="-5.00068187713623">
        <ele>1709.59118652344</ele>
        <time>2018-07-28T06:47:15Z</time>
      </trkpt>
      <trkpt lat="36.6841087341309" lon="-5.00067090988159">
        <ele>1709.57141113281</ele>
        <time>2018-07-28T06:47:16Z</time>
      </trkpt>
      <trkpt lat="36.6841125488281" lon="-5.00066089630127">
        <ele>1709.60717773438</ele>
        <time>2018-07-28T06:47:17Z</time>
      </trkpt>
      <trkpt lat="36.6841125488281" lon="-5.00065183639526">
        <ele>1709.69970703125</ele>
        <time>2018-07-28T06:47:18Z</time>
      </trkpt>
      <trkpt lat="36.6841163635254" lon="-5.00064420700073">
        <ele>1709.7099609375</ele>
        <time>2018-07-28T06:47:19Z</time>
      </trkpt>
      <trkpt lat="36.6841201782227" lon="-5.00063610076904">
        <ele>1709.72424316406</ele>
        <time>2018-07-28T06:47:20Z</time>
      </trkpt>
      <trkpt lat="36.6841278076172" lon="-5.0006308555603">
        <ele>1709.640625</ele>
        <time>2018-07-28T06:47:21Z</time>
      </trkpt>
      <trkpt lat="36.6841316223144" lon="-5.00062799453735">
        <ele>1709.60083007812</ele>
        <time>2018-07-28T06:47:22Z</time>
      </trkpt>
      <trkpt lat="36.6841354370117" lon="-5.00062417984009">
        <ele>1709.5703125</ele>
        <time>2018-07-28T06:47:23Z</time>
      </trkpt>
      <trkpt lat="36.684139251709" lon="-5.00061893463135">
        <ele>1709.55358886719</ele>
        <time>2018-07-28T06:47:24Z</time>
      </trkpt>
      <trkpt lat="36.6841468811035" lon="-5.00061178207397">
        <ele>1709.48608398438</ele>
        <time>2018-07-28T06:47:25Z</time>
      </trkpt>
      <trkpt lat="36.684154510498" lon="-5.00060606002808">
        <ele>1709.4033203125</ele>
        <time>2018-07-28T06:47:26Z</time>
      </trkpt>
      <trkpt lat="36.6841621398926" lon="-5.00060081481934">
        <ele>1709.31494140625</ele>
        <time>2018-07-28T06:47:27Z</time>
      </trkpt>
      <trkpt lat="36.6841659545898" lon="-5.00059509277344">
        <ele>1709.30017089844</ele>
        <time>2018-07-28T06:47:28Z</time>
      </trkpt>
      <trkpt lat="36.6841735839844" lon="-5.00058698654175">
        <ele>1709.41357421875</ele>
        <time>2018-07-28T06:47:29Z</time>
      </trkpt>
      <trkpt lat="36.6841812133789" lon="-5.00057888031006">
        <ele>1709.54272460938</ele>
        <time>2018-07-28T06:47:30Z</time>
      </trkpt>
      <trkpt lat="36.6841850280762" lon="-5.00057077407837">
        <ele>1709.64367675781</ele>
        <time>2018-07-28T06:47:31Z</time>
      </trkpt>
      <trkpt lat="36.6841926574707" lon="-5.00056314468384">
        <ele>1709.76416015625</ele>
        <time>2018-07-28T06:47:32Z</time>
      </trkpt>
      <trkpt lat="36.6842041015625" lon="-5.00055599212646">
        <ele>1709.90234375</ele>
        <time>2018-07-28T06:47:33Z</time>
      </trkpt>
      <trkpt lat="36.684211730957" lon="-5.00054883956909">
        <ele>1710.01342773438</ele>
        <time>2018-07-28T06:47:34Z</time>
      </trkpt>
      <trkpt lat="36.6842193603516" lon="-5.00054216384888">
        <ele>1710.11828613281</ele>
        <time>2018-07-28T06:47:35Z</time>
      </trkpt>
      <trkpt lat="36.6842308044434" lon="-5.0005350112915">
        <ele>1710.24780273438</ele>
        <time>2018-07-28T06:47:36Z</time>
      </trkpt>
      <trkpt lat="36.6842384338379" lon="-5.00052785873413">
        <ele>1710.35180664062</ele>
        <time>2018-07-28T06:47:37Z</time>
      </trkpt>
      <trkpt lat="36.6842460632324" lon="-5.0005202293396">
        <ele>1710.45739746094</ele>
        <time>2018-07-28T06:47:38Z</time>
      </trkpt>
      <trkpt lat="36.684253692627" lon="-5.00051212310791">
        <ele>1710.56433105469</ele>
        <time>2018-07-28T06:47:39Z</time>
      </trkpt>
      <trkpt lat="36.6842651367188" lon="-5.0005030632019">
        <ele>1710.69665527344</ele>
        <time>2018-07-28T06:47:40Z</time>
      </trkpt>
      <trkpt lat="36.6842727661133" lon="-5.00049304962158">
        <ele>1710.81201171875</ele>
        <time>2018-07-28T06:47:41Z</time>
      </trkpt>
      <trkpt lat="36.6842803955078" lon="-5.00048398971558">
        <ele>1710.91748046875</ele>
        <time>2018-07-28T06:47:42Z</time>
      </trkpt>
      <trkpt lat="36.6842918395996" lon="-5.00047588348389">
        <ele>1711.03161621094</ele>
        <time>2018-07-28T06:47:43Z</time>
      </trkpt>
      <trkpt lat="36.6842994689941" lon="-5.0004711151123">
        <ele>1711.10119628906</ele>
        <time>2018-07-28T06:47:44Z</time>
      </trkpt>
      <trkpt lat="36.6843070983887" lon="-5.00046682357788">
        <ele>1711.166015625</ele>
        <time>2018-07-28T06:47:45Z</time>
      </trkpt>
      <trkpt lat="36.6843185424805" lon="-5.00046396255493">
        <ele>1711.23754882812</ele>
        <time>2018-07-28T06:47:46Z</time>
      </trkpt>
      <trkpt lat="36.6843299865723" lon="-5.00046110153198">
        <ele>1711.30773925781</ele>
        <time>2018-07-28T06:47:47Z</time>
      </trkpt>
      <trkpt lat="36.6843452453613" lon="-5.00045919418335">
        <ele>1711.3876953125</ele>
        <time>2018-07-28T06:47:48Z</time>
      </trkpt>
      <trkpt lat="36.6843566894531" lon="-5.00045919418335">
        <ele>1711.43872070312</ele>
        <time>2018-07-28T06:47:49Z</time>
      </trkpt>
      <trkpt lat="36.6843681335449" lon="-5.00046014785767">
        <ele>1711.48449707031</ele>
        <time>2018-07-28T06:47:50Z</time>
      </trkpt>
      <trkpt lat="36.6843795776367" lon="-5.00046300888062">
        <ele>1711.5205078125</ele>
        <time>2018-07-28T06:47:51Z</time>
      </trkpt>
      <trkpt lat="36.6843872070312" lon="-5.00046682357788">
        <ele>1711.53540039062</ele>
        <time>2018-07-28T06:47:52Z</time>
      </trkpt>
      <trkpt lat="36.684398651123" lon="-5.00047302246094">
        <ele>1711.55773925781</ele>
        <time>2018-07-28T06:47:53Z</time>
      </trkpt>
      <trkpt lat="36.6844062805176" lon="-5.0004768371582">
        <ele>1711.57568359375</ele>
        <time>2018-07-28T06:47:54Z</time>
      </trkpt>
      <trkpt lat="36.6844177246094" lon="-5.00048017501831">
        <ele>1711.61560058594</ele>
        <time>2018-07-28T06:47:55Z</time>
      </trkpt>
      <trkpt lat="36.6844253540039" lon="-5.00048208236694">
        <ele>1711.64440917969</ele>
        <time>2018-07-28T06:47:56Z</time>
      </trkpt>
      <trkpt lat="36.6844367980957" lon="-5.00048398971558">
        <ele>1711.69274902344</ele>
        <time>2018-07-28T06:47:57Z</time>
      </trkpt>
      <trkpt lat="36.6844444274902" lon="-5.00048494338989">
        <ele>1711.72680664062</ele>
        <time>2018-07-28T06:47:58Z</time>
      </trkpt>
      <trkpt lat="36.6844520568848" lon="-5.00048685073853">
        <ele>1711.75744628906</ele>
        <time>2018-07-28T06:47:59Z</time>
      </trkpt>
      <trkpt lat="36.6844635009766" lon="-5.00049209594727">
        <ele>1711.7958984375</ele>
        <time>2018-07-28T06:48:00Z</time>
      </trkpt>
      <trkpt lat="36.6844711303711" lon="-5.00049686431885">
        <ele>1711.81848144531</ele>
        <time>2018-07-28T06:48:01Z</time>
      </trkpt>
      <trkpt lat="36.6844825744629" lon="-5.0005030632019">
        <ele>1711.85815429688</ele>
        <time>2018-07-28T06:48:02Z</time>
      </trkpt>
      <trkpt lat="36.6844902038574" lon="-5.00050687789917">
        <ele>1711.88708496094</ele>
        <time>2018-07-28T06:48:03Z</time>
      </trkpt>
      <trkpt lat="36.6845016479492" lon="-5.00051212310791">
        <ele>1711.93420410156</ele>
        <time>2018-07-28T06:48:04Z</time>
      </trkpt>
      <trkpt lat="36.6845092773438" lon="-5.00051784515381">
        <ele>1711.9609375</ele>
        <time>2018-07-28T06:48:05Z</time>
      </trkpt>
      <trkpt lat="36.6845169067383" lon="-5.00052309036255">
        <ele>1711.99060058594</ele>
        <time>2018-07-28T06:48:06Z</time>
      </trkpt>
      <trkpt lat="36.6845283508301" lon="-5.00052881240845">
        <ele>1712.04321289062</ele>
        <time>2018-07-28T06:48:07Z</time>
      </trkpt>
      <trkpt lat="36.6845397949219" lon="-5.0005350112915">
        <ele>1712.09741210938</ele>
        <time>2018-07-28T06:48:08Z</time>
      </trkpt>
      <trkpt lat="36.6845474243164" lon="-5.00054121017456">
        <ele>1712.13110351562</ele>
        <time>2018-07-28T06:48:09Z</time>
      </trkpt>
      <trkpt lat="36.6845550537109" lon="-5.00054788589478">
        <ele>1712.16589355469</ele>
        <time>2018-07-28T06:48:10Z</time>
      </trkpt>
      <trkpt lat="36.6845664978027" lon="-5.00055408477783">
        <ele>1712.22790527344</ele>
        <time>2018-07-28T06:48:11Z</time>
      </trkpt>
      <trkpt lat="36.6845741271973" lon="-5.00055980682373">
        <ele>1712.2685546875</ele>
        <time>2018-07-28T06:48:12Z</time>
      </trkpt>
      <trkpt lat="36.6845855712891" lon="-5.0005669593811">
        <ele>1712.33447265625</ele>
        <time>2018-07-28T06:48:13Z</time>
      </trkpt>
      <trkpt lat="36.6845932006836" lon="-5.00057411193848">
        <ele>1712.3779296875</ele>
        <time>2018-07-28T06:48:14Z</time>
      </trkpt>
      <trkpt lat="36.6846008300781" lon="-5.00058221817017">
        <ele>1712.42272949219</ele>
        <time>2018-07-28T06:48:15Z</time>
      </trkpt>
      <trkpt lat="36.6846084594727" lon="-5.0005898475647">
        <ele>1712.47033691406</ele>
        <time>2018-07-28T06:48:16Z</time>
      </trkpt>
      <trkpt lat="36.6846160888672" lon="-5.00059700012207">
        <ele>1712.52062988281</ele>
        <time>2018-07-28T06:48:17Z</time>
      </trkpt>
      <trkpt lat="36.6846237182617" lon="-5.00060606002808">
        <ele>1712.572265625</ele>
        <time>2018-07-28T06:48:18Z</time>
      </trkpt>
      <trkpt lat="36.6846313476562" lon="-5.0006160736084">
        <ele>1712.62658691406</ele>
        <time>2018-07-28T06:48:19Z</time>
      </trkpt>
      <trkpt lat="36.6846389770508" lon="-5.00062608718872">
        <ele>1712.68395996094</ele>
        <time>2018-07-28T06:48:20Z</time>
      </trkpt>
      <trkpt lat="36.6846466064453" lon="-5.00063514709473">
        <ele>1712.74426269531</ele>
        <time>2018-07-28T06:48:21Z</time>
      </trkpt>
      <trkpt lat="36.6846542358398" lon="-5.00064277648926">
        <ele>1712.80712890625</ele>
        <time>2018-07-28T06:48:22Z</time>
      </trkpt>
      <trkpt lat="36.6846618652344" lon="-5.00065183639526">
        <ele>1712.87280273438</ele>
        <time>2018-07-28T06:48:23Z</time>
      </trkpt>
      <trkpt lat="36.6846694946289" lon="-5.00066089630127">
        <ele>1712.94128417969</ele>
        <time>2018-07-28T06:48:24Z</time>
      </trkpt>
      <trkpt lat="36.6846771240234" lon="-5.00066995620728">
        <ele>1713.01257324219</ele>
        <time>2018-07-28T06:48:25Z</time>
      </trkpt>
      <trkpt lat="36.684684753418" lon="-5.00067806243896">
        <ele>1713.0859375</ele>
        <time>2018-07-28T06:48:26Z</time>
      </trkpt>
      <trkpt lat="36.6846923828125" lon="-5.00068616867065">
        <ele>1713.16162109375</ele>
        <time>2018-07-28T06:48:27Z</time>
      </trkpt>
      <trkpt lat="36.684700012207" lon="-5.00069522857666">
        <ele>1713.24096679688</ele>
        <time>2018-07-28T06:48:28Z</time>
      </trkpt>
      <trkpt lat="36.6847076416016" lon="-5.00070285797119">
        <ele>1713.3212890625</ele>
        <time>2018-07-28T06:48:29Z</time>
      </trkpt>
      <trkpt lat="36.6847152709961" lon="-5.00071096420288">
        <ele>1713.40466308594</ele>
        <time>2018-07-28T06:48:30Z</time>
      </trkpt>
      <trkpt lat="36.6847229003906" lon="-5.00071811676025">
        <ele>1713.48889160156</ele>
        <time>2018-07-28T06:48:31Z</time>
      </trkpt>
      <trkpt lat="36.6847305297852" lon="-5.00072479248047">
        <ele>1713.57446289062</ele>
        <time>2018-07-28T06:48:32Z</time>
      </trkpt>
      <trkpt lat="36.684741973877" lon="-5.00073289871216">
        <ele>1713.70300292969</ele>
        <time>2018-07-28T06:48:33Z</time>
      </trkpt>
      <trkpt lat="36.6847496032715" lon="-5.00074100494385">
        <ele>1713.79650878906</ele>
        <time>2018-07-28T06:48:34Z</time>
      </trkpt>
      <trkpt lat="36.6847610473633" lon="-5.00075006484985">
        <ele>1713.93420410156</ele>
        <time>2018-07-28T06:48:35Z</time>
      </trkpt>
      <trkpt lat="36.6847686767578" lon="-5.00075817108154">
        <ele>1714.03344726562</ele>
        <time>2018-07-28T06:48:36Z</time>
      </trkpt>
      <trkpt lat="36.6847763061523" lon="-5.00076723098755">
        <ele>1714.13781738281</ele>
        <time>2018-07-28T06:48:37Z</time>
      </trkpt>
      <trkpt lat="36.6847877502441" lon="-5.0007758140564">
        <ele>1714.28503417969</ele>
        <time>2018-07-28T06:48:38Z</time>
      </trkpt>
      <trkpt lat="36.6847953796387" lon="-5.00078582763672">
        <ele>1714.3984375</ele>
        <time>2018-07-28T06:48:39Z</time>
      </trkpt>
      <trkpt lat="36.6848030090332" lon="-5.00079584121704">
        <ele>1714.51501464844</ele>
        <time>2018-07-28T06:48:40Z</time>
      </trkpt>
      <trkpt lat="36.6848106384277" lon="-5.00080585479736">
        <ele>1714.634765625</ele>
        <time>2018-07-28T06:48:41Z</time>
      </trkpt>
      <trkpt lat="36.6848182678223" lon="-5.00081586837769">
        <ele>1714.75744628906</ele>
        <time>2018-07-28T06:48:42Z</time>
      </trkpt>
      <trkpt lat="36.6848258972168" lon="-5.00082921981812">
        <ele>1714.89562988281</ele>
        <time>2018-07-28T06:48:43Z</time>
      </trkpt>
      <trkpt lat="36.6848335266113" lon="-5.00084114074707">
        <ele>1714.8955078125</ele>
        <time>2018-07-28T06:48:44Z</time>
      </trkpt>
      <trkpt lat="36.6848373413086" lon="-5.00085496902466">
        <ele>1714.75305175781</ele>
        <time>2018-07-28T06:48:45Z</time>
      </trkpt>
      <trkpt lat="36.6848449707031" lon="-5.00086784362793">
        <ele>1714.67163085938</ele>
        <time>2018-07-28T06:48:46Z</time>
      </trkpt>
      <trkpt lat="36.6848526000977" lon="-5.00088119506836">
        <ele>1714.58569335938</ele>
        <time>2018-07-28T06:48:47Z</time>
      </trkpt>
      <trkpt lat="36.6848564147949" lon="-5.00089311599731">
        <ele>1714.47302246094</ele>
        <time>2018-07-28T06:48:48Z</time>
      </trkpt>
      <trkpt lat="36.6848678588867" lon="-5.00090217590332">
        <ele>1714.49645996094</ele>
        <time>2018-07-28T06:48:49Z</time>
      </trkpt>
      <trkpt lat="36.6848754882812" lon="-5.00091123580933">
        <ele>1714.47326660156</ele>
        <time>2018-07-28T06:48:50Z</time>
      </trkpt>
      <trkpt lat="36.6848831176758" lon="-5.00091981887817">
        <ele>1714.45764160156</ele>
        <time>2018-07-28T06:48:51Z</time>
      </trkpt>
      <trkpt lat="36.6848907470703" lon="-5.00093078613281">
        <ele>1714.41223144531</ele>
        <time>2018-07-28T06:48:52Z</time>
      </trkpt>
      <trkpt lat="36.6848983764648" lon="-5.00094223022461">
        <ele>1714.36218261719</ele>
        <time>2018-07-28T06:48:53Z</time>
      </trkpt>
      <trkpt lat="36.6849060058594" lon="-5.00095176696777">
        <ele>1714.33862304688</ele>
        <time>2018-07-28T06:48:54Z</time>
      </trkpt>
      <trkpt lat="36.6849136352539" lon="-5.00095987319946">
        <ele>1714.3349609375</ele>
        <time>2018-07-28T06:48:55Z</time>
      </trkpt>
      <trkpt lat="36.6849174499512" lon="-5.00096797943115">
        <ele>1714.28161621094</ele>
        <time>2018-07-28T06:48:56Z</time>
      </trkpt>
      <trkpt lat="36.6849250793457" lon="-5.00097703933716">
        <ele>1714.26794433594</ele>
        <time>2018-07-28T06:48:57Z</time>
      </trkpt>
      <trkpt lat="36.6849327087402" lon="-5.00098705291748">
        <ele>1714.24365234375</ele>
        <time>2018-07-28T06:48:58Z</time>
      </trkpt>
      <trkpt lat="36.6849365234375" lon="-5.0009970664978">
        <ele>1714.16870117188</ele>
        <time>2018-07-28T06:48:59Z</time>
      </trkpt>
      <trkpt lat="36.6849403381348" lon="-5.00100612640381">
        <ele>1714.10656738281</ele>
        <time>2018-07-28T06:49:00Z</time>
      </trkpt>
      <trkpt lat="36.684944152832" lon="-5.0010142326355">
        <ele>1714.05725097656</ele>
        <time>2018-07-28T06:49:01Z</time>
      </trkpt>
      <trkpt lat="36.6849479675293" lon="-5.00102186203003">
        <ele>1714.01440429688</ele>
        <time>2018-07-28T06:49:02Z</time>
      </trkpt>
      <trkpt lat="36.6849555969238" lon="-5.00103092193604">
        <ele>1714.00769042969</ele>
        <time>2018-07-28T06:49:03Z</time>
      </trkpt>
      <trkpt lat="36.6849594116211" lon="-5.00103998184204">
        <ele>1713.94860839844</ele>
        <time>2018-07-28T06:49:04Z</time>
      </trkpt>
      <trkpt lat="36.6849632263184" lon="-5.00104904174805">
        <ele>1713.89025878906</ele>
        <time>2018-07-28T06:49:05Z</time>
      </trkpt>
      <trkpt lat="36.6849708557129" lon="-5.00105905532837">
        <ele>1713.87524414062</ele>
        <time>2018-07-28T06:49:06Z</time>
      </trkpt>
      <trkpt lat="36.6849784851074" lon="-5.00106811523438">
        <ele>1713.87353515625</ele>
        <time>2018-07-28T06:49:07Z</time>
      </trkpt>
      <trkpt lat="36.684986114502" lon="-5.00107622146606">
        <ele>1713.884765625</ele>
        <time>2018-07-28T06:49:08Z</time>
      </trkpt>
      <trkpt lat="36.6849899291992" lon="-5.0010838508606">
        <ele>1713.84753417969</ele>
        <time>2018-07-28T06:49:09Z</time>
      </trkpt>
      <trkpt lat="36.6849937438965" lon="-5.00109386444092">
        <ele>1713.78210449219</ele>
        <time>2018-07-28T06:49:10Z</time>
      </trkpt>
      <trkpt lat="36.685001373291" lon="-5.00110387802124">
        <ele>1713.78039550781</ele>
        <time>2018-07-28T06:49:11Z</time>
      </trkpt>
      <trkpt lat="36.6850090026856" lon="-5.00111293792725">
        <ele>1713.82116699219</ele>
        <time>2018-07-28T06:49:12Z</time>
      </trkpt>
      <trkpt lat="36.6850128173828" lon="-5.00112104415894">
        <ele>1713.798828125</ele>
        <time>2018-07-28T06:49:13Z</time>
      </trkpt>
      <trkpt lat="36.6850204467773" lon="-5.00112819671631">
        <ele>1713.86291503906</ele>
        <time>2018-07-28T06:49:14Z</time>
      </trkpt>
      <trkpt lat="36.6850242614746" lon="-5.00113582611084">
        <ele>1713.84643554688</ele>
        <time>2018-07-28T06:49:15Z</time>
      </trkpt>
      <trkpt lat="36.6850318908691" lon="-5.00114393234253">
        <ele>1713.8994140625</ele>
        <time>2018-07-28T06:49:16Z</time>
      </trkpt>
      <trkpt lat="36.6850357055664" lon="-5.00115394592285">
        <ele>1713.85473632812</ele>
        <time>2018-07-28T06:49:17Z</time>
      </trkpt>
      <trkpt lat="36.6850395202637" lon="-5.00116300582886">
        <ele>1713.82153320312</ele>
        <time>2018-07-28T06:49:18Z</time>
      </trkpt>
      <trkpt lat="36.6850471496582" lon="-5.00117015838623">
        <ele>1713.88623046875</ele>
        <time>2018-07-28T06:49:19Z</time>
      </trkpt>
      <trkpt lat="36.6850509643555" lon="-5.00117588043213">
        <ele>1713.89306640625</ele>
        <time>2018-07-28T06:49:20Z</time>
      </trkpt>
      <trkpt lat="36.6850547790527" lon="-5.0011830329895">
        <ele>1713.88293457031</ele>
        <time>2018-07-28T06:49:21Z</time>
      </trkpt>
      <trkpt lat="36.6850624084473" lon="-5.00119113922119">
        <ele>1713.93676757812</ele>
        <time>2018-07-28T06:49:22Z</time>
      </trkpt>
      <trkpt lat="36.6850662231445" lon="-5.00120115280151">
        <ele>1713.89270019531</ele>
        <time>2018-07-28T06:49:23Z</time>
      </trkpt>
      <trkpt lat="36.6850700378418" lon="-5.00121116638184">
        <ele>1713.84887695312</ele>
        <time>2018-07-28T06:49:24Z</time>
      </trkpt>
      <trkpt lat="36.6850738525391" lon="-5.00122022628784">
        <ele>1713.81640625</ele>
        <time>2018-07-28T06:49:25Z</time>
      </trkpt>
      <trkpt lat="36.6850776672363" lon="-5.00122785568237">
        <ele>1713.80102539062</ele>
        <time>2018-07-28T06:49:26Z</time>
      </trkpt>
      <trkpt lat="36.6850852966309" lon="-5.0012378692627">
        <ele>1713.8330078125</ele>
        <time>2018-07-28T06:49:27Z</time>
      </trkpt>
      <trkpt lat="36.6850929260254" lon="-5.00124883651733">
        <ele>1713.85375976562</ele>
        <time>2018-07-28T06:49:28Z</time>
      </trkpt>
      <trkpt lat="36.6851005554199" lon="-5.00125885009766">
        <ele>1713.88610839844</ele>
        <time>2018-07-28T06:49:29Z</time>
      </trkpt>
      <trkpt lat="36.6851081848144" lon="-5.00126695632935">
        <ele>1713.94128417969</ele>
        <time>2018-07-28T06:49:30Z</time>
      </trkpt>
      <trkpt lat="36.685115814209" lon="-5.00127410888672">
        <ele>1714.0078125</ele>
        <time>2018-07-28T06:49:31Z</time>
      </trkpt>
      <trkpt lat="36.6851234436035" lon="-5.00128078460693">
        <ele>1714.08020019531</ele>
        <time>2018-07-28T06:49:32Z</time>
      </trkpt>
      <trkpt lat="36.685131072998" lon="-5.00128793716431">
        <ele>1714.14721679688</ele>
        <time>2018-07-28T06:49:33Z</time>
      </trkpt>
      <trkpt lat="36.6851348876953" lon="-5.00129508972168">
        <ele>1714.13842773438</ele>
        <time>2018-07-28T06:49:34Z</time>
      </trkpt>
      <trkpt lat="36.6851425170898" lon="-5.00130414962769">
        <ele>1714.18310546875</ele>
        <time>2018-07-28T06:49:35Z</time>
      </trkpt>
      <trkpt lat="36.6851463317871" lon="-5.00131511688232">
        <ele>1714.12963867188</ele>
        <time>2018-07-28T06:49:36Z</time>
      </trkpt>
      <trkpt lat="36.6851501464844" lon="-5.00132513046265">
        <ele>1714.08752441406</ele>
        <time>2018-07-28T06:49:37Z</time>
      </trkpt>
      <trkpt lat="36.6851577758789" lon="-5.00133180618286">
        <ele>1714.16088867188</ele>
        <time>2018-07-28T06:49:38Z</time>
      </trkpt>
      <trkpt lat="36.6851654052734" lon="-5.00133895874023">
        <ele>1714.22875976562</ele>
        <time>2018-07-28T06:49:39Z</time>
      </trkpt>
      <trkpt lat="36.685173034668" lon="-5.00134611129761">
        <ele>1714.29675292969</ele>
        <time>2018-07-28T06:49:40Z</time>
      </trkpt>
      <trkpt lat="36.6851768493652" lon="-5.00135278701782">
        <ele>1714.29431152344</ele>
        <time>2018-07-28T06:49:41Z</time>
      </trkpt>
      <trkpt lat="36.6851806640625" lon="-5.0013599395752">
        <ele>1714.28649902344</ele>
        <time>2018-07-28T06:49:42Z</time>
      </trkpt>
      <trkpt lat="36.6851844787598" lon="-5.0013689994812">
        <ele>1714.25634765625</ele>
        <time>2018-07-28T06:49:43Z</time>
      </trkpt>
      <trkpt lat="36.6851921081543" lon="-5.00137805938721">
        <ele>1714.30249023438</ele>
        <time>2018-07-28T06:49:44Z</time>
      </trkpt>
      <trkpt lat="36.6851959228516" lon="-5.00138807296753">
        <ele>1714.26135253906</ele>
        <time>2018-07-28T06:49:45Z</time>
      </trkpt>
      <trkpt lat="36.6852035522461" lon="-5.00139713287354">
        <ele>1714.30786132812</ele>
        <time>2018-07-28T06:49:46Z</time>
      </trkpt>
      <trkpt lat="36.6852073669434" lon="-5.00140476226807">
        <ele>1714.294921875</ele>
        <time>2018-07-28T06:49:47Z</time>
      </trkpt>
      <trkpt lat="36.6852111816406" lon="-5.00141191482544">
        <ele>1714.28759765625</ele>
        <time>2018-07-28T06:49:48Z</time>
      </trkpt>
      <trkpt lat="36.6852188110352" lon="-5.00141906738281">
        <ele>1714.35693359375</ele>
        <time>2018-07-28T06:49:49Z</time>
      </trkpt>
      <trkpt lat="36.6852188110352" lon="-5.00142621994019">
        <ele>1714.27331542969</ele>
        <time>2018-07-28T06:49:50Z</time>
      </trkpt>
      <trkpt lat="36.6852188110352" lon="-5.00143384933472">
        <ele>1714.18420410156</ele>
        <time>2018-07-28T06:49:51Z</time>
      </trkpt>
      <trkpt lat="36.6852226257324" lon="-5.00144100189209">
        <ele>1714.17724609375</ele>
        <time>2018-07-28T06:49:52Z</time>
      </trkpt>
      <trkpt lat="36.6852264404297" lon="-5.00144481658936">
        <ele>1714.20922851562</ele>
        <time>2018-07-28T06:49:53Z</time>
      </trkpt>
      <trkpt lat="36.685230255127" lon="-5.00144910812378">
        <ele>1714.23571777344</ele>
        <time>2018-07-28T06:49:54Z</time>
      </trkpt>
      <trkpt lat="36.6852340698242" lon="-5.00145292282104">
        <ele>1714.26794433594</ele>
        <time>2018-07-28T06:49:55Z</time>
      </trkpt>
      <trkpt lat="36.6852378845215" lon="-5.00145816802978">
        <ele>1714.28344726562</ele>
        <time>2018-07-28T06:49:56Z</time>
      </trkpt>
      <trkpt lat="36.6852416992188" lon="-5.00146389007568">
        <ele>1714.29345703125</ele>
        <time>2018-07-28T06:49:57Z</time>
      </trkpt>
      <trkpt lat="36.6852493286133" lon="-5.00147199630737">
        <ele>1714.35241699219</ele>
        <time>2018-07-28T06:49:58Z</time>
      </trkpt>
      <trkpt lat="36.6852531433106" lon="-5.00148105621338">
        <ele>1714.32373046875</ele>
        <time>2018-07-28T06:49:59Z</time>
      </trkpt>
      <trkpt lat="36.6852607727051" lon="-5.00148916244507">
        <ele>1714.38317871094</ele>
        <time>2018-07-28T06:50:00Z</time>
      </trkpt>
      <trkpt lat="36.6852684020996" lon="-5.00149583816528">
        <ele>1714.45935058594</ele>
        <time>2018-07-28T06:50:01Z</time>
      </trkpt>
      <trkpt lat="36.6852722167969" lon="-5.00150203704834">
        <ele>1714.46423339844</ele>
        <time>2018-07-28T06:50:02Z</time>
      </trkpt>
      <trkpt lat="36.6852760314941" lon="-5.00150680541992">
        <ele>1714.48583984375</ele>
        <time>2018-07-28T06:50:03Z</time>
      </trkpt>
      <trkpt lat="36.6852798461914" lon="-5.00151205062866">
        <ele>1714.501953125</ele>
        <time>2018-07-28T06:50:04Z</time>
      </trkpt>
      <trkpt lat="36.6852836608887" lon="-5.00151920318604">
        <ele>1714.49597167969</ele>
        <time>2018-07-28T06:50:05Z</time>
      </trkpt>
      <trkpt lat="36.6852912902832" lon="-5.00152778625488">
        <ele>1714.55065917969</ele>
        <time>2018-07-28T06:50:06Z</time>
      </trkpt>
      <trkpt lat="36.6852989196777" lon="-5.00153684616089">
        <ele>1714.59997558594</ele>
        <time>2018-07-28T06:50:07Z</time>
      </trkpt>
      <trkpt lat="36.6853065490723" lon="-5.00154685974121">
        <ele>1714.63842773438</ele>
        <time>2018-07-28T06:50:08Z</time>
      </trkpt>
      <trkpt lat="36.6853103637695" lon="-5.00155687332153">
        <ele>1714.59985351562</ele>
        <time>2018-07-28T06:50:09Z</time>
      </trkpt>
      <trkpt lat="36.6853179931641" lon="-5.00156593322754">
        <ele>1714.64978027344</ele>
        <time>2018-07-28T06:50:10Z</time>
      </trkpt>
      <trkpt lat="36.6853256225586" lon="-5.00157403945923">
        <ele>1714.71081542969</ele>
        <time>2018-07-28T06:50:11Z</time>
      </trkpt>
      <trkpt lat="36.6853294372559" lon="-5.00158214569092">
        <ele>1714.69470214844</ele>
        <time>2018-07-28T06:50:12Z</time>
      </trkpt>
      <trkpt lat="36.6853370666504" lon="-5.00159406661987">
        <ele>1714.71215820312</ele>
        <time>2018-07-28T06:50:13Z</time>
      </trkpt>
      <trkpt lat="36.6853446960449" lon="-5.00160598754883">
        <ele>1714.72985839844</ele>
        <time>2018-07-28T06:50:14Z</time>
      </trkpt>
      <trkpt lat="36.6853523254394" lon="-5.00161790847778">
        <ele>1714.74780273438</ele>
        <time>2018-07-28T06:50:15Z</time>
      </trkpt>
      <trkpt lat="36.6853561401367" lon="-5.00162792205811">
        <ele>1714.71032714844</ele>
        <time>2018-07-28T06:50:16Z</time>
      </trkpt>
      <trkpt lat="36.685359954834" lon="-5.00163698196411">
        <ele>1714.68395996094</ele>
        <time>2018-07-28T06:50:17Z</time>
      </trkpt>
      <trkpt lat="36.6853637695312" lon="-5.00164604187012">
        <ele>1714.65759277344</ele>
        <time>2018-07-28T06:50:18Z</time>
      </trkpt>
      <trkpt lat="36.6853675842285" lon="-5.00165319442749">
        <ele>1714.65319824219</ele>
        <time>2018-07-28T06:50:19Z</time>
      </trkpt>
      <trkpt lat="36.6853675842285" lon="-5.0016598701477">
        <ele>1714.57666015625</ele>
        <time>2018-07-28T06:50:20Z</time>
      </trkpt>
      <trkpt lat="36.6853713989258" lon="-5.00166702270508">
        <ele>1714.57299804688</ele>
        <time>2018-07-28T06:50:21Z</time>
      </trkpt>
      <trkpt lat="36.6853790283203" lon="-5.00167417526245">
        <ele>1714.65759277344</ele>
        <time>2018-07-28T06:50:22Z</time>
      </trkpt>
      <trkpt lat="36.6853866577148" lon="-5.00167989730835">
        <ele>1714.75573730469</ele>
        <time>2018-07-28T06:50:23Z</time>
      </trkpt>
      <trkpt lat="36.6853904724121" lon="-5.00168609619141">
        <ele>1714.77111816406</ele>
        <time>2018-07-28T06:50:24Z</time>
      </trkpt>
      <trkpt lat="36.6853981018066" lon="-5.00169277191162">
        <ele>1714.85852050781</ele>
        <time>2018-07-28T06:50:25Z</time>
      </trkpt>
      <trkpt lat="36.6854019165039" lon="-5.00169992446899">
        <ele>1714.86340332031</ele>
        <time>2018-07-28T06:50:26Z</time>
      </trkpt>
      <trkpt lat="36.6854057312012" lon="-5.00170803070068">
        <ele>1714.85827636719</ele>
        <time>2018-07-28T06:50:27Z</time>
      </trkpt>
      <trkpt lat="36.6854133605957" lon="-5.00171613693237">
        <ele>1714.92907714844</ele>
        <time>2018-07-28T06:50:28Z</time>
      </trkpt>
      <trkpt lat="36.6854209899902" lon="-5.00172185897827">
        <ele>1715.02355957031</ele>
        <time>2018-07-28T06:50:29Z</time>
      </trkpt>
      <trkpt lat="36.6854286193848" lon="-5.00172805786133">
        <ele>1715.1123046875</ele>
        <time>2018-07-28T06:50:30Z</time>
      </trkpt>
      <trkpt lat="36.685432434082" lon="-5.00173282623291">
        <ele>1715.13928222656</ele>
        <time>2018-07-28T06:50:31Z</time>
      </trkpt>
      <trkpt lat="36.6854400634766" lon="-5.00173902511597">
        <ele>1715.22705078125</ele>
        <time>2018-07-28T06:50:32Z</time>
      </trkpt>
      <trkpt lat="36.6854515075684" lon="-5.00174522399902">
        <ele>1715.38977050781</ele>
        <time>2018-07-28T06:50:33Z</time>
      </trkpt>
      <trkpt lat="36.6854591369629" lon="-5.00174999237061">
        <ele>1715.49096679688</ele>
        <time>2018-07-28T06:50:34Z</time>
      </trkpt>
      <trkpt lat="36.6854705810547" lon="-5.00175523757935">
        <ele>1715.662109375</ele>
        <time>2018-07-28T06:50:35Z</time>
      </trkpt>
      <trkpt lat="36.685474395752" lon="-5.00176000595093">
        <ele>1715.68676757812</ele>
        <time>2018-07-28T06:50:36Z</time>
      </trkpt>
      <trkpt lat="36.6854820251465" lon="-5.00176477432251">
        <ele>1715.78649902344</ele>
        <time>2018-07-28T06:50:37Z</time>
      </trkpt>
      <trkpt lat="36.6854858398438" lon="-5.00177001953125">
        <ele>1715.80541992188</ele>
        <time>2018-07-28T06:50:38Z</time>
      </trkpt>
      <trkpt lat="36.6854934692383" lon="-5.00177621841431">
        <ele>1715.88879394531</ele>
        <time>2018-07-28T06:50:39Z</time>
      </trkpt>
      <trkpt lat="36.6854972839356" lon="-5.0017819404602">
        <ele>1715.90185546875</ele>
        <time>2018-07-28T06:50:40Z</time>
      </trkpt>
      <trkpt lat="36.6855049133301" lon="-5.00178813934326">
        <ele>1715.98400878906</ele>
        <time>2018-07-28T06:50:41Z</time>
      </trkpt>
      <trkpt lat="36.6855125427246" lon="-5.00179386138916">
        <ele>1716.07067871094</ele>
        <time>2018-07-28T06:50:42Z</time>
      </trkpt>
      <trkpt lat="36.6855201721191" lon="-5.0017991065979">
        <ele>1716.16186523438</ele>
        <time>2018-07-28T06:50:43Z</time>
      </trkpt>
      <trkpt lat="36.6855239868164" lon="-5.0018048286438">
        <ele>1716.17333984375</ele>
        <time>2018-07-28T06:50:44Z</time>
      </trkpt>
      <trkpt lat="36.6855316162109" lon="-5.00181293487549">
        <ele>1716.23193359375</ele>
        <time>2018-07-28T06:50:45Z</time>
      </trkpt>
      <trkpt lat="36.6855392456055" lon="-5.00182008743286">
        <ele>1716.30029296875</ele>
        <time>2018-07-28T06:50:46Z</time>
      </trkpt>
      <trkpt lat="36.685546875" lon="-5.00182676315308">
        <ele>1716.37316894531</ele>
        <time>2018-07-28T06:50:47Z</time>
      </trkpt>
      <trkpt lat="36.6855506896973" lon="-5.00183296203613">
        <ele>1716.37744140625</ele>
        <time>2018-07-28T06:50:48Z</time>
      </trkpt>
      <trkpt lat="36.6855545043945" lon="-5.00184011459351">
        <ele>1716.37060546875</ele>
        <time>2018-07-28T06:50:49Z</time>
      </trkpt>
      <trkpt lat="36.6855621337891" lon="-5.00184679031372">
        <ele>1716.44165039062</ele>
        <time>2018-07-28T06:50:50Z</time>
      </trkpt>
      <trkpt lat="36.6855697631836" lon="-5.00185585021973">
        <ele>1716.48498535156</ele>
        <time>2018-07-28T06:50:51Z</time>
      </trkpt>
      <trkpt lat="36.6855773925781" lon="-5.0018630027771">
        <ele>1716.54895019531</ele>
        <time>2018-07-28T06:50:52Z</time>
      </trkpt>
      <trkpt lat="36.6855850219727" lon="-5.00186920166016">
        <ele>1716.623046875</ele>
        <time>2018-07-28T06:50:53Z</time>
      </trkpt>
      <trkpt lat="36.6855926513672" lon="-5.00187397003174">
        <ele>1716.712890625</ele>
        <time>2018-07-28T06:50:54Z</time>
      </trkpt>
      <trkpt lat="36.6856002807617" lon="-5.00187921524048">
        <ele>1716.79675292969</ele>
        <time>2018-07-28T06:50:55Z</time>
      </trkpt>
      <trkpt lat="36.6856117248535" lon="-5.00188302993774">
        <ele>1716.96838378906</ele>
        <time>2018-07-28T06:50:56Z</time>
      </trkpt>
      <trkpt lat="36.685619354248" lon="-5.00188589096069">
        <ele>1717.07885742188</ele>
        <time>2018-07-28T06:50:57Z</time>
      </trkpt>
      <trkpt lat="36.6856269836426" lon="-5.0018892288208">
        <ele>1717.18334960938</ele>
        <time>2018-07-28T06:50:58Z</time>
      </trkpt>
      <trkpt lat="36.6856307983398" lon="-5.00189113616943">
        <ele>1717.23266601562</ele>
        <time>2018-07-28T06:50:59Z</time>
      </trkpt>
      <trkpt lat="36.6856384277344" lon="-5.00189304351807">
        <ele>1717.35339355469</ele>
        <time>2018-07-28T06:51:00Z</time>
      </trkpt>
      <trkpt lat="36.6856422424316" lon="-5.00189304351807">
        <ele>1717.42504882812</ele>
        <time>2018-07-28T06:51:01Z</time>
      </trkpt>
      <trkpt lat="36.6856536865234" lon="-5.0018949508667">
        <ele>1717.6171875</ele>
        <time>2018-07-28T06:51:02Z</time>
      </trkpt>
      <trkpt lat="36.685661315918" lon="-5.0018949508667">
        <ele>1717.76025390625</ele>
        <time>2018-07-28T06:51:03Z</time>
      </trkpt>
      <trkpt lat="36.6856689453125" lon="-5.00189399719238">
        <ele>1717.91479492188</ele>
        <time>2018-07-28T06:51:04Z</time>
      </trkpt>
      <trkpt lat="36.685676574707" lon="-5.00189304351807">
        <ele>1718.06945800781</ele>
        <time>2018-07-28T06:51:05Z</time>
      </trkpt>
      <trkpt lat="36.6856842041016" lon="-5.00189304351807">
        <ele>1718.21264648438</ele>
        <time>2018-07-28T06:51:06Z</time>
      </trkpt>
      <trkpt lat="36.6856918334961" lon="-5.0018949508667">
        <ele>1718.33264160156</ele>
        <time>2018-07-28T06:51:07Z</time>
      </trkpt>
      <trkpt lat="36.6856994628906" lon="-5.00189685821533">
        <ele>1718.45239257812</ele>
        <time>2018-07-28T06:51:08Z</time>
      </trkpt>
      <trkpt lat="36.6857109069824" lon="-5.00190114974976">
        <ele>1718.61401367188</ele>
        <time>2018-07-28T06:51:09Z</time>
      </trkpt>
      <trkpt lat="36.685718536377" lon="-5.0019040107727">
        <ele>1718.72131347656</ele>
        <time>2018-07-28T06:51:10Z</time>
      </trkpt>
      <trkpt lat="36.6857261657715" lon="-5.00190496444702">
        <ele>1718.85217285156</ele>
        <time>2018-07-28T06:51:11Z</time>
      </trkpt>
      <trkpt lat="36.685733795166" lon="-5.00190591812134">
        <ele>1718.98278808594</ele>
        <time>2018-07-28T06:51:12Z</time>
      </trkpt>
      <trkpt lat="36.6857414245606" lon="-5.00190687179565">
        <ele>1719.11328125</ele>
        <time>2018-07-28T06:51:13Z</time>
      </trkpt>
      <trkpt lat="36.6857490539551" lon="-5.00191020965576">
        <ele>1719.21374511719</ele>
        <time>2018-07-28T06:51:14Z</time>
      </trkpt>
      <trkpt lat="36.6857566833496" lon="-5.00191497802734">
        <ele>1719.29565429688</ele>
        <time>2018-07-28T06:51:15Z</time>
      </trkpt>
      <trkpt lat="36.6857643127441" lon="-5.00192022323608">
        <ele>1719.37109375</ele>
        <time>2018-07-28T06:51:16Z</time>
      </trkpt>
      <trkpt lat="36.6857719421387" lon="-5.0019268989563">
        <ele>1719.42761230469</ele>
        <time>2018-07-28T06:51:17Z</time>
      </trkpt>
      <trkpt lat="36.6857833862305" lon="-5.00193405151367">
        <ele>1719.54772949219</ele>
        <time>2018-07-28T06:51:18Z</time>
      </trkpt>
      <trkpt lat="36.685791015625" lon="-5.00194311141968">
        <ele>1719.57189941406</ele>
        <time>2018-07-28T06:51:19Z</time>
      </trkpt>
      <trkpt lat="36.6858024597168" lon="-5.00194978713989">
        <ele>1719.69592285156</ele>
        <time>2018-07-28T06:51:20Z</time>
      </trkpt>
      <trkpt lat="36.6858100891113" lon="-5.00195693969727">
        <ele>1719.74279785156</ele>
        <time>2018-07-28T06:51:21Z</time>
      </trkpt>
      <trkpt lat="36.6858177185059" lon="-5.00196599960327">
        <ele>1719.76391601562</ele>
        <time>2018-07-28T06:51:22Z</time>
      </trkpt>
      <trkpt lat="36.6858253479004" lon="-5.00197315216064">
        <ele>1719.80908203125</ele>
        <time>2018-07-28T06:51:23Z</time>
      </trkpt>
      <trkpt lat="36.6858329772949" lon="-5.00197982788086">
        <ele>1719.85986328125</ele>
        <time>2018-07-28T06:51:24Z</time>
      </trkpt>
      <trkpt lat="36.6858406066894" lon="-5.00198602676392">
        <ele>1719.9033203125</ele>
        <time>2018-07-28T06:51:25Z</time>
      </trkpt>
      <trkpt lat="36.6858520507812" lon="-5.0019907951355">
        <ele>1720.02722167969</ele>
        <time>2018-07-28T06:51:26Z</time>
      </trkpt>
      <trkpt lat="36.6858596801758" lon="-5.00199604034424">
        <ele>1720.08239746094</ele>
        <time>2018-07-28T06:51:27Z</time>
      </trkpt>
      <trkpt lat="36.6858711242676" lon="-5.0019998550415">
        <ele>1720.21862792969</ele>
        <time>2018-07-28T06:51:28Z</time>
      </trkpt>
      <trkpt lat="36.6858787536621" lon="-5.00200414657593">
        <ele>1720.28625488281</ele>
        <time>2018-07-28T06:51:29Z</time>
      </trkpt>
      <trkpt lat="36.6858901977539" lon="-5.00200796127319">
        <ele>1720.42224121094</ele>
        <time>2018-07-28T06:51:30Z</time>
      </trkpt>
      <trkpt lat="36.6858978271484" lon="-5.00201177597046">
        <ele>1720.49597167969</ele>
        <time>2018-07-28T06:51:31Z</time>
      </trkpt>
      <trkpt lat="36.685905456543" lon="-5.00201511383057">
        <ele>1720.57592773438</ele>
        <time>2018-07-28T06:51:32Z</time>
      </trkpt>
      <trkpt lat="36.6859130859375" lon="-5.0020170211792">
        <ele>1720.67492675781</ele>
        <time>2018-07-28T06:51:33Z</time>
      </trkpt>
      <trkpt lat="36.685920715332" lon="-5.00201797485352">
        <ele>1720.78649902344</ele>
        <time>2018-07-28T06:51:34Z</time>
      </trkpt>
      <trkpt lat="36.6859283447266" lon="-5.00202083587646">
        <ele>1720.87268066406</ele>
        <time>2018-07-28T06:51:35Z</time>
      </trkpt>
      <trkpt lat="36.6859397888184" lon="-5.00202322006226">
        <ele>1721.02734375</ele>
        <time>2018-07-28T06:51:36Z</time>
      </trkpt>
      <trkpt lat="36.6859436035156" lon="-5.00202703475952">
        <ele>1721.03845214844</ele>
        <time>2018-07-28T06:51:37Z</time>
      </trkpt>
      <trkpt lat="36.6859512329102" lon="-5.00202989578247">
        <ele>1721.12438964844</ele>
        <time>2018-07-28T06:51:38Z</time>
      </trkpt>
      <trkpt lat="36.6859588623047" lon="-5.00203609466553">
        <ele>1721.16564941406</ele>
        <time>2018-07-28T06:51:39Z</time>
      </trkpt>
      <trkpt lat="36.685962677002" lon="-5.00204086303711">
        <ele>1721.16394042969</ele>
        <time>2018-07-28T06:51:40Z</time>
      </trkpt>
      <trkpt lat="36.6859664916992" lon="-5.00204706192017">
        <ele>1721.14294433594</ele>
        <time>2018-07-28T06:51:41Z</time>
      </trkpt>
      <trkpt lat="36.6859703063965" lon="-5.00205421447754">
        <ele>1721.10913085938</ele>
        <time>2018-07-28T06:51:42Z</time>
      </trkpt>
      <trkpt lat="36.685977935791" lon="-5.00206089019775">
        <ele>1721.14343261719</ele>
        <time>2018-07-28T06:51:43Z</time>
      </trkpt>
      <trkpt lat="36.6859855651856" lon="-5.00206804275513">
        <ele>1721.17138671875</ele>
        <time>2018-07-28T06:51:44Z</time>
      </trkpt>
      <trkpt lat="36.6859931945801" lon="-5.00207281112671">
        <ele>1721.23107910156</ele>
        <time>2018-07-28T06:51:45Z</time>
      </trkpt>
      <trkpt lat="36.6860008239746" lon="-5.00207710266113">
        <ele>1721.29711914062</ele>
        <time>2018-07-28T06:51:46Z</time>
      </trkpt>
      <trkpt lat="36.6860084533691" lon="-5.00208187103272">
        <ele>1721.35656738281</ele>
        <time>2018-07-28T06:51:47Z</time>
      </trkpt>
      <trkpt lat="36.6860198974609" lon="-5.00208806991577">
        <ele>1721.45849609375</ele>
        <time>2018-07-28T06:51:48Z</time>
      </trkpt>
      <trkpt lat="36.6860275268555" lon="-5.00209283828735">
        <ele>1721.51782226562</ele>
        <time>2018-07-28T06:51:49Z</time>
      </trkpt>
      <trkpt lat="36.68603515625" lon="-5.00209617614746">
        <ele>1721.59631347656</ele>
        <time>2018-07-28T06:51:50Z</time>
      </trkpt>
      <trkpt lat="36.6860427856445" lon="-5.00209903717041">
        <ele>1721.68115234375</ele>
        <time>2018-07-28T06:51:51Z</time>
      </trkpt>
      <trkpt lat="36.6860504150391" lon="-5.00210285186768">
        <ele>1721.7529296875</ele>
        <time>2018-07-28T06:51:52Z</time>
      </trkpt>
      <trkpt lat="36.6860542297363" lon="-5.0021071434021">
        <ele>1721.75671386719</ele>
        <time>2018-07-28T06:51:53Z</time>
      </trkpt>
      <trkpt lat="36.6860656738281" lon="-5.00211095809936">
        <ele>1721.89001464844</ele>
        <time>2018-07-28T06:51:54Z</time>
      </trkpt>
      <trkpt lat="36.6860694885254" lon="-5.002112865448">
        <ele>1721.92590332031</ele>
        <time>2018-07-28T06:51:55Z</time>
      </trkpt>
      <trkpt lat="36.6860771179199" lon="-5.00211477279663">
        <ele>1722.02331542969</ele>
        <time>2018-07-28T06:51:56Z</time>
      </trkpt>
      <trkpt lat="36.6860847473144" lon="-5.00211620330811">
        <ele>1722.12707519531</ele>
        <time>2018-07-28T06:51:57Z</time>
      </trkpt>
      <trkpt lat="36.686092376709" lon="-5.00211811065674">
        <ele>1722.22448730469</ele>
        <time>2018-07-28T06:51:58Z</time>
      </trkpt>
      <trkpt lat="36.6861000061035" lon="-5.002121925354">
        <ele>1722.2958984375</ele>
        <time>2018-07-28T06:51:59Z</time>
      </trkpt>
      <trkpt lat="36.686107635498" lon="-5.00212621688843">
        <ele>1722.36071777344</ele>
        <time>2018-07-28T06:52:00Z</time>
      </trkpt>
      <trkpt lat="36.6861152648926" lon="-5.00213098526001">
        <ele>1722.4189453125</ele>
        <time>2018-07-28T06:52:01Z</time>
      </trkpt>
      <trkpt lat="36.6861267089844" lon="-5.00213384628296">
        <ele>1722.56457519531</ele>
        <time>2018-07-28T06:52:02Z</time>
      </trkpt>
      <trkpt lat="36.6861343383789" lon="-5.00213718414307">
        <ele>1722.64208984375</ele>
        <time>2018-07-28T06:52:03Z</time>
      </trkpt>
      <trkpt lat="36.6861381530762" lon="-5.0021390914917">
        <ele>1722.67761230469</ele>
        <time>2018-07-28T06:52:04Z</time>
      </trkpt>
      <trkpt lat="36.6861457824707" lon="-5.00214195251465">
        <ele>1722.76147460938</ele>
        <time>2018-07-28T06:52:05Z</time>
      </trkpt>
      <trkpt lat="36.6861534118652" lon="-5.0021448135376">
        <ele>1722.84533691406</ele>
        <time>2018-07-28T06:52:06Z</time>
      </trkpt>
      <trkpt lat="36.6861572265625" lon="-5.00215005874634">
        <ele>1722.83520507812</ele>
        <time>2018-07-28T06:52:07Z</time>
      </trkpt>
      <trkpt lat="36.686164855957" lon="-5.00215578079224">
        <ele>1722.87976074219</ele>
        <time>2018-07-28T06:52:08Z</time>
      </trkpt>
      <trkpt lat="36.6861724853516" lon="-5.00216388702393">
        <ele>1722.8916015625</ele>
        <time>2018-07-28T06:52:09Z</time>
      </trkpt>
      <trkpt lat="36.6861801147461" lon="-5.0021710395813">
        <ele>1722.91638183594</ele>
        <time>2018-07-28T06:52:10Z</time>
      </trkpt>
      <trkpt lat="36.6861839294434" lon="-5.0021767616272">
        <ele>1722.89929199219</ele>
        <time>2018-07-28T06:52:11Z</time>
      </trkpt>
      <trkpt lat="36.6861915588379" lon="-5.00218200683594">
        <ele>1722.94982910156</ele>
        <time>2018-07-28T06:52:12Z</time>
      </trkpt>
      <trkpt lat="36.6861953735352" lon="-5.00218677520752">
        <ele>1722.94567871094</ele>
        <time>2018-07-28T06:52:13Z</time>
      </trkpt>
      <trkpt lat="36.6862030029297" lon="-5.00219297409058">
        <ele>1722.98303222656</ele>
        <time>2018-07-28T06:52:14Z</time>
      </trkpt>
      <trkpt lat="36.6862106323242" lon="-5.00219917297363">
        <ele>1723.02026367188</ele>
        <time>2018-07-28T06:52:15Z</time>
      </trkpt>
      <trkpt lat="36.6862182617188" lon="-5.00220489501953">
        <ele>1723.06384277344</ele>
        <time>2018-07-28T06:52:16Z</time>
      </trkpt>
      <trkpt lat="36.6862258911133" lon="-5.00221109390259">
        <ele>1723.10083007812</ele>
        <time>2018-07-28T06:52:17Z</time>
      </trkpt>
      <trkpt lat="36.6862373352051" lon="-5.00221681594849">
        <ele>1723.20520019531</ele>
        <time>2018-07-28T06:52:18Z</time>
      </trkpt>
      <trkpt lat="36.6862449645996" lon="-5.00222206115723">
        <ele>1723.25500488281</ele>
        <time>2018-07-28T06:52:19Z</time>
      </trkpt>
      <trkpt lat="36.6862525939941" lon="-5.00222682952881">
        <ele>1723.31127929688</ele>
        <time>2018-07-28T06:52:20Z</time>
      </trkpt>
      <trkpt lat="36.6862640380859" lon="-5.00223207473755">
        <ele>1723.42175292969</ele>
        <time>2018-07-28T06:52:21Z</time>
      </trkpt>
      <trkpt lat="36.6862716674805" lon="-5.00223922729492">
        <ele>1723.44482421875</ele>
        <time>2018-07-28T06:52:22Z</time>
      </trkpt>
      <trkpt lat="36.6862754821777" lon="-5.00224494934082">
        <ele>1723.42663574219</ele>
        <time>2018-07-28T06:52:23Z</time>
      </trkpt>
      <trkpt lat="36.6862831115723" lon="-5.00225019454956">
        <ele>1723.47570800781</ele>
        <time>2018-07-28T06:52:24Z</time>
      </trkpt>
      <trkpt lat="36.6862945556641" lon="-5.00225400924683">
        <ele>1723.60546875</ele>
        <time>2018-07-28T06:52:25Z</time>
      </trkpt>
      <trkpt lat="36.6863021850586" lon="-5.00225782394409">
        <ele>1723.67431640625</ele>
        <time>2018-07-28T06:52:26Z</time>
      </trkpt>
      <trkpt lat="36.6863098144531" lon="-5.00226402282715">
        <ele>1723.7099609375</ele>
        <time>2018-07-28T06:52:27Z</time>
      </trkpt>
      <trkpt lat="36.6863174438477" lon="-5.00227117538452">
        <ele>1723.73217773438</ele>
        <time>2018-07-28T06:52:28Z</time>
      </trkpt>
      <trkpt lat="36.6863250732422" lon="-5.00228023529053">
        <ele>1723.72766113281</ele>
        <time>2018-07-28T06:52:29Z</time>
      </trkpt>
      <trkpt lat="36.6863288879394" lon="-5.00228977203369">
        <ele>1723.65563964844</ele>
        <time>2018-07-28T06:52:30Z</time>
      </trkpt>
      <trkpt lat="36.6863327026367" lon="-5.0022988319397">
        <ele>1723.59020996094</ele>
        <time>2018-07-28T06:52:31Z</time>
      </trkpt>
      <trkpt lat="36.686336517334" lon="-5.00230884552002">
        <ele>1723.51147460938</ele>
        <time>2018-07-28T06:52:32Z</time>
      </trkpt>
      <trkpt lat="36.6863441467285" lon="-5.00231790542603">
        <ele>1723.50622558594</ele>
        <time>2018-07-28T06:52:33Z</time>
      </trkpt>
      <trkpt lat="36.6863479614258" lon="-5.00232887268066">
        <ele>1723.41394042969</ele>
        <time>2018-07-28T06:52:34Z</time>
      </trkpt>
      <trkpt lat="36.6863555908203" lon="-5.00234079360962">
        <ele>1723.36853027344</ele>
        <time>2018-07-28T06:52:35Z</time>
      </trkpt>
      <trkpt lat="36.6863632202148" lon="-5.00235080718994">
        <ele>1723.34936523438</ele>
        <time>2018-07-28T06:52:36Z</time>
      </trkpt>
      <trkpt lat="36.6863708496094" lon="-5.00235891342163">
        <ele>1723.35681152344</ele>
        <time>2018-07-28T06:52:37Z</time>
      </trkpt>
      <trkpt lat="36.6863784790039" lon="-5.00237083435059">
        <ele>1723.31066894531</ele>
        <time>2018-07-28T06:52:38Z</time>
      </trkpt>
      <trkpt lat="36.6863822937012" lon="-5.0023832321167">
        <ele>1723.19738769531</ele>
        <time>2018-07-28T06:52:39Z</time>
      </trkpt>
      <trkpt lat="36.6863899230957" lon="-5.00239515304565">
        <ele>1723.15075683594</ele>
        <time>2018-07-28T06:52:40Z</time>
      </trkpt>
      <trkpt lat="36.6863975524902" lon="-5.00240278244019">
        <ele>1723.1640625</ele>
        <time>2018-07-28T06:52:41Z</time>
      </trkpt>
      <trkpt lat="36.6864013671875" lon="-5.00240898132324">
        <ele>1723.13720703125</ele>
        <time>2018-07-28T06:52:42Z</time>
      </trkpt>
      <trkpt lat="36.686408996582" lon="-5.00241708755493">
        <ele>1723.1435546875</ele>
        <time>2018-07-28T06:52:43Z</time>
      </trkpt>
      <trkpt lat="36.6864166259766" lon="-5.00242376327515">
        <ele>1723.16967773438</ele>
        <time>2018-07-28T06:52:44Z</time>
      </trkpt>
      <trkpt lat="36.6864242553711" lon="-5.00243091583252">
        <ele>1723.18908691406</ele>
        <time>2018-07-28T06:52:45Z</time>
      </trkpt>
      <trkpt lat="36.6864356994629" lon="-5.00243806838989">
        <ele>1723.26818847656</ele>
        <time>2018-07-28T06:52:46Z</time>
      </trkpt>
      <trkpt lat="36.6864471435547" lon="-5.00244379043579">
        <ele>1723.36706542969</ele>
        <time>2018-07-28T06:52:47Z</time>
      </trkpt>
      <trkpt lat="36.6864585876465" lon="-5.00245094299316">
        <ele>1723.44567871094</ele>
        <time>2018-07-28T06:52:48Z</time>
      </trkpt>
      <trkpt lat="36.6864700317383" lon="-5.00245523452759">
        <ele>1723.564453125</ele>
        <time>2018-07-28T06:52:49Z</time>
      </trkpt>
      <trkpt lat="36.6864814758301" lon="-5.00245904922485">
        <ele>1723.68981933594</ele>
        <time>2018-07-28T06:52:50Z</time>
      </trkpt>
      <trkpt lat="36.6864891052246" lon="-5.0024619102478">
        <ele>1723.76879882812</ele>
        <time>2018-07-28T06:52:51Z</time>
      </trkpt>
      <trkpt lat="36.6865005493164" lon="-5.00246620178223">
        <ele>1723.88720703125</ele>
        <time>2018-07-28T06:52:52Z</time>
      </trkpt>
      <trkpt lat="36.6865081787109" lon="-5.00246906280518">
        <ele>1723.96606445312</ele>
        <time>2018-07-28T06:52:53Z</time>
      </trkpt>
      <trkpt lat="36.6865158081055" lon="-5.00247192382812">
        <ele>1724.04479980469</ele>
        <time>2018-07-28T06:52:54Z</time>
      </trkpt>
      <trkpt lat="36.6865234375" lon="-5.00247383117676">
        <ele>1724.13708496094</ele>
        <time>2018-07-28T06:52:55Z</time>
      </trkpt>
      <trkpt lat="36.6865348815918" lon="-5.00247716903686">
        <ele>1724.2685546875</ele>
        <time>2018-07-28T06:52:56Z</time>
      </trkpt>
      <trkpt lat="36.6865425109863" lon="-5.00248098373413">
        <ele>1724.33361816406</ele>
        <time>2018-07-28T06:52:57Z</time>
      </trkpt>
      <trkpt lat="36.6865539550781" lon="-5.00248384475708">
        <ele>1724.4716796875</ele>
        <time>2018-07-28T06:52:58Z</time>
      </trkpt>
      <trkpt lat="36.6865615844727" lon="-5.00248622894287">
        <ele>1724.55688476562</ele>
        <time>2018-07-28T06:52:59Z</time>
      </trkpt>
      <trkpt lat="36.6865730285644" lon="-5.00248908996582">
        <ele>1724.69482421875</ele>
        <time>2018-07-28T06:53:00Z</time>
      </trkpt>
      <trkpt lat="36.686580657959" lon="-5.00249290466309">
        <ele>1724.75952148438</ele>
        <time>2018-07-28T06:53:01Z</time>
      </trkpt>
      <trkpt lat="36.6865921020508" lon="-5.00249814987183">
        <ele>1724.86328125</ele>
        <time>2018-07-28T06:53:02Z</time>
      </trkpt>
      <trkpt lat="36.6865997314453" lon="-5.00250196456909">
        <ele>1724.93237304688</ele>
        <time>2018-07-28T06:53:03Z</time>
      </trkpt>
      <trkpt lat="36.6866111755371" lon="-5.00250482559204">
        <ele>1725.07568359375</ele>
        <time>2018-07-28T06:53:04Z</time>
      </trkpt>
      <trkpt lat="36.6866226196289" lon="-5.00250720977783">
        <ele>1725.2236328125</ele>
        <time>2018-07-28T06:53:05Z</time>
      </trkpt>
      <trkpt lat="36.6866340637207" lon="-5.00250816345215">
        <ele>1725.388671875</ele>
        <time>2018-07-28T06:53:06Z</time>
      </trkpt>
      <trkpt lat="36.6866455078125" lon="-5.0025110244751">
        <ele>1725.52880859375</ele>
        <time>2018-07-28T06:53:07Z</time>
      </trkpt>
      <trkpt lat="36.686653137207" lon="-5.00251483917236">
        <ele>1725.59680175781</ele>
        <time>2018-07-28T06:53:08Z</time>
      </trkpt>
      <trkpt lat="36.6866645812988" lon="-5.0025200843811">
        <ele>1725.703125</ele>
        <time>2018-07-28T06:53:09Z</time>
      </trkpt>
      <trkpt lat="36.6866722106934" lon="-5.00252389907837">
        <ele>1725.70434570312</ele>
        <time>2018-07-28T06:53:10Z</time>
      </trkpt>
      <trkpt lat="36.6866836547852" lon="-5.00252723693848">
        <ele>1725.70092773438</ele>
        <time>2018-07-28T06:53:11Z</time>
      </trkpt>
      <trkpt lat="36.686695098877" lon="-5.00253009796143">
        <ele>1725.70385742188</ele>
        <time>2018-07-28T06:53:12Z</time>
      </trkpt>
      <trkpt lat="36.6867065429688" lon="-5.00253391265869">
        <ele>1725.69396972656</ele>
        <time>2018-07-28T06:53:13Z</time>
      </trkpt>
      <trkpt lat="36.6867218017578" lon="-5.00253820419312">
        <ele>1725.69116210938</ele>
        <time>2018-07-28T06:53:14Z</time>
      </trkpt>
      <trkpt lat="36.6867332458496" lon="-5.00254106521606">
        <ele>1725.69372558594</ele>
        <time>2018-07-28T06:53:15Z</time>
      </trkpt>
      <trkpt lat="36.6867446899414" lon="-5.00254392623901">
        <ele>1725.69616699219</ele>
        <time>2018-07-28T06:53:16Z</time>
      </trkpt>
      <trkpt lat="36.6867523193359" lon="-5.00254678726196">
        <ele>1725.68493652344</ele>
        <time>2018-07-28T06:53:17Z</time>
      </trkpt>
      <trkpt lat="36.686767578125" lon="-5.00254917144775">
        <ele>1725.70703125</ele>
        <time>2018-07-28T06:53:18Z</time>
      </trkpt>
      <trkpt lat="36.6867790222168" lon="-5.00255107879639">
        <ele>1725.72192382812</ele>
        <time>2018-07-28T06:53:19Z</time>
      </trkpt>
      <trkpt lat="36.6867904663086" lon="-5.00255298614502">
        <ele>1725.73681640625</ele>
        <time>2018-07-28T06:53:20Z</time>
      </trkpt>
      <trkpt lat="36.6868019104004" lon="-5.00255584716797">
        <ele>1725.73876953125</ele>
        <time>2018-07-28T06:53:21Z</time>
      </trkpt>
      <trkpt lat="36.6868133544922" lon="-5.00255823135376">
        <ele>1725.7470703125</ele>
        <time>2018-07-28T06:53:22Z</time>
      </trkpt>
      <trkpt lat="36.686824798584" lon="-5.00256013870239">
        <ele>1725.76171875</ele>
        <time>2018-07-28T06:53:23Z</time>
      </trkpt>
      <trkpt lat="36.6868324279785" lon="-5.00256013870239">
        <ele>1725.78857421875</ele>
        <time>2018-07-28T06:53:24Z</time>
      </trkpt>
      <trkpt lat="36.6868438720703" lon="-5.00256013870239">
        <ele>1725.82873535156</ele>
        <time>2018-07-28T06:53:25Z</time>
      </trkpt>
      <trkpt lat="36.6868553161621" lon="-5.00256109237671">
        <ele>1725.85607910156</ele>
        <time>2018-07-28T06:53:26Z</time>
      </trkpt>
      <trkpt lat="36.6868629455566" lon="-5.00256109237671">
        <ele>1725.88293457031</ele>
        <time>2018-07-28T06:53:27Z</time>
      </trkpt>
      <trkpt lat="36.6868743896484" lon="-5.00256109237671">
        <ele>1725.92309570312</ele>
        <time>2018-07-28T06:53:28Z</time>
      </trkpt>
      <trkpt lat="36.6868858337402" lon="-5.00256204605103">
        <ele>1725.95043945312</ele>
        <time>2018-07-28T06:53:29Z</time>
      </trkpt>
      <trkpt lat="36.686897277832" lon="-5.00256395339966">
        <ele>1725.96472167969</ele>
        <time>2018-07-28T06:53:30Z</time>
      </trkpt>
      <trkpt lat="36.6869087219238" lon="-5.00256490707397">
        <ele>1725.99194335938</ele>
        <time>2018-07-28T06:53:31Z</time>
      </trkpt>
      <trkpt lat="36.6869201660156" lon="-5.00256490707397">
        <ele>1726.03210449219</ele>
        <time>2018-07-28T06:53:32Z</time>
      </trkpt>
      <trkpt lat="36.6869316101074" lon="-5.00256490707397">
        <ele>1726.072265625</ele>
        <time>2018-07-28T06:53:33Z</time>
      </trkpt>
      <trkpt lat="36.6869430541992" lon="-5.00256681442261">
        <ele>1726.08642578125</ele>
        <time>2018-07-28T06:53:34Z</time>
      </trkpt>
      <trkpt lat="36.686954498291" lon="-5.00257110595703">
        <ele>1726.06811523438</ele>
        <time>2018-07-28T06:53:35Z</time>
      </trkpt>
      <trkpt lat="36.6869659423828" lon="-5.00257396697998">
        <ele>1726.06909179688</ele>
        <time>2018-07-28T06:53:36Z</time>
      </trkpt>
      <trkpt lat="36.6869735717773" lon="-5.00257778167725">
        <ele>1726.04382324219</ele>
        <time>2018-07-28T06:53:37Z</time>
      </trkpt>
      <trkpt lat="36.6869850158691" lon="-5.00258207321167">
        <ele>1726.02502441406</ele>
        <time>2018-07-28T06:53:38Z</time>
      </trkpt>
      <trkpt lat="36.6869926452637" lon="-5.00258779525757">
        <ele>1725.97338867188</ele>
        <time>2018-07-28T06:53:39Z</time>
      </trkpt>
      <trkpt lat="36.6870040893555" lon="-5.00259494781494">
        <ele>1725.91528320312</ele>
        <time>2018-07-28T06:53:40Z</time>
      </trkpt>
      <trkpt lat="36.6870155334473" lon="-5.00260210037231">
        <ele>1725.85693359375</ele>
        <time>2018-07-28T06:53:41Z</time>
      </trkpt>
      <trkpt lat="36.6870231628418" lon="-5.0026068687439">
        <ele>1725.81787109375</ele>
        <time>2018-07-28T06:53:42Z</time>
      </trkpt>
      <trkpt lat="36.6870346069336" lon="-5.002610206604">
        <ele>1725.8115234375</ele>
        <time>2018-07-28T06:53:43Z</time>
      </trkpt>
      <trkpt lat="36.6870460510254" lon="-5.00261211395264">
        <ele>1725.82458496094</ele>
        <time>2018-07-28T06:53:44Z</time>
      </trkpt>
      <trkpt lat="36.6870574951172" lon="-5.00261116027832">
        <ele>1725.87707519531</ele>
        <time>2018-07-28T06:53:45Z</time>
      </trkpt>
      <trkpt lat="36.6870651245117" lon="-5.00261116027832">
        <ele>1725.9033203125</ele>
        <time>2018-07-28T06:53:46Z</time>
      </trkpt>
      <trkpt lat="36.6870727539062" lon="-5.00261211395264">
        <ele>1725.91650390625</ele>
        <time>2018-07-28T06:53:47Z</time>
      </trkpt>
      <trkpt lat="36.6870803833008" lon="-5.00261497497559">
        <ele>1725.90319824219</ele>
        <time>2018-07-28T06:53:48Z</time>
      </trkpt>
      <trkpt lat="36.6870880126953" lon="-5.00261688232422">
        <ele>1725.90307617188</ele>
        <time>2018-07-28T06:53:49Z</time>
      </trkpt>
      <trkpt lat="36.6870994567871" lon="-5.00262022018433">
        <ele>1725.89624023438</ele>
        <time>2018-07-28T06:53:50Z</time>
      </trkpt>
      <trkpt lat="36.6871147155762" lon="-5.00262308120728">
        <ele>1725.90893554688</ele>
        <time>2018-07-28T06:53:51Z</time>
      </trkpt>
      <trkpt lat="36.687126159668" lon="-5.00262498855591">
        <ele>1725.92163085938</ele>
        <time>2018-07-28T06:53:52Z</time>
      </trkpt>
      <trkpt lat="36.687141418457" lon="-5.00262498855591">
        <ele>1725.97375488281</ele>
        <time>2018-07-28T06:53:53Z</time>
      </trkpt>
      <trkpt lat="36.6871528625488" lon="-5.00262498855591">
        <ele>1726.01293945312</ele>
        <time>2018-07-28T06:53:54Z</time>
      </trkpt>
      <trkpt lat="36.6871604919434" lon="-5.00262594223022">
        <ele>1726.02575683594</ele>
        <time>2018-07-28T06:53:55Z</time>
      </trkpt>
      <trkpt lat="36.6871719360352" lon="-5.00262880325317">
        <ele>1726.02502441406</ele>
        <time>2018-07-28T06:53:56Z</time>
      </trkpt>
      <trkpt lat="36.6871795654297" lon="-5.00263214111328">
        <ele>1726.00451660156</ele>
        <time>2018-07-28T06:53:57Z</time>
      </trkpt>
      <trkpt lat="36.6871871948242" lon="-5.00263595581055">
        <ele>1725.97741699219</ele>
        <time>2018-07-28T06:53:58Z</time>
      </trkpt>
      <trkpt lat="36.687198638916" lon="-5.00263977050781">
        <ele>1725.96301269531</ele>
        <time>2018-07-28T06:53:59Z</time>
      </trkpt>
      <trkpt lat="36.6872062683106" lon="-5.00264406204224">
        <ele>1725.92895507812</ele>
        <time>2018-07-28T06:54:00Z</time>
      </trkpt>
      <trkpt lat="36.6872177124023" lon="-5.00264692306519">
        <ele>1725.92785644531</ele>
        <time>2018-07-28T06:54:01Z</time>
      </trkpt>
      <trkpt lat="36.6872253417969" lon="-5.00264883041382">
        <ele>1725.92687988281</ele>
        <time>2018-07-28T06:54:02Z</time>
      </trkpt>
      <trkpt lat="36.6872367858887" lon="-5.00265121459961">
        <ele>1725.93225097656</ele>
        <time>2018-07-28T06:54:03Z</time>
      </trkpt>
      <trkpt lat="36.6872482299805" lon="-5.00265407562256">
        <ele>1725.93078613281</ele>
        <time>2018-07-28T06:54:04Z</time>
      </trkpt>
      <trkpt lat="36.6872596740723" lon="-5.00265693664551">
        <ele>1725.92919921875</ele>
        <time>2018-07-28T06:54:05Z</time>
      </trkpt>
      <trkpt lat="36.6872673034668" lon="-5.00266122817993">
        <ele>1725.89465332031</ele>
        <time>2018-07-28T06:54:06Z</time>
      </trkpt>
      <trkpt lat="36.6872787475586" lon="-5.00266408920288">
        <ele>1725.89294433594</ele>
        <time>2018-07-28T06:54:07Z</time>
      </trkpt>
      <trkpt lat="36.6872863769531" lon="-5.00266885757446">
        <ele>1725.85131835938</ele>
        <time>2018-07-28T06:54:08Z</time>
      </trkpt>
      <trkpt lat="36.6872978210449" lon="-5.00267505645752">
        <ele>1725.80236816406</ele>
        <time>2018-07-28T06:54:09Z</time>
      </trkpt>
      <trkpt lat="36.6873016357422" lon="-5.00268220901489">
        <ele>1725.71411132812</ele>
        <time>2018-07-28T06:54:10Z</time>
      </trkpt>
      <trkpt lat="36.687313079834" lon="-5.00268888473511">
        <ele>1725.65795898438</ele>
        <time>2018-07-28T06:54:11Z</time>
      </trkpt>
      <trkpt lat="36.6873207092285" lon="-5.00269412994385">
        <ele>1725.60925292969</ele>
        <time>2018-07-28T06:54:12Z</time>
      </trkpt>
      <trkpt lat="36.687328338623" lon="-5.00269794464111">
        <ele>1725.58056640625</ele>
        <time>2018-07-28T06:54:13Z</time>
      </trkpt>
      <trkpt lat="36.6873397827148" lon="-5.00270223617554">
        <ele>1725.5576171875</ele>
        <time>2018-07-28T06:54:14Z</time>
      </trkpt>
      <trkpt lat="36.6873512268066" lon="-5.0027060508728">
        <ele>1725.54138183594</ele>
        <time>2018-07-28T06:54:15Z</time>
      </trkpt>
      <trkpt lat="36.6873626708984" lon="-5.00270986557007">
        <ele>1725.52502441406</ele>
        <time>2018-07-28T06:54:16Z</time>
      </trkpt>
      <trkpt lat="36.687370300293" lon="-5.00271511077881">
        <ele>1725.47570800781</ele>
        <time>2018-07-28T06:54:17Z</time>
      </trkpt>
      <trkpt lat="36.6873779296875" lon="-5.00271892547607">
        <ele>1725.44653320312</ele>
        <time>2018-07-28T06:54:18Z</time>
      </trkpt>
      <trkpt lat="36.687385559082" lon="-5.00272417068481">
        <ele>1725.39685058594</ele>
        <time>2018-07-28T06:54:19Z</time>
      </trkpt>
      <trkpt lat="36.6873931884766" lon="-5.0027289390564">
        <ele>1725.35400390625</ele>
        <time>2018-07-28T06:54:20Z</time>
      </trkpt>
      <trkpt lat="36.6874046325684" lon="-5.00273609161377">
        <ele>1725.28942871094</ele>
        <time>2018-07-28T06:54:21Z</time>
      </trkpt>
      <trkpt lat="36.6874122619629" lon="-5.00274276733398">
        <ele>1725.21899414062</ele>
        <time>2018-07-28T06:54:22Z</time>
      </trkpt>
      <trkpt lat="36.6874237060547" lon="-5.00274991989136">
        <ele>1725.15393066406</ele>
        <time>2018-07-28T06:54:23Z</time>
      </trkpt>
      <trkpt lat="36.6874313354492" lon="-5.0027551651001">
        <ele>1725.10363769531</ele>
        <time>2018-07-28T06:54:24Z</time>
      </trkpt>
      <trkpt lat="36.687442779541" lon="-5.00275802612305">
        <ele>1725.09973144531</ele>
        <time>2018-07-28T06:54:25Z</time>
      </trkpt>
      <trkpt lat="36.6874542236328" lon="-5.00275993347168">
        <ele>1725.10925292969</ele>
        <time>2018-07-28T06:54:26Z</time>
      </trkpt>
      <trkpt lat="36.6874656677246" lon="-5.00276279449463">
        <ele>1725.10510253906</ele>
        <time>2018-07-28T06:54:27Z</time>
      </trkpt>
      <trkpt lat="36.6874771118164" lon="-5.00276613235474">
        <ele>1725.09411621094</ele>
        <time>2018-07-28T06:54:28Z</time>
      </trkpt>
      <trkpt lat="36.6874885559082" lon="-5.002769947052">
        <ele>1725.07604980469</ele>
        <time>2018-07-28T06:54:29Z</time>
      </trkpt>
      <trkpt lat="36.6874961853027" lon="-5.00277614593506">
        <ele>1725.01123046875</ele>
        <time>2018-07-28T06:54:30Z</time>
      </trkpt>
      <trkpt lat="36.6875076293945" lon="-5.00278282165527">
        <ele>1724.88549804688</ele>
        <time>2018-07-28T06:54:31Z</time>
      </trkpt>
      <trkpt lat="36.6875152587891" lon="-5.00278997421265">
        <ele>1724.7431640625</ele>
        <time>2018-07-28T06:54:32Z</time>
      </trkpt>
      <trkpt lat="36.6875267028809" lon="-5.00279712677002">
        <ele>1724.58374023438</ele>
        <time>2018-07-28T06:54:33Z</time>
      </trkpt>
      <trkpt lat="36.6875343322754" lon="-5.00280523300171">
        <ele>1724.43408203125</ele>
        <time>2018-07-28T06:54:34Z</time>
      </trkpt>
      <trkpt lat="36.6875419616699" lon="-5.00281381607056">
        <ele>1724.28088378906</ele>
        <time>2018-07-28T06:54:35Z</time>
      </trkpt>
      <trkpt lat="36.6875495910644" lon="-5.00282192230225">
        <ele>1724.13708496094</ele>
        <time>2018-07-28T06:54:36Z</time>
      </trkpt>
      <trkpt lat="36.687557220459" lon="-5.00283002853394">
        <ele>1723.99609375</ele>
        <time>2018-07-28T06:54:37Z</time>
      </trkpt>
      <trkpt lat="36.6875686645508" lon="-5.00283813476562">
        <ele>1723.841796875</ele>
        <time>2018-07-28T06:54:38Z</time>
      </trkpt>
      <trkpt lat="36.6875762939453" lon="-5.00284385681152">
        <ele>1723.73742675781</ele>
        <time>2018-07-28T06:54:39Z</time>
      </trkpt>
      <trkpt lat="36.6875839233398" lon="-5.00284814834595">
        <ele>1723.65270996094</ele>
        <time>2018-07-28T06:54:40Z</time>
      </trkpt>
      <trkpt lat="36.6875953674316" lon="-5.0028510093689">
        <ele>1723.572265625</ele>
        <time>2018-07-28T06:54:41Z</time>
      </trkpt>
      <trkpt lat="36.6876068115234" lon="-5.00285482406616">
        <ele>1723.48205566406</ele>
        <time>2018-07-28T06:54:42Z</time>
      </trkpt>
      <trkpt lat="36.687614440918" lon="-5.0028600692749">
        <ele>1723.39111328125</ele>
        <time>2018-07-28T06:54:43Z</time>
      </trkpt>
      <trkpt lat="36.6876258850098" lon="-5.00286483764648">
        <ele>1723.2939453125</ele>
        <time>2018-07-28T06:54:44Z</time>
      </trkpt>
      <trkpt lat="36.6876335144043" lon="-5.00287199020386">
        <ele>1723.18542480469</ele>
        <time>2018-07-28T06:54:45Z</time>
      </trkpt>
      <trkpt lat="36.6876411437988" lon="-5.00288009643555">
        <ele>1723.06896972656</ele>
        <time>2018-07-28T06:54:46Z</time>
      </trkpt>
      <trkpt lat="36.6876487731934" lon="-5.00288820266724">
        <ele>1722.95520019531</ele>
        <time>2018-07-28T06:54:47Z</time>
      </trkpt>
      <trkpt lat="36.6876564025879" lon="-5.00289583206177">
        <ele>1722.849609375</ele>
        <time>2018-07-28T06:54:48Z</time>
      </trkpt>
      <trkpt lat="36.6876640319824" lon="-5.00290489196777">
        <ele>1722.73132324219</ele>
        <time>2018-07-28T06:54:49Z</time>
      </trkpt>
      <trkpt lat="36.687671661377" lon="-5.00291395187378">
        <ele>1722.61633300781</ele>
        <time>2018-07-28T06:54:50Z</time>
      </trkpt>
      <trkpt lat="36.6876831054688" lon="-5.00292301177978">
        <ele>1722.49597167969</ele>
        <time>2018-07-28T06:54:51Z</time>
      </trkpt>
      <trkpt lat="36.6876907348633" lon="-5.00293302536011">
        <ele>1722.37854003906</ele>
        <time>2018-07-28T06:54:52Z</time>
      </trkpt>
      <trkpt lat="36.6876983642578" lon="-5.00294208526611">
        <ele>1722.27404785156</ele>
        <time>2018-07-28T06:54:53Z</time>
      </trkpt>
      <trkpt lat="36.6877098083496" lon="-5.00295114517212">
        <ele>1722.16662597656</ele>
        <time>2018-07-28T06:54:54Z</time>
      </trkpt>
      <trkpt lat="36.6877136230469" lon="-5.00296020507812">
        <ele>1722.07458496094</ele>
        <time>2018-07-28T06:54:55Z</time>
      </trkpt>
      <trkpt lat="36.6877212524414" lon="-5.00297021865845">
        <ele>1721.97082519531</ele>
        <time>2018-07-28T06:54:56Z</time>
      </trkpt>
      <trkpt lat="36.6877288818359" lon="-5.0029788017273">
        <ele>1721.88354492188</ele>
        <time>2018-07-28T06:54:57Z</time>
      </trkpt>
      <trkpt lat="36.6877365112305" lon="-5.00298976898193">
        <ele>1721.77807617188</ele>
        <time>2018-07-28T06:54:58Z</time>
      </trkpt>
      <trkpt lat="36.687744140625" lon="-5.00299882888794">
        <ele>1721.69311523438</ele>
        <time>2018-07-28T06:54:59Z</time>
      </trkpt>
      <trkpt lat="36.6877517700195" lon="-5.00300693511963">
        <ele>1721.61950683594</ele>
        <time>2018-07-28T06:55:00Z</time>
      </trkpt>
      <trkpt lat="36.6877593994141" lon="-5.00301218032837">
        <ele>1721.57287597656</ele>
        <time>2018-07-28T06:55:01Z</time>
      </trkpt>
      <trkpt lat="36.6877708435059" lon="-5.00301599502564">
        <ele>1721.53942871094</ele>
        <time>2018-07-28T06:55:02Z</time>
      </trkpt>
      <trkpt lat="36.6877784729004" lon="-5.0030198097229">
        <ele>1721.50817871094</ele>
        <time>2018-07-28T06:55:03Z</time>
      </trkpt>
      <trkpt lat="36.6877861022949" lon="-5.00302410125732">
        <ele>1721.47448730469</ele>
        <time>2018-07-28T06:55:04Z</time>
      </trkpt>
      <trkpt lat="36.6877975463867" lon="-5.00302886962891">
        <ele>1721.43933105469</ele>
        <time>2018-07-28T06:55:05Z</time>
      </trkpt>
      <trkpt lat="36.6878089904785" lon="-5.00303316116333">
        <ele>1721.41027832031</ele>
        <time>2018-07-28T06:55:06Z</time>
      </trkpt>
      <trkpt lat="36.687816619873" lon="-5.00303602218628">
        <ele>1721.39208984375</ele>
        <time>2018-07-28T06:55:07Z</time>
      </trkpt>
      <trkpt lat="36.6878242492676" lon="-5.00303888320923">
        <ele>1721.37487792969</ele>
        <time>2018-07-28T06:55:08Z</time>
      </trkpt>
      <trkpt lat="36.6878356933594" lon="-5.00304317474365">
        <ele>1721.35107421875</ele>
        <time>2018-07-28T06:55:09Z</time>
      </trkpt>
      <trkpt lat="36.6878395080566" lon="-5.00304698944092">
        <ele>1721.32800292969</ele>
        <time>2018-07-28T06:55:10Z</time>
      </trkpt>
      <trkpt lat="36.6878509521484" lon="-5.00305318832397">
        <ele>1721.29565429688</ele>
        <time>2018-07-28T06:55:11Z</time>
      </trkpt>
      <trkpt lat="36.687858581543" lon="-5.00305700302124">
        <ele>1721.27795410156</ele>
        <time>2018-07-28T06:55:12Z</time>
      </trkpt>
      <trkpt lat="36.6878700256348" lon="-5.00306177139282">
        <ele>1721.25952148438</ele>
        <time>2018-07-28T06:55:13Z</time>
      </trkpt>
      <trkpt lat="36.6878776550293" lon="-5.00306606292725">
        <ele>1721.2421875</ele>
        <time>2018-07-28T06:55:14Z</time>
      </trkpt>
      <trkpt lat="36.6878852844238" lon="-5.00306987762451">
        <ele>1721.22912597656</ele>
        <time>2018-07-28T06:55:15Z</time>
      </trkpt>
      <trkpt lat="36.6878967285156" lon="-5.00307607650757">
        <ele>1721.20947265625</ele>
        <time>2018-07-28T06:55:16Z</time>
      </trkpt>
      <trkpt lat="36.6879005432129" lon="-5.00308179855347">
        <ele>1721.18469238281</ele>
        <time>2018-07-28T06:55:17Z</time>
      </trkpt>
      <trkpt lat="36.6879119873047" lon="-5.00308799743652">
        <ele>1721.17041015625</ele>
        <time>2018-07-28T06:55:18Z</time>
      </trkpt>
      <trkpt lat="36.6879196166992" lon="-5.00309181213379">
        <ele>1721.16418457031</ele>
        <time>2018-07-28T06:55:19Z</time>
      </trkpt>
      <trkpt lat="36.6879272460938" lon="-5.00309610366821">
        <ele>1721.15710449219</ele>
        <time>2018-07-28T06:55:20Z</time>
      </trkpt>
      <trkpt lat="36.6879348754883" lon="-5.0031008720398">
        <ele>1721.1494140625</ele>
        <time>2018-07-28T06:55:21Z</time>
      </trkpt>
      <trkpt lat="36.6879425048828" lon="-5.00310707092285">
        <ele>1721.13745117188</ele>
        <time>2018-07-28T06:55:22Z</time>
      </trkpt>
      <trkpt lat="36.6879463195801" lon="-5.00311422348022">
        <ele>1721.11547851562</ele>
        <time>2018-07-28T06:55:23Z</time>
      </trkpt>
      <trkpt lat="36.6879539489746" lon="-5.00312185287476">
        <ele>1721.10192871094</ele>
        <time>2018-07-28T06:55:24Z</time>
      </trkpt>
      <trkpt lat="36.6879615783691" lon="-5.00312805175781">
        <ele>1721.09631347656</ele>
        <time>2018-07-28T06:55:25Z</time>
      </trkpt>
      <trkpt lat="36.6879692077637" lon="-5.0031361579895">
        <ele>1721.08605957031</ele>
        <time>2018-07-28T06:55:26Z</time>
      </trkpt>
      <trkpt lat="36.6879806518555" lon="-5.00314283370972">
        <ele>1721.09423828125</ele>
        <time>2018-07-28T06:55:27Z</time>
      </trkpt>
      <trkpt lat="36.68798828125" lon="-5.00314998626709">
        <ele>1721.09313964844</ele>
        <time>2018-07-28T06:55:28Z</time>
      </trkpt>
      <trkpt lat="36.6879997253418" lon="-5.00315618515015">
        <ele>1721.109375</ele>
        <time>2018-07-28T06:55:29Z</time>
      </trkpt>
      <trkpt lat="36.6880035400391" lon="-5.00316286087036">
        <ele>1721.1025390625</ele>
        <time>2018-07-28T06:55:30Z</time>
      </trkpt>
      <trkpt lat="36.6880111694336" lon="-5.00317001342773">
        <ele>1721.10876464844</ele>
        <time>2018-07-28T06:55:31Z</time>
      </trkpt>
      <trkpt lat="36.6880187988281" lon="-5.00317716598511">
        <ele>1721.11743164062</ele>
        <time>2018-07-28T06:55:32Z</time>
      </trkpt>
      <trkpt lat="36.6880302429199" lon="-5.00318288803101">
        <ele>1721.14624023438</ele>
        <time>2018-07-28T06:55:33Z</time>
      </trkpt>
      <trkpt lat="36.6880378723144" lon="-5.00318908691406">
        <ele>1721.16223144531</ele>
        <time>2018-07-28T06:55:34Z</time>
      </trkpt>
      <trkpt lat="36.6880493164062" lon="-5.00319385528564">
        <ele>1721.1982421875</ele>
        <time>2018-07-28T06:55:35Z</time>
      </trkpt>
      <trkpt lat="36.688060760498" lon="-5.0032000541687">
        <ele>1721.23474121094</ele>
        <time>2018-07-28T06:55:36Z</time>
      </trkpt>
      <trkpt lat="36.6880683898926" lon="-5.0032057762146">
        <ele>1721.2587890625</ele>
        <time>2018-07-28T06:55:37Z</time>
      </trkpt>
      <trkpt lat="36.6880798339844" lon="-5.00321197509766">
        <ele>1721.30114746094</ele>
        <time>2018-07-28T06:55:38Z</time>
      </trkpt>
      <trkpt lat="36.6880836486816" lon="-5.00321912765503">
        <ele>1721.31103515625</ele>
        <time>2018-07-28T06:55:39Z</time>
      </trkpt>
      <trkpt lat="36.6880912780762" lon="-5.00322484970093">
        <ele>1721.34143066406</ele>
        <time>2018-07-28T06:55:40Z</time>
      </trkpt>
      <trkpt lat="36.6880989074707" lon="-5.00323295593262">
        <ele>1721.37243652344</ele>
        <time>2018-07-28T06:55:41Z</time>
      </trkpt>
      <trkpt lat="36.6881065368652" lon="-5.00324201583862">
        <ele>1721.40588378906</ele>
        <time>2018-07-28T06:55:42Z</time>
      </trkpt>
      <trkpt lat="36.6881141662598" lon="-5.00325107574463">
        <ele>1721.44250488281</ele>
        <time>2018-07-28T06:55:43Z</time>
      </trkpt>
      <trkpt lat="36.6881256103516" lon="-5.00326013565064">
        <ele>1721.50341796875</ele>
        <time>2018-07-28T06:55:44Z</time>
      </trkpt>
      <trkpt lat="36.6881332397461" lon="-5.00326776504517">
        <ele>1721.546875</ele>
        <time>2018-07-28T06:55:45Z</time>
      </trkpt>
      <trkpt lat="36.6881446838379" lon="-5.00327491760254">
        <ele>1721.615234375</ele>
        <time>2018-07-28T06:55:46Z</time>
      </trkpt>
      <trkpt lat="36.6881523132324" lon="-5.0032811164856">
        <ele>1721.66381835938</ele>
        <time>2018-07-28T06:55:47Z</time>
      </trkpt>
      <trkpt lat="36.688159942627" lon="-5.00328683853149">
        <ele>1721.71411132812</ele>
        <time>2018-07-28T06:55:48Z</time>
      </trkpt>
      <trkpt lat="36.6881713867188" lon="-5.00329303741455">
        <ele>1721.79089355469</ele>
        <time>2018-07-28T06:55:49Z</time>
      </trkpt>
      <trkpt lat="36.6881790161133" lon="-5.00330018997192">
        <ele>1721.84765625</ele>
        <time>2018-07-28T06:55:50Z</time>
      </trkpt>
      <trkpt lat="36.6881866455078" lon="-5.00330781936646">
        <ele>1721.90759277344</ele>
        <time>2018-07-28T06:55:51Z</time>
      </trkpt>
      <trkpt lat="36.6881904602051" lon="-5.00331687927246">
        <ele>1721.94653320312</ele>
        <time>2018-07-28T06:55:52Z</time>
      </trkpt>
      <trkpt lat="36.6882019042969" lon="-5.00332689285278">
        <ele>1722.04235839844</ele>
        <time>2018-07-28T06:55:53Z</time>
      </trkpt>
      <trkpt lat="36.6882095336914" lon="-5.00333690643311">
        <ele>1722.0986328125</ele>
        <time>2018-07-28T06:55:54Z</time>
      </trkpt>
      <trkpt lat="36.6882171630859" lon="-5.00334596633911">
        <ele>1722.12939453125</ele>
        <time>2018-07-28T06:55:55Z</time>
      </trkpt>
      <trkpt lat="36.6882247924805" lon="-5.00335502624512">
        <ele>1722.16198730469</ele>
        <time>2018-07-28T06:55:56Z</time>
      </trkpt>
      <trkpt lat="36.6882286071777" lon="-5.00336408615112">
        <ele>1722.16735839844</ele>
        <time>2018-07-28T06:55:57Z</time>
      </trkpt>
      <trkpt lat="36.688232421875" lon="-5.00337409973144">
        <ele>1722.17114257812</ele>
        <time>2018-07-28T06:55:58Z</time>
      </trkpt>
      <trkpt lat="36.6882400512695" lon="-5.00338411331177">
        <ele>1722.2060546875</ele>
        <time>2018-07-28T06:55:59Z</time>
      </trkpt>
      <trkpt lat="36.6882476806641" lon="-5.00339508056641">
        <ele>1722.24060058594</ele>
        <time>2018-07-28T06:56:00Z</time>
      </trkpt>
      <trkpt lat="36.6882514953613" lon="-5.00340604782104">
        <ele>1722.24633789062</ele>
        <time>2018-07-28T06:56:01Z</time>
      </trkpt>
      <trkpt lat="36.6882553100586" lon="-5.00341606140137">
        <ele>1722.25524902344</ele>
        <time>2018-07-28T06:56:02Z</time>
      </trkpt>
      <trkpt lat="36.6882629394531" lon="-5.00342607498169">
        <ele>1722.29724121094</ele>
        <time>2018-07-28T06:56:03Z</time>
      </trkpt>
      <trkpt lat="36.6882705688477" lon="-5.00343608856201">
        <ele>1722.34118652344</ele>
        <time>2018-07-28T06:56:04Z</time>
      </trkpt>
      <trkpt lat="36.6882743835449" lon="-5.00344514846802">
        <ele>1722.35595703125</ele>
        <time>2018-07-28T06:56:05Z</time>
      </trkpt>
      <trkpt lat="36.6882820129394" lon="-5.00345420837402">
        <ele>1722.40502929688</ele>
        <time>2018-07-28T06:56:06Z</time>
      </trkpt>
      <trkpt lat="36.6882858276367" lon="-5.00346183776856">
        <ele>1722.42468261719</ele>
        <time>2018-07-28T06:56:07Z</time>
      </trkpt>
      <trkpt lat="36.6882934570312" lon="-5.00347089767456">
        <ele>1722.47668457031</ele>
        <time>2018-07-28T06:56:08Z</time>
      </trkpt>
      <trkpt lat="36.6882972717285" lon="-5.00347995758057">
        <ele>1722.49584960938</ele>
        <time>2018-07-28T06:56:09Z</time>
      </trkpt>
      <trkpt lat="36.6883010864258" lon="-5.00348997116089">
        <ele>1722.51440429688</ele>
        <time>2018-07-28T06:56:10Z</time>
      </trkpt>
      <trkpt lat="36.688304901123" lon="-5.00349903106689">
        <ele>1722.53540039062</ele>
        <time>2018-07-28T06:56:11Z</time>
      </trkpt>
      <trkpt lat="36.6883087158203" lon="-5.00350713729858">
        <ele>1722.55871582031</ele>
        <time>2018-07-28T06:56:12Z</time>
      </trkpt>
      <trkpt lat="36.6883125305176" lon="-5.00351285934448">
        <ele>1722.58642578125</ele>
        <time>2018-07-28T06:56:13Z</time>
      </trkpt>
      <trkpt lat="36.6883163452148" lon="-5.00351905822754">
        <ele>1722.61389160156</ele>
        <time>2018-07-28T06:56:14Z</time>
      </trkpt>
      <trkpt lat="36.6883277893066" lon="-5.0035228729248">
        <ele>1722.71899414062</ele>
        <time>2018-07-28T06:56:15Z</time>
      </trkpt>
      <trkpt lat="36.6883316040039" lon="-5.00352907180786">
        <ele>1722.74829101562</ele>
        <time>2018-07-28T06:56:16Z</time>
      </trkpt>
      <trkpt lat="36.6883392333984" lon="-5.00353479385376">
        <ele>1722.71264648438</ele>
        <time>2018-07-28T06:56:17Z</time>
      </trkpt>
      <trkpt lat="36.6883430480957" lon="-5.00354385375977">
        <ele>1722.67517089844</ele>
        <time>2018-07-28T06:56:18Z</time>
      </trkpt>
      <trkpt lat="36.6883506774902" lon="-5.00355291366577">
        <ele>1722.61291503906</ele>
        <time>2018-07-28T06:56:19Z</time>
      </trkpt>
      <trkpt lat="36.6883583068848" lon="-5.00356101989746">
        <ele>1722.55554199219</ele>
        <time>2018-07-28T06:56:20Z</time>
      </trkpt>
      <trkpt lat="36.6883659362793" lon="-5.00356817245483">
        <ele>1722.50231933594</ele>
        <time>2018-07-28T06:56:21Z</time>
      </trkpt>
      <trkpt lat="36.6883735656738" lon="-5.00357389450073">
        <ele>1722.45251464844</ele>
        <time>2018-07-28T06:56:22Z</time>
      </trkpt>
      <trkpt lat="36.6883811950684" lon="-5.00357913970947">
        <ele>1722.40551757812</ele>
        <time>2018-07-28T06:56:23Z</time>
      </trkpt>
      <trkpt lat="36.6883888244629" lon="-5.00358486175537">
        <ele>1722.361328125</ele>
        <time>2018-07-28T06:56:24Z</time>
      </trkpt>
      <trkpt lat="36.6883964538574" lon="-5.00359106063843">
        <ele>1722.32055664062</ele>
        <time>2018-07-28T06:56:25Z</time>
      </trkpt>
      <trkpt lat="36.688404083252" lon="-5.00359678268433">
        <ele>1722.28234863281</ele>
        <time>2018-07-28T06:56:26Z</time>
      </trkpt>
      <trkpt lat="36.6884117126465" lon="-5.0036039352417">
        <ele>1722.2490234375</ele>
        <time>2018-07-28T06:56:27Z</time>
      </trkpt>
      <trkpt lat="36.6884155273438" lon="-5.00360822677612">
        <ele>1722.23486328125</ele>
        <time>2018-07-28T06:56:28Z</time>
      </trkpt>
      <trkpt lat="36.688419342041" lon="-5.00361204147339">
        <ele>1722.22094726562</ele>
        <time>2018-07-28T06:56:29Z</time>
      </trkpt>
      <trkpt lat="36.688419342041" lon="-5.00361204147339">
        <ele>1722.22094726562</ele>
        <time>2018-07-28T06:56:30Z</time>
      </trkpt>
      <trkpt lat="36.6884231567383" lon="-5.00361204147339">
        <ele>1722.20129394531</ele>
        <time>2018-07-28T06:56:31Z</time>
      </trkpt>
      <trkpt lat="36.6884231567383" lon="-5.00361108779907">
        <ele>1722.19958496094</ele>
        <time>2018-07-28T06:56:32Z</time>
      </trkpt>
      <trkpt lat="36.6884231567383" lon="-5.00361108779907">
        <ele>1722.19958496094</ele>
        <time>2018-07-28T06:56:33Z</time>
      </trkpt>
      <trkpt lat="36.6884231567383" lon="-5.00361013412476">
        <ele>1722.19787597656</ele>
        <time>2018-07-28T06:56:34Z</time>
      </trkpt>
      <trkpt lat="36.6884231567383" lon="-5.00361013412476">
        <ele>1722.19787597656</ele>
        <time>2018-07-28T06:56:35Z</time>
      </trkpt>
      <trkpt lat="36.6884231567383" lon="-5.00361108779907">
        <ele>1722.19958496094</ele>
        <time>2018-07-28T06:56:36Z</time>
      </trkpt>
      <trkpt lat="36.6884269714356" lon="-5.00361204147339">
        <ele>1722.18151855469</ele>
        <time>2018-07-28T06:56:37Z</time>
      </trkpt>
      <trkpt lat="36.6884307861328" lon="-5.00361204147339">
        <ele>1722.16174316406</ele>
        <time>2018-07-28T06:56:38Z</time>
      </trkpt>
      <trkpt lat="36.6884346008301" lon="-5.00361204147339">
        <ele>1722.14208984375</ele>
        <time>2018-07-28T06:56:39Z</time>
      </trkpt>
      <trkpt lat="36.6884346008301" lon="-5.00361204147339">
        <ele>1722.14208984375</ele>
        <time>2018-07-28T06:56:40Z</time>
      </trkpt>
      <trkpt lat="36.6884346008301" lon="-5.00361108779907">
        <ele>1722.14001464844</ele>
        <time>2018-07-28T06:56:41Z</time>
      </trkpt>
      <trkpt lat="36.6884346008301" lon="-5.00361108779907">
        <ele>1722.14001464844</ele>
        <time>2018-07-28T06:56:42Z</time>
      </trkpt>
      <trkpt lat="36.6884346008301" lon="-5.00361013412476">
        <ele>1722.13793945312</ele>
        <time>2018-07-28T06:56:43Z</time>
      </trkpt>
      <trkpt lat="36.6884346008301" lon="-5.00361013412476">
        <ele>1722.13793945312</ele>
        <time>2018-07-28T06:56:44Z</time>
      </trkpt>
      <trkpt lat="36.6884346008301" lon="-5.00360918045044">
        <ele>1722.13586425781</ele>
        <time>2018-07-28T06:56:45Z</time>
      </trkpt>
      <trkpt lat="36.6884346008301" lon="-5.00360918045044">
        <ele>1722.13586425781</ele>
        <time>2018-07-28T06:56:46Z</time>
      </trkpt>
      <trkpt lat="36.6884346008301" lon="-5.00361013412476">
        <ele>1722.13793945312</ele>
        <time>2018-07-28T06:56:47Z</time>
      </trkpt>
      <trkpt lat="36.6884346008301" lon="-5.00361013412476">
        <ele>1722.13793945312</ele>
        <time>2018-07-28T06:56:48Z</time>
      </trkpt>
      <trkpt lat="36.6884346008301" lon="-5.00361204147339">
        <ele>1722.14208984375</ele>
        <time>2018-07-28T06:56:49Z</time>
      </trkpt>
      <trkpt lat="36.6884346008301" lon="-5.00361394882202">
        <ele>1722.14624023438</ele>
        <time>2018-07-28T06:56:50Z</time>
      </trkpt>
      <trkpt lat="36.6884346008301" lon="-5.00361776351929">
        <ele>1722.15441894531</ele>
        <time>2018-07-28T06:56:51Z</time>
      </trkpt>
      <trkpt lat="36.6884384155273" lon="-5.00362300872803">
        <ele>1722.14733886719</ele>
        <time>2018-07-28T06:56:52Z</time>
      </trkpt>
      <trkpt lat="36.6884422302246" lon="-5.00362682342529">
        <ele>1722.13818359375</ele>
        <time>2018-07-28T06:56:53Z</time>
      </trkpt>
      <trkpt lat="36.6884460449219" lon="-5.0036301612854">
        <ele>1722.12878417969</ele>
        <time>2018-07-28T06:56:54Z</time>
      </trkpt>
      <trkpt lat="36.6884498596191" lon="-5.00363111495972">
        <ele>1722.11389160156</ele>
        <time>2018-07-28T06:56:55Z</time>
      </trkpt>
      <trkpt lat="36.6884536743164" lon="-5.00363302230835">
        <ele>1722.10192871094</ele>
        <time>2018-07-28T06:56:56Z</time>
      </trkpt>
      <trkpt lat="36.6884536743164" lon="-5.00363397598267">
        <ele>1722.10461425781</ele>
        <time>2018-07-28T06:56:57Z</time>
      </trkpt>
      <trkpt lat="36.6884574890137" lon="-5.00363683700562">
        <ele>1722.09594726562</ele>
        <time>2018-07-28T06:56:58Z</time>
      </trkpt>
      <trkpt lat="36.6884613037109" lon="-5.00364112854004">
        <ele>1722.09240722656</ele>
        <time>2018-07-28T06:56:59Z</time>
      </trkpt>
      <trkpt lat="36.6884651184082" lon="-5.00364589691162">
        <ele>1722.09143066406</ele>
        <time>2018-07-28T06:57:00Z</time>
      </trkpt>
      <trkpt lat="36.6884727478027" lon="-5.00365018844604">
        <ele>1722.0751953125</ele>
        <time>2018-07-28T06:57:01Z</time>
      </trkpt>
      <trkpt lat="36.6884803771973" lon="-5.00365495681763">
        <ele>1722.06298828125</ele>
        <time>2018-07-28T06:57:02Z</time>
      </trkpt>
      <trkpt lat="36.6884880065918" lon="-5.00365686416626">
        <ele>1722.04187011719</ele>
        <time>2018-07-28T06:57:03Z</time>
      </trkpt>
      <trkpt lat="36.6884880065918" lon="-5.00366115570068">
        <ele>1722.05871582031</ele>
        <time>2018-07-28T06:57:04Z</time>
      </trkpt>
      <trkpt lat="36.6884918212891" lon="-5.00366306304932">
        <ele>1722.05285644531</ele>
        <time>2018-07-28T06:57:05Z</time>
      </trkpt>
      <trkpt lat="36.6884994506836" lon="-5.0036678314209">
        <ele>1722.046875</ele>
        <time>2018-07-28T06:57:06Z</time>
      </trkpt>
      <trkpt lat="36.6885032653809" lon="-5.00367307662964">
        <ele>1722.05737304688</ele>
        <time>2018-07-28T06:57:07Z</time>
      </trkpt>
      <trkpt lat="36.6885108947754" lon="-5.00368022918701">
        <ele>1722.06689453125</ele>
        <time>2018-07-28T06:57:08Z</time>
      </trkpt>
      <trkpt lat="36.6885185241699" lon="-5.00368881225586">
        <ele>1722.08703613281</ele>
        <time>2018-07-28T06:57:09Z</time>
      </trkpt>
      <trkpt lat="36.6885223388672" lon="-5.00369691848755">
        <ele>1722.11804199219</ele>
        <time>2018-07-28T06:57:10Z</time>
      </trkpt>
      <trkpt lat="36.6885299682617" lon="-5.00370597839356">
        <ele>1722.14819335938</ele>
        <time>2018-07-28T06:57:11Z</time>
      </trkpt>
      <trkpt lat="36.688533782959" lon="-5.00371313095093">
        <ele>1722.17919921875</ele>
        <time>2018-07-28T06:57:12Z</time>
      </trkpt>
      <trkpt lat="36.6885414123535" lon="-5.00371694564819">
        <ele>1722.18701171875</ele>
        <time>2018-07-28T06:57:13Z</time>
      </trkpt>
      <trkpt lat="36.6885414123535" lon="-5.00371694564819">
        <ele>1722.18701171875</ele>
        <time>2018-07-28T06:57:14Z</time>
      </trkpt>
      <trkpt lat="36.6885414123535" lon="-5.00371789932251">
        <ele>1722.19250488281</ele>
        <time>2018-07-28T06:57:15Z</time>
      </trkpt>
      <trkpt lat="36.6885414123535" lon="-5.00371980667114">
        <ele>1722.20324707031</ele>
        <time>2018-07-28T06:57:16Z</time>
      </trkpt>
      <trkpt lat="36.6885414123535" lon="-5.00372314453125">
        <ele>1722.22229003906</ele>
        <time>2018-07-28T06:57:17Z</time>
      </trkpt>
      <trkpt lat="36.6885452270508" lon="-5.0037260055542">
        <ele>1722.23327636719</ele>
        <time>2018-07-28T06:57:18Z</time>
      </trkpt>
      <trkpt lat="36.688549041748" lon="-5.00373077392578">
        <ele>1722.25634765625</ele>
        <time>2018-07-28T06:57:19Z</time>
      </trkpt>
      <trkpt lat="36.6885566711426" lon="-5.00373792648315">
        <ele>1722.29113769531</ele>
        <time>2018-07-28T06:57:20Z</time>
      </trkpt>
      <trkpt lat="36.6885604858398" lon="-5.00374698638916">
        <ele>1722.34460449219</ele>
        <time>2018-07-28T06:57:21Z</time>
      </trkpt>
      <trkpt lat="36.6885643005371" lon="-5.00375604629517">
        <ele>1722.400390625</ele>
        <time>2018-07-28T06:57:22Z</time>
      </trkpt>
      <trkpt lat="36.6885719299316" lon="-5.00376415252686">
        <ele>1722.45166015625</ele>
        <time>2018-07-28T06:57:23Z</time>
      </trkpt>
      <trkpt lat="36.6885757446289" lon="-5.00377082824707">
        <ele>1722.49682617188</ele>
        <time>2018-07-28T06:57:24Z</time>
      </trkpt>
      <trkpt lat="36.6885833740234" lon="-5.00377798080444">
        <ele>1722.54809570312</ele>
        <time>2018-07-28T06:57:25Z</time>
      </trkpt>
      <trkpt lat="36.6885871887207" lon="-5.00378608703613">
        <ele>1722.60778808594</ele>
        <time>2018-07-28T06:57:26Z</time>
      </trkpt>
      <trkpt lat="36.6885948181152" lon="-5.00379514694214">
        <ele>1722.67993164062</ele>
        <time>2018-07-28T06:57:27Z</time>
      </trkpt>
      <trkpt lat="36.6886024475098" lon="-5.00380420684814">
        <ele>1722.75659179688</ele>
        <time>2018-07-28T06:57:28Z</time>
      </trkpt>
      <trkpt lat="36.688606262207" lon="-5.00381422042847">
        <ele>1722.83972167969</ele>
        <time>2018-07-28T06:57:29Z</time>
      </trkpt>
      <trkpt lat="36.6886138916016" lon="-5.00382280349731">
        <ele>1722.92077636719</ele>
        <time>2018-07-28T06:57:30Z</time>
      </trkpt>
      <trkpt lat="36.6886215209961" lon="-5.00383186340332">
        <ele>1723.01025390625</ele>
        <time>2018-07-28T06:57:31Z</time>
      </trkpt>
      <trkpt lat="36.6886291503906" lon="-5.00384092330933">
        <ele>1723.10424804688</ele>
        <time>2018-07-28T06:57:32Z</time>
      </trkpt>
      <trkpt lat="36.6886367797852" lon="-5.00384998321533">
        <ele>1723.20275878906</ele>
        <time>2018-07-28T06:57:33Z</time>
      </trkpt>
      <trkpt lat="36.6886405944824" lon="-5.00385999679565">
        <ele>1723.30297851562</ele>
        <time>2018-07-28T06:57:34Z</time>
      </trkpt>
      <trkpt lat="36.6886444091797" lon="-5.00386810302734">
        <ele>1723.38842773438</ele>
        <time>2018-07-28T06:57:35Z</time>
      </trkpt>
      <trkpt lat="36.688648223877" lon="-5.00387620925903">
        <ele>1723.47583007812</ele>
        <time>2018-07-28T06:57:36Z</time>
      </trkpt>
      <trkpt lat="36.6886558532715" lon="-5.00388479232788">
        <ele>1723.58459472656</ele>
        <time>2018-07-28T06:57:37Z</time>
      </trkpt>
      <trkpt lat="36.688663482666" lon="-5.0038948059082">
        <ele>1723.71154785156</ele>
        <time>2018-07-28T06:57:38Z</time>
      </trkpt>
      <trkpt lat="36.6886672973633" lon="-5.00390386581421">
        <ele>1723.81689453125</ele>
        <time>2018-07-28T06:57:39Z</time>
      </trkpt>
      <trkpt lat="36.6886749267578" lon="-5.00391292572022">
        <ele>1723.94274902344</ele>
        <time>2018-07-28T06:57:40Z</time>
      </trkpt>
      <trkpt lat="36.6886825561523" lon="-5.00392293930054">
        <ele>1724.08325195312</ele>
        <time>2018-07-28T06:57:41Z</time>
      </trkpt>
      <trkpt lat="36.6886863708496" lon="-5.00393295288086">
        <ele>1724.20788574219</ele>
        <time>2018-07-28T06:57:42Z</time>
      </trkpt>
      <trkpt lat="36.6886901855469" lon="-5.00394296646118">
        <ele>1724.3349609375</ele>
        <time>2018-07-28T06:57:43Z</time>
      </trkpt>
      <trkpt lat="36.6886978149414" lon="-5.00395202636719">
        <ele>1724.47766113281</ele>
        <time>2018-07-28T06:57:44Z</time>
      </trkpt>
      <trkpt lat="36.6887016296387" lon="-5.00396203994751">
        <ele>1724.61108398438</ele>
        <time>2018-07-28T06:57:45Z</time>
      </trkpt>
      <trkpt lat="36.6887054443359" lon="-5.00397205352783">
        <ele>1724.74694824219</ele>
        <time>2018-07-28T06:57:46Z</time>
      </trkpt>
      <trkpt lat="36.6887092590332" lon="-5.00398397445679">
        <ele>1724.90686035156</ele>
        <time>2018-07-28T06:57:47Z</time>
      </trkpt>
      <trkpt lat="36.6887092590332" lon="-5.00399494171143">
        <ele>1725.03015136719</ele>
        <time>2018-07-28T06:57:48Z</time>
      </trkpt>
      <trkpt lat="36.6887130737305" lon="-5.00400495529175">
        <ele>1725.17272949219</ele>
        <time>2018-07-28T06:57:49Z</time>
      </trkpt>
      <trkpt lat="36.688720703125" lon="-5.00401496887207">
        <ele>1725.34912109375</ele>
        <time>2018-07-28T06:57:50Z</time>
      </trkpt>
      <trkpt lat="36.6887245178223" lon="-5.00402498245239">
        <ele>1725.498046875</ele>
        <time>2018-07-28T06:57:51Z</time>
      </trkpt>
      <trkpt lat="36.6887283325195" lon="-5.00403594970703">
        <ele>1725.66076660156</ele>
        <time>2018-07-28T06:57:52Z</time>
      </trkpt>
      <trkpt lat="36.6887321472168" lon="-5.00404691696167">
        <ele>1725.82629394531</ele>
        <time>2018-07-28T06:57:53Z</time>
      </trkpt>
      <trkpt lat="36.6887321472168" lon="-5.00405788421631">
        <ele>1725.9580078125</ele>
        <time>2018-07-28T06:57:54Z</time>
      </trkpt>
      <trkpt lat="36.6887359619141" lon="-5.00406980514526">
        <ele>1726.13928222656</ele>
        <time>2018-07-28T06:57:55Z</time>
      </trkpt>
      <trkpt lat="36.6887397766113" lon="-5.00408220291138">
        <ele>1726.32946777344</ele>
        <time>2018-07-28T06:57:56Z</time>
      </trkpt>
      <trkpt lat="36.6887435913086" lon="-5.00409507751465">
        <ele>1726.52856445312</ele>
        <time>2018-07-28T06:57:57Z</time>
      </trkpt>
      <trkpt lat="36.6887474060059" lon="-5.00410509109497">
        <ele>1726.69519042969</ele>
        <time>2018-07-28T06:57:58Z</time>
      </trkpt>
      <trkpt lat="36.6887550354004" lon="-5.00411510467529">
        <ele>1726.908203125</ele>
        <time>2018-07-28T06:57:59Z</time>
      </trkpt>
      <trkpt lat="36.6887588500977" lon="-5.00412511825562">
        <ele>1727.08117675781</ele>
        <time>2018-07-28T06:58:00Z</time>
      </trkpt>
      <trkpt lat="36.6887664794922" lon="-5.00413513183594">
        <ele>1727.30297851562</ele>
        <time>2018-07-28T06:58:01Z</time>
      </trkpt>
      <trkpt lat="36.6887702941894" lon="-5.00414323806763">
        <ele>1727.45690917969</ele>
        <time>2018-07-28T06:58:02Z</time>
      </trkpt>
      <trkpt lat="36.6887741088867" lon="-5.00415086746216">
        <ele>1727.60656738281</ele>
        <time>2018-07-28T06:58:03Z</time>
      </trkpt>
      <trkpt lat="36.688777923584" lon="-5.00415897369385">
        <ele>1727.76452636719</ele>
        <time>2018-07-28T06:58:04Z</time>
      </trkpt>
      <trkpt lat="36.6887817382812" lon="-5.00416898727417">
        <ele>1727.91015625</ele>
        <time>2018-07-28T06:58:05Z</time>
      </trkpt>
      <trkpt lat="36.6887855529785" lon="-5.00417995452881">
        <ele>1727.91955566406</ele>
        <time>2018-07-28T06:58:06Z</time>
      </trkpt>
      <trkpt lat="36.688793182373" lon="-5.00418996810913">
        <ele>1727.98522949219</ele>
        <time>2018-07-28T06:58:07Z</time>
      </trkpt>
      <trkpt lat="36.6888008117676" lon="-5.00419902801514">
        <ele>1728.05615234375</ele>
        <time>2018-07-28T06:58:08Z</time>
      </trkpt>
      <trkpt lat="36.6888046264648" lon="-5.00420713424683">
        <ele>1728.07971191406</ele>
        <time>2018-07-28T06:58:09Z</time>
      </trkpt>
      <trkpt lat="36.6888122558594" lon="-5.00421619415283">
        <ele>1728.15368652344</ele>
        <time>2018-07-28T06:58:10Z</time>
      </trkpt>
      <trkpt lat="36.6888160705566" lon="-5.00422382354736">
        <ele>1728.18103027344</ele>
        <time>2018-07-28T06:58:11Z</time>
      </trkpt>
      <trkpt lat="36.6888236999512" lon="-5.00423288345337">
        <ele>1728.25793457031</ele>
        <time>2018-07-28T06:58:12Z</time>
      </trkpt>
      <trkpt lat="36.6888275146484" lon="-5.00424289703369">
        <ele>1728.27966308594</ele>
        <time>2018-07-28T06:58:13Z</time>
      </trkpt>
      <trkpt lat="36.6888313293457" lon="-5.00425291061401">
        <ele>1728.30224609375</ele>
        <time>2018-07-28T06:58:14Z</time>
      </trkpt>
      <trkpt lat="36.6888389587402" lon="-5.00426197052002">
        <ele>1728.38391113281</ele>
        <time>2018-07-28T06:58:15Z</time>
      </trkpt>
      <trkpt lat="36.6888427734375" lon="-5.00427103042603">
        <ele>1728.41174316406</ele>
        <time>2018-07-28T06:58:16Z</time>
      </trkpt>
      <trkpt lat="36.688850402832" lon="-5.00428009033203">
        <ele>1728.49658203125</ele>
        <time>2018-07-28T06:58:17Z</time>
      </trkpt>
      <trkpt lat="36.6888542175293" lon="-5.00429105758667">
        <ele>1728.52124023438</ele>
        <time>2018-07-28T06:58:18Z</time>
      </trkpt>
      <trkpt lat="36.6888618469238" lon="-5.00430202484131">
        <ele>1728.60412597656</ele>
        <time>2018-07-28T06:58:19Z</time>
      </trkpt>
      <trkpt lat="36.6888694763184" lon="-5.00431299209595">
        <ele>1728.68908691406</ele>
        <time>2018-07-28T06:58:20Z</time>
      </trkpt>
      <trkpt lat="36.6888732910156" lon="-5.00432109832764">
        <ele>1728.7255859375</ele>
        <time>2018-07-28T06:58:21Z</time>
      </trkpt>
      <trkpt lat="36.6888809204102" lon="-5.00433015823364">
        <ele>1728.81884765625</ele>
        <time>2018-07-28T06:58:22Z</time>
      </trkpt>
      <trkpt lat="36.6888885498047" lon="-5.00433921813965">
        <ele>1728.91394042969</ele>
        <time>2018-07-28T06:58:23Z</time>
      </trkpt>
      <trkpt lat="36.688892364502" lon="-5.0043478012085">
        <ele>1728.95263671875</ele>
        <time>2018-07-28T06:58:24Z</time>
      </trkpt>
      <trkpt lat="36.688892364502" lon="-5.0043568611145">
        <ele>1728.93127441406</ele>
        <time>2018-07-28T06:58:25Z</time>
      </trkpt>
      <trkpt lat="36.6888961791992" lon="-5.00436687469482">
        <ele>1728.96801757812</ele>
        <time>2018-07-28T06:58:26Z</time>
      </trkpt>
      <trkpt lat="36.6888999938965" lon="-5.00437879562378">
        <ele>1729.00134277344</ele>
        <time>2018-07-28T06:58:27Z</time>
      </trkpt>
      <trkpt lat="36.688907623291" lon="-5.00439119338989">
        <ele>1729.09631347656</ele>
        <time>2018-07-28T06:58:28Z</time>
      </trkpt>
      <trkpt lat="36.688907623291" lon="-5.00440311431885">
        <ele>1729.07055664062</ele>
        <time>2018-07-28T06:58:29Z</time>
      </trkpt>
      <trkpt lat="36.6889114379883" lon="-5.0044150352478">
        <ele>1729.107421875</ele>
        <time>2018-07-28T06:58:30Z</time>
      </trkpt>
      <trkpt lat="36.6889152526856" lon="-5.00442600250244">
        <ele>1729.14758300781</ele>
        <time>2018-07-28T06:58:31Z</time>
      </trkpt>
      <trkpt lat="36.6889190673828" lon="-5.00443696975708">
        <ele>1729.18872070312</ele>
        <time>2018-07-28T06:58:32Z</time>
      </trkpt>
      <trkpt lat="36.6889228820801" lon="-5.00444984436035">
        <ele>1729.22717285156</ele>
        <time>2018-07-28T06:58:33Z</time>
      </trkpt>
      <trkpt lat="36.6889266967773" lon="-5.00446176528931">
        <ele>1729.26879882812</ele>
        <time>2018-07-28T06:58:34Z</time>
      </trkpt>
      <trkpt lat="36.6889305114746" lon="-5.0044732093811">
        <ele>1729.31237792969</ele>
        <time>2018-07-28T06:58:35Z</time>
      </trkpt>
      <trkpt lat="36.6889343261719" lon="-5.00448417663574">
        <ele>1729.35803222656</ele>
        <time>2018-07-28T06:58:36Z</time>
      </trkpt>
      <trkpt lat="36.6889381408691" lon="-5.00449514389038">
        <ele>1729.40478515625</ele>
        <time>2018-07-28T06:58:37Z</time>
      </trkpt>
      <trkpt lat="36.6889381408691" lon="-5.00450611114502">
        <ele>1729.38549804688</ele>
        <time>2018-07-28T06:58:38Z</time>
      </trkpt>
      <trkpt lat="36.6889457702637" lon="-5.00451898574829">
        <ele>1729.49829101562</ele>
        <time>2018-07-28T06:58:39Z</time>
      </trkpt>
      <trkpt lat="36.6889495849609" lon="-5.00453090667725">
        <ele>1729.546875</ele>
        <time>2018-07-28T06:58:40Z</time>
      </trkpt>
      <trkpt lat="36.6889533996582" lon="-5.00454187393188">
        <ele>1729.59802246094</ele>
        <time>2018-07-28T06:58:41Z</time>
      </trkpt>
      <trkpt lat="36.6889533996582" lon="-5.00455188751221">
        <ele>1729.58239746094</ele>
        <time>2018-07-28T06:58:42Z</time>
      </trkpt>
      <trkpt lat="36.6889572143555" lon="-5.00456285476685">
        <ele>1729.63525390625</ele>
        <time>2018-07-28T06:58:43Z</time>
      </trkpt>
      <trkpt lat="36.6889572143555" lon="-5.0045747756958">
        <ele>1729.6171875</ele>
        <time>2018-07-28T06:58:44Z</time>
      </trkpt>
      <trkpt lat="36.68896484375" lon="-5.00458717346191">
        <ele>1729.74060058594</ele>
        <time>2018-07-28T06:58:45Z</time>
      </trkpt>
      <trkpt lat="36.68896484375" lon="-5.00459909439087">
        <ele>1729.72375488281</ele>
        <time>2018-07-28T06:58:46Z</time>
      </trkpt>
      <trkpt lat="36.6889686584473" lon="-5.00460910797119">
        <ele>1729.78186035156</ele>
        <time>2018-07-28T06:58:47Z</time>
      </trkpt>
      <trkpt lat="36.6889724731445" lon="-5.00461912155151">
        <ele>1729.8408203125</ele>
        <time>2018-07-28T06:58:48Z</time>
      </trkpt>
      <trkpt lat="36.6889762878418" lon="-5.00463008880615">
        <ele>1729.89965820312</ele>
        <time>2018-07-28T06:58:49Z</time>
      </trkpt>
      <trkpt lat="36.6889801025391" lon="-5.00464105606079">
        <ele>1729.95959472656</ele>
        <time>2018-07-28T06:58:50Z</time>
      </trkpt>
      <trkpt lat="36.6889839172363" lon="-5.00465106964111">
        <ele>1730.02172851562</ele>
        <time>2018-07-28T06:58:51Z</time>
      </trkpt>
      <trkpt lat="36.6889877319336" lon="-5.0046591758728">
        <ele>1730.0869140625</ele>
        <time>2018-07-28T06:58:52Z</time>
      </trkpt>
      <trkpt lat="36.6889915466309" lon="-5.00466680526733">
        <ele>1730.15344238281</ele>
        <time>2018-07-28T06:58:53Z</time>
      </trkpt>
      <trkpt lat="36.6889915466309" lon="-5.00467681884766">
        <ele>1730.14282226562</ele>
        <time>2018-07-28T06:58:54Z</time>
      </trkpt>
      <trkpt lat="36.6889915466309" lon="-5.00468683242798">
        <ele>1730.13208007812</ele>
        <time>2018-07-28T06:58:55Z</time>
      </trkpt>
      <trkpt lat="36.6889953613281" lon="-5.00469493865967">
        <ele>1730.19982910156</ele>
        <time>2018-07-28T06:58:56Z</time>
      </trkpt>
      <trkpt lat="36.6889953613281" lon="-5.00470209121704">
        <ele>1730.19262695312</ele>
        <time>2018-07-28T06:58:57Z</time>
      </trkpt>
      <trkpt lat="36.6889953613281" lon="-5.00470876693726">
        <ele>1730.18579101562</ele>
        <time>2018-07-28T06:58:58Z</time>
      </trkpt>
      <trkpt lat="36.6889953613281" lon="-5.00471782684326">
        <ele>1730.17651367188</ele>
        <time>2018-07-28T06:58:59Z</time>
      </trkpt>
      <trkpt lat="36.6889953613281" lon="-5.0047287940979">
        <ele>1730.16528320312</ele>
        <time>2018-07-28T06:59:00Z</time>
      </trkpt>
      <trkpt lat="36.6889991760254" lon="-5.00473880767822">
        <ele>1730.23376464844</ele>
        <time>2018-07-28T06:59:01Z</time>
      </trkpt>
      <trkpt lat="36.6890068054199" lon="-5.00474882125854">
        <ele>1730.38232421875</ele>
        <time>2018-07-28T06:59:02Z</time>
      </trkpt>
      <trkpt lat="36.6890106201172" lon="-5.00475788116455">
        <ele>1730.45397949219</ele>
        <time>2018-07-28T06:59:03Z</time>
      </trkpt>
      <trkpt lat="36.6890144348144" lon="-5.00476789474487">
        <ele>1730.52587890625</ele>
        <time>2018-07-28T06:59:04Z</time>
      </trkpt>
      <trkpt lat="36.6890182495117" lon="-5.00477695465088">
        <ele>1730.59936523438</ele>
        <time>2018-07-28T06:59:05Z</time>
      </trkpt>
      <trkpt lat="36.6890258789062" lon="-5.00478506088257">
        <ele>1730.75537109375</ele>
        <time>2018-07-28T06:59:06Z</time>
      </trkpt>
      <trkpt lat="36.6890296936035" lon="-5.00479221343994">
        <ele>1730.83215332031</ele>
        <time>2018-07-28T06:59:07Z</time>
      </trkpt>
      <trkpt lat="36.6890335083008" lon="-5.00479984283447">
        <ele>1730.90942382812</ele>
        <time>2018-07-28T06:59:08Z</time>
      </trkpt>
      <trkpt lat="36.6890335083008" lon="-5.00480699539185">
        <ele>1730.90563964844</ele>
        <time>2018-07-28T06:59:09Z</time>
      </trkpt>
      <trkpt lat="36.689037322998" lon="-5.00481510162354">
        <ele>1730.98376464844</ele>
        <time>2018-07-28T06:59:10Z</time>
      </trkpt>
      <trkpt lat="36.6890411376953" lon="-5.00482416152954">
        <ele>1731.06237792969</ele>
        <time>2018-07-28T06:59:11Z</time>
      </trkpt>
      <trkpt lat="36.6890449523926" lon="-5.00483322143555">
        <ele>1731.14184570312</ele>
        <time>2018-07-28T06:59:12Z</time>
      </trkpt>
      <trkpt lat="36.6890525817871" lon="-5.00484085083008">
        <ele>1731.30627441406</ele>
        <time>2018-07-28T06:59:13Z</time>
      </trkpt>
      <trkpt lat="36.6890563964844" lon="-5.00484895706177">
        <ele>1731.38806152344</ele>
        <time>2018-07-28T06:59:14Z</time>
      </trkpt>
      <trkpt lat="36.6890640258789" lon="-5.00485515594482">
        <ele>1731.55554199219</ele>
        <time>2018-07-28T06:59:15Z</time>
      </trkpt>
      <trkpt lat="36.6890716552734" lon="-5.00485897064209">
        <ele>1731.72412109375</ele>
        <time>2018-07-28T06:59:16Z</time>
      </trkpt>
      <trkpt lat="36.6890830993652" lon="-5.00486183166504">
        <ele>1731.97827148438</ele>
        <time>2018-07-28T06:59:17Z</time>
      </trkpt>
      <trkpt lat="36.689094543457" lon="-5.00486421585083">
        <ele>1732.23303222656</ele>
        <time>2018-07-28T06:59:18Z</time>
      </trkpt>
      <trkpt lat="36.6891021728516" lon="-5.00486898422241">
        <ele>1732.40441894531</ele>
        <time>2018-07-28T06:59:19Z</time>
      </trkpt>
      <trkpt lat="36.6891098022461" lon="-5.00487804412842">
        <ele>1732.57873535156</ele>
        <time>2018-07-28T06:59:20Z</time>
      </trkpt>
      <trkpt lat="36.6891136169434" lon="-5.00488901138306">
        <ele>1732.669921875</ele>
        <time>2018-07-28T06:59:21Z</time>
      </trkpt>
      <trkpt lat="36.6891212463379" lon="-5.0048999786377">
        <ele>1732.84875488281</ele>
        <time>2018-07-28T06:59:22Z</time>
      </trkpt>
      <trkpt lat="36.6891288757324" lon="-5.00490808486938">
        <ele>1733.02770996094</ele>
        <time>2018-07-28T06:59:23Z</time>
      </trkpt>
      <trkpt lat="36.6891326904297" lon="-5.00491523742676">
        <ele>1733.12023925781</ele>
        <time>2018-07-28T06:59:24Z</time>
      </trkpt>
      <trkpt lat="36.6891403198242" lon="-5.00492095947266">
        <ele>1733.2998046875</ele>
        <time>2018-07-28T06:59:25Z</time>
      </trkpt>
      <trkpt lat="36.6891479492188" lon="-5.0049262046814">
        <ele>1733.48010253906</ele>
        <time>2018-07-28T06:59:26Z</time>
      </trkpt>
      <trkpt lat="36.6891555786133" lon="-5.00493001937866">
        <ele>1733.65991210938</ele>
        <time>2018-07-28T06:59:27Z</time>
      </trkpt>
      <trkpt lat="36.6891593933106" lon="-5.00493288040161">
        <ele>1733.75122070312</ele>
        <time>2018-07-28T06:59:28Z</time>
      </trkpt>
      <trkpt lat="36.6891670227051" lon="-5.00493812561035">
        <ele>1733.93041992188</ele>
        <time>2018-07-28T06:59:29Z</time>
      </trkpt>
      <trkpt lat="36.6891746520996" lon="-5.00494384765625">
        <ele>1734.03857421875</ele>
        <time>2018-07-28T06:59:30Z</time>
      </trkpt>
      <trkpt lat="36.6891822814941" lon="-5.00494909286499">
        <ele>1734.14770507812</ele>
        <time>2018-07-28T06:59:31Z</time>
      </trkpt>
      <trkpt lat="36.6891899108887" lon="-5.00495290756226">
        <ele>1734.25610351562</ele>
        <time>2018-07-28T06:59:32Z</time>
      </trkpt>
      <trkpt lat="36.6891937255859" lon="-5.004958152771">
        <ele>1734.31665039062</ele>
        <time>2018-07-28T06:59:33Z</time>
      </trkpt>
      <trkpt lat="36.6892013549805" lon="-5.00496292114258">
        <ele>1734.42907714844</ele>
        <time>2018-07-28T06:59:34Z</time>
      </trkpt>
      <trkpt lat="36.689208984375" lon="-5.00497102737427">
        <ele>1734.54992675781</ele>
        <time>2018-07-28T06:59:35Z</time>
      </trkpt>
      <trkpt lat="36.6892166137695" lon="-5.00497817993164">
        <ele>1734.67114257812</ele>
        <time>2018-07-28T06:59:36Z</time>
      </trkpt>
      <trkpt lat="36.6892242431641" lon="-5.00498390197754">
        <ele>1734.79113769531</ele>
        <time>2018-07-28T06:59:37Z</time>
      </trkpt>
      <trkpt lat="36.6892356872559" lon="-5.00498819351196">
        <ele>1734.96325683594</ele>
        <time>2018-07-28T06:59:38Z</time>
      </trkpt>
      <trkpt lat="36.6892433166504" lon="-5.00499105453491">
        <ele>1735.07922363281</ele>
        <time>2018-07-28T06:59:39Z</time>
      </trkpt>
      <trkpt lat="36.6892509460449" lon="-5.00499391555786">
        <ele>1735.19592285156</ele>
        <time>2018-07-28T06:59:40Z</time>
      </trkpt>
      <trkpt lat="36.6892585754394" lon="-5.00499486923218">
        <ele>1735.30786132812</ele>
        <time>2018-07-28T06:59:41Z</time>
      </trkpt>
      <trkpt lat="36.6892623901367" lon="-5.00499820709228">
        <ele>1735.37280273438</ele>
        <time>2018-07-28T06:59:42Z</time>
      </trkpt>
      <trkpt lat="36.6892700195312" lon="-5.00500106811523">
        <ele>1735.47253417969</ele>
        <time>2018-07-28T06:59:43Z</time>
      </trkpt>
      <trkpt lat="36.6892776489258" lon="-5.0050048828125">
        <ele>1735.52661132812</ele>
        <time>2018-07-28T06:59:44Z</time>
      </trkpt>
      <trkpt lat="36.6892852783203" lon="-5.00501012802124">
        <ele>1735.56042480469</ele>
        <time>2018-07-28T06:59:45Z</time>
      </trkpt>
      <trkpt lat="36.6892929077148" lon="-5.00501585006714">
        <ele>1735.587890625</ele>
        <time>2018-07-28T06:59:46Z</time>
      </trkpt>
      <trkpt lat="36.6893005371094" lon="-5.0050220489502">
        <ele>1735.60925292969</ele>
        <time>2018-07-28T06:59:47Z</time>
      </trkpt>
      <trkpt lat="36.6893081665039" lon="-5.00502681732178">
        <ele>1735.65197753906</ele>
        <time>2018-07-28T06:59:48Z</time>
      </trkpt>
      <trkpt lat="36.6893157958984" lon="-5.0050311088562">
        <ele>1735.70227050781</ele>
        <time>2018-07-28T06:59:49Z</time>
      </trkpt>
      <trkpt lat="36.689323425293" lon="-5.00503301620483">
        <ele>1735.78698730469</ele>
        <time>2018-07-28T06:59:50Z</time>
      </trkpt>
      <trkpt lat="36.6893310546875" lon="-5.00503396987915">
        <ele>1735.88549804688</ele>
        <time>2018-07-28T06:59:51Z</time>
      </trkpt>
      <trkpt lat="36.689338684082" lon="-5.0050368309021">
        <ele>1735.95727539062</ele>
        <time>2018-07-28T06:59:52Z</time>
      </trkpt>
      <trkpt lat="36.6893501281738" lon="-5.00504207611084">
        <ele>1736.05212402344</ele>
        <time>2018-07-28T06:59:53Z</time>
      </trkpt>
      <trkpt lat="36.6893577575684" lon="-5.00504589080811">
        <ele>1736.11157226562</ele>
        <time>2018-07-28T06:59:54Z</time>
      </trkpt>
      <trkpt lat="36.6893653869629" lon="-5.00505208969116">
        <ele>1736.13842773438</ele>
        <time>2018-07-28T06:59:55Z</time>
      </trkpt>
      <trkpt lat="36.6893768310547" lon="-5.00505590438843">
        <ele>1736.25573730469</ele>
        <time>2018-07-28T06:59:56Z</time>
      </trkpt>
      <trkpt lat="36.6893844604492" lon="-5.00506019592285">
        <ele>1736.31042480469</ele>
        <time>2018-07-28T06:59:57Z</time>
      </trkpt>
      <trkpt lat="36.6893920898438" lon="-5.00506401062012">
        <ele>1736.37219238281</ele>
        <time>2018-07-28T06:59:58Z</time>
      </trkpt>
      <trkpt lat="36.6894035339356" lon="-5.00506782531738">
        <ele>1736.49157714844</ele>
        <time>2018-07-28T06:59:59Z</time>
      </trkpt>
      <trkpt lat="36.6894111633301" lon="-5.00507211685181">
        <ele>1736.54809570312</ele>
        <time>2018-07-28T07:00:00Z</time>
      </trkpt>
      <trkpt lat="36.6894187927246" lon="-5.00507593154907">
        <ele>1736.61145019531</ele>
        <time>2018-07-28T07:00:01Z</time>
      </trkpt>
      <trkpt lat="36.6894302368164" lon="-5.0050802230835">
        <ele>1736.7265625</ele>
        <time>2018-07-28T07:00:02Z</time>
      </trkpt>
      <trkpt lat="36.6894378662109" lon="-5.00508403778076">
        <ele>1736.79113769531</ele>
        <time>2018-07-28T07:00:03Z</time>
      </trkpt>
      <trkpt lat="36.6894454956055" lon="-5.00508880615234">
        <ele>1736.84375</ele>
        <time>2018-07-28T07:00:04Z</time>
      </trkpt>
      <trkpt lat="36.689453125" lon="-5.00509405136108">
        <ele>1736.890625</ele>
        <time>2018-07-28T07:00:05Z</time>
      </trkpt>
      <trkpt lat="36.6894645690918" lon="-5.00509786605835">
        <ele>1737.01501464844</ele>
        <time>2018-07-28T07:00:06Z</time>
      </trkpt>
      <trkpt lat="36.6894721984863" lon="-5.00510215759277">
        <ele>1737.07568359375</ele>
        <time>2018-07-28T07:00:07Z</time>
      </trkpt>
      <trkpt lat="36.6894836425781" lon="-5.00510597229004">
        <ele>1737.20153808594</ele>
        <time>2018-07-28T07:00:08Z</time>
      </trkpt>
      <trkpt lat="36.6894912719727" lon="-5.0051097869873">
        <ele>1737.26953125</ele>
        <time>2018-07-28T07:00:09Z</time>
      </trkpt>
      <trkpt lat="36.6894989013672" lon="-5.00511407852173">
        <ele>1737.33203125</ele>
        <time>2018-07-28T07:00:10Z</time>
      </trkpt>
      <trkpt lat="36.6895065307617" lon="-5.00511789321899">
        <ele>1737.40112304688</ele>
        <time>2018-07-28T07:00:11Z</time>
      </trkpt>
      <trkpt lat="36.6895141601562" lon="-5.0051212310791">
        <ele>1737.47668457031</ele>
        <time>2018-07-28T07:00:12Z</time>
      </trkpt>
      <trkpt lat="36.6895217895508" lon="-5.00512313842773">
        <ele>1737.57067871094</ele>
        <time>2018-07-28T07:00:13Z</time>
      </trkpt>
      <trkpt lat="36.6895294189453" lon="-5.00512599945068">
        <ele>1737.65295410156</ele>
        <time>2018-07-28T07:00:14Z</time>
      </trkpt>
      <trkpt lat="36.6895408630371" lon="-5.00512790679932">
        <ele>1737.806640625</ele>
        <time>2018-07-28T07:00:15Z</time>
      </trkpt>
      <trkpt lat="36.6895484924316" lon="-5.00513076782227">
        <ele>1737.88977050781</ele>
        <time>2018-07-28T07:00:16Z</time>
      </trkpt>
      <trkpt lat="36.6895561218262" lon="-5.00513410568237">
        <ele>1737.96740722656</ele>
        <time>2018-07-28T07:00:17Z</time>
      </trkpt>
      <trkpt lat="36.6895637512207" lon="-5.00513792037964">
        <ele>1738.03967285156</ele>
        <time>2018-07-28T07:00:18Z</time>
      </trkpt>
      <trkpt lat="36.6895713806152" lon="-5.00514316558838">
        <ele>1738.09509277344</ele>
        <time>2018-07-28T07:00:19Z</time>
      </trkpt>
      <trkpt lat="36.6895790100098" lon="-5.00514602661133">
        <ele>1738.17993164062</ele>
        <time>2018-07-28T07:00:20Z</time>
      </trkpt>
      <trkpt lat="36.6895866394043" lon="-5.00514888763428">
        <ele>1738.26525878906</ele>
        <time>2018-07-28T07:00:21Z</time>
      </trkpt>
      <trkpt lat="36.6895942687988" lon="-5.00515222549438">
        <ele>1738.34509277344</ele>
        <time>2018-07-28T07:00:22Z</time>
      </trkpt>
      <trkpt lat="36.6896018981934" lon="-5.00515508651733">
        <ele>1738.43115234375</ele>
        <time>2018-07-28T07:00:23Z</time>
      </trkpt>
      <trkpt lat="36.6896095275879" lon="-5.00515794754028">
        <ele>1738.517578125</ele>
        <time>2018-07-28T07:00:24Z</time>
      </trkpt>
      <trkpt lat="36.6896133422852" lon="-5.00516080856323">
        <ele>1738.54406738281</ele>
        <time>2018-07-28T07:00:25Z</time>
      </trkpt>
      <trkpt lat="36.6896209716797" lon="-5.00516414642334">
        <ele>1738.62561035156</ele>
        <time>2018-07-28T07:00:26Z</time>
      </trkpt>
      <trkpt lat="36.689624786377" lon="-5.00516796112061">
        <ele>1738.6416015625</ele>
        <time>2018-07-28T07:00:27Z</time>
      </trkpt>
      <trkpt lat="36.6896324157715" lon="-5.00517177581787">
        <ele>1738.71826171875</ele>
        <time>2018-07-28T07:00:28Z</time>
      </trkpt>
      <trkpt lat="36.6896362304688" lon="-5.00517511367798">
        <ele>1738.74035644531</ele>
        <time>2018-07-28T07:00:29Z</time>
      </trkpt>
      <trkpt lat="36.6896438598633" lon="-5.0051760673523">
        <ele>1738.85083007812</ele>
        <time>2018-07-28T07:00:30Z</time>
      </trkpt>
      <trkpt lat="36.6896476745606" lon="-5.00517797470093">
        <ele>1738.88977050781</ele>
        <time>2018-07-28T07:00:31Z</time>
      </trkpt>
      <trkpt lat="36.6896514892578" lon="-5.00518178939819">
        <ele>1738.90698242188</ele>
        <time>2018-07-28T07:00:32Z</time>
      </trkpt>
      <trkpt lat="36.6896591186523" lon="-5.00518703460693">
        <ele>1738.96936035156</ele>
        <time>2018-07-28T07:00:33Z</time>
      </trkpt>
      <trkpt lat="36.6896667480469" lon="-5.00519323348999">
        <ele>1739.02160644531</ele>
        <time>2018-07-28T07:00:34Z</time>
      </trkpt>
      <trkpt lat="36.6896743774414" lon="-5.00519895553589">
        <ele>1739.080078125</ele>
        <time>2018-07-28T07:00:35Z</time>
      </trkpt>
      <trkpt lat="36.6896781921387" lon="-5.00520515441894">
        <ele>1739.072265625</ele>
        <time>2018-07-28T07:00:36Z</time>
      </trkpt>
      <trkpt lat="36.6896858215332" lon="-5.00521087646484">
        <ele>1739.13208007812</ele>
        <time>2018-07-28T07:00:37Z</time>
      </trkpt>
      <trkpt lat="36.6896934509277" lon="-5.00521802902222">
        <ele>1739.1767578125</ele>
        <time>2018-07-28T07:00:38Z</time>
      </trkpt>
      <trkpt lat="36.6897010803223" lon="-5.00522518157959">
        <ele>1739.22241210938</ele>
        <time>2018-07-28T07:00:39Z</time>
      </trkpt>
      <trkpt lat="36.6897087097168" lon="-5.0052318572998">
        <ele>1739.27429199219</ele>
        <time>2018-07-28T07:00:40Z</time>
      </trkpt>
      <trkpt lat="36.6897163391113" lon="-5.00523710250854">
        <ele>1739.34252929688</ele>
        <time>2018-07-28T07:00:41Z</time>
      </trkpt>
      <trkpt lat="36.6897277832031" lon="-5.00524091720581">
        <ele>1739.48974609375</ele>
        <time>2018-07-28T07:00:42Z</time>
      </trkpt>
      <trkpt lat="36.6897354125977" lon="-5.00524091720581">
        <ele>1739.61547851562</ele>
        <time>2018-07-28T07:00:43Z</time>
      </trkpt>
      <trkpt lat="36.6897468566894" lon="-5.00524091720581">
        <ele>1739.80407714844</ele>
        <time>2018-07-28T07:00:44Z</time>
      </trkpt>
      <trkpt lat="36.689754486084" lon="-5.00523805618286">
        <ele>1739.9599609375</ele>
        <time>2018-07-28T07:00:45Z</time>
      </trkpt>
      <trkpt lat="36.6897659301758" lon="-5.00523614883423">
        <ele>1740.16821289062</ele>
        <time>2018-07-28T07:00:46Z</time>
      </trkpt>
      <trkpt lat="36.6897735595703" lon="-5.0052318572998">
        <ele>1740.33801269531</ele>
        <time>2018-07-28T07:00:47Z</time>
      </trkpt>
      <trkpt lat="36.6897850036621" lon="-5.00522804260254">
        <ele>1740.56494140625</ele>
        <time>2018-07-28T07:00:48Z</time>
      </trkpt>
      <trkpt lat="36.6897964477539" lon="-5.00522422790527">
        <ele>1740.791015625</ele>
        <time>2018-07-28T07:00:49Z</time>
      </trkpt>
      <trkpt lat="36.6898040771484" lon="-5.00521802902222">
        <ele>1740.97814941406</ele>
        <time>2018-07-28T07:00:50Z</time>
      </trkpt>
      <trkpt lat="36.689811706543" lon="-5.00521278381348">
        <ele>1741.15502929688</ele>
        <time>2018-07-28T07:00:51Z</time>
      </trkpt>
      <trkpt lat="36.6898155212402" lon="-5.00520801544189">
        <ele>1741.2646484375</ele>
        <time>2018-07-28T07:00:52Z</time>
      </trkpt>
      <trkpt lat="36.689826965332" lon="-5.00520515441894">
        <ele>1741.47827148438</ele>
        <time>2018-07-28T07:00:53Z</time>
      </trkpt>
      <trkpt lat="36.6898345947266" lon="-5.00520181655884">
        <ele>1741.63452148438</ele>
        <time>2018-07-28T07:00:54Z</time>
      </trkpt>
      <trkpt lat="36.6898422241211" lon="-5.0051999092102">
        <ele>1741.77624511719</ele>
        <time>2018-07-28T07:00:55Z</time>
      </trkpt>
      <trkpt lat="36.6898498535156" lon="-5.00519800186157">
        <ele>1741.91784667969</ele>
        <time>2018-07-28T07:00:56Z</time>
      </trkpt>
      <trkpt lat="36.6898574829102" lon="-5.00519704818726">
        <ele>1742.04992675781</ele>
        <time>2018-07-28T07:00:57Z</time>
      </trkpt>
      <trkpt lat="36.6898651123047" lon="-5.00519704818726">
        <ele>1742.17272949219</ele>
        <time>2018-07-28T07:00:58Z</time>
      </trkpt>
      <trkpt lat="36.6898727416992" lon="-5.00519609451294">
        <ele>1742.3046875</ele>
        <time>2018-07-28T07:00:59Z</time>
      </trkpt>
      <trkpt lat="36.6898803710938" lon="-5.00519514083862">
        <ele>1742.4365234375</ele>
        <time>2018-07-28T07:01:00Z</time>
      </trkpt>
      <trkpt lat="36.689884185791" lon="-5.00519514083862">
        <ele>1742.49780273438</ele>
        <time>2018-07-28T07:01:01Z</time>
      </trkpt>
      <trkpt lat="36.6898918151856" lon="-5.00519704818726">
        <ele>1742.60278320312</ele>
        <time>2018-07-28T07:01:02Z</time>
      </trkpt>
      <trkpt lat="36.6898956298828" lon="-5.00520086288452">
        <ele>1742.62866210938</ele>
        <time>2018-07-28T07:01:03Z</time>
      </trkpt>
      <trkpt lat="36.6898994445801" lon="-5.00520706176758">
        <ele>1742.6328125</ele>
        <time>2018-07-28T07:01:04Z</time>
      </trkpt>
      <trkpt lat="36.6899032592773" lon="-5.00521087646484">
        <ele>1742.65930175781</ele>
        <time>2018-07-28T07:01:05Z</time>
      </trkpt>
      <trkpt lat="36.6899070739746" lon="-5.00521421432495">
        <ele>1742.6904296875</ele>
        <time>2018-07-28T07:01:06Z</time>
      </trkpt>
      <trkpt lat="36.6899147033691" lon="-5.0052170753479">
        <ele>1742.78833007812</ele>
        <time>2018-07-28T07:01:07Z</time>
      </trkpt>
      <trkpt lat="36.6899223327637" lon="-5.00521993637085">
        <ele>1742.88659667969</ele>
        <time>2018-07-28T07:01:08Z</time>
      </trkpt>
      <trkpt lat="36.6899261474609" lon="-5.0052227973938">
        <ele>1742.9228515625</ele>
        <time>2018-07-28T07:01:09Z</time>
      </trkpt>
      <trkpt lat="36.6899337768555" lon="-5.00522422790527">
        <ele>1743.03454589844</ele>
        <time>2018-07-28T07:01:10Z</time>
      </trkpt>
      <trkpt lat="36.68994140625" lon="-5.00522518157959">
        <ele>1743.15075683594</ele>
        <time>2018-07-28T07:01:11Z</time>
      </trkpt>
      <trkpt lat="36.6899490356445" lon="-5.00522613525391">
        <ele>1743.26696777344</ele>
        <time>2018-07-28T07:01:12Z</time>
      </trkpt>
      <trkpt lat="36.6899528503418" lon="-5.00522518157959">
        <ele>1743.33776855469</ele>
        <time>2018-07-28T07:01:13Z</time>
      </trkpt>
      <trkpt lat="36.6899604797363" lon="-5.00522422790527">
        <ele>1743.47082519531</ele>
        <time>2018-07-28T07:01:14Z</time>
      </trkpt>
      <trkpt lat="36.6899642944336" lon="-5.00522184371948">
        <ele>1743.55395507812</ele>
        <time>2018-07-28T07:01:15Z</time>
      </trkpt>
      <trkpt lat="36.6899719238281" lon="-5.00522089004517">
        <ele>1743.68664550781</ele>
        <time>2018-07-28T07:01:16Z</time>
      </trkpt>
      <trkpt lat="36.6899757385254" lon="-5.00521898269653">
        <ele>1743.76525878906</ele>
        <time>2018-07-28T07:01:17Z</time>
      </trkpt>
      <trkpt lat="36.6899795532227" lon="-5.0052170753479">
        <ele>1743.84375</ele>
        <time>2018-07-28T07:01:18Z</time>
      </trkpt>
      <trkpt lat="36.6899833679199" lon="-5.00521612167358">
        <ele>1743.9140625</ele>
        <time>2018-07-28T07:01:19Z</time>
      </trkpt>
      <trkpt lat="36.6899871826172" lon="-5.00521612167358">
        <ele>1743.97607421875</ele>
        <time>2018-07-28T07:01:20Z</time>
      </trkpt>
      <trkpt lat="36.6899909973144" lon="-5.00521516799927">
        <ele>1744.04626464844</ele>
        <time>2018-07-28T07:01:21Z</time>
      </trkpt>
      <trkpt lat="36.6899948120117" lon="-5.00521802902222">
        <ele>1744.08410644531</ele>
        <time>2018-07-28T07:01:22Z</time>
      </trkpt>
      <trkpt lat="36.689998626709" lon="-5.00521898269653">
        <ele>1744.13818359375</ele>
        <time>2018-07-28T07:01:23Z</time>
      </trkpt>
      <trkpt lat="36.6900024414062" lon="-5.00522184371948">
        <ele>1744.14855957031</ele>
        <time>2018-07-28T07:01:24Z</time>
      </trkpt>
      <trkpt lat="36.6900062561035" lon="-5.00522184371948">
        <ele>1744.16748046875</ele>
        <time>2018-07-28T07:01:25Z</time>
      </trkpt>
      <trkpt lat="36.690013885498" lon="-5.00522518157959">
        <ele>1744.17785644531</ele>
        <time>2018-07-28T07:01:26Z</time>
      </trkpt>
      <trkpt lat="36.690013885498" lon="-5.00522994995117">
        <ele>1744.13854980469</ele>
        <time>2018-07-28T07:01:27Z</time>
      </trkpt>
      <trkpt lat="36.6900215148926" lon="-5.00523614883423">
        <ele>1744.12646484375</ele>
        <time>2018-07-28T07:01:28Z</time>
      </trkpt>
      <trkpt lat="36.6900253295898" lon="-5.00524187088013">
        <ele>1744.099609375</ele>
        <time>2018-07-28T07:01:29Z</time>
      </trkpt>
      <trkpt lat="36.6900291442871" lon="-5.0052490234375">
        <ele>1744.06176757812</ele>
        <time>2018-07-28T07:01:30Z</time>
      </trkpt>
      <trkpt lat="36.6900329589844" lon="-5.00525617599487">
        <ele>1744.02453613281</ele>
        <time>2018-07-28T07:01:31Z</time>
      </trkpt>
      <trkpt lat="36.6900405883789" lon="-5.00526285171509">
        <ele>1744.01232910156</ele>
        <time>2018-07-28T07:01:32Z</time>
      </trkpt>
      <trkpt lat="36.6900482177734" lon="-5.00526809692383">
        <ele>1744.01257324219</ele>
        <time>2018-07-28T07:01:33Z</time>
      </trkpt>
      <trkpt lat="36.6900596618652" lon="-5.00527286529541">
        <ele>1744.03869628906</ele>
        <time>2018-07-28T07:01:34Z</time>
      </trkpt>
      <trkpt lat="36.6900672912598" lon="-5.00527715682983">
        <ele>1744.04821777344</ele>
        <time>2018-07-28T07:01:35Z</time>
      </trkpt>
      <trkpt lat="36.690071105957" lon="-5.0052809715271">
        <ele>1744.04064941406</ele>
        <time>2018-07-28T07:01:36Z</time>
      </trkpt>
      <trkpt lat="36.6900787353516" lon="-5.00528287887573">
        <ele>1744.0693359375</ele>
        <time>2018-07-28T07:01:37Z</time>
      </trkpt>
      <trkpt lat="36.6900863647461" lon="-5.00528621673584">
        <ele>1744.08776855469</ele>
        <time>2018-07-28T07:01:38Z</time>
      </trkpt>
      <trkpt lat="36.6900939941406" lon="-5.00529003143311">
        <ele>1744.10339355469</ele>
        <time>2018-07-28T07:01:39Z</time>
      </trkpt>
      <trkpt lat="36.6901054382324" lon="-5.00529384613037">
        <ele>1744.14172363281</ele>
        <time>2018-07-28T07:01:40Z</time>
      </trkpt>
      <trkpt lat="36.690113067627" lon="-5.00529718399048">
        <ele>1744.162109375</ele>
        <time>2018-07-28T07:01:41Z</time>
      </trkpt>
      <trkpt lat="36.6901206970215" lon="-5.00530004501343">
        <ele>1744.1865234375</ele>
        <time>2018-07-28T07:01:42Z</time>
      </trkpt>
      <trkpt lat="36.690128326416" lon="-5.00530385971069">
        <ele>1744.20471191406</ele>
        <time>2018-07-28T07:01:43Z</time>
      </trkpt>
      <trkpt lat="36.6901359558106" lon="-5.00531005859375">
        <ele>1744.20739746094</ele>
        <time>2018-07-28T07:01:44Z</time>
      </trkpt>
      <trkpt lat="36.6901435852051" lon="-5.00531721115112">
        <ele>1744.20471191406</ele>
        <time>2018-07-28T07:01:45Z</time>
      </trkpt>
      <trkpt lat="36.6901512145996" lon="-5.00532293319702">
        <ele>1744.21276855469</ele>
        <time>2018-07-28T07:01:46Z</time>
      </trkpt>
      <trkpt lat="36.6901588439941" lon="-5.00532913208008">
        <ele>1744.21875</ele>
        <time>2018-07-28T07:01:47Z</time>
      </trkpt>
      <trkpt lat="36.6901664733887" lon="-5.00533580780029">
        <ele>1744.22277832031</ele>
        <time>2018-07-28T07:01:48Z</time>
      </trkpt>
      <trkpt lat="36.6901741027832" lon="-5.00534200668335">
        <ele>1744.23095703125</ele>
        <time>2018-07-28T07:01:49Z</time>
      </trkpt>
      <trkpt lat="36.6901817321777" lon="-5.00534677505493">
        <ele>1744.24926757812</ele>
        <time>2018-07-28T07:01:50Z</time>
      </trkpt>
      <trkpt lat="36.690185546875" lon="-5.00535106658936">
        <ele>1744.24670410156</ele>
        <time>2018-07-28T07:01:51Z</time>
      </trkpt>
      <trkpt lat="36.6901931762695" lon="-5.00535583496094">
        <ele>1744.26647949219</ele>
        <time>2018-07-28T07:01:52Z</time>
      </trkpt>
      <trkpt lat="36.6902008056641" lon="-5.00536012649536">
        <ele>1744.28991699219</ele>
        <time>2018-07-28T07:01:53Z</time>
      </trkpt>
      <trkpt lat="36.6902084350586" lon="-5.00536489486694">
        <ele>1744.31127929688</ele>
        <time>2018-07-28T07:01:54Z</time>
      </trkpt>
      <trkpt lat="36.6902122497559" lon="-5.00536823272705">
        <ele>1744.31665039062</ele>
        <time>2018-07-28T07:01:55Z</time>
      </trkpt>
      <trkpt lat="36.6902198791504" lon="-5.00537204742432">
        <ele>1744.34497070312</ele>
        <time>2018-07-28T07:01:56Z</time>
      </trkpt>
      <trkpt lat="36.6902275085449" lon="-5.00537586212158">
        <ele>1744.37390136719</ele>
        <time>2018-07-28T07:01:57Z</time>
      </trkpt>
      <trkpt lat="36.6902313232422" lon="-5.0053768157959">
        <ele>1744.39404296875</ele>
        <time>2018-07-28T07:01:58Z</time>
      </trkpt>
      <trkpt lat="36.6902389526367" lon="-5.0053768157959">
        <ele>1744.44555664062</ele>
        <time>2018-07-28T07:01:59Z</time>
      </trkpt>
      <trkpt lat="36.6902465820312" lon="-5.0053768157959">
        <ele>1744.49694824219</ele>
        <time>2018-07-28T07:02:00Z</time>
      </trkpt>
      <trkpt lat="36.6902503967285" lon="-5.00537586212158">
        <ele>1744.52795410156</ele>
        <time>2018-07-28T07:02:01Z</time>
      </trkpt>
      <trkpt lat="36.6902542114258" lon="-5.00537490844727">
        <ele>1744.55883789062</ele>
        <time>2018-07-28T07:02:02Z</time>
      </trkpt>
      <trkpt lat="36.6902542114258" lon="-5.00537395477295">
        <ele>1744.56396484375</ele>
        <time>2018-07-28T07:02:03Z</time>
      </trkpt>
      <trkpt lat="36.690258026123" lon="-5.00537490844727">
        <ele>1744.58447265625</ele>
        <time>2018-07-28T07:02:04Z</time>
      </trkpt>
      <trkpt lat="36.6902618408203" lon="-5.0053768157959">
        <ele>1744.59985351562</ele>
        <time>2018-07-28T07:02:05Z</time>
      </trkpt>
      <trkpt lat="36.6902656555176" lon="-5.00538110733032">
        <ele>1744.6025390625</ele>
        <time>2018-07-28T07:02:06Z</time>
      </trkpt>
      <trkpt lat="36.6902732849121" lon="-5.00538396835327">
        <ele>1744.63940429688</ele>
        <time>2018-07-28T07:02:07Z</time>
      </trkpt>
      <trkpt lat="36.6902809143066" lon="-5.00538492202759">
        <ele>1744.6865234375</ele>
        <time>2018-07-28T07:02:08Z</time>
      </trkpt>
      <trkpt lat="36.6902885437012" lon="-5.0053858757019">
        <ele>1744.73376464844</ele>
        <time>2018-07-28T07:02:09Z</time>
      </trkpt>
      <trkpt lat="36.6902961730957" lon="-5.00538921356201">
        <ele>1744.76940917969</ele>
        <time>2018-07-28T07:02:10Z</time>
      </trkpt>
      <trkpt lat="36.690299987793" lon="-5.00539398193359">
        <ele>1744.77209472656</ele>
        <time>2018-07-28T07:02:11Z</time>
      </trkpt>
      <trkpt lat="36.6903038024902" lon="-5.00539922714233">
        <ele>1744.77282714844</ele>
        <time>2018-07-28T07:02:12Z</time>
      </trkpt>
      <trkpt lat="36.6903076171875" lon="-5.00540494918823">
        <ele>1744.77172851562</ele>
        <time>2018-07-28T07:02:13Z</time>
      </trkpt>
      <trkpt lat="36.690315246582" lon="-5.00541019439697">
        <ele>1744.80065917969</ele>
        <time>2018-07-28T07:02:14Z</time>
      </trkpt>
      <trkpt lat="36.6903190612793" lon="-5.00541687011719">
        <ele>1744.79626464844</ele>
        <time>2018-07-28T07:02:15Z</time>
      </trkpt>
      <trkpt lat="36.6903228759766" lon="-5.00542211532593">
        <ele>1744.79919433594</ele>
        <time>2018-07-28T07:02:16Z</time>
      </trkpt>
      <trkpt lat="36.6903266906738" lon="-5.00542688369751">
        <ele>1744.80480957031</ele>
        <time>2018-07-28T07:02:17Z</time>
      </trkpt>
      <trkpt lat="36.6903343200684" lon="-5.00543117523193">
        <ele>1744.84106445312</ele>
        <time>2018-07-28T07:02:18Z</time>
      </trkpt>
      <trkpt lat="36.6903381347656" lon="-5.0054349899292">
        <ele>1744.85205078125</ele>
        <time>2018-07-28T07:02:19Z</time>
      </trkpt>
      <trkpt lat="36.6903457641602" lon="-5.00543785095215">
        <ele>1744.89599609375</ele>
        <time>2018-07-28T07:02:20Z</time>
      </trkpt>
      <trkpt lat="36.6903533935547" lon="-5.00544118881226">
        <ele>1744.93823242188</ele>
        <time>2018-07-28T07:02:21Z</time>
      </trkpt>
      <trkpt lat="36.6903610229492" lon="-5.00544595718384">
        <ele>1744.97509765625</ele>
        <time>2018-07-28T07:02:22Z</time>
      </trkpt>
      <trkpt lat="36.6903686523438" lon="-5.00545215606689">
        <ele>1745.00695800781</ele>
        <time>2018-07-28T07:02:23Z</time>
      </trkpt>
      <trkpt lat="36.690372467041" lon="-5.00545692443848">
        <ele>1745.01635742188</ele>
        <time>2018-07-28T07:02:24Z</time>
      </trkpt>
      <trkpt lat="36.690372467041" lon="-5.00545883178711">
        <ele>1745.00854492188</ele>
        <time>2018-07-28T07:02:25Z</time>
      </trkpt>
      <trkpt lat="36.6903762817383" lon="-5.00545883178711">
        <ele>1745.03784179688</ele>
        <time>2018-07-28T07:02:26Z</time>
      </trkpt>
      <trkpt lat="36.6903800964356" lon="-5.00546407699585">
        <ele>1745.04602050781</ele>
        <time>2018-07-28T07:02:27Z</time>
      </trkpt>
      <trkpt lat="36.6903877258301" lon="-5.00546979904175">
        <ele>1745.08264160156</ele>
        <time>2018-07-28T07:02:28Z</time>
      </trkpt>
      <trkpt lat="36.6903953552246" lon="-5.0054759979248">
        <ele>1745.11840820312</ele>
        <time>2018-07-28T07:02:29Z</time>
      </trkpt>
      <trkpt lat="36.6904067993164" lon="-5.00547981262207">
        <ele>1745.19445800781</ele>
        <time>2018-07-28T07:02:30Z</time>
      </trkpt>
      <trkpt lat="36.6904144287109" lon="-5.00548315048218">
        <ele>1745.24279785156</ele>
        <time>2018-07-28T07:02:31Z</time>
      </trkpt>
      <trkpt lat="36.6904258728027" lon="-5.00548601150513">
        <ele>1745.32397460938</ele>
        <time>2018-07-28T07:02:32Z</time>
      </trkpt>
      <trkpt lat="36.6904335021973" lon="-5.00548887252808">
        <ele>1745.37524414062</ele>
        <time>2018-07-28T07:02:33Z</time>
      </trkpt>
      <trkpt lat="36.6904411315918" lon="-5.00549411773682">
        <ele>1745.41918945312</ele>
        <time>2018-07-28T07:02:34Z</time>
      </trkpt>
      <trkpt lat="36.6904487609863" lon="-5.00550079345703">
        <ele>1745.45935058594</ele>
        <time>2018-07-28T07:02:35Z</time>
      </trkpt>
      <trkpt lat="36.6904602050781" lon="-5.0055079460144">
        <ele>1745.53063964844</ele>
        <time>2018-07-28T07:02:36Z</time>
      </trkpt>
      <trkpt lat="36.6904678344727" lon="-5.00551509857178">
        <ele>1745.57202148438</ele>
        <time>2018-07-28T07:02:37Z</time>
      </trkpt>
      <trkpt lat="36.6904792785644" lon="-5.00551986694336">
        <ele>1745.65368652344</ele>
        <time>2018-07-28T07:02:38Z</time>
      </trkpt>
      <trkpt lat="36.690486907959" lon="-5.00552415847778">
        <ele>1745.70568847656</ele>
        <time>2018-07-28T07:02:39Z</time>
      </trkpt>
      <trkpt lat="36.6904945373535" lon="-5.00552892684936">
        <ele>1745.75720214844</ele>
        <time>2018-07-28T07:02:40Z</time>
      </trkpt>
      <trkpt lat="36.690502166748" lon="-5.00553417205811">
        <ele>1745.80834960938</ele>
        <time>2018-07-28T07:02:41Z</time>
      </trkpt>
      <trkpt lat="36.6905097961426" lon="-5.00553798675537">
        <ele>1745.86389160156</ele>
        <time>2018-07-28T07:02:42Z</time>
      </trkpt>
      <trkpt lat="36.6905174255371" lon="-5.00554180145264">
        <ele>1745.92028808594</ele>
        <time>2018-07-28T07:02:43Z</time>
      </trkpt>
      <trkpt lat="36.6905250549316" lon="-5.00554609298706">
        <ele>1745.97607421875</ele>
        <time>2018-07-28T07:02:44Z</time>
      </trkpt>
      <trkpt lat="36.6905326843262" lon="-5.00554990768433">
        <ele>1746.03369140625</ele>
        <time>2018-07-28T07:02:45Z</time>
      </trkpt>
      <trkpt lat="36.6905403137207" lon="-5.00555419921875">
        <ele>1746.09106445312</ele>
        <time>2018-07-28T07:02:46Z</time>
      </trkpt>
      <trkpt lat="36.6905517578125" lon="-5.00556087493896">
        <ele>1746.17797851562</ele>
        <time>2018-07-28T07:02:47Z</time>
      </trkpt>
      <trkpt lat="36.690559387207" lon="-5.00556898117065">
        <ele>1746.22973632812</ele>
        <time>2018-07-28T07:02:48Z</time>
      </trkpt>
      <trkpt lat="36.6905670166016" lon="-5.00557708740234">
        <ele>1746.28283691406</ele>
        <time>2018-07-28T07:02:49Z</time>
      </trkpt>
      <trkpt lat="36.6905784606934" lon="-5.00558376312256">
        <ele>1746.37475585938</ele>
        <time>2018-07-28T07:02:50Z</time>
      </trkpt>
      <trkpt lat="36.6905899047852" lon="-5.00559186935425">
        <ele>1746.46618652344</ele>
        <time>2018-07-28T07:02:51Z</time>
      </trkpt>
      <trkpt lat="36.690601348877" lon="-5.00559902191162">
        <ele>1746.56115722656</ele>
        <time>2018-07-28T07:02:52Z</time>
      </trkpt>
      <trkpt lat="36.6906127929688" lon="-5.00560283660889">
        <ele>1746.66247558594</ele>
        <time>2018-07-28T07:02:53Z</time>
      </trkpt>
      <trkpt lat="36.6906204223633" lon="-5.0056037902832">
        <ele>1746.73266601562</ele>
        <time>2018-07-28T07:02:54Z</time>
      </trkpt>
      <trkpt lat="36.6906318664551" lon="-5.0056037902832">
        <ele>1746.83972167969</ele>
        <time>2018-07-28T07:02:55Z</time>
      </trkpt>
      <trkpt lat="36.6906394958496" lon="-5.00560188293457">
        <ele>1746.9130859375</ele>
        <time>2018-07-28T07:02:56Z</time>
      </trkpt>
      <trkpt lat="36.6906471252441" lon="-5.00560092926025">
        <ele>1746.98510742188</ele>
        <time>2018-07-28T07:02:57Z</time>
      </trkpt>
      <trkpt lat="36.6906547546387" lon="-5.00559997558594">
        <ele>1747.05712890625</ele>
        <time>2018-07-28T07:02:58Z</time>
      </trkpt>
      <trkpt lat="36.6906623840332" lon="-5.00559997558594">
        <ele>1747.12817382812</ele>
        <time>2018-07-28T07:02:59Z</time>
      </trkpt>
      <trkpt lat="36.690673828125" lon="-5.00560188293457">
        <ele>1747.23352050781</ele>
        <time>2018-07-28T07:03:00Z</time>
      </trkpt>
      <trkpt lat="36.6906814575195" lon="-5.00560522079468">
        <ele>1747.30285644531</ele>
        <time>2018-07-28T07:03:01Z</time>
      </trkpt>
      <trkpt lat="36.6906890869141" lon="-5.00560808181763">
        <ele>1747.373046875</ele>
        <time>2018-07-28T07:03:02Z</time>
      </trkpt>
      <trkpt lat="36.6907005310059" lon="-5.00560998916626">
        <ele>1747.48010253906</ele>
        <time>2018-07-28T07:03:03Z</time>
      </trkpt>
      <trkpt lat="36.6907081604004" lon="-5.00561285018921">
        <ele>1747.55126953125</ele>
        <time>2018-07-28T07:03:04Z</time>
      </trkpt>
      <trkpt lat="36.6907119750977" lon="-5.00561189651489">
        <ele>1747.58752441406</ele>
        <time>2018-07-28T07:03:05Z</time>
      </trkpt>
      <trkpt lat="36.6907119750977" lon="-5.00561189651489">
        <ele>1747.58752441406</ele>
        <time>2018-07-28T07:03:06Z</time>
      </trkpt>
      <trkpt lat="36.6907119750977" lon="-5.00560998916626">
        <ele>1747.587890625</ele>
        <time>2018-07-28T07:03:07Z</time>
      </trkpt>
      <trkpt lat="36.6907119750977" lon="-5.00560998916626">
        <ele>1747.587890625</ele>
        <time>2018-07-28T07:03:08Z</time>
      </trkpt>
      <trkpt lat="36.6907157897949" lon="-5.00561189651489">
        <ele>1747.62365722656</ele>
        <time>2018-07-28T07:03:09Z</time>
      </trkpt>
      <trkpt lat="36.6907157897949" lon="-5.005615234375">
        <ele>1747.623046875</ele>
        <time>2018-07-28T07:03:10Z</time>
      </trkpt>
      <trkpt lat="36.6907234191894" lon="-5.00562000274658">
        <ele>1747.69519042969</ele>
        <time>2018-07-28T07:03:11Z</time>
      </trkpt>
      <trkpt lat="36.6907272338867" lon="-5.00562286376953">
        <ele>1747.7314453125</ele>
        <time>2018-07-28T07:03:12Z</time>
      </trkpt>
      <trkpt lat="36.6907386779785" lon="-5.00562477111816">
        <ele>1747.84130859375</ele>
        <time>2018-07-28T07:03:13Z</time>
      </trkpt>
      <trkpt lat="36.690746307373" lon="-5.00562810897827">
        <ele>1747.91516113281</ele>
        <time>2018-07-28T07:03:14Z</time>
      </trkpt>
      <trkpt lat="36.6907577514648" lon="-5.00563097000122">
        <ele>1748.0263671875</ele>
        <time>2018-07-28T07:03:15Z</time>
      </trkpt>
      <trkpt lat="36.6907653808594" lon="-5.00563287734985">
        <ele>1748.10095214844</ele>
        <time>2018-07-28T07:03:16Z</time>
      </trkpt>
      <trkpt lat="36.6907691955566" lon="-5.00563478469849">
        <ele>1748.13879394531</ele>
        <time>2018-07-28T07:03:17Z</time>
      </trkpt>
      <trkpt lat="36.6907806396484" lon="-5.00563621520996">
        <ele>1748.25073242188</ele>
        <time>2018-07-28T07:03:18Z</time>
      </trkpt>
      <trkpt lat="36.690788269043" lon="-5.00563716888428">
        <ele>1748.32568359375</ele>
        <time>2018-07-28T07:03:19Z</time>
      </trkpt>
      <trkpt lat="36.6907958984375" lon="-5.00563716888428">
        <ele>1748.40002441406</ele>
        <time>2018-07-28T07:03:20Z</time>
      </trkpt>
      <trkpt lat="36.690803527832" lon="-5.00563812255859">
        <ele>1748.47509765625</ele>
        <time>2018-07-28T07:03:21Z</time>
      </trkpt>
      <trkpt lat="36.6908111572266" lon="-5.00563812255859">
        <ele>1748.54956054688</ele>
        <time>2018-07-28T07:03:22Z</time>
      </trkpt>
      <trkpt lat="36.6908226013184" lon="-5.00563716888428">
        <ele>1748.66003417969</ele>
        <time>2018-07-28T07:03:23Z</time>
      </trkpt>
      <trkpt lat="36.6908340454102" lon="-5.00563716888428">
        <ele>1748.76892089844</ele>
        <time>2018-07-28T07:03:24Z</time>
      </trkpt>
      <trkpt lat="36.690845489502" lon="-5.00563716888428">
        <ele>1748.83923339844</ele>
        <time>2018-07-28T07:03:25Z</time>
      </trkpt>
      <trkpt lat="36.6908531188965" lon="-5.00563716888428">
        <ele>1748.88610839844</ele>
        <time>2018-07-28T07:03:26Z</time>
      </trkpt>
      <trkpt lat="36.6908645629883" lon="-5.00563812255859">
        <ele>1748.95788574219</ele>
        <time>2018-07-28T07:03:27Z</time>
      </trkpt>
      <trkpt lat="36.6908760070801" lon="-5.00563716888428">
        <ele>1749.02661132812</ele>
        <time>2018-07-28T07:03:28Z</time>
      </trkpt>
      <trkpt lat="36.6908836364746" lon="-5.00563716888428">
        <ele>1749.07348632812</ele>
        <time>2018-07-28T07:03:29Z</time>
      </trkpt>
      <trkpt lat="36.6908950805664" lon="-5.00563621520996">
        <ele>1749.14196777344</ele>
        <time>2018-07-28T07:03:30Z</time>
      </trkpt>
      <trkpt lat="36.6909027099609" lon="-5.00563383102417">
        <ele>1749.18395996094</ele>
        <time>2018-07-28T07:03:31Z</time>
      </trkpt>
      <trkpt lat="36.6909141540527" lon="-5.00563192367554">
        <ele>1749.24963378906</ele>
        <time>2018-07-28T07:03:32Z</time>
      </trkpt>
      <trkpt lat="36.6909255981445" lon="-5.00563192367554">
        <ele>1749.31921386719</ele>
        <time>2018-07-28T07:03:33Z</time>
      </trkpt>
      <trkpt lat="36.6909332275391" lon="-5.00563097000122">
        <ele>1749.36340332031</ele>
        <time>2018-07-28T07:03:34Z</time>
      </trkpt>
      <trkpt lat="36.6909408569336" lon="-5.00563192367554">
        <ele>1749.41198730469</ele>
        <time>2018-07-28T07:03:35Z</time>
      </trkpt>
      <trkpt lat="36.6909523010254" lon="-5.00563192367554">
        <ele>1749.48156738281</ele>
        <time>2018-07-28T07:03:36Z</time>
      </trkpt>
      <trkpt lat="36.6909637451172" lon="-5.00563097000122">
        <ele>1749.54858398438</ele>
        <time>2018-07-28T07:03:37Z</time>
      </trkpt>
      <trkpt lat="36.690975189209" lon="-5.00562906265259">
        <ele>1749.61267089844</ele>
        <time>2018-07-28T07:03:38Z</time>
      </trkpt>
      <trkpt lat="36.6909866333008" lon="-5.00562477111816">
        <ele>1749.66906738281</ele>
        <time>2018-07-28T07:03:39Z</time>
      </trkpt>
      <trkpt lat="36.6909980773926" lon="-5.00562286376953">
        <ele>1749.73181152344</ele>
        <time>2018-07-28T07:03:40Z</time>
      </trkpt>
      <trkpt lat="36.6910095214844" lon="-5.0056209564209">
        <ele>1749.79406738281</ele>
        <time>2018-07-28T07:03:41Z</time>
      </trkpt>
      <trkpt lat="36.6910209655762" lon="-5.0056209564209">
        <ele>1749.86218261719</ele>
        <time>2018-07-28T07:03:42Z</time>
      </trkpt>
      <trkpt lat="36.691032409668" lon="-5.0056209564209">
        <ele>1749.93029785156</ele>
        <time>2018-07-28T07:03:43Z</time>
      </trkpt>
      <trkpt lat="36.6910438537598" lon="-5.00562000274658">
        <ele>1749.99499511719</ele>
        <time>2018-07-28T07:03:44Z</time>
      </trkpt>
      <trkpt lat="36.6910552978516" lon="-5.00562000274658">
        <ele>1750.06298828125</ele>
        <time>2018-07-28T07:03:45Z</time>
      </trkpt>
      <trkpt lat="36.6910667419434" lon="-5.0056209564209">
        <ele>1750.134765625</ele>
        <time>2018-07-28T07:03:46Z</time>
      </trkpt>
      <trkpt lat="36.6910743713379" lon="-5.00562286376953">
        <ele>1750.18774414062</ele>
        <time>2018-07-28T07:03:47Z</time>
      </trkpt>
      <trkpt lat="36.6910820007324" lon="-5.00562381744385">
        <ele>1750.23718261719</ele>
        <time>2018-07-28T07:03:48Z</time>
      </trkpt>
      <trkpt lat="36.6910934448242" lon="-5.00562381744385">
        <ele>1750.3056640625</ele>
        <time>2018-07-28T07:03:49Z</time>
      </trkpt>
      <trkpt lat="36.691104888916" lon="-5.00562381744385">
        <ele>1750.37426757812</ele>
        <time>2018-07-28T07:03:50Z</time>
      </trkpt>
      <trkpt lat="36.6911163330078" lon="-5.00562381744385">
        <ele>1750.44274902344</ele>
        <time>2018-07-28T07:03:51Z</time>
      </trkpt>
      <trkpt lat="36.6911277770996" lon="-5.00562191009522">
        <ele>1750.50244140625</ele>
        <time>2018-07-28T07:03:52Z</time>
      </trkpt>
      <trkpt lat="36.6911392211914" lon="-5.0056209564209">
        <ele>1750.56628417969</ele>
        <time>2018-07-28T07:03:53Z</time>
      </trkpt>
      <trkpt lat="36.6911544799805" lon="-5.00561904907227">
        <ele>1750.64770507812</ele>
        <time>2018-07-28T07:03:54Z</time>
      </trkpt>
      <trkpt lat="36.691162109375" lon="-5.00562000274658">
        <ele>1750.69775390625</ele>
        <time>2018-07-28T07:03:55Z</time>
      </trkpt>
      <trkpt lat="36.6911735534668" lon="-5.0056209564209">
        <ele>1750.77062988281</ele>
        <time>2018-07-28T07:03:56Z</time>
      </trkpt>
      <trkpt lat="36.6911811828613" lon="-5.0056209564209">
        <ele>1750.81604003906</ele>
        <time>2018-07-28T07:03:57Z</time>
      </trkpt>
      <trkpt lat="36.6911888122559" lon="-5.00562191009522">
        <ele>1750.86645507812</ele>
        <time>2018-07-28T07:03:58Z</time>
      </trkpt>
      <trkpt lat="36.6911964416504" lon="-5.00562286376953">
        <ele>1750.91711425781</ele>
        <time>2018-07-28T07:03:59Z</time>
      </trkpt>
      <trkpt lat="36.6912040710449" lon="-5.00562477111816">
        <ele>1750.97314453125</ele>
        <time>2018-07-28T07:04:00Z</time>
      </trkpt>
      <trkpt lat="36.6912117004394" lon="-5.00562620162964">
        <ele>1751.02685546875</ele>
        <time>2018-07-28T07:04:01Z</time>
      </trkpt>
      <trkpt lat="36.691219329834" lon="-5.00562810897827">
        <ele>1751.08349609375</ele>
        <time>2018-07-28T07:04:02Z</time>
      </trkpt>
      <trkpt lat="36.6912269592285" lon="-5.00563192367554">
        <ele>1751.15148925781</ele>
        <time>2018-07-28T07:04:03Z</time>
      </trkpt>
      <trkpt lat="36.6912384033203" lon="-5.00563383102417">
        <ele>1751.23217773438</ele>
        <time>2018-07-28T07:04:04Z</time>
      </trkpt>
      <trkpt lat="36.6912422180176" lon="-5.00563621520996">
        <ele>1751.26965332031</ele>
        <time>2018-07-28T07:04:05Z</time>
      </trkpt>
      <trkpt lat="36.6912536621094" lon="-5.00563716888428">
        <ele>1751.34545898438</ele>
        <time>2018-07-28T07:04:06Z</time>
      </trkpt>
      <trkpt lat="36.6912651062012" lon="-5.00563907623291">
        <ele>1751.42749023438</ele>
        <time>2018-07-28T07:04:07Z</time>
      </trkpt>
      <trkpt lat="36.6912727355957" lon="-5.00563907623291">
        <ele>1751.474609375</ele>
        <time>2018-07-28T07:04:08Z</time>
      </trkpt>
      <trkpt lat="36.6912841796875" lon="-5.00563907623291">
        <ele>1751.54504394531</ele>
        <time>2018-07-28T07:04:09Z</time>
      </trkpt>
      <trkpt lat="36.691291809082" lon="-5.00563907623291">
        <ele>1751.59204101562</ele>
        <time>2018-07-28T07:04:10Z</time>
      </trkpt>
      <trkpt lat="36.6912994384766" lon="-5.00564002990723">
        <ele>1751.64538574219</ele>
        <time>2018-07-28T07:04:11Z</time>
      </trkpt>
      <trkpt lat="36.6913108825684" lon="-5.00564193725586">
        <ele>1751.72875976562</ele>
        <time>2018-07-28T07:04:12Z</time>
      </trkpt>
      <trkpt lat="36.6913223266602" lon="-5.00564479827881">
        <ele>1751.81921386719</ele>
        <time>2018-07-28T07:04:13Z</time>
      </trkpt>
      <trkpt lat="36.6913299560547" lon="-5.00564908981323">
        <ele>1751.896484375</ele>
        <time>2018-07-28T07:04:14Z</time>
      </trkpt>
      <trkpt lat="36.6913375854492" lon="-5.00565481185913">
        <ele>1751.98449707031</ele>
        <time>2018-07-28T07:04:15Z</time>
      </trkpt>
      <trkpt lat="36.6913452148438" lon="-5.00566005706787">
        <ele>1752.07006835938</ele>
        <time>2018-07-28T07:04:16Z</time>
      </trkpt>
      <trkpt lat="36.6913566589356" lon="-5.00566387176514">
        <ele>1752.1708984375</ele>
        <time>2018-07-28T07:04:17Z</time>
      </trkpt>
      <trkpt lat="36.6913681030273" lon="-5.00566720962524">
        <ele>1752.26928710938</ele>
        <time>2018-07-28T07:04:18Z</time>
      </trkpt>
      <trkpt lat="36.6913795471191" lon="-5.00566720962524">
        <ele>1752.34350585938</ele>
        <time>2018-07-28T07:04:19Z</time>
      </trkpt>
      <trkpt lat="36.6913871765137" lon="-5.00566577911377">
        <ele>1752.38220214844</ele>
        <time>2018-07-28T07:04:20Z</time>
      </trkpt>
      <trkpt lat="36.6913986206055" lon="-5.00566577911377">
        <ele>1752.45617675781</ele>
        <time>2018-07-28T07:04:21Z</time>
      </trkpt>
      <trkpt lat="36.6914100646973" lon="-5.00566816329956">
        <ele>1752.54895019531</ele>
        <time>2018-07-28T07:04:22Z</time>
      </trkpt>
      <trkpt lat="36.6914215087891" lon="-5.00567007064819">
        <ele>1752.63854980469</ele>
        <time>2018-07-28T07:04:23Z</time>
      </trkpt>
      <trkpt lat="36.6914291381836" lon="-5.00567197799683">
        <ele>1752.70361328125</ele>
        <time>2018-07-28T07:04:24Z</time>
      </trkpt>
      <trkpt lat="36.6914405822754" lon="-5.00567388534546">
        <ele>1752.79418945312</ele>
        <time>2018-07-28T07:04:25Z</time>
      </trkpt>
      <trkpt lat="36.6914520263672" lon="-5.00567388534546">
        <ele>1752.86926269531</ele>
        <time>2018-07-28T07:04:26Z</time>
      </trkpt>
      <trkpt lat="36.691463470459" lon="-5.00567388534546">
        <ele>1752.9443359375</ele>
        <time>2018-07-28T07:04:27Z</time>
      </trkpt>
      <trkpt lat="36.6914710998535" lon="-5.00567483901978">
        <ele>1753.00256347656</ele>
        <time>2018-07-28T07:04:28Z</time>
      </trkpt>
      <trkpt lat="36.691478729248" lon="-5.00567483901978">
        <ele>1753.052734375</ele>
        <time>2018-07-28T07:04:29Z</time>
      </trkpt>
      <trkpt lat="36.6914901733398" lon="-5.00567722320557">
        <ele>1753.14892578125</ele>
        <time>2018-07-28T07:04:30Z</time>
      </trkpt>
      <trkpt lat="36.6914978027344" lon="-5.0056791305542">
        <ele>1753.21618652344</ele>
        <time>2018-07-28T07:04:31Z</time>
      </trkpt>
      <trkpt lat="36.6915054321289" lon="-5.00568199157715">
        <ele>1753.29223632812</ele>
        <time>2018-07-28T07:04:32Z</time>
      </trkpt>
      <trkpt lat="36.6915092468262" lon="-5.00568723678589">
        <ele>1753.36474609375</ele>
        <time>2018-07-28T07:04:33Z</time>
      </trkpt>
      <trkpt lat="36.691520690918" lon="-5.00569105148315">
        <ele>1753.47644042969</ele>
        <time>2018-07-28T07:04:34Z</time>
      </trkpt>
      <trkpt lat="36.6915283203125" lon="-5.00569581985474">
        <ele>1753.57189941406</ele>
        <time>2018-07-28T07:04:35Z</time>
      </trkpt>
      <trkpt lat="36.691535949707" lon="-5.00569677352905">
        <ele>1753.6328125</ele>
        <time>2018-07-28T07:04:36Z</time>
      </trkpt>
      <trkpt lat="36.6915473937988" lon="-5.00569820404053">
        <ele>1753.72436523438</ele>
        <time>2018-07-28T07:04:37Z</time>
      </trkpt>
      <trkpt lat="36.6915550231934" lon="-5.00569677352905">
        <ele>1753.76293945312</ele>
        <time>2018-07-28T07:04:38Z</time>
      </trkpt>
      <trkpt lat="36.6915626525879" lon="-5.00569677352905">
        <ele>1753.81506347656</ele>
        <time>2018-07-28T07:04:39Z</time>
      </trkpt>
      <trkpt lat="36.6915740966797" lon="-5.00569677352905">
        <ele>1753.89318847656</ele>
        <time>2018-07-28T07:04:40Z</time>
      </trkpt>
      <trkpt lat="36.6915817260742" lon="-5.00569915771484">
        <ele>1753.96875</ele>
        <time>2018-07-28T07:04:41Z</time>
      </trkpt>
      <trkpt lat="36.6915893554688" lon="-5.00570201873779">
        <ele>1754.04931640625</ele>
        <time>2018-07-28T07:04:42Z</time>
      </trkpt>
      <trkpt lat="36.6916007995606" lon="-5.00570678710938">
        <ele>1754.17602539062</ele>
        <time>2018-07-28T07:04:43Z</time>
      </trkpt>
      <trkpt lat="36.6916084289551" lon="-5.0057110786438">
        <ele>1754.2724609375</ele>
        <time>2018-07-28T07:04:44Z</time>
      </trkpt>
      <trkpt lat="36.6916160583496" lon="-5.00571489334106">
        <ele>1754.36474609375</ele>
        <time>2018-07-28T07:04:45Z</time>
      </trkpt>
      <trkpt lat="36.6916236877441" lon="-5.00571918487549">
        <ele>1754.46264648438</ele>
        <time>2018-07-28T07:04:46Z</time>
      </trkpt>
      <trkpt lat="36.6916313171387" lon="-5.00572299957275">
        <ele>1754.55639648438</ele>
        <time>2018-07-28T07:04:47Z</time>
      </trkpt>
      <trkpt lat="36.6916389465332" lon="-5.0057258605957">
        <ele>1754.64074707031</ele>
        <time>2018-07-28T07:04:48Z</time>
      </trkpt>
      <trkpt lat="36.6916465759277" lon="-5.00572919845581">
        <ele>1754.73071289062</ele>
        <time>2018-07-28T07:04:49Z</time>
      </trkpt>
      <trkpt lat="36.6916542053223" lon="-5.00573015213013">
        <ele>1754.79577636719</ele>
        <time>2018-07-28T07:04:50Z</time>
      </trkpt>
      <trkpt lat="36.6916656494141" lon="-5.00572919845581">
        <ele>1754.86804199219</ele>
        <time>2018-07-28T07:04:51Z</time>
      </trkpt>
      <trkpt lat="36.6916732788086" lon="-5.0057258605957">
        <ele>1754.78344726562</ele>
        <time>2018-07-28T07:04:52Z</time>
      </trkpt>
      <trkpt lat="36.6916809082031" lon="-5.00572299957275">
        <ele>1754.68774414062</ele>
        <time>2018-07-28T07:04:53Z</time>
      </trkpt>
      <trkpt lat="36.6916885375977" lon="-5.0057201385498">
        <ele>1754.59155273438</ele>
        <time>2018-07-28T07:04:54Z</time>
      </trkpt>
      <trkpt lat="36.6916999816894" lon="-5.0057168006897">
        <ele>1754.45690917969</ele>
        <time>2018-07-28T07:04:55Z</time>
      </trkpt>
      <trkpt lat="36.6917114257812" lon="-5.00571393966675">
        <ele>1754.32666015625</ele>
        <time>2018-07-28T07:04:56Z</time>
      </trkpt>
      <trkpt lat="36.6917190551758" lon="-5.00570917129517">
        <ele>1754.20690917969</ele>
        <time>2018-07-28T07:04:57Z</time>
      </trkpt>
      <trkpt lat="36.6917266845703" lon="-5.00570487976074">
        <ele>1754.091796875</ele>
        <time>2018-07-28T07:04:58Z</time>
      </trkpt>
      <trkpt lat="36.6917343139648" lon="-5.00570201873779">
        <ele>1753.99243164062</ele>
        <time>2018-07-28T07:04:59Z</time>
      </trkpt>
      <trkpt lat="36.6917419433594" lon="-5.00569677352905">
        <ele>1753.86474609375</ele>
        <time>2018-07-28T07:05:00Z</time>
      </trkpt>
      <trkpt lat="36.6917533874512" lon="-5.00569200515747">
        <ele>1753.70812988281</ele>
        <time>2018-07-28T07:05:01Z</time>
      </trkpt>
      <trkpt lat="36.6917610168457" lon="-5.00568914413452">
        <ele>1753.60668945312</ele>
        <time>2018-07-28T07:05:02Z</time>
      </trkpt>
      <trkpt lat="36.6917686462402" lon="-5.0056881904602">
        <ele>1753.52770996094</ele>
        <time>2018-07-28T07:05:03Z</time>
      </trkpt>
      <trkpt lat="36.691780090332" lon="-5.0056881904602">
        <ele>1753.42614746094</ele>
        <time>2018-07-28T07:05:04Z</time>
      </trkpt>
      <trkpt lat="36.6917877197266" lon="-5.00568580627441">
        <ele>1753.32934570312</ele>
        <time>2018-07-28T07:05:05Z</time>
      </trkpt>
      <trkpt lat="36.6917915344238" lon="-5.0056848526001">
        <ele>1753.28381347656</ele>
        <time>2018-07-28T07:05:06Z</time>
      </trkpt>
      <trkpt lat="36.6917953491211" lon="-5.00568389892578">
        <ele>1753.23803710938</ele>
        <time>2018-07-28T07:05:07Z</time>
      </trkpt>
      <trkpt lat="36.6917991638184" lon="-5.00568389892578">
        <ele>1753.20397949219</ele>
        <time>2018-07-28T07:05:08Z</time>
      </trkpt>
      <trkpt lat="36.6917991638184" lon="-5.00568389892578">
        <ele>1753.20397949219</ele>
        <time>2018-07-28T07:05:09Z</time>
      </trkpt>
      <trkpt lat="36.6917991638184" lon="-5.00568389892578">
        <ele>1753.20397949219</ele>
        <time>2018-07-28T07:05:10Z</time>
      </trkpt>
      <trkpt lat="36.6918029785156" lon="-5.00568389892578">
        <ele>1753.17004394531</ele>
        <time>2018-07-28T07:05:11Z</time>
      </trkpt>
      <trkpt lat="36.6918106079102" lon="-5.00568103790283">
        <ele>1753.06628417969</ele>
        <time>2018-07-28T07:05:12Z</time>
      </trkpt>
      <trkpt lat="36.6918182373047" lon="-5.00567579269409">
        <ele>1752.93212890625</ele>
        <time>2018-07-28T07:05:13Z</time>
      </trkpt>
      <trkpt lat="36.6918296813965" lon="-5.00567293167114">
        <ele>1752.79272460938</ele>
        <time>2018-07-28T07:05:14Z</time>
      </trkpt>
      <trkpt lat="36.6918411254883" lon="-5.00567102432251">
        <ele>1752.66479492188</ele>
        <time>2018-07-28T07:05:15Z</time>
      </trkpt>
      <trkpt lat="36.6918487548828" lon="-5.00567197799683">
        <ele>1752.60791015625</ele>
        <time>2018-07-28T07:05:16Z</time>
      </trkpt>
      <trkpt lat="36.6918601989746" lon="-5.00567293167114">
        <ele>1752.5166015625</ele>
        <time>2018-07-28T07:05:17Z</time>
      </trkpt>
      <trkpt lat="36.6918678283691" lon="-5.00567388534546">
        <ele>1752.46008300781</ele>
        <time>2018-07-28T07:05:18Z</time>
      </trkpt>
      <trkpt lat="36.6918716430664" lon="-5.00567483901978">
        <ele>1752.43823242188</ele>
        <time>2018-07-28T07:05:19Z</time>
      </trkpt>
      <trkpt lat="36.6918754577637" lon="-5.00567388534546">
        <ele>1752.39111328125</ele>
        <time>2018-07-28T07:05:20Z</time>
      </trkpt>
      <trkpt lat="36.6918792724609" lon="-5.00567388534546">
        <ele>1752.35668945312</ele>
        <time>2018-07-28T07:05:21Z</time>
      </trkpt>
      <trkpt lat="36.6918792724609" lon="-5.00567388534546">
        <ele>1752.35668945312</ele>
        <time>2018-07-28T07:05:22Z</time>
      </trkpt>
      <trkpt lat="36.6918792724609" lon="-5.00567388534546">
        <ele>1752.35668945312</ele>
        <time>2018-07-28T07:05:23Z</time>
      </trkpt>
      <trkpt lat="36.6918792724609" lon="-5.00567388534546">
        <ele>1752.35668945312</ele>
        <time>2018-07-28T07:05:24Z</time>
      </trkpt>
      <trkpt lat="36.6918792724609" lon="-5.00567388534546">
        <ele>1752.35668945312</ele>
        <time>2018-07-28T07:05:25Z</time>
      </trkpt>
      <trkpt lat="36.6918792724609" lon="-5.00567388534546">
        <ele>1752.35668945312</ele>
        <time>2018-07-28T07:05:26Z</time>
      </trkpt>
      <trkpt lat="36.6918792724609" lon="-5.00567293167114">
        <ele>1752.34399414062</ele>
        <time>2018-07-28T07:05:27Z</time>
      </trkpt>
      <trkpt lat="36.6918792724609" lon="-5.00567388534546">
        <ele>1752.35668945312</ele>
        <time>2018-07-28T07:05:28Z</time>
      </trkpt>
      <trkpt lat="36.6918792724609" lon="-5.00567483901978">
        <ele>1752.36926269531</ele>
        <time>2018-07-28T07:05:29Z</time>
      </trkpt>
      <trkpt lat="36.6918792724609" lon="-5.00567722320557">
        <ele>1752.40087890625</ele>
        <time>2018-07-28T07:05:30Z</time>
      </trkpt>
      <trkpt lat="36.6918792724609" lon="-5.00567817687988">
        <ele>1752.41357421875</ele>
        <time>2018-07-28T07:05:31Z</time>
      </trkpt>
      <trkpt lat="36.6918754577637" lon="-5.0056791305542">
        <ele>1752.46044921875</ele>
        <time>2018-07-28T07:05:32Z</time>
      </trkpt>
      <trkpt lat="36.6918754577637" lon="-5.00568008422852">
        <ele>1752.47302246094</ele>
        <time>2018-07-28T07:05:33Z</time>
      </trkpt>
      <trkpt lat="36.6918754577637" lon="-5.00568103790283">
        <ele>1752.48559570312</ele>
        <time>2018-07-28T07:05:34Z</time>
      </trkpt>
      <trkpt lat="36.6918792724609" lon="-5.00568103790283">
        <ele>1752.45141601562</ele>
        <time>2018-07-28T07:05:35Z</time>
      </trkpt>
      <trkpt lat="36.6918792724609" lon="-5.00568103790283">
        <ele>1752.45141601562</ele>
        <time>2018-07-28T07:05:36Z</time>
      </trkpt>
      <trkpt lat="36.6918830871582" lon="-5.00568199157715">
        <ele>1752.42993164062</ele>
        <time>2018-07-28T07:05:37Z</time>
      </trkpt>
      <trkpt lat="36.6918869018555" lon="-5.00568199157715">
        <ele>1752.39587402344</ele>
        <time>2018-07-28T07:05:38Z</time>
      </trkpt>
      <trkpt lat="36.69189453125" lon="-5.00568294525146">
        <ele>1752.34045410156</ele>
        <time>2018-07-28T07:05:39Z</time>
      </trkpt>
      <trkpt lat="36.6918983459473" lon="-5.0056848526001">
        <ele>1752.33203125</ele>
        <time>2018-07-28T07:05:40Z</time>
      </trkpt>
      <trkpt lat="36.6919059753418" lon="-5.0056881904602">
        <ele>1752.30932617188</ele>
        <time>2018-07-28T07:05:41Z</time>
      </trkpt>
      <trkpt lat="36.6919136047363" lon="-5.00569105148315">
        <ele>1752.28063964844</ele>
        <time>2018-07-28T07:05:42Z</time>
      </trkpt>
      <trkpt lat="36.6919212341309" lon="-5.00569295883179">
        <ele>1752.23937988281</ele>
        <time>2018-07-28T07:05:43Z</time>
      </trkpt>
      <trkpt lat="36.6919288635254" lon="-5.00569581985474">
        <ele>1752.21166992188</ele>
        <time>2018-07-28T07:05:44Z</time>
      </trkpt>
      <trkpt lat="36.6919364929199" lon="-5.00569915771484">
        <ele>1752.19104003906</ele>
        <time>2018-07-28T07:05:45Z</time>
      </trkpt>
      <trkpt lat="36.6919441223144" lon="-5.00570201873779">
        <ele>1752.16442871094</ele>
        <time>2018-07-28T07:05:46Z</time>
      </trkpt>
      <trkpt lat="36.691951751709" lon="-5.00570392608643">
        <ele>1752.12475585938</ele>
        <time>2018-07-28T07:05:47Z</time>
      </trkpt>
      <trkpt lat="36.6919555664062" lon="-5.00570583343506">
        <ele>1752.11853027344</ele>
        <time>2018-07-28T07:05:48Z</time>
      </trkpt>
      <trkpt lat="36.6919593811035" lon="-5.00570583343506">
        <ele>1752.08557128906</ele>
        <time>2018-07-28T07:05:49Z</time>
      </trkpt>
      <trkpt lat="36.6919631958008" lon="-5.00570583343506">
        <ele>1752.05249023438</ele>
        <time>2018-07-28T07:05:50Z</time>
      </trkpt>
      <trkpt lat="36.6919631958008" lon="-5.00570487976074">
        <ele>1752.03894042969</ele>
        <time>2018-07-28T07:05:51Z</time>
      </trkpt>
      <trkpt lat="36.6919631958008" lon="-5.00570583343506">
        <ele>1752.05249023438</ele>
        <time>2018-07-28T07:05:52Z</time>
      </trkpt>
      <trkpt lat="36.6919631958008" lon="-5.00570583343506">
        <ele>1752.05249023438</ele>
        <time>2018-07-28T07:05:53Z</time>
      </trkpt>
      <trkpt lat="36.6919631958008" lon="-5.00570583343506">
        <ele>1752.05249023438</ele>
        <time>2018-07-28T07:05:54Z</time>
      </trkpt>
      <trkpt lat="36.6919631958008" lon="-5.00570583343506">
        <ele>1752.05249023438</ele>
        <time>2018-07-28T07:05:55Z</time>
      </trkpt>
      <trkpt lat="36.691967010498" lon="-5.00570583343506">
        <ele>1752.01940917969</ele>
        <time>2018-07-28T07:05:56Z</time>
      </trkpt>
      <trkpt lat="36.6919708251953" lon="-5.00571012496948">
        <ele>1752.04772949219</ele>
        <time>2018-07-28T07:05:57Z</time>
      </trkpt>
      <trkpt lat="36.6919784545898" lon="-5.00571393966675">
        <ele>1752.03686523438</ele>
        <time>2018-07-28T07:05:58Z</time>
      </trkpt>
      <trkpt lat="36.6919898986816" lon="-5.00571918487549">
        <ele>1752.01489257812</ele>
        <time>2018-07-28T07:05:59Z</time>
      </trkpt>
      <trkpt lat="36.6919975280762" lon="-5.00572299957275">
        <ele>1752.00561523438</ele>
        <time>2018-07-28T07:06:00Z</time>
      </trkpt>
      <trkpt lat="36.6920051574707" lon="-5.00572681427002">
        <ele>1751.9970703125</ele>
        <time>2018-07-28T07:06:01Z</time>
      </trkpt>
      <trkpt lat="36.6920166015625" lon="-5.00573205947876">
        <ele>1751.97839355469</ele>
        <time>2018-07-28T07:06:02Z</time>
      </trkpt>
      <trkpt lat="36.692024230957" lon="-5.00573778152466">
        <ele>1752</ele>
        <time>2018-07-28T07:06:03Z</time>
      </trkpt>
      <trkpt lat="36.6920318603516" lon="-5.00574207305908">
        <ele>1752.00109863281</ele>
        <time>2018-07-28T07:06:04Z</time>
      </trkpt>
      <trkpt lat="36.6920318603516" lon="-5.00574493408203">
        <ele>1752.0439453125</ele>
        <time>2018-07-28T07:06:05Z</time>
      </trkpt>
      <trkpt lat="36.6920356750488" lon="-5.00574588775635">
        <ele>1752.02697753906</ele>
        <time>2018-07-28T07:06:06Z</time>
      </trkpt>
      <trkpt lat="36.6920356750488" lon="-5.00574684143066">
        <ele>1752.04138183594</ele>
        <time>2018-07-28T07:06:07Z</time>
      </trkpt>
      <trkpt lat="36.6920356750488" lon="-5.00574588775635">
        <ele>1752.02697753906</ele>
        <time>2018-07-28T07:06:08Z</time>
      </trkpt>
      <trkpt lat="36.6920356750488" lon="-5.00574684143066">
        <ele>1752.04138183594</ele>
        <time>2018-07-28T07:06:09Z</time>
      </trkpt>
      <trkpt lat="36.6920356750488" lon="-5.00574779510498">
        <ele>1752.0556640625</ele>
        <time>2018-07-28T07:06:10Z</time>
      </trkpt>
      <trkpt lat="36.6920356750488" lon="-5.0057520866394">
        <ele>1752.12023925781</ele>
        <time>2018-07-28T07:06:11Z</time>
      </trkpt>
      <trkpt lat="36.6920394897461" lon="-5.00575590133667">
        <ele>1752.14685058594</ele>
        <time>2018-07-28T07:06:12Z</time>
      </trkpt>
      <trkpt lat="36.6920394897461" lon="-5.0057578086853">
        <ele>1752.17565917969</ele>
        <time>2018-07-28T07:06:13Z</time>
      </trkpt>
      <trkpt lat="36.6920394897461" lon="-5.00575876235962">
        <ele>1752.19006347656</ele>
        <time>2018-07-28T07:06:14Z</time>
      </trkpt>
      <trkpt lat="36.6920394897461" lon="-5.00576019287109">
        <ele>1752.21166992188</ele>
        <time>2018-07-28T07:06:15Z</time>
      </trkpt>
      <trkpt lat="36.6920433044434" lon="-5.00576114654541">
        <ele>1752.19543457031</ele>
        <time>2018-07-28T07:06:16Z</time>
      </trkpt>
      <trkpt lat="36.6920433044434" lon="-5.00576210021973">
        <ele>1752.20983886719</ele>
        <time>2018-07-28T07:06:17Z</time>
      </trkpt>
      <trkpt lat="36.6920433044434" lon="-5.00576305389404">
        <ele>1752.22424316406</ele>
        <time>2018-07-28T07:06:18Z</time>
      </trkpt>
      <trkpt lat="36.6920433044434" lon="-5.00576591491699">
        <ele>1752.267578125</ele>
        <time>2018-07-28T07:06:19Z</time>
      </trkpt>
      <trkpt lat="36.6920471191406" lon="-5.00577020645142">
        <ele>1752.30224609375</ele>
        <time>2018-07-28T07:06:20Z</time>
      </trkpt>
      <trkpt lat="36.6920509338379" lon="-5.00577592849731">
        <ele>1752.35913085938</ele>
        <time>2018-07-28T07:06:21Z</time>
      </trkpt>
      <trkpt lat="36.6920547485352" lon="-5.00578117370606">
        <ele>1752.40930175781</ele>
        <time>2018-07-28T07:06:22Z</time>
      </trkpt>
      <trkpt lat="36.6920585632324" lon="-5.00578594207764">
        <ele>1752.45251464844</ele>
        <time>2018-07-28T07:06:23Z</time>
      </trkpt>
      <trkpt lat="36.6920623779297" lon="-5.00579023361206">
        <ele>1752.48889160156</ele>
        <time>2018-07-28T07:06:24Z</time>
      </trkpt>
      <trkpt lat="36.692066192627" lon="-5.00579309463501">
        <ele>1752.50366210938</ele>
        <time>2018-07-28T07:06:25Z</time>
      </trkpt>
      <trkpt lat="36.6920700073242" lon="-5.00579595565796">
        <ele>1752.5185546875</ele>
        <time>2018-07-28T07:06:26Z</time>
      </trkpt>
      <trkpt lat="36.6920776367188" lon="-5.0058012008667">
        <ele>1752.54187011719</ele>
        <time>2018-07-28T07:06:27Z</time>
      </trkpt>
      <trkpt lat="36.692081451416" lon="-5.0058069229126">
        <ele>1752.60217285156</ele>
        <time>2018-07-28T07:06:28Z</time>
      </trkpt>
      <trkpt lat="36.6920852661133" lon="-5.00581216812134">
        <ele>1752.65539550781</ele>
        <time>2018-07-28T07:06:29Z</time>
      </trkpt>
      <trkpt lat="36.6920928955078" lon="-5.00581789016724">
        <ele>1752.68859863281</ele>
        <time>2018-07-28T07:06:30Z</time>
      </trkpt>
      <trkpt lat="36.6920967102051" lon="-5.00582408905029">
        <ele>1752.75805664062</ele>
        <time>2018-07-28T07:06:31Z</time>
      </trkpt>
      <trkpt lat="36.6921005249023" lon="-5.00583076477051">
        <ele>1752.83569335938</ele>
        <time>2018-07-28T07:06:32Z</time>
      </trkpt>
      <trkpt lat="36.6921043395996" lon="-5.0058388710022">
        <ele>1752.87036132812</ele>
        <time>2018-07-28T07:06:33Z</time>
      </trkpt>
      <trkpt lat="36.6921081542969" lon="-5.00584602355957">
        <ele>1752.87145996094</ele>
        <time>2018-07-28T07:06:34Z</time>
      </trkpt>
      <trkpt lat="36.6921157836914" lon="-5.00585317611694">
        <ele>1752.84704589844</ele>
        <time>2018-07-28T07:06:35Z</time>
      </trkpt>
      <trkpt lat="36.6921195983887" lon="-5.00585985183716">
        <ele>1752.84826660156</ele>
        <time>2018-07-28T07:06:36Z</time>
      </trkpt>
      <trkpt lat="36.6921234130859" lon="-5.00586605072022">
        <ele>1752.84814453125</ele>
        <time>2018-07-28T07:06:37Z</time>
      </trkpt>
      <trkpt lat="36.6921310424805" lon="-5.00587177276611">
        <ele>1752.8212890625</ele>
        <time>2018-07-28T07:06:38Z</time>
      </trkpt>
      <trkpt lat="36.6921348571777" lon="-5.00587797164917">
        <ele>1752.82287597656</ele>
        <time>2018-07-28T07:06:39Z</time>
      </trkpt>
      <trkpt lat="36.6921424865723" lon="-5.00588417053223">
        <ele>1752.80041503906</ele>
        <time>2018-07-28T07:06:40Z</time>
      </trkpt>
      <trkpt lat="36.6921463012695" lon="-5.00588893890381">
        <ele>1752.79724121094</ele>
        <time>2018-07-28T07:06:41Z</time>
      </trkpt>
      <trkpt lat="36.6921539306641" lon="-5.00589513778686">
        <ele>1752.77697753906</ele>
        <time>2018-07-28T07:06:42Z</time>
      </trkpt>
      <trkpt lat="36.6921615600586" lon="-5.00590085983276">
        <ele>1752.75598144531</ele>
        <time>2018-07-28T07:06:43Z</time>
      </trkpt>
      <trkpt lat="36.6921691894531" lon="-5.00590801239014">
        <ele>1752.74304199219</ele>
        <time>2018-07-28T07:06:44Z</time>
      </trkpt>
      <trkpt lat="36.6921768188477" lon="-5.00591421127319">
        <ele>1752.72692871094</ele>
        <time>2018-07-28T07:06:45Z</time>
      </trkpt>
      <trkpt lat="36.6921844482422" lon="-5.00591897964478">
        <ele>1752.70495605469</ele>
        <time>2018-07-28T07:06:46Z</time>
      </trkpt>
      <trkpt lat="36.692195892334" lon="-5.00592279434204">
        <ele>1752.65661621094</ele>
        <time>2018-07-28T07:06:47Z</time>
      </trkpt>
      <trkpt lat="36.6922035217285" lon="-5.00592803955078">
        <ele>1752.63952636719</ele>
        <time>2018-07-28T07:06:48Z</time>
      </trkpt>
      <trkpt lat="36.692211151123" lon="-5.00593090057373">
        <ele>1752.61047363281</ele>
        <time>2018-07-28T07:06:49Z</time>
      </trkpt>
      <trkpt lat="36.6922187805176" lon="-5.00593519210815">
        <ele>1752.59008789062</ele>
        <time>2018-07-28T07:06:50Z</time>
      </trkpt>
      <trkpt lat="36.6922264099121" lon="-5.00593996047974">
        <ele>1752.57336425781</ele>
        <time>2018-07-28T07:06:51Z</time>
      </trkpt>
      <trkpt lat="36.6922302246094" lon="-5.005943775177">
        <ele>1752.57360839844</ele>
        <time>2018-07-28T07:06:52Z</time>
      </trkpt>
      <trkpt lat="36.6922378540039" lon="-5.00594902038574">
        <ele>1752.56127929688</ele>
        <time>2018-07-28T07:06:53Z</time>
      </trkpt>
      <trkpt lat="36.6922454833984" lon="-5.00595617294312">
        <ele>1752.5615234375</ele>
        <time>2018-07-28T07:06:54Z</time>
      </trkpt>
      <trkpt lat="36.692253112793" lon="-5.00596523284912">
        <ele>1752.57495117188</ele>
        <time>2018-07-28T07:06:55Z</time>
      </trkpt>
      <trkpt lat="36.6922569274902" lon="-5.00597620010376">
        <ele>1752.62158203125</ele>
        <time>2018-07-28T07:06:56Z</time>
      </trkpt>
      <trkpt lat="36.6922645568848" lon="-5.0059871673584">
        <ele>1752.650390625</ele>
        <time>2018-07-28T07:06:57Z</time>
      </trkpt>
      <trkpt lat="36.6922721862793" lon="-5.00599479675293">
        <ele>1752.66064453125</ele>
        <time>2018-07-28T07:06:58Z</time>
      </trkpt>
      <trkpt lat="36.6922798156738" lon="-5.00600004196167">
        <ele>1752.65710449219</ele>
        <time>2018-07-28T07:06:59Z</time>
      </trkpt>
      <trkpt lat="36.6922912597656" lon="-5.00600385665894">
        <ele>1752.62744140625</ele>
        <time>2018-07-28T07:07:00Z</time>
      </trkpt>
      <trkpt lat="36.6922988891602" lon="-5.00600910186768">
        <ele>1752.62634277344</ele>
        <time>2018-07-28T07:07:01Z</time>
      </trkpt>
      <trkpt lat="36.6923065185547" lon="-5.00601291656494">
        <ele>1752.61669921875</ele>
        <time>2018-07-28T07:07:02Z</time>
      </trkpt>
      <trkpt lat="36.692310333252" lon="-5.00601816177368">
        <ele>1752.63513183594</ele>
        <time>2018-07-28T07:07:03Z</time>
      </trkpt>
      <trkpt lat="36.6923179626465" lon="-5.00602006912231">
        <ele>1752.61389160156</ele>
        <time>2018-07-28T07:07:04Z</time>
      </trkpt>
      <trkpt lat="36.692325592041" lon="-5.00602102279663">
        <ele>1752.58618164062</ele>
        <time>2018-07-28T07:07:05Z</time>
      </trkpt>
      <trkpt lat="36.6923332214356" lon="-5.00602293014526">
        <ele>1752.56555175781</ele>
        <time>2018-07-28T07:07:06Z</time>
      </trkpt>
      <trkpt lat="36.6923408508301" lon="-5.00602722167969">
        <ele>1752.56286621094</ele>
        <time>2018-07-28T07:07:07Z</time>
      </trkpt>
      <trkpt lat="36.6923484802246" lon="-5.00603008270264">
        <ele>1752.55041503906</ele>
        <time>2018-07-28T07:07:08Z</time>
      </trkpt>
      <trkpt lat="36.6923561096191" lon="-5.00603199005127">
        <ele>1752.53149414062</ele>
        <time>2018-07-28T07:07:09Z</time>
      </trkpt>
      <trkpt lat="36.6923675537109" lon="-5.00603580474854">
        <ele>1752.51123046875</ele>
        <time>2018-07-28T07:07:10Z</time>
      </trkpt>
      <trkpt lat="36.6923751831055" lon="-5.00603914260864">
        <ele>1752.50451660156</ele>
        <time>2018-07-28T07:07:11Z</time>
      </trkpt>
      <trkpt lat="36.6923828125" lon="-5.00604391098022">
        <ele>1752.50988769531</ele>
        <time>2018-07-28T07:07:12Z</time>
      </trkpt>
      <trkpt lat="36.6923866271973" lon="-5.00604915618896">
        <ele>1752.53588867188</ele>
        <time>2018-07-28T07:07:13Z</time>
      </trkpt>
      <trkpt lat="36.6923942565918" lon="-5.00605487823486">
        <ele>1752.55078125</ele>
        <time>2018-07-28T07:07:14Z</time>
      </trkpt>
      <trkpt lat="36.6924018859863" lon="-5.00605916976929">
        <ele>1752.55541992188</ele>
        <time>2018-07-28T07:07:15Z</time>
      </trkpt>
      <trkpt lat="36.6924057006836" lon="-5.00606393814087">
        <ele>1752.57958984375</ele>
        <time>2018-07-28T07:07:16Z</time>
      </trkpt>
      <trkpt lat="36.6924095153809" lon="-5.00606822967529">
        <ele>1752.60046386719</ele>
        <time>2018-07-28T07:07:17Z</time>
      </trkpt>
      <trkpt lat="36.6924095153809" lon="-5.00607299804688">
        <ele>1752.64001464844</ele>
        <time>2018-07-28T07:07:18Z</time>
      </trkpt>
      <trkpt lat="36.6924133300781" lon="-5.00607776641846">
        <ele>1752.66552734375</ele>
        <time>2018-07-28T07:07:19Z</time>
      </trkpt>
      <trkpt lat="36.6924171447754" lon="-5.0060830116272">
        <ele>1752.69555664062</ele>
        <time>2018-07-28T07:07:20Z</time>
      </trkpt>
      <trkpt lat="36.6924209594727" lon="-5.00608921051025">
        <ele>1752.73425292969</ele>
        <time>2018-07-28T07:07:21Z</time>
      </trkpt>
      <trkpt lat="36.6924247741699" lon="-5.00609493255615">
        <ele>1752.76965332031</ele>
        <time>2018-07-28T07:07:22Z</time>
      </trkpt>
      <trkpt lat="36.6924285888672" lon="-5.00610113143921">
        <ele>1752.80969238281</ele>
        <time>2018-07-28T07:07:23Z</time>
      </trkpt>
      <trkpt lat="36.6924324035644" lon="-5.00611019134522">
        <ele>1752.875</ele>
        <time>2018-07-28T07:07:24Z</time>
      </trkpt>
      <trkpt lat="36.6924362182617" lon="-5.00612020492554">
        <ele>1752.94970703125</ele>
        <time>2018-07-28T07:07:25Z</time>
      </trkpt>
      <trkpt lat="36.6924438476562" lon="-5.00612783432007">
        <ele>1752.99340820312</ele>
        <time>2018-07-28T07:07:26Z</time>
      </trkpt>
      <trkpt lat="36.6924476623535" lon="-5.00613307952881">
        <ele>1753.02844238281</ele>
        <time>2018-07-28T07:07:27Z</time>
      </trkpt>
      <trkpt lat="36.6924514770508" lon="-5.00613498687744">
        <ele>1753.03442382812</ele>
        <time>2018-07-28T07:07:28Z</time>
      </trkpt>
      <trkpt lat="36.692455291748" lon="-5.00613689422607">
        <ele>1753.04064941406</ele>
        <time>2018-07-28T07:07:29Z</time>
      </trkpt>
      <trkpt lat="36.6924629211426" lon="-5.00613880157471">
        <ele>1753.03637695312</ele>
        <time>2018-07-28T07:07:30Z</time>
      </trkpt>
      <trkpt lat="36.6924705505371" lon="-5.00614213943481">
        <ele>1753.04565429688</ele>
        <time>2018-07-28T07:07:31Z</time>
      </trkpt>
      <trkpt lat="36.6924781799316" lon="-5.00614500045776">
        <ele>1753.05114746094</ele>
        <time>2018-07-28T07:07:32Z</time>
      </trkpt>
      <trkpt lat="36.6924896240234" lon="-5.00614976882935">
        <ele>1753.06518554688</ele>
        <time>2018-07-28T07:07:33Z</time>
      </trkpt>
      <trkpt lat="36.692497253418" lon="-5.00615406036377">
        <ele>1753.08605957031</ele>
        <time>2018-07-28T07:07:34Z</time>
      </trkpt>
      <trkpt lat="36.6925048828125" lon="-5.00615882873535">
        <ele>1752.99133300781</ele>
        <time>2018-07-28T07:07:35Z</time>
      </trkpt>
      <trkpt lat="36.692512512207" lon="-5.00616502761841">
        <ele>1752.84204101562</ele>
        <time>2018-07-28T07:07:36Z</time>
      </trkpt>
      <trkpt lat="36.6925163269043" lon="-5.0061731338501">
        <ele>1752.81506347656</ele>
        <time>2018-07-28T07:07:37Z</time>
      </trkpt>
      <trkpt lat="36.6925201416016" lon="-5.0061821937561">
        <ele>1752.79711914062</ele>
        <time>2018-07-28T07:07:38Z</time>
      </trkpt>
      <trkpt lat="36.6925277709961" lon="-5.00618982315064">
        <ele>1752.66064453125</ele>
        <time>2018-07-28T07:07:39Z</time>
      </trkpt>
      <trkpt lat="36.6925315856934" lon="-5.00619697570801">
        <ele>1752.6240234375</ele>
        <time>2018-07-28T07:07:40Z</time>
      </trkpt>
      <trkpt lat="36.6925392150879" lon="-5.0062050819397">
        <ele>1752.49157714844</ele>
        <time>2018-07-28T07:07:41Z</time>
      </trkpt>
      <trkpt lat="36.6925468444824" lon="-5.00621318817139">
        <ele>1752.35864257812</ele>
        <time>2018-07-28T07:07:42Z</time>
      </trkpt>
      <trkpt lat="36.6925506591797" lon="-5.00622081756592">
        <ele>1752.32592773438</ele>
        <time>2018-07-28T07:07:43Z</time>
      </trkpt>
      <trkpt lat="36.6925582885742" lon="-5.00622701644897">
        <ele>1752.17443847656</ele>
        <time>2018-07-28T07:07:44Z</time>
      </trkpt>
      <trkpt lat="36.6925621032715" lon="-5.00623416900635">
        <ele>1752.13684082031</ele>
        <time>2018-07-28T07:07:45Z</time>
      </trkpt>
      <trkpt lat="36.6925621032715" lon="-5.00624084472656">
        <ele>1752.19970703125</ele>
        <time>2018-07-28T07:07:46Z</time>
      </trkpt>
      <trkpt lat="36.6925659179688" lon="-5.00624895095825">
        <ele>1752.17077636719</ele>
        <time>2018-07-28T07:07:47Z</time>
      </trkpt>
      <trkpt lat="36.6925735473633" lon="-5.00625610351562">
        <ele>1752.02734375</ele>
        <time>2018-07-28T07:07:48Z</time>
      </trkpt>
      <trkpt lat="36.6925735473633" lon="-5.00626277923584">
        <ele>1752.09008789062</ele>
        <time>2018-07-28T07:07:49Z</time>
      </trkpt>
      <trkpt lat="36.6925773620606" lon="-5.00626993179321">
        <ele>1752.0517578125</ele>
        <time>2018-07-28T07:07:50Z</time>
      </trkpt>
      <trkpt lat="36.6925811767578" lon="-5.00627517700195">
        <ele>1751.99536132812</ele>
        <time>2018-07-28T07:07:51Z</time>
      </trkpt>
      <trkpt lat="36.6925849914551" lon="-5.00627994537354">
        <ele>1751.93432617188</ele>
        <time>2018-07-28T07:07:52Z</time>
      </trkpt>
      <trkpt lat="36.6925888061523" lon="-5.00628614425659">
        <ele>1751.88671875</ele>
        <time>2018-07-28T07:07:53Z</time>
      </trkpt>
      <trkpt lat="36.6925964355469" lon="-5.00629186630249">
        <ele>1751.72863769531</ele>
        <time>2018-07-28T07:07:54Z</time>
      </trkpt>
      <trkpt lat="36.6926078796387" lon="-5.00629711151123">
        <ele>1751.46020507812</ele>
        <time>2018-07-28T07:07:55Z</time>
      </trkpt>
      <trkpt lat="36.6926116943359" lon="-5.00629901885986">
        <ele>1751.3720703125</ele>
        <time>2018-07-28T07:07:56Z</time>
      </trkpt>
      <trkpt lat="36.6926155090332" lon="-5.00629997253418">
        <ele>1751.27502441406</ele>
        <time>2018-07-28T07:07:57Z</time>
      </trkpt>
      <trkpt lat="36.6926193237305" lon="-5.00630283355713">
        <ele>1751.19567871094</ele>
        <time>2018-07-28T07:07:58Z</time>
      </trkpt>
      <trkpt lat="36.6926231384277" lon="-5.00630617141724">
        <ele>1751.12072753906</ele>
        <time>2018-07-28T07:07:59Z</time>
      </trkpt>
      <trkpt lat="36.6926307678223" lon="-5.00630903244019">
        <ele>1750.93530273438</ele>
        <time>2018-07-28T07:08:00Z</time>
      </trkpt>
      <trkpt lat="36.6926345825195" lon="-5.00631093978882">
        <ele>1750.84692382812</ele>
        <time>2018-07-28T07:08:01Z</time>
      </trkpt>
      <trkpt lat="36.6926422119141" lon="-5.00631284713745">
        <ele>1750.65258789062</ele>
        <time>2018-07-28T07:08:02Z</time>
      </trkpt>
      <trkpt lat="36.6926460266113" lon="-5.00631523132324">
        <ele>1750.56848144531</ele>
        <time>2018-07-28T07:08:03Z</time>
      </trkpt>
      <trkpt lat="36.6926498413086" lon="-5.00631618499756">
        <ele>1750.47119140625</ele>
        <time>2018-07-28T07:08:04Z</time>
      </trkpt>
      <trkpt lat="36.6926574707031" lon="-5.00631713867188">
        <ele>1750.26794433594</ele>
        <time>2018-07-28T07:08:05Z</time>
      </trkpt>
      <trkpt lat="36.6926612854004" lon="-5.00631713867188">
        <ele>1750.16186523438</ele>
        <time>2018-07-28T07:08:06Z</time>
      </trkpt>
      <trkpt lat="36.6926689147949" lon="-5.00631618499756">
        <ele>1749.94116210938</ele>
        <time>2018-07-28T07:08:07Z</time>
      </trkpt>
      <trkpt lat="36.6926727294922" lon="-5.00631284713745">
        <ele>1749.8046875</ele>
        <time>2018-07-28T07:08:08Z</time>
      </trkpt>
      <trkpt lat="36.6926765441894" lon="-5.00630712509155">
        <ele>1749.64672851562</ele>
        <time>2018-07-28T07:08:09Z</time>
      </trkpt>
      <trkpt lat="36.6926727294922" lon="-5.00629901885986">
        <ele>1749.67883300781</ele>
        <time>2018-07-28T07:08:10Z</time>
      </trkpt>
      <trkpt lat="36.6926727294922" lon="-5.00628995895386">
        <ele>1749.59643554688</ele>
        <time>2018-07-28T07:08:11Z</time>
      </trkpt>
      <trkpt lat="36.6926689147949" lon="-5.00628280639648">
        <ele>1749.63696289062</ele>
        <time>2018-07-28T07:08:12Z</time>
      </trkpt>
      <trkpt lat="36.6926689147949" lon="-5.00627613067627">
        <ele>1749.57604980469</ele>
        <time>2018-07-28T07:08:13Z</time>
      </trkpt>
      <trkpt lat="36.6926689147949" lon="-5.00626993179321">
        <ele>1749.51965332031</ele>
        <time>2018-07-28T07:08:14Z</time>
      </trkpt>
      <trkpt lat="36.6926689147949" lon="-5.00626277923584">
        <ele>1749.45446777344</ele>
        <time>2018-07-28T07:08:15Z</time>
      </trkpt>
      <trkpt lat="36.6926651000977" lon="-5.00625705718994">
        <ele>1749.50769042969</ele>
        <time>2018-07-28T07:08:16Z</time>
      </trkpt>
      <trkpt lat="36.6926651000977" lon="-5.00624990463257">
        <ele>1749.4423828125</ele>
        <time>2018-07-28T07:08:17Z</time>
      </trkpt>
      <trkpt lat="36.6926612854004" lon="-5.00624513626099">
        <ele>1749.50415039062</ele>
        <time>2018-07-28T07:08:18Z</time>
      </trkpt>
      <trkpt lat="36.6926612854004" lon="-5.00623989105225">
        <ele>1749.45617675781</ele>
        <time>2018-07-28T07:08:19Z</time>
      </trkpt>
      <trkpt lat="36.6926612854004" lon="-5.0062370300293">
        <ele>1749.43005371094</ele>
        <time>2018-07-28T07:08:20Z</time>
      </trkpt>
      <trkpt lat="36.6926651000977" lon="-5.00623512268066">
        <ele>1749.30749511719</ele>
        <time>2018-07-28T07:08:21Z</time>
      </trkpt>
      <trkpt lat="36.6926689147949" lon="-5.00623512268066">
        <ele>1749.20239257812</ele>
        <time>2018-07-28T07:08:22Z</time>
      </trkpt>
      <trkpt lat="36.6926765441894" lon="-5.0062370300293">
        <ele>1749.00952148438</ele>
        <time>2018-07-28T07:08:23Z</time>
      </trkpt>
      <trkpt lat="36.6926803588867" lon="-5.00624084472656">
        <ele>1748.93896484375</ele>
        <time>2018-07-28T07:08:24Z</time>
      </trkpt>
      <trkpt lat="36.6926879882812" lon="-5.00624513626099">
        <ele>1748.76745605469</ele>
        <time>2018-07-28T07:08:25Z</time>
      </trkpt>
      <trkpt lat="36.6926956176758" lon="-5.00624895095825">
        <ele>1748.59143066406</ele>
        <time>2018-07-28T07:08:26Z</time>
      </trkpt>
      <trkpt lat="36.6927032470703" lon="-5.00625085830688">
        <ele>1748.39807128906</ele>
        <time>2018-07-28T07:08:27Z</time>
      </trkpt>
      <trkpt lat="36.6927070617676" lon="-5.00625276565552">
        <ele>1748.30993652344</ele>
        <time>2018-07-28T07:08:28Z</time>
      </trkpt>
      <trkpt lat="36.6927108764648" lon="-5.00625419616699">
        <ele>1748.21752929688</ele>
        <time>2018-07-28T07:08:29Z</time>
      </trkpt>
      <trkpt lat="36.6927108764648" lon="-5.00625419616699">
        <ele>1748.21752929688</ele>
        <time>2018-07-28T07:08:30Z</time>
      </trkpt>
      <trkpt lat="36.6927108764648" lon="-5.00625514984131">
        <ele>1748.22607421875</ele>
        <time>2018-07-28T07:08:31Z</time>
      </trkpt>
      <trkpt lat="36.6927146911621" lon="-5.00625514984131">
        <ele>1748.12072753906</ele>
        <time>2018-07-28T07:08:32Z</time>
      </trkpt>
      <trkpt lat="36.6927146911621" lon="-5.00625610351562">
        <ele>1748.12939453125</ele>
        <time>2018-07-28T07:08:33Z</time>
      </trkpt>
      <trkpt lat="36.6927185058594" lon="-5.00625705718994">
        <ele>1748.03259277344</ele>
        <time>2018-07-28T07:08:34Z</time>
      </trkpt>
      <trkpt lat="36.6927223205566" lon="-5.00625801086426">
        <ele>1747.93566894531</ele>
        <time>2018-07-28T07:08:35Z</time>
      </trkpt>
      <trkpt lat="36.6927299499512" lon="-5.00625801086426">
        <ele>1747.72497558594</ele>
        <time>2018-07-28T07:08:36Z</time>
      </trkpt>
      <trkpt lat="36.6927375793457" lon="-5.00625896453857">
        <ele>1747.52270507812</ele>
        <time>2018-07-28T07:08:37Z</time>
      </trkpt>
      <trkpt lat="36.692741394043" lon="-5.00626087188721">
        <ele>1747.43432617188</ele>
        <time>2018-07-28T07:08:38Z</time>
      </trkpt>
      <trkpt lat="36.6927452087402" lon="-5.00626516342163">
        <ele>1747.36706542969</ele>
        <time>2018-07-28T07:08:39Z</time>
      </trkpt>
      <trkpt lat="36.6927528381348" lon="-5.00627183914185">
        <ele>1747.21545410156</ele>
        <time>2018-07-28T07:08:40Z</time>
      </trkpt>
      <trkpt lat="36.692756652832" lon="-5.00628089904785">
        <ele>1747.19018554688</ele>
        <time>2018-07-28T07:08:41Z</time>
      </trkpt>
      <trkpt lat="36.6927642822266" lon="-5.00628995895386">
        <ele>1747.05895996094</ele>
        <time>2018-07-28T07:08:42Z</time>
      </trkpt>
      <trkpt lat="36.6927680969238" lon="-5.00629901885986">
        <ele>1747.033203125</ele>
        <time>2018-07-28T07:08:43Z</time>
      </trkpt>
      <trkpt lat="36.6927719116211" lon="-5.00630807876587">
        <ele>1747.00732421875</ele>
        <time>2018-07-28T07:08:44Z</time>
      </trkpt>
      <trkpt lat="36.6927757263184" lon="-5.00631809234619">
        <ele>1746.98962402344</ele>
        <time>2018-07-28T07:08:45Z</time>
      </trkpt>
      <trkpt lat="36.6927795410156" lon="-5.0063271522522">
        <ele>1746.96325683594</ele>
        <time>2018-07-28T07:08:46Z</time>
      </trkpt>
      <trkpt lat="36.6927871704102" lon="-5.0063362121582">
        <ele>1746.83044433594</ele>
        <time>2018-07-28T07:08:47Z</time>
      </trkpt>
      <trkpt lat="36.6927909851074" lon="-5.00634384155273">
        <ele>1746.791015625</ele>
        <time>2018-07-28T07:08:48Z</time>
      </trkpt>
      <trkpt lat="36.692798614502" lon="-5.00635194778442">
        <ele>1746.64929199219</ele>
        <time>2018-07-28T07:08:49Z</time>
      </trkpt>
      <trkpt lat="36.6928062438965" lon="-5.00636005401611">
        <ele>1746.50708007812</ele>
        <time>2018-07-28T07:08:50Z</time>
      </trkpt>
      <trkpt lat="36.692813873291" lon="-5.0063681602478">
        <ele>1746.36462402344</ele>
        <time>2018-07-28T07:08:51Z</time>
      </trkpt>
      <trkpt lat="36.6928215026856" lon="-5.00637578964233">
        <ele>1746.21765136719</ele>
        <time>2018-07-28T07:08:52Z</time>
      </trkpt>
      <trkpt lat="36.6928291320801" lon="-5.00638580322266">
        <ele>1746.09094238281</ele>
        <time>2018-07-28T07:08:53Z</time>
      </trkpt>
      <trkpt lat="36.6928367614746" lon="-5.00639581680298">
        <ele>1745.96374511719</ele>
        <time>2018-07-28T07:08:54Z</time>
      </trkpt>
      <trkpt lat="36.6928443908691" lon="-5.00640916824341">
        <ele>1745.86499023438</ele>
        <time>2018-07-28T07:08:55Z</time>
      </trkpt>
      <trkpt lat="36.6928520202637" lon="-5.00642013549805">
        <ele>1745.74499511719</ele>
        <time>2018-07-28T07:08:56Z</time>
      </trkpt>
      <trkpt lat="36.6928596496582" lon="-5.00643110275269">
        <ele>1745.62463378906</ele>
        <time>2018-07-28T07:08:57Z</time>
      </trkpt>
      <trkpt lat="36.6928634643555" lon="-5.00644016265869">
        <ele>1745.59484863281</ele>
        <time>2018-07-28T07:08:58Z</time>
      </trkpt>
      <trkpt lat="36.69287109375" lon="-5.00645208358765">
        <ele>1745.48181152344</ele>
        <time>2018-07-28T07:08:59Z</time>
      </trkpt>
      <trkpt lat="36.6928749084473" lon="-5.00646305084228">
        <ele>1745.4677734375</ele>
        <time>2018-07-28T07:09:00Z</time>
      </trkpt>
      <trkpt lat="36.6928825378418" lon="-5.00647497177124">
        <ele>1745.35388183594</ele>
        <time>2018-07-28T07:09:01Z</time>
      </trkpt>
      <trkpt lat="36.6928863525391" lon="-5.00648784637451">
        <ele>1745.35534667969</ele>
        <time>2018-07-28T07:09:02Z</time>
      </trkpt>
      <trkpt lat="36.6928939819336" lon="-5.00650119781494">
        <ele>1745.25256347656</ele>
        <time>2018-07-28T07:09:03Z</time>
      </trkpt>
      <trkpt lat="36.6928939819336" lon="-5.0065131187439">
        <ele>1745.353515625</ele>
        <time>2018-07-28T07:09:04Z</time>
      </trkpt>
      <trkpt lat="36.6928977966309" lon="-5.00652599334717">
        <ele>1745.35412597656</ele>
        <time>2018-07-28T07:09:05Z</time>
      </trkpt>
      <trkpt lat="36.6929016113281" lon="-5.00653982162476">
        <ele>1745.36254882812</ele>
        <time>2018-07-28T07:09:06Z</time>
      </trkpt>
      <trkpt lat="36.6929054260254" lon="-5.00655317306519">
        <ele>1745.36669921875</ele>
        <time>2018-07-28T07:09:07Z</time>
      </trkpt>
      <trkpt lat="36.6929092407227" lon="-5.00656795501709">
        <ele>1745.38256835938</ele>
        <time>2018-07-28T07:09:08Z</time>
      </trkpt>
      <trkpt lat="36.6929092407227" lon="-5.00658178329468">
        <ele>1745.4990234375</ele>
        <time>2018-07-28T07:09:09Z</time>
      </trkpt>
      <trkpt lat="36.6929130554199" lon="-5.00659608840942">
        <ele>1745.51037597656</ele>
        <time>2018-07-28T07:09:10Z</time>
      </trkpt>
      <trkpt lat="36.6929130554199" lon="-5.00660800933838">
        <ele>1745.61071777344</ele>
        <time>2018-07-28T07:09:11Z</time>
      </trkpt>
      <trkpt lat="36.6929130554199" lon="-5.00662088394165">
        <ele>1745.71899414062</ele>
        <time>2018-07-28T07:09:12Z</time>
      </trkpt>
      <trkpt lat="36.6929130554199" lon="-5.00663423538208">
        <ele>1745.83129882812</ele>
        <time>2018-07-28T07:09:13Z</time>
      </trkpt>
      <trkpt lat="36.6929130554199" lon="-5.00664806365967">
        <ele>1745.94750976562</ele>
        <time>2018-07-28T07:09:14Z</time>
      </trkpt>
      <trkpt lat="36.6929130554199" lon="-5.00666189193726">
        <ele>1746.06384277344</ele>
        <time>2018-07-28T07:09:15Z</time>
      </trkpt>
      <trkpt lat="36.6929130554199" lon="-5.006676197052">
        <ele>1746.126953125</ele>
        <time>2018-07-28T07:09:16Z</time>
      </trkpt>
      <trkpt lat="36.6929130554199" lon="-5.00669002532959">
        <ele>1746.16027832031</ele>
        <time>2018-07-28T07:09:17Z</time>
      </trkpt>
      <trkpt lat="36.6929092407227" lon="-5.00670194625854">
        <ele>1746.29931640625</ele>
        <time>2018-07-28T07:09:18Z</time>
      </trkpt>
      <trkpt lat="36.6929092407227" lon="-5.00671577453613">
        <ele>1746.33276367188</ele>
        <time>2018-07-28T07:09:19Z</time>
      </trkpt>
      <trkpt lat="36.6929092407227" lon="-5.00672912597656">
        <ele>1746.36511230469</ele>
        <time>2018-07-28T07:09:20Z</time>
      </trkpt>
      <trkpt lat="36.6929092407227" lon="-5.00674200057983">
        <ele>1746.39624023438</ele>
        <time>2018-07-28T07:09:21Z</time>
      </trkpt>
      <trkpt lat="36.6929054260254" lon="-5.00675296783447">
        <ele>1746.53369140625</ele>
        <time>2018-07-28T07:09:22Z</time>
      </trkpt>
      <trkpt lat="36.6929054260254" lon="-5.00676202774048">
        <ele>1746.5556640625</ele>
        <time>2018-07-28T07:09:23Z</time>
      </trkpt>
      <trkpt lat="36.6929016113281" lon="-5.0067720413208">
        <ele>1746.69104003906</ele>
        <time>2018-07-28T07:09:24Z</time>
      </trkpt>
      <trkpt lat="36.6929016113281" lon="-5.00678205490112">
        <ele>1746.71557617188</ele>
        <time>2018-07-28T07:09:25Z</time>
      </trkpt>
      <trkpt lat="36.6928977966309" lon="-5.00679397583008">
        <ele>1746.85595703125</ele>
        <time>2018-07-28T07:09:26Z</time>
      </trkpt>
      <trkpt lat="36.6928939819336" lon="-5.00680494308472">
        <ele>1746.99426269531</ele>
        <time>2018-07-28T07:09:27Z</time>
      </trkpt>
      <trkpt lat="36.6928901672363" lon="-5.00681591033936">
        <ele>1747.1328125</ele>
        <time>2018-07-28T07:09:28Z</time>
      </trkpt>
      <trkpt lat="36.6928901672363" lon="-5.00682592391968">
        <ele>1747.15759277344</ele>
        <time>2018-07-28T07:09:29Z</time>
      </trkpt>
      <trkpt lat="36.6928939819336" lon="-5.00683784484863">
        <ele>1747.07531738281</ele>
        <time>2018-07-28T07:09:30Z</time>
      </trkpt>
      <trkpt lat="36.6928939819336" lon="-5.00684976577759">
        <ele>1747.10473632812</ele>
        <time>2018-07-28T07:09:31Z</time>
      </trkpt>
      <trkpt lat="36.6928939819336" lon="-5.00686407089233">
        <ele>1747.14001464844</ele>
        <time>2018-07-28T07:09:32Z</time>
      </trkpt>
      <trkpt lat="36.6928901672363" lon="-5.00687694549561">
        <ele>1747.28393554688</ele>
        <time>2018-07-28T07:09:33Z</time>
      </trkpt>
      <trkpt lat="36.6928863525391" lon="-5.00688982009888">
        <ele>1747.42810058594</ele>
        <time>2018-07-28T07:09:34Z</time>
      </trkpt>
      <trkpt lat="36.6928825378418" lon="-5.00690317153931">
        <ele>1747.57373046875</ele>
        <time>2018-07-28T07:09:35Z</time>
      </trkpt>
      <trkpt lat="36.6928787231445" lon="-5.00691509246826">
        <ele>1747.71618652344</ele>
        <time>2018-07-28T07:09:36Z</time>
      </trkpt>
      <trkpt lat="36.69287109375" lon="-5.0069260597229">
        <ele>1747.96911621094</ele>
        <time>2018-07-28T07:09:37Z</time>
      </trkpt>
      <trkpt lat="36.6928672790527" lon="-5.00693511962891">
        <ele>1748.10485839844</ele>
        <time>2018-07-28T07:09:38Z</time>
      </trkpt>
      <trkpt lat="36.6928596496582" lon="-5.0069432258606">
        <ele>1748.35119628906</ele>
        <time>2018-07-28T07:09:39Z</time>
      </trkpt>
      <trkpt lat="36.6928520202637" lon="-5.00695085525513">
        <ele>1748.59680175781</ele>
        <time>2018-07-28T07:09:40Z</time>
      </trkpt>
      <trkpt lat="36.6928443908691" lon="-5.00695896148682">
        <ele>1748.84387207031</ele>
        <time>2018-07-28T07:09:41Z</time>
      </trkpt>
      <trkpt lat="36.6928367614746" lon="-5.00696611404419">
        <ele>1749.0888671875</ele>
        <time>2018-07-28T07:09:42Z</time>
      </trkpt>
      <trkpt lat="36.6928329467773" lon="-5.0069751739502">
        <ele>1749.22595214844</ele>
        <time>2018-07-28T07:09:43Z</time>
      </trkpt>
      <trkpt lat="36.6928291320801" lon="-5.00698518753052">
        <ele>1749.36572265625</ele>
        <time>2018-07-28T07:09:44Z</time>
      </trkpt>
      <trkpt lat="36.6928215026856" lon="-5.00699090957642">
        <ele>1749.60778808594</ele>
        <time>2018-07-28T07:09:45Z</time>
      </trkpt>
      <trkpt lat="36.692813873291" lon="-5.00699615478516">
        <ele>1749.84875488281</ele>
        <time>2018-07-28T07:09:46Z</time>
      </trkpt>
      <trkpt lat="36.6928100585938" lon="-5.00699615478516">
        <ele>1749.96228027344</ele>
        <time>2018-07-28T07:09:47Z</time>
      </trkpt>
      <trkpt lat="36.6928100585938" lon="-5.00699806213379">
        <ele>1749.96740722656</ele>
        <time>2018-07-28T07:09:48Z</time>
      </trkpt>
      <trkpt lat="36.6928062438965" lon="-5.00699806213379">
        <ele>1750.08093261719</ele>
        <time>2018-07-28T07:09:49Z</time>
      </trkpt>
      <trkpt lat="36.6928062438965" lon="-5.00699901580811">
        <ele>1750.08349609375</ele>
        <time>2018-07-28T07:09:50Z</time>
      </trkpt>
      <trkpt lat="36.6928062438965" lon="-5.00700092315674">
        <ele>1750.08874511719</ele>
        <time>2018-07-28T07:09:51Z</time>
      </trkpt>
      <trkpt lat="36.6928024291992" lon="-5.00700616836548">
        <ele>1750.21655273438</ele>
        <time>2018-07-28T07:09:52Z</time>
      </trkpt>
      <trkpt lat="36.692798614502" lon="-5.00701189041138">
        <ele>1750.34582519531</ele>
        <time>2018-07-28T07:09:53Z</time>
      </trkpt>
      <trkpt lat="36.692798614502" lon="-5.00701713562012">
        <ele>1750.36022949219</ele>
        <time>2018-07-28T07:09:54Z</time>
      </trkpt>
      <trkpt lat="36.692798614502" lon="-5.00702285766602">
        <ele>1750.37585449219</ele>
        <time>2018-07-28T07:09:55Z</time>
      </trkpt>
      <trkpt lat="36.692798614502" lon="-5.00702810287476">
        <ele>1750.39025878906</ele>
        <time>2018-07-28T07:09:56Z</time>
      </trkpt>
      <trkpt lat="36.692798614502" lon="-5.00703477859497">
        <ele>1750.40856933594</ele>
        <time>2018-07-28T07:09:57Z</time>
      </trkpt>
      <trkpt lat="36.692798614502" lon="-5.00704097747803">
        <ele>1750.42553710938</ele>
        <time>2018-07-28T07:09:58Z</time>
      </trkpt>
      <trkpt lat="36.692798614502" lon="-5.0070481300354">
        <ele>1750.44506835938</ele>
        <time>2018-07-28T07:09:59Z</time>
      </trkpt>
      <trkpt lat="36.6927947998047" lon="-5.0070538520813">
        <ele>1750.57495117188</ele>
        <time>2018-07-28T07:10:00Z</time>
      </trkpt>
      <trkpt lat="36.6927909851074" lon="-5.00705909729004">
        <ele>1750.70349121094</ele>
        <time>2018-07-28T07:10:01Z</time>
      </trkpt>
      <trkpt lat="36.6927909851074" lon="-5.00706386566162">
        <ele>1750.71667480469</ele>
        <time>2018-07-28T07:10:02Z</time>
      </trkpt>
      <trkpt lat="36.6927871704102" lon="-5.00706815719604">
        <ele>1750.8427734375</ele>
        <time>2018-07-28T07:10:03Z</time>
      </trkpt>
      <trkpt lat="36.6927871704102" lon="-5.00707292556763">
        <ele>1750.85607910156</ele>
        <time>2018-07-28T07:10:04Z</time>
      </trkpt>
      <trkpt lat="36.6927871704102" lon="-5.00707817077637">
        <ele>1750.87060546875</ele>
        <time>2018-07-28T07:10:05Z</time>
      </trkpt>
      <trkpt lat="36.6927871704102" lon="-5.00708484649658">
        <ele>1750.88903808594</ele>
        <time>2018-07-28T07:10:06Z</time>
      </trkpt>
      <trkpt lat="36.6927909851074" lon="-5.00709295272827">
        <ele>1750.79699707031</ele>
        <time>2018-07-28T07:10:07Z</time>
      </trkpt>
      <trkpt lat="36.6927909851074" lon="-5.00710010528564">
        <ele>1750.81677246094</ele>
        <time>2018-07-28T07:10:08Z</time>
      </trkpt>
      <trkpt lat="36.6927909851074" lon="-5.00711011886597">
        <ele>1750.84448242188</ele>
        <time>2018-07-28T07:10:09Z</time>
      </trkpt>
      <trkpt lat="36.6927909851074" lon="-5.00712108612061">
        <ele>1750.87475585938</ele>
        <time>2018-07-28T07:10:10Z</time>
      </trkpt>
      <trkpt lat="36.6927909851074" lon="-5.00713396072388">
        <ele>1750.91027832031</ele>
        <time>2018-07-28T07:10:11Z</time>
      </trkpt>
      <trkpt lat="36.6927909851074" lon="-5.00714588165283">
        <ele>1750.94323730469</ele>
        <time>2018-07-28T07:10:12Z</time>
      </trkpt>
      <trkpt lat="36.6927909851074" lon="-5.00715923309326">
        <ele>1750.98010253906</ele>
        <time>2018-07-28T07:10:13Z</time>
      </trkpt>
      <trkpt lat="36.6927909851074" lon="-5.00717306137085">
        <ele>1751.01831054688</ele>
        <time>2018-07-28T07:10:14Z</time>
      </trkpt>
      <trkpt lat="36.6927947998047" lon="-5.00718688964844">
        <ele>1750.94091796875</ele>
        <time>2018-07-28T07:10:15Z</time>
      </trkpt>
      <trkpt lat="36.6927947998047" lon="-5.00719785690308">
        <ele>1750.97106933594</ele>
        <time>2018-07-28T07:10:16Z</time>
      </trkpt>
      <trkpt lat="36.692798614502" lon="-5.00720882415772">
        <ele>1750.88537597656</ele>
        <time>2018-07-28T07:10:17Z</time>
      </trkpt>
      <trkpt lat="36.6928024291992" lon="-5.00721883773804">
        <ele>1750.796875</ele>
        <time>2018-07-28T07:10:18Z</time>
      </trkpt>
      <trkpt lat="36.6928062438965" lon="-5.00722980499268">
        <ele>1750.71081542969</ele>
        <time>2018-07-28T07:10:19Z</time>
      </trkpt>
      <trkpt lat="36.692813873291" lon="-5.00724220275879">
        <ele>1750.51208496094</ele>
        <time>2018-07-28T07:10:20Z</time>
      </trkpt>
      <trkpt lat="36.6928176879883" lon="-5.00725317001343">
        <ele>1750.42541503906</ele>
        <time>2018-07-28T07:10:21Z</time>
      </trkpt>
      <trkpt lat="36.6928215026856" lon="-5.00726413726807">
        <ele>1750.33837890625</ele>
        <time>2018-07-28T07:10:22Z</time>
      </trkpt>
      <trkpt lat="36.6928291320801" lon="-5.00727605819702">
        <ele>1750.13720703125</ele>
        <time>2018-07-28T07:10:23Z</time>
      </trkpt>
      <trkpt lat="36.6928329467773" lon="-5.00728797912598">
        <ele>1750.05212402344</ele>
        <time>2018-07-28T07:10:24Z</time>
      </trkpt>
      <trkpt lat="36.6928405761719" lon="-5.00729990005493">
        <ele>1749.84997558594</ele>
        <time>2018-07-28T07:10:25Z</time>
      </trkpt>
      <trkpt lat="36.6928443908691" lon="-5.00731182098389">
        <ele>1749.76416015625</ele>
        <time>2018-07-28T07:10:26Z</time>
      </trkpt>
      <trkpt lat="36.6928482055664" lon="-5.00732278823853">
        <ele>1749.67578125</ele>
        <time>2018-07-28T07:10:27Z</time>
      </trkpt>
      <trkpt lat="36.6928520202637" lon="-5.00733423233032">
        <ele>1749.58825683594</ele>
        <time>2018-07-28T07:10:28Z</time>
      </trkpt>
      <trkpt lat="36.6928558349609" lon="-5.00734376907349">
        <ele>1749.49560546875</ele>
        <time>2018-07-28T07:10:29Z</time>
      </trkpt>
      <trkpt lat="36.6928596496582" lon="-5.00735521316528">
        <ele>1749.40771484375</ele>
        <time>2018-07-28T07:10:30Z</time>
      </trkpt>
      <trkpt lat="36.6928672790527" lon="-5.00736379623413">
        <ele>1749.19458007812</ele>
        <time>2018-07-28T07:10:31Z</time>
      </trkpt>
      <trkpt lat="36.6928787231445" lon="-5.00737285614014">
        <ele>1748.86474609375</ele>
        <time>2018-07-28T07:10:32Z</time>
      </trkpt>
      <trkpt lat="36.6928863525391" lon="-5.00738286972046">
        <ele>1748.65441894531</ele>
        <time>2018-07-28T07:10:33Z</time>
      </trkpt>
      <trkpt lat="36.6928939819336" lon="-5.00739288330078">
        <ele>1748.44372558594</ele>
        <time>2018-07-28T07:10:34Z</time>
      </trkpt>
      <trkpt lat="36.6929054260254" lon="-5.0074028968811">
        <ele>1748.11450195312</ele>
        <time>2018-07-28T07:10:35Z</time>
      </trkpt>
      <trkpt lat="36.6929130554199" lon="-5.00741291046143">
        <ele>1747.90270996094</ele>
        <time>2018-07-28T07:10:36Z</time>
      </trkpt>
      <trkpt lat="36.6929168701172" lon="-5.00742197036743">
        <ele>1747.80639648438</ele>
        <time>2018-07-28T07:10:37Z</time>
      </trkpt>
      <trkpt lat="36.6929244995117" lon="-5.00743198394775">
        <ele>1747.59387207031</ele>
        <time>2018-07-28T07:10:38Z</time>
      </trkpt>
      <trkpt lat="36.692928314209" lon="-5.00744199752808">
        <ele>1747.49938964844</ele>
        <time>2018-07-28T07:10:39Z</time>
      </trkpt>
      <trkpt lat="36.6929359436035" lon="-5.0074520111084">
        <ele>1747.28601074219</ele>
        <time>2018-07-28T07:10:40Z</time>
      </trkpt>
      <trkpt lat="36.6929397583008" lon="-5.00746202468872">
        <ele>1747.19091796875</ele>
        <time>2018-07-28T07:10:41Z</time>
      </trkpt>
      <trkpt lat="36.692943572998" lon="-5.00747203826904">
        <ele>1747.09558105469</ele>
        <time>2018-07-28T07:10:42Z</time>
      </trkpt>
      <trkpt lat="36.6929512023926" lon="-5.00748205184936">
        <ele>1746.88122558594</ele>
        <time>2018-07-28T07:10:43Z</time>
      </trkpt>
      <trkpt lat="36.6929550170898" lon="-5.00749111175537">
        <ele>1746.78308105469</ele>
        <time>2018-07-28T07:10:44Z</time>
      </trkpt>
      <trkpt lat="36.6929626464844" lon="-5.00750017166138">
        <ele>1746.56628417969</ele>
        <time>2018-07-28T07:10:45Z</time>
      </trkpt>
      <trkpt lat="36.6929702758789" lon="-5.00750923156738">
        <ele>1746.37170410156</ele>
        <time>2018-07-28T07:10:46Z</time>
      </trkpt>
      <trkpt lat="36.6929779052734" lon="-5.00751876831055">
        <ele>1746.17944335938</ele>
        <time>2018-07-28T07:10:47Z</time>
      </trkpt>
      <trkpt lat="36.6929817199707" lon="-5.00752782821655">
        <ele>1746.10388183594</ele>
        <time>2018-07-28T07:10:48Z</time>
      </trkpt>
      <trkpt lat="36.6929893493652" lon="-5.00753784179688">
        <ele>1745.91394042969</ele>
        <time>2018-07-28T07:10:49Z</time>
      </trkpt>
      <trkpt lat="36.6929969787598" lon="-5.00754594802856">
        <ele>1745.71484375</ele>
        <time>2018-07-28T07:10:50Z</time>
      </trkpt>
      <trkpt lat="36.6930046081543" lon="-5.00755310058594">
        <ele>1745.51110839844</ele>
        <time>2018-07-28T07:10:51Z</time>
      </trkpt>
      <trkpt lat="36.6930084228516" lon="-5.00756216049194">
        <ele>1745.435546875</ele>
        <time>2018-07-28T07:10:52Z</time>
      </trkpt>
      <trkpt lat="36.6930160522461" lon="-5.00757122039795">
        <ele>1745.24096679688</ele>
        <time>2018-07-28T07:10:53Z</time>
      </trkpt>
      <trkpt lat="36.6930236816406" lon="-5.00758123397827">
        <ele>1745.05102539062</ele>
        <time>2018-07-28T07:10:54Z</time>
      </trkpt>
      <trkpt lat="36.6930313110352" lon="-5.00758600234985">
        <ele>1744.8359375</ele>
        <time>2018-07-28T07:10:55Z</time>
      </trkpt>
      <trkpt lat="36.6930389404297" lon="-5.0075888633728">
        <ele>1744.61157226562</ele>
        <time>2018-07-28T07:10:56Z</time>
      </trkpt>
      <trkpt lat="36.6930465698242" lon="-5.00759220123291">
        <ele>1744.3896484375</ele>
        <time>2018-07-28T07:10:57Z</time>
      </trkpt>
      <trkpt lat="36.6930541992188" lon="-5.00759696960449">
        <ele>1744.17443847656</ele>
        <time>2018-07-28T07:10:58Z</time>
      </trkpt>
      <trkpt lat="36.6930618286133" lon="-5.0076060295105">
        <ele>1743.97985839844</ele>
        <time>2018-07-28T07:10:59Z</time>
      </trkpt>
      <trkpt lat="36.6930656433106" lon="-5.00761604309082">
        <ele>1743.90893554688</ele>
        <time>2018-07-28T07:11:00Z</time>
      </trkpt>
      <trkpt lat="36.6930694580078" lon="-5.00762701034546">
        <ele>1743.84252929688</ele>
        <time>2018-07-28T07:11:01Z</time>
      </trkpt>
      <trkpt lat="36.6930694580078" lon="-5.00763607025146">
        <ele>1743.88598632812</ele>
        <time>2018-07-28T07:11:02Z</time>
      </trkpt>
      <trkpt lat="36.6930732727051" lon="-5.00764608383179">
        <ele>1743.81506347656</ele>
        <time>2018-07-28T07:11:03Z</time>
      </trkpt>
      <trkpt lat="36.6930770874023" lon="-5.00765609741211">
        <ele>1743.744140625</ele>
        <time>2018-07-28T07:11:04Z</time>
      </trkpt>
      <trkpt lat="36.6930809020996" lon="-5.00766515731812">
        <ele>1743.66857910156</ele>
        <time>2018-07-28T07:11:05Z</time>
      </trkpt>
      <trkpt lat="36.6930885314941" lon="-5.00767278671265">
        <ele>1743.46716308594</ele>
        <time>2018-07-28T07:11:06Z</time>
      </trkpt>
      <trkpt lat="36.6930961608887" lon="-5.00768089294434">
        <ele>1743.26806640625</ele>
        <time>2018-07-28T07:11:07Z</time>
      </trkpt>
      <trkpt lat="36.6931037902832" lon="-5.00768804550171">
        <ele>1743.06433105469</ele>
        <time>2018-07-28T07:11:08Z</time>
      </trkpt>
      <trkpt lat="36.6931076049805" lon="-5.00769519805908">
        <ele>1742.97973632812</ele>
        <time>2018-07-28T07:11:09Z</time>
      </trkpt>
      <trkpt lat="36.6931114196777" lon="-5.0077018737793">
        <ele>1742.89270019531</ele>
        <time>2018-07-28T07:11:10Z</time>
      </trkpt>
      <trkpt lat="36.693115234375" lon="-5.00770807266235">
        <ele>1742.80346679688</ele>
        <time>2018-07-28T07:11:11Z</time>
      </trkpt>
      <trkpt lat="36.6931228637695" lon="-5.00771379470825">
        <ele>1742.59289550781</ele>
        <time>2018-07-28T07:11:12Z</time>
      </trkpt>
      <trkpt lat="36.6931304931641" lon="-5.00771808624268">
        <ele>1742.37548828125</ele>
        <time>2018-07-28T07:11:13Z</time>
      </trkpt>
      <trkpt lat="36.6931343078613" lon="-5.00772190093994">
        <ele>1742.27465820312</ele>
        <time>2018-07-28T07:11:14Z</time>
      </trkpt>
      <trkpt lat="36.6931419372559" lon="-5.00772619247436">
        <ele>1742.05725097656</ele>
        <time>2018-07-28T07:11:15Z</time>
      </trkpt>
      <trkpt lat="36.6931495666504" lon="-5.00773191452026">
        <ele>1741.8466796875</ele>
        <time>2018-07-28T07:11:16Z</time>
      </trkpt>
      <trkpt lat="36.6931533813477" lon="-5.00773811340332">
        <ele>1741.75744628906</ele>
        <time>2018-07-28T07:11:17Z</time>
      </trkpt>
      <trkpt lat="36.6931610107422" lon="-5.0077428817749">
        <ele>1741.54223632812</ele>
        <time>2018-07-28T07:11:18Z</time>
      </trkpt>
      <trkpt lat="36.6931648254394" lon="-5.00774621963501">
        <ele>1741.43933105469</ele>
        <time>2018-07-28T07:11:19Z</time>
      </trkpt>
      <trkpt lat="36.693172454834" lon="-5.00774812698364">
        <ele>1741.21044921875</ele>
        <time>2018-07-28T07:11:20Z</time>
      </trkpt>
      <trkpt lat="36.6931762695312" lon="-5.00775098800659">
        <ele>1741.10510253906</ele>
        <time>2018-07-28T07:11:21Z</time>
      </trkpt>
      <trkpt lat="36.693187713623" lon="-5.00775384902954">
        <ele>1740.76184082031</ele>
        <time>2018-07-28T07:11:22Z</time>
      </trkpt>
      <trkpt lat="36.6931953430176" lon="-5.00775480270386">
        <ele>1740.5283203125</ele>
        <time>2018-07-28T07:11:23Z</time>
      </trkpt>
      <trkpt lat="36.6932029724121" lon="-5.00775718688965">
        <ele>1740.3017578125</ele>
        <time>2018-07-28T07:11:24Z</time>
      </trkpt>
      <trkpt lat="36.6932106018066" lon="-5.00775909423828">
        <ele>1740.07287597656</ele>
        <time>2018-07-28T07:11:25Z</time>
      </trkpt>
      <trkpt lat="36.6932182312012" lon="-5.00776100158691">
        <ele>1739.84399414062</ele>
        <time>2018-07-28T07:11:26Z</time>
      </trkpt>
      <trkpt lat="36.6932258605957" lon="-5.00776386260986">
        <ele>1739.61962890625</ele>
        <time>2018-07-28T07:11:27Z</time>
      </trkpt>
      <trkpt lat="36.693229675293" lon="-5.0077691078186">
        <ele>1739.52587890625</ele>
        <time>2018-07-28T07:11:28Z</time>
      </trkpt>
      <trkpt lat="36.6932373046875" lon="-5.00777387619019">
        <ele>1739.31066894531</ele>
        <time>2018-07-28T07:11:29Z</time>
      </trkpt>
      <trkpt lat="36.693244934082" lon="-5.00778007507324">
        <ele>1739.10241699219</ele>
        <time>2018-07-28T07:11:30Z</time>
      </trkpt>
      <trkpt lat="36.6932487487793" lon="-5.00778293609619">
        <ele>1738.9970703125</ele>
        <time>2018-07-28T07:11:31Z</time>
      </trkpt>
      <trkpt lat="36.6932563781738" lon="-5.00778579711914">
        <ele>1738.77282714844</ele>
        <time>2018-07-28T07:11:32Z</time>
      </trkpt>
      <trkpt lat="36.6932640075684" lon="-5.00778913497925">
        <ele>1738.55078125</ele>
        <time>2018-07-28T07:11:33Z</time>
      </trkpt>
      <trkpt lat="36.6932716369629" lon="-5.00779294967651">
        <ele>1738.3310546875</ele>
        <time>2018-07-28T07:11:34Z</time>
      </trkpt>
      <trkpt lat="36.6932754516602" lon="-5.00779914855957">
        <ele>1738.24182128906</ele>
        <time>2018-07-28T07:11:35Z</time>
      </trkpt>
      <trkpt lat="36.6932830810547" lon="-5.00780487060547">
        <ele>1738.03125</ele>
        <time>2018-07-28T07:11:36Z</time>
      </trkpt>
      <trkpt lat="36.6932907104492" lon="-5.00781011581421">
        <ele>1737.818359375</ele>
        <time>2018-07-28T07:11:37Z</time>
      </trkpt>
      <trkpt lat="36.6932983398438" lon="-5.00781583786011">
        <ele>1737.60778808594</ele>
        <time>2018-07-28T07:11:38Z</time>
      </trkpt>
      <trkpt lat="36.6933059692383" lon="-5.00782108306885">
        <ele>1737.39501953125</ele>
        <time>2018-07-28T07:11:39Z</time>
      </trkpt>
      <trkpt lat="36.6933135986328" lon="-5.00782680511475">
        <ele>1737.18432617188</ele>
        <time>2018-07-28T07:11:40Z</time>
      </trkpt>
      <trkpt lat="36.6933212280273" lon="-5.00783395767212">
        <ele>1736.98071289062</ele>
        <time>2018-07-28T07:11:41Z</time>
      </trkpt>
      <trkpt lat="36.6933326721191" lon="-5.00784206390381">
        <ele>1736.66259765625</ele>
        <time>2018-07-28T07:11:42Z</time>
      </trkpt>
      <trkpt lat="36.6933403015137" lon="-5.00784921646118">
        <ele>1736.61145019531</ele>
        <time>2018-07-28T07:11:43Z</time>
      </trkpt>
      <trkpt lat="36.6933517456055" lon="-5.00785493850708">
        <ele>1736.53308105469</ele>
        <time>2018-07-28T07:11:44Z</time>
      </trkpt>
      <trkpt lat="36.693359375" lon="-5.00786113739014">
        <ele>1736.49279785156</ele>
        <time>2018-07-28T07:11:45Z</time>
      </trkpt>
      <trkpt lat="36.6933708190918" lon="-5.00786590576172">
        <ele>1736.41076660156</ele>
        <time>2018-07-28T07:11:46Z</time>
      </trkpt>
      <trkpt lat="36.6933784484863" lon="-5.00787210464478">
        <ele>1736.37133789062</ele>
        <time>2018-07-28T07:11:47Z</time>
      </trkpt>
      <trkpt lat="36.6933860778809" lon="-5.00787878036499">
        <ele>1736.33483886719</ele>
        <time>2018-07-28T07:11:48Z</time>
      </trkpt>
      <trkpt lat="36.6933898925781" lon="-5.00788688659668">
        <ele>1736.34069824219</ele>
        <time>2018-07-28T07:11:49Z</time>
      </trkpt>
      <trkpt lat="36.6933975219727" lon="-5.00789403915405">
        <ele>1736.30737304688</ele>
        <time>2018-07-28T07:11:50Z</time>
      </trkpt>
      <trkpt lat="36.6934013366699" lon="-5.00790214538574">
        <ele>1736.31396484375</ele>
        <time>2018-07-28T07:11:51Z</time>
      </trkpt>
      <trkpt lat="36.6934089660644" lon="-5.00791120529175">
        <ele>1736.29125976562</ele>
        <time>2018-07-28T07:11:52Z</time>
      </trkpt>
      <trkpt lat="36.693416595459" lon="-5.0079197883606">
        <ele>1736.26672363281</ele>
        <time>2018-07-28T07:11:53Z</time>
      </trkpt>
      <trkpt lat="36.6934204101562" lon="-5.0079288482666">
        <ele>1736.27941894531</ele>
        <time>2018-07-28T07:11:54Z</time>
      </trkpt>
      <trkpt lat="36.6934280395508" lon="-5.00793695449829">
        <ele>1736.25329589844</ele>
        <time>2018-07-28T07:11:55Z</time>
      </trkpt>
      <trkpt lat="36.6934356689453" lon="-5.00794410705566">
        <ele>1736.22277832031</ele>
        <time>2018-07-28T07:11:56Z</time>
      </trkpt>
      <trkpt lat="36.6934432983398" lon="-5.00795316696167">
        <ele>1736.20288085938</ele>
        <time>2018-07-28T07:11:57Z</time>
      </trkpt>
      <trkpt lat="36.6934509277344" lon="-5.0079607963562">
        <ele>1736.17590332031</ele>
        <time>2018-07-28T07:11:58Z</time>
      </trkpt>
      <trkpt lat="36.6934547424316" lon="-5.00797080993652">
        <ele>1736.19555664062</ele>
        <time>2018-07-28T07:11:59Z</time>
      </trkpt>
      <trkpt lat="36.6934585571289" lon="-5.00798082351685">
        <ele>1736.21569824219</ele>
        <time>2018-07-28T07:12:00Z</time>
      </trkpt>
      <trkpt lat="36.6934623718262" lon="-5.00799179077148">
        <ele>1736.24108886719</ele>
        <time>2018-07-28T07:12:01Z</time>
      </trkpt>
      <trkpt lat="36.6934700012207" lon="-5.00800085067749">
        <ele>1736.22375488281</ele>
        <time>2018-07-28T07:12:02Z</time>
      </trkpt>
      <trkpt lat="36.6934776306152" lon="-5.00800800323486">
        <ele>1736.19665527344</ele>
        <time>2018-07-28T07:12:03Z</time>
      </trkpt>
      <trkpt lat="36.6934814453125" lon="-5.00801706314087">
        <ele>1736.21313476562</ele>
        <time>2018-07-28T07:12:04Z</time>
      </trkpt>
      <trkpt lat="36.6934852600098" lon="-5.00802707672119">
        <ele>1736.23510742188</ele>
        <time>2018-07-28T07:12:05Z</time>
      </trkpt>
      <trkpt lat="36.6934928894043" lon="-5.00803709030151">
        <ele>1736.22497558594</ele>
        <time>2018-07-28T07:12:06Z</time>
      </trkpt>
      <trkpt lat="36.6934967041016" lon="-5.00804615020752">
        <ele>1736.24255371094</ele>
        <time>2018-07-28T07:12:07Z</time>
      </trkpt>
      <trkpt lat="36.6935005187988" lon="-5.00805377960205">
        <ele>1736.25244140625</ele>
        <time>2018-07-28T07:12:08Z</time>
      </trkpt>
      <trkpt lat="36.6935081481934" lon="-5.00805997848511">
        <ele>1736.22277832031</ele>
        <time>2018-07-28T07:12:09Z</time>
      </trkpt>
      <trkpt lat="36.6935119628906" lon="-5.0080680847168">
        <ele>1736.23596191406</ele>
        <time>2018-07-28T07:12:10Z</time>
      </trkpt>
      <trkpt lat="36.6935195922852" lon="-5.00807619094849">
        <ele>1736.2177734375</ele>
        <time>2018-07-28T07:12:11Z</time>
      </trkpt>
      <trkpt lat="36.6935234069824" lon="-5.00808477401733">
        <ele>1736.23425292969</ele>
        <time>2018-07-28T07:12:12Z</time>
      </trkpt>
      <trkpt lat="36.6935272216797" lon="-5.00809288024902">
        <ele>1736.24841308594</ele>
        <time>2018-07-28T07:12:13Z</time>
      </trkpt>
      <trkpt lat="36.6935348510742" lon="-5.0081000328064">
        <ele>1736.22607421875</ele>
        <time>2018-07-28T07:12:14Z</time>
      </trkpt>
      <trkpt lat="36.6935386657715" lon="-5.00810718536377">
        <ele>1736.23547363281</ele>
        <time>2018-07-28T07:12:15Z</time>
      </trkpt>
      <trkpt lat="36.6935424804688" lon="-5.00811719894409">
        <ele>1736.26147460938</ele>
        <time>2018-07-28T07:12:16Z</time>
      </trkpt>
      <trkpt lat="36.693546295166" lon="-5.00812721252441">
        <ele>1736.28771972656</ele>
        <time>2018-07-28T07:12:17Z</time>
      </trkpt>
      <trkpt lat="36.6935501098633" lon="-5.00813817977905">
        <ele>1736.31970214844</ele>
        <time>2018-07-28T07:12:18Z</time>
      </trkpt>
      <trkpt lat="36.6935501098633" lon="-5.00814580917358">
        <ele>1736.36352539062</ele>
        <time>2018-07-28T07:12:19Z</time>
      </trkpt>
      <trkpt lat="36.6935539245606" lon="-5.00815391540527">
        <ele>1736.37951660156</ele>
        <time>2018-07-28T07:12:20Z</time>
      </trkpt>
      <trkpt lat="36.6935539245606" lon="-5.00816106796265">
        <ele>1736.42065429688</ele>
        <time>2018-07-28T07:12:21Z</time>
      </trkpt>
      <trkpt lat="36.6935577392578" lon="-5.00817108154297">
        <ele>1736.44812011719</ele>
        <time>2018-07-28T07:12:22Z</time>
      </trkpt>
      <trkpt lat="36.6935577392578" lon="-5.00818109512329">
        <ele>1736.50598144531</ele>
        <time>2018-07-28T07:12:23Z</time>
      </trkpt>
      <trkpt lat="36.6935577392578" lon="-5.00819110870361">
        <ele>1736.56372070312</ele>
        <time>2018-07-28T07:12:24Z</time>
      </trkpt>
      <trkpt lat="36.6935577392578" lon="-5.00820112228394">
        <ele>1736.62145996094</ele>
        <time>2018-07-28T07:12:25Z</time>
      </trkpt>
      <trkpt lat="36.6935577392578" lon="-5.00821018218994">
        <ele>1736.67370605469</ele>
        <time>2018-07-28T07:12:26Z</time>
      </trkpt>
      <trkpt lat="36.6935577392578" lon="-5.00822019577026">
        <ele>1736.73156738281</ele>
        <time>2018-07-28T07:12:27Z</time>
      </trkpt>
      <trkpt lat="36.6935615539551" lon="-5.00822877883911">
        <ele>1736.75183105469</ele>
        <time>2018-07-28T07:12:28Z</time>
      </trkpt>
      <trkpt lat="36.6935653686523" lon="-5.0082368850708">
        <ele>1736.76977539062</ele>
        <time>2018-07-28T07:12:29Z</time>
      </trkpt>
      <trkpt lat="36.6935691833496" lon="-5.00824594497681">
        <ele>1736.79333496094</ele>
        <time>2018-07-28T07:12:30Z</time>
      </trkpt>
      <trkpt lat="36.6935768127441" lon="-5.00825500488281">
        <ele>1736.78857421875</ele>
        <time>2018-07-28T07:12:31Z</time>
      </trkpt>
      <trkpt lat="36.6935806274414" lon="-5.00826501846314">
        <ele>1736.81860351562</ele>
        <time>2018-07-28T07:12:32Z</time>
      </trkpt>
      <trkpt lat="36.6935844421387" lon="-5.00827503204346">
        <ele>1736.84887695312</ele>
        <time>2018-07-28T07:12:33Z</time>
      </trkpt>
      <trkpt lat="36.6935882568359" lon="-5.00828504562378">
        <ele>1736.87963867188</ele>
        <time>2018-07-28T07:12:34Z</time>
      </trkpt>
      <trkpt lat="36.6935882568359" lon="-5.00829601287842">
        <ele>1736.9443359375</ele>
        <time>2018-07-28T07:12:35Z</time>
      </trkpt>
      <trkpt lat="36.6935920715332" lon="-5.00830602645874">
        <ele>1736.97546386719</ele>
        <time>2018-07-28T07:12:36Z</time>
      </trkpt>
      <trkpt lat="36.6935920715332" lon="-5.00831508636475">
        <ele>1737.02905273438</ele>
        <time>2018-07-28T07:12:37Z</time>
      </trkpt>
      <trkpt lat="36.6935958862305" lon="-5.00832414627075">
        <ele>1737.05505371094</ele>
        <time>2018-07-28T07:12:38Z</time>
      </trkpt>
      <trkpt lat="36.6935958862305" lon="-5.00833511352539">
        <ele>1737.11315917969</ele>
        <time>2018-07-28T07:12:39Z</time>
      </trkpt>
      <trkpt lat="36.6935997009277" lon="-5.00834798812866">
        <ele>1737.11169433594</ele>
        <time>2018-07-28T07:12:40Z</time>
      </trkpt>
      <trkpt lat="36.693603515625" lon="-5.00835990905762">
        <ele>1737.10815429688</ele>
        <time>2018-07-28T07:12:41Z</time>
      </trkpt>
      <trkpt lat="36.693603515625" lon="-5.00837087631226">
        <ele>1737.13012695312</ele>
        <time>2018-07-28T07:12:42Z</time>
      </trkpt>
      <trkpt lat="36.693603515625" lon="-5.00838088989258">
        <ele>1737.15026855469</ele>
        <time>2018-07-28T07:12:43Z</time>
      </trkpt>
      <trkpt lat="36.693603515625" lon="-5.0083909034729">
        <ele>1737.17041015625</ele>
        <time>2018-07-28T07:12:44Z</time>
      </trkpt>
      <trkpt lat="36.693603515625" lon="-5.00840091705322">
        <ele>1737.19055175781</ele>
        <time>2018-07-28T07:12:45Z</time>
      </trkpt>
      <trkpt lat="36.693603515625" lon="-5.00841093063354">
        <ele>1737.21069335938</ele>
        <time>2018-07-28T07:12:46Z</time>
      </trkpt>
      <trkpt lat="36.693603515625" lon="-5.00842189788818">
        <ele>1737.23278808594</ele>
        <time>2018-07-28T07:12:47Z</time>
      </trkpt>
      <trkpt lat="36.6936073303223" lon="-5.00843286514282">
        <ele>1737.22680664062</ele>
        <time>2018-07-28T07:12:48Z</time>
      </trkpt>
      <trkpt lat="36.693603515625" lon="-5.00844192504883">
        <ele>1737.27307128906</ele>
        <time>2018-07-28T07:12:49Z</time>
      </trkpt>
      <trkpt lat="36.693603515625" lon="-5.00845003128052">
        <ele>1737.28930664062</ele>
        <time>2018-07-28T07:12:50Z</time>
      </trkpt>
      <trkpt lat="36.693603515625" lon="-5.00845718383789">
        <ele>1737.3037109375</ele>
        <time>2018-07-28T07:12:51Z</time>
      </trkpt>
      <trkpt lat="36.693603515625" lon="-5.00846576690674">
        <ele>1737.32104492188</ele>
        <time>2018-07-28T07:12:52Z</time>
      </trkpt>
      <trkpt lat="36.6936073303223" lon="-5.00847578048706">
        <ele>1737.31286621094</ele>
        <time>2018-07-28T07:12:53Z</time>
      </trkpt>
      <trkpt lat="36.6936111450195" lon="-5.00848579406738">
        <ele>1737.3046875</ele>
        <time>2018-07-28T07:12:54Z</time>
      </trkpt>
      <trkpt lat="36.6936149597168" lon="-5.00849723815918">
        <ele>1737.29919433594</ele>
        <time>2018-07-28T07:12:55Z</time>
      </trkpt>
      <trkpt lat="36.6936187744141" lon="-5.00850915908814">
        <ele>1737.29455566406</ele>
        <time>2018-07-28T07:12:56Z</time>
      </trkpt>
      <trkpt lat="36.6936264038086" lon="-5.00852108001709">
        <ele>1737.26123046875</ele>
        <time>2018-07-28T07:12:57Z</time>
      </trkpt>
      <trkpt lat="36.6936302185059" lon="-5.00853300094604">
        <ele>1737.25622558594</ele>
        <time>2018-07-28T07:12:58Z</time>
      </trkpt>
      <trkpt lat="36.6936340332031" lon="-5.008544921875">
        <ele>1737.25109863281</ele>
        <time>2018-07-28T07:12:59Z</time>
      </trkpt>
      <trkpt lat="36.6936378479004" lon="-5.00855684280396">
        <ele>1737.24584960938</ele>
        <time>2018-07-28T07:13:00Z</time>
      </trkpt>
      <trkpt lat="36.6936416625977" lon="-5.00856876373291">
        <ele>1737.24047851562</ele>
        <time>2018-07-28T07:13:01Z</time>
      </trkpt>
      <trkpt lat="36.6936492919922" lon="-5.00858211517334">
        <ele>1737.208984375</ele>
        <time>2018-07-28T07:13:02Z</time>
      </trkpt>
      <trkpt lat="36.6936569213867" lon="-5.0085940361023">
        <ele>1737.17431640625</ele>
        <time>2018-07-28T07:13:03Z</time>
      </trkpt>
      <trkpt lat="36.6936645507812" lon="-5.00860595703125">
        <ele>1737.13952636719</ele>
        <time>2018-07-28T07:13:04Z</time>
      </trkpt>
      <trkpt lat="36.6936721801758" lon="-5.00861692428589">
        <ele>1737.1025390625</ele>
        <time>2018-07-28T07:13:05Z</time>
      </trkpt>
      <trkpt lat="36.6936798095703" lon="-5.00862693786621">
        <ele>1737.0634765625</ele>
        <time>2018-07-28T07:13:06Z</time>
      </trkpt>
      <trkpt lat="36.6936874389648" lon="-5.00863790512085">
        <ele>1737.02612304688</ele>
        <time>2018-07-28T07:13:07Z</time>
      </trkpt>
      <trkpt lat="36.6936912536621" lon="-5.00864887237549">
        <ele>1737.017578125</ele>
        <time>2018-07-28T07:13:08Z</time>
      </trkpt>
      <trkpt lat="36.6936950683594" lon="-5.00866222381592">
        <ele>1737.01354980469</ele>
        <time>2018-07-28T07:13:09Z</time>
      </trkpt>
      <trkpt lat="36.6937026977539" lon="-5.00867414474487">
        <ele>1736.97729492188</ele>
        <time>2018-07-28T07:13:10Z</time>
      </trkpt>
      <trkpt lat="36.6937065124512" lon="-5.00868606567383">
        <ele>1736.97009277344</ele>
        <time>2018-07-28T07:13:11Z</time>
      </trkpt>
      <trkpt lat="36.6937103271484" lon="-5.00869703292847">
        <ele>1736.96105957031</ele>
        <time>2018-07-28T07:13:12Z</time>
      </trkpt>
      <trkpt lat="36.6937103271484" lon="-5.00870895385742">
        <ele>1736.98327636719</ele>
        <time>2018-07-28T07:13:13Z</time>
      </trkpt>
      <trkpt lat="36.6937141418457" lon="-5.00871992111206">
        <ele>1736.97399902344</ele>
        <time>2018-07-28T07:13:14Z</time>
      </trkpt>
      <trkpt lat="36.693717956543" lon="-5.0087308883667">
        <ele>1736.96459960938</ele>
        <time>2018-07-28T07:13:15Z</time>
      </trkpt>
      <trkpt lat="36.6937217712402" lon="-5.00874185562134">
        <ele>1736.95520019531</ele>
        <time>2018-07-28T07:13:16Z</time>
      </trkpt>
      <trkpt lat="36.6937217712402" lon="-5.00875520706177">
        <ele>1736.97973632812</ele>
        <time>2018-07-28T07:13:17Z</time>
      </trkpt>
      <trkpt lat="36.6937255859375" lon="-5.00876712799072">
        <ele>1736.97180175781</ele>
        <time>2018-07-28T07:13:18Z</time>
      </trkpt>
      <trkpt lat="36.6937294006348" lon="-5.00877904891968">
        <ele>1736.9638671875</ele>
        <time>2018-07-28T07:13:19Z</time>
      </trkpt>
      <trkpt lat="36.693733215332" lon="-5.00879001617432">
        <ele>1736.95385742188</ele>
        <time>2018-07-28T07:13:20Z</time>
      </trkpt>
      <trkpt lat="36.6937370300293" lon="-5.00880098342896">
        <ele>1736.94384765625</ele>
        <time>2018-07-28T07:13:21Z</time>
      </trkpt>
      <trkpt lat="36.6937408447266" lon="-5.00881195068359">
        <ele>1736.93371582031</ele>
        <time>2018-07-28T07:13:22Z</time>
      </trkpt>
      <trkpt lat="36.6937446594238" lon="-5.0088210105896">
        <ele>1736.92004394531</ele>
        <time>2018-07-28T07:13:23Z</time>
      </trkpt>
      <trkpt lat="36.6937484741211" lon="-5.00883007049561">
        <ele>1736.90625</ele>
        <time>2018-07-28T07:13:24Z</time>
      </trkpt>
      <trkpt lat="36.6937561035156" lon="-5.00883913040161">
        <ele>1736.86206054688</ele>
        <time>2018-07-28T07:13:25Z</time>
      </trkpt>
      <trkpt lat="36.6937599182129" lon="-5.00884819030762">
        <ele>1736.84802246094</ele>
        <time>2018-07-28T07:13:26Z</time>
      </trkpt>
      <trkpt lat="36.6937675476074" lon="-5.00885915756226">
        <ele>1736.80688476562</ele>
        <time>2018-07-28T07:13:27Z</time>
      </trkpt>
      <trkpt lat="36.6937713623047" lon="-5.00887107849121">
        <ele>1736.79760742188</ele>
        <time>2018-07-28T07:13:28Z</time>
      </trkpt>
      <trkpt lat="36.6937789916992" lon="-5.00888299942017">
        <ele>1736.75769042969</ele>
        <time>2018-07-28T07:13:29Z</time>
      </trkpt>
      <trkpt lat="36.6937866210938" lon="-5.0088939666748">
        <ele>1736.71594238281</ele>
        <time>2018-07-28T07:13:30Z</time>
      </trkpt>
      <trkpt lat="36.693790435791" lon="-5.00890493392944">
        <ele>1736.70446777344</ele>
        <time>2018-07-28T07:13:31Z</time>
      </trkpt>
      <trkpt lat="36.6937980651856" lon="-5.00891399383545">
        <ele>1736.65893554688</ele>
        <time>2018-07-28T07:13:32Z</time>
      </trkpt>
      <trkpt lat="36.6938018798828" lon="-5.00892496109009">
        <ele>1736.64721679688</ele>
        <time>2018-07-28T07:13:33Z</time>
      </trkpt>
      <trkpt lat="36.6938095092773" lon="-5.00893688201904">
        <ele>1736.60620117188</ele>
        <time>2018-07-28T07:13:34Z</time>
      </trkpt>
      <trkpt lat="36.6938133239746" lon="-5.00894784927368">
        <ele>1736.59411621094</ele>
        <time>2018-07-28T07:13:35Z</time>
      </trkpt>
      <trkpt lat="36.6938171386719" lon="-5.00895977020264">
        <ele>1736.58361816406</ele>
        <time>2018-07-28T07:13:36Z</time>
      </trkpt>
      <trkpt lat="36.6938247680664" lon="-5.00897121429443">
        <ele>1736.54113769531</ele>
        <time>2018-07-28T07:13:37Z</time>
      </trkpt>
      <trkpt lat="36.6938285827637" lon="-5.00898218154907">
        <ele>1736.52868652344</ele>
        <time>2018-07-28T07:13:38Z</time>
      </trkpt>
      <trkpt lat="36.6938323974609" lon="-5.00899410247803">
        <ele>1736.51770019531</ele>
        <time>2018-07-28T07:13:39Z</time>
      </trkpt>
      <trkpt lat="36.6938400268555" lon="-5.00900411605835">
        <ele>1736.47229003906</ele>
        <time>2018-07-28T07:13:40Z</time>
      </trkpt>
      <trkpt lat="36.6938438415527" lon="-5.00901508331299">
        <ele>1736.45935058594</ele>
        <time>2018-07-28T07:13:41Z</time>
      </trkpt>
      <trkpt lat="36.69384765625" lon="-5.00902605056763">
        <ele>1736.44641113281</ele>
        <time>2018-07-28T07:13:42Z</time>
      </trkpt>
      <trkpt lat="36.6938514709473" lon="-5.00903797149658">
        <ele>1736.43481445312</ele>
        <time>2018-07-28T07:13:43Z</time>
      </trkpt>
      <trkpt lat="36.6938552856445" lon="-5.00905084609985">
        <ele>1736.42468261719</ele>
        <time>2018-07-28T07:13:44Z</time>
      </trkpt>
      <trkpt lat="36.6938591003418" lon="-5.00906276702881">
        <ele>1736.41284179688</ele>
        <time>2018-07-28T07:13:45Z</time>
      </trkpt>
      <trkpt lat="36.6938629150391" lon="-5.00907278060913">
        <ele>1736.39782714844</ele>
        <time>2018-07-28T07:13:46Z</time>
      </trkpt>
      <trkpt lat="36.6938667297363" lon="-5.00908184051514">
        <ele>1736.38098144531</ele>
        <time>2018-07-28T07:13:47Z</time>
      </trkpt>
      <trkpt lat="36.6938705444336" lon="-5.00908994674683">
        <ele>1736.36267089844</ele>
        <time>2018-07-28T07:13:48Z</time>
      </trkpt>
      <trkpt lat="36.6938743591309" lon="-5.00909900665283">
        <ele>1736.345703125</ele>
        <time>2018-07-28T07:13:49Z</time>
      </trkpt>
      <trkpt lat="36.6938781738281" lon="-5.00910997390747">
        <ele>1736.33178710938</ele>
        <time>2018-07-28T07:13:50Z</time>
      </trkpt>
      <trkpt lat="36.6938858032227" lon="-5.00911998748779">
        <ele>1736.28430175781</ele>
        <time>2018-07-28T07:13:51Z</time>
      </trkpt>
      <trkpt lat="36.6938896179199" lon="-5.00913095474243">
        <ele>1736.27014160156</ele>
        <time>2018-07-28T07:13:52Z</time>
      </trkpt>
      <trkpt lat="36.6938934326172" lon="-5.00914096832275">
        <ele>1736.25427246094</ele>
        <time>2018-07-28T07:13:53Z</time>
      </trkpt>
      <trkpt lat="36.6938972473144" lon="-5.00915193557739">
        <ele>1736.23974609375</ele>
        <time>2018-07-28T07:13:54Z</time>
      </trkpt>
      <trkpt lat="36.6938972473144" lon="-5.00916385650635">
        <ele>1736.25866699219</ele>
        <time>2018-07-28T07:13:55Z</time>
      </trkpt>
      <trkpt lat="36.693904876709" lon="-5.0091757774353">
        <ele>1736.20812988281</ele>
        <time>2018-07-28T07:13:56Z</time>
      </trkpt>
      <trkpt lat="36.6939086914062" lon="-5.00918579101562">
        <ele>1736.18505859375</ele>
        <time>2018-07-28T07:13:57Z</time>
      </trkpt>
      <trkpt lat="36.6939086914062" lon="-5.00919485092163">
        <ele>1736.19360351562</ele>
        <time>2018-07-28T07:13:58Z</time>
      </trkpt>
      <trkpt lat="36.6939125061035" lon="-5.00920391082764">
        <ele>1736.16821289062</ele>
        <time>2018-07-28T07:13:59Z</time>
      </trkpt>
      <trkpt lat="36.6939163208008" lon="-5.00921201705933">
        <ele>1736.14123535156</ele>
        <time>2018-07-28T07:14:00Z</time>
      </trkpt>
      <trkpt lat="36.693920135498" lon="-5.00922012329102">
        <ele>1736.11340332031</ele>
        <time>2018-07-28T07:14:01Z</time>
      </trkpt>
      <trkpt lat="36.6939239501953" lon="-5.0092282295227">
        <ele>1736.08471679688</ele>
        <time>2018-07-28T07:14:02Z</time>
      </trkpt>
      <trkpt lat="36.6939239501953" lon="-5.00923681259155">
        <ele>1736.09106445312</ele>
        <time>2018-07-28T07:14:03Z</time>
      </trkpt>
      <trkpt lat="36.6939277648926" lon="-5.00924587249756">
        <ele>1736.06188964844</ele>
        <time>2018-07-28T07:14:04Z</time>
      </trkpt>
      <trkpt lat="36.6939315795898" lon="-5.00925493240356">
        <ele>1736.03186035156</ele>
        <time>2018-07-28T07:14:05Z</time>
      </trkpt>
      <trkpt lat="36.6939315795898" lon="-5.00926113128662">
        <ele>1736.03576660156</ele>
        <time>2018-07-28T07:14:06Z</time>
      </trkpt>
      <trkpt lat="36.6939353942871" lon="-5.0092658996582">
        <ele>1736.001953125</ele>
        <time>2018-07-28T07:14:07Z</time>
      </trkpt>
      <trkpt lat="36.6939392089844" lon="-5.00927114486694">
        <ele>1735.96789550781</ele>
        <time>2018-07-28T07:14:08Z</time>
      </trkpt>
      <trkpt lat="36.6939392089844" lon="-5.00927782058716">
        <ele>1735.97155761719</ele>
        <time>2018-07-28T07:14:09Z</time>
      </trkpt>
      <trkpt lat="36.6939468383789" lon="-5.00928783416748">
        <ele>1735.90100097656</ele>
        <time>2018-07-28T07:14:10Z</time>
      </trkpt>
      <trkpt lat="36.6939468383789" lon="-5.0092978477478">
        <ele>1735.90539550781</ele>
        <time>2018-07-28T07:14:11Z</time>
      </trkpt>
      <trkpt lat="36.6939506530762" lon="-5.00930786132812">
        <ele>1735.87097167969</ele>
        <time>2018-07-28T07:14:12Z</time>
      </trkpt>
      <trkpt lat="36.6939544677734" lon="-5.00931692123413">
        <ele>1735.83508300781</ele>
        <time>2018-07-28T07:14:13Z</time>
      </trkpt>
      <trkpt lat="36.6939582824707" lon="-5.00932502746582">
        <ele>1735.79809570312</ele>
        <time>2018-07-28T07:14:14Z</time>
      </trkpt>
      <trkpt lat="36.693962097168" lon="-5.00933313369751">
        <ele>1735.76025390625</ele>
        <time>2018-07-28T07:14:15Z</time>
      </trkpt>
      <trkpt lat="36.6939697265625" lon="-5.00933980941772">
        <ele>1735.6806640625</ele>
        <time>2018-07-28T07:14:16Z</time>
      </trkpt>
      <trkpt lat="36.6939697265625" lon="-5.00934600830078">
        <ele>1735.681640625</ele>
        <time>2018-07-28T07:14:17Z</time>
      </trkpt>
      <trkpt lat="36.6939735412598" lon="-5.00935411453247">
        <ele>1735.6416015625</ele>
        <time>2018-07-28T07:14:18Z</time>
      </trkpt>
      <trkpt lat="36.693977355957" lon="-5.00936412811279">
        <ele>1735.60070800781</ele>
        <time>2018-07-28T07:14:19Z</time>
      </trkpt>
      <trkpt lat="36.6939811706543" lon="-5.00937414169312">
        <ele>1735.55895996094</ele>
        <time>2018-07-28T07:14:20Z</time>
      </trkpt>
      <trkpt lat="36.6939849853516" lon="-5.00938320159912">
        <ele>1735.51623535156</ele>
        <time>2018-07-28T07:14:21Z</time>
      </trkpt>
      <trkpt lat="36.6939888000488" lon="-5.00938987731934">
        <ele>1735.47290039062</ele>
        <time>2018-07-28T07:14:22Z</time>
      </trkpt>
      <trkpt lat="36.6939926147461" lon="-5.00939607620239">
        <ele>1735.42895507812</ele>
        <time>2018-07-28T07:14:23Z</time>
      </trkpt>
      <trkpt lat="36.6939926147461" lon="-5.00940322875977">
        <ele>1735.42785644531</ele>
        <time>2018-07-28T07:14:24Z</time>
      </trkpt>
      <trkpt lat="36.6939964294434" lon="-5.00941181182861">
        <ele>1735.38244628906</ele>
        <time>2018-07-28T07:14:25Z</time>
      </trkpt>
      <trkpt lat="36.6940002441406" lon="-5.00942087173462">
        <ele>1735.33618164062</ele>
        <time>2018-07-28T07:14:26Z</time>
      </trkpt>
      <trkpt lat="36.6940002441406" lon="-5.00942897796631">
        <ele>1735.33410644531</ele>
        <time>2018-07-28T07:14:27Z</time>
      </trkpt>
      <trkpt lat="36.6940040588379" lon="-5.00943517684936">
        <ele>1735.28735351562</ele>
        <time>2018-07-28T07:14:28Z</time>
      </trkpt>
      <trkpt lat="36.6940040588379" lon="-5.0094428062439">
        <ele>1735.28515625</ele>
        <time>2018-07-28T07:14:29Z</time>
      </trkpt>
      <trkpt lat="36.6940040588379" lon="-5.0094518661499">
        <ele>1735.28247070312</ele>
        <time>2018-07-28T07:14:30Z</time>
      </trkpt>
      <trkpt lat="36.6940078735352" lon="-5.00945997238159">
        <ele>1735.23352050781</ele>
        <time>2018-07-28T07:14:31Z</time>
      </trkpt>
      <trkpt lat="36.6940116882324" lon="-5.0094690322876">
        <ele>1735.18347167969</ele>
        <time>2018-07-28T07:14:32Z</time>
      </trkpt>
      <trkpt lat="36.6940155029297" lon="-5.00947713851929">
        <ele>1735.13293457031</ele>
        <time>2018-07-28T07:14:33Z</time>
      </trkpt>
      <trkpt lat="36.6940155029297" lon="-5.00948476791382">
        <ele>1735.12951660156</ele>
        <time>2018-07-28T07:14:34Z</time>
      </trkpt>
      <trkpt lat="36.694019317627" lon="-5.00949287414551">
        <ele>1735.07775878906</ele>
        <time>2018-07-28T07:14:35Z</time>
      </trkpt>
      <trkpt lat="36.694019317627" lon="-5.00950002670288">
        <ele>1735.07421875</ele>
        <time>2018-07-28T07:14:36Z</time>
      </trkpt>
      <trkpt lat="36.6940231323242" lon="-5.00950622558594">
        <ele>1735.02233886719</ele>
        <time>2018-07-28T07:14:37Z</time>
      </trkpt>
      <trkpt lat="36.6940231323242" lon="-5.00951194763184">
        <ele>1735.01928710938</ele>
        <time>2018-07-28T07:14:38Z</time>
      </trkpt>
      <trkpt lat="36.6940269470215" lon="-5.00952005386353">
        <ele>1734.96545410156</ele>
        <time>2018-07-28T07:14:39Z</time>
      </trkpt>
      <trkpt lat="36.6940307617188" lon="-5.00953006744385">
        <ele>1734.90954589844</ele>
        <time>2018-07-28T07:14:40Z</time>
      </trkpt>
      <trkpt lat="36.6940307617188" lon="-5.00953912734985">
        <ele>1734.90368652344</ele>
        <time>2018-07-28T07:14:41Z</time>
      </trkpt>
      <trkpt lat="36.694034576416" lon="-5.00954818725586">
        <ele>1734.84704589844</ele>
        <time>2018-07-28T07:14:42Z</time>
      </trkpt>
      <trkpt lat="36.6940422058106" lon="-5.00955581665039">
        <ele>1734.7392578125</ele>
        <time>2018-07-28T07:14:43Z</time>
      </trkpt>
      <trkpt lat="36.6940498352051" lon="-5.0095648765564">
        <ele>1734.62866210938</ele>
        <time>2018-07-28T07:14:44Z</time>
      </trkpt>
      <trkpt lat="36.6940536499023" lon="-5.00957489013672">
        <ele>1734.56750488281</ele>
        <time>2018-07-28T07:14:45Z</time>
      </trkpt>
      <trkpt lat="36.6940574645996" lon="-5.00958395004272">
        <ele>1734.50634765625</ele>
        <time>2018-07-28T07:14:46Z</time>
      </trkpt>
      <trkpt lat="36.6940650939941" lon="-5.00959205627441">
        <ele>1734.39221191406</ele>
        <time>2018-07-28T07:14:47Z</time>
      </trkpt>
      <trkpt lat="36.6940689086914" lon="-5.00960111618042">
        <ele>1734.32885742188</ele>
        <time>2018-07-28T07:14:48Z</time>
      </trkpt>
      <trkpt lat="36.6940727233887" lon="-5.00960922241211">
        <ele>1734.26574707031</ele>
        <time>2018-07-28T07:14:49Z</time>
      </trkpt>
      <trkpt lat="36.6940803527832" lon="-5.00961685180664">
        <ele>1734.14819335938</ele>
        <time>2018-07-28T07:14:50Z</time>
      </trkpt>
      <trkpt lat="36.6940879821777" lon="-5.00962495803833">
        <ele>1734.02844238281</ele>
        <time>2018-07-28T07:14:51Z</time>
      </trkpt>
      <trkpt lat="36.6940956115723" lon="-5.00963401794434">
        <ele>1733.90563964844</ele>
        <time>2018-07-28T07:14:52Z</time>
      </trkpt>
      <trkpt lat="36.6941032409668" lon="-5.00964307785034">
        <ele>1733.78100585938</ele>
        <time>2018-07-28T07:14:53Z</time>
      </trkpt>
      <trkpt lat="36.6941108703613" lon="-5.00965309143066">
        <ele>1733.65295410156</ele>
        <time>2018-07-28T07:14:54Z</time>
      </trkpt>
      <trkpt lat="36.6941146850586" lon="-5.00966215133667">
        <ele>1733.58129882812</ele>
        <time>2018-07-28T07:14:55Z</time>
      </trkpt>
      <trkpt lat="36.6941184997559" lon="-5.00967311859131">
        <ele>1733.50524902344</ele>
        <time>2018-07-28T07:14:56Z</time>
      </trkpt>
      <trkpt lat="36.6941223144531" lon="-5.00968408584595">
        <ele>1733.42822265625</ele>
        <time>2018-07-28T07:14:57Z</time>
      </trkpt>
      <trkpt lat="36.6941261291504" lon="-5.00969505310059">
        <ele>1733.34997558594</ele>
        <time>2018-07-28T07:14:58Z</time>
      </trkpt>
      <trkpt lat="36.6941337585449" lon="-5.00970315933228">
        <ele>1733.21765136719</ele>
        <time>2018-07-28T07:14:59Z</time>
      </trkpt>
      <trkpt lat="36.6941375732422" lon="-5.00970888137817">
        <ele>1733.1474609375</ele>
        <time>2018-07-28T07:15:00Z</time>
      </trkpt>
      <trkpt lat="36.6941375732422" lon="-5.00971603393555">
        <ele>1733.13305664062</ele>
        <time>2018-07-28T07:15:01Z</time>
      </trkpt>
      <trkpt lat="36.6941413879394" lon="-5.00972509384155">
        <ele>1733.05505371094</ele>
        <time>2018-07-28T07:15:02Z</time>
      </trkpt>
      <trkpt lat="36.6941452026367" lon="-5.00973606109619">
        <ele>1732.97216796875</ele>
        <time>2018-07-28T07:15:03Z</time>
      </trkpt>
      <trkpt lat="36.6941452026367" lon="-5.00974702835083">
        <ele>1732.94885253906</ele>
        <time>2018-07-28T07:15:04Z</time>
      </trkpt>
      <trkpt lat="36.694149017334" lon="-5.00975894927978">
        <ele>1732.8623046875</ele>
        <time>2018-07-28T07:15:05Z</time>
      </trkpt>
      <trkpt lat="36.694149017334" lon="-5.00977087020874">
        <ele>1732.83642578125</ele>
        <time>2018-07-28T07:15:06Z</time>
      </trkpt>
      <trkpt lat="36.6941528320312" lon="-5.00978422164917">
        <ele>1732.74475097656</ele>
        <time>2018-07-28T07:15:07Z</time>
      </trkpt>
      <trkpt lat="36.6941566467285" lon="-5.00979709625244">
        <ele>1732.65295410156</ele>
        <time>2018-07-28T07:15:08Z</time>
      </trkpt>
      <trkpt lat="36.6941604614258" lon="-5.00981092453003">
        <ele>1732.55773925781</ele>
        <time>2018-07-28T07:15:09Z</time>
      </trkpt>
      <trkpt lat="36.6941680908203" lon="-5.0098237991333">
        <ele>1732.41040039062</ele>
        <time>2018-07-28T07:15:10Z</time>
      </trkpt>
      <trkpt lat="36.6941719055176" lon="-5.00983715057373">
        <ele>1732.34411621094</ele>
        <time>2018-07-28T07:15:11Z</time>
      </trkpt>
      <trkpt lat="36.6941757202148" lon="-5.009850025177">
        <ele>1732.27783203125</ele>
        <time>2018-07-28T07:15:12Z</time>
      </trkpt>
      <trkpt lat="36.6941795349121" lon="-5.00986099243164">
        <ele>1732.21520996094</ele>
        <time>2018-07-28T07:15:13Z</time>
      </trkpt>
      <trkpt lat="36.6941795349121" lon="-5.00987195968628">
        <ele>1732.18725585938</ele>
        <time>2018-07-28T07:15:14Z</time>
      </trkpt>
      <trkpt lat="36.6941833496094" lon="-5.0098819732666">
        <ele>1732.12573242188</ele>
        <time>2018-07-28T07:15:15Z</time>
      </trkpt>
      <trkpt lat="36.6941795349121" lon="-5.00989294052124">
        <ele>1732.1337890625</ele>
        <time>2018-07-28T07:15:16Z</time>
      </trkpt>
      <trkpt lat="36.6941795349121" lon="-5.00990390777588">
        <ele>1732.10583496094</ele>
        <time>2018-07-28T07:15:17Z</time>
      </trkpt>
      <trkpt lat="36.6941795349121" lon="-5.00991582870483">
        <ele>1732.07556152344</ele>
        <time>2018-07-28T07:15:18Z</time>
      </trkpt>
      <trkpt lat="36.6941795349121" lon="-5.00992822647095">
        <ele>1732.0439453125</ele>
        <time>2018-07-28T07:15:19Z</time>
      </trkpt>
      <trkpt lat="36.6941833496094" lon="-5.0099401473999">
        <ele>1731.97497558594</ele>
        <time>2018-07-28T07:15:20Z</time>
      </trkpt>
      <trkpt lat="36.6941871643066" lon="-5.00995302200317">
        <ele>1731.90246582031</ele>
        <time>2018-07-28T07:15:21Z</time>
      </trkpt>
      <trkpt lat="36.6941871643066" lon="-5.00996589660644">
        <ele>1731.86853027344</ele>
        <time>2018-07-28T07:15:22Z</time>
      </trkpt>
      <trkpt lat="36.6941871643066" lon="-5.0099778175354">
        <ele>1731.83715820312</ele>
        <time>2018-07-28T07:15:23Z</time>
      </trkpt>
      <trkpt lat="36.6941909790039" lon="-5.00999021530151">
        <ele>1731.763671875</ele>
        <time>2018-07-28T07:15:24Z</time>
      </trkpt>
      <trkpt lat="36.6941947937012" lon="-5.01000308990478">
        <ele>1731.67541503906</ele>
        <time>2018-07-28T07:15:25Z</time>
      </trkpt>
      <trkpt lat="36.6941947937012" lon="-5.01001501083374">
        <ele>1731.59484863281</ele>
        <time>2018-07-28T07:15:26Z</time>
      </trkpt>
      <trkpt lat="36.6941947937012" lon="-5.0100269317627">
        <ele>1731.51428222656</ele>
        <time>2018-07-28T07:15:27Z</time>
      </trkpt>
      <trkpt lat="36.6941986083984" lon="-5.01003694534302">
        <ele>1731.40771484375</ele>
        <time>2018-07-28T07:15:28Z</time>
      </trkpt>
      <trkpt lat="36.6941986083984" lon="-5.01004695892334">
        <ele>1731.34069824219</ele>
        <time>2018-07-28T07:15:29Z</time>
      </trkpt>
      <trkpt lat="36.6941986083984" lon="-5.01005792617798">
        <ele>1731.26721191406</ele>
        <time>2018-07-28T07:15:30Z</time>
      </trkpt>
      <trkpt lat="36.6941947937012" lon="-5.01006984710693">
        <ele>1731.22448730469</ele>
        <time>2018-07-28T07:15:31Z</time>
      </trkpt>
      <trkpt lat="36.6941947937012" lon="-5.01008176803589">
        <ele>1731.14392089844</ele>
        <time>2018-07-28T07:15:32Z</time>
      </trkpt>
      <trkpt lat="36.6941986083984" lon="-5.010094165802">
        <ele>1731.02465820312</ele>
        <time>2018-07-28T07:15:33Z</time>
      </trkpt>
      <trkpt lat="36.6941986083984" lon="-5.01010608673096">
        <ele>1730.94482421875</ele>
        <time>2018-07-28T07:15:34Z</time>
      </trkpt>
      <trkpt lat="36.6941986083984" lon="-5.01011896133423">
        <ele>1730.85864257812</ele>
        <time>2018-07-28T07:15:35Z</time>
      </trkpt>
      <trkpt lat="36.6941986083984" lon="-5.0101318359375">
        <ele>1730.7724609375</ele>
        <time>2018-07-28T07:15:36Z</time>
      </trkpt>
      <trkpt lat="36.6941986083984" lon="-5.01014280319214">
        <ele>1730.69909667969</ele>
        <time>2018-07-28T07:15:37Z</time>
      </trkpt>
      <trkpt lat="36.6941947937012" lon="-5.01015377044678">
        <ele>1730.65759277344</ele>
        <time>2018-07-28T07:15:38Z</time>
      </trkpt>
      <trkpt lat="36.6941947937012" lon="-5.01016283035278">
        <ele>1730.59643554688</ele>
        <time>2018-07-28T07:15:39Z</time>
      </trkpt>
      <trkpt lat="36.6941871643066" lon="-5.01017189025879">
        <ele>1730.59680175781</ele>
        <time>2018-07-28T07:15:40Z</time>
      </trkpt>
      <trkpt lat="36.6941833496094" lon="-5.01018285751343">
        <ele>1730.55151367188</ele>
        <time>2018-07-28T07:15:41Z</time>
      </trkpt>
      <trkpt lat="36.6941795349121" lon="-5.01019477844238">
        <ele>1730.49829101562</ele>
        <time>2018-07-28T07:15:42Z</time>
      </trkpt>
      <trkpt lat="36.6941795349121" lon="-5.01020622253418">
        <ele>1730.41821289062</ele>
        <time>2018-07-28T07:15:43Z</time>
      </trkpt>
      <trkpt lat="36.6941795349121" lon="-5.01021814346314">
        <ele>1730.33483886719</ele>
        <time>2018-07-28T07:15:44Z</time>
      </trkpt>
      <trkpt lat="36.6941757202148" lon="-5.01022911071777">
        <ele>1730.28552246094</ele>
        <time>2018-07-28T07:15:45Z</time>
      </trkpt>
      <trkpt lat="36.6941719055176" lon="-5.01023817062378">
        <ele>1730.24841308594</ele>
        <time>2018-07-28T07:15:46Z</time>
      </trkpt>
      <trkpt lat="36.6941680908203" lon="-5.01024484634399">
        <ele>1730.22729492188</ele>
        <time>2018-07-28T07:15:47Z</time>
      </trkpt>
      <trkpt lat="36.694164276123" lon="-5.01025295257568">
        <ele>1730.21936035156</ele>
        <time>2018-07-28T07:15:48Z</time>
      </trkpt>
      <trkpt lat="36.694164276123" lon="-5.01026296615601">
        <ele>1730.14709472656</ele>
        <time>2018-07-28T07:15:49Z</time>
      </trkpt>
      <trkpt lat="36.694164276123" lon="-5.01027584075928">
        <ele>1730.05419921875</ele>
        <time>2018-07-28T07:15:50Z</time>
      </trkpt>
      <trkpt lat="36.6941604614258" lon="-5.01028776168823">
        <ele>1730.03186035156</ele>
        <time>2018-07-28T07:15:51Z</time>
      </trkpt>
      <trkpt lat="36.6941604614258" lon="-5.01030015945435">
        <ele>1729.94189453125</ele>
        <time>2018-07-28T07:15:52Z</time>
      </trkpt>
      <trkpt lat="36.6941566467285" lon="-5.01031112670898">
        <ele>1729.92529296875</ele>
        <time>2018-07-28T07:15:53Z</time>
      </trkpt>
      <trkpt lat="36.6941528320312" lon="-5.01032304763794">
        <ele>1729.90112304688</ele>
        <time>2018-07-28T07:15:54Z</time>
      </trkpt>
      <trkpt lat="36.6941452026367" lon="-5.01033401489258">
        <ele>1729.9453125</ele>
        <time>2018-07-28T07:15:55Z</time>
      </trkpt>
      <trkpt lat="36.6941413879394" lon="-5.01034212112427">
        <ele>1729.94738769531</ele>
        <time>2018-07-28T07:15:56Z</time>
      </trkpt>
      <trkpt lat="36.6941375732422" lon="-5.01034879684448">
        <ele>1729.95959472656</ele>
        <time>2018-07-28T07:15:57Z</time>
      </trkpt>
      <trkpt lat="36.6941337585449" lon="-5.01035594940186">
        <ele>1729.9677734375</ele>
        <time>2018-07-28T07:15:58Z</time>
      </trkpt>
      <trkpt lat="36.6941261291504" lon="-5.01036405563354">
        <ele>1730.02966308594</ele>
        <time>2018-07-28T07:15:59Z</time>
      </trkpt>
      <trkpt lat="36.6941223144531" lon="-5.01037311553955">
        <ele>1730.02209472656</ele>
        <time>2018-07-28T07:16:00Z</time>
      </trkpt>
      <trkpt lat="36.6941184997559" lon="-5.01038217544556">
        <ele>1730.01403808594</ele>
        <time>2018-07-28T07:16:01Z</time>
      </trkpt>
      <trkpt lat="36.6941146850586" lon="-5.01039218902588">
        <ele>1729.99816894531</ele>
        <time>2018-07-28T07:16:02Z</time>
      </trkpt>
      <trkpt lat="36.6941108703613" lon="-5.0104022026062">
        <ele>1729.98156738281</ele>
        <time>2018-07-28T07:16:03Z</time>
      </trkpt>
      <trkpt lat="36.6941032409668" lon="-5.01041316986084">
        <ele>1730.01647949219</ele>
        <time>2018-07-28T07:16:04Z</time>
      </trkpt>
      <trkpt lat="36.6940994262695" lon="-5.01042413711548">
        <ele>1729.99084472656</ele>
        <time>2018-07-28T07:16:05Z</time>
      </trkpt>
      <trkpt lat="36.6940956115723" lon="-5.01043510437012">
        <ele>1729.96435546875</ele>
        <time>2018-07-28T07:16:06Z</time>
      </trkpt>
      <trkpt lat="36.694091796875" lon="-5.01044511795044">
        <ele>1729.94470214844</ele>
        <time>2018-07-28T07:16:07Z</time>
      </trkpt>
      <trkpt lat="36.6940879821777" lon="-5.01045608520508">
        <ele>1729.91687011719</ele>
        <time>2018-07-28T07:16:08Z</time>
      </trkpt>
      <trkpt lat="36.6940841674805" lon="-5.0104660987854">
        <ele>1729.89587402344</ele>
        <time>2018-07-28T07:16:09Z</time>
      </trkpt>
      <trkpt lat="36.6940841674805" lon="-5.01047611236572">
        <ele>1729.81665039062</ele>
        <time>2018-07-28T07:16:10Z</time>
      </trkpt>
      <trkpt lat="36.6940803527832" lon="-5.01048517227173">
        <ele>1729.80212402344</ele>
        <time>2018-07-28T07:16:11Z</time>
      </trkpt>
      <trkpt lat="36.6940765380859" lon="-5.01049518585205">
        <ele>1729.77954101562</ele>
        <time>2018-07-28T07:16:12Z</time>
      </trkpt>
      <trkpt lat="36.6940727233887" lon="-5.0105037689209">
        <ele>1729.76770019531</ele>
        <time>2018-07-28T07:16:13Z</time>
      </trkpt>
      <trkpt lat="36.6940689086914" lon="-5.01051187515259">
        <ele>1729.75915527344</ele>
        <time>2018-07-28T07:16:14Z</time>
      </trkpt>
      <trkpt lat="36.6940650939941" lon="-5.01051998138428">
        <ele>1729.75</ele>
        <time>2018-07-28T07:16:15Z</time>
      </trkpt>
      <trkpt lat="36.6940612792969" lon="-5.01052713394165">
        <ele>1729.748046875</ele>
        <time>2018-07-28T07:16:16Z</time>
      </trkpt>
      <trkpt lat="36.6940612792969" lon="-5.01053380966186">
        <ele>1729.69396972656</ele>
        <time>2018-07-28T07:16:17Z</time>
      </trkpt>
      <trkpt lat="36.6940574645996" lon="-5.01054286956787">
        <ele>1729.67578125</ele>
        <time>2018-07-28T07:16:18Z</time>
      </trkpt>
      <trkpt lat="36.6940536499023" lon="-5.01055097579956">
        <ele>1729.66491699219</ele>
        <time>2018-07-28T07:16:19Z</time>
      </trkpt>
      <trkpt lat="36.6940536499023" lon="-5.01056098937988">
        <ele>1729.5830078125</ele>
        <time>2018-07-28T07:16:20Z</time>
      </trkpt>
      <trkpt lat="36.6940498352051" lon="-5.01056909561157">
        <ele>1729.57116699219</ele>
        <time>2018-07-28T07:16:21Z</time>
      </trkpt>
      <trkpt lat="36.6940498352051" lon="-5.01057720184326">
        <ele>1729.50463867188</ele>
        <time>2018-07-28T07:16:22Z</time>
      </trkpt>
      <trkpt lat="36.6940498352051" lon="-5.01058483123779">
        <ele>1729.44201660156</ele>
        <time>2018-07-28T07:16:23Z</time>
      </trkpt>
      <trkpt lat="36.6940460205078" lon="-5.01059007644653">
        <ele>1729.45275878906</ele>
        <time>2018-07-28T07:16:24Z</time>
      </trkpt>
      <trkpt lat="36.6940460205078" lon="-5.01059484481812">
        <ele>1729.41345214844</ele>
        <time>2018-07-28T07:16:25Z</time>
      </trkpt>
      <trkpt lat="36.6940422058106" lon="-5.01059913635254">
        <ele>1729.431640625</ele>
        <time>2018-07-28T07:16:26Z</time>
      </trkpt>
      <trkpt lat="36.6940383911133" lon="-5.0106029510498">
        <ele>1729.45336914062</ele>
        <time>2018-07-28T07:16:27Z</time>
      </trkpt>
      <trkpt lat="36.694034576416" lon="-5.01060819625854">
        <ele>1729.46301269531</ele>
        <time>2018-07-28T07:16:28Z</time>
      </trkpt>
      <trkpt lat="36.694034576416" lon="-5.01061296463013">
        <ele>1729.42321777344</ele>
        <time>2018-07-28T07:16:29Z</time>
      </trkpt>
      <trkpt lat="36.694034576416" lon="-5.0106201171875">
        <ele>1729.36352539062</ele>
        <time>2018-07-28T07:16:30Z</time>
      </trkpt>
      <trkpt lat="36.694034576416" lon="-5.01062917709351">
        <ele>1729.28796386719</ele>
        <time>2018-07-28T07:16:31Z</time>
      </trkpt>
      <trkpt lat="36.6940383911133" lon="-5.01063919067383">
        <ele>1729.15234375</ele>
        <time>2018-07-28T07:16:32Z</time>
      </trkpt>
      <trkpt lat="36.6940383911133" lon="-5.01064920425415">
        <ele>1729.06909179688</ele>
        <time>2018-07-28T07:16:33Z</time>
      </trkpt>
      <trkpt lat="36.6940383911133" lon="-5.01066112518311">
        <ele>1728.97009277344</ele>
        <time>2018-07-28T07:16:34Z</time>
      </trkpt>
      <trkpt lat="36.6940383911133" lon="-5.01067304611206">
        <ele>1728.87097167969</ele>
        <time>2018-07-28T07:16:35Z</time>
      </trkpt>
      <trkpt lat="36.6940383911133" lon="-5.0106840133667">
        <ele>1728.77990722656</ele>
        <time>2018-07-28T07:16:36Z</time>
      </trkpt>
      <trkpt lat="36.6940383911133" lon="-5.01069402694702">
        <ele>1728.69665527344</ele>
        <time>2018-07-28T07:16:37Z</time>
      </trkpt>
      <trkpt lat="36.694034576416" lon="-5.01070308685303">
        <ele>1728.67150878906</ele>
        <time>2018-07-28T07:16:38Z</time>
      </trkpt>
      <trkpt lat="36.6940307617188" lon="-5.01071405410767">
        <ele>1728.62976074219</ele>
        <time>2018-07-28T07:16:39Z</time>
      </trkpt>
      <trkpt lat="36.6940269470215" lon="-5.01072692871094">
        <ele>1728.57116699219</ele>
        <time>2018-07-28T07:16:40Z</time>
      </trkpt>
      <trkpt lat="36.6940269470215" lon="-5.01074123382568">
        <ele>1728.45092773438</ele>
        <time>2018-07-28T07:16:41Z</time>
      </trkpt>
      <trkpt lat="36.6940307617188" lon="-5.01075601577759">
        <ele>1728.2783203125</ele>
        <time>2018-07-28T07:16:42Z</time>
      </trkpt>
      <trkpt lat="36.694034576416" lon="-5.01076984405518">
        <ele>1728.11462402344</ele>
        <time>2018-07-28T07:16:43Z</time>
      </trkpt>
      <trkpt lat="36.694034576416" lon="-5.01078319549561">
        <ele>1728.00329589844</ele>
        <time>2018-07-28T07:16:44Z</time>
      </trkpt>
      <trkpt lat="36.694034576416" lon="-5.01079511642456">
        <ele>1727.90380859375</ele>
        <time>2018-07-28T07:16:45Z</time>
      </trkpt>
      <trkpt lat="36.694034576416" lon="-5.01080799102783">
        <ele>1727.79650878906</ele>
        <time>2018-07-28T07:16:46Z</time>
      </trkpt>
      <trkpt lat="36.6940383911133" lon="-5.0108208656311">
        <ele>1727.64294433594</ele>
        <time>2018-07-28T07:16:47Z</time>
      </trkpt>
      <trkpt lat="36.6940383911133" lon="-5.01083278656006">
        <ele>1727.54382324219</ele>
        <time>2018-07-28T07:16:48Z</time>
      </trkpt>
      <trkpt lat="36.6940383911133" lon="-5.0108470916748">
        <ele>1727.51257324219</ele>
        <time>2018-07-28T07:16:49Z</time>
      </trkpt>
      <trkpt lat="36.6940383911133" lon="-5.01085996627808">
        <ele>1727.48767089844</ele>
        <time>2018-07-28T07:16:50Z</time>
      </trkpt>
      <trkpt lat="36.694034576416" lon="-5.01087284088135">
        <ele>1727.50476074219</ele>
        <time>2018-07-28T07:16:51Z</time>
      </trkpt>
      <trkpt lat="36.694034576416" lon="-5.01088619232178">
        <ele>1727.4775390625</ele>
        <time>2018-07-28T07:16:52Z</time>
      </trkpt>
      <trkpt lat="36.6940307617188" lon="-5.01090002059936">
        <ele>1727.48901367188</ele>
        <time>2018-07-28T07:16:53Z</time>
      </trkpt>
      <trkpt lat="36.6940307617188" lon="-5.01091384887695">
        <ele>1727.45959472656</ele>
        <time>2018-07-28T07:16:54Z</time>
      </trkpt>
      <trkpt lat="36.6940269470215" lon="-5.0109281539917">
        <ele>1727.46606445312</ele>
        <time>2018-07-28T07:16:55Z</time>
      </trkpt>
      <trkpt lat="36.6940231323242" lon="-5.01094102859497">
        <ele>1727.47326660156</ele>
        <time>2018-07-28T07:16:56Z</time>
      </trkpt>
      <trkpt lat="36.694019317627" lon="-5.01095199584961">
        <ele>1727.48254394531</ele>
        <time>2018-07-28T07:16:57Z</time>
      </trkpt>
      <trkpt lat="36.6940155029297" lon="-5.01096200942993">
        <ele>1727.4921875</ele>
        <time>2018-07-28T07:16:58Z</time>
      </trkpt>
      <trkpt lat="36.6940155029297" lon="-5.0109691619873">
        <ele>1727.47436523438</ele>
        <time>2018-07-28T07:16:59Z</time>
      </trkpt>
      <trkpt lat="36.6940155029297" lon="-5.01097583770752">
        <ele>1727.45764160156</ele>
        <time>2018-07-28T07:17:00Z</time>
      </trkpt>
      <trkpt lat="36.6940116882324" lon="-5.01098394393921">
        <ele>1727.46911621094</ele>
        <time>2018-07-28T07:17:01Z</time>
      </trkpt>
      <trkpt lat="36.6940116882324" lon="-5.01099586486816">
        <ele>1727.43811035156</ele>
        <time>2018-07-28T07:17:02Z</time>
      </trkpt>
      <trkpt lat="36.6940078735352" lon="-5.0110068321228">
        <ele>1727.43933105469</ele>
        <time>2018-07-28T07:17:03Z</time>
      </trkpt>
      <trkpt lat="36.6940078735352" lon="-5.01101779937744">
        <ele>1727.40979003906</ele>
        <time>2018-07-28T07:17:04Z</time>
      </trkpt>
      <trkpt lat="36.6940040588379" lon="-5.01102781295776">
        <ele>1727.41052246094</ele>
        <time>2018-07-28T07:17:05Z</time>
      </trkpt>
      <trkpt lat="36.6940002441406" lon="-5.01103782653809">
        <ele>1727.40930175781</ele>
        <time>2018-07-28T07:17:06Z</time>
      </trkpt>
      <trkpt lat="36.6939964294434" lon="-5.01104784011841">
        <ele>1727.40637207031</ele>
        <time>2018-07-28T07:17:07Z</time>
      </trkpt>
      <trkpt lat="36.6939926147461" lon="-5.01105880737305">
        <ele>1727.3984375</ele>
        <time>2018-07-28T07:17:08Z</time>
      </trkpt>
      <trkpt lat="36.6939849853516" lon="-5.01106882095337">
        <ele>1727.41540527344</ele>
        <time>2018-07-28T07:17:09Z</time>
      </trkpt>
      <trkpt lat="36.693977355957" lon="-5.0110821723938">
        <ele>1727.41711425781</ele>
        <time>2018-07-28T07:17:10Z</time>
      </trkpt>
      <trkpt lat="36.6939735412598" lon="-5.01109409332275">
        <ele>1727.39758300781</ele>
        <time>2018-07-28T07:17:11Z</time>
      </trkpt>
      <trkpt lat="36.6939659118652" lon="-5.01110601425171">
        <ele>1727.39624023438</ele>
        <time>2018-07-28T07:17:12Z</time>
      </trkpt>
      <trkpt lat="36.6939582824707" lon="-5.01111602783203">
        <ele>1727.39770507812</ele>
        <time>2018-07-28T07:17:13Z</time>
      </trkpt>
      <trkpt lat="36.6939544677734" lon="-5.0111231803894">
        <ele>1727.38854980469</ele>
        <time>2018-07-28T07:17:14Z</time>
      </trkpt>
      <trkpt lat="36.6939468383789" lon="-5.01112794876099">
        <ele>1727.40600585938</ele>
        <time>2018-07-28T07:17:15Z</time>
      </trkpt>
      <trkpt lat="36.6939392089844" lon="-5.01113414764404">
        <ele>1727.41552734375</ele>
        <time>2018-07-28T07:17:16Z</time>
      </trkpt>
      <trkpt lat="36.6939277648926" lon="-5.01113891601562">
        <ele>1727.44641113281</ele>
        <time>2018-07-28T07:17:17Z</time>
      </trkpt>
      <trkpt lat="36.693920135498" lon="-5.01114511489868">
        <ele>1727.45092773438</ele>
        <time>2018-07-28T07:17:18Z</time>
      </trkpt>
      <trkpt lat="36.6939125061035" lon="-5.01115083694458">
        <ele>1727.45544433594</ele>
        <time>2018-07-28T07:17:19Z</time>
      </trkpt>
      <trkpt lat="36.693904876709" lon="-5.01115894317627">
        <ele>1727.44555664062</ele>
        <time>2018-07-28T07:17:20Z</time>
      </trkpt>
      <trkpt lat="36.6938972473144" lon="-5.01116800308228">
        <ele>1727.42736816406</ele>
        <time>2018-07-28T07:17:21Z</time>
      </trkpt>
      <trkpt lat="36.6938896179199" lon="-5.0111780166626">
        <ele>1727.40051269531</ele>
        <time>2018-07-28T07:17:22Z</time>
      </trkpt>
      <trkpt lat="36.6938896179199" lon="-5.01118898391724">
        <ele>1727.33923339844</ele>
        <time>2018-07-28T07:17:23Z</time>
      </trkpt>
      <trkpt lat="36.6938858032227" lon="-5.01120090484619">
        <ele>1727.2841796875</ele>
        <time>2018-07-28T07:17:24Z</time>
      </trkpt>
      <trkpt lat="36.6938858032227" lon="-5.01121187210083">
        <ele>1727.22192382812</ele>
        <time>2018-07-28T07:17:25Z</time>
      </trkpt>
      <trkpt lat="36.6938858032227" lon="-5.01122379302978">
        <ele>1727.154296875</ele>
        <time>2018-07-28T07:17:26Z</time>
      </trkpt>
      <trkpt lat="36.6938858032227" lon="-5.0112361907959">
        <ele>1727.083984375</ele>
        <time>2018-07-28T07:17:27Z</time>
      </trkpt>
      <trkpt lat="36.6938819885254" lon="-5.01124811172485">
        <ele>1727.02331542969</ele>
        <time>2018-07-28T07:17:28Z</time>
      </trkpt>
      <trkpt lat="36.6938781738281" lon="-5.01125907897949">
        <ele>1726.96606445312</ele>
        <time>2018-07-28T07:17:29Z</time>
      </trkpt>
      <trkpt lat="36.6938743591309" lon="-5.01127004623413">
        <ele>1726.90673828125</ele>
        <time>2018-07-28T07:17:30Z</time>
      </trkpt>
      <trkpt lat="36.6938667297363" lon="-5.01128101348877">
        <ele>1726.84936523438</ele>
        <time>2018-07-28T07:17:31Z</time>
      </trkpt>
      <trkpt lat="36.6938629150391" lon="-5.01129198074341">
        <ele>1726.78491210938</ele>
        <time>2018-07-28T07:17:32Z</time>
      </trkpt>
      <trkpt lat="36.6938552856445" lon="-5.01130390167236">
        <ele>1726.71435546875</ele>
        <time>2018-07-28T07:17:33Z</time>
      </trkpt>
      <trkpt lat="36.6938514709473" lon="-5.01131582260132">
        <ele>1726.63842773438</ele>
        <time>2018-07-28T07:17:34Z</time>
      </trkpt>
      <trkpt lat="36.6938514709473" lon="-5.01132917404175">
        <ele>1726.55151367188</ele>
        <time>2018-07-28T07:17:35Z</time>
      </trkpt>
      <trkpt lat="36.69384765625" lon="-5.0113410949707">
        <ele>1726.47216796875</ele>
        <time>2018-07-28T07:17:36Z</time>
      </trkpt>
      <trkpt lat="36.6938438415527" lon="-5.01135206222534">
        <ele>1726.39697265625</ele>
        <time>2018-07-28T07:17:37Z</time>
      </trkpt>
      <trkpt lat="36.6938400268555" lon="-5.01136302947998">
        <ele>1726.31982421875</ele>
        <time>2018-07-28T07:17:38Z</time>
      </trkpt>
      <trkpt lat="36.6938400268555" lon="-5.01137495040894">
        <ele>1726.23876953125</ele>
        <time>2018-07-28T07:17:39Z</time>
      </trkpt>
      <trkpt lat="36.6938400268555" lon="-5.01138782501221">
        <ele>1726.15124511719</ele>
        <time>2018-07-28T07:17:40Z</time>
      </trkpt>
      <trkpt lat="36.6938438415527" lon="-5.01140117645264">
        <ele>1726.06774902344</ele>
        <time>2018-07-28T07:17:41Z</time>
      </trkpt>
      <trkpt lat="36.6938438415527" lon="-5.01141405105591">
        <ele>1725.9814453125</ele>
        <time>2018-07-28T07:17:42Z</time>
      </trkpt>
      <trkpt lat="36.69384765625" lon="-5.01142692565918">
        <ele>1725.90490722656</ele>
        <time>2018-07-28T07:17:43Z</time>
      </trkpt>
      <trkpt lat="36.6938514709473" lon="-5.01143980026245">
        <ele>1725.83056640625</ele>
        <time>2018-07-28T07:17:44Z</time>
      </trkpt>
      <trkpt lat="36.6938552856445" lon="-5.01145315170288">
        <ele>1725.75573730469</ele>
        <time>2018-07-28T07:17:45Z</time>
      </trkpt>
      <trkpt lat="36.6938552856445" lon="-5.01146507263184">
        <ele>1725.67919921875</ele>
        <time>2018-07-28T07:17:46Z</time>
      </trkpt>
      <trkpt lat="36.6938591003418" lon="-5.01147699356079">
        <ele>1725.61694335938</ele>
        <time>2018-07-28T07:17:47Z</time>
      </trkpt>
      <trkpt lat="36.6938591003418" lon="-5.01148986816406">
        <ele>1725.53540039062</ele>
        <time>2018-07-28T07:17:48Z</time>
      </trkpt>
      <trkpt lat="36.6938629150391" lon="-5.01150178909302">
        <ele>1725.47668457031</ele>
        <time>2018-07-28T07:17:49Z</time>
      </trkpt>
      <trkpt lat="36.6938667297363" lon="-5.01151418685913">
        <ele>1725.41711425781</ele>
        <time>2018-07-28T07:17:50Z</time>
      </trkpt>
      <trkpt lat="36.6938667297363" lon="-5.01152515411377">
        <ele>1725.34973144531</ele>
        <time>2018-07-28T07:17:51Z</time>
      </trkpt>
      <trkpt lat="36.6938705444336" lon="-5.01153612136841">
        <ele>1725.30224609375</ele>
        <time>2018-07-28T07:17:52Z</time>
      </trkpt>
      <trkpt lat="36.6938743591309" lon="-5.01154804229736">
        <ele>1725.25109863281</ele>
        <time>2018-07-28T07:17:53Z</time>
      </trkpt>
      <trkpt lat="36.6938743591309" lon="-5.01156187057495">
        <ele>1725.16870117188</ele>
        <time>2018-07-28T07:17:54Z</time>
      </trkpt>
      <trkpt lat="36.6938781738281" lon="-5.0115761756897">
        <ele>1725.10717773438</ele>
        <time>2018-07-28T07:17:55Z</time>
      </trkpt>
      <trkpt lat="36.6938819885254" lon="-5.01159000396728">
        <ele>1725.05102539062</ele>
        <time>2018-07-28T07:17:56Z</time>
      </trkpt>
      <trkpt lat="36.6938858032227" lon="-5.01160287857056">
        <ele>1725.00280761719</ele>
        <time>2018-07-28T07:17:57Z</time>
      </trkpt>
      <trkpt lat="36.6938896179199" lon="-5.01161623001099">
        <ele>1724.95434570312</ele>
        <time>2018-07-28T07:17:58Z</time>
      </trkpt>
      <trkpt lat="36.6938896179199" lon="-5.01162910461426">
        <ele>1724.88244628906</ele>
        <time>2018-07-28T07:17:59Z</time>
      </trkpt>
      <trkpt lat="36.6938934326172" lon="-5.01164197921753">
        <ele>1724.84033203125</ele>
        <time>2018-07-28T07:18:00Z</time>
      </trkpt>
      <trkpt lat="36.6938934326172" lon="-5.01165390014648">
        <ele>1724.77490234375</ele>
        <time>2018-07-28T07:18:01Z</time>
      </trkpt>
      <trkpt lat="36.6938972473144" lon="-5.01166486740112">
        <ele>1724.74658203125</ele>
        <time>2018-07-28T07:18:02Z</time>
      </trkpt>
      <trkpt lat="36.6938972473144" lon="-5.01167488098144">
        <ele>1724.72155761719</ele>
        <time>2018-07-28T07:18:03Z</time>
      </trkpt>
      <trkpt lat="36.6939010620117" lon="-5.01168584823608">
        <ele>1724.73425292969</ele>
        <time>2018-07-28T07:18:04Z</time>
      </trkpt>
      <trkpt lat="36.693904876709" lon="-5.01169586181641">
        <ele>1724.75</ele>
        <time>2018-07-28T07:18:05Z</time>
      </trkpt>
      <trkpt lat="36.6939086914062" lon="-5.01170492172241">
        <ele>1724.7685546875</ele>
        <time>2018-07-28T07:18:06Z</time>
      </trkpt>
      <trkpt lat="36.6939125061035" lon="-5.01171207427978">
        <ele>1724.79125976562</ele>
        <time>2018-07-28T07:18:07Z</time>
      </trkpt>
      <trkpt lat="36.693920135498" lon="-5.01172018051147">
        <ele>1724.8486328125</ele>
        <time>2018-07-28T07:18:08Z</time>
      </trkpt>
      <trkpt lat="36.6939239501953" lon="-5.01172590255737">
        <ele>1724.87561035156</ele>
        <time>2018-07-28T07:18:09Z</time>
      </trkpt>
      <trkpt lat="36.6939315795898" lon="-5.0117301940918">
        <ele>1724.94116210938</ele>
        <time>2018-07-28T07:18:10Z</time>
      </trkpt>
      <trkpt lat="36.6939353942871" lon="-5.01173114776611">
        <ele>1724.97583007812</ele>
        <time>2018-07-28T07:18:11Z</time>
      </trkpt>
      <trkpt lat="36.6939430236816" lon="-5.01173305511475">
        <ele>1725.04553222656</ele>
        <time>2018-07-28T07:18:12Z</time>
      </trkpt>
      <trkpt lat="36.6939468383789" lon="-5.01173782348633">
        <ele>1725.07641601562</ele>
        <time>2018-07-28T07:18:13Z</time>
      </trkpt>
      <trkpt lat="36.6939506530762" lon="-5.01174402236938">
        <ele>1725.1064453125</ele>
        <time>2018-07-28T07:18:14Z</time>
      </trkpt>
      <trkpt lat="36.6939544677734" lon="-5.01175212860107">
        <ele>1725.13537597656</ele>
        <time>2018-07-28T07:18:15Z</time>
      </trkpt>
      <trkpt lat="36.6939582824707" lon="-5.01176118850708">
        <ele>1725.16442871094</ele>
        <time>2018-07-28T07:18:16Z</time>
      </trkpt>
      <trkpt lat="36.693962097168" lon="-5.01176977157593">
        <ele>1725.19494628906</ele>
        <time>2018-07-28T07:18:17Z</time>
      </trkpt>
      <trkpt lat="36.6939659118652" lon="-5.01177978515625">
        <ele>1725.22546386719</ele>
        <time>2018-07-28T07:18:18Z</time>
      </trkpt>
      <trkpt lat="36.6939697265625" lon="-5.01179122924805">
        <ele>1725.25610351562</ele>
        <time>2018-07-28T07:18:19Z</time>
      </trkpt>
      <trkpt lat="36.6939697265625" lon="-5.01180219650269">
        <ele>1725.24816894531</ele>
        <time>2018-07-28T07:18:20Z</time>
      </trkpt>
      <trkpt lat="36.6939735412598" lon="-5.01181411743164">
        <ele>1725.28051757812</ele>
        <time>2018-07-28T07:18:21Z</time>
      </trkpt>
      <trkpt lat="36.693977355957" lon="-5.01182413101196">
        <ele>1725.31555175781</ele>
        <time>2018-07-28T07:18:22Z</time>
      </trkpt>
      <trkpt lat="36.693977355957" lon="-5.0118350982666">
        <ele>1725.30895996094</ele>
        <time>2018-07-28T07:18:23Z</time>
      </trkpt>
      <trkpt lat="36.6939811706543" lon="-5.01184415817261">
        <ele>1725.34631347656</ele>
        <time>2018-07-28T07:18:24Z</time>
      </trkpt>
      <trkpt lat="36.6939849853516" lon="-5.01185178756714">
        <ele>1725.38537597656</ele>
        <time>2018-07-28T07:18:25Z</time>
      </trkpt>
      <trkpt lat="36.6939849853516" lon="-5.01185894012451">
        <ele>1725.38195800781</ele>
        <time>2018-07-28T07:18:26Z</time>
      </trkpt>
      <trkpt lat="36.6939888000488" lon="-5.0118670463562">
        <ele>1725.42224121094</ele>
        <time>2018-07-28T07:18:27Z</time>
      </trkpt>
      <trkpt lat="36.6939888000488" lon="-5.01187515258789">
        <ele>1725.4189453125</ele>
        <time>2018-07-28T07:18:28Z</time>
      </trkpt>
      <trkpt lat="36.6939888000488" lon="-5.0118842124939">
        <ele>1725.41516113281</ele>
        <time>2018-07-28T07:18:29Z</time>
      </trkpt>
      <trkpt lat="36.6939888000488" lon="-5.01189088821411">
        <ele>1725.41235351562</ele>
        <time>2018-07-28T07:18:30Z</time>
      </trkpt>
      <trkpt lat="36.6939888000488" lon="-5.01189994812012">
        <ele>1725.40856933594</ele>
        <time>2018-07-28T07:18:31Z</time>
      </trkpt>
      <trkpt lat="36.6939888000488" lon="-5.01190900802612">
        <ele>1725.40478515625</ele>
        <time>2018-07-28T07:18:32Z</time>
      </trkpt>
      <trkpt lat="36.6939888000488" lon="-5.01191806793213">
        <ele>1725.40100097656</ele>
        <time>2018-07-28T07:18:33Z</time>
      </trkpt>
      <trkpt lat="36.6939926147461" lon="-5.01192808151245">
        <ele>1725.44470214844</ele>
        <time>2018-07-28T07:18:34Z</time>
      </trkpt>
      <trkpt lat="36.6939926147461" lon="-5.01193904876709">
        <ele>1725.44067382812</ele>
        <time>2018-07-28T07:18:35Z</time>
      </trkpt>
      <trkpt lat="36.6939926147461" lon="-5.01195096969604">
        <ele>1725.4365234375</ele>
        <time>2018-07-28T07:18:36Z</time>
      </trkpt>
      <trkpt lat="36.6939926147461" lon="-5.01196193695068">
        <ele>1725.4326171875</ele>
        <time>2018-07-28T07:18:37Z</time>
      </trkpt>
      <trkpt lat="36.6939964294434" lon="-5.01197099685669">
        <ele>1725.47973632812</ele>
        <time>2018-07-28T07:18:38Z</time>
      </trkpt>
      <trkpt lat="36.6940002441406" lon="-5.01198101043701">
        <ele>1725.52783203125</ele>
        <time>2018-07-28T07:18:39Z</time>
      </trkpt>
      <trkpt lat="36.6940002441406" lon="-5.01199102401733">
        <ele>1725.52551269531</ele>
        <time>2018-07-28T07:18:40Z</time>
      </trkpt>
      <trkpt lat="36.6940040588379" lon="-5.01200103759766">
        <ele>1725.57531738281</ele>
        <time>2018-07-28T07:18:41Z</time>
      </trkpt>
      <trkpt lat="36.6940040588379" lon="-5.01200914382935">
        <ele>1725.57397460938</ele>
        <time>2018-07-28T07:18:42Z</time>
      </trkpt>
      <trkpt lat="36.6940040588379" lon="-5.01201581954956">
        <ele>1725.57275390625</ele>
        <time>2018-07-28T07:18:43Z</time>
      </trkpt>
      <trkpt lat="36.6940002441406" lon="-5.01202297210693">
        <ele>1725.51794433594</ele>
        <time>2018-07-28T07:18:44Z</time>
      </trkpt>
      <trkpt lat="36.6940002441406" lon="-5.01203203201294">
        <ele>1725.51574707031</ele>
        <time>2018-07-28T07:18:45Z</time>
      </trkpt>
      <trkpt lat="36.6940040588379" lon="-5.01204299926758">
        <ele>1725.56799316406</ele>
        <time>2018-07-28T07:18:46Z</time>
      </trkpt>
      <trkpt lat="36.6940040588379" lon="-5.01205492019653">
        <ele>1725.56591796875</ele>
        <time>2018-07-28T07:18:47Z</time>
      </trkpt>
      <trkpt lat="36.6940078735352" lon="-5.01206588745117">
        <ele>1725.6201171875</ele>
        <time>2018-07-28T07:18:48Z</time>
      </trkpt>
      <trkpt lat="36.6940078735352" lon="-5.01207685470581">
        <ele>1725.61889648438</ele>
        <time>2018-07-28T07:18:49Z</time>
      </trkpt>
      <trkpt lat="36.6940078735352" lon="-5.01208686828613">
        <ele>1725.61767578125</ele>
        <time>2018-07-28T07:18:50Z</time>
      </trkpt>
      <trkpt lat="36.6940078735352" lon="-5.01209592819214">
        <ele>1725.61669921875</ele>
        <time>2018-07-28T07:18:51Z</time>
      </trkpt>
      <trkpt lat="36.6940078735352" lon="-5.01210498809814">
        <ele>1725.61560058594</ele>
        <time>2018-07-28T07:18:52Z</time>
      </trkpt>
      <trkpt lat="36.6940078735352" lon="-5.01211404800415">
        <ele>1725.61450195312</ele>
        <time>2018-07-28T07:18:53Z</time>
      </trkpt>
      <trkpt lat="36.6940078735352" lon="-5.01212406158447">
        <ele>1725.61340332031</ele>
        <time>2018-07-28T07:18:54Z</time>
      </trkpt>
      <trkpt lat="36.6940040588379" lon="-5.01213312149048">
        <ele>1725.55212402344</ele>
        <time>2018-07-28T07:18:55Z</time>
      </trkpt>
      <trkpt lat="36.6940002441406" lon="-5.0121431350708">
        <ele>1725.48950195312</ele>
        <time>2018-07-28T07:18:56Z</time>
      </trkpt>
      <trkpt lat="36.6939964294434" lon="-5.01215076446533">
        <ele>1725.42639160156</ele>
        <time>2018-07-28T07:18:57Z</time>
      </trkpt>
      <trkpt lat="36.6939926147461" lon="-5.01215887069702">
        <ele>1725.3623046875</ele>
        <time>2018-07-28T07:18:58Z</time>
      </trkpt>
      <trkpt lat="36.6939888000488" lon="-5.01216697692871">
        <ele>1725.29711914062</ele>
        <time>2018-07-28T07:18:59Z</time>
      </trkpt>
      <trkpt lat="36.6939811706543" lon="-5.0121750831604">
        <ele>1725.16821289062</ele>
        <time>2018-07-28T07:19:00Z</time>
      </trkpt>
      <trkpt lat="36.693977355957" lon="-5.01218223571777">
        <ele>1725.10107421875</ele>
        <time>2018-07-28T07:19:01Z</time>
      </trkpt>
      <trkpt lat="36.693977355957" lon="-5.0121898651123">
        <ele>1725.09655761719</ele>
        <time>2018-07-28T07:19:02Z</time>
      </trkpt>
      <trkpt lat="36.693977355957" lon="-5.01219987869263">
        <ele>1725.09057617188</ele>
        <time>2018-07-28T07:19:03Z</time>
      </trkpt>
      <trkpt lat="36.693977355957" lon="-5.01220989227295">
        <ele>1725.08459472656</ele>
        <time>2018-07-28T07:19:04Z</time>
      </trkpt>
      <trkpt lat="36.6939735412598" lon="-5.01222085952759">
        <ele>1725.01245117188</ele>
        <time>2018-07-28T07:19:05Z</time>
      </trkpt>
      <trkpt lat="36.6939735412598" lon="-5.01223182678223">
        <ele>1725.00524902344</ele>
        <time>2018-07-28T07:19:06Z</time>
      </trkpt>
      <trkpt lat="36.6939697265625" lon="-5.01224088668823">
        <ele>1724.93249511719</ele>
        <time>2018-07-28T07:19:07Z</time>
      </trkpt>
      <trkpt lat="36.6939697265625" lon="-5.01225090026856">
        <ele>1724.92529296875</ele>
        <time>2018-07-28T07:19:08Z</time>
      </trkpt>
      <trkpt lat="36.6939659118652" lon="-5.01226091384888">
        <ele>1724.85021972656</ele>
        <time>2018-07-28T07:19:09Z</time>
      </trkpt>
      <trkpt lat="36.6939659118652" lon="-5.0122709274292">
        <ele>1724.84240722656</ele>
        <time>2018-07-28T07:19:10Z</time>
      </trkpt>
      <trkpt lat="36.6939659118652" lon="-5.01228189468384">
        <ele>1724.83386230469</ele>
        <time>2018-07-28T07:19:11Z</time>
      </trkpt>
      <trkpt lat="36.693962097168" lon="-5.01229286193848">
        <ele>1724.75537109375</ele>
        <time>2018-07-28T07:19:12Z</time>
      </trkpt>
      <trkpt lat="36.693962097168" lon="-5.0123028755188">
        <ele>1724.74694824219</ele>
        <time>2018-07-28T07:19:13Z</time>
      </trkpt>
      <trkpt lat="36.6939582824707" lon="-5.01231288909912">
        <ele>1724.66748046875</ele>
        <time>2018-07-28T07:19:14Z</time>
      </trkpt>
      <trkpt lat="36.6939582824707" lon="-5.01232290267944">
        <ele>1724.65844726562</ele>
        <time>2018-07-28T07:19:15Z</time>
      </trkpt>
      <trkpt lat="36.6939582824707" lon="-5.01233291625977">
        <ele>1724.6494140625</ele>
        <time>2018-07-28T07:19:16Z</time>
      </trkpt>
      <trkpt lat="36.6939544677734" lon="-5.01234292984009">
        <ele>1724.56750488281</ele>
        <time>2018-07-28T07:19:17Z</time>
      </trkpt>
      <trkpt lat="36.6939544677734" lon="-5.01235389709473">
        <ele>1724.55688476562</ele>
        <time>2018-07-28T07:19:18Z</time>
      </trkpt>
      <trkpt lat="36.6939506530762" lon="-5.01236581802368">
        <ele>1724.47119140625</ele>
        <time>2018-07-28T07:19:19Z</time>
      </trkpt>
      <trkpt lat="36.6939506530762" lon="-5.01237678527832">
        <ele>1724.4599609375</ele>
        <time>2018-07-28T07:19:20Z</time>
      </trkpt>
      <trkpt lat="36.6939506530762" lon="-5.01238679885864">
        <ele>1724.44970703125</ele>
        <time>2018-07-28T07:19:21Z</time>
      </trkpt>
      <trkpt lat="36.6939506530762" lon="-5.01239681243896">
        <ele>1724.43957519531</ele>
        <time>2018-07-28T07:19:22Z</time>
      </trkpt>
      <trkpt lat="36.6939506530762" lon="-5.0124077796936">
        <ele>1724.42834472656</ele>
        <time>2018-07-28T07:19:23Z</time>
      </trkpt>
      <trkpt lat="36.6939468383789" lon="-5.01242017745972">
        <ele>1724.33813476562</ele>
        <time>2018-07-28T07:19:24Z</time>
      </trkpt>
      <trkpt lat="36.6939430236816" lon="-5.01243114471436">
        <ele>1724.24792480469</ele>
        <time>2018-07-28T07:19:25Z</time>
      </trkpt>
      <trkpt lat="36.6939430236816" lon="-5.01244211196899">
        <ele>1724.23547363281</ele>
        <time>2018-07-28T07:19:26Z</time>
      </trkpt>
      <trkpt lat="36.6939468383789" lon="-5.01245307922363">
        <ele>1724.30249023438</ele>
        <time>2018-07-28T07:19:27Z</time>
      </trkpt>
      <trkpt lat="36.6939468383789" lon="-5.01246309280396">
        <ele>1724.29162597656</ele>
        <time>2018-07-28T07:19:28Z</time>
      </trkpt>
      <trkpt lat="36.6939468383789" lon="-5.01247310638428">
        <ele>1724.28076171875</ele>
        <time>2018-07-28T07:19:29Z</time>
      </trkpt>
      <trkpt lat="36.6939468383789" lon="-5.0124831199646">
        <ele>1724.27001953125</ele>
        <time>2018-07-28T07:19:30Z</time>
      </trkpt>
      <trkpt lat="36.6939468383789" lon="-5.01249313354492">
        <ele>1724.25915527344</ele>
        <time>2018-07-28T07:19:31Z</time>
      </trkpt>
      <trkpt lat="36.6939468383789" lon="-5.01250314712524">
        <ele>1724.23681640625</ele>
        <time>2018-07-28T07:19:32Z</time>
      </trkpt>
      <trkpt lat="36.6939468383789" lon="-5.01251316070557">
        <ele>1724.189453125</ele>
        <time>2018-07-28T07:19:33Z</time>
      </trkpt>
      <trkpt lat="36.6939506530762" lon="-5.01252317428589">
        <ele>1724.22387695312</ele>
        <time>2018-07-28T07:19:34Z</time>
      </trkpt>
      <trkpt lat="36.6939544677734" lon="-5.01253318786621">
        <ele>1724.25793457031</ele>
        <time>2018-07-28T07:19:35Z</time>
      </trkpt>
      <trkpt lat="36.6939544677734" lon="-5.01254320144653">
        <ele>1724.21008300781</ele>
        <time>2018-07-28T07:19:36Z</time>
      </trkpt>
      <trkpt lat="36.6939582824707" lon="-5.01255321502686">
        <ele>1724.24353027344</ele>
        <time>2018-07-28T07:19:37Z</time>
      </trkpt>
      <trkpt lat="36.693962097168" lon="-5.01256418228149">
        <ele>1724.27185058594</ele>
        <time>2018-07-28T07:19:38Z</time>
      </trkpt>
      <trkpt lat="36.6939659118652" lon="-5.01257419586182">
        <ele>1724.30432128906</ele>
        <time>2018-07-28T07:19:39Z</time>
      </trkpt>
      <trkpt lat="36.6939697265625" lon="-5.01258182525635">
        <ele>1724.34802246094</ele>
        <time>2018-07-28T07:19:40Z</time>
      </trkpt>
      <trkpt lat="36.6939697265625" lon="-5.01258993148804">
        <ele>1724.30847167969</ele>
        <time>2018-07-28T07:19:41Z</time>
      </trkpt>
      <trkpt lat="36.6939697265625" lon="-5.01259803771973">
        <ele>1724.26904296875</ele>
        <time>2018-07-28T07:19:42Z</time>
      </trkpt>
      <trkpt lat="36.6939697265625" lon="-5.01260614395142">
        <ele>1724.22961425781</ele>
        <time>2018-07-28T07:19:43Z</time>
      </trkpt>
      <trkpt lat="36.6939659118652" lon="-5.01261377334595">
        <ele>1724.11267089844</ele>
        <time>2018-07-28T07:19:44Z</time>
      </trkpt>
      <trkpt lat="36.6939659118652" lon="-5.01262187957764">
        <ele>1724.07336425781</ele>
        <time>2018-07-28T07:19:45Z</time>
      </trkpt>
      <trkpt lat="36.6939659118652" lon="-5.01263093948364">
        <ele>1724.02941894531</ele>
        <time>2018-07-28T07:19:46Z</time>
      </trkpt>
      <trkpt lat="36.6939659118652" lon="-5.01264095306396">
        <ele>1723.98095703125</ele>
        <time>2018-07-28T07:19:47Z</time>
      </trkpt>
      <trkpt lat="36.6939659118652" lon="-5.01265096664429">
        <ele>1723.93249511719</ele>
        <time>2018-07-28T07:19:48Z</time>
      </trkpt>
      <trkpt lat="36.6939659118652" lon="-5.01266002655029">
        <ele>1723.88854980469</ele>
        <time>2018-07-28T07:19:49Z</time>
      </trkpt>
      <trkpt lat="36.6939659118652" lon="-5.01266717910767">
        <ele>1723.85388183594</ele>
        <time>2018-07-28T07:19:50Z</time>
      </trkpt>
      <trkpt lat="36.6939659118652" lon="-5.0126748085022">
        <ele>1723.81701660156</ele>
        <time>2018-07-28T07:19:51Z</time>
      </trkpt>
      <trkpt lat="36.6939697265625" lon="-5.0126838684082">
        <ele>1723.85144042969</ele>
        <time>2018-07-28T07:19:52Z</time>
      </trkpt>
      <trkpt lat="36.6939697265625" lon="-5.01269388198853">
        <ele>1723.802734375</ele>
        <time>2018-07-28T07:19:53Z</time>
      </trkpt>
      <trkpt lat="36.6939697265625" lon="-5.01270484924316">
        <ele>1723.74938964844</ele>
        <time>2018-07-28T07:19:54Z</time>
      </trkpt>
      <trkpt lat="36.6939735412598" lon="-5.0127158164978">
        <ele>1723.77368164062</ele>
        <time>2018-07-28T07:19:55Z</time>
      </trkpt>
      <trkpt lat="36.6939735412598" lon="-5.01272678375244">
        <ele>1723.72009277344</ele>
        <time>2018-07-28T07:19:56Z</time>
      </trkpt>
      <trkpt lat="36.693977355957" lon="-5.01273918151856">
        <ele>1723.73657226562</ele>
        <time>2018-07-28T07:19:57Z</time>
      </trkpt>
      <trkpt lat="36.693977355957" lon="-5.01274919509888">
        <ele>1723.6875</ele>
        <time>2018-07-28T07:19:58Z</time>
      </trkpt>
      <trkpt lat="36.6939811706543" lon="-5.0127592086792">
        <ele>1723.71496582031</ele>
        <time>2018-07-28T07:19:59Z</time>
      </trkpt>
      <trkpt lat="36.6939849853516" lon="-5.01276922225952">
        <ele>1723.74206542969</ele>
        <time>2018-07-28T07:20:00Z</time>
      </trkpt>
      <trkpt lat="36.6939888000488" lon="-5.01277923583984">
        <ele>1723.76879882812</ele>
        <time>2018-07-28T07:20:01Z</time>
      </trkpt>
      <trkpt lat="36.6939926147461" lon="-5.01278877258301">
        <ele>1723.79736328125</ele>
        <time>2018-07-28T07:20:02Z</time>
      </trkpt>
      <trkpt lat="36.6939926147461" lon="-5.01280117034912">
        <ele>1723.7353515625</ele>
        <time>2018-07-28T07:20:03Z</time>
      </trkpt>
      <trkpt lat="36.6939964294434" lon="-5.01281213760376">
        <ele>1723.75610351562</ele>
        <time>2018-07-28T07:20:04Z</time>
      </trkpt>
      <trkpt lat="36.6940002441406" lon="-5.0128231048584">
        <ele>1723.7763671875</ele>
        <time>2018-07-28T07:20:05Z</time>
      </trkpt>
      <trkpt lat="36.6940040588379" lon="-5.01283502578735">
        <ele>1723.79125976562</ele>
        <time>2018-07-28T07:20:06Z</time>
      </trkpt>
      <trkpt lat="36.6940078735352" lon="-5.01284599304199">
        <ele>1723.810546875</ele>
        <time>2018-07-28T07:20:07Z</time>
      </trkpt>
      <trkpt lat="36.6940078735352" lon="-5.01285696029663">
        <ele>1723.75476074219</ele>
        <time>2018-07-28T07:20:08Z</time>
      </trkpt>
      <trkpt lat="36.6940116882324" lon="-5.01286792755127">
        <ele>1723.77331542969</ele>
        <time>2018-07-28T07:20:09Z</time>
      </trkpt>
      <trkpt lat="36.6940116882324" lon="-5.01287984848022">
        <ele>1723.71240234375</ele>
        <time>2018-07-28T07:20:10Z</time>
      </trkpt>
      <trkpt lat="36.6940155029297" lon="-5.01289176940918">
        <ele>1723.72534179688</ele>
        <time>2018-07-28T07:20:11Z</time>
      </trkpt>
      <trkpt lat="36.694019317627" lon="-5.01290416717529">
        <ele>1723.73522949219</ele>
        <time>2018-07-28T07:20:12Z</time>
      </trkpt>
      <trkpt lat="36.6940231323242" lon="-5.01291513442993">
        <ele>1723.75207519531</ele>
        <time>2018-07-28T07:20:13Z</time>
      </trkpt>
      <trkpt lat="36.6940231323242" lon="-5.01292419433594">
        <ele>1723.70520019531</ele>
        <time>2018-07-28T07:20:14Z</time>
      </trkpt>
      <trkpt lat="36.6940269470215" lon="-5.01293182373047">
        <ele>1723.73864746094</ele>
        <time>2018-07-28T07:20:15Z</time>
      </trkpt>
      <trkpt lat="36.6940269470215" lon="-5.01294183731079">
        <ele>1723.68664550781</ele>
        <time>2018-07-28T07:20:16Z</time>
      </trkpt>
      <trkpt lat="36.6940307617188" lon="-5.01295280456543">
        <ele>1723.70202636719</ele>
        <time>2018-07-28T07:20:17Z</time>
      </trkpt>
      <trkpt lat="36.6940307617188" lon="-5.01296710968018">
        <ele>1723.62744140625</ele>
        <time>2018-07-28T07:20:18Z</time>
      </trkpt>
      <trkpt lat="36.6940307617188" lon="-5.01297998428345">
        <ele>1723.56030273438</ele>
        <time>2018-07-28T07:20:19Z</time>
      </trkpt>
      <trkpt lat="36.6940307617188" lon="-5.01299381256104">
        <ele>1723.48815917969</ele>
        <time>2018-07-28T07:20:20Z</time>
      </trkpt>
      <trkpt lat="36.6940307617188" lon="-5.01300621032715">
        <ele>1723.42346191406</ele>
        <time>2018-07-28T07:20:21Z</time>
      </trkpt>
      <trkpt lat="36.694034576416" lon="-5.01301908493042">
        <ele>1723.42724609375</ele>
        <time>2018-07-28T07:20:22Z</time>
      </trkpt>
      <trkpt lat="36.694034576416" lon="-5.01303195953369">
        <ele>1723.35986328125</ele>
        <time>2018-07-28T07:20:23Z</time>
      </trkpt>
      <trkpt lat="36.6940383911133" lon="-5.01304483413696">
        <ele>1723.36279296875</ele>
        <time>2018-07-28T07:20:24Z</time>
      </trkpt>
      <trkpt lat="36.6940422058106" lon="-5.01305818557739">
        <ele>1723.36267089844</ele>
        <time>2018-07-28T07:20:25Z</time>
      </trkpt>
      <trkpt lat="36.6940422058106" lon="-5.01307010650635">
        <ele>1723.29968261719</ele>
        <time>2018-07-28T07:20:26Z</time>
      </trkpt>
      <trkpt lat="36.6940422058106" lon="-5.0130820274353">
        <ele>1723.23669433594</ele>
        <time>2018-07-28T07:20:27Z</time>
      </trkpt>
      <trkpt lat="36.6940460205078" lon="-5.01309490203857">
        <ele>1723.23803710938</ele>
        <time>2018-07-28T07:20:28Z</time>
      </trkpt>
      <trkpt lat="36.6940460205078" lon="-5.01310920715332">
        <ele>1723.162109375</ele>
        <time>2018-07-28T07:20:29Z</time>
      </trkpt>
      <trkpt lat="36.6940498352051" lon="-5.01312303543091">
        <ele>1723.15747070312</ele>
        <time>2018-07-28T07:20:30Z</time>
      </trkpt>
      <trkpt lat="36.6940498352051" lon="-5.0131368637085">
        <ele>1723.08386230469</ele>
        <time>2018-07-28T07:20:31Z</time>
      </trkpt>
      <trkpt lat="36.6940498352051" lon="-5.01315116882324">
        <ele>1723.00769042969</ele>
        <time>2018-07-28T07:20:32Z</time>
      </trkpt>
      <trkpt lat="36.6940498352051" lon="-5.01316690444946">
        <ele>1722.923828125</ele>
        <time>2018-07-28T07:20:33Z</time>
      </trkpt>
      <trkpt lat="36.6940498352051" lon="-5.01318120956421">
        <ele>1722.84765625</ele>
        <time>2018-07-28T07:20:34Z</time>
      </trkpt>
      <trkpt lat="36.6940498352051" lon="-5.01319408416748">
        <ele>1722.77905273438</ele>
        <time>2018-07-28T07:20:35Z</time>
      </trkpt>
      <trkpt lat="36.6940498352051" lon="-5.01320600509644">
        <ele>1722.71557617188</ele>
        <time>2018-07-28T07:20:36Z</time>
      </trkpt>
      <trkpt lat="36.6940536499023" lon="-5.01321697235107">
        <ele>1722.72375488281</ele>
        <time>2018-07-28T07:20:37Z</time>
      </trkpt>
      <trkpt lat="36.6940536499023" lon="-5.01322793960571">
        <ele>1722.6650390625</ele>
        <time>2018-07-28T07:20:38Z</time>
      </trkpt>
      <trkpt lat="36.6940574645996" lon="-5.01323986053467">
        <ele>1722.66748046875</ele>
        <time>2018-07-28T07:20:39Z</time>
      </trkpt>
      <trkpt lat="36.6940574645996" lon="-5.01325082778931">
        <ele>1722.60852050781</ele>
        <time>2018-07-28T07:20:40Z</time>
      </trkpt>
      <trkpt lat="36.6940612792969" lon="-5.01326322555542">
        <ele>1722.60754394531</ele>
        <time>2018-07-28T07:20:41Z</time>
      </trkpt>
      <trkpt lat="36.6940650939941" lon="-5.01327514648438">
        <ele>1722.60864257812</ele>
        <time>2018-07-28T07:20:42Z</time>
      </trkpt>
      <trkpt lat="36.6940689086914" lon="-5.01328611373901">
        <ele>1722.61437988281</ele>
        <time>2018-07-28T07:20:43Z</time>
      </trkpt>
      <trkpt lat="36.6940727233887" lon="-5.01329708099365">
        <ele>1722.61962890625</ele>
        <time>2018-07-28T07:20:44Z</time>
      </trkpt>
      <trkpt lat="36.6940727233887" lon="-5.01330804824829">
        <ele>1722.55981445312</ele>
        <time>2018-07-28T07:20:45Z</time>
      </trkpt>
      <trkpt lat="36.6940765380859" lon="-5.01331996917725">
        <ele>1722.55908203125</ele>
        <time>2018-07-28T07:20:46Z</time>
      </trkpt>
      <trkpt lat="36.6940765380859" lon="-5.0133318901062">
        <ele>1722.49377441406</ele>
        <time>2018-07-28T07:20:47Z</time>
      </trkpt>
      <trkpt lat="36.6940765380859" lon="-5.01334381103516">
        <ele>1722.54296875</ele>
        <time>2018-07-28T07:20:48Z</time>
      </trkpt>
      <trkpt lat="36.6940765380859" lon="-5.0133547782898">
        <ele>1722.60266113281</ele>
        <time>2018-07-28T07:20:49Z</time>
      </trkpt>
      <trkpt lat="36.6940765380859" lon="-5.01336717605591">
        <ele>1722.67028808594</ele>
        <time>2018-07-28T07:20:50Z</time>
      </trkpt>
      <trkpt lat="36.6940765380859" lon="-5.01337909698486">
        <ele>1722.73522949219</ele>
        <time>2018-07-28T07:20:51Z</time>
      </trkpt>
      <trkpt lat="36.6940727233887" lon="-5.01339101791382">
        <ele>1722.73767089844</ele>
        <time>2018-07-28T07:20:52Z</time>
      </trkpt>
      <trkpt lat="36.6940727233887" lon="-5.01340389251709">
        <ele>1722.80810546875</ele>
        <time>2018-07-28T07:20:53Z</time>
      </trkpt>
      <trkpt lat="36.6940727233887" lon="-5.01341676712036">
        <ele>1722.87866210938</ele>
        <time>2018-07-28T07:20:54Z</time>
      </trkpt>
      <trkpt lat="36.6940689086914" lon="-5.01342821121216">
        <ele>1722.8798828125</ele>
        <time>2018-07-28T07:20:55Z</time>
      </trkpt>
      <trkpt lat="36.6940689086914" lon="-5.01343822479248">
        <ele>1722.93493652344</ele>
        <time>2018-07-28T07:20:56Z</time>
      </trkpt>
      <trkpt lat="36.6940650939941" lon="-5.01344680786133">
        <ele>1722.92126464844</ele>
        <time>2018-07-28T07:20:57Z</time>
      </trkpt>
      <trkpt lat="36.6940612792969" lon="-5.01345682144165">
        <ele>1722.91589355469</ele>
        <time>2018-07-28T07:20:58Z</time>
      </trkpt>
      <trkpt lat="36.6940612792969" lon="-5.01346683502197">
        <ele>1722.97155761719</ele>
        <time>2018-07-28T07:20:59Z</time>
      </trkpt>
      <trkpt lat="36.6940574645996" lon="-5.0134768486023">
        <ele>1722.96716308594</ele>
        <time>2018-07-28T07:21:00Z</time>
      </trkpt>
      <trkpt lat="36.6940536499023" lon="-5.0134859085083">
        <ele>1722.95788574219</ele>
        <time>2018-07-28T07:21:01Z</time>
      </trkpt>
      <trkpt lat="36.6940498352051" lon="-5.01349401473999">
        <ele>1722.94372558594</ele>
        <time>2018-07-28T07:21:02Z</time>
      </trkpt>
      <trkpt lat="36.6940460205078" lon="-5.01350116729736">
        <ele>1722.92456054688</ele>
        <time>2018-07-28T07:21:03Z</time>
      </trkpt>
      <trkpt lat="36.6940422058106" lon="-5.01350784301758">
        <ele>1722.90307617188</ele>
        <time>2018-07-28T07:21:04Z</time>
      </trkpt>
      <trkpt lat="36.6940383911133" lon="-5.01351499557495">
        <ele>1722.884765625</ele>
        <time>2018-07-28T07:21:05Z</time>
      </trkpt>
      <trkpt lat="36.6940383911133" lon="-5.01352405548096">
        <ele>1722.93664550781</ele>
        <time>2018-07-28T07:21:06Z</time>
      </trkpt>
      <trkpt lat="36.694034576416" lon="-5.01353311538696">
        <ele>1722.92980957031</ele>
        <time>2018-07-28T07:21:07Z</time>
      </trkpt>
      <trkpt lat="36.694034576416" lon="-5.01354217529297">
        <ele>1722.98193359375</ele>
        <time>2018-07-28T07:21:08Z</time>
      </trkpt>
      <trkpt lat="36.6940307617188" lon="-5.01355123519897">
        <ele>1722.97595214844</ele>
        <time>2018-07-28T07:21:09Z</time>
      </trkpt>
      <trkpt lat="36.6940269470215" lon="-5.01356220245361">
        <ele>1722.98156738281</ele>
        <time>2018-07-28T07:21:10Z</time>
      </trkpt>
      <trkpt lat="36.6940269470215" lon="-5.01357221603394">
        <ele>1723.03967285156</ele>
        <time>2018-07-28T07:21:11Z</time>
      </trkpt>
      <trkpt lat="36.6940307617188" lon="-5.01358318328857">
        <ele>1723.16052246094</ele>
        <time>2018-07-28T07:21:12Z</time>
      </trkpt>
      <trkpt lat="36.6940307617188" lon="-5.01359510421753">
        <ele>1723.2294921875</ele>
        <time>2018-07-28T07:21:13Z</time>
      </trkpt>
      <trkpt lat="36.6940307617188" lon="-5.01360511779785">
        <ele>1723.28735351562</ele>
        <time>2018-07-28T07:21:14Z</time>
      </trkpt>
      <trkpt lat="36.694034576416" lon="-5.01361513137817">
        <ele>1723.40148925781</ele>
        <time>2018-07-28T07:21:15Z</time>
      </trkpt>
      <trkpt lat="36.694034576416" lon="-5.0136251449585">
        <ele>1723.45910644531</ele>
        <time>2018-07-28T07:21:16Z</time>
      </trkpt>
      <trkpt lat="36.6940383911133" lon="-5.01363611221314">
        <ele>1723.57800292969</ele>
        <time>2018-07-28T07:21:17Z</time>
      </trkpt>
      <trkpt lat="36.6940422058106" lon="-5.01364612579346">
        <ele>1723.69079589844</ele>
        <time>2018-07-28T07:21:18Z</time>
      </trkpt>
      <trkpt lat="36.6940460205078" lon="-5.01365804672241">
        <ele>1723.81384277344</ele>
        <time>2018-07-28T07:21:19Z</time>
      </trkpt>
      <trkpt lat="36.6940498352051" lon="-5.01366806030273">
        <ele>1723.92553710938</ele>
        <time>2018-07-28T07:21:20Z</time>
      </trkpt>
      <trkpt lat="36.6940536499023" lon="-5.01367902755737">
        <ele>1724.0419921875</ele>
        <time>2018-07-28T07:21:21Z</time>
      </trkpt>
      <trkpt lat="36.6940536499023" lon="-5.0136890411377">
        <ele>1724.09814453125</ele>
        <time>2018-07-28T07:21:22Z</time>
      </trkpt>
      <trkpt lat="36.6940574645996" lon="-5.01370000839233">
        <ele>1724.21374511719</ele>
        <time>2018-07-28T07:21:23Z</time>
      </trkpt>
      <trkpt lat="36.6940574645996" lon="-5.01371002197266">
        <ele>1724.26965332031</ele>
        <time>2018-07-28T07:21:24Z</time>
      </trkpt>
      <trkpt lat="36.6940612792969" lon="-5.0137209892273">
        <ele>1724.38439941406</ele>
        <time>2018-07-28T07:21:25Z</time>
      </trkpt>
      <trkpt lat="36.6940612792969" lon="-5.0137300491333">
        <ele>1724.43469238281</ele>
        <time>2018-07-28T07:21:26Z</time>
      </trkpt>
      <trkpt lat="36.6940650939941" lon="-5.01374006271362">
        <ele>1724.54333496094</ele>
        <time>2018-07-28T07:21:27Z</time>
      </trkpt>
      <trkpt lat="36.6940689086914" lon="-5.01374816894531">
        <ele>1724.64086914062</ele>
        <time>2018-07-28T07:21:28Z</time>
      </trkpt>
      <trkpt lat="36.6940727233887" lon="-5.01375818252564">
        <ele>1724.74841308594</ele>
        <time>2018-07-28T07:21:29Z</time>
      </trkpt>
      <trkpt lat="36.6940765380859" lon="-5.01376819610596">
        <ele>1724.85534667969</ele>
        <time>2018-07-28T07:21:30Z</time>
      </trkpt>
      <trkpt lat="36.6940841674805" lon="-5.01377820968628">
        <ele>1725.013671875</ele>
        <time>2018-07-28T07:21:31Z</time>
      </trkpt>
      <trkpt lat="36.6940879821777" lon="-5.01378583908081">
        <ele>1725.1064453125</ele>
        <time>2018-07-28T07:21:32Z</time>
      </trkpt>
      <trkpt lat="36.694091796875" lon="-5.01379489898682">
        <ele>1725.20654296875</ele>
        <time>2018-07-28T07:21:33Z</time>
      </trkpt>
      <trkpt lat="36.6940994262695" lon="-5.01380491256714">
        <ele>1725.3623046875</ele>
        <time>2018-07-28T07:21:34Z</time>
      </trkpt>
      <trkpt lat="36.6941032409668" lon="-5.01381301879883">
        <ele>1725.4560546875</ele>
        <time>2018-07-28T07:21:35Z</time>
      </trkpt>
      <trkpt lat="36.6941146850586" lon="-5.01381778717041">
        <ele>1725.63342285156</ele>
        <time>2018-07-28T07:21:36Z</time>
      </trkpt>
      <trkpt lat="36.6941223144531" lon="-5.01382112503052">
        <ele>1725.75207519531</ele>
        <time>2018-07-28T07:21:37Z</time>
      </trkpt>
      <trkpt lat="36.6941299438477" lon="-5.01382303237915">
        <ele>1725.86303710938</ele>
        <time>2018-07-28T07:21:38Z</time>
      </trkpt>
      <trkpt lat="36.6941337585449" lon="-5.01382493972778">
        <ele>1725.92333984375</ele>
        <time>2018-07-28T07:21:39Z</time>
      </trkpt>
      <trkpt lat="36.6941413879394" lon="-5.01382780075073">
        <ele>1726.03881835938</ele>
        <time>2018-07-28T07:21:40Z</time>
      </trkpt>
      <trkpt lat="36.6941413879394" lon="-5.01383018493652">
        <ele>1726.05065917969</ele>
        <time>2018-07-28T07:21:41Z</time>
      </trkpt>
      <trkpt lat="36.694149017334" lon="-5.01383018493652">
        <ele>1726.15148925781</ele>
        <time>2018-07-28T07:21:42Z</time>
      </trkpt>
      <trkpt lat="36.6941528320312" lon="-5.01382923126221">
        <ele>1726.197265625</ele>
        <time>2018-07-28T07:21:43Z</time>
      </trkpt>
      <trkpt lat="36.6941566467285" lon="-5.0138258934021">
        <ele>1726.2314453125</ele>
        <time>2018-07-28T07:21:44Z</time>
      </trkpt>
      <trkpt lat="36.6941604614258" lon="-5.01382493972778">
        <ele>1726.27746582031</ele>
        <time>2018-07-28T07:21:45Z</time>
      </trkpt>
      <trkpt lat="36.694164276123" lon="-5.01382493972778">
        <ele>1726.32800292969</ele>
        <time>2018-07-28T07:21:46Z</time>
      </trkpt>
      <trkpt lat="36.6941719055176" lon="-5.01382493972778">
        <ele>1726.38061523438</ele>
        <time>2018-07-28T07:21:47Z</time>
      </trkpt>
      <trkpt lat="36.6941757202148" lon="-5.01382398605347">
        <ele>1726.39147949219</ele>
        <time>2018-07-28T07:21:48Z</time>
      </trkpt>
      <trkpt lat="36.6941833496094" lon="-5.01382112503052">
        <ele>1726.40930175781</ele>
        <time>2018-07-28T07:21:49Z</time>
      </trkpt>
      <trkpt lat="36.6941871643066" lon="-5.01381778717041">
        <ele>1726.41003417969</ele>
        <time>2018-07-28T07:21:50Z</time>
      </trkpt>
      <trkpt lat="36.6941909790039" lon="-5.01381587982178">
        <ele>1726.41748046875</ele>
        <time>2018-07-28T07:21:51Z</time>
      </trkpt>
      <trkpt lat="36.6941947937012" lon="-5.01381683349609">
        <ele>1726.4375</ele>
        <time>2018-07-28T07:21:52Z</time>
      </trkpt>
      <trkpt lat="36.6941986083984" lon="-5.01381921768188">
        <ele>1726.46337890625</ele>
        <time>2018-07-28T07:21:53Z</time>
      </trkpt>
      <trkpt lat="36.6942024230957" lon="-5.01382112503052">
        <ele>1726.48681640625</ele>
        <time>2018-07-28T07:21:54Z</time>
      </trkpt>
      <trkpt lat="36.694206237793" lon="-5.01382398605347">
        <ele>1726.51403808594</ele>
        <time>2018-07-28T07:21:55Z</time>
      </trkpt>
      <trkpt lat="36.6942100524902" lon="-5.0138258934021">
        <ele>1726.53698730469</ele>
        <time>2018-07-28T07:21:56Z</time>
      </trkpt>
      <trkpt lat="36.6942138671875" lon="-5.01382780075073">
        <ele>1726.5595703125</ele>
        <time>2018-07-28T07:21:57Z</time>
      </trkpt>
      <trkpt lat="36.6942176818848" lon="-5.01383018493652">
        <ele>1726.58374023438</ele>
        <time>2018-07-28T07:21:58Z</time>
      </trkpt>
      <trkpt lat="36.694221496582" lon="-5.01383304595947">
        <ele>1726.60949707031</ele>
        <time>2018-07-28T07:21:59Z</time>
      </trkpt>
      <trkpt lat="36.6942253112793" lon="-5.01383686065674">
        <ele>1726.63830566406</ele>
        <time>2018-07-28T07:22:00Z</time>
      </trkpt>
      <trkpt lat="36.6942329406738" lon="-5.01384210586548">
        <ele>1726.68566894531</ele>
        <time>2018-07-28T07:22:01Z</time>
      </trkpt>
      <trkpt lat="36.6942405700684" lon="-5.01384496688843">
        <ele>1726.72351074219</ele>
        <time>2018-07-28T07:22:02Z</time>
      </trkpt>
      <trkpt lat="36.6942481994629" lon="-5.01384687423706">
        <ele>1726.75744628906</ele>
        <time>2018-07-28T07:22:03Z</time>
      </trkpt>
      <trkpt lat="36.6942596435547" lon="-5.01384687423706">
        <ele>1726.79846191406</ele>
        <time>2018-07-28T07:22:04Z</time>
      </trkpt>
      <trkpt lat="36.6942710876465" lon="-5.01384592056274">
        <ele>1726.83679199219</ele>
        <time>2018-07-28T07:22:05Z</time>
      </trkpt>
      <trkpt lat="36.6942825317383" lon="-5.01384401321411">
        <ele>1726.873046875</ele>
        <time>2018-07-28T07:22:06Z</time>
      </trkpt>
      <trkpt lat="36.6942939758301" lon="-5.01384210586548">
        <ele>1726.91003417969</ele>
        <time>2018-07-28T07:22:07Z</time>
      </trkpt>
      <trkpt lat="36.6943054199219" lon="-5.01384019851685">
        <ele>1726.94787597656</ele>
        <time>2018-07-28T07:22:08Z</time>
      </trkpt>
      <trkpt lat="36.6943130493164" lon="-5.01383686065674">
        <ele>1726.96936035156</ele>
        <time>2018-07-28T07:22:09Z</time>
      </trkpt>
      <trkpt lat="36.6943244934082" lon="-5.01383495330811">
        <ele>1727.00903320312</ele>
        <time>2018-07-28T07:22:10Z</time>
      </trkpt>
      <trkpt lat="36.6943283081055" lon="-5.01383399963379">
        <ele>1727.02185058594</ele>
        <time>2018-07-28T07:22:11Z</time>
      </trkpt>
      <trkpt lat="36.6943359375" lon="-5.01383304595947">
        <ele>1727.04956054688</ele>
        <time>2018-07-28T07:22:12Z</time>
      </trkpt>
      <trkpt lat="36.6943435668945" lon="-5.01383113861084">
        <ele>1727.07604980469</ele>
        <time>2018-07-28T07:22:13Z</time>
      </trkpt>
      <trkpt lat="36.6943473815918" lon="-5.01382684707642">
        <ele>1727.08471679688</ele>
        <time>2018-07-28T07:22:14Z</time>
      </trkpt>
      <trkpt lat="36.6943511962891" lon="-5.01382303237915">
        <ele>1727.0947265625</ele>
        <time>2018-07-28T07:22:15Z</time>
      </trkpt>
      <trkpt lat="36.6943550109863" lon="-5.01381778717041">
        <ele>1727.10339355469</ele>
        <time>2018-07-28T07:22:16Z</time>
      </trkpt>
      <trkpt lat="36.6943588256836" lon="-5.01381397247314">
        <ele>1727.11462402344</ele>
        <time>2018-07-28T07:22:17Z</time>
      </trkpt>
      <trkpt lat="36.6943664550781" lon="-5.0138111114502">
        <ele>1727.14367675781</ele>
        <time>2018-07-28T07:22:18Z</time>
      </trkpt>
      <trkpt lat="36.6943778991699" lon="-5.01380681991577">
        <ele>1727.18872070312</ele>
        <time>2018-07-28T07:22:19Z</time>
      </trkpt>
      <trkpt lat="36.6943855285644" lon="-5.01380491256714">
        <ele>1727.22045898438</ele>
        <time>2018-07-28T07:22:20Z</time>
      </trkpt>
      <trkpt lat="36.694393157959" lon="-5.01380395889282">
        <ele>1727.25329589844</ele>
        <time>2018-07-28T07:22:21Z</time>
      </trkpt>
      <trkpt lat="36.6944046020508" lon="-5.01380586624146">
        <ele>1727.30419921875</ele>
        <time>2018-07-28T07:22:22Z</time>
      </trkpt>
      <trkpt lat="36.6944122314453" lon="-5.01380777359009">
        <ele>1727.33776855469</ele>
        <time>2018-07-28T07:22:23Z</time>
      </trkpt>
      <trkpt lat="36.6944198608398" lon="-5.0138111114502">
        <ele>1727.37097167969</ele>
        <time>2018-07-28T07:22:24Z</time>
      </trkpt>
      <trkpt lat="36.6944274902344" lon="-5.01381492614746">
        <ele>1727.40307617188</ele>
        <time>2018-07-28T07:22:25Z</time>
      </trkpt>
      <trkpt lat="36.6944313049316" lon="-5.0138201713562">
        <ele>1727.41821289062</ele>
        <time>2018-07-28T07:22:26Z</time>
      </trkpt>
      <trkpt lat="36.6944389343262" lon="-5.0138258934021">
        <ele>1727.44775390625</ele>
        <time>2018-07-28T07:22:27Z</time>
      </trkpt>
      <trkpt lat="36.6944427490234" lon="-5.01383209228516">
        <ele>1727.46057128906</ele>
        <time>2018-07-28T07:22:28Z</time>
      </trkpt>
      <trkpt lat="36.6944465637207" lon="-5.01383590698242">
        <ele>1727.4736328125</ele>
        <time>2018-07-28T07:22:29Z</time>
      </trkpt>
      <trkpt lat="36.694450378418" lon="-5.01383876800537">
        <ele>1727.48669433594</ele>
        <time>2018-07-28T07:22:30Z</time>
      </trkpt>
      <trkpt lat="36.6944541931152" lon="-5.01383876800537">
        <ele>1727.5009765625</ele>
        <time>2018-07-28T07:22:31Z</time>
      </trkpt>
      <trkpt lat="36.6944541931152" lon="-5.01383876800537">
        <ele>1727.5009765625</ele>
        <time>2018-07-28T07:22:32Z</time>
      </trkpt>
      <trkpt lat="36.6944541931152" lon="-5.01383876800537">
        <ele>1727.5009765625</ele>
        <time>2018-07-28T07:22:33Z</time>
      </trkpt>
      <trkpt lat="36.6944541931152" lon="-5.01384019851685">
        <ele>1727.50012207031</ele>
        <time>2018-07-28T07:22:34Z</time>
      </trkpt>
      <trkpt lat="36.6944541931152" lon="-5.01384019851685">
        <ele>1727.50012207031</ele>
        <time>2018-07-28T07:22:35Z</time>
      </trkpt>
      <trkpt lat="36.6944580078125" lon="-5.01384210586548">
        <ele>1727.51306152344</ele>
        <time>2018-07-28T07:22:36Z</time>
      </trkpt>
      <trkpt lat="36.6944580078125" lon="-5.01384210586548">
        <ele>1727.51306152344</ele>
        <time>2018-07-28T07:22:37Z</time>
      </trkpt>
      <trkpt lat="36.6944580078125" lon="-5.01384115219116">
        <ele>1727.513671875</ele>
        <time>2018-07-28T07:22:38Z</time>
      </trkpt>
      <trkpt lat="36.6944580078125" lon="-5.01384019851685">
        <ele>1727.51428222656</ele>
        <time>2018-07-28T07:22:39Z</time>
      </trkpt>
      <trkpt lat="36.6944580078125" lon="-5.01383876800537">
        <ele>1727.51513671875</ele>
        <time>2018-07-28T07:22:40Z</time>
      </trkpt>
      <trkpt lat="36.6944580078125" lon="-5.01383781433106">
        <ele>1727.51586914062</ele>
        <time>2018-07-28T07:22:41Z</time>
      </trkpt>
      <trkpt lat="36.6944580078125" lon="-5.01383686065674">
        <ele>1727.51647949219</ele>
        <time>2018-07-28T07:22:42Z</time>
      </trkpt>
      <trkpt lat="36.6944580078125" lon="-5.01383590698242">
        <ele>1727.51708984375</ele>
        <time>2018-07-28T07:22:43Z</time>
      </trkpt>
      <trkpt lat="36.6944618225098" lon="-5.01383590698242">
        <ele>1727.53149414062</ele>
        <time>2018-07-28T07:22:44Z</time>
      </trkpt>
      <trkpt lat="36.6944618225098" lon="-5.01383495330811">
        <ele>1727.5322265625</ele>
        <time>2018-07-28T07:22:45Z</time>
      </trkpt>
      <trkpt lat="36.6944618225098" lon="-5.01383495330811">
        <ele>1727.5322265625</ele>
        <time>2018-07-28T07:22:46Z</time>
      </trkpt>
      <trkpt lat="36.6944618225098" lon="-5.01383399963379">
        <ele>1727.53295898438</ele>
        <time>2018-07-28T07:22:47Z</time>
      </trkpt>
      <trkpt lat="36.6944618225098" lon="-5.01383399963379">
        <ele>1727.53295898438</ele>
        <time>2018-07-28T07:22:48Z</time>
      </trkpt>
      <trkpt lat="36.6944618225098" lon="-5.01383590698242">
        <ele>1727.53149414062</ele>
        <time>2018-07-28T07:22:49Z</time>
      </trkpt>
      <trkpt lat="36.6944618225098" lon="-5.01383781433106">
        <ele>1727.53015136719</ele>
        <time>2018-07-28T07:22:50Z</time>
      </trkpt>
      <trkpt lat="36.6944618225098" lon="-5.01384019851685">
        <ele>1727.52844238281</ele>
        <time>2018-07-28T07:22:51Z</time>
      </trkpt>
      <trkpt lat="36.6944618225098" lon="-5.01384115219116">
        <ele>1727.52770996094</ele>
        <time>2018-07-28T07:22:52Z</time>
      </trkpt>
      <trkpt lat="36.6944618225098" lon="-5.01384115219116">
        <ele>1727.52770996094</ele>
        <time>2018-07-28T07:22:53Z</time>
      </trkpt>
      <trkpt lat="36.6944618225098" lon="-5.01384115219116">
        <ele>1727.52770996094</ele>
        <time>2018-07-28T07:22:54Z</time>
      </trkpt>
      <trkpt lat="36.6944618225098" lon="-5.01384115219116">
        <ele>1727.52770996094</ele>
        <time>2018-07-28T07:22:55Z</time>
      </trkpt>
      <trkpt lat="36.6944618225098" lon="-5.01384115219116">
        <ele>1727.52770996094</ele>
        <time>2018-07-28T07:22:56Z</time>
      </trkpt>
      <trkpt lat="36.6944580078125" lon="-5.01384210586548">
        <ele>1727.51306152344</ele>
        <time>2018-07-28T07:22:57Z</time>
      </trkpt>
      <trkpt lat="36.6944580078125" lon="-5.0138430595398">
        <ele>1727.51232910156</ele>
        <time>2018-07-28T07:22:58Z</time>
      </trkpt>
      <trkpt lat="36.6944580078125" lon="-5.0138430595398">
        <ele>1727.51232910156</ele>
        <time>2018-07-28T07:22:59Z</time>
      </trkpt>
      <trkpt lat="36.6944580078125" lon="-5.01384210586548">
        <ele>1727.51306152344</ele>
        <time>2018-07-28T07:23:00Z</time>
      </trkpt>
      <trkpt lat="36.6944541931152" lon="-5.01384115219116">
        <ele>1727.49951171875</ele>
        <time>2018-07-28T07:23:01Z</time>
      </trkpt>
      <trkpt lat="36.6944541931152" lon="-5.01384115219116">
        <ele>1727.49951171875</ele>
        <time>2018-07-28T07:23:02Z</time>
      </trkpt>
      <trkpt lat="36.6944541931152" lon="-5.01384210586548">
        <ele>1727.4990234375</ele>
        <time>2018-07-28T07:23:03Z</time>
      </trkpt>
      <trkpt lat="36.6944541931152" lon="-5.01384210586548">
        <ele>1727.4990234375</ele>
        <time>2018-07-28T07:23:04Z</time>
      </trkpt>
      <trkpt lat="36.6944541931152" lon="-5.0138430595398">
        <ele>1727.49841308594</ele>
        <time>2018-07-28T07:23:05Z</time>
      </trkpt>
      <trkpt lat="36.6944541931152" lon="-5.01384401321411">
        <ele>1727.49792480469</ele>
        <time>2018-07-28T07:23:06Z</time>
      </trkpt>
      <trkpt lat="36.6944541931152" lon="-5.01384401321411">
        <ele>1727.49792480469</ele>
        <time>2018-07-28T07:23:07Z</time>
      </trkpt>
      <trkpt lat="36.6944541931152" lon="-5.01384401321411">
        <ele>1727.49792480469</ele>
        <time>2018-07-28T07:23:08Z</time>
      </trkpt>
      <trkpt lat="36.6944541931152" lon="-5.01384401321411">
        <ele>1727.49792480469</ele>
        <time>2018-07-28T07:23:09Z</time>
      </trkpt>
      <trkpt lat="36.6944541931152" lon="-5.01384496688843">
        <ele>1727.49731445312</ele>
        <time>2018-07-28T07:23:10Z</time>
      </trkpt>
      <trkpt lat="36.6944541931152" lon="-5.01384496688843">
        <ele>1727.49731445312</ele>
        <time>2018-07-28T07:23:11Z</time>
      </trkpt>
      <trkpt lat="36.694450378418" lon="-5.01384401321411">
        <ele>1727.48400878906</ele>
        <time>2018-07-28T07:23:12Z</time>
      </trkpt>
      <trkpt lat="36.694450378418" lon="-5.01384210586548">
        <ele>1727.48498535156</ele>
        <time>2018-07-28T07:23:13Z</time>
      </trkpt>
      <trkpt lat="36.694450378418" lon="-5.01384115219116">
        <ele>1727.48547363281</ele>
        <time>2018-07-28T07:23:14Z</time>
      </trkpt>
      <trkpt lat="36.694450378418" lon="-5.01384210586548">
        <ele>1727.48498535156</ele>
        <time>2018-07-28T07:23:15Z</time>
      </trkpt>
      <trkpt lat="36.694450378418" lon="-5.0138430595398">
        <ele>1727.48449707031</ele>
        <time>2018-07-28T07:23:16Z</time>
      </trkpt>
      <trkpt lat="36.6944541931152" lon="-5.0138430595398">
        <ele>1727.49841308594</ele>
        <time>2018-07-28T07:23:17Z</time>
      </trkpt>
      <trkpt lat="36.6944541931152" lon="-5.0138430595398">
        <ele>1727.49841308594</ele>
        <time>2018-07-28T07:23:18Z</time>
      </trkpt>
      <trkpt lat="36.6944541931152" lon="-5.0138430595398">
        <ele>1727.49841308594</ele>
        <time>2018-07-28T07:23:19Z</time>
      </trkpt>
      <trkpt lat="36.6944541931152" lon="-5.01384210586548">
        <ele>1727.4990234375</ele>
        <time>2018-07-28T07:23:20Z</time>
      </trkpt>
      <trkpt lat="36.6944541931152" lon="-5.01384019851685">
        <ele>1727.50012207031</ele>
        <time>2018-07-28T07:23:21Z</time>
      </trkpt>
      <trkpt lat="36.694450378418" lon="-5.01383781433106">
        <ele>1727.48718261719</ele>
        <time>2018-07-28T07:23:22Z</time>
      </trkpt>
      <trkpt lat="36.694450378418" lon="-5.01383590698242">
        <ele>1727.48815917969</ele>
        <time>2018-07-28T07:23:23Z</time>
      </trkpt>
      <trkpt lat="36.694450378418" lon="-5.01383399963379">
        <ele>1727.48913574219</ele>
        <time>2018-07-28T07:23:24Z</time>
      </trkpt>
      <trkpt lat="36.694450378418" lon="-5.01383304595947">
        <ele>1727.48962402344</ele>
        <time>2018-07-28T07:23:25Z</time>
      </trkpt>
      <trkpt lat="36.6944465637207" lon="-5.01383209228516">
        <ele>1727.47534179688</ele>
        <time>2018-07-28T07:23:26Z</time>
      </trkpt>
      <trkpt lat="36.6944465637207" lon="-5.01383113861084">
        <ele>1727.47583007812</ele>
        <time>2018-07-28T07:23:27Z</time>
      </trkpt>
      <trkpt lat="36.6944465637207" lon="-5.01383113861084">
        <ele>1727.47583007812</ele>
        <time>2018-07-28T07:23:28Z</time>
      </trkpt>
      <trkpt lat="36.6944465637207" lon="-5.01383018493652">
        <ele>1727.47619628906</ele>
        <time>2018-07-28T07:23:29Z</time>
      </trkpt>
      <trkpt lat="36.6944465637207" lon="-5.01383018493652">
        <ele>1727.47619628906</ele>
        <time>2018-07-28T07:23:30Z</time>
      </trkpt>
      <trkpt lat="36.6944465637207" lon="-5.01383018493652">
        <ele>1727.47619628906</ele>
        <time>2018-07-28T07:23:31Z</time>
      </trkpt>
      <trkpt lat="36.6944465637207" lon="-5.01383018493652">
        <ele>1727.47619628906</ele>
        <time>2018-07-28T07:23:32Z</time>
      </trkpt>
      <trkpt lat="36.6944465637207" lon="-5.01383018493652">
        <ele>1727.47619628906</ele>
        <time>2018-07-28T07:23:33Z</time>
      </trkpt>
      <trkpt lat="36.6944465637207" lon="-5.01383018493652">
        <ele>1727.47619628906</ele>
        <time>2018-07-28T07:23:34Z</time>
      </trkpt>
      <trkpt lat="36.6944465637207" lon="-5.01383113861084">
        <ele>1727.47583007812</ele>
        <time>2018-07-28T07:23:35Z</time>
      </trkpt>
      <trkpt lat="36.6944465637207" lon="-5.01383113861084">
        <ele>1727.47583007812</ele>
        <time>2018-07-28T07:23:36Z</time>
      </trkpt>
      <trkpt lat="36.6944465637207" lon="-5.01383113861084">
        <ele>1727.47583007812</ele>
        <time>2018-07-28T07:23:37Z</time>
      </trkpt>
      <trkpt lat="36.6944465637207" lon="-5.01383209228516">
        <ele>1727.47534179688</ele>
        <time>2018-07-28T07:23:38Z</time>
      </trkpt>
      <trkpt lat="36.6944465637207" lon="-5.01383113861084">
        <ele>1727.47583007812</ele>
        <time>2018-07-28T07:23:39Z</time>
      </trkpt>
      <trkpt lat="36.6944465637207" lon="-5.01383113861084">
        <ele>1727.47583007812</ele>
        <time>2018-07-28T07:23:40Z</time>
      </trkpt>
      <trkpt lat="36.6944465637207" lon="-5.01383113861084">
        <ele>1727.47583007812</ele>
        <time>2018-07-28T07:23:41Z</time>
      </trkpt>
      <trkpt lat="36.6944465637207" lon="-5.01383113861084">
        <ele>1727.47583007812</ele>
        <time>2018-07-28T07:23:42Z</time>
      </trkpt>
      <trkpt lat="36.6944465637207" lon="-5.01383209228516">
        <ele>1727.47534179688</ele>
        <time>2018-07-28T07:23:43Z</time>
      </trkpt>
      <trkpt lat="36.6944465637207" lon="-5.01383209228516">
        <ele>1727.47534179688</ele>
        <time>2018-07-28T07:23:44Z</time>
      </trkpt>
      <trkpt lat="36.6944465637207" lon="-5.01383304595947">
        <ele>1727.47497558594</ele>
        <time>2018-07-28T07:23:45Z</time>
      </trkpt>
      <trkpt lat="36.6944465637207" lon="-5.01383304595947">
        <ele>1727.47497558594</ele>
        <time>2018-07-28T07:23:46Z</time>
      </trkpt>
      <trkpt lat="36.6944465637207" lon="-5.01383399963379">
        <ele>1727.47448730469</ele>
        <time>2018-07-28T07:23:47Z</time>
      </trkpt>
      <trkpt lat="36.694450378418" lon="-5.01383590698242">
        <ele>1727.48815917969</ele>
        <time>2018-07-28T07:23:48Z</time>
      </trkpt>
      <trkpt lat="36.6944541931152" lon="-5.01383781433106">
        <ele>1727.50146484375</ele>
        <time>2018-07-28T07:23:49Z</time>
      </trkpt>
      <trkpt lat="36.6944618225098" lon="-5.01384210586548">
        <ele>1727.52697753906</ele>
        <time>2018-07-28T07:23:50Z</time>
      </trkpt>
      <trkpt lat="36.6944694519043" lon="-5.01384592056274">
        <ele>1727.5517578125</ele>
        <time>2018-07-28T07:23:51Z</time>
      </trkpt>
      <trkpt lat="36.6944732666016" lon="-5.01385116577148">
        <ele>1727.560546875</ele>
        <time>2018-07-28T07:23:52Z</time>
      </trkpt>
      <trkpt lat="36.6944847106934" lon="-5.01385593414307">
        <ele>1727.59521484375</ele>
        <time>2018-07-28T07:23:53Z</time>
      </trkpt>
      <trkpt lat="36.6944923400879" lon="-5.01386117935181">
        <ele>1727.61450195312</ele>
        <time>2018-07-28T07:23:54Z</time>
      </trkpt>
      <trkpt lat="36.6945037841797" lon="-5.01386404037476">
        <ele>1727.64819335938</ele>
        <time>2018-07-28T07:23:55Z</time>
      </trkpt>
      <trkpt lat="36.6945114135742" lon="-5.01386594772339">
        <ele>1727.669921875</ele>
        <time>2018-07-28T07:23:56Z</time>
      </trkpt>
      <trkpt lat="36.6945190429688" lon="-5.01386785507202">
        <ele>1727.69116210938</ele>
        <time>2018-07-28T07:23:57Z</time>
      </trkpt>
      <trkpt lat="36.6945266723633" lon="-5.01387214660644">
        <ele>1727.70715332031</ele>
        <time>2018-07-28T07:23:58Z</time>
      </trkpt>
      <trkpt lat="36.6945343017578" lon="-5.01387691497803">
        <ele>1727.72094726562</ele>
        <time>2018-07-28T07:23:59Z</time>
      </trkpt>
      <trkpt lat="36.6945457458496" lon="-5.01388311386108">
        <ele>1727.74133300781</ele>
        <time>2018-07-28T07:24:00Z</time>
      </trkpt>
      <trkpt lat="36.6945533752441" lon="-5.01388883590698">
        <ele>1727.74963378906</ele>
        <time>2018-07-28T07:24:01Z</time>
      </trkpt>
      <trkpt lat="36.6945610046387" lon="-5.01389408111572">
        <ele>1727.75744628906</ele>
        <time>2018-07-28T07:24:02Z</time>
      </trkpt>
      <trkpt lat="36.6945686340332" lon="-5.0138988494873">
        <ele>1727.76501464844</ele>
        <time>2018-07-28T07:24:03Z</time>
      </trkpt>
      <trkpt lat="36.694580078125" lon="-5.01390314102173">
        <ele>1727.78234863281</ele>
        <time>2018-07-28T07:24:04Z</time>
      </trkpt>
      <trkpt lat="36.6945877075195" lon="-5.01390790939331">
        <ele>1727.78698730469</ele>
        <time>2018-07-28T07:24:05Z</time>
      </trkpt>
      <trkpt lat="36.6945953369141" lon="-5.01391506195068">
        <ele>1727.78259277344</ele>
        <time>2018-07-28T07:24:06Z</time>
      </trkpt>
      <trkpt lat="36.6946067810059" lon="-5.01392221450806">
        <ele>1727.78442382812</ele>
        <time>2018-07-28T07:24:07Z</time>
      </trkpt>
      <trkpt lat="36.6946144104004" lon="-5.01392793655396">
        <ele>1727.78051757812</ele>
        <time>2018-07-28T07:24:08Z</time>
      </trkpt>
      <trkpt lat="36.6946258544922" lon="-5.0139307975769">
        <ele>1727.79333496094</ele>
        <time>2018-07-28T07:24:09Z</time>
      </trkpt>
      <trkpt lat="36.6946334838867" lon="-5.01393413543701">
        <ele>1727.79553222656</ele>
        <time>2018-07-28T07:24:10Z</time>
      </trkpt>
      <trkpt lat="36.6946411132812" lon="-5.01393795013428">
        <ele>1727.794921875</ele>
        <time>2018-07-28T07:24:11Z</time>
      </trkpt>
      <trkpt lat="36.6946487426758" lon="-5.01394414901733">
        <ele>1727.78308105469</ele>
        <time>2018-07-28T07:24:12Z</time>
      </trkpt>
      <trkpt lat="36.6946563720703" lon="-5.01394987106323">
        <ele>1727.771484375</ele>
        <time>2018-07-28T07:24:13Z</time>
      </trkpt>
      <trkpt lat="36.6946640014648" lon="-5.01395702362061">
        <ele>1727.751953125</ele>
        <time>2018-07-28T07:24:14Z</time>
      </trkpt>
      <trkpt lat="36.6946716308594" lon="-5.01396322250366">
        <ele>1727.73474121094</ele>
        <time>2018-07-28T07:24:15Z</time>
      </trkpt>
      <trkpt lat="36.6946792602539" lon="-5.01396799087524">
        <ele>1727.72253417969</ele>
        <time>2018-07-28T07:24:16Z</time>
      </trkpt>
      <trkpt lat="36.6946868896484" lon="-5.01397323608398">
        <ele>1727.70678710938</ele>
        <time>2018-07-28T07:24:17Z</time>
      </trkpt>
      <trkpt lat="36.694694519043" lon="-5.01397800445557">
        <ele>1727.69177246094</ele>
        <time>2018-07-28T07:24:18Z</time>
      </trkpt>
      <trkpt lat="36.6947059631348" lon="-5.01398420333862">
        <ele>1727.67199707031</ele>
        <time>2018-07-28T07:24:19Z</time>
      </trkpt>
      <trkpt lat="36.6947135925293" lon="-5.0139889717102">
        <ele>1727.65380859375</ele>
        <time>2018-07-28T07:24:20Z</time>
      </trkpt>
      <trkpt lat="36.6947250366211" lon="-5.01399421691894">
        <ele>1727.634765625</ele>
        <time>2018-07-28T07:24:21Z</time>
      </trkpt>
      <trkpt lat="36.6947326660156" lon="-5.01399898529053">
        <ele>1727.61340332031</ele>
        <time>2018-07-28T07:24:22Z</time>
      </trkpt>
      <trkpt lat="36.6947441101074" lon="-5.01400423049927">
        <ele>1727.59033203125</ele>
        <time>2018-07-28T07:24:23Z</time>
      </trkpt>
      <trkpt lat="36.6947555541992" lon="-5.01400804519653">
        <ele>1727.57397460938</ele>
        <time>2018-07-28T07:24:24Z</time>
      </trkpt>
      <trkpt lat="36.6947631835938" lon="-5.01401090621948">
        <ele>1727.56005859375</ele>
        <time>2018-07-28T07:24:25Z</time>
      </trkpt>
      <trkpt lat="36.6947746276856" lon="-5.0140118598938">
        <ele>1727.55969238281</ele>
        <time>2018-07-28T07:24:26Z</time>
      </trkpt>
      <trkpt lat="36.6947822570801" lon="-5.01401376724243">
        <ele>1727.55065917969</ele>
        <time>2018-07-28T07:24:27Z</time>
      </trkpt>
      <trkpt lat="36.6947898864746" lon="-5.01401615142822">
        <ele>1727.53784179688</ele>
        <time>2018-07-28T07:24:28Z</time>
      </trkpt>
      <trkpt lat="36.6947937011719" lon="-5.01401901245117">
        <ele>1727.51953125</ele>
        <time>2018-07-28T07:24:29Z</time>
      </trkpt>
      <trkpt lat="36.6948051452637" lon="-5.01402187347412">
        <ele>1727.50329589844</ele>
        <time>2018-07-28T07:24:30Z</time>
      </trkpt>
      <trkpt lat="36.6948127746582" lon="-5.01402378082275">
        <ele>1727.49169921875</ele>
        <time>2018-07-28T07:24:31Z</time>
      </trkpt>
      <trkpt lat="36.6948204040527" lon="-5.01402616500854">
        <ele>1727.47607421875</ele>
        <time>2018-07-28T07:24:32Z</time>
      </trkpt>
      <trkpt lat="36.6948318481445" lon="-5.01402902603149">
        <ele>1727.45678710938</ele>
        <time>2018-07-28T07:24:33Z</time>
      </trkpt>
      <trkpt lat="36.6948394775391" lon="-5.01403284072876">
        <ele>1727.42846679688</ele>
        <time>2018-07-28T07:24:34Z</time>
      </trkpt>
      <trkpt lat="36.6948471069336" lon="-5.01403713226318">
        <ele>1727.39514160156</ele>
        <time>2018-07-28T07:24:35Z</time>
      </trkpt>
      <trkpt lat="36.6948547363281" lon="-5.01404285430908">
        <ele>1727.34912109375</ele>
        <time>2018-07-28T07:24:36Z</time>
      </trkpt>
      <trkpt lat="36.6948623657227" lon="-5.01405000686646">
        <ele>1727.28967285156</ele>
        <time>2018-07-28T07:24:37Z</time>
      </trkpt>
      <trkpt lat="36.6948699951172" lon="-5.01405811309814">
        <ele>1727.22021484375</ele>
        <time>2018-07-28T07:24:38Z</time>
      </trkpt>
      <trkpt lat="36.6948776245117" lon="-5.01406621932983">
        <ele>1727.1484375</ele>
        <time>2018-07-28T07:24:39Z</time>
      </trkpt>
      <trkpt lat="36.6948852539062" lon="-5.01407384872436">
        <ele>1727.07849121094</ele>
        <time>2018-07-28T07:24:40Z</time>
      </trkpt>
      <trkpt lat="36.6948928833008" lon="-5.01408195495606">
        <ele>1727.00207519531</ele>
        <time>2018-07-28T07:24:41Z</time>
      </trkpt>
      <trkpt lat="36.6949005126953" lon="-5.01409006118774">
        <ele>1726.92346191406</ele>
        <time>2018-07-28T07:24:42Z</time>
      </trkpt>
      <trkpt lat="36.6949119567871" lon="-5.01409816741943">
        <ele>1726.83825683594</ele>
        <time>2018-07-28T07:24:43Z</time>
      </trkpt>
      <trkpt lat="36.6949195861816" lon="-5.01410579681396">
        <ele>1726.7587890625</ele>
        <time>2018-07-28T07:24:44Z</time>
      </trkpt>
      <trkpt lat="36.6949310302734" lon="-5.01411294937134">
        <ele>1726.67626953125</ele>
        <time>2018-07-28T07:24:45Z</time>
      </trkpt>
      <trkpt lat="36.694938659668" lon="-5.01411914825439">
        <ele>1726.60583496094</ele>
        <time>2018-07-28T07:24:46Z</time>
      </trkpt>
      <trkpt lat="36.6949462890625" lon="-5.01412487030029">
        <ele>1726.53833007812</ele>
        <time>2018-07-28T07:24:47Z</time>
      </trkpt>
      <trkpt lat="36.694953918457" lon="-5.01413106918335">
        <ele>1726.46435546875</ele>
        <time>2018-07-28T07:24:48Z</time>
      </trkpt>
      <trkpt lat="36.6949615478516" lon="-5.01413679122925">
        <ele>1726.39343261719</ele>
        <time>2018-07-28T07:24:49Z</time>
      </trkpt>
      <trkpt lat="36.6949691772461" lon="-5.0141429901123">
        <ele>1726.31604003906</ele>
        <time>2018-07-28T07:24:50Z</time>
      </trkpt>
      <trkpt lat="36.6949768066406" lon="-5.01414918899536">
        <ele>1726.23681640625</ele>
        <time>2018-07-28T07:24:51Z</time>
      </trkpt>
      <trkpt lat="36.6949806213379" lon="-5.01415300369263">
        <ele>1726.18908691406</ele>
        <time>2018-07-28T07:24:52Z</time>
      </trkpt>
      <trkpt lat="36.6949882507324" lon="-5.01415681838989">
        <ele>1726.13244628906</ele>
        <time>2018-07-28T07:24:53Z</time>
      </trkpt>
      <trkpt lat="36.6949920654297" lon="-5.01416206359863">
        <ele>1726.06811523438</ele>
        <time>2018-07-28T07:24:54Z</time>
      </trkpt>
      <trkpt lat="36.6949996948242" lon="-5.01416921615601">
        <ele>1726.0068359375</ele>
        <time>2018-07-28T07:24:55Z</time>
      </trkpt>
      <trkpt lat="36.6950035095215" lon="-5.01417589187622">
        <ele>1726.00451660156</ele>
        <time>2018-07-28T07:24:56Z</time>
      </trkpt>
      <trkpt lat="36.6950073242188" lon="-5.01418113708496">
        <ele>1725.99682617188</ele>
        <time>2018-07-28T07:24:57Z</time>
      </trkpt>
      <trkpt lat="36.695011138916" lon="-5.01418495178223">
        <ele>1725.98510742188</ele>
        <time>2018-07-28T07:24:58Z</time>
      </trkpt>
      <trkpt lat="36.6950187683106" lon="-5.01418876647949">
        <ele>1725.9521484375</ele>
        <time>2018-07-28T07:24:59Z</time>
      </trkpt>
      <trkpt lat="36.6950225830078" lon="-5.01419401168823">
        <ele>1725.94128417969</ele>
        <time>2018-07-28T07:25:00Z</time>
      </trkpt>
      <trkpt lat="36.6950263977051" lon="-5.01420021057129">
        <ele>1725.93078613281</ele>
        <time>2018-07-28T07:25:01Z</time>
      </trkpt>
      <trkpt lat="36.6950378417969" lon="-5.01420593261719">
        <ele>1725.8740234375</ele>
        <time>2018-07-28T07:25:02Z</time>
      </trkpt>
      <trkpt lat="36.6950416564941" lon="-5.01420879364014">
        <ele>1725.85571289062</ele>
        <time>2018-07-28T07:25:03Z</time>
      </trkpt>
      <trkpt lat="36.6950492858887" lon="-5.01421022415161">
        <ele>1725.81237792969</ele>
        <time>2018-07-28T07:25:04Z</time>
      </trkpt>
      <trkpt lat="36.6950569152832" lon="-5.01420879364014">
        <ele>1725.76574707031</ele>
        <time>2018-07-28T07:25:05Z</time>
      </trkpt>
      <trkpt lat="36.6950607299805" lon="-5.01420783996582">
        <ele>1725.74255371094</ele>
        <time>2018-07-28T07:25:06Z</time>
      </trkpt>
      <trkpt lat="36.6950645446777" lon="-5.01420879364014">
        <ele>1725.72082519531</ele>
        <time>2018-07-28T07:25:07Z</time>
      </trkpt>
      <trkpt lat="36.695068359375" lon="-5.01421117782593">
        <ele>1725.69982910156</ele>
        <time>2018-07-28T07:25:08Z</time>
      </trkpt>
      <trkpt lat="36.6950721740723" lon="-5.01421499252319">
        <ele>1725.67919921875</ele>
        <time>2018-07-28T07:25:09Z</time>
      </trkpt>
      <trkpt lat="36.6950798034668" lon="-5.01421880722046">
        <ele>1725.63427734375</ele>
        <time>2018-07-28T07:25:10Z</time>
      </trkpt>
      <trkpt lat="36.6950874328613" lon="-5.01422214508057">
        <ele>1725.58776855469</ele>
        <time>2018-07-28T07:25:11Z</time>
      </trkpt>
      <trkpt lat="36.6950912475586" lon="-5.01422500610352">
        <ele>1725.56408691406</ele>
        <time>2018-07-28T07:25:12Z</time>
      </trkpt>
      <trkpt lat="36.6950988769531" lon="-5.01422500610352">
        <ele>1725.51586914062</ele>
        <time>2018-07-28T07:25:13Z</time>
      </trkpt>
      <trkpt lat="36.6951026916504" lon="-5.01422691345215">
        <ele>1725.49133300781</ele>
        <time>2018-07-28T07:25:14Z</time>
      </trkpt>
      <trkpt lat="36.6951065063477" lon="-5.0142297744751">
        <ele>1725.46606445312</ele>
        <time>2018-07-28T07:25:15Z</time>
      </trkpt>
      <trkpt lat="36.6951103210449" lon="-5.01423597335815">
        <ele>1725.43859863281</ele>
        <time>2018-07-28T07:25:16Z</time>
      </trkpt>
      <trkpt lat="36.6951141357422" lon="-5.01424217224121">
        <ele>1725.41003417969</ele>
        <time>2018-07-28T07:25:17Z</time>
      </trkpt>
      <trkpt lat="36.6951141357422" lon="-5.01424980163574">
        <ele>1725.40576171875</ele>
        <time>2018-07-28T07:25:18Z</time>
      </trkpt>
      <trkpt lat="36.6951179504394" lon="-5.01425695419312">
        <ele>1725.37451171875</ele>
        <time>2018-07-28T07:25:19Z</time>
      </trkpt>
      <trkpt lat="36.6951179504394" lon="-5.0142650604248">
        <ele>1725.369140625</ele>
        <time>2018-07-28T07:25:20Z</time>
      </trkpt>
      <trkpt lat="36.6951179504394" lon="-5.01427221298218">
        <ele>1725.36450195312</ele>
        <time>2018-07-28T07:25:21Z</time>
      </trkpt>
      <trkpt lat="36.6951179504394" lon="-5.01427984237671">
        <ele>1725.35949707031</ele>
        <time>2018-07-28T07:25:22Z</time>
      </trkpt>
      <trkpt lat="36.6951179504394" lon="-5.0142879486084">
        <ele>1725.35412597656</ele>
        <time>2018-07-28T07:25:23Z</time>
      </trkpt>
      <trkpt lat="36.6951217651367" lon="-5.0142970085144">
        <ele>1725.31701660156</ele>
        <time>2018-07-28T07:25:24Z</time>
      </trkpt>
      <trkpt lat="36.6951217651367" lon="-5.01430702209473">
        <ele>1725.30944824219</ele>
        <time>2018-07-28T07:25:25Z</time>
      </trkpt>
      <trkpt lat="36.695125579834" lon="-5.01431608200073">
        <ele>1725.26940917969</ele>
        <time>2018-07-28T07:25:26Z</time>
      </trkpt>
      <trkpt lat="36.6951293945312" lon="-5.01432323455811">
        <ele>1725.22961425781</ele>
        <time>2018-07-28T07:25:27Z</time>
      </trkpt>
      <trkpt lat="36.6951293945312" lon="-5.014328956604">
        <ele>1725.22412109375</ele>
        <time>2018-07-28T07:25:28Z</time>
      </trkpt>
      <trkpt lat="36.6951332092285" lon="-5.01433610916138">
        <ele>1725.18225097656</ele>
        <time>2018-07-28T07:25:29Z</time>
      </trkpt>
      <trkpt lat="36.6951332092285" lon="-5.01434421539307">
        <ele>1725.17370605469</ele>
        <time>2018-07-28T07:25:30Z</time>
      </trkpt>
      <trkpt lat="36.6951332092285" lon="-5.01434993743896">
        <ele>1725.16760253906</ele>
        <time>2018-07-28T07:25:31Z</time>
      </trkpt>
      <trkpt lat="36.6951332092285" lon="-5.01435613632202">
        <ele>1725.1611328125</ele>
        <time>2018-07-28T07:25:32Z</time>
      </trkpt>
      <trkpt lat="36.695140838623" lon="-5.0143609046936">
        <ele>1725.0810546875</ele>
        <time>2018-07-28T07:25:33Z</time>
      </trkpt>
      <trkpt lat="36.6951446533203" lon="-5.01436519622803">
        <ele>1725.03771972656</ele>
        <time>2018-07-28T07:25:34Z</time>
      </trkpt>
      <trkpt lat="36.6951522827148" lon="-5.01436901092529">
        <ele>1724.95593261719</ele>
        <time>2018-07-28T07:25:35Z</time>
      </trkpt>
      <trkpt lat="36.6951560974121" lon="-5.01437091827393">
        <ele>1724.91455078125</ele>
        <time>2018-07-28T07:25:36Z</time>
      </trkpt>
      <trkpt lat="36.6951637268066" lon="-5.01437377929688">
        <ele>1724.83227539062</ele>
        <time>2018-07-28T07:25:37Z</time>
      </trkpt>
      <trkpt lat="36.6951675415039" lon="-5.0143780708313">
        <ele>1724.78515625</ele>
        <time>2018-07-28T07:25:38Z</time>
      </trkpt>
      <trkpt lat="36.6951751708984" lon="-5.0143837928772">
        <ele>1724.69445800781</ele>
        <time>2018-07-28T07:25:39Z</time>
      </trkpt>
      <trkpt lat="36.6951789855957" lon="-5.01439189910889">
        <ele>1724.63647460938</ele>
        <time>2018-07-28T07:25:40Z</time>
      </trkpt>
      <trkpt lat="36.6951866149902" lon="-5.01440191268921">
        <ele>1724.53088378906</ele>
        <time>2018-07-28T07:25:41Z</time>
      </trkpt>
      <trkpt lat="36.6951904296875" lon="-5.01441097259522">
        <ele>1724.46643066406</ele>
        <time>2018-07-28T07:25:42Z</time>
      </trkpt>
      <trkpt lat="36.6951942443848" lon="-5.01442003250122">
        <ele>1724.40002441406</ele>
        <time>2018-07-28T07:25:43Z</time>
      </trkpt>
      <trkpt lat="36.695198059082" lon="-5.01442718505859">
        <ele>1724.33715820312</ele>
        <time>2018-07-28T07:25:44Z</time>
      </trkpt>
      <trkpt lat="36.6952056884766" lon="-5.01443386077881">
        <ele>1724.22937011719</ele>
        <time>2018-07-28T07:25:45Z</time>
      </trkpt>
      <trkpt lat="36.6952095031738" lon="-5.01444101333618">
        <ele>1724.1630859375</ele>
        <time>2018-07-28T07:25:46Z</time>
      </trkpt>
      <trkpt lat="36.6952171325684" lon="-5.01444816589356">
        <ele>1724.04907226562</ele>
        <time>2018-07-28T07:25:47Z</time>
      </trkpt>
      <trkpt lat="36.6952247619629" lon="-5.01445007324219">
        <ele>1723.9501953125</ele>
        <time>2018-07-28T07:25:48Z</time>
      </trkpt>
      <trkpt lat="36.6952323913574" lon="-5.01444816589356">
        <ele>1723.86450195312</ele>
        <time>2018-07-28T07:25:49Z</time>
      </trkpt>
      <trkpt lat="36.695240020752" lon="-5.01444292068481">
        <ele>1723.79223632812</ele>
        <time>2018-07-28T07:25:50Z</time>
      </trkpt>
      <trkpt lat="36.6952438354492" lon="-5.01444005966186">
        <ele>1723.7578125</ele>
        <time>2018-07-28T07:25:51Z</time>
      </trkpt>
      <trkpt lat="36.6952514648438" lon="-5.01444101333618">
        <ele>1723.66320800781</ele>
        <time>2018-07-28T07:25:52Z</time>
      </trkpt>
      <trkpt lat="36.6952590942383" lon="-5.01444482803345">
        <ele>1723.55590820312</ele>
        <time>2018-07-28T07:25:53Z</time>
      </trkpt>
      <trkpt lat="36.6952667236328" lon="-5.01444911956787">
        <ele>1723.44482421875</ele>
        <time>2018-07-28T07:25:54Z</time>
      </trkpt>
      <trkpt lat="36.6952743530273" lon="-5.01445198059082">
        <ele>1723.3388671875</ele>
        <time>2018-07-28T07:25:55Z</time>
      </trkpt>
      <trkpt lat="36.6952781677246" lon="-5.01445388793945">
        <ele>1723.283203125</ele>
        <time>2018-07-28T07:25:56Z</time>
      </trkpt>
      <trkpt lat="36.6952857971191" lon="-5.01445722579956">
        <ele>1723.17309570312</ele>
        <time>2018-07-28T07:25:57Z</time>
      </trkpt>
      <trkpt lat="36.6952934265137" lon="-5.01446008682251">
        <ele>1723.06408691406</ele>
        <time>2018-07-28T07:25:58Z</time>
      </trkpt>
      <trkpt lat="36.6953010559082" lon="-5.01446294784546">
        <ele>1722.95397949219</ele>
        <time>2018-07-28T07:25:59Z</time>
      </trkpt>
      <trkpt lat="36.6953048706055" lon="-5.01447010040283">
        <ele>1722.86706542969</ele>
        <time>2018-07-28T07:26:00Z</time>
      </trkpt>
      <trkpt lat="36.6953086853027" lon="-5.01447820663452">
        <ele>1722.77331542969</ele>
        <time>2018-07-28T07:26:01Z</time>
      </trkpt>
      <trkpt lat="36.6953125" lon="-5.01448822021484">
        <ele>1722.66711425781</ele>
        <time>2018-07-28T07:26:02Z</time>
      </trkpt>
      <trkpt lat="36.6953125" lon="-5.01449680328369">
        <ele>1722.6181640625</ele>
        <time>2018-07-28T07:26:03Z</time>
      </trkpt>
      <trkpt lat="36.6953086853027" lon="-5.01450681686401">
        <ele>1722.61303710938</ele>
        <time>2018-07-28T07:26:04Z</time>
      </trkpt>
      <trkpt lat="36.6953086853027" lon="-5.01451683044434">
        <ele>1722.55700683594</ele>
        <time>2018-07-28T07:26:05Z</time>
      </trkpt>
      <trkpt lat="36.6953086853027" lon="-5.01452684402466">
        <ele>1722.50085449219</ele>
        <time>2018-07-28T07:26:06Z</time>
      </trkpt>
      <trkpt lat="36.6953086853027" lon="-5.01453876495361">
        <ele>1722.43408203125</ele>
        <time>2018-07-28T07:26:07Z</time>
      </trkpt>
      <trkpt lat="36.6953086853027" lon="-5.01455116271973">
        <ele>1722.36474609375</ele>
        <time>2018-07-28T07:26:08Z</time>
      </trkpt>
      <trkpt lat="36.6953048706055" lon="-5.01456212997436">
        <ele>1722.36071777344</ele>
        <time>2018-07-28T07:26:09Z</time>
      </trkpt>
      <trkpt lat="36.6953048706055" lon="-5.01457118988037">
        <ele>1722.31079101562</ele>
        <time>2018-07-28T07:26:10Z</time>
      </trkpt>
      <trkpt lat="36.6953048706055" lon="-5.0145788192749">
        <ele>1722.26879882812</ele>
        <time>2018-07-28T07:26:11Z</time>
      </trkpt>
      <trkpt lat="36.6953086853027" lon="-5.01458692550659">
        <ele>1722.16442871094</ele>
        <time>2018-07-28T07:26:12Z</time>
      </trkpt>
      <trkpt lat="36.6953086853027" lon="-5.01459693908691">
        <ele>1722.10827636719</ele>
        <time>2018-07-28T07:26:13Z</time>
      </trkpt>
      <trkpt lat="36.6953086853027" lon="-5.01460886001587">
        <ele>1722.04150390625</ele>
        <time>2018-07-28T07:26:14Z</time>
      </trkpt>
      <trkpt lat="36.6953125" lon="-5.01461887359619">
        <ele>1721.92236328125</ele>
        <time>2018-07-28T07:26:15Z</time>
      </trkpt>
      <trkpt lat="36.6953163146973" lon="-5.01462888717651">
        <ele>1721.80126953125</ele>
        <time>2018-07-28T07:26:16Z</time>
      </trkpt>
      <trkpt lat="36.6953201293945" lon="-5.0146369934082">
        <ele>1721.689453125</ele>
        <time>2018-07-28T07:26:17Z</time>
      </trkpt>
      <trkpt lat="36.6953239440918" lon="-5.01464700698853">
        <ele>1721.56469726562</ele>
        <time>2018-07-28T07:26:18Z</time>
      </trkpt>
      <trkpt lat="36.6953277587891" lon="-5.01465606689453">
        <ele>1721.44360351562</ele>
        <time>2018-07-28T07:26:19Z</time>
      </trkpt>
      <trkpt lat="36.6953277587891" lon="-5.01466512680054">
        <ele>1721.38842773438</ele>
        <time>2018-07-28T07:26:20Z</time>
      </trkpt>
      <trkpt lat="36.6953277587891" lon="-5.01467180252075">
        <ele>1721.34765625</ele>
        <time>2018-07-28T07:26:21Z</time>
      </trkpt>
      <trkpt lat="36.6953277587891" lon="-5.01467895507812">
        <ele>1721.30407714844</ele>
        <time>2018-07-28T07:26:22Z</time>
      </trkpt>
      <trkpt lat="36.6953239440918" lon="-5.01468801498413">
        <ele>1721.31872558594</ele>
        <time>2018-07-28T07:26:23Z</time>
      </trkpt>
      <trkpt lat="36.6953277587891" lon="-5.01469802856445">
        <ele>1721.18786621094</ele>
        <time>2018-07-28T07:26:24Z</time>
      </trkpt>
      <trkpt lat="36.6953277587891" lon="-5.01470804214478">
        <ele>1721.12683105469</ele>
        <time>2018-07-28T07:26:25Z</time>
      </trkpt>
      <trkpt lat="36.6953277587891" lon="-5.0147180557251">
        <ele>1721.06579589844</ele>
        <time>2018-07-28T07:26:26Z</time>
      </trkpt>
      <trkpt lat="36.6953277587891" lon="-5.01472806930542">
        <ele>1721.00476074219</ele>
        <time>2018-07-28T07:26:27Z</time>
      </trkpt>
      <trkpt lat="36.6953277587891" lon="-5.01473903656006">
        <ele>1720.93786621094</ele>
        <time>2018-07-28T07:26:28Z</time>
      </trkpt>
      <trkpt lat="36.6953277587891" lon="-5.0147500038147">
        <ele>1720.87097167969</ele>
        <time>2018-07-28T07:26:29Z</time>
      </trkpt>
      <trkpt lat="36.6953239440918" lon="-5.01476192474365">
        <ele>1720.87548828125</ele>
        <time>2018-07-28T07:26:30Z</time>
      </trkpt>
      <trkpt lat="36.6953201293945" lon="-5.01477384567261">
        <ele>1720.88244628906</ele>
        <time>2018-07-28T07:26:31Z</time>
      </trkpt>
      <trkpt lat="36.6953201293945" lon="-5.01478576660156">
        <ele>1720.81213378906</ele>
        <time>2018-07-28T07:26:32Z</time>
      </trkpt>
      <trkpt lat="36.6953201293945" lon="-5.01479911804199">
        <ele>1720.73327636719</ele>
        <time>2018-07-28T07:26:33Z</time>
      </trkpt>
      <trkpt lat="36.6953201293945" lon="-5.01481103897095">
        <ele>1720.6630859375</ele>
        <time>2018-07-28T07:26:34Z</time>
      </trkpt>
      <trkpt lat="36.6953163146973" lon="-5.0148229598999">
        <ele>1720.67590332031</ele>
        <time>2018-07-28T07:26:35Z</time>
      </trkpt>
      <trkpt lat="36.6953201293945" lon="-5.01483392715454">
        <ele>1720.52807617188</ele>
        <time>2018-07-28T07:26:36Z</time>
      </trkpt>
      <trkpt lat="36.6953201293945" lon="-5.01484489440918">
        <ele>1720.46337890625</ele>
        <time>2018-07-28T07:26:37Z</time>
      </trkpt>
      <trkpt lat="36.6953201293945" lon="-5.01485776901245">
        <ele>1720.38745117188</ele>
        <time>2018-07-28T07:26:38Z</time>
      </trkpt>
      <trkpt lat="36.6953201293945" lon="-5.01487016677856">
        <ele>1720.31433105469</ele>
        <time>2018-07-28T07:26:39Z</time>
      </trkpt>
      <trkpt lat="36.6953201293945" lon="-5.01488208770752">
        <ele>1720.24401855469</ele>
        <time>2018-07-28T07:26:40Z</time>
      </trkpt>
      <trkpt lat="36.6953163146973" lon="-5.01489114761353">
        <ele>1720.28051757812</ele>
        <time>2018-07-28T07:26:41Z</time>
      </trkpt>
      <trkpt lat="36.6953163146973" lon="-5.01489877700806">
        <ele>1720.236328125</ele>
        <time>2018-07-28T07:26:42Z</time>
      </trkpt>
      <trkpt lat="36.6953125" lon="-5.01490688323975">
        <ele>1720.28076171875</ele>
        <time>2018-07-28T07:26:43Z</time>
      </trkpt>
      <trkpt lat="36.6953086853027" lon="-5.01491785049438">
        <ele>1720.31079101562</ele>
        <time>2018-07-28T07:26:44Z</time>
      </trkpt>
      <trkpt lat="36.6953086853027" lon="-5.01492881774902">
        <ele>1720.24938964844</ele>
        <time>2018-07-28T07:26:45Z</time>
      </trkpt>
      <trkpt lat="36.6953048706055" lon="-5.01493978500366">
        <ele>1720.28271484375</ele>
        <time>2018-07-28T07:26:46Z</time>
      </trkpt>
      <trkpt lat="36.6953048706055" lon="-5.01495122909546">
        <ele>1720.2197265625</ele>
        <time>2018-07-28T07:26:47Z</time>
      </trkpt>
      <trkpt lat="36.6953010559082" lon="-5.01496076583862">
        <ele>1720.26416015625</ele>
        <time>2018-07-28T07:26:48Z</time>
      </trkpt>
      <trkpt lat="36.6952934265137" lon="-5.01497077941894">
        <ele>1720.40563964844</ele>
        <time>2018-07-28T07:26:49Z</time>
      </trkpt>
      <trkpt lat="36.6952896118164" lon="-5.01497983932495">
        <ele>1720.45715332031</ele>
        <time>2018-07-28T07:26:50Z</time>
      </trkpt>
      <trkpt lat="36.6952857971191" lon="-5.01499080657959">
        <ele>1720.5009765625</ele>
        <time>2018-07-28T07:26:51Z</time>
      </trkpt>
      <trkpt lat="36.6952857971191" lon="-5.01500082015991">
        <ele>1720.44934082031</ele>
        <time>2018-07-28T07:26:52Z</time>
      </trkpt>
      <trkpt lat="36.6952819824219" lon="-5.01501178741455">
        <ele>1720.47534179688</ele>
        <time>2018-07-28T07:26:53Z</time>
      </trkpt>
      <trkpt lat="36.6952819824219" lon="-5.01502180099487">
        <ele>1720.40710449219</ele>
        <time>2018-07-28T07:26:54Z</time>
      </trkpt>
      <trkpt lat="36.6952819824219" lon="-5.01503276824951">
        <ele>1720.33239746094</ele>
        <time>2018-07-28T07:26:55Z</time>
      </trkpt>
      <trkpt lat="36.6952819824219" lon="-5.01504182815552">
        <ele>1720.27075195312</ele>
        <time>2018-07-28T07:26:56Z</time>
      </trkpt>
      <trkpt lat="36.6952819824219" lon="-5.01505279541016">
        <ele>1720.19604492188</ele>
        <time>2018-07-28T07:26:57Z</time>
      </trkpt>
      <trkpt lat="36.6952781677246" lon="-5.01506280899048">
        <ele>1720.22924804688</ele>
        <time>2018-07-28T07:26:58Z</time>
      </trkpt>
      <trkpt lat="36.6952781677246" lon="-5.0150728225708">
        <ele>1720.1611328125</ele>
        <time>2018-07-28T07:26:59Z</time>
      </trkpt>
      <trkpt lat="36.6952743530273" lon="-5.01508378982544">
        <ele>1720.18811035156</ele>
        <time>2018-07-28T07:27:00Z</time>
      </trkpt>
      <trkpt lat="36.6952705383301" lon="-5.01509380340576">
        <ele>1720.22192382812</ele>
        <time>2018-07-28T07:27:01Z</time>
      </trkpt>
      <trkpt lat="36.6952705383301" lon="-5.01510286331177">
        <ele>1720.16052246094</ele>
        <time>2018-07-28T07:27:02Z</time>
      </trkpt>
      <trkpt lat="36.6952667236328" lon="-5.01511192321777">
        <ele>1720.20092773438</ele>
        <time>2018-07-28T07:27:03Z</time>
      </trkpt>
      <trkpt lat="36.6952667236328" lon="-5.01512098312378">
        <ele>1720.1396484375</ele>
        <time>2018-07-28T07:27:04Z</time>
      </trkpt>
      <trkpt lat="36.6952667236328" lon="-5.0151309967041">
        <ele>1720.07189941406</ele>
        <time>2018-07-28T07:27:05Z</time>
      </trkpt>
      <trkpt lat="36.6952667236328" lon="-5.01514101028442">
        <ele>1720.00415039062</ele>
        <time>2018-07-28T07:27:06Z</time>
      </trkpt>
      <trkpt lat="36.6952667236328" lon="-5.01515102386475">
        <ele>1719.93640136719</ele>
        <time>2018-07-28T07:27:07Z</time>
      </trkpt>
      <trkpt lat="36.6952667236328" lon="-5.01516008377075">
        <ele>1719.875</ele>
        <time>2018-07-28T07:27:08Z</time>
      </trkpt>
      <trkpt lat="36.6952705383301" lon="-5.01516914367676">
        <ele>1719.71118164062</ele>
        <time>2018-07-28T07:27:09Z</time>
      </trkpt>
      <trkpt lat="36.6952705383301" lon="-5.01517677307129">
        <ele>1719.65942382812</ele>
        <time>2018-07-28T07:27:10Z</time>
      </trkpt>
      <trkpt lat="36.6952743530273" lon="-5.01518487930298">
        <ele>1719.50170898438</ele>
        <time>2018-07-28T07:27:11Z</time>
      </trkpt>
      <trkpt lat="36.6952781677246" lon="-5.01519393920898">
        <ele>1719.33740234375</ele>
        <time>2018-07-28T07:27:12Z</time>
      </trkpt>
      <trkpt lat="36.6952781677246" lon="-5.01520299911499">
        <ele>1719.27575683594</ele>
        <time>2018-07-28T07:27:13Z</time>
      </trkpt>
      <trkpt lat="36.6952781677246" lon="-5.01521587371826">
        <ele>1719.18823242188</ele>
        <time>2018-07-28T07:27:14Z</time>
      </trkpt>
      <trkpt lat="36.6952781677246" lon="-5.01522588729858">
        <ele>1719.1201171875</ele>
        <time>2018-07-28T07:27:15Z</time>
      </trkpt>
      <trkpt lat="36.6952819824219" lon="-5.01523780822754">
        <ele>1718.93566894531</ele>
        <time>2018-07-28T07:27:16Z</time>
      </trkpt>
      <trkpt lat="36.6952857971191" lon="-5.01525115966797">
        <ele>1718.7412109375</ele>
        <time>2018-07-28T07:27:17Z</time>
      </trkpt>
      <trkpt lat="36.6952857971191" lon="-5.01526308059692">
        <ele>1718.65991210938</ele>
        <time>2018-07-28T07:27:18Z</time>
      </trkpt>
      <trkpt lat="36.6952857971191" lon="-5.01527309417725">
        <ele>1718.59155273438</ele>
        <time>2018-07-28T07:27:19Z</time>
      </trkpt>
      <trkpt lat="36.6952819824219" lon="-5.01528406143188">
        <ele>1718.62060546875</ele>
        <time>2018-07-28T07:27:20Z</time>
      </trkpt>
      <trkpt lat="36.6952819824219" lon="-5.01529502868652">
        <ele>1718.5458984375</ele>
        <time>2018-07-28T07:27:21Z</time>
      </trkpt>
      <trkpt lat="36.6952857971191" lon="-5.0153079032898">
        <ele>1718.35412597656</ele>
        <time>2018-07-28T07:27:22Z</time>
      </trkpt>
      <trkpt lat="36.6952896118164" lon="-5.01532077789307">
        <ele>1718.16198730469</ele>
        <time>2018-07-28T07:27:23Z</time>
      </trkpt>
      <trkpt lat="36.6952896118164" lon="-5.01533317565918">
        <ele>1718.07727050781</ele>
        <time>2018-07-28T07:27:24Z</time>
      </trkpt>
      <trkpt lat="36.6952896118164" lon="-5.01534509658814">
        <ele>1717.99584960938</ele>
        <time>2018-07-28T07:27:25Z</time>
      </trkpt>
      <trkpt lat="36.6952896118164" lon="-5.01535606384277">
        <ele>1717.9208984375</ele>
        <time>2018-07-28T07:27:26Z</time>
      </trkpt>
      <trkpt lat="36.6952857971191" lon="-5.01536703109741">
        <ele>1717.95068359375</ele>
        <time>2018-07-28T07:27:27Z</time>
      </trkpt>
      <trkpt lat="36.6952857971191" lon="-5.01537799835205">
        <ele>1717.87585449219</ele>
        <time>2018-07-28T07:27:28Z</time>
      </trkpt>
      <trkpt lat="36.6952857971191" lon="-5.01538991928101">
        <ele>1717.79455566406</ele>
        <time>2018-07-28T07:27:29Z</time>
      </trkpt>
      <trkpt lat="36.6952857971191" lon="-5.01540279388428">
        <ele>1717.70666503906</ele>
        <time>2018-07-28T07:27:30Z</time>
      </trkpt>
      <trkpt lat="36.6952819824219" lon="-5.01541614532471">
        <ele>1717.72082519531</ele>
        <time>2018-07-28T07:27:31Z</time>
      </trkpt>
      <trkpt lat="36.6952781677246" lon="-5.01542901992798">
        <ele>1717.73852539062</ele>
        <time>2018-07-28T07:27:32Z</time>
      </trkpt>
      <trkpt lat="36.6952743530273" lon="-5.01543998718262">
        <ele>1717.76953125</ele>
        <time>2018-07-28T07:27:33Z</time>
      </trkpt>
      <trkpt lat="36.6952705383301" lon="-5.01545095443726">
        <ele>1717.80065917969</ele>
        <time>2018-07-28T07:27:34Z</time>
      </trkpt>
      <trkpt lat="36.6952705383301" lon="-5.01546096801758">
        <ele>1717.73278808594</ele>
        <time>2018-07-28T07:27:35Z</time>
      </trkpt>
      <trkpt lat="36.6952667236328" lon="-5.0154709815979">
        <ele>1717.77087402344</ele>
        <time>2018-07-28T07:27:36Z</time>
      </trkpt>
      <trkpt lat="36.6952629089356" lon="-5.01548194885254">
        <ele>1717.80261230469</ele>
        <time>2018-07-28T07:27:37Z</time>
      </trkpt>
      <trkpt lat="36.6952590942383" lon="-5.01549386978149">
        <ele>1717.828125</ele>
        <time>2018-07-28T07:27:38Z</time>
      </trkpt>
      <trkpt lat="36.695255279541" lon="-5.01550388336182">
        <ele>1717.86682128906</ele>
        <time>2018-07-28T07:27:39Z</time>
      </trkpt>
      <trkpt lat="36.6952514648438" lon="-5.01551485061646">
        <ele>1717.8994140625</ele>
        <time>2018-07-28T07:27:40Z</time>
      </trkpt>
      <trkpt lat="36.6952476501465" lon="-5.01552486419678">
        <ele>1717.9384765625</ele>
        <time>2018-07-28T07:27:41Z</time>
      </trkpt>
      <trkpt lat="36.6952476501465" lon="-5.01553583145142">
        <ele>1717.86486816406</ele>
        <time>2018-07-28T07:27:42Z</time>
      </trkpt>
      <trkpt lat="36.6952476501465" lon="-5.01554584503174">
        <ele>1717.79760742188</ele>
        <time>2018-07-28T07:27:43Z</time>
      </trkpt>
      <trkpt lat="36.6952438354492" lon="-5.01555490493774">
        <ele>1717.84362792969</ele>
        <time>2018-07-28T07:27:44Z</time>
      </trkpt>
      <trkpt lat="36.6952476501465" lon="-5.01556396484375">
        <ele>1717.67602539062</ele>
        <time>2018-07-28T07:27:45Z</time>
      </trkpt>
      <trkpt lat="36.6952476501465" lon="-5.01557016372681">
        <ele>1717.63439941406</ele>
        <time>2018-07-28T07:27:46Z</time>
      </trkpt>
      <trkpt lat="36.6952514648438" lon="-5.01557683944702">
        <ele>1717.48254394531</ele>
        <time>2018-07-28T07:27:47Z</time>
      </trkpt>
      <trkpt lat="36.6952514648438" lon="-5.01558399200439">
        <ele>1717.43444824219</ele>
        <time>2018-07-28T07:27:48Z</time>
      </trkpt>
      <trkpt lat="36.6952514648438" lon="-5.01559019088745">
        <ele>1717.39270019531</ele>
        <time>2018-07-28T07:27:49Z</time>
      </trkpt>
      <trkpt lat="36.6952514648438" lon="-5.01559782028198">
        <ele>1717.34143066406</ele>
        <time>2018-07-28T07:27:50Z</time>
      </trkpt>
      <trkpt lat="36.6952514648438" lon="-5.01560688018799">
        <ele>1717.28051757812</ele>
        <time>2018-07-28T07:27:51Z</time>
      </trkpt>
      <trkpt lat="36.6952476501465" lon="-5.01561784744263">
        <ele>1717.31433105469</ele>
        <time>2018-07-28T07:27:52Z</time>
      </trkpt>
      <trkpt lat="36.6952438354492" lon="-5.01562881469727">
        <ele>1717.34826660156</ele>
        <time>2018-07-28T07:27:53Z</time>
      </trkpt>
      <trkpt lat="36.695240020752" lon="-5.0156397819519">
        <ele>1717.38244628906</ele>
        <time>2018-07-28T07:27:54Z</time>
      </trkpt>
      <trkpt lat="36.6952362060547" lon="-5.01565217971802">
        <ele>1717.40747070312</ele>
        <time>2018-07-28T07:27:55Z</time>
      </trkpt>
      <trkpt lat="36.6952362060547" lon="-5.01566410064697">
        <ele>1717.32775878906</ele>
        <time>2018-07-28T07:27:56Z</time>
      </trkpt>
      <trkpt lat="36.695240020752" lon="-5.01567602157593">
        <ele>1717.14001464844</ele>
        <time>2018-07-28T07:27:57Z</time>
      </trkpt>
      <trkpt lat="36.695240020752" lon="-5.01568794250488">
        <ele>1717.06030273438</ele>
        <time>2018-07-28T07:27:58Z</time>
      </trkpt>
      <trkpt lat="36.6952438354492" lon="-5.01570177078247">
        <ele>1716.85925292969</ele>
        <time>2018-07-28T07:27:59Z</time>
      </trkpt>
      <trkpt lat="36.695240020752" lon="-5.01571798324585">
        <ele>1716.85925292969</ele>
        <time>2018-07-28T07:28:00Z</time>
      </trkpt>
      <trkpt lat="36.695240020752" lon="-5.01573276519775">
        <ele>1716.76037597656</ele>
        <time>2018-07-28T07:28:01Z</time>
      </trkpt>
      <trkpt lat="36.6952362060547" lon="-5.0157470703125">
        <ele>1716.77355957031</ele>
        <time>2018-07-28T07:28:02Z</time>
      </trkpt>
      <trkpt lat="36.6952323913574" lon="-5.01575899124146">
        <ele>1716.80297851562</ele>
        <time>2018-07-28T07:28:03Z</time>
      </trkpt>
      <trkpt lat="36.6952285766602" lon="-5.01576995849609">
        <ele>1716.83898925781</ele>
        <time>2018-07-28T07:28:04Z</time>
      </trkpt>
      <trkpt lat="36.6952247619629" lon="-5.01577997207642">
        <ele>1716.88159179688</ele>
        <time>2018-07-28T07:28:05Z</time>
      </trkpt>
      <trkpt lat="36.6952209472656" lon="-5.01579189300537">
        <ele>1716.91174316406</ele>
        <time>2018-07-28T07:28:06Z</time>
      </trkpt>
      <trkpt lat="36.6952171325684" lon="-5.01580476760864">
        <ele>1716.93579101562</ele>
        <time>2018-07-28T07:28:07Z</time>
      </trkpt>
      <trkpt lat="36.6952133178711" lon="-5.01581716537476">
        <ele>1716.96337890625</ele>
        <time>2018-07-28T07:28:08Z</time>
      </trkpt>
      <trkpt lat="36.6952095031738" lon="-5.01582813262939">
        <ele>1717.00061035156</ele>
        <time>2018-07-28T07:28:09Z</time>
      </trkpt>
      <trkpt lat="36.6952056884766" lon="-5.01583814620972">
        <ele>1717.03442382812</ele>
        <time>2018-07-28T07:28:10Z</time>
      </trkpt>
      <trkpt lat="36.6952018737793" lon="-5.01584911346436">
        <ele>1717.04943847656</ele>
        <time>2018-07-28T07:28:11Z</time>
      </trkpt>
      <trkpt lat="36.695198059082" lon="-5.01585912704468">
        <ele>1717.07336425781</ele>
        <time>2018-07-28T07:28:12Z</time>
      </trkpt>
      <trkpt lat="36.6951942443848" lon="-5.01587009429932">
        <ele>1717.08972167969</ele>
        <time>2018-07-28T07:28:13Z</time>
      </trkpt>
      <trkpt lat="36.6951904296875" lon="-5.01588106155396">
        <ele>1717.10656738281</ele>
        <time>2018-07-28T07:28:14Z</time>
      </trkpt>
      <trkpt lat="36.6951866149902" lon="-5.01589298248291">
        <ele>1717.11584472656</ele>
        <time>2018-07-28T07:28:15Z</time>
      </trkpt>
      <trkpt lat="36.695182800293" lon="-5.0159068107605">
        <ele>1717.10961914062</ele>
        <time>2018-07-28T07:28:16Z</time>
      </trkpt>
      <trkpt lat="36.6951789855957" lon="-5.01592111587524">
        <ele>1717.10009765625</ele>
        <time>2018-07-28T07:28:17Z</time>
      </trkpt>
      <trkpt lat="36.6951751708984" lon="-5.01593399047852">
        <ele>1717.10339355469</ele>
        <time>2018-07-28T07:28:18Z</time>
      </trkpt>
      <trkpt lat="36.6951713562012" lon="-5.01594495773315">
        <ele>1717.12353515625</ele>
        <time>2018-07-28T07:28:19Z</time>
      </trkpt>
      <trkpt lat="36.6951675415039" lon="-5.01595592498779">
        <ele>1717.14428710938</ele>
        <time>2018-07-28T07:28:20Z</time>
      </trkpt>
      <trkpt lat="36.6951637268066" lon="-5.01596784591675">
        <ele>1717.15759277344</ele>
        <time>2018-07-28T07:28:21Z</time>
      </trkpt>
      <trkpt lat="36.6951637268066" lon="-5.0159797668457">
        <ele>1717.05773925781</ele>
        <time>2018-07-28T07:28:22Z</time>
      </trkpt>
      <trkpt lat="36.6951599121094" lon="-5.01599216461182">
        <ele>1717.06811523438</ele>
        <time>2018-07-28T07:28:23Z</time>
      </trkpt>
      <trkpt lat="36.6951560974121" lon="-5.01600122451782">
        <ele>1717.10693359375</ele>
        <time>2018-07-28T07:28:24Z</time>
      </trkpt>
      <trkpt lat="36.6951522827148" lon="-5.01600885391235">
        <ele>1717.15808105469</ele>
        <time>2018-07-28T07:28:25Z</time>
      </trkpt>
      <trkpt lat="36.6951484680176" lon="-5.01601791381836">
        <ele>1717.19787597656</ele>
        <time>2018-07-28T07:28:26Z</time>
      </trkpt>
      <trkpt lat="36.695140838623" lon="-5.01602697372436">
        <ele>1717.35327148438</ele>
        <time>2018-07-28T07:28:27Z</time>
      </trkpt>
      <trkpt lat="36.6951332092285" lon="-5.01603698730469">
        <ele>1717.501953125</ele>
        <time>2018-07-28T07:28:28Z</time>
      </trkpt>
      <trkpt lat="36.6951293945312" lon="-5.01604700088501">
        <ele>1717.53601074219</ele>
        <time>2018-07-28T07:28:29Z</time>
      </trkpt>
      <trkpt lat="36.6951217651367" lon="-5.01605606079102">
        <ele>1717.69421386719</ele>
        <time>2018-07-28T07:28:30Z</time>
      </trkpt>
      <trkpt lat="36.6951179504394" lon="-5.01606321334839">
        <ele>1717.75268554688</ele>
        <time>2018-07-28T07:28:31Z</time>
      </trkpt>
      <trkpt lat="36.6951141357422" lon="-5.01606798171997">
        <ele>1717.83056640625</ele>
        <time>2018-07-28T07:28:32Z</time>
      </trkpt>
      <trkpt lat="36.6951141357422" lon="-5.01607179641724">
        <ele>1717.80004882812</ele>
        <time>2018-07-28T07:28:33Z</time>
      </trkpt>
      <trkpt lat="36.6951179504394" lon="-5.01607322692871">
        <ele>1717.67211914062</ele>
        <time>2018-07-28T07:28:34Z</time>
      </trkpt>
      <trkpt lat="36.6951217651367" lon="-5.01607418060303">
        <ele>1717.5478515625</ele>
        <time>2018-07-28T07:28:35Z</time>
      </trkpt>
      <trkpt lat="36.6951217651367" lon="-5.01607608795166">
        <ele>1717.53247070312</ele>
        <time>2018-07-28T07:28:36Z</time>
      </trkpt>
      <trkpt lat="36.6951217651367" lon="-5.01607799530029">
        <ele>1717.51708984375</ele>
        <time>2018-07-28T07:28:37Z</time>
      </trkpt>
      <trkpt lat="36.6951217651367" lon="-5.01608085632324">
        <ele>1717.49401855469</ele>
        <time>2018-07-28T07:28:38Z</time>
      </trkpt>
      <trkpt lat="36.6951217651367" lon="-5.01608514785767">
        <ele>1717.45935058594</ele>
        <time>2018-07-28T07:28:39Z</time>
      </trkpt>
      <trkpt lat="36.6951217651367" lon="-5.0160870552063">
        <ele>1717.44396972656</ele>
        <time>2018-07-28T07:28:40Z</time>
      </trkpt>
      <trkpt lat="36.6951217651367" lon="-5.01608991622925">
        <ele>1717.42077636719</ele>
        <time>2018-07-28T07:28:41Z</time>
      </trkpt>
      <trkpt lat="36.6951217651367" lon="-5.01609516143799">
        <ele>1717.37841796875</ele>
        <time>2018-07-28T07:28:42Z</time>
      </trkpt>
      <trkpt lat="36.6951217651367" lon="-5.01610279083252">
        <ele>1717.31689453125</ele>
        <time>2018-07-28T07:28:43Z</time>
      </trkpt>
      <trkpt lat="36.6951217651367" lon="-5.01611185073853">
        <ele>1717.24365234375</ele>
        <time>2018-07-28T07:28:44Z</time>
      </trkpt>
      <trkpt lat="36.6951217651367" lon="-5.01612091064453">
        <ele>1717.17053222656</ele>
        <time>2018-07-28T07:28:45Z</time>
      </trkpt>
      <trkpt lat="36.6951217651367" lon="-5.01612997055054">
        <ele>1717.09729003906</ele>
        <time>2018-07-28T07:28:46Z</time>
      </trkpt>
      <trkpt lat="36.695125579834" lon="-5.01613998413086">
        <ele>1716.89819335938</ele>
        <time>2018-07-28T07:28:47Z</time>
      </trkpt>
      <trkpt lat="36.695125579834" lon="-5.01614999771118">
        <ele>1716.81701660156</ele>
        <time>2018-07-28T07:28:48Z</time>
      </trkpt>
      <trkpt lat="36.695125579834" lon="-5.01615905761719">
        <ele>1716.74353027344</ele>
        <time>2018-07-28T07:28:49Z</time>
      </trkpt>
      <trkpt lat="36.695125579834" lon="-5.01616716384888">
        <ele>1716.67785644531</ele>
        <time>2018-07-28T07:28:50Z</time>
      </trkpt>
      <trkpt lat="36.695125579834" lon="-5.01617193222046">
        <ele>1716.63928222656</ele>
        <time>2018-07-28T07:28:51Z</time>
      </trkpt>
      <trkpt lat="36.695125579834" lon="-5.01617288589478">
        <ele>1716.63146972656</ele>
        <time>2018-07-28T07:28:52Z</time>
      </trkpt>
      <trkpt lat="36.695125579834" lon="-5.01617479324341">
        <ele>1716.61608886719</ele>
        <time>2018-07-28T07:28:53Z</time>
      </trkpt>
      <trkpt lat="36.6951217651367" lon="-5.01618003845215">
        <ele>1716.69287109375</ele>
        <time>2018-07-28T07:28:54Z</time>
      </trkpt>
      <trkpt lat="36.6951141357422" lon="-5.01618719100952">
        <ele>1716.87426757812</ele>
        <time>2018-07-28T07:28:55Z</time>
      </trkpt>
      <trkpt lat="36.6951103210449" lon="-5.01619386672974">
        <ele>1716.94055175781</ele>
        <time>2018-07-28T07:28:56Z</time>
      </trkpt>
      <trkpt lat="36.6951026916504" lon="-5.01620101928711">
        <ele>1717.12329101562</ele>
        <time>2018-07-28T07:28:57Z</time>
      </trkpt>
      <trkpt lat="36.6950988769531" lon="-5.0162091255188">
        <ele>1717.17907714844</ele>
        <time>2018-07-28T07:28:58Z</time>
      </trkpt>
      <trkpt lat="36.6950950622559" lon="-5.0162181854248">
        <ele>1717.22790527344</ele>
        <time>2018-07-28T07:28:59Z</time>
      </trkpt>
      <trkpt lat="36.6950950622559" lon="-5.01622915267944">
        <ele>1717.14135742188</ele>
        <time>2018-07-28T07:29:00Z</time>
      </trkpt>
      <trkpt lat="36.6950912475586" lon="-5.01624202728272">
        <ele>1717.16101074219</ele>
        <time>2018-07-28T07:29:01Z</time>
      </trkpt>
      <trkpt lat="36.6950912475586" lon="-5.0162558555603">
        <ele>1717.05236816406</ele>
        <time>2018-07-28T07:29:02Z</time>
      </trkpt>
      <trkpt lat="36.6950874328613" lon="-5.01627016067505">
        <ele>1717.06176757812</ele>
        <time>2018-07-28T07:29:03Z</time>
      </trkpt>
      <trkpt lat="36.6950874328613" lon="-5.016282081604">
        <ele>1716.96850585938</ele>
        <time>2018-07-28T07:29:04Z</time>
      </trkpt>
      <trkpt lat="36.6950874328613" lon="-5.01629495620728">
        <ele>1716.86767578125</ele>
        <time>2018-07-28T07:29:05Z</time>
      </trkpt>
      <trkpt lat="36.6950836181641" lon="-5.01630687713623">
        <ele>1716.89721679688</ele>
        <time>2018-07-28T07:29:06Z</time>
      </trkpt>
      <trkpt lat="36.6950798034668" lon="-5.01632022857666">
        <ele>1716.91625976562</ele>
        <time>2018-07-28T07:29:07Z</time>
      </trkpt>
      <trkpt lat="36.6950798034668" lon="-5.01633405685425">
        <ele>1716.80871582031</ele>
        <time>2018-07-28T07:29:08Z</time>
      </trkpt>
      <trkpt lat="36.6950798034668" lon="-5.01634693145752">
        <ele>1716.70861816406</ele>
        <time>2018-07-28T07:29:09Z</time>
      </trkpt>
      <trkpt lat="36.6950759887695" lon="-5.01635980606079">
        <ele>1716.73291015625</ele>
        <time>2018-07-28T07:29:10Z</time>
      </trkpt>
      <trkpt lat="36.6950721740723" lon="-5.01637077331543">
        <ele>1716.77258300781</ele>
        <time>2018-07-28T07:29:11Z</time>
      </trkpt>
      <trkpt lat="36.695068359375" lon="-5.01638221740723">
        <ele>1716.80908203125</ele>
        <time>2018-07-28T07:29:12Z</time>
      </trkpt>
      <trkpt lat="36.695068359375" lon="-5.01639080047607">
        <ele>1716.7431640625</ele>
        <time>2018-07-28T07:29:13Z</time>
      </trkpt>
      <trkpt lat="36.695068359375" lon="-5.0164008140564">
        <ele>1716.66613769531</ele>
        <time>2018-07-28T07:29:14Z</time>
      </trkpt>
      <trkpt lat="36.6950721740723" lon="-5.01641321182251">
        <ele>1716.44494628906</ele>
        <time>2018-07-28T07:29:15Z</time>
      </trkpt>
      <trkpt lat="36.6950721740723" lon="-5.01642417907715">
        <ele>1716.36022949219</ele>
        <time>2018-07-28T07:29:16Z</time>
      </trkpt>
      <trkpt lat="36.6950721740723" lon="-5.01643800735474">
        <ele>1716.25354003906</ele>
        <time>2018-07-28T07:29:17Z</time>
      </trkpt>
      <trkpt lat="36.6950721740723" lon="-5.01645278930664">
        <ele>1716.13940429688</ele>
        <time>2018-07-28T07:29:18Z</time>
      </trkpt>
      <trkpt lat="36.6950759887695" lon="-5.01646995544434">
        <ele>1715.87951660156</ele>
        <time>2018-07-28T07:29:19Z</time>
      </trkpt>
      <trkpt lat="36.6950798034668" lon="-5.01648378372192">
        <ele>1715.64465332031</ele>
        <time>2018-07-28T07:29:20Z</time>
      </trkpt>
      <trkpt lat="36.6950836181641" lon="-5.01649522781372">
        <ele>1715.42761230469</ele>
        <time>2018-07-28T07:29:21Z</time>
      </trkpt>
      <trkpt lat="36.6950836181641" lon="-5.01650619506836">
        <ele>1715.34204101562</ele>
        <time>2018-07-28T07:29:22Z</time>
      </trkpt>
      <trkpt lat="36.6950836181641" lon="-5.016517162323">
        <ele>1715.25646972656</ele>
        <time>2018-07-28T07:29:23Z</time>
      </trkpt>
      <trkpt lat="36.6950874328613" lon="-5.01652812957764">
        <ele>1715.0419921875</ele>
        <time>2018-07-28T07:29:24Z</time>
      </trkpt>
      <trkpt lat="36.6950912475586" lon="-5.01653814315796">
        <ele>1714.83435058594</ele>
        <time>2018-07-28T07:29:25Z</time>
      </trkpt>
      <trkpt lat="36.6950912475586" lon="-5.01654720306396">
        <ele>1714.76318359375</ele>
        <time>2018-07-28T07:29:26Z</time>
      </trkpt>
      <trkpt lat="36.6950912475586" lon="-5.0165581703186">
        <ele>1714.67700195312</ele>
        <time>2018-07-28T07:29:27Z</time>
      </trkpt>
      <trkpt lat="36.6950912475586" lon="-5.01657009124756">
        <ele>1714.58337402344</ele>
        <time>2018-07-28T07:29:28Z</time>
      </trkpt>
      <trkpt lat="36.6950912475586" lon="-5.01658201217651">
        <ele>1714.48974609375</ele>
        <time>2018-07-28T07:29:29Z</time>
      </trkpt>
      <trkpt lat="36.6950874328613" lon="-5.0165958404541">
        <ele>1714.51184082031</ele>
        <time>2018-07-28T07:29:30Z</time>
      </trkpt>
      <trkpt lat="36.6950836181641" lon="-5.01661014556885">
        <ele>1714.53112792969</ele>
        <time>2018-07-28T07:29:31Z</time>
      </trkpt>
      <trkpt lat="36.6950836181641" lon="-5.01662492752075">
        <ele>1714.41577148438</ele>
        <time>2018-07-28T07:29:32Z</time>
      </trkpt>
      <trkpt lat="36.6950836181641" lon="-5.01663780212402">
        <ele>1714.31530761719</ele>
        <time>2018-07-28T07:29:33Z</time>
      </trkpt>
      <trkpt lat="36.6950836181641" lon="-5.01665115356445">
        <ele>1714.21118164062</ele>
        <time>2018-07-28T07:29:34Z</time>
      </trkpt>
      <trkpt lat="36.6950836181641" lon="-5.01666212081909">
        <ele>1714.12561035156</ele>
        <time>2018-07-28T07:29:35Z</time>
      </trkpt>
      <trkpt lat="36.6950798034668" lon="-5.01667213439941">
        <ele>1714.19653320312</ele>
        <time>2018-07-28T07:29:36Z</time>
      </trkpt>
      <trkpt lat="36.6950798034668" lon="-5.01668310165405">
        <ele>1714.14392089844</ele>
        <time>2018-07-28T07:29:37Z</time>
      </trkpt>
      <trkpt lat="36.6950759887695" lon="-5.01669311523438">
        <ele>1714.22863769531</ele>
        <time>2018-07-28T07:29:38Z</time>
      </trkpt>
      <trkpt lat="36.6950721740723" lon="-5.01670408248901">
        <ele>1714.30871582031</ele>
        <time>2018-07-28T07:29:39Z</time>
      </trkpt>
      <trkpt lat="36.695068359375" lon="-5.01671695709228">
        <ele>1714.37963867188</ele>
        <time>2018-07-28T07:29:40Z</time>
      </trkpt>
      <trkpt lat="36.6950645446777" lon="-5.01672887802124">
        <ele>1714.45520019531</ele>
        <time>2018-07-28T07:29:41Z</time>
      </trkpt>
      <trkpt lat="36.6950569152832" lon="-5.01673793792725">
        <ele>1714.67724609375</ele>
        <time>2018-07-28T07:29:42Z</time>
      </trkpt>
      <trkpt lat="36.6950531005859" lon="-5.01674699783325">
        <ele>1714.76647949219</ele>
        <time>2018-07-28T07:29:43Z</time>
      </trkpt>
      <trkpt lat="36.6950492858887" lon="-5.01675510406494">
        <ele>1714.8603515625</ele>
        <time>2018-07-28T07:29:44Z</time>
      </trkpt>
      <trkpt lat="36.6950454711914" lon="-5.01676321029663">
        <ele>1714.95422363281</ele>
        <time>2018-07-28T07:29:45Z</time>
      </trkpt>
      <trkpt lat="36.6950416564941" lon="-5.01676988601685">
        <ele>1715.05493164062</ele>
        <time>2018-07-28T07:29:46Z</time>
      </trkpt>
      <trkpt lat="36.6950378417969" lon="-5.01677703857422">
        <ele>1715.1533203125</ele>
        <time>2018-07-28T07:29:47Z</time>
      </trkpt>
      <trkpt lat="36.6950340270996" lon="-5.01678323745728">
        <ele>1715.25634765625</ele>
        <time>2018-07-28T07:29:48Z</time>
      </trkpt>
      <trkpt lat="36.6950263977051" lon="-5.01678895950317">
        <ele>1715.49438476562</ele>
        <time>2018-07-28T07:29:49Z</time>
      </trkpt>
      <trkpt lat="36.6950225830078" lon="-5.01679611206055">
        <ele>1715.5927734375</ele>
        <time>2018-07-28T07:29:50Z</time>
      </trkpt>
      <trkpt lat="36.6950187683106" lon="-5.01680517196655">
        <ele>1715.68200683594</ele>
        <time>2018-07-28T07:29:51Z</time>
      </trkpt>
      <trkpt lat="36.6950149536133" lon="-5.01681280136108">
        <ele>1715.77819824219</ele>
        <time>2018-07-28T07:29:52Z</time>
      </trkpt>
      <trkpt lat="36.6950149536133" lon="-5.01681995391846">
        <ele>1715.74389648438</ele>
        <time>2018-07-28T07:29:53Z</time>
      </trkpt>
      <trkpt lat="36.6950187683106" lon="-5.01682710647583">
        <ele>1715.57678222656</ele>
        <time>2018-07-28T07:29:54Z</time>
      </trkpt>
      <trkpt lat="36.6950187683106" lon="-5.01683378219604">
        <ele>1715.54467773438</ele>
        <time>2018-07-28T07:29:55Z</time>
      </trkpt>
      <trkpt lat="36.6950187683106" lon="-5.01684188842773">
        <ele>1715.505859375</ele>
        <time>2018-07-28T07:29:56Z</time>
      </trkpt>
      <trkpt lat="36.6950187683106" lon="-5.01685190200806">
        <ele>1715.45776367188</ele>
        <time>2018-07-28T07:29:57Z</time>
      </trkpt>
      <trkpt lat="36.6950149536133" lon="-5.0168628692627">
        <ele>1715.53784179688</ele>
        <time>2018-07-28T07:29:58Z</time>
      </trkpt>
      <trkpt lat="36.695011138916" lon="-5.01687288284302">
        <ele>1715.62255859375</ele>
        <time>2018-07-28T07:29:59Z</time>
      </trkpt>
      <trkpt lat="36.695011138916" lon="-5.01688289642334">
        <ele>1715.57446289062</ele>
        <time>2018-07-28T07:30:00Z</time>
      </trkpt>
      <trkpt lat="36.6950035095215" lon="-5.01689291000366">
        <ele>1715.79187011719</ele>
        <time>2018-07-28T07:30:01Z</time>
      </trkpt>
      <trkpt lat="36.6949996948242" lon="-5.01690196990967">
        <ele>1715.88146972656</ele>
        <time>2018-07-28T07:30:02Z</time>
      </trkpt>
      <trkpt lat="36.694995880127" lon="-5.01691198348999">
        <ele>1715.96899414062</ele>
        <time>2018-07-28T07:30:03Z</time>
      </trkpt>
      <trkpt lat="36.6949920654297" lon="-5.01692295074463">
        <ele>1716.05114746094</ele>
        <time>2018-07-28T07:30:04Z</time>
      </trkpt>
      <trkpt lat="36.6949920654297" lon="-5.01693201065064">
        <ele>1716.0068359375</ele>
        <time>2018-07-28T07:30:05Z</time>
      </trkpt>
      <trkpt lat="36.6949882507324" lon="-5.01693677902222">
        <ele>1716.11804199219</ele>
        <time>2018-07-28T07:30:06Z</time>
      </trkpt>
      <trkpt lat="36.6949882507324" lon="-5.01693820953369">
        <ele>1716.11096191406</ele>
        <time>2018-07-28T07:30:07Z</time>
      </trkpt>
      <trkpt lat="36.6949882507324" lon="-5.01694107055664">
        <ele>1716.09692382812</ele>
        <time>2018-07-28T07:30:08Z</time>
      </trkpt>
      <trkpt lat="36.6949882507324" lon="-5.01694583892822">
        <ele>1716.07336425781</ele>
        <time>2018-07-28T07:30:09Z</time>
      </trkpt>
      <trkpt lat="36.6949920654297" lon="-5.01695203781128">
        <ele>1715.90881347656</ele>
        <time>2018-07-28T07:30:10Z</time>
      </trkpt>
      <trkpt lat="36.6949882507324" lon="-5.01695919036865">
        <ele>1716.00744628906</ele>
        <time>2018-07-28T07:30:11Z</time>
      </trkpt>
      <trkpt lat="36.6949882507324" lon="-5.01696920394897">
        <ele>1715.9580078125</ele>
        <time>2018-07-28T07:30:12Z</time>
      </trkpt>
      <trkpt lat="36.6949844360352" lon="-5.01698017120361">
        <ele>1716.03662109375</ele>
        <time>2018-07-28T07:30:13Z</time>
      </trkpt>
      <trkpt lat="36.6949844360352" lon="-5.01699209213257">
        <ele>1715.97729492188</ele>
        <time>2018-07-28T07:30:14Z</time>
      </trkpt>
      <trkpt lat="36.6949806213379" lon="-5.01700305938721">
        <ele>1716.05432128906</ele>
        <time>2018-07-28T07:30:15Z</time>
      </trkpt>
      <trkpt lat="36.6949768066406" lon="-5.01701402664185">
        <ele>1716.13049316406</ele>
        <time>2018-07-28T07:30:16Z</time>
      </trkpt>
      <trkpt lat="36.6949768066406" lon="-5.01702499389648">
        <ele>1716.07495117188</ele>
        <time>2018-07-28T07:30:17Z</time>
      </trkpt>
      <trkpt lat="36.6949768066406" lon="-5.01703596115112">
        <ele>1716.01928710938</ele>
        <time>2018-07-28T07:30:18Z</time>
      </trkpt>
      <trkpt lat="36.6949768066406" lon="-5.01704692840576">
        <ele>1715.96374511719</ele>
        <time>2018-07-28T07:30:19Z</time>
      </trkpt>
      <trkpt lat="36.6949729919434" lon="-5.01705694198608">
        <ele>1716.04235839844</ele>
        <time>2018-07-28T07:30:20Z</time>
      </trkpt>
      <trkpt lat="36.6949729919434" lon="-5.01706409454346">
        <ele>1716.005859375</ele>
        <time>2018-07-28T07:30:21Z</time>
      </trkpt>
      <trkpt lat="36.6949729919434" lon="-5.01706790924072">
        <ele>1715.986328125</ele>
        <time>2018-07-28T07:30:22Z</time>
      </trkpt>
      <trkpt lat="36.6949768066406" lon="-5.01706981658936">
        <ele>1715.84777832031</ele>
        <time>2018-07-28T07:30:23Z</time>
      </trkpt>
      <trkpt lat="36.6949768066406" lon="-5.01707077026367">
        <ele>1715.84289550781</ele>
        <time>2018-07-28T07:30:24Z</time>
      </trkpt>
      <trkpt lat="36.6949768066406" lon="-5.01707315444946">
        <ele>1715.83093261719</ele>
        <time>2018-07-28T07:30:25Z</time>
      </trkpt>
      <trkpt lat="36.6949768066406" lon="-5.01707410812378">
        <ele>1715.82604980469</ele>
        <time>2018-07-28T07:30:26Z</time>
      </trkpt>
      <trkpt lat="36.6949768066406" lon="-5.01707410812378">
        <ele>1715.82604980469</ele>
        <time>2018-07-28T07:30:27Z</time>
      </trkpt>
      <trkpt lat="36.6949806213379" lon="-5.01707220077515">
        <ele>1715.70703125</ele>
        <time>2018-07-28T07:30:28Z</time>
      </trkpt>
      <trkpt lat="36.6949806213379" lon="-5.01707077026367">
        <ele>1715.71423339844</ele>
        <time>2018-07-28T07:30:29Z</time>
      </trkpt>
      <trkpt lat="36.6949806213379" lon="-5.01707077026367">
        <ele>1715.71423339844</ele>
        <time>2018-07-28T07:30:30Z</time>
      </trkpt>
      <trkpt lat="36.6949806213379" lon="-5.01707077026367">
        <ele>1715.71423339844</ele>
        <time>2018-07-28T07:30:31Z</time>
      </trkpt>
      <trkpt lat="36.6949806213379" lon="-5.01707315444946">
        <ele>1715.70227050781</ele>
        <time>2018-07-28T07:30:32Z</time>
      </trkpt>
      <trkpt lat="36.6949806213379" lon="-5.01707696914673">
        <ele>1715.68310546875</ele>
        <time>2018-07-28T07:30:33Z</time>
      </trkpt>
      <trkpt lat="36.6949806213379" lon="-5.0170841217041">
        <ele>1715.64721679688</ele>
        <time>2018-07-28T07:30:34Z</time>
      </trkpt>
      <trkpt lat="36.6949806213379" lon="-5.01709413528442">
        <ele>1715.59680175781</ele>
        <time>2018-07-28T07:30:35Z</time>
      </trkpt>
      <trkpt lat="36.6949806213379" lon="-5.0171070098877">
        <ele>1715.5322265625</ele>
        <time>2018-07-28T07:30:36Z</time>
      </trkpt>
      <trkpt lat="36.6949806213379" lon="-5.01712083816528">
        <ele>1715.46276855469</ele>
        <time>2018-07-28T07:30:37Z</time>
      </trkpt>
      <trkpt lat="36.6949806213379" lon="-5.01713514328003">
        <ele>1715.39086914062</ele>
        <time>2018-07-28T07:30:38Z</time>
      </trkpt>
      <trkpt lat="36.6949768066406" lon="-5.01714706420898">
        <ele>1715.45642089844</ele>
        <time>2018-07-28T07:30:39Z</time>
      </trkpt>
      <trkpt lat="36.6949729919434" lon="-5.01715803146362">
        <ele>1715.52563476562</ele>
        <time>2018-07-28T07:30:40Z</time>
      </trkpt>
      <trkpt lat="36.6949691772461" lon="-5.01716804504394">
        <ele>1715.59899902344</ele>
        <time>2018-07-28T07:30:41Z</time>
      </trkpt>
      <trkpt lat="36.6949691772461" lon="-5.01717901229858">
        <ele>1715.54235839844</ele>
        <time>2018-07-28T07:30:42Z</time>
      </trkpt>
      <trkpt lat="36.6949653625488" lon="-5.01718997955322">
        <ele>1715.609375</ele>
        <time>2018-07-28T07:30:43Z</time>
      </trkpt>
      <trkpt lat="36.6949653625488" lon="-5.01719903945923">
        <ele>1715.56225585938</ele>
        <time>2018-07-28T07:30:44Z</time>
      </trkpt>
      <trkpt lat="36.6949653625488" lon="-5.01720809936523">
        <ele>1715.51513671875</ele>
        <time>2018-07-28T07:30:45Z</time>
      </trkpt>
      <trkpt lat="36.6949615478516" lon="-5.01721715927124">
        <ele>1715.59033203125</ele>
        <time>2018-07-28T07:30:46Z</time>
      </trkpt>
      <trkpt lat="36.6949577331543" lon="-5.01722717285156">
        <ele>1715.65966796875</ele>
        <time>2018-07-28T07:30:47Z</time>
      </trkpt>
      <trkpt lat="36.6949501037598" lon="-5.01723718643188">
        <ele>1715.849609375</ele>
        <time>2018-07-28T07:30:48Z</time>
      </trkpt>
      <trkpt lat="36.6949462890625" lon="-5.01724720001221">
        <ele>1715.91674804688</ele>
        <time>2018-07-28T07:30:49Z</time>
      </trkpt>
      <trkpt lat="36.6949424743652" lon="-5.01726007461548">
        <ele>1715.96740722656</ele>
        <time>2018-07-28T07:30:50Z</time>
      </trkpt>
      <trkpt lat="36.694938659668" lon="-5.01727485656738">
        <ele>1716.00634765625</ele>
        <time>2018-07-28T07:30:51Z</time>
      </trkpt>
      <trkpt lat="36.694938659668" lon="-5.01729011535644">
        <ele>1715.92236328125</ele>
        <time>2018-07-28T07:30:52Z</time>
      </trkpt>
      <trkpt lat="36.6949348449707" lon="-5.01730394363403">
        <ele>1715.96472167969</ele>
        <time>2018-07-28T07:30:53Z</time>
      </trkpt>
      <trkpt lat="36.6949310302734" lon="-5.01731395721436">
        <ele>1716.02709960938</ele>
        <time>2018-07-28T07:30:54Z</time>
      </trkpt>
      <trkpt lat="36.6949272155762" lon="-5.01732301712036">
        <ele>1716.09411621094</ele>
        <time>2018-07-28T07:30:55Z</time>
      </trkpt>
      <trkpt lat="36.6949234008789" lon="-5.01733207702637">
        <ele>1716.16027832031</ele>
        <time>2018-07-28T07:30:56Z</time>
      </trkpt>
      <trkpt lat="36.6949195861816" lon="-5.01734018325806">
        <ele>1716.23107910156</ele>
        <time>2018-07-28T07:30:57Z</time>
      </trkpt>
      <trkpt lat="36.6949157714844" lon="-5.01734685897827">
        <ele>1716.30944824219</ele>
        <time>2018-07-28T07:30:58Z</time>
      </trkpt>
      <trkpt lat="36.6949119567871" lon="-5.01735401153564">
        <ele>1716.38439941406</ele>
        <time>2018-07-28T07:30:59Z</time>
      </trkpt>
      <trkpt lat="36.6949081420898" lon="-5.01736402511597">
        <ele>1716.44201660156</ele>
        <time>2018-07-28T07:31:00Z</time>
      </trkpt>
      <trkpt lat="36.6949043273926" lon="-5.01737213134766">
        <ele>1716.51013183594</ele>
        <time>2018-07-28T07:31:01Z</time>
      </trkpt>
      <trkpt lat="36.6949005126953" lon="-5.01738119125366">
        <ele>1716.57165527344</ele>
        <time>2018-07-28T07:31:02Z</time>
      </trkpt>
      <trkpt lat="36.694896697998" lon="-5.01738786697388">
        <ele>1716.64672851562</ele>
        <time>2018-07-28T07:31:03Z</time>
      </trkpt>
      <trkpt lat="36.694896697998" lon="-5.01739597320557">
        <ele>1716.59826660156</ele>
        <time>2018-07-28T07:31:04Z</time>
      </trkpt>
      <trkpt lat="36.694896697998" lon="-5.01740407943726">
        <ele>1716.54968261719</ele>
        <time>2018-07-28T07:31:05Z</time>
      </trkpt>
      <trkpt lat="36.694896697998" lon="-5.01741313934326">
        <ele>1716.49536132812</ele>
        <time>2018-07-28T07:31:06Z</time>
      </trkpt>
      <trkpt lat="36.694896697998" lon="-5.0174241065979">
        <ele>1716.4296875</ele>
        <time>2018-07-28T07:31:07Z</time>
      </trkpt>
      <trkpt lat="36.6948928833008" lon="-5.01743698120117">
        <ele>1716.46520996094</ele>
        <time>2018-07-28T07:31:08Z</time>
      </trkpt>
      <trkpt lat="36.6948928833008" lon="-5.01744794845581">
        <ele>1716.39904785156</ele>
        <time>2018-07-28T07:31:09Z</time>
      </trkpt>
      <trkpt lat="36.6948928833008" lon="-5.0174560546875">
        <ele>1716.35009765625</ele>
        <time>2018-07-28T07:31:10Z</time>
      </trkpt>
      <trkpt lat="36.6948928833008" lon="-5.01746511459351">
        <ele>1716.29541015625</ele>
        <time>2018-07-28T07:31:11Z</time>
      </trkpt>
      <trkpt lat="36.694896697998" lon="-5.01747417449951">
        <ele>1716.12976074219</ele>
        <time>2018-07-28T07:31:12Z</time>
      </trkpt>
      <trkpt lat="36.6948928833008" lon="-5.01748418807983">
        <ele>1716.18041992188</ele>
        <time>2018-07-28T07:31:13Z</time>
      </trkpt>
      <trkpt lat="36.6948928833008" lon="-5.01749277114868">
        <ele>1716.12854003906</ele>
        <time>2018-07-28T07:31:14Z</time>
      </trkpt>
      <trkpt lat="36.6948928833008" lon="-5.01750183105469">
        <ele>1716.06176757812</ele>
        <time>2018-07-28T07:31:15Z</time>
      </trkpt>
      <trkpt lat="36.694896697998" lon="-5.01750993728638">
        <ele>1715.84997558594</ele>
        <time>2018-07-28T07:31:16Z</time>
      </trkpt>
      <trkpt lat="36.694896697998" lon="-5.01751613616943">
        <ele>1715.77197265625</ele>
        <time>2018-07-28T07:31:17Z</time>
      </trkpt>
      <trkpt lat="36.6948928833008" lon="-5.01752185821533">
        <ele>1715.80847167969</ele>
        <time>2018-07-28T07:31:18Z</time>
      </trkpt>
      <trkpt lat="36.6948928833008" lon="-5.0175290107727">
        <ele>1715.71789550781</ele>
        <time>2018-07-28T07:31:19Z</time>
      </trkpt>
      <trkpt lat="36.6948890686035" lon="-5.01753711700439">
        <ele>1715.72277832031</ele>
        <time>2018-07-28T07:31:20Z</time>
      </trkpt>
      <trkpt lat="36.6948928833008" lon="-5.01754713058472">
        <ele>1715.48876953125</ele>
        <time>2018-07-28T07:31:21Z</time>
      </trkpt>
      <trkpt lat="36.6948928833008" lon="-5.01755714416504">
        <ele>1715.36206054688</ele>
        <time>2018-07-28T07:31:22Z</time>
      </trkpt>
      <trkpt lat="36.694896697998" lon="-5.01756620407104">
        <ele>1715.14196777344</ele>
        <time>2018-07-28T07:31:23Z</time>
      </trkpt>
      <trkpt lat="36.694896697998" lon="-5.01757383346558">
        <ele>1715.0458984375</ele>
        <time>2018-07-28T07:31:24Z</time>
      </trkpt>
      <trkpt lat="36.6949005126953" lon="-5.01758003234863">
        <ele>1714.86328125</ele>
        <time>2018-07-28T07:31:25Z</time>
      </trkpt>
      <trkpt lat="36.6949043273926" lon="-5.01758813858032">
        <ele>1714.65771484375</ele>
        <time>2018-07-28T07:31:26Z</time>
      </trkpt>
      <trkpt lat="36.6949043273926" lon="-5.01759576797485">
        <ele>1714.56274414062</ele>
        <time>2018-07-28T07:31:27Z</time>
      </trkpt>
      <trkpt lat="36.6949081420898" lon="-5.01760387420654">
        <ele>1714.35876464844</ele>
        <time>2018-07-28T07:31:28Z</time>
      </trkpt>
      <trkpt lat="36.6949119567871" lon="-5.0176100730896">
        <ele>1714.17944335938</ele>
        <time>2018-07-28T07:31:29Z</time>
      </trkpt>
      <trkpt lat="36.6949119567871" lon="-5.01761484146118">
        <ele>1714.12060546875</ele>
        <time>2018-07-28T07:31:30Z</time>
      </trkpt>
      <trkpt lat="36.6949157714844" lon="-5.01762104034424">
        <ele>1713.9423828125</ele>
        <time>2018-07-28T07:31:31Z</time>
      </trkpt>
      <trkpt lat="36.6949195861816" lon="-5.01762819290161">
        <ele>1713.75329589844</ele>
        <time>2018-07-28T07:31:32Z</time>
      </trkpt>
      <trkpt lat="36.6949195861816" lon="-5.01763486862183">
        <ele>1713.671875</ele>
        <time>2018-07-28T07:31:33Z</time>
      </trkpt>
      <trkpt lat="36.6949234008789" lon="-5.0176420211792">
        <ele>1713.48425292969</ele>
        <time>2018-07-28T07:31:34Z</time>
      </trkpt>
      <trkpt lat="36.6949272155762" lon="-5.01765012741089">
        <ele>1713.28601074219</ele>
        <time>2018-07-28T07:31:35Z</time>
      </trkpt>
      <trkpt lat="36.6949348449707" lon="-5.01765823364258">
        <ele>1712.98937988281</ele>
        <time>2018-07-28T07:31:36Z</time>
      </trkpt>
      <trkpt lat="36.694938659668" lon="-5.01766681671143">
        <ele>1712.78820800781</ele>
        <time>2018-07-28T07:31:37Z</time>
      </trkpt>
      <trkpt lat="36.6949424743652" lon="-5.01767492294312">
        <ele>1712.59375</ele>
        <time>2018-07-28T07:31:38Z</time>
      </trkpt>
      <trkpt lat="36.6949462890625" lon="-5.01768112182617">
        <ele>1712.42260742188</ele>
        <time>2018-07-28T07:31:39Z</time>
      </trkpt>
      <trkpt lat="36.6949462890625" lon="-5.01768493652344">
        <ele>1712.3779296875</ele>
        <time>2018-07-28T07:31:40Z</time>
      </trkpt>
      <trkpt lat="36.6949462890625" lon="-5.01768684387207">
        <ele>1712.35559082031</ele>
        <time>2018-07-28T07:31:41Z</time>
      </trkpt>
      <trkpt lat="36.6949462890625" lon="-5.01769018173218">
        <ele>1712.31640625</ele>
        <time>2018-07-28T07:31:42Z</time>
      </trkpt>
      <trkpt lat="36.6949501037598" lon="-5.01769495010376">
        <ele>1712.16345214844</ele>
        <time>2018-07-28T07:31:43Z</time>
      </trkpt>
      <trkpt lat="36.6949501037598" lon="-5.01770401000977">
        <ele>1712.05786132812</ele>
        <time>2018-07-28T07:31:44Z</time>
      </trkpt>
      <trkpt lat="36.6949577331543" lon="-5.0177149772644">
        <ele>1711.73852539062</ele>
        <time>2018-07-28T07:31:45Z</time>
      </trkpt>
      <trkpt lat="36.6949615478516" lon="-5.01772689819336">
        <ele>1711.50610351562</ele>
        <time>2018-07-28T07:31:46Z</time>
      </trkpt>
      <trkpt lat="36.6949691772461" lon="-5.01773691177368">
        <ele>1711.20288085938</ele>
        <time>2018-07-28T07:31:47Z</time>
      </trkpt>
      <trkpt lat="36.6949768066406" lon="-5.017746925354">
        <ele>1710.90222167969</ele>
        <time>2018-07-28T07:31:48Z</time>
      </trkpt>
      <trkpt lat="36.6949806213379" lon="-5.01775503158569">
        <ele>1710.71838378906</ele>
        <time>2018-07-28T07:31:49Z</time>
      </trkpt>
      <trkpt lat="36.6949844360352" lon="-5.01776599884033">
        <ele>1710.50390625</ele>
        <time>2018-07-28T07:31:50Z</time>
      </trkpt>
      <trkpt lat="36.6949920654297" lon="-5.01777505874634">
        <ele>1710.22021484375</ele>
        <time>2018-07-28T07:31:51Z</time>
      </trkpt>
      <trkpt lat="36.6949996948242" lon="-5.01778602600098">
        <ele>1709.91821289062</ele>
        <time>2018-07-28T07:31:52Z</time>
      </trkpt>
      <trkpt lat="36.6950073242188" lon="-5.01779413223267">
        <ele>1709.59948730469</ele>
        <time>2018-07-28T07:31:53Z</time>
      </trkpt>
      <trkpt lat="36.695011138916" lon="-5.0178017616272">
        <ele>1709.40173339844</ele>
        <time>2018-07-28T07:31:54Z</time>
      </trkpt>
      <trkpt lat="36.6950149536133" lon="-5.01780700683594">
        <ele>1709.23010253906</ele>
        <time>2018-07-28T07:31:55Z</time>
      </trkpt>
      <trkpt lat="36.6950187683106" lon="-5.01780986785889">
        <ele>1709.083984375</ele>
        <time>2018-07-28T07:31:56Z</time>
      </trkpt>
      <trkpt lat="36.6950225830078" lon="-5.01781177520752">
        <ele>1708.94836425781</ele>
        <time>2018-07-28T07:31:57Z</time>
      </trkpt>
      <trkpt lat="36.6950225830078" lon="-5.01781415939331">
        <ele>1708.92333984375</ele>
        <time>2018-07-28T07:31:58Z</time>
      </trkpt>
      <trkpt lat="36.6950225830078" lon="-5.01781606674194">
        <ele>1708.9033203125</ele>
        <time>2018-07-28T07:31:59Z</time>
      </trkpt>
      <trkpt lat="36.6950225830078" lon="-5.01781797409058">
        <ele>1708.88342285156</ele>
        <time>2018-07-28T07:32:00Z</time>
      </trkpt>
      <trkpt lat="36.6950225830078" lon="-5.01781892776489">
        <ele>1708.87341308594</ele>
        <time>2018-07-28T07:32:01Z</time>
      </trkpt>
      <trkpt lat="36.6950263977051" lon="-5.01782083511353">
        <ele>1708.73828125</ele>
        <time>2018-07-28T07:32:02Z</time>
      </trkpt>
      <trkpt lat="36.6950263977051" lon="-5.01782083511353">
        <ele>1708.73828125</ele>
        <time>2018-07-28T07:32:03Z</time>
      </trkpt>
      <trkpt lat="36.6950263977051" lon="-5.01782083511353">
        <ele>1708.73828125</ele>
        <time>2018-07-28T07:32:04Z</time>
      </trkpt>
      <trkpt lat="36.6950263977051" lon="-5.01781892776489">
        <ele>1708.75817871094</ele>
        <time>2018-07-28T07:32:05Z</time>
      </trkpt>
      <trkpt lat="36.6950263977051" lon="-5.01781702041626">
        <ele>1708.77807617188</ele>
        <time>2018-07-28T07:32:06Z</time>
      </trkpt>
      <trkpt lat="36.6950263977051" lon="-5.01781606674194">
        <ele>1708.78796386719</ele>
        <time>2018-07-28T07:32:07Z</time>
      </trkpt>
      <trkpt lat="36.6950263977051" lon="-5.01781606674194">
        <ele>1708.78796386719</ele>
        <time>2018-07-28T07:32:08Z</time>
      </trkpt>
      <trkpt lat="36.6950263977051" lon="-5.01781606674194">
        <ele>1708.78796386719</ele>
        <time>2018-07-28T07:32:09Z</time>
      </trkpt>
      <trkpt lat="36.6950263977051" lon="-5.01781702041626">
        <ele>1708.77807617188</ele>
        <time>2018-07-28T07:32:10Z</time>
      </trkpt>
      <trkpt lat="36.6950263977051" lon="-5.01781702041626">
        <ele>1708.77807617188</ele>
        <time>2018-07-28T07:32:11Z</time>
      </trkpt>
      <trkpt lat="36.6950263977051" lon="-5.01781702041626">
        <ele>1708.77807617188</ele>
        <time>2018-07-28T07:32:12Z</time>
      </trkpt>
      <trkpt lat="36.6950263977051" lon="-5.01781606674194">
        <ele>1708.78796386719</ele>
        <time>2018-07-28T07:32:13Z</time>
      </trkpt>
      <trkpt lat="36.6950263977051" lon="-5.01781606674194">
        <ele>1708.78796386719</ele>
        <time>2018-07-28T07:32:14Z</time>
      </trkpt>
      <trkpt lat="36.6950263977051" lon="-5.01781606674194">
        <ele>1708.78796386719</ele>
        <time>2018-07-28T07:32:15Z</time>
      </trkpt>
      <trkpt lat="36.6950263977051" lon="-5.01781702041626">
        <ele>1708.77807617188</ele>
        <time>2018-07-28T07:32:16Z</time>
      </trkpt>
      <trkpt lat="36.6950263977051" lon="-5.01781797409058">
        <ele>1708.76806640625</ele>
        <time>2018-07-28T07:32:17Z</time>
      </trkpt>
      <trkpt lat="36.6950263977051" lon="-5.01781892776489">
        <ele>1708.75817871094</ele>
        <time>2018-07-28T07:32:18Z</time>
      </trkpt>
      <trkpt lat="36.6950263977051" lon="-5.01781892776489">
        <ele>1708.75817871094</ele>
        <time>2018-07-28T07:32:19Z</time>
      </trkpt>
      <trkpt lat="36.6950263977051" lon="-5.01781892776489">
        <ele>1708.75817871094</ele>
        <time>2018-07-28T07:32:20Z</time>
      </trkpt>
      <trkpt lat="36.6950263977051" lon="-5.01781892776489">
        <ele>1708.75817871094</ele>
        <time>2018-07-28T07:32:21Z</time>
      </trkpt>
      <trkpt lat="36.6950263977051" lon="-5.01781988143921">
        <ele>1708.74829101562</ele>
        <time>2018-07-28T07:32:22Z</time>
      </trkpt>
      <trkpt lat="36.6950263977051" lon="-5.01781988143921">
        <ele>1708.74829101562</ele>
        <time>2018-07-28T07:32:23Z</time>
      </trkpt>
      <trkpt lat="36.6950225830078" lon="-5.01781988143921">
        <ele>1708.86340332031</ele>
        <time>2018-07-28T07:32:24Z</time>
      </trkpt>
      <trkpt lat="36.6950263977051" lon="-5.01781892776489">
        <ele>1708.75817871094</ele>
        <time>2018-07-28T07:32:25Z</time>
      </trkpt>
      <trkpt lat="36.6950225830078" lon="-5.01781702041626">
        <ele>1708.89343261719</ele>
        <time>2018-07-28T07:32:26Z</time>
      </trkpt>
      <trkpt lat="36.6950225830078" lon="-5.01781415939331">
        <ele>1708.92333984375</ele>
        <time>2018-07-28T07:32:27Z</time>
      </trkpt>
      <trkpt lat="36.6950225830078" lon="-5.01781415939331">
        <ele>1708.92333984375</ele>
        <time>2018-07-28T07:32:28Z</time>
      </trkpt>
      <trkpt lat="36.6950225830078" lon="-5.01781511306763">
        <ele>1708.91333007812</ele>
        <time>2018-07-28T07:32:29Z</time>
      </trkpt>
      <trkpt lat="36.6950225830078" lon="-5.01781606674194">
        <ele>1708.9033203125</ele>
        <time>2018-07-28T07:32:30Z</time>
      </trkpt>
      <trkpt lat="36.6950225830078" lon="-5.01781702041626">
        <ele>1708.89343261719</ele>
        <time>2018-07-28T07:32:31Z</time>
      </trkpt>
      <trkpt lat="36.6950225830078" lon="-5.01781797409058">
        <ele>1708.88342285156</ele>
        <time>2018-07-28T07:32:32Z</time>
      </trkpt>
      <trkpt lat="36.6950225830078" lon="-5.01781892776489">
        <ele>1708.87341308594</ele>
        <time>2018-07-28T07:32:33Z</time>
      </trkpt>
      <trkpt lat="36.6950225830078" lon="-5.01781988143921">
        <ele>1708.86340332031</ele>
        <time>2018-07-28T07:32:34Z</time>
      </trkpt>
      <trkpt lat="36.6950225830078" lon="-5.01781988143921">
        <ele>1708.86340332031</ele>
        <time>2018-07-28T07:32:35Z</time>
      </trkpt>
      <trkpt lat="36.6950225830078" lon="-5.01781988143921">
        <ele>1708.86340332031</ele>
        <time>2018-07-28T07:32:36Z</time>
      </trkpt>
      <trkpt lat="36.6950263977051" lon="-5.01781988143921">
        <ele>1708.74829101562</ele>
        <time>2018-07-28T07:32:37Z</time>
      </trkpt>
      <trkpt lat="36.6950263977051" lon="-5.01781892776489">
        <ele>1708.75817871094</ele>
        <time>2018-07-28T07:32:38Z</time>
      </trkpt>
      <trkpt lat="36.6950263977051" lon="-5.01781702041626">
        <ele>1708.77807617188</ele>
        <time>2018-07-28T07:32:39Z</time>
      </trkpt>
      <trkpt lat="36.6950263977051" lon="-5.01781606674194">
        <ele>1708.78796386719</ele>
        <time>2018-07-28T07:32:40Z</time>
      </trkpt>
      <trkpt lat="36.6950225830078" lon="-5.01781511306763">
        <ele>1708.91333007812</ele>
        <time>2018-07-28T07:32:41Z</time>
      </trkpt>
      <trkpt lat="36.6950225830078" lon="-5.01781511306763">
        <ele>1708.91333007812</ele>
        <time>2018-07-28T07:32:42Z</time>
      </trkpt>
      <trkpt lat="36.6950263977051" lon="-5.01781415939331">
        <ele>1708.80786132812</ele>
        <time>2018-07-28T07:32:43Z</time>
      </trkpt>
      <trkpt lat="36.6950263977051" lon="-5.01781415939331">
        <ele>1708.80786132812</ele>
        <time>2018-07-28T07:32:44Z</time>
      </trkpt>
      <trkpt lat="36.6950263977051" lon="-5.01781415939331">
        <ele>1708.80786132812</ele>
        <time>2018-07-28T07:32:45Z</time>
      </trkpt>
      <trkpt lat="36.6950263977051" lon="-5.01781415939331">
        <ele>1708.80786132812</ele>
        <time>2018-07-28T07:32:46Z</time>
      </trkpt>
      <trkpt lat="36.6950263977051" lon="-5.01781511306763">
        <ele>1708.79797363281</ele>
        <time>2018-07-28T07:32:47Z</time>
      </trkpt>
      <trkpt lat="36.6950263977051" lon="-5.01781702041626">
        <ele>1708.77807617188</ele>
        <time>2018-07-28T07:32:48Z</time>
      </trkpt>
      <trkpt lat="36.6950302124023" lon="-5.01782321929932">
        <ele>1708.59851074219</ele>
        <time>2018-07-28T07:32:49Z</time>
      </trkpt>
      <trkpt lat="36.6950340270996" lon="-5.01783323287964">
        <ele>1708.38024902344</ele>
        <time>2018-07-28T07:32:50Z</time>
      </trkpt>
      <trkpt lat="36.6950416564941" lon="-5.0178427696228">
        <ele>1708.05407714844</ele>
        <time>2018-07-28T07:32:51Z</time>
      </trkpt>
      <trkpt lat="36.6950454711914" lon="-5.01785278320312">
        <ele>1707.83850097656</ele>
        <time>2018-07-28T07:32:52Z</time>
      </trkpt>
      <trkpt lat="36.6950492858887" lon="-5.01786184310913">
        <ele>1707.6337890625</ele>
        <time>2018-07-28T07:32:53Z</time>
      </trkpt>
      <trkpt lat="36.6950531005859" lon="-5.01786994934082">
        <ele>1707.43957519531</ele>
        <time>2018-07-28T07:32:54Z</time>
      </trkpt>
      <trkpt lat="36.6950531005859" lon="-5.01787710189819">
        <ele>1707.36779785156</ele>
        <time>2018-07-28T07:32:55Z</time>
      </trkpt>
      <trkpt lat="36.6950569152832" lon="-5.01788282394409">
        <ele>1707.19860839844</ele>
        <time>2018-07-28T07:32:56Z</time>
      </trkpt>
      <trkpt lat="36.6950607299805" lon="-5.01788997650146">
        <ele>1707.01586914062</ele>
        <time>2018-07-28T07:32:57Z</time>
      </trkpt>
      <trkpt lat="36.6950607299805" lon="-5.01789617538452">
        <ele>1706.95434570312</ele>
        <time>2018-07-28T07:32:58Z</time>
      </trkpt>
      <trkpt lat="36.6950645446777" lon="-5.01790285110474">
        <ele>1706.77746582031</ele>
        <time>2018-07-28T07:32:59Z</time>
      </trkpt>
      <trkpt lat="36.695068359375" lon="-5.01791000366211">
        <ele>1706.5966796875</ele>
        <time>2018-07-28T07:33:00Z</time>
      </trkpt>
      <trkpt lat="36.6950759887695" lon="-5.01791715621948">
        <ele>1706.30676269531</ele>
        <time>2018-07-28T07:33:01Z</time>
      </trkpt>
      <trkpt lat="36.6950798034668" lon="-5.01792478561401">
        <ele>1706.12329101562</ele>
        <time>2018-07-28T07:33:02Z</time>
      </trkpt>
      <trkpt lat="36.6950836181641" lon="-5.01793098449707">
        <ele>1705.95434570312</ele>
        <time>2018-07-28T07:33:03Z</time>
      </trkpt>
      <trkpt lat="36.6950874328613" lon="-5.01793622970581">
        <ele>1705.79528808594</ele>
        <time>2018-07-28T07:33:04Z</time>
      </trkpt>
      <trkpt lat="36.6950912475586" lon="-5.01794004440308">
        <ele>1705.65026855469</ele>
        <time>2018-07-28T07:33:05Z</time>
      </trkpt>
      <trkpt lat="36.6950988769531" lon="-5.01794385910034">
        <ele>1705.39733886719</ele>
        <time>2018-07-28T07:33:06Z</time>
      </trkpt>
      <trkpt lat="36.6951026916504" lon="-5.01794815063477">
        <ele>1705.2490234375</ele>
        <time>2018-07-28T07:33:07Z</time>
      </trkpt>
      <trkpt lat="36.6951065063477" lon="-5.01795196533203">
        <ele>1705.10546875</ele>
        <time>2018-07-28T07:33:08Z</time>
      </trkpt>
      <trkpt lat="36.6951103210449" lon="-5.01795721054077">
        <ele>1704.94934082031</ele>
        <time>2018-07-28T07:33:09Z</time>
      </trkpt>
      <trkpt lat="36.6951141357422" lon="-5.01796197891235">
        <ele>1704.79797363281</ele>
        <time>2018-07-28T07:33:10Z</time>
      </trkpt>
      <trkpt lat="36.6951141357422" lon="-5.01796722412109">
        <ele>1704.75</ele>
        <time>2018-07-28T07:33:11Z</time>
      </trkpt>
      <trkpt lat="36.6951141357422" lon="-5.01796913146973">
        <ele>1704.73254394531</ele>
        <time>2018-07-28T07:33:12Z</time>
      </trkpt>
      <trkpt lat="36.6951141357422" lon="-5.01797008514404">
        <ele>1704.72375488281</ele>
        <time>2018-07-28T07:33:13Z</time>
      </trkpt>
      <trkpt lat="36.6951141357422" lon="-5.01797103881836">
        <ele>1704.71508789062</ele>
        <time>2018-07-28T07:33:14Z</time>
      </trkpt>
      <trkpt lat="36.6951179504394" lon="-5.01797294616699">
        <ele>1704.5908203125</ele>
        <time>2018-07-28T07:33:15Z</time>
      </trkpt>
      <trkpt lat="36.6951179504394" lon="-5.01797723770142">
        <ele>1704.5517578125</ele>
        <time>2018-07-28T07:33:16Z</time>
      </trkpt>
      <trkpt lat="36.6951217651367" lon="-5.017982006073">
        <ele>1704.40209960938</ele>
        <time>2018-07-28T07:33:17Z</time>
      </trkpt>
      <trkpt lat="36.6951293945312" lon="-5.017991065979">
        <ele>1704.10852050781</ele>
        <time>2018-07-28T07:33:18Z</time>
      </trkpt>
      <trkpt lat="36.6951332092285" lon="-5.01800012588501">
        <ele>1703.92236328125</ele>
        <time>2018-07-28T07:33:19Z</time>
      </trkpt>
      <trkpt lat="36.695140838623" lon="-5.01800918579102">
        <ele>1703.63232421875</ele>
        <time>2018-07-28T07:33:20Z</time>
      </trkpt>
      <trkpt lat="36.6951446533203" lon="-5.01801586151123">
        <ele>1703.46936035156</ele>
        <time>2018-07-28T07:33:21Z</time>
      </trkpt>
      <trkpt lat="36.6951484680176" lon="-5.0180230140686">
        <ele>1703.30297851562</ele>
        <time>2018-07-28T07:33:22Z</time>
      </trkpt>
      <trkpt lat="36.6951484680176" lon="-5.01803207397461">
        <ele>1703.22448730469</ele>
        <time>2018-07-28T07:33:23Z</time>
      </trkpt>
      <trkpt lat="36.6951522827148" lon="-5.01804208755493">
        <ele>1703.03479003906</ele>
        <time>2018-07-28T07:33:24Z</time>
      </trkpt>
      <trkpt lat="36.6951599121094" lon="-5.01805305480957">
        <ele>1702.73559570312</ele>
        <time>2018-07-28T07:33:25Z</time>
      </trkpt>
      <trkpt lat="36.6951637268066" lon="-5.01806402206421">
        <ele>1702.54064941406</ele>
        <time>2018-07-28T07:33:26Z</time>
      </trkpt>
      <trkpt lat="36.6951675415039" lon="-5.01807403564453">
        <ele>1702.35485839844</ele>
        <time>2018-07-28T07:33:27Z</time>
      </trkpt>
      <trkpt lat="36.6951675415039" lon="-5.0180811882019">
        <ele>1702.294921875</ele>
        <time>2018-07-28T07:33:28Z</time>
      </trkpt>
      <trkpt lat="36.6951713562012" lon="-5.01808500289917">
        <ele>1702.16223144531</ele>
        <time>2018-07-28T07:33:29Z</time>
      </trkpt>
      <trkpt lat="36.6951751708984" lon="-5.0180869102478">
        <ele>1702.0458984375</ele>
        <time>2018-07-28T07:33:30Z</time>
      </trkpt>
      <trkpt lat="36.695182800293" lon="-5.01809120178223">
        <ele>1701.80981445312</ele>
        <time>2018-07-28T07:33:31Z</time>
      </trkpt>
      <trkpt lat="36.6951866149902" lon="-5.01809501647949">
        <ele>1701.67858886719</ele>
        <time>2018-07-28T07:33:32Z</time>
      </trkpt>
      <trkpt lat="36.6951904296875" lon="-5.01810121536255">
        <ele>1701.52856445312</ele>
        <time>2018-07-28T07:33:33Z</time>
      </trkpt>
      <trkpt lat="36.6951942443848" lon="-5.01810789108276">
        <ele>1701.37536621094</ele>
        <time>2018-07-28T07:33:34Z</time>
      </trkpt>
      <trkpt lat="36.6952018737793" lon="-5.0181131362915">
        <ele>1701.13525390625</ele>
        <time>2018-07-28T07:33:35Z</time>
      </trkpt>
      <trkpt lat="36.6952056884766" lon="-5.01811695098877">
        <ele>1701.00634765625</ele>
        <time>2018-07-28T07:33:36Z</time>
      </trkpt>
      <trkpt lat="36.6952095031738" lon="-5.01811981201172">
        <ele>1700.88525390625</ele>
        <time>2018-07-28T07:33:37Z</time>
      </trkpt>
      <trkpt lat="36.6952133178711" lon="-5.01812505722046">
        <ele>1700.74597167969</ele>
        <time>2018-07-28T07:33:38Z</time>
      </trkpt>
      <trkpt lat="36.6952133178711" lon="-5.01813077926636">
        <ele>1700.70178222656</ele>
        <time>2018-07-28T07:33:39Z</time>
      </trkpt>
      <trkpt lat="36.6952133178711" lon="-5.01813793182373">
        <ele>1700.646484375</ele>
        <time>2018-07-28T07:33:40Z</time>
      </trkpt>
      <trkpt lat="36.6952171325684" lon="-5.01814603805542">
        <ele>1700.48657226562</ele>
        <time>2018-07-28T07:33:41Z</time>
      </trkpt>
      <trkpt lat="36.6952209472656" lon="-5.01815414428711">
        <ele>1700.32751464844</ele>
        <time>2018-07-28T07:33:42Z</time>
      </trkpt>
      <trkpt lat="36.6952247619629" lon="-5.01816177368164">
        <ele>1700.17297363281</ele>
        <time>2018-07-28T07:33:43Z</time>
      </trkpt>
      <trkpt lat="36.6952323913574" lon="-5.01816892623901">
        <ele>1699.92687988281</ele>
        <time>2018-07-28T07:33:44Z</time>
      </trkpt>
      <trkpt lat="36.6952362060547" lon="-5.01817607879639">
        <ele>1699.77795410156</ele>
        <time>2018-07-28T07:33:45Z</time>
      </trkpt>
      <trkpt lat="36.6952438354492" lon="-5.01818323135376">
        <ele>1699.53466796875</ele>
        <time>2018-07-28T07:33:46Z</time>
      </trkpt>
      <trkpt lat="36.6952476501465" lon="-5.01818895339966">
        <ele>1699.39794921875</ele>
        <time>2018-07-28T07:33:47Z</time>
      </trkpt>
      <trkpt lat="36.695255279541" lon="-5.01819276809692">
        <ele>1699.18103027344</ele>
        <time>2018-07-28T07:33:48Z</time>
      </trkpt>
      <trkpt lat="36.6952629089356" lon="-5.01819610595703">
        <ele>1698.96826171875</ele>
        <time>2018-07-28T07:33:49Z</time>
      </trkpt>
      <trkpt lat="36.6952667236328" lon="-5.0181999206543">
        <ele>1698.84716796875</ele>
        <time>2018-07-28T07:33:50Z</time>
      </trkpt>
      <trkpt lat="36.6952705383301" lon="-5.01820516586304">
        <ele>1698.71667480469</ele>
        <time>2018-07-28T07:33:51Z</time>
      </trkpt>
      <trkpt lat="36.6952705383301" lon="-5.0182089805603">
        <ele>1698.69030761719</ele>
        <time>2018-07-28T07:33:52Z</time>
      </trkpt>
      <trkpt lat="36.6952781677246" lon="-5.01821517944336">
        <ele>1698.46057128906</ele>
        <time>2018-07-28T07:33:53Z</time>
      </trkpt>
      <trkpt lat="36.6952857971191" lon="-5.01821994781494">
        <ele>1698.24169921875</ele>
        <time>2018-07-28T07:33:54Z</time>
      </trkpt>
      <trkpt lat="36.6952896118164" lon="-5.018226146698">
        <ele>1698.107421875</ele>
        <time>2018-07-28T07:33:55Z</time>
      </trkpt>
      <trkpt lat="36.6952934265137" lon="-5.01823091506958">
        <ele>1697.98327636719</ele>
        <time>2018-07-28T07:33:56Z</time>
      </trkpt>
      <trkpt lat="36.6952972412109" lon="-5.01823806762695">
        <ele>1697.84399414062</ele>
        <time>2018-07-28T07:33:57Z</time>
      </trkpt>
      <trkpt lat="36.6953010559082" lon="-5.01824617385864">
        <ele>1697.69934082031</ele>
        <time>2018-07-28T07:33:58Z</time>
      </trkpt>
      <trkpt lat="36.6953048706055" lon="-5.01825618743896">
        <ele>1697.54345703125</ele>
        <time>2018-07-28T07:33:59Z</time>
      </trkpt>
      <trkpt lat="36.6953125" lon="-5.01826477050781">
        <ele>1697.30688476562</ele>
        <time>2018-07-28T07:34:00Z</time>
      </trkpt>
      <trkpt lat="36.6953201293945" lon="-5.0182728767395">
        <ele>1697.07531738281</ele>
        <time>2018-07-28T07:34:01Z</time>
      </trkpt>
      <trkpt lat="36.6953277587891" lon="-5.01827621459961">
        <ele>1696.87438964844</ele>
        <time>2018-07-28T07:34:02Z</time>
      </trkpt>
      <trkpt lat="36.6953353881836" lon="-5.01827812194824">
        <ele>1696.68273925781</ele>
        <time>2018-07-28T07:34:03Z</time>
      </trkpt>
      <trkpt lat="36.6953392028809" lon="-5.01827907562256">
        <ele>1696.58715820312</ele>
        <time>2018-07-28T07:34:04Z</time>
      </trkpt>
      <trkpt lat="36.6953430175781" lon="-5.01828002929688">
        <ele>1696.49157714844</ele>
        <time>2018-07-28T07:34:05Z</time>
      </trkpt>
      <trkpt lat="36.6953506469727" lon="-5.01828098297119">
        <ele>1696.30627441406</ele>
        <time>2018-07-28T07:34:06Z</time>
      </trkpt>
      <trkpt lat="36.6953544616699" lon="-5.01828098297119">
        <ele>1696.21643066406</ele>
        <time>2018-07-28T07:34:07Z</time>
      </trkpt>
      <trkpt lat="36.6953620910644" lon="-5.01828289031982">
        <ele>1696.02612304688</ele>
        <time>2018-07-28T07:34:08Z</time>
      </trkpt>
      <trkpt lat="36.695369720459" lon="-5.01828289031982">
        <ele>1695.84655761719</ele>
        <time>2018-07-28T07:34:09Z</time>
      </trkpt>
      <trkpt lat="36.6953735351562" lon="-5.01828289031982">
        <ele>1695.7568359375</ele>
        <time>2018-07-28T07:34:10Z</time>
      </trkpt>
      <trkpt lat="36.6953773498535" lon="-5.01828193664551">
        <ele>1695.67224121094</ele>
        <time>2018-07-28T07:34:11Z</time>
      </trkpt>
      <trkpt lat="36.6953811645508" lon="-5.01828098297119">
        <ele>1695.58752441406</ele>
        <time>2018-07-28T07:34:12Z</time>
      </trkpt>
      <trkpt lat="36.695384979248" lon="-5.01828002929688">
        <ele>1695.50268554688</ele>
        <time>2018-07-28T07:34:13Z</time>
      </trkpt>
      <trkpt lat="36.6953887939453" lon="-5.01827907562256">
        <ele>1695.41772460938</ele>
        <time>2018-07-28T07:34:14Z</time>
      </trkpt>
      <trkpt lat="36.6953926086426" lon="-5.01827907562256">
        <ele>1695.32775878906</ele>
        <time>2018-07-28T07:34:15Z</time>
      </trkpt>
      <trkpt lat="36.6954002380371" lon="-5.01827907562256">
        <ele>1695.14782714844</ele>
        <time>2018-07-28T07:34:16Z</time>
      </trkpt>
      <trkpt lat="36.6954040527344" lon="-5.01827907562256">
        <ele>1695.05786132812</ele>
        <time>2018-07-28T07:34:17Z</time>
      </trkpt>
      <trkpt lat="36.6954116821289" lon="-5.01827907562256">
        <ele>1694.8779296875</ele>
        <time>2018-07-28T07:34:18Z</time>
      </trkpt>
      <trkpt lat="36.6954116821289" lon="-5.01827907562256">
        <ele>1694.8779296875</ele>
        <time>2018-07-28T07:34:19Z</time>
      </trkpt>
      <trkpt lat="36.6954154968262" lon="-5.01828002929688">
        <ele>1694.78344726562</ele>
        <time>2018-07-28T07:34:20Z</time>
      </trkpt>
      <trkpt lat="36.6954193115234" lon="-5.01828193664551">
        <ele>1694.68444824219</ele>
        <time>2018-07-28T07:34:21Z</time>
      </trkpt>
      <trkpt lat="36.6954231262207" lon="-5.01828622817993">
        <ele>1694.57446289062</ele>
        <time>2018-07-28T07:34:22Z</time>
      </trkpt>
      <trkpt lat="36.695426940918" lon="-5.01829099655151">
        <ele>1694.46264648438</ele>
        <time>2018-07-28T07:34:23Z</time>
      </trkpt>
      <trkpt lat="36.6954307556152" lon="-5.01829719543457">
        <ele>1694.34484863281</ele>
        <time>2018-07-28T07:34:24Z</time>
      </trkpt>
      <trkpt lat="36.6954307556152" lon="-5.01830005645752">
        <ele>1694.33178710938</ele>
        <time>2018-07-28T07:34:25Z</time>
      </trkpt>
      <trkpt lat="36.6954307556152" lon="-5.0183048248291">
        <ele>1694.30981445312</ele>
        <time>2018-07-28T07:34:26Z</time>
      </trkpt>
      <trkpt lat="36.6954307556152" lon="-5.01831007003784">
        <ele>1694.28576660156</ele>
        <time>2018-07-28T07:34:27Z</time>
      </trkpt>
      <trkpt lat="36.6954307556152" lon="-5.01831579208374">
        <ele>1694.25939941406</ele>
        <time>2018-07-28T07:34:28Z</time>
      </trkpt>
      <trkpt lat="36.6954307556152" lon="-5.01832294464111">
        <ele>1694.2265625</ele>
        <time>2018-07-28T07:34:29Z</time>
      </trkpt>
      <trkpt lat="36.6954345703125" lon="-5.01832914352417">
        <ele>1694.11083984375</ele>
        <time>2018-07-28T07:34:30Z</time>
      </trkpt>
      <trkpt lat="36.6954345703125" lon="-5.01833295822144">
        <ele>1694.09350585938</ele>
        <time>2018-07-28T07:34:31Z</time>
      </trkpt>
      <trkpt lat="36.6954383850098" lon="-5.01833820343018">
        <ele>1693.97778320312</ele>
        <time>2018-07-28T07:34:32Z</time>
      </trkpt>
      <trkpt lat="36.6954383850098" lon="-5.01834487915039">
        <ele>1693.94055175781</ele>
        <time>2018-07-28T07:34:33Z</time>
      </trkpt>
      <trkpt lat="36.695442199707" lon="-5.0183539390564">
        <ele>1693.80480957031</ele>
        <time>2018-07-28T07:34:34Z</time>
      </trkpt>
      <trkpt lat="36.6954460144043" lon="-5.0183629989624">
        <ele>1693.67041015625</ele>
        <time>2018-07-28T07:34:35Z</time>
      </trkpt>
      <trkpt lat="36.6954498291016" lon="-5.01837396621704">
        <ele>1693.52722167969</ele>
        <time>2018-07-28T07:34:36Z</time>
      </trkpt>
      <trkpt lat="36.6954498291016" lon="-5.018385887146">
        <ele>1693.46374511719</ele>
        <time>2018-07-28T07:34:37Z</time>
      </trkpt>
      <trkpt lat="36.6954460144043" lon="-5.01839780807495">
        <ele>1693.48217773438</ele>
        <time>2018-07-28T07:34:38Z</time>
      </trkpt>
      <trkpt lat="36.6954460144043" lon="-5.01840877532959">
        <ele>1693.4228515625</ele>
        <time>2018-07-28T07:34:39Z</time>
      </trkpt>
      <trkpt lat="36.6954460144043" lon="-5.01841878890991">
        <ele>1693.36865234375</ele>
        <time>2018-07-28T07:34:40Z</time>
      </trkpt>
      <trkpt lat="36.6954460144043" lon="-5.01842880249023">
        <ele>1693.31457519531</ele>
        <time>2018-07-28T07:34:41Z</time>
      </trkpt>
      <trkpt lat="36.6954460144043" lon="-5.01843786239624">
        <ele>1693.26550292969</ele>
        <time>2018-07-28T07:34:42Z</time>
      </trkpt>
      <trkpt lat="36.6954498291016" lon="-5.01844596862793">
        <ele>1693.14343261719</ele>
        <time>2018-07-28T07:34:43Z</time>
      </trkpt>
      <trkpt lat="36.6954574584961" lon="-5.01845407485962">
        <ele>1692.94482421875</ele>
        <time>2018-07-28T07:34:44Z</time>
      </trkpt>
      <trkpt lat="36.6954612731934" lon="-5.01845979690552">
        <ele>1692.837890625</ele>
        <time>2018-07-28T07:34:45Z</time>
      </trkpt>
      <trkpt lat="36.6954650878906" lon="-5.01846694946289">
        <ele>1692.72473144531</ele>
        <time>2018-07-28T07:34:46Z</time>
      </trkpt>
      <trkpt lat="36.6954689025879" lon="-5.01847314834595">
        <ele>1692.61730957031</ele>
        <time>2018-07-28T07:34:47Z</time>
      </trkpt>
      <trkpt lat="36.6954727172852" lon="-5.01847887039185">
        <ele>1692.51330566406</ele>
        <time>2018-07-28T07:34:48Z</time>
      </trkpt>
      <trkpt lat="36.6954765319824" lon="-5.01848411560059">
        <ele>1692.41235351562</ele>
        <time>2018-07-28T07:34:49Z</time>
      </trkpt>
      <trkpt lat="36.6954803466797" lon="-5.01848888397217">
        <ele>1692.314453125</ele>
        <time>2018-07-28T07:34:50Z</time>
      </trkpt>
      <trkpt lat="36.695484161377" lon="-5.01849317550659">
        <ele>1692.21960449219</ele>
        <time>2018-07-28T07:34:51Z</time>
      </trkpt>
      <trkpt lat="36.695484161377" lon="-5.01849603652954">
        <ele>1692.20629882812</ele>
        <time>2018-07-28T07:34:52Z</time>
      </trkpt>
      <trkpt lat="36.695484161377" lon="-5.01849889755249">
        <ele>1692.19299316406</ele>
        <time>2018-07-28T07:34:53Z</time>
      </trkpt>
      <trkpt lat="36.695484161377" lon="-5.01850080490112">
        <ele>1692.18420410156</ele>
        <time>2018-07-28T07:34:54Z</time>
      </trkpt>
      <trkpt lat="36.695484161377" lon="-5.01850318908691">
        <ele>1692.17309570312</ele>
        <time>2018-07-28T07:34:55Z</time>
      </trkpt>
      <trkpt lat="36.695484161377" lon="-5.01850605010986">
        <ele>1692.15979003906</ele>
        <time>2018-07-28T07:34:56Z</time>
      </trkpt>
      <trkpt lat="36.6954879760742" lon="-5.01850700378418">
        <ele>1692.08178710938</ele>
        <time>2018-07-28T07:34:57Z</time>
      </trkpt>
      <trkpt lat="36.6954879760742" lon="-5.0185079574585">
        <ele>1692.07739257812</ele>
        <time>2018-07-28T07:34:58Z</time>
      </trkpt>
      <trkpt lat="36.6954879760742" lon="-5.01850891113281">
        <ele>1692.07312011719</ele>
        <time>2018-07-28T07:34:59Z</time>
      </trkpt>
      <trkpt lat="36.6954879760742" lon="-5.01850986480713">
        <ele>1692.06872558594</ele>
        <time>2018-07-28T07:35:00Z</time>
      </trkpt>
      <trkpt lat="36.6954917907715" lon="-5.01851081848144">
        <ele>1691.99108886719</ele>
        <time>2018-07-28T07:35:01Z</time>
      </trkpt>
      <trkpt lat="36.6954917907715" lon="-5.01851320266724">
        <ele>1691.98034667969</ele>
        <time>2018-07-28T07:35:02Z</time>
      </trkpt>
      <trkpt lat="36.6954917907715" lon="-5.01851511001587">
        <ele>1691.97180175781</ele>
        <time>2018-07-28T07:35:03Z</time>
      </trkpt>
      <trkpt lat="36.6954917907715" lon="-5.01851606369019">
        <ele>1691.96752929688</ele>
        <time>2018-07-28T07:35:04Z</time>
      </trkpt>
      <trkpt lat="36.6954917907715" lon="-5.0185170173645">
        <ele>1691.96325683594</ele>
        <time>2018-07-28T07:35:05Z</time>
      </trkpt>
      <trkpt lat="36.6954917907715" lon="-5.01851797103882">
        <ele>1691.958984375</ele>
        <time>2018-07-28T07:35:06Z</time>
      </trkpt>
      <trkpt lat="36.6954917907715" lon="-5.01851892471314">
        <ele>1691.95471191406</ele>
        <time>2018-07-28T07:35:07Z</time>
      </trkpt>
      <trkpt lat="36.6954917907715" lon="-5.01851987838745">
        <ele>1691.95043945312</ele>
        <time>2018-07-28T07:35:08Z</time>
      </trkpt>
      <trkpt lat="36.6954917907715" lon="-5.01852178573608">
        <ele>1691.94189453125</ele>
        <time>2018-07-28T07:35:09Z</time>
      </trkpt>
      <trkpt lat="36.6954956054688" lon="-5.01852416992188">
        <ele>1691.85888671875</ele>
        <time>2018-07-28T07:35:10Z</time>
      </trkpt>
      <trkpt lat="36.6954956054688" lon="-5.01852607727051">
        <ele>1691.85046386719</ele>
        <time>2018-07-28T07:35:11Z</time>
      </trkpt>
      <trkpt lat="36.6954956054688" lon="-5.01852798461914">
        <ele>1691.84204101562</ele>
        <time>2018-07-28T07:35:12Z</time>
      </trkpt>
      <trkpt lat="36.6954956054688" lon="-5.01852798461914">
        <ele>1691.84204101562</ele>
        <time>2018-07-28T07:35:13Z</time>
      </trkpt>
      <trkpt lat="36.6954956054688" lon="-5.01852893829346">
        <ele>1691.837890625</ele>
        <time>2018-07-28T07:35:14Z</time>
      </trkpt>
      <trkpt lat="36.6954956054688" lon="-5.01852989196777">
        <ele>1691.83361816406</ele>
        <time>2018-07-28T07:35:15Z</time>
      </trkpt>
      <trkpt lat="36.6954956054688" lon="-5.01853084564209">
        <ele>1691.82946777344</ele>
        <time>2018-07-28T07:35:16Z</time>
      </trkpt>
      <trkpt lat="36.695499420166" lon="-5.01853084564209">
        <ele>1691.75769042969</ele>
        <time>2018-07-28T07:35:17Z</time>
      </trkpt>
      <trkpt lat="36.695499420166" lon="-5.01853084564209">
        <ele>1691.75769042969</ele>
        <time>2018-07-28T07:35:18Z</time>
      </trkpt>
      <trkpt lat="36.695499420166" lon="-5.01852893829346">
        <ele>1691.76586914062</ele>
        <time>2018-07-28T07:35:19Z</time>
      </trkpt>
      <trkpt lat="36.6954956054688" lon="-5.01852989196777">
        <ele>1691.83361816406</ele>
        <time>2018-07-28T07:35:20Z</time>
      </trkpt>
      <trkpt lat="36.6954956054688" lon="-5.01853084564209">
        <ele>1691.82946777344</ele>
        <time>2018-07-28T07:35:21Z</time>
      </trkpt>
      <trkpt lat="36.695499420166" lon="-5.01853179931641">
        <ele>1691.75354003906</ele>
        <time>2018-07-28T07:35:22Z</time>
      </trkpt>
      <trkpt lat="36.695499420166" lon="-5.01853322982788">
        <ele>1691.74731445312</ele>
        <time>2018-07-28T07:35:23Z</time>
      </trkpt>
      <trkpt lat="36.6954956054688" lon="-5.0185341835022">
        <ele>1691.81469726562</ele>
        <time>2018-07-28T07:35:24Z</time>
      </trkpt>
      <trkpt lat="36.6954956054688" lon="-5.01853513717651">
        <ele>1691.810546875</ele>
        <time>2018-07-28T07:35:25Z</time>
      </trkpt>
      <trkpt lat="36.6954956054688" lon="-5.01853799819946">
        <ele>1691.7978515625</ele>
        <time>2018-07-28T07:35:26Z</time>
      </trkpt>
      <trkpt lat="36.6954956054688" lon="-5.01854181289673">
        <ele>1691.78112792969</ele>
        <time>2018-07-28T07:35:27Z</time>
      </trkpt>
      <trkpt lat="36.695499420166" lon="-5.01854419708252">
        <ele>1691.69982910156</ele>
        <time>2018-07-28T07:35:28Z</time>
      </trkpt>
      <trkpt lat="36.6955032348633" lon="-5.01854419708252">
        <ele>1691.62902832031</ele>
        <time>2018-07-28T07:35:29Z</time>
      </trkpt>
      <trkpt lat="36.6955032348633" lon="-5.01854276657104">
        <ele>1691.63513183594</ele>
        <time>2018-07-28T07:35:30Z</time>
      </trkpt>
      <trkpt lat="36.6955032348633" lon="-5.01854419708252">
        <ele>1691.62902832031</ele>
        <time>2018-07-28T07:35:31Z</time>
      </trkpt>
      <trkpt lat="36.6955032348633" lon="-5.01854419708252">
        <ele>1691.62902832031</ele>
        <time>2018-07-28T07:35:32Z</time>
      </trkpt>
      <trkpt lat="36.695499420166" lon="-5.01854610443115">
        <ele>1691.69152832031</ele>
        <time>2018-07-28T07:35:33Z</time>
      </trkpt>
      <trkpt lat="36.695499420166" lon="-5.01854991912842">
        <ele>1691.67504882812</ele>
        <time>2018-07-28T07:35:34Z</time>
      </trkpt>
      <trkpt lat="36.695499420166" lon="-5.01855278015137">
        <ele>1691.66259765625</ele>
        <time>2018-07-28T07:35:35Z</time>
      </trkpt>
      <trkpt lat="36.695499420166" lon="-5.01855611801147">
        <ele>1691.64819335938</ele>
        <time>2018-07-28T07:35:36Z</time>
      </trkpt>
      <trkpt lat="36.695499420166" lon="-5.01855802536011">
        <ele>1691.63989257812</ele>
        <time>2018-07-28T07:35:37Z</time>
      </trkpt>
      <trkpt lat="36.695499420166" lon="-5.01856184005737">
        <ele>1691.62341308594</ele>
        <time>2018-07-28T07:35:38Z</time>
      </trkpt>
      <trkpt lat="36.695499420166" lon="-5.01856899261475">
        <ele>1691.59240722656</ele>
        <time>2018-07-28T07:35:39Z</time>
      </trkpt>
      <trkpt lat="36.6955032348633" lon="-5.01857614517212">
        <ele>1691.4931640625</ele>
        <time>2018-07-28T07:35:40Z</time>
      </trkpt>
      <trkpt lat="36.6955070495606" lon="-5.01858282089233">
        <ele>1691.39697265625</ele>
        <time>2018-07-28T07:35:41Z</time>
      </trkpt>
      <trkpt lat="36.6955108642578" lon="-5.01858520507812">
        <ele>1691.3193359375</ele>
        <time>2018-07-28T07:35:42Z</time>
      </trkpt>
      <trkpt lat="36.6955184936523" lon="-5.01858520507812">
        <ele>1691.18420410156</ele>
        <time>2018-07-28T07:35:43Z</time>
      </trkpt>
      <trkpt lat="36.6955223083496" lon="-5.01858377456665">
        <ele>1691.1220703125</ele>
        <time>2018-07-28T07:35:44Z</time>
      </trkpt>
      <trkpt lat="36.6955299377441" lon="-5.01858520507812">
        <ele>1690.98132324219</ele>
        <time>2018-07-28T07:35:45Z</time>
      </trkpt>
      <trkpt lat="36.6955375671387" lon="-5.01858520507812">
        <ele>1690.84619140625</ele>
        <time>2018-07-28T07:35:46Z</time>
      </trkpt>
      <trkpt lat="36.6955413818359" lon="-5.01858711242676">
        <ele>1690.77185058594</ele>
        <time>2018-07-28T07:35:47Z</time>
      </trkpt>
      <trkpt lat="36.6955490112305" lon="-5.01858901977539">
        <ele>1690.63061523438</ele>
        <time>2018-07-28T07:35:48Z</time>
      </trkpt>
      <trkpt lat="36.6955528259277" lon="-5.01858901977539">
        <ele>1690.56335449219</ele>
        <time>2018-07-28T07:35:49Z</time>
      </trkpt>
      <trkpt lat="36.695556640625" lon="-5.01858901977539">
        <ele>1690.49597167969</ele>
        <time>2018-07-28T07:35:50Z</time>
      </trkpt>
      <trkpt lat="36.6955604553223" lon="-5.01858997344971">
        <ele>1690.42578125</ele>
        <time>2018-07-28T07:35:51Z</time>
      </trkpt>
      <trkpt lat="36.6955680847168" lon="-5.01859188079834">
        <ele>1690.28564453125</ele>
        <time>2018-07-28T07:35:52Z</time>
      </trkpt>
      <trkpt lat="36.6955795288086" lon="-5.01859283447266">
        <ele>1690.08178710938</ele>
        <time>2018-07-28T07:35:53Z</time>
      </trkpt>
      <trkpt lat="36.6955871582031" lon="-5.01859712600708">
        <ele>1689.93676757812</ele>
        <time>2018-07-28T07:35:54Z</time>
      </trkpt>
      <trkpt lat="36.6955947875977" lon="-5.01860189437866">
        <ele>1689.79187011719</ele>
        <time>2018-07-28T07:35:55Z</time>
      </trkpt>
      <trkpt lat="36.6956024169922" lon="-5.0186071395874">
        <ele>1689.64733886719</ele>
        <time>2018-07-28T07:35:56Z</time>
      </trkpt>
      <trkpt lat="36.695613861084" lon="-5.01861000061035">
        <ele>1689.44384765625</ele>
        <time>2018-07-28T07:35:57Z</time>
      </trkpt>
      <trkpt lat="36.6956214904785" lon="-5.01861190795898">
        <ele>1689.30883789062</ele>
        <time>2018-07-28T07:35:58Z</time>
      </trkpt>
      <trkpt lat="36.695629119873" lon="-5.01861095428467">
        <ele>1689.17944335938</ele>
        <time>2018-07-28T07:35:59Z</time>
      </trkpt>
      <trkpt lat="36.6956405639648" lon="-5.01861000061035">
        <ele>1688.98400878906</ele>
        <time>2018-07-28T07:36:00Z</time>
      </trkpt>
      <trkpt lat="36.6956443786621" lon="-5.01860904693604">
        <ele>1688.91955566406</ele>
        <time>2018-07-28T07:36:01Z</time>
      </trkpt>
      <trkpt lat="36.6956520080566" lon="-5.01861095428467">
        <ele>1688.78564453125</ele>
        <time>2018-07-28T07:36:02Z</time>
      </trkpt>
      <trkpt lat="36.6956596374512" lon="-5.01861190795898">
        <ele>1688.6533203125</ele>
        <time>2018-07-28T07:36:03Z</time>
      </trkpt>
      <trkpt lat="36.6956634521484" lon="-5.01861381530762">
        <ele>1688.58581542969</ele>
        <time>2018-07-28T07:36:04Z</time>
      </trkpt>
      <trkpt lat="36.6956672668457" lon="-5.01861619949341">
        <ele>1688.51818847656</ele>
        <time>2018-07-28T07:36:05Z</time>
      </trkpt>
      <trkpt lat="36.6956748962402" lon="-5.01861810684204">
        <ele>1688.38623046875</ele>
        <time>2018-07-28T07:36:06Z</time>
      </trkpt>
      <trkpt lat="36.6956825256348" lon="-5.01862287521362">
        <ele>1688.25305175781</ele>
        <time>2018-07-28T07:36:07Z</time>
      </trkpt>
      <trkpt lat="36.6956901550293" lon="-5.01862716674805">
        <ele>1688.12158203125</ele>
        <time>2018-07-28T07:36:08Z</time>
      </trkpt>
      <trkpt lat="36.6956977844238" lon="-5.018630027771">
        <ele>1687.99182128906</ele>
        <time>2018-07-28T07:36:09Z</time>
      </trkpt>
      <trkpt lat="36.6957015991211" lon="-5.01863288879394">
        <ele>1687.92687988281</ele>
        <time>2018-07-28T07:36:10Z</time>
      </trkpt>
      <trkpt lat="36.6957054138184" lon="-5.01863718032837">
        <ele>1687.86218261719</ele>
        <time>2018-07-28T07:36:11Z</time>
      </trkpt>
      <trkpt lat="36.6957092285156" lon="-5.01864290237427">
        <ele>1687.79797363281</ele>
        <time>2018-07-28T07:36:12Z</time>
      </trkpt>
      <trkpt lat="36.6957092285156" lon="-5.01865100860596">
        <ele>1687.79724121094</ele>
        <time>2018-07-28T07:36:13Z</time>
      </trkpt>
      <trkpt lat="36.6957092285156" lon="-5.01865911483765">
        <ele>1687.79638671875</ele>
        <time>2018-07-28T07:36:14Z</time>
      </trkpt>
      <trkpt lat="36.6957130432129" lon="-5.01867008209228">
        <ele>1687.73413085938</ele>
        <time>2018-07-28T07:36:15Z</time>
      </trkpt>
      <trkpt lat="36.6957168579102" lon="-5.01868009567261">
        <ele>1687.67358398438</ele>
        <time>2018-07-28T07:36:16Z</time>
      </trkpt>
      <trkpt lat="36.6957244873047" lon="-5.01869010925293">
        <ele>1687.55505371094</ele>
        <time>2018-07-28T07:36:17Z</time>
      </trkpt>
      <trkpt lat="36.6957244873047" lon="-5.01869821548462">
        <ele>1687.55676269531</ele>
        <time>2018-07-28T07:36:18Z</time>
      </trkpt>
      <trkpt lat="36.695728302002" lon="-5.01870584487915">
        <ele>1687.5</ele>
        <time>2018-07-28T07:36:19Z</time>
      </trkpt>
      <trkpt lat="36.6957359313965" lon="-5.01871299743652">
        <ele>1687.38647460938</ele>
        <time>2018-07-28T07:36:20Z</time>
      </trkpt>
      <trkpt lat="36.695743560791" lon="-5.0187201499939">
        <ele>1687.27514648438</ele>
        <time>2018-07-28T07:36:21Z</time>
      </trkpt>
      <trkpt lat="36.6957511901856" lon="-5.01872301101685">
        <ele>1687.16284179688</ele>
        <time>2018-07-28T07:36:22Z</time>
      </trkpt>
      <trkpt lat="36.6957588195801" lon="-5.01872301101685">
        <ele>1687.048828125</ele>
        <time>2018-07-28T07:36:23Z</time>
      </trkpt>
      <trkpt lat="36.6957664489746" lon="-5.01872301101685">
        <ele>1686.93469238281</ele>
        <time>2018-07-28T07:36:24Z</time>
      </trkpt>
      <trkpt lat="36.6957702636719" lon="-5.01872491836548">
        <ele>1686.8798828125</ele>
        <time>2018-07-28T07:36:25Z</time>
      </trkpt>
      <trkpt lat="36.6957702636719" lon="-5.01872777938843">
        <ele>1686.88317871094</ele>
        <time>2018-07-28T07:36:26Z</time>
      </trkpt>
      <trkpt lat="36.6957702636719" lon="-5.0187292098999">
        <ele>1686.884765625</ele>
        <time>2018-07-28T07:36:27Z</time>
      </trkpt>
      <trkpt lat="36.6957702636719" lon="-5.0187292098999">
        <ele>1686.884765625</ele>
        <time>2018-07-28T07:36:28Z</time>
      </trkpt>
      <trkpt lat="36.6957702636719" lon="-5.01872777938843">
        <ele>1686.88317871094</ele>
        <time>2018-07-28T07:36:29Z</time>
      </trkpt>
      <trkpt lat="36.6957740783691" lon="-5.0187258720398">
        <ele>1686.82421875</ele>
        <time>2018-07-28T07:36:30Z</time>
      </trkpt>
      <trkpt lat="36.6957778930664" lon="-5.01872110366821">
        <ele>1686.76123046875</ele>
        <time>2018-07-28T07:36:31Z</time>
      </trkpt>
      <trkpt lat="36.6957817077637" lon="-5.01871585845947">
        <ele>1686.69702148438</ele>
        <time>2018-07-28T07:36:32Z</time>
      </trkpt>
      <trkpt lat="36.6957893371582" lon="-5.01871013641357">
        <ele>1686.5732421875</ele>
        <time>2018-07-28T07:36:33Z</time>
      </trkpt>
      <trkpt lat="36.6957893371582" lon="-5.01870393753052">
        <ele>1686.56384277344</ele>
        <time>2018-07-28T07:36:34Z</time>
      </trkpt>
      <trkpt lat="36.6957969665527" lon="-5.01869821548462">
        <ele>1686.43737792969</ele>
        <time>2018-07-28T07:36:35Z</time>
      </trkpt>
      <trkpt lat="36.69580078125" lon="-5.01869487762451">
        <ele>1686.37268066406</ele>
        <time>2018-07-28T07:36:36Z</time>
      </trkpt>
      <trkpt lat="36.6958045959473" lon="-5.01869010925293">
        <ele>1686.30480957031</ele>
        <time>2018-07-28T07:36:37Z</time>
      </trkpt>
      <trkpt lat="36.6958084106445" lon="-5.01868581771851">
        <ele>1686.23706054688</ele>
        <time>2018-07-28T07:36:38Z</time>
      </trkpt>
      <trkpt lat="36.6958122253418" lon="-5.01868200302124">
        <ele>1686.16967773438</ele>
        <time>2018-07-28T07:36:39Z</time>
      </trkpt>
      <trkpt lat="36.6958198547363" lon="-5.01868104934692">
        <ele>1686.04736328125</ele>
        <time>2018-07-28T07:36:40Z</time>
      </trkpt>
      <trkpt lat="36.6958236694336" lon="-5.01868009567261">
        <ele>1685.98498535156</ele>
        <time>2018-07-28T07:36:41Z</time>
      </trkpt>
      <trkpt lat="36.6958312988281" lon="-5.01867914199829">
        <ele>1685.86218261719</ele>
        <time>2018-07-28T07:36:42Z</time>
      </trkpt>
      <trkpt lat="36.6958351135254" lon="-5.01867580413818">
        <ele>1685.783203125</ele>
        <time>2018-07-28T07:36:43Z</time>
      </trkpt>
      <trkpt lat="36.6958389282227" lon="-5.01867198944092">
        <ele>1685.69091796875</ele>
        <time>2018-07-28T07:36:44Z</time>
      </trkpt>
      <trkpt lat="36.6958465576172" lon="-5.01866912841797">
        <ele>1685.51745605469</ele>
        <time>2018-07-28T07:36:45Z</time>
      </trkpt>
      <trkpt lat="36.6958503723144" lon="-5.01866722106934">
        <ele>1685.42932128906</ele>
        <time>2018-07-28T07:36:46Z</time>
      </trkpt>
      <trkpt lat="36.6958541870117" lon="-5.01866388320923">
        <ele>1685.33728027344</ele>
        <time>2018-07-28T07:36:47Z</time>
      </trkpt>
      <trkpt lat="36.695858001709" lon="-5.01866102218628">
        <ele>1685.24633789062</ele>
        <time>2018-07-28T07:36:48Z</time>
      </trkpt>
      <trkpt lat="36.6958618164062" lon="-5.01865720748901">
        <ele>1685.15246582031</ele>
        <time>2018-07-28T07:36:49Z</time>
      </trkpt>
      <trkpt lat="36.6958694458008" lon="-5.01865386962891">
        <ele>1684.97595214844</ele>
        <time>2018-07-28T07:36:50Z</time>
      </trkpt>
      <trkpt lat="36.695873260498" lon="-5.01865005493164">
        <ele>1684.88146972656</ele>
        <time>2018-07-28T07:36:51Z</time>
      </trkpt>
      <trkpt lat="36.6958808898926" lon="-5.0186448097229">
        <ele>1684.69848632812</ele>
        <time>2018-07-28T07:36:52Z</time>
      </trkpt>
      <trkpt lat="36.6958847045898" lon="-5.01863813400269">
        <ele>1684.59484863281</ele>
        <time>2018-07-28T07:36:53Z</time>
      </trkpt>
      <trkpt lat="36.6958885192871" lon="-5.01862812042236">
        <ele>1684.48083496094</ele>
        <time>2018-07-28T07:36:54Z</time>
      </trkpt>
      <trkpt lat="36.6958923339844" lon="-5.01861810684204">
        <ele>1684.36596679688</ele>
        <time>2018-07-28T07:36:55Z</time>
      </trkpt>
      <trkpt lat="36.6958923339844" lon="-5.0186071395874">
        <ele>1684.33312988281</ele>
        <time>2018-07-28T07:36:56Z</time>
      </trkpt>
      <trkpt lat="36.6958961486816" lon="-5.0185980796814">
        <ele>1684.22009277344</ele>
        <time>2018-07-28T07:36:57Z</time>
      </trkpt>
      <trkpt lat="36.6958961486816" lon="-5.01858901977539">
        <ele>1684.19262695312</ele>
        <time>2018-07-28T07:36:58Z</time>
      </trkpt>
      <trkpt lat="36.6958961486816" lon="-5.01858186721802">
        <ele>1684.1708984375</ele>
        <time>2018-07-28T07:36:59Z</time>
      </trkpt>
      <trkpt lat="36.6959037780762" lon="-5.01857423782349">
        <ele>1683.97399902344</ele>
        <time>2018-07-28T07:37:00Z</time>
      </trkpt>
      <trkpt lat="36.6959075927734" lon="-5.01856422424316">
        <ele>1683.85559082031</ele>
        <time>2018-07-28T07:37:01Z</time>
      </trkpt>
      <trkpt lat="36.6959075927734" lon="-5.01855278015137">
        <ele>1683.81958007812</ele>
        <time>2018-07-28T07:37:02Z</time>
      </trkpt>
      <trkpt lat="36.6959114074707" lon="-5.01854515075684">
        <ele>1683.70764160156</ele>
        <time>2018-07-28T07:37:03Z</time>
      </trkpt>
      <trkpt lat="36.6959114074707" lon="-5.01854276657104">
        <ele>1683.69995117188</ele>
        <time>2018-07-28T07:37:04Z</time>
      </trkpt>
      <trkpt lat="36.6959114074707" lon="-5.01854419708252">
        <ele>1683.70458984375</ele>
        <time>2018-07-28T07:37:05Z</time>
      </trkpt>
      <trkpt lat="36.6959114074707" lon="-5.01854419708252">
        <ele>1683.70458984375</ele>
        <time>2018-07-28T07:37:06Z</time>
      </trkpt>
      <trkpt lat="36.695915222168" lon="-5.01854419708252">
        <ele>1683.61657714844</ele>
        <time>2018-07-28T07:37:07Z</time>
      </trkpt>
      <trkpt lat="36.695915222168" lon="-5.01854276657104">
        <ele>1683.61193847656</ele>
        <time>2018-07-28T07:37:08Z</time>
      </trkpt>
      <trkpt lat="36.695915222168" lon="-5.01854181289673">
        <ele>1683.60888671875</ele>
        <time>2018-07-28T07:37:09Z</time>
      </trkpt>
      <trkpt lat="36.695915222168" lon="-5.01854181289673">
        <ele>1683.60888671875</ele>
        <time>2018-07-28T07:37:10Z</time>
      </trkpt>
      <trkpt lat="36.695915222168" lon="-5.01854181289673">
        <ele>1683.60888671875</ele>
        <time>2018-07-28T07:37:11Z</time>
      </trkpt>
      <trkpt lat="36.695915222168" lon="-5.0185399055481">
        <ele>1683.60266113281</ele>
        <time>2018-07-28T07:37:12Z</time>
      </trkpt>
      <trkpt lat="36.695915222168" lon="-5.01853704452515">
        <ele>1683.59350585938</ele>
        <time>2018-07-28T07:37:13Z</time>
      </trkpt>
      <trkpt lat="36.695915222168" lon="-5.0185341835022">
        <ele>1683.58422851562</ele>
        <time>2018-07-28T07:37:14Z</time>
      </trkpt>
      <trkpt lat="36.695915222168" lon="-5.01853179931641">
        <ele>1683.57653808594</ele>
        <time>2018-07-28T07:37:15Z</time>
      </trkpt>
      <trkpt lat="36.695915222168" lon="-5.01853179931641">
        <ele>1683.57653808594</ele>
        <time>2018-07-28T07:37:16Z</time>
      </trkpt>
      <trkpt lat="36.695915222168" lon="-5.01853084564209">
        <ele>1683.57348632812</ele>
        <time>2018-07-28T07:37:17Z</time>
      </trkpt>
      <trkpt lat="36.695915222168" lon="-5.01853084564209">
        <ele>1683.57348632812</ele>
        <time>2018-07-28T07:37:18Z</time>
      </trkpt>
      <trkpt lat="36.695915222168" lon="-5.01853084564209">
        <ele>1683.57348632812</ele>
        <time>2018-07-28T07:37:19Z</time>
      </trkpt>
      <trkpt lat="36.695915222168" lon="-5.01852989196777">
        <ele>1683.57043457031</ele>
        <time>2018-07-28T07:37:20Z</time>
      </trkpt>
      <trkpt lat="36.695915222168" lon="-5.01852989196777">
        <ele>1683.57043457031</ele>
        <time>2018-07-28T07:37:21Z</time>
      </trkpt>
      <trkpt lat="36.6959190368652" lon="-5.01852893829346">
        <ele>1683.47875976562</ele>
        <time>2018-07-28T07:37:22Z</time>
      </trkpt>
      <trkpt lat="36.6959190368652" lon="-5.01852798461914">
        <ele>1683.4755859375</ele>
        <time>2018-07-28T07:37:23Z</time>
      </trkpt>
      <trkpt lat="36.6959228515625" lon="-5.01852512359619">
        <ele>1683.37744140625</ele>
        <time>2018-07-28T07:37:24Z</time>
      </trkpt>
      <trkpt lat="36.6959266662598" lon="-5.01852083206177">
        <ele>1683.2744140625</ele>
        <time>2018-07-28T07:37:25Z</time>
      </trkpt>
      <trkpt lat="36.6959266662598" lon="-5.01851415634155">
        <ele>1683.25207519531</ele>
        <time>2018-07-28T07:37:26Z</time>
      </trkpt>
      <trkpt lat="36.695930480957" lon="-5.01850700378418">
        <ele>1683.13879394531</ele>
        <time>2018-07-28T07:37:27Z</time>
      </trkpt>
      <trkpt lat="36.6959342956543" lon="-5.01849985122681">
        <ele>1683.02490234375</ele>
        <time>2018-07-28T07:37:28Z</time>
      </trkpt>
      <trkpt lat="36.6959381103516" lon="-5.01849317550659">
        <ele>1682.912109375</ele>
        <time>2018-07-28T07:37:29Z</time>
      </trkpt>
      <trkpt lat="36.6959381103516" lon="-5.01848411560059">
        <ele>1682.88073730469</ele>
        <time>2018-07-28T07:37:30Z</time>
      </trkpt>
      <trkpt lat="36.6959381103516" lon="-5.01847505569458">
        <ele>1682.84948730469</ele>
        <time>2018-07-28T07:37:31Z</time>
      </trkpt>
      <trkpt lat="36.6959381103516" lon="-5.01846504211426">
        <ele>1682.81481933594</ele>
        <time>2018-07-28T07:37:32Z</time>
      </trkpt>
      <trkpt lat="36.6959381103516" lon="-5.01845693588257">
        <ele>1682.78686523438</ele>
        <time>2018-07-28T07:37:33Z</time>
      </trkpt>
      <trkpt lat="36.6959342956543" lon="-5.01845121383667">
        <ele>1682.85864257812</ele>
        <time>2018-07-28T07:37:34Z</time>
      </trkpt>
      <trkpt lat="36.695930480957" lon="-5.01844787597656">
        <ele>1682.93896484375</ele>
        <time>2018-07-28T07:37:35Z</time>
      </trkpt>
      <trkpt lat="36.695930480957" lon="-5.01844692230225">
        <ele>1682.93566894531</ele>
        <time>2018-07-28T07:37:36Z</time>
      </trkpt>
      <trkpt lat="36.6959266662598" lon="-5.01844692230225">
        <ele>1683.02746582031</ele>
        <time>2018-07-28T07:37:37Z</time>
      </trkpt>
      <trkpt lat="36.6959266662598" lon="-5.01844692230225">
        <ele>1683.02746582031</ele>
        <time>2018-07-28T07:37:38Z</time>
      </trkpt>
      <trkpt lat="36.6959266662598" lon="-5.01844596862793">
        <ele>1683.02429199219</ele>
        <time>2018-07-28T07:37:39Z</time>
      </trkpt>
      <trkpt lat="36.695930480957" lon="-5.01844501495361">
        <ele>1682.92932128906</ele>
        <time>2018-07-28T07:37:40Z</time>
      </trkpt>
      <trkpt lat="36.695930480957" lon="-5.0184440612793">
        <ele>1682.92602539062</ele>
        <time>2018-07-28T07:37:41Z</time>
      </trkpt>
      <trkpt lat="36.695930480957" lon="-5.01844120025635">
        <ele>1682.91638183594</ele>
        <time>2018-07-28T07:37:42Z</time>
      </trkpt>
      <trkpt lat="36.6959342956543" lon="-5.01843690872192">
        <ele>1682.80969238281</ele>
        <time>2018-07-28T07:37:43Z</time>
      </trkpt>
      <trkpt lat="36.6959381103516" lon="-5.01843214035034">
        <ele>1682.701171875</ele>
        <time>2018-07-28T07:37:44Z</time>
      </trkpt>
      <trkpt lat="36.6959457397461" lon="-5.0184268951416">
        <ele>1682.49792480469</ele>
        <time>2018-07-28T07:37:45Z</time>
      </trkpt>
      <trkpt lat="36.6959457397461" lon="-5.01842308044434">
        <ele>1682.48449707031</ele>
        <time>2018-07-28T07:37:46Z</time>
      </trkpt>
      <trkpt lat="36.6959457397461" lon="-5.0184211730957">
        <ele>1682.47766113281</ele>
        <time>2018-07-28T07:37:47Z</time>
      </trkpt>
      <trkpt lat="36.6959457397461" lon="-5.01842021942139">
        <ele>1682.47436523438</ele>
        <time>2018-07-28T07:37:48Z</time>
      </trkpt>
      <trkpt lat="36.6959457397461" lon="-5.0184211730957">
        <ele>1682.47766113281</ele>
        <time>2018-07-28T07:37:49Z</time>
      </trkpt>
      <trkpt lat="36.6959495544434" lon="-5.01842212677002">
        <ele>1682.38830566406</ele>
        <time>2018-07-28T07:37:50Z</time>
      </trkpt>
      <trkpt lat="36.6959533691406" lon="-5.01842403411865">
        <ele>1682.30249023438</ele>
        <time>2018-07-28T07:37:51Z</time>
      </trkpt>
      <trkpt lat="36.6959571838379" lon="-5.01842594146728">
        <ele>1682.216796875</ele>
        <time>2018-07-28T07:37:52Z</time>
      </trkpt>
      <trkpt lat="36.6959609985352" lon="-5.01843118667603">
        <ele>1682.1435546875</ele>
        <time>2018-07-28T07:37:53Z</time>
      </trkpt>
      <trkpt lat="36.6959648132324" lon="-5.01843500137329">
        <ele>1682.0654296875</ele>
        <time>2018-07-28T07:37:54Z</time>
      </trkpt>
      <trkpt lat="36.6959686279297" lon="-5.01843976974487">
        <ele>1681.9912109375</ele>
        <time>2018-07-28T07:37:55Z</time>
      </trkpt>
      <trkpt lat="36.695972442627" lon="-5.01844501495361">
        <ele>1681.91906738281</ele>
        <time>2018-07-28T07:37:56Z</time>
      </trkpt>
      <trkpt lat="36.6959800720215" lon="-5.0184531211853">
        <ele>1681.76684570312</ele>
        <time>2018-07-28T07:37:57Z</time>
      </trkpt>
      <trkpt lat="36.695987701416" lon="-5.01846313476562">
        <ele>1681.62341308594</ele>
        <time>2018-07-28T07:37:58Z</time>
      </trkpt>
      <trkpt lat="36.6959915161133" lon="-5.01847314834595">
        <ele>1681.572265625</ele>
        <time>2018-07-28T07:37:59Z</time>
      </trkpt>
      <trkpt lat="36.6959953308106" lon="-5.01848316192627">
        <ele>1681.52197265625</ele>
        <time>2018-07-28T07:38:00Z</time>
      </trkpt>
      <trkpt lat="36.6959991455078" lon="-5.01849222183228">
        <ele>1681.46838378906</ele>
        <time>2018-07-28T07:38:01Z</time>
      </trkpt>
      <trkpt lat="36.6960029602051" lon="-5.01849985122681">
        <ele>1681.40979003906</ele>
        <time>2018-07-28T07:38:02Z</time>
      </trkpt>
      <trkpt lat="36.6960029602051" lon="-5.01850700378418">
        <ele>1681.43920898438</ele>
        <time>2018-07-28T07:38:03Z</time>
      </trkpt>
      <trkpt lat="36.6960029602051" lon="-5.01851511001587">
        <ele>1681.47253417969</ele>
        <time>2018-07-28T07:38:04Z</time>
      </trkpt>
      <trkpt lat="36.6960029602051" lon="-5.01852416992188">
        <ele>1681.509765625</ele>
        <time>2018-07-28T07:38:05Z</time>
      </trkpt>
      <trkpt lat="36.6960067749023" lon="-5.01853179931641">
        <ele>1681.45251464844</ele>
        <time>2018-07-28T07:38:06Z</time>
      </trkpt>
      <trkpt lat="36.6960105895996" lon="-5.01853799819946">
        <ele>1681.39001464844</ele>
        <time>2018-07-28T07:38:07Z</time>
      </trkpt>
      <trkpt lat="36.6960182189941" lon="-5.01854276657104">
        <ele>1681.23388671875</ele>
        <time>2018-07-28T07:38:08Z</time>
      </trkpt>
      <trkpt lat="36.6960220336914" lon="-5.01854801177978">
        <ele>1681.16833496094</ele>
        <time>2018-07-28T07:38:09Z</time>
      </trkpt>
      <trkpt lat="36.6960296630859" lon="-5.01855182647705">
        <ele>1681.00927734375</ele>
        <time>2018-07-28T07:38:10Z</time>
      </trkpt>
      <trkpt lat="36.6960334777832" lon="-5.01855707168579">
        <ele>1680.94470214844</ele>
        <time>2018-07-28T07:38:11Z</time>
      </trkpt>
      <trkpt lat="36.6960411071777" lon="-5.01855993270874">
        <ele>1680.78247070312</ele>
        <time>2018-07-28T07:38:12Z</time>
      </trkpt>
      <trkpt lat="36.696044921875" lon="-5.01855993270874">
        <ele>1680.69506835938</ele>
        <time>2018-07-28T07:38:13Z</time>
      </trkpt>
      <trkpt lat="36.6960487365723" lon="-5.01855993270874">
        <ele>1680.60766601562</ele>
        <time>2018-07-28T07:38:14Z</time>
      </trkpt>
      <trkpt lat="36.6960525512695" lon="-5.01856088638306">
        <ele>1680.52465820312</ele>
        <time>2018-07-28T07:38:15Z</time>
      </trkpt>
      <trkpt lat="36.6960563659668" lon="-5.01856184005737">
        <ele>1680.44177246094</ele>
        <time>2018-07-28T07:38:16Z</time>
      </trkpt>
      <trkpt lat="36.6960601806641" lon="-5.01856184005737">
        <ele>1680.35437011719</ele>
        <time>2018-07-28T07:38:17Z</time>
      </trkpt>
      <trkpt lat="36.6960639953613" lon="-5.01855897903442">
        <ele>1680.25354003906</ele>
        <time>2018-07-28T07:38:18Z</time>
      </trkpt>
      <trkpt lat="36.6960678100586" lon="-5.01855707168579">
        <ele>1680.15698242188</ele>
        <time>2018-07-28T07:38:19Z</time>
      </trkpt>
      <trkpt lat="36.6960716247559" lon="-5.01855516433716">
        <ele>1680.06030273438</ele>
        <time>2018-07-28T07:38:20Z</time>
      </trkpt>
      <trkpt lat="36.6960792541504" lon="-5.01855087280273">
        <ele>1679.86413574219</ele>
        <time>2018-07-28T07:38:21Z</time>
      </trkpt>
      <trkpt lat="36.6960830688477" lon="-5.0185489654541">
        <ele>1679.76696777344</ele>
        <time>2018-07-28T07:38:22Z</time>
      </trkpt>
      <trkpt lat="36.6960906982422" lon="-5.01854705810547">
        <ele>1679.58178710938</ele>
        <time>2018-07-28T07:38:23Z</time>
      </trkpt>
      <trkpt lat="36.6960945129394" lon="-5.01854610443115">
        <ele>1679.48913574219</ele>
        <time>2018-07-28T07:38:24Z</time>
      </trkpt>
      <trkpt lat="36.6960983276367" lon="-5.01854515075684">
        <ele>1679.39624023438</ele>
        <time>2018-07-28T07:38:25Z</time>
      </trkpt>
      <trkpt lat="36.696102142334" lon="-5.01854276657104">
        <ele>1679.29614257812</ele>
        <time>2018-07-28T07:38:26Z</time>
      </trkpt>
      <trkpt lat="36.6961059570312" lon="-5.01853895187378">
        <ele>1679.1884765625</ele>
        <time>2018-07-28T07:38:27Z</time>
      </trkpt>
      <trkpt lat="36.6961097717285" lon="-5.01853322982788">
        <ele>1679.07055664062</ele>
        <time>2018-07-28T07:38:28Z</time>
      </trkpt>
      <trkpt lat="36.6961135864258" lon="-5.01852798461914">
        <ele>1678.95471191406</ele>
        <time>2018-07-28T07:38:29Z</time>
      </trkpt>
      <trkpt lat="36.6961135864258" lon="-5.01852321624756">
        <ele>1678.92980957031</ele>
        <time>2018-07-28T07:38:30Z</time>
      </trkpt>
      <trkpt lat="36.696117401123" lon="-5.01852083206177">
        <ele>1678.82836914062</ele>
        <time>2018-07-28T07:38:31Z</time>
      </trkpt>
      <trkpt lat="36.6961212158203" lon="-5.01851797103882">
        <ele>1678.72424316406</ele>
        <time>2018-07-28T07:38:32Z</time>
      </trkpt>
      <trkpt lat="36.6961250305176" lon="-5.0185170173645">
        <ele>1678.63012695312</ele>
        <time>2018-07-28T07:38:33Z</time>
      </trkpt>
      <trkpt lat="36.6961288452148" lon="-5.0185170173645">
        <ele>1678.54113769531</ele>
        <time>2018-07-28T07:38:34Z</time>
      </trkpt>
      <trkpt lat="36.6961326599121" lon="-5.01851606369019">
        <ele>1678.44689941406</ele>
        <time>2018-07-28T07:38:35Z</time>
      </trkpt>
      <trkpt lat="36.6961364746094" lon="-5.01851081848144">
        <ele>1678.3291015625</ele>
        <time>2018-07-28T07:38:36Z</time>
      </trkpt>
      <trkpt lat="36.6961402893066" lon="-5.01850414276123">
        <ele>1678.203125</ele>
        <time>2018-07-28T07:38:37Z</time>
      </trkpt>
      <trkpt lat="36.6961479187012" lon="-5.01849794387817">
        <ele>1677.98950195312</ele>
        <time>2018-07-28T07:38:38Z</time>
      </trkpt>
      <trkpt lat="36.6961517333984" lon="-5.01849508285522">
        <ele>1677.88366699219</ele>
        <time>2018-07-28T07:38:39Z</time>
      </trkpt>
      <trkpt lat="36.6961555480957" lon="-5.01849317550659">
        <ele>1677.78295898438</ele>
        <time>2018-07-28T07:38:40Z</time>
      </trkpt>
      <trkpt lat="36.696159362793" lon="-5.01848888397217">
        <ele>1677.66857910156</ele>
        <time>2018-07-28T07:38:41Z</time>
      </trkpt>
      <trkpt lat="36.6961669921875" lon="-5.01848602294922">
        <ele>1677.47180175781</ele>
        <time>2018-07-28T07:38:42Z</time>
      </trkpt>
      <trkpt lat="36.696174621582" lon="-5.01847982406616">
        <ele>1677.25512695312</ele>
        <time>2018-07-28T07:38:43Z</time>
      </trkpt>
      <trkpt lat="36.6961784362793" lon="-5.01847410202026">
        <ele>1677.13098144531</ele>
        <time>2018-07-28T07:38:44Z</time>
      </trkpt>
      <trkpt lat="36.6961860656738" lon="-5.01846790313721">
        <ele>1676.91259765625</ele>
        <time>2018-07-28T07:38:45Z</time>
      </trkpt>
      <trkpt lat="36.6961936950684" lon="-5.01846218109131">
        <ele>1676.69616699219</ele>
        <time>2018-07-28T07:38:46Z</time>
      </trkpt>
      <trkpt lat="36.6961975097656" lon="-5.01845598220825">
        <ele>1676.5673828125</ele>
        <time>2018-07-28T07:38:47Z</time>
      </trkpt>
      <trkpt lat="36.6962013244629" lon="-5.0184497833252">
        <ele>1676.43811035156</ele>
        <time>2018-07-28T07:38:48Z</time>
      </trkpt>
      <trkpt lat="36.6962051391602" lon="-5.01844596862793">
        <ele>1676.32299804688</ele>
        <time>2018-07-28T07:38:49Z</time>
      </trkpt>
      <trkpt lat="36.6962089538574" lon="-5.01844215393066">
        <ele>1676.20751953125</ele>
        <time>2018-07-28T07:38:50Z</time>
      </trkpt>
      <trkpt lat="36.6962127685547" lon="-5.01843595504761">
        <ele>1676.07702636719</ele>
        <time>2018-07-28T07:38:51Z</time>
      </trkpt>
      <trkpt lat="36.696216583252" lon="-5.01843023300171">
        <ele>1675.94897460938</ele>
        <time>2018-07-28T07:38:52Z</time>
      </trkpt>
      <trkpt lat="36.696216583252" lon="-5.01842594146728">
        <ele>1675.92211914062</ele>
        <time>2018-07-28T07:38:53Z</time>
      </trkpt>
      <trkpt lat="36.6962203979492" lon="-5.0184211730957">
        <ele>1675.79956054688</ele>
        <time>2018-07-28T07:38:54Z</time>
      </trkpt>
      <trkpt lat="36.6962203979492" lon="-5.01841402053833">
        <ele>1675.75439453125</ele>
        <time>2018-07-28T07:38:55Z</time>
      </trkpt>
      <trkpt lat="36.6962203979492" lon="-5.01840496063232">
        <ele>1675.69738769531</ele>
        <time>2018-07-28T07:38:56Z</time>
      </trkpt>
      <trkpt lat="36.6962203979492" lon="-5.01839590072632">
        <ele>1675.64025878906</ele>
        <time>2018-07-28T07:38:57Z</time>
      </trkpt>
      <trkpt lat="36.696216583252" lon="-5.01838779449463">
        <ele>1675.68322753906</ele>
        <time>2018-07-28T07:38:58Z</time>
      </trkpt>
      <trkpt lat="36.6962127685547" lon="-5.0183801651001">
        <ele>1675.72973632812</ele>
        <time>2018-07-28T07:38:59Z</time>
      </trkpt>
      <trkpt lat="36.6962089538574" lon="-5.01837205886841">
        <ele>1675.77392578125</ele>
        <time>2018-07-28T07:39:00Z</time>
      </trkpt>
      <trkpt lat="36.6962051391602" lon="-5.01836919784546">
        <ele>1675.85095214844</ele>
        <time>2018-07-28T07:39:01Z</time>
      </trkpt>
      <trkpt lat="36.6962051391602" lon="-5.01837015151978">
        <ele>1675.85681152344</ele>
        <time>2018-07-28T07:39:02Z</time>
      </trkpt>
      <trkpt lat="36.6962051391602" lon="-5.01837301254272">
        <ele>1675.87438964844</ele>
        <time>2018-07-28T07:39:03Z</time>
      </trkpt>
      <trkpt lat="36.6962089538574" lon="-5.01837491989136">
        <ele>1675.79162597656</ele>
        <time>2018-07-28T07:39:04Z</time>
      </trkpt>
      <trkpt lat="36.6962127685547" lon="-5.01837587356567">
        <ele>1675.70300292969</ele>
        <time>2018-07-28T07:39:05Z</time>
      </trkpt>
      <trkpt lat="36.6962089538574" lon="-5.01837491989136">
        <ele>1675.79162597656</ele>
        <time>2018-07-28T07:39:06Z</time>
      </trkpt>
      <trkpt lat="36.6962089538574" lon="-5.01837205886841">
        <ele>1675.77392578125</ele>
        <time>2018-07-28T07:39:07Z</time>
      </trkpt>
      <trkpt lat="36.6962051391602" lon="-5.01837015151978">
        <ele>1675.85681152344</ele>
        <time>2018-07-28T07:39:08Z</time>
      </trkpt>
      <trkpt lat="36.6962013244629" lon="-5.01836585998535">
        <ele>1675.92529296875</ele>
        <time>2018-07-28T07:39:09Z</time>
      </trkpt>
      <trkpt lat="36.6962013244629" lon="-5.01836204528809">
        <ele>1675.90197753906</ele>
        <time>2018-07-28T07:39:10Z</time>
      </trkpt>
      <trkpt lat="36.6962051391602" lon="-5.01835680007935">
        <ele>1675.77478027344</ele>
        <time>2018-07-28T07:39:11Z</time>
      </trkpt>
      <trkpt lat="36.6962127685547" lon="-5.01835203170776">
        <ele>1675.55456542969</ele>
        <time>2018-07-28T07:39:12Z</time>
      </trkpt>
      <trkpt lat="36.6962127685547" lon="-5.01834297180176">
        <ele>1675.49816894531</ele>
        <time>2018-07-28T07:39:13Z</time>
      </trkpt>
      <trkpt lat="36.6962127685547" lon="-5.01833200454712">
        <ele>1675.43005371094</ele>
        <time>2018-07-28T07:39:14Z</time>
      </trkpt>
      <trkpt lat="36.696216583252" lon="-5.0183219909668">
        <ele>1675.27209472656</ele>
        <time>2018-07-28T07:39:15Z</time>
      </trkpt>
      <trkpt lat="36.696216583252" lon="-5.01831197738647">
        <ele>1675.21044921875</ele>
        <time>2018-07-28T07:39:16Z</time>
      </trkpt>
      <trkpt lat="36.6962203979492" lon="-5.01830291748047">
        <ele>1675.05688476562</ele>
        <time>2018-07-28T07:39:17Z</time>
      </trkpt>
      <trkpt lat="36.6962242126465" lon="-5.01829385757446">
        <ele>1674.90246582031</ele>
        <time>2018-07-28T07:39:18Z</time>
      </trkpt>
      <trkpt lat="36.6962280273438" lon="-5.01828908920288">
        <ele>1674.77429199219</ele>
        <time>2018-07-28T07:39:19Z</time>
      </trkpt>
      <trkpt lat="36.6962356567383" lon="-5.01828718185425">
        <ele>1674.5654296875</ele>
        <time>2018-07-28T07:39:20Z</time>
      </trkpt>
      <trkpt lat="36.6962394714356" lon="-5.01828813552856">
        <ele>1674.47314453125</ele>
        <time>2018-07-28T07:39:21Z</time>
      </trkpt>
      <trkpt lat="36.6962432861328" lon="-5.01828908920288">
        <ele>1674.38098144531</ele>
        <time>2018-07-28T07:39:22Z</time>
      </trkpt>
      <trkpt lat="36.6962471008301" lon="-5.0182900428772">
        <ele>1674.28894042969</ele>
        <time>2018-07-28T07:39:23Z</time>
      </trkpt>
      <trkpt lat="36.6962509155273" lon="-5.01828908920288">
        <ele>1674.18444824219</ele>
        <time>2018-07-28T07:39:24Z</time>
      </trkpt>
      <trkpt lat="36.6962547302246" lon="-5.01828908920288">
        <ele>1674.08605957031</ele>
        <time>2018-07-28T07:39:25Z</time>
      </trkpt>
      <trkpt lat="36.6962585449219" lon="-5.01828813552856">
        <ele>1673.98132324219</ele>
        <time>2018-07-28T07:39:26Z</time>
      </trkpt>
      <trkpt lat="36.6962661743164" lon="-5.01828622817993">
        <ele>1673.77160644531</ele>
        <time>2018-07-28T07:39:27Z</time>
      </trkpt>
      <trkpt lat="36.6962661743164" lon="-5.01828479766846">
        <ele>1673.76184082031</ele>
        <time>2018-07-28T07:39:28Z</time>
      </trkpt>
      <trkpt lat="36.6962699890137" lon="-5.01828479766846">
        <ele>1673.66333007812</ele>
        <time>2018-07-28T07:39:29Z</time>
      </trkpt>
      <trkpt lat="36.6962699890137" lon="-5.01828384399414">
        <ele>1673.65686035156</ele>
        <time>2018-07-28T07:39:30Z</time>
      </trkpt>
      <trkpt lat="36.6962738037109" lon="-5.01828479766846">
        <ele>1673.56481933594</ele>
        <time>2018-07-28T07:39:31Z</time>
      </trkpt>
      <trkpt lat="36.6962814331055" lon="-5.01828479766846">
        <ele>1673.36779785156</ele>
        <time>2018-07-28T07:39:32Z</time>
      </trkpt>
      <trkpt lat="36.6962852478027" lon="-5.01828718185425">
        <ele>1673.2861328125</ele>
        <time>2018-07-28T07:39:33Z</time>
      </trkpt>
      <trkpt lat="36.6962928771973" lon="-5.0182900428772">
        <ele>1673.10974121094</ele>
        <time>2018-07-28T07:39:34Z</time>
      </trkpt>
      <trkpt lat="36.6963005065918" lon="-5.0182991027832">
        <ele>1672.97888183594</ele>
        <time>2018-07-28T07:39:35Z</time>
      </trkpt>
      <trkpt lat="36.6963119506836" lon="-5.01830911636353">
        <ele>1672.75952148438</ele>
        <time>2018-07-28T07:39:36Z</time>
      </trkpt>
      <trkpt lat="36.6963195800781" lon="-5.01831912994385">
        <ele>1672.64001464844</ele>
        <time>2018-07-28T07:39:37Z</time>
      </trkpt>
      <trkpt lat="36.6963233947754" lon="-5.01832723617554">
        <ele>1672.60437011719</ele>
        <time>2018-07-28T07:39:38Z</time>
      </trkpt>
      <trkpt lat="36.6963272094727" lon="-5.01833486557007">
        <ele>1672.56567382812</ele>
        <time>2018-07-28T07:39:39Z</time>
      </trkpt>
      <trkpt lat="36.6963310241699" lon="-5.01834297180176">
        <ele>1672.52966308594</ele>
        <time>2018-07-28T07:39:40Z</time>
      </trkpt>
      <trkpt lat="36.6963348388672" lon="-5.01835012435913">
        <ele>1672.48718261719</ele>
        <time>2018-07-28T07:39:41Z</time>
      </trkpt>
      <trkpt lat="36.6963424682617" lon="-5.01835584640503">
        <ele>1672.33935546875</ele>
        <time>2018-07-28T07:39:42Z</time>
      </trkpt>
      <trkpt lat="36.696346282959" lon="-5.01836109161377">
        <ele>1672.28381347656</ele>
        <time>2018-07-28T07:39:43Z</time>
      </trkpt>
      <trkpt lat="36.6963500976562" lon="-5.01836490631104">
        <ele>1672.2177734375</ele>
        <time>2018-07-28T07:39:44Z</time>
      </trkpt>
      <trkpt lat="36.6963500976562" lon="-5.01836681365967">
        <ele>1672.23229980469</ele>
        <time>2018-07-28T07:39:45Z</time>
      </trkpt>
      <trkpt lat="36.6963539123535" lon="-5.01836919784546">
        <ele>1672.15563964844</ele>
        <time>2018-07-28T07:39:46Z</time>
      </trkpt>
      <trkpt lat="36.6963577270508" lon="-5.01837110519409">
        <ele>1672.07556152344</ele>
        <time>2018-07-28T07:39:47Z</time>
      </trkpt>
      <trkpt lat="36.696361541748" lon="-5.01837587356567">
        <ele>1672.01770019531</ele>
        <time>2018-07-28T07:39:48Z</time>
      </trkpt>
      <trkpt lat="36.6963653564453" lon="-5.01838111877441">
        <ele>1671.96398925781</ele>
        <time>2018-07-28T07:39:49Z</time>
      </trkpt>
      <trkpt lat="36.6963729858398" lon="-5.018385887146">
        <ele>1671.81274414062</ele>
        <time>2018-07-28T07:39:50Z</time>
      </trkpt>
      <trkpt lat="36.6963729858398" lon="-5.0183892250061">
        <ele>1671.83898925781</ele>
        <time>2018-07-28T07:39:51Z</time>
      </trkpt>
      <trkpt lat="36.6963806152344" lon="-5.01839399337769">
        <ele>1671.68872070312</ele>
        <time>2018-07-28T07:39:52Z</time>
      </trkpt>
      <trkpt lat="36.6963844299316" lon="-5.01840019226074">
        <ele>1671.64428710938</ele>
        <time>2018-07-28T07:39:53Z</time>
      </trkpt>
      <trkpt lat="36.6963882446289" lon="-5.01840591430664">
        <ele>1671.59643554688</ele>
        <time>2018-07-28T07:39:54Z</time>
      </trkpt>
      <trkpt lat="36.6963920593262" lon="-5.01840877532959">
        <ele>1671.52600097656</ele>
        <time>2018-07-28T07:39:55Z</time>
      </trkpt>
      <trkpt lat="36.6963996887207" lon="-5.01841115951538">
        <ele>1671.35888671875</ele>
        <time>2018-07-28T07:39:56Z</time>
      </trkpt>
      <trkpt lat="36.696403503418" lon="-5.01841402053833">
        <ele>1671.2890625</ele>
        <time>2018-07-28T07:39:57Z</time>
      </trkpt>
      <trkpt lat="36.6964111328125" lon="-5.01841592788696">
        <ele>1671.11877441406</ele>
        <time>2018-07-28T07:39:58Z</time>
      </trkpt>
      <trkpt lat="36.696418762207" lon="-5.01842021942139">
        <ele>1670.96838378906</ele>
        <time>2018-07-28T07:39:59Z</time>
      </trkpt>
      <trkpt lat="36.6964263916016" lon="-5.01842403411865">
        <ele>1670.81481933594</ele>
        <time>2018-07-28T07:40:00Z</time>
      </trkpt>
      <trkpt lat="36.6964340209961" lon="-5.01842880249023">
        <ele>1670.66979980469</ele>
        <time>2018-07-28T07:40:01Z</time>
      </trkpt>
      <trkpt lat="36.6964378356934" lon="-5.01843214035034">
        <ele>1670.60571289062</ele>
        <time>2018-07-28T07:40:02Z</time>
      </trkpt>
      <trkpt lat="36.6964378356934" lon="-5.01843595504761">
        <ele>1670.63818359375</ele>
        <time>2018-07-28T07:40:03Z</time>
      </trkpt>
      <trkpt lat="36.6964454650879" lon="-5.01843881607056">
        <ele>1670.47827148438</ele>
        <time>2018-07-28T07:40:04Z</time>
      </trkpt>
      <trkpt lat="36.6964492797852" lon="-5.01844215393066">
        <ele>1670.41491699219</ele>
        <time>2018-07-28T07:40:05Z</time>
      </trkpt>
      <trkpt lat="36.6964530944824" lon="-5.01844501495361">
        <ele>1670.34777832031</ele>
        <time>2018-07-28T07:40:06Z</time>
      </trkpt>
      <trkpt lat="36.6964530944824" lon="-5.0184497833252">
        <ele>1670.38903808594</ele>
        <time>2018-07-28T07:40:07Z</time>
      </trkpt>
      <trkpt lat="36.6964569091797" lon="-5.01845693588257">
        <ele>1670.35949707031</ele>
        <time>2018-07-28T07:40:08Z</time>
      </trkpt>
      <trkpt lat="36.6964569091797" lon="-5.01846218109131">
        <ele>1670.40502929688</ele>
        <time>2018-07-28T07:40:09Z</time>
      </trkpt>
      <trkpt lat="36.6964645385742" lon="-5.01846694946289">
        <ele>1670.26440429688</ele>
        <time>2018-07-28T07:40:10Z</time>
      </trkpt>
      <trkpt lat="36.6964721679688" lon="-5.01847076416016">
        <ele>1670.1162109375</ele>
        <time>2018-07-28T07:40:11Z</time>
      </trkpt>
      <trkpt lat="36.6964797973633" lon="-5.0184760093689">
        <ele>1669.98120117188</ele>
        <time>2018-07-28T07:40:12Z</time>
      </trkpt>
      <trkpt lat="36.6964836120606" lon="-5.01847982406616">
        <ele>1669.9248046875</ele>
        <time>2018-07-28T07:40:13Z</time>
      </trkpt>
      <trkpt lat="36.6964874267578" lon="-5.01848411560059">
        <ele>1669.87292480469</ele>
        <time>2018-07-28T07:40:14Z</time>
      </trkpt>
      <trkpt lat="36.6964912414551" lon="-5.01848697662354">
        <ele>1669.80834960938</ele>
        <time>2018-07-28T07:40:15Z</time>
      </trkpt>
      <trkpt lat="36.6964950561523" lon="-5.0184907913208">
        <ele>1669.75280761719</ele>
        <time>2018-07-28T07:40:16Z</time>
      </trkpt>
      <trkpt lat="36.6965026855469" lon="-5.01849508285522">
        <ele>1669.61181640625</ele>
        <time>2018-07-28T07:40:17Z</time>
      </trkpt>
      <trkpt lat="36.6965103149414" lon="-5.01850080490112">
        <ele>1669.48486328125</ele>
        <time>2018-07-28T07:40:18Z</time>
      </trkpt>
      <trkpt lat="36.6965141296387" lon="-5.01850605010986">
        <ele>1669.44372558594</ele>
        <time>2018-07-28T07:40:19Z</time>
      </trkpt>
      <trkpt lat="36.6965141296387" lon="-5.01850986480713">
        <ele>1669.47900390625</ele>
        <time>2018-07-28T07:40:20Z</time>
      </trkpt>
      <trkpt lat="36.6965141296387" lon="-5.01851177215576">
        <ele>1669.49670410156</ele>
        <time>2018-07-28T07:40:21Z</time>
      </trkpt>
      <trkpt lat="36.6965141296387" lon="-5.01851320266724">
        <ele>1669.51000976562</ele>
        <time>2018-07-28T07:40:22Z</time>
      </trkpt>
      <trkpt lat="36.6965141296387" lon="-5.01851511001587">
        <ele>1669.52758789062</ele>
        <time>2018-07-28T07:40:23Z</time>
      </trkpt>
      <trkpt lat="36.6965217590332" lon="-5.01851892471314">
        <ele>1669.38500976562</ele>
        <time>2018-07-28T07:40:24Z</time>
      </trkpt>
      <trkpt lat="36.696533203125" lon="-5.01852607727051">
        <ele>1669.18566894531</ele>
        <time>2018-07-28T07:40:25Z</time>
      </trkpt>
      <trkpt lat="36.6965446472168" lon="-5.01853513717651">
        <ele>1669.00610351562</ele>
        <time>2018-07-28T07:40:26Z</time>
      </trkpt>
      <trkpt lat="36.6965560913086" lon="-5.01854276657104">
        <ele>1668.81494140625</ele>
        <time>2018-07-28T07:40:27Z</time>
      </trkpt>
      <trkpt lat="36.6965599060059" lon="-5.01854991912842">
        <ele>1668.79638671875</ele>
        <time>2018-07-28T07:40:28Z</time>
      </trkpt>
      <trkpt lat="36.6965675354004" lon="-5.01855802536011">
        <ele>1668.70031738281</ele>
        <time>2018-07-28T07:40:29Z</time>
      </trkpt>
      <trkpt lat="36.6965675354004" lon="-5.01856422424316">
        <ele>1668.76098632812</ele>
        <time>2018-07-28T07:40:30Z</time>
      </trkpt>
      <trkpt lat="36.6965713500977" lon="-5.01857089996338">
        <ele>1668.73950195312</ele>
        <time>2018-07-28T07:40:31Z</time>
      </trkpt>
      <trkpt lat="36.6965713500977" lon="-5.01857614517212">
        <ele>1668.791015625</ele>
        <time>2018-07-28T07:40:32Z</time>
      </trkpt>
      <trkpt lat="36.6965751647949" lon="-5.01858282089233">
        <ele>1668.77014160156</ele>
        <time>2018-07-28T07:40:33Z</time>
      </trkpt>
      <trkpt lat="36.6965827941894" lon="-5.01858806610107">
        <ele>1668.64929199219</ele>
        <time>2018-07-28T07:40:34Z</time>
      </trkpt>
      <trkpt lat="36.6965866088867" lon="-5.01859188079834">
        <ele>1668.60107421875</ele>
        <time>2018-07-28T07:40:35Z</time>
      </trkpt>
      <trkpt lat="36.696590423584" lon="-5.01859378814697">
        <ele>1668.53405761719</ele>
        <time>2018-07-28T07:40:36Z</time>
      </trkpt>
      <trkpt lat="36.696590423584" lon="-5.01859712600708">
        <ele>1668.56750488281</ele>
        <time>2018-07-28T07:40:37Z</time>
      </trkpt>
      <trkpt lat="36.6965942382812" lon="-5.01859903335571">
        <ele>1668.50073242188</ele>
        <time>2018-07-28T07:40:38Z</time>
      </trkpt>
      <trkpt lat="36.6965942382812" lon="-5.01860189437866">
        <ele>1668.52954101562</ele>
        <time>2018-07-28T07:40:39Z</time>
      </trkpt>
      <trkpt lat="36.6965942382812" lon="-5.01860284805298">
        <ele>1668.53918457031</ele>
        <time>2018-07-28T07:40:40Z</time>
      </trkpt>
      <trkpt lat="36.6966018676758" lon="-5.01860618591309">
        <ele>1668.40148925781</ele>
        <time>2018-07-28T07:40:41Z</time>
      </trkpt>
      <trkpt lat="36.696605682373" lon="-5.01860904693604">
        <ele>1668.34497070312</ele>
        <time>2018-07-28T07:40:42Z</time>
      </trkpt>
      <trkpt lat="36.6966094970703" lon="-5.01861381530762">
        <ele>1668.30822753906</ele>
        <time>2018-07-28T07:40:43Z</time>
      </trkpt>
      <trkpt lat="36.6966133117676" lon="-5.01861810684204">
        <ele>1668.26696777344</ele>
        <time>2018-07-28T07:40:44Z</time>
      </trkpt>
      <trkpt lat="36.6966171264648" lon="-5.01862192153931">
        <ele>1668.22106933594</ele>
        <time>2018-07-28T07:40:45Z</time>
      </trkpt>
      <trkpt lat="36.6966209411621" lon="-5.01862716674805">
        <ele>1668.19030761719</ele>
        <time>2018-07-28T07:40:46Z</time>
      </trkpt>
      <trkpt lat="36.6966247558594" lon="-5.018630027771">
        <ele>1668.13513183594</ele>
        <time>2018-07-28T07:40:47Z</time>
      </trkpt>
      <trkpt lat="36.6966247558594" lon="-5.01863384246826">
        <ele>1668.17468261719</ele>
        <time>2018-07-28T07:40:48Z</time>
      </trkpt>
      <trkpt lat="36.6966285705566" lon="-5.01863718032837">
        <ele>1668.12487792969</ele>
        <time>2018-07-28T07:40:49Z</time>
      </trkpt>
      <trkpt lat="36.6966323852539" lon="-5.01864099502564">
        <ele>1668.08032226562</ele>
        <time>2018-07-28T07:40:50Z</time>
      </trkpt>
      <trkpt lat="36.6966400146484" lon="-5.0186448097229">
        <ele>1667.95190429688</ele>
        <time>2018-07-28T07:40:51Z</time>
      </trkpt>
      <trkpt lat="36.6966438293457" lon="-5.01865100860596">
        <ele>1667.93322753906</ele>
        <time>2018-07-28T07:40:52Z</time>
      </trkpt>
      <trkpt lat="36.696647644043" lon="-5.01865720748901">
        <ele>1667.91516113281</ele>
        <time>2018-07-28T07:40:53Z</time>
      </trkpt>
      <trkpt lat="36.6966552734375" lon="-5.0186619758606">
        <ele>1667.79870605469</ele>
        <time>2018-07-28T07:40:54Z</time>
      </trkpt>
      <trkpt lat="36.6966590881348" lon="-5.01866722106934">
        <ele>1667.771484375</ele>
        <time>2018-07-28T07:40:55Z</time>
      </trkpt>
      <trkpt lat="36.6966667175293" lon="-5.0186710357666">
        <ele>1667.64562988281</ele>
        <time>2018-07-28T07:40:56Z</time>
      </trkpt>
      <trkpt lat="36.6966781616211" lon="-5.01868104934692">
        <ele>1667.41052246094</ele>
        <time>2018-07-28T07:40:57Z</time>
      </trkpt>
      <trkpt lat="36.6966934204102" lon="-5.0186939239502">
        <ele>1667.091796875</ele>
        <time>2018-07-28T07:40:58Z</time>
      </trkpt>
      <trkpt lat="36.696704864502" lon="-5.01870918273926">
        <ele>1666.91320800781</ele>
        <time>2018-07-28T07:40:59Z</time>
      </trkpt>
      <trkpt lat="36.6967163085938" lon="-5.0187201499939">
        <ele>1666.68835449219</ele>
        <time>2018-07-28T07:41:00Z</time>
      </trkpt>
      <trkpt lat="36.696720123291" lon="-5.0187292098999">
        <ele>1666.67175292969</ele>
        <time>2018-07-28T07:41:01Z</time>
      </trkpt>
      <trkpt lat="36.6967239379883" lon="-5.0187349319458">
        <ele>1666.619140625</ele>
        <time>2018-07-28T07:41:02Z</time>
      </trkpt>
      <trkpt lat="36.6967277526856" lon="-5.01873922348022">
        <ele>1666.55102539062</ele>
        <time>2018-07-28T07:41:03Z</time>
      </trkpt>
      <trkpt lat="36.6967315673828" lon="-5.01874208450317">
        <ele>1666.46752929688</ele>
        <time>2018-07-28T07:41:04Z</time>
      </trkpt>
      <trkpt lat="36.6967353820801" lon="-5.01874399185181">
        <ele>1666.37365722656</ele>
        <time>2018-07-28T07:41:05Z</time>
      </trkpt>
      <trkpt lat="36.6967391967773" lon="-5.01874399185181">
        <ele>1666.25915527344</ele>
        <time>2018-07-28T07:41:06Z</time>
      </trkpt>
      <trkpt lat="36.6967391967773" lon="-5.01874113082886">
        <ele>1666.22827148438</ele>
        <time>2018-07-28T07:41:07Z</time>
      </trkpt>
      <trkpt lat="36.6967506408691" lon="-5.01873779296875">
        <ele>1665.84887695312</ele>
        <time>2018-07-28T07:41:08Z</time>
      </trkpt>
      <trkpt lat="36.6967582702637" lon="-5.01873588562012">
        <ele>1665.59948730469</ele>
        <time>2018-07-28T07:41:09Z</time>
      </trkpt>
      <trkpt lat="36.6967620849609" lon="-5.01873922348022">
        <ele>1665.52111816406</ele>
        <time>2018-07-28T07:41:10Z</time>
      </trkpt>
      <trkpt lat="36.6967697143555" lon="-5.01874303817749">
        <ele>1665.33337402344</ele>
        <time>2018-07-28T07:41:11Z</time>
      </trkpt>
      <trkpt lat="36.6967735290527" lon="-5.01874780654907">
        <ele>1665.27038574219</ele>
        <time>2018-07-28T07:41:12Z</time>
      </trkpt>
      <trkpt lat="36.6967811584473" lon="-5.01875114440918">
        <ele>1665.07763671875</ele>
        <time>2018-07-28T07:41:13Z</time>
      </trkpt>
      <trkpt lat="36.6967887878418" lon="-5.01875400543213">
        <ele>1664.87963867188</ele>
        <time>2018-07-28T07:41:14Z</time>
      </trkpt>
      <trkpt lat="36.6967926025391" lon="-5.01875495910644">
        <ele>1664.77551269531</ele>
        <time>2018-07-28T07:41:15Z</time>
      </trkpt>
      <trkpt lat="36.6967964172363" lon="-5.01875400543213">
        <ele>1664.65075683594</ele>
        <time>2018-07-28T07:41:16Z</time>
      </trkpt>
      <trkpt lat="36.6968040466309" lon="-5.01875305175781">
        <ele>1664.41162109375</ele>
        <time>2018-07-28T07:41:17Z</time>
      </trkpt>
      <trkpt lat="36.6968078613281" lon="-5.0187520980835">
        <ele>1664.28686523438</ele>
        <time>2018-07-28T07:41:18Z</time>
      </trkpt>
      <trkpt lat="36.6968154907227" lon="-5.0187520980835">
        <ele>1664.05798339844</ele>
        <time>2018-07-28T07:41:19Z</time>
      </trkpt>
      <trkpt lat="36.6968231201172" lon="-5.0187520980835">
        <ele>1663.8291015625</ele>
        <time>2018-07-28T07:41:20Z</time>
      </trkpt>
      <trkpt lat="36.6968269348144" lon="-5.01875305175781">
        <ele>1663.72485351562</ele>
        <time>2018-07-28T07:41:21Z</time>
      </trkpt>
      <trkpt lat="36.6968383789062" lon="-5.01875019073486">
        <ele>1663.35070800781</ele>
        <time>2018-07-28T07:41:22Z</time>
      </trkpt>
      <trkpt lat="36.6968460083008" lon="-5.01874494552612">
        <ele>1663.06518554688</ele>
        <time>2018-07-28T07:41:23Z</time>
      </trkpt>
      <trkpt lat="36.696849822998" lon="-5.01874017715454">
        <ele>1662.89916992188</ele>
        <time>2018-07-28T07:41:24Z</time>
      </trkpt>
      <trkpt lat="36.6968536376953" lon="-5.01873588562012">
        <ele>1662.73840332031</ele>
        <time>2018-07-28T07:41:25Z</time>
      </trkpt>
      <trkpt lat="36.6968574523926" lon="-5.01873302459717">
        <ele>1662.59313964844</ele>
        <time>2018-07-28T07:41:26Z</time>
      </trkpt>
      <trkpt lat="36.6968612670898" lon="-5.0187292098999">
        <ele>1662.4375</ele>
        <time>2018-07-28T07:41:27Z</time>
      </trkpt>
      <trkpt lat="36.6968650817871" lon="-5.01872682571411">
        <ele>1662.29724121094</ele>
        <time>2018-07-28T07:41:28Z</time>
      </trkpt>
      <trkpt lat="36.6968688964844" lon="-5.0187258720398">
        <ele>1662.17248535156</ele>
        <time>2018-07-28T07:41:29Z</time>
      </trkpt>
      <trkpt lat="36.6968727111816" lon="-5.0187258720398">
        <ele>1662.05810546875</ele>
        <time>2018-07-28T07:41:30Z</time>
      </trkpt>
      <trkpt lat="36.6968765258789" lon="-5.01872396469116">
        <ele>1661.92309570312</ele>
        <time>2018-07-28T07:41:31Z</time>
      </trkpt>
      <trkpt lat="36.6968765258789" lon="-5.01871919631958">
        <ele>1661.87158203125</ele>
        <time>2018-07-28T07:41:32Z</time>
      </trkpt>
      <trkpt lat="36.6968803405762" lon="-5.01871299743652">
        <ele>1661.69018554688</ele>
        <time>2018-07-28T07:41:33Z</time>
      </trkpt>
      <trkpt lat="36.6968841552734" lon="-5.01870822906494">
        <ele>1661.52416992188</ele>
        <time>2018-07-28T07:41:34Z</time>
      </trkpt>
      <trkpt lat="36.6968879699707" lon="-5.0187029838562">
        <ele>1661.35314941406</ele>
        <time>2018-07-28T07:41:35Z</time>
      </trkpt>
      <trkpt lat="36.696891784668" lon="-5.01869583129883">
        <ele>1661.16137695312</ele>
        <time>2018-07-28T07:41:36Z</time>
      </trkpt>
      <trkpt lat="36.696891784668" lon="-5.01868486404419">
        <ele>1661.04296875</ele>
        <time>2018-07-28T07:41:37Z</time>
      </trkpt>
      <trkpt lat="36.6968879699707" lon="-5.01867198944092">
        <ele>1661.01843261719</ele>
        <time>2018-07-28T07:41:38Z</time>
      </trkpt>
      <trkpt lat="36.6968841552734" lon="-5.01865911483765">
        <ele>1660.99377441406</ele>
        <time>2018-07-28T07:41:39Z</time>
      </trkpt>
      <trkpt lat="36.6968841552734" lon="-5.01865100860596">
        <ele>1660.90625</ele>
        <time>2018-07-28T07:41:40Z</time>
      </trkpt>
      <trkpt lat="36.6968803405762" lon="-5.01864385604858">
        <ele>1660.94348144531</ele>
        <time>2018-07-28T07:41:41Z</time>
      </trkpt>
      <trkpt lat="36.6968803405762" lon="-5.01863813400269">
        <ele>1660.88159179688</ele>
        <time>2018-07-28T07:41:42Z</time>
      </trkpt>
      <trkpt lat="36.6968765258789" lon="-5.018630027771">
        <ele>1660.90856933594</ele>
        <time>2018-07-28T07:41:43Z</time>
      </trkpt>
      <trkpt lat="36.6968765258789" lon="-5.01862382888794">
        <ele>1660.84155273438</ele>
        <time>2018-07-28T07:41:44Z</time>
      </trkpt>
      <trkpt lat="36.6968727111816" lon="-5.01861906051636">
        <ele>1660.90454101562</ele>
        <time>2018-07-28T07:41:45Z</time>
      </trkpt>
      <trkpt lat="36.6968727111816" lon="-5.01861381530762">
        <ele>1660.84790039062</ele>
        <time>2018-07-28T07:41:46Z</time>
      </trkpt>
      <trkpt lat="36.6968727111816" lon="-5.0186071395874">
        <ele>1660.77575683594</ele>
        <time>2018-07-28T07:41:47Z</time>
      </trkpt>
      <trkpt lat="36.6968803405762" lon="-5.01859998703003">
        <ele>1660.46960449219</ele>
        <time>2018-07-28T07:41:48Z</time>
      </trkpt>
      <trkpt lat="36.6968879699707" lon="-5.01859188079834">
        <ele>1660.15319824219</ele>
        <time>2018-07-28T07:41:49Z</time>
      </trkpt>
      <trkpt lat="36.6968955993652" lon="-5.01858377456665">
        <ele>1659.83679199219</ele>
        <time>2018-07-28T07:41:50Z</time>
      </trkpt>
      <trkpt lat="36.6969032287598" lon="-5.0185751914978">
        <ele>1659.51525878906</ele>
        <time>2018-07-28T07:41:51Z</time>
      </trkpt>
      <trkpt lat="36.6969108581543" lon="-5.01856708526611">
        <ele>1659.19873046875</ele>
        <time>2018-07-28T07:41:52Z</time>
      </trkpt>
      <trkpt lat="36.6969108581543" lon="-5.01855897903442">
        <ele>1659.11120605469</ele>
        <time>2018-07-28T07:41:53Z</time>
      </trkpt>
      <trkpt lat="36.6969108581543" lon="-5.01854991912842">
        <ele>1659.01342773438</ele>
        <time>2018-07-28T07:41:54Z</time>
      </trkpt>
      <trkpt lat="36.6969108581543" lon="-5.01854276657104">
        <ele>1658.93615722656</ele>
        <time>2018-07-28T07:41:55Z</time>
      </trkpt>
      <trkpt lat="36.6969108581543" lon="-5.01853609085083">
        <ele>1658.86401367188</ele>
        <time>2018-07-28T07:41:56Z</time>
      </trkpt>
      <trkpt lat="36.6969146728516" lon="-5.01852893829346">
        <ele>1658.67236328125</ele>
        <time>2018-07-28T07:41:57Z</time>
      </trkpt>
      <trkpt lat="36.6969184875488" lon="-5.01851987838745">
        <ele>1658.46008300781</ele>
        <time>2018-07-28T07:41:58Z</time>
      </trkpt>
      <trkpt lat="36.6969184875488" lon="-5.01851081848144">
        <ele>1658.36218261719</ele>
        <time>2018-07-28T07:41:59Z</time>
      </trkpt>
      <trkpt lat="36.6969223022461" lon="-5.01850414276123">
        <ele>1658.17565917969</ele>
        <time>2018-07-28T07:42:00Z</time>
      </trkpt>
      <trkpt lat="36.6969223022461" lon="-5.01849985122681">
        <ele>1658.12927246094</ele>
        <time>2018-07-28T07:42:01Z</time>
      </trkpt>
      <trkpt lat="36.6969223022461" lon="-5.01849508285522">
        <ele>1658.07788085938</ele>
        <time>2018-07-28T07:42:02Z</time>
      </trkpt>
      <trkpt lat="36.6969223022461" lon="-5.01848888397217">
        <ele>1658.01086425781</ele>
        <time>2018-07-28T07:42:03Z</time>
      </trkpt>
      <trkpt lat="36.6969223022461" lon="-5.01848077774048">
        <ele>1657.92333984375</ele>
        <time>2018-07-28T07:42:04Z</time>
      </trkpt>
      <trkpt lat="36.6969223022461" lon="-5.01847219467163">
        <ele>1657.83068847656</ele>
        <time>2018-07-28T07:42:05Z</time>
      </trkpt>
      <trkpt lat="36.6969184875488" lon="-5.01846408843994">
        <ele>1657.85754394531</ele>
        <time>2018-07-28T07:42:06Z</time>
      </trkpt>
      <trkpt lat="36.6969146728516" lon="-5.01845693588257">
        <ele>1657.89477539062</ele>
        <time>2018-07-28T07:42:07Z</time>
      </trkpt>
      <trkpt lat="36.6969146728516" lon="-5.0184497833252">
        <ele>1657.81750488281</ele>
        <time>2018-07-28T07:42:08Z</time>
      </trkpt>
      <trkpt lat="36.696907043457" lon="-5.01844501495361">
        <ele>1657.99487304688</ele>
        <time>2018-07-28T07:42:09Z</time>
      </trkpt>
      <trkpt lat="36.6969032287598" lon="-5.01844120025635">
        <ele>1658.06811523438</ele>
        <time>2018-07-28T07:42:10Z</time>
      </trkpt>
      <trkpt lat="36.6968994140625" lon="-5.01843690872192">
        <ele>1658.13623046875</ele>
        <time>2018-07-28T07:42:11Z</time>
      </trkpt>
      <trkpt lat="36.6968955993652" lon="-5.01843404769897">
        <ele>1658.2197265625</ele>
        <time>2018-07-28T07:42:12Z</time>
      </trkpt>
      <trkpt lat="36.696891784668" lon="-5.01842880249023">
        <ele>1658.27758789062</ele>
        <time>2018-07-28T07:42:13Z</time>
      </trkpt>
      <trkpt lat="36.6968879699707" lon="-5.01842308044434">
        <ele>1658.33020019531</ele>
        <time>2018-07-28T07:42:14Z</time>
      </trkpt>
      <trkpt lat="36.696891784668" lon="-5.01841592788696">
        <ele>1658.13842773438</ele>
        <time>2018-07-28T07:42:15Z</time>
      </trkpt>
      <trkpt lat="36.6968955993652" lon="-5.01840877532959">
        <ele>1657.94677734375</ele>
        <time>2018-07-28T07:42:16Z</time>
      </trkpt>
      <trkpt lat="36.6968955993652" lon="-5.01840305328369">
        <ele>1657.88500976562</ele>
        <time>2018-07-28T07:42:17Z</time>
      </trkpt>
      <trkpt lat="36.6968955993652" lon="-5.01839685440064">
        <ele>1657.81799316406</ele>
        <time>2018-07-28T07:42:18Z</time>
      </trkpt>
      <trkpt lat="36.6968955993652" lon="-5.01839113235474">
        <ele>1657.75622558594</ele>
        <time>2018-07-28T07:42:19Z</time>
      </trkpt>
      <trkpt lat="36.6969032287598" lon="-5.01838684082031">
        <ele>1657.48095703125</ele>
        <time>2018-07-28T07:42:20Z</time>
      </trkpt>
      <trkpt lat="36.696907043457" lon="-5.01838207244873">
        <ele>1657.31506347656</ele>
        <time>2018-07-28T07:42:21Z</time>
      </trkpt>
      <trkpt lat="36.6969108581543" lon="-5.01837682723999">
        <ele>1657.14404296875</ele>
        <time>2018-07-28T07:42:22Z</time>
      </trkpt>
      <trkpt lat="36.696907043457" lon="-5.01837015151978">
        <ele>1657.18627929688</ele>
        <time>2018-07-28T07:42:23Z</time>
      </trkpt>
      <trkpt lat="36.6969032287598" lon="-5.01836109161377">
        <ele>1657.20288085938</ele>
        <time>2018-07-28T07:42:24Z</time>
      </trkpt>
      <trkpt lat="36.6969032287598" lon="-5.01835298538208">
        <ele>1657.11535644531</ele>
        <time>2018-07-28T07:42:25Z</time>
      </trkpt>
      <trkpt lat="36.6969032287598" lon="-5.01834583282471">
        <ele>1657.0380859375</ele>
        <time>2018-07-28T07:42:26Z</time>
      </trkpt>
      <trkpt lat="36.6968994140625" lon="-5.01833915710449">
        <ele>1657.08044433594</ele>
        <time>2018-07-28T07:42:27Z</time>
      </trkpt>
      <trkpt lat="36.6968994140625" lon="-5.01832914352417">
        <ele>1656.97436523438</ele>
        <time>2018-07-28T07:42:28Z</time>
      </trkpt>
      <trkpt lat="36.6968994140625" lon="-5.01831722259522">
        <ele>1656.85119628906</ele>
        <time>2018-07-28T07:42:29Z</time>
      </trkpt>
      <trkpt lat="36.6968955993652" lon="-5.01830577850342">
        <ele>1656.84680175781</ele>
        <time>2018-07-28T07:42:30Z</time>
      </trkpt>
      <trkpt lat="36.6968955993652" lon="-5.01829814910889">
        <ele>1656.76782226562</ele>
        <time>2018-07-28T07:42:31Z</time>
      </trkpt>
      <trkpt lat="36.6968955993652" lon="-5.01829099655151">
        <ele>1656.69372558594</ele>
        <time>2018-07-28T07:42:32Z</time>
      </trkpt>
      <trkpt lat="36.696891784668" lon="-5.01828384399414">
        <ele>1656.73278808594</ele>
        <time>2018-07-28T07:42:33Z</time>
      </trkpt>
      <trkpt lat="36.696891784668" lon="-5.01827478408814">
        <ele>1656.63879394531</ele>
        <time>2018-07-28T07:42:34Z</time>
      </trkpt>
      <trkpt lat="36.6968879699707" lon="-5.01826477050781">
        <ele>1656.64733886719</ele>
        <time>2018-07-28T07:42:35Z</time>
      </trkpt>
      <trkpt lat="36.696891784668" lon="-5.01825618743896">
        <ele>1656.44580078125</ele>
        <time>2018-07-28T07:42:36Z</time>
      </trkpt>
      <trkpt lat="36.6968955993652" lon="-5.01824808120728">
        <ele>1656.24951171875</ele>
        <time>2018-07-28T07:42:37Z</time>
      </trkpt>
      <trkpt lat="36.6968994140625" lon="-5.01824188232422">
        <ele>1656.07336425781</ele>
        <time>2018-07-28T07:42:38Z</time>
      </trkpt>
      <trkpt lat="36.6969032287598" lon="-5.01823711395264">
        <ele>1655.91235351562</ele>
        <time>2018-07-28T07:42:39Z</time>
      </trkpt>
      <trkpt lat="36.6969032287598" lon="-5.01823091506958">
        <ele>1655.84851074219</ele>
        <time>2018-07-28T07:42:40Z</time>
      </trkpt>
      <trkpt lat="36.696907043457" lon="-5.01822519302368">
        <ele>1655.67822265625</ele>
        <time>2018-07-28T07:42:41Z</time>
      </trkpt>
      <trkpt lat="36.6969108581543" lon="-5.01821899414062">
        <ele>1655.50317382812</ele>
        <time>2018-07-28T07:42:42Z</time>
      </trkpt>
      <trkpt lat="36.6969108581543" lon="-5.01821517944336">
        <ele>1655.46411132812</ele>
        <time>2018-07-28T07:42:43Z</time>
      </trkpt>
      <trkpt lat="36.6969146728516" lon="-5.01821088790894">
        <ele>1655.30908203125</ele>
        <time>2018-07-28T07:42:44Z</time>
      </trkpt>
      <trkpt lat="36.6969184875488" lon="-5.01820802688599">
        <ele>1655.1689453125</ele>
        <time>2018-07-28T07:42:45Z</time>
      </trkpt>
      <trkpt lat="36.6969184875488" lon="-5.01820278167725">
        <ele>1655.11547851562</ele>
        <time>2018-07-28T07:42:46Z</time>
      </trkpt>
      <trkpt lat="36.6969223022461" lon="-5.0181999206543">
        <ele>1654.9755859375</ele>
        <time>2018-07-28T07:42:47Z</time>
      </trkpt>
      <trkpt lat="36.6969223022461" lon="-5.01819705963135">
        <ele>1654.94641113281</ele>
        <time>2018-07-28T07:42:48Z</time>
      </trkpt>
      <trkpt lat="36.6969261169434" lon="-5.01819276809692">
        <ele>1654.79223632812</ele>
        <time>2018-07-28T07:42:49Z</time>
      </trkpt>
      <trkpt lat="36.6969261169434" lon="-5.01819086074829">
        <ele>1654.77294921875</ele>
        <time>2018-07-28T07:42:50Z</time>
      </trkpt>
      <trkpt lat="36.6969299316406" lon="-5.01819086074829">
        <ele>1654.66247558594</ele>
        <time>2018-07-28T07:42:51Z</time>
      </trkpt>
      <trkpt lat="36.6969337463379" lon="-5.0181941986084">
        <ele>1654.58557128906</ele>
        <time>2018-07-28T07:42:52Z</time>
      </trkpt>
      <trkpt lat="36.6969375610352" lon="-5.01819610595703">
        <ele>1654.494140625</ele>
        <time>2018-07-28T07:42:53Z</time>
      </trkpt>
      <trkpt lat="36.6969451904297" lon="-5.0181999206543">
        <ele>1654.31091308594</ele>
        <time>2018-07-28T07:42:54Z</time>
      </trkpt>
      <trkpt lat="36.6969528198242" lon="-5.01820278167725">
        <ele>1654.11779785156</ele>
        <time>2018-07-28T07:42:55Z</time>
      </trkpt>
      <trkpt lat="36.6969604492188" lon="-5.01820516586304">
        <ele>1653.91967773438</ele>
        <time>2018-07-28T07:42:56Z</time>
      </trkpt>
      <trkpt lat="36.696964263916" lon="-5.01820421218872">
        <ele>1653.79931640625</ele>
        <time>2018-07-28T07:42:57Z</time>
      </trkpt>
      <trkpt lat="36.6969680786133" lon="-5.01820087432861">
        <ele>1653.65563964844</ele>
        <time>2018-07-28T07:42:58Z</time>
      </trkpt>
      <trkpt lat="36.6969757080078" lon="-5.01819515228272">
        <ele>1653.37805175781</ele>
        <time>2018-07-28T07:42:59Z</time>
      </trkpt>
      <trkpt lat="36.6969833374023" lon="-5.01818799972534">
        <ele>1653.08728027344</ele>
        <time>2018-07-28T07:43:00Z</time>
      </trkpt>
      <trkpt lat="36.6969871520996" lon="-5.01818418502808">
        <ele>1652.93981933594</ele>
        <time>2018-07-28T07:43:01Z</time>
      </trkpt>
      <trkpt lat="36.6969909667969" lon="-5.01818180084228">
        <ele>1652.80639648438</ele>
        <time>2018-07-28T07:43:02Z</time>
      </trkpt>
      <trkpt lat="36.6969947814941" lon="-5.01817893981934">
        <ele>1652.66857910156</ele>
        <time>2018-07-28T07:43:03Z</time>
      </trkpt>
      <trkpt lat="36.6969985961914" lon="-5.01817512512207">
        <ele>1652.52172851562</ele>
        <time>2018-07-28T07:43:04Z</time>
      </trkpt>
      <trkpt lat="36.6970024108887" lon="-5.01816987991333">
        <ele>1652.361328125</ele>
        <time>2018-07-28T07:43:05Z</time>
      </trkpt>
      <trkpt lat="36.6970024108887" lon="-5.01816892623901">
        <ele>1652.35217285156</ele>
        <time>2018-07-28T07:43:06Z</time>
      </trkpt>
      <trkpt lat="36.6970062255859" lon="-5.01816987991333">
        <ele>1652.25146484375</ele>
        <time>2018-07-28T07:43:07Z</time>
      </trkpt>
      <trkpt lat="36.6970062255859" lon="-5.01817178726196">
        <ele>1652.26965332031</ele>
        <time>2018-07-28T07:43:08Z</time>
      </trkpt>
      <trkpt lat="36.6970062255859" lon="-5.01817178726196">
        <ele>1652.26965332031</ele>
        <time>2018-07-28T07:43:09Z</time>
      </trkpt>
      <trkpt lat="36.6970062255859" lon="-5.01817178726196">
        <ele>1652.26965332031</ele>
        <time>2018-07-28T07:43:10Z</time>
      </trkpt>
      <trkpt lat="36.6970062255859" lon="-5.01817178726196">
        <ele>1652.26965332031</ele>
        <time>2018-07-28T07:43:11Z</time>
      </trkpt>
      <trkpt lat="36.6970062255859" lon="-5.01817178726196">
        <ele>1652.26965332031</ele>
        <time>2018-07-28T07:43:12Z</time>
      </trkpt>
      <trkpt lat="36.6970062255859" lon="-5.01817083358765">
        <ele>1652.26049804688</ele>
        <time>2018-07-28T07:43:13Z</time>
      </trkpt>
      <trkpt lat="36.6970062255859" lon="-5.01817083358765">
        <ele>1652.26049804688</ele>
        <time>2018-07-28T07:43:14Z</time>
      </trkpt>
      <trkpt lat="36.6970062255859" lon="-5.01816987991333">
        <ele>1652.25146484375</ele>
        <time>2018-07-28T07:43:15Z</time>
      </trkpt>
      <trkpt lat="36.6970100402832" lon="-5.01816892623901">
        <ele>1652.13232421875</ele>
        <time>2018-07-28T07:43:16Z</time>
      </trkpt>
      <trkpt lat="36.6970100402832" lon="-5.0181679725647">
        <ele>1652.12329101562</ele>
        <time>2018-07-28T07:43:17Z</time>
      </trkpt>
      <trkpt lat="36.6970100402832" lon="-5.0181679725647">
        <ele>1652.12329101562</ele>
        <time>2018-07-28T07:43:18Z</time>
      </trkpt>
      <trkpt lat="36.6970100402832" lon="-5.01816987991333">
        <ele>1652.14147949219</ele>
        <time>2018-07-28T07:43:19Z</time>
      </trkpt>
      <trkpt lat="36.6970100402832" lon="-5.01817178726196">
        <ele>1652.15966796875</ele>
        <time>2018-07-28T07:43:20Z</time>
      </trkpt>
      <trkpt lat="36.6970100402832" lon="-5.01817321777344">
        <ele>1652.17321777344</ele>
        <time>2018-07-28T07:43:21Z</time>
      </trkpt>
      <trkpt lat="36.6970100402832" lon="-5.01817321777344">
        <ele>1652.17321777344</ele>
        <time>2018-07-28T07:43:22Z</time>
      </trkpt>
      <trkpt lat="36.6970100402832" lon="-5.01817321777344">
        <ele>1652.17321777344</ele>
        <time>2018-07-28T07:43:23Z</time>
      </trkpt>
      <trkpt lat="36.6970062255859" lon="-5.01817178726196">
        <ele>1652.26965332031</ele>
        <time>2018-07-28T07:43:24Z</time>
      </trkpt>
      <trkpt lat="36.6970062255859" lon="-5.01817178726196">
        <ele>1652.26965332031</ele>
        <time>2018-07-28T07:43:25Z</time>
      </trkpt>
      <trkpt lat="36.6970062255859" lon="-5.01817083358765">
        <ele>1652.26049804688</ele>
        <time>2018-07-28T07:43:26Z</time>
      </trkpt>
      <trkpt lat="36.6970062255859" lon="-5.01816987991333">
        <ele>1652.25146484375</ele>
        <time>2018-07-28T07:43:27Z</time>
      </trkpt>
      <trkpt lat="36.6970062255859" lon="-5.01816892623901">
        <ele>1652.24230957031</ele>
        <time>2018-07-28T07:43:28Z</time>
      </trkpt>
      <trkpt lat="36.6970024108887" lon="-5.0181679725647">
        <ele>1652.34313964844</ele>
        <time>2018-07-28T07:43:29Z</time>
      </trkpt>
      <trkpt lat="36.6970024108887" lon="-5.01816701889038">
        <ele>1652.333984375</ele>
        <time>2018-07-28T07:43:30Z</time>
      </trkpt>
      <trkpt lat="36.6970024108887" lon="-5.01816606521606">
        <ele>1652.32482910156</ele>
        <time>2018-07-28T07:43:31Z</time>
      </trkpt>
      <trkpt lat="36.6970024108887" lon="-5.01816511154175">
        <ele>1652.31567382812</ele>
        <time>2018-07-28T07:43:32Z</time>
      </trkpt>
      <trkpt lat="36.6970024108887" lon="-5.01816415786743">
        <ele>1652.30651855469</ele>
        <time>2018-07-28T07:43:33Z</time>
      </trkpt>
      <trkpt lat="36.6970024108887" lon="-5.01816320419312">
        <ele>1652.29736328125</ele>
        <time>2018-07-28T07:43:34Z</time>
      </trkpt>
      <trkpt lat="36.6970024108887" lon="-5.01816320419312">
        <ele>1652.29736328125</ele>
        <time>2018-07-28T07:43:35Z</time>
      </trkpt>
      <trkpt lat="36.6970024108887" lon="-5.01816177368164">
        <ele>1652.28369140625</ele>
        <time>2018-07-28T07:43:36Z</time>
      </trkpt>
      <trkpt lat="36.6970024108887" lon="-5.01816177368164">
        <ele>1652.28369140625</ele>
        <time>2018-07-28T07:43:37Z</time>
      </trkpt>
      <trkpt lat="36.6970024108887" lon="-5.01816177368164">
        <ele>1652.28369140625</ele>
        <time>2018-07-28T07:43:38Z</time>
      </trkpt>
      <trkpt lat="36.6970024108887" lon="-5.01816177368164">
        <ele>1652.28369140625</ele>
        <time>2018-07-28T07:43:39Z</time>
      </trkpt>
      <trkpt lat="36.6970024108887" lon="-5.01816177368164">
        <ele>1652.28369140625</ele>
        <time>2018-07-28T07:43:40Z</time>
      </trkpt>
      <trkpt lat="36.6970024108887" lon="-5.01816177368164">
        <ele>1652.28369140625</ele>
        <time>2018-07-28T07:43:41Z</time>
      </trkpt>
      <trkpt lat="36.6970024108887" lon="-5.01816082000732">
        <ele>1652.27453613281</ele>
        <time>2018-07-28T07:43:42Z</time>
      </trkpt>
      <trkpt lat="36.6969985961914" lon="-5.01816082000732">
        <ele>1652.38427734375</ele>
        <time>2018-07-28T07:43:43Z</time>
      </trkpt>
      <trkpt lat="36.6969985961914" lon="-5.01816082000732">
        <ele>1652.38427734375</ele>
        <time>2018-07-28T07:43:44Z</time>
      </trkpt>
      <trkpt lat="36.6969947814941" lon="-5.01815986633301">
        <ele>1652.48474121094</ele>
        <time>2018-07-28T07:43:45Z</time>
      </trkpt>
      <trkpt lat="36.6969947814941" lon="-5.01815986633301">
        <ele>1652.48474121094</ele>
        <time>2018-07-28T07:43:46Z</time>
      </trkpt>
      <trkpt lat="36.6969909667969" lon="-5.01815891265869">
        <ele>1652.58520507812</ele>
        <time>2018-07-28T07:43:47Z</time>
      </trkpt>
      <trkpt lat="36.6969871520996" lon="-5.01815509796143">
        <ele>1652.65783691406</ele>
        <time>2018-07-28T07:43:48Z</time>
      </trkpt>
      <trkpt lat="36.6969871520996" lon="-5.01814889907837">
        <ele>1652.59777832031</ele>
        <time>2018-07-28T07:43:49Z</time>
      </trkpt>
      <trkpt lat="36.6969833374023" lon="-5.01814222335815">
        <ele>1652.64233398438</ele>
        <time>2018-07-28T07:43:50Z</time>
      </trkpt>
      <trkpt lat="36.6969795227051" lon="-5.01813983917236">
        <ele>1652.72827148438</ele>
        <time>2018-07-28T07:43:51Z</time>
      </trkpt>
      <trkpt lat="36.6969757080078" lon="-5.01813888549805">
        <ele>1652.82800292969</ele>
        <time>2018-07-28T07:43:52Z</time>
      </trkpt>
      <trkpt lat="36.6969757080078" lon="-5.01813888549805">
        <ele>1652.82800292969</ele>
        <time>2018-07-28T07:43:53Z</time>
      </trkpt>
      <trkpt lat="36.6969757080078" lon="-5.01813793182373">
        <ele>1652.81872558594</ele>
        <time>2018-07-28T07:43:54Z</time>
      </trkpt>
      <trkpt lat="36.6969718933106" lon="-5.01813793182373">
        <ele>1652.92785644531</ele>
        <time>2018-07-28T07:43:55Z</time>
      </trkpt>
      <trkpt lat="36.6969718933106" lon="-5.01813793182373">
        <ele>1652.92785644531</ele>
        <time>2018-07-28T07:43:56Z</time>
      </trkpt>
      <trkpt lat="36.6969718933106" lon="-5.01813888549805">
        <ele>1652.93713378906</ele>
        <time>2018-07-28T07:43:57Z</time>
      </trkpt>
      <trkpt lat="36.6969718933106" lon="-5.01813983917236">
        <ele>1652.94653320312</ele>
        <time>2018-07-28T07:43:58Z</time>
      </trkpt>
      <trkpt lat="36.6969718933106" lon="-5.01813983917236">
        <ele>1652.94653320312</ele>
        <time>2018-07-28T07:43:59Z</time>
      </trkpt>
      <trkpt lat="36.6969718933106" lon="-5.01814079284668">
        <ele>1652.95581054688</ele>
        <time>2018-07-28T07:44:00Z</time>
      </trkpt>
      <trkpt lat="36.6969718933106" lon="-5.01814079284668">
        <ele>1652.95581054688</ele>
        <time>2018-07-28T07:44:01Z</time>
      </trkpt>
      <trkpt lat="36.6969757080078" lon="-5.01814079284668">
        <ele>1652.8466796875</ele>
        <time>2018-07-28T07:44:02Z</time>
      </trkpt>
      <trkpt lat="36.6969795227051" lon="-5.01814222335815">
        <ele>1652.75146484375</ele>
        <time>2018-07-28T07:44:03Z</time>
      </trkpt>
      <trkpt lat="36.6969795227051" lon="-5.01814222335815">
        <ele>1652.75146484375</ele>
        <time>2018-07-28T07:44:04Z</time>
      </trkpt>
      <trkpt lat="36.6969833374023" lon="-5.01814222335815">
        <ele>1652.64233398438</ele>
        <time>2018-07-28T07:44:05Z</time>
      </trkpt>
      <trkpt lat="36.6969833374023" lon="-5.01814222335815">
        <ele>1652.64233398438</ele>
        <time>2018-07-28T07:44:06Z</time>
      </trkpt>
      <trkpt lat="36.6969833374023" lon="-5.01814079284668">
        <ele>1652.62841796875</ele>
        <time>2018-07-28T07:44:07Z</time>
      </trkpt>
      <trkpt lat="36.6969871520996" lon="-5.01813888549805">
        <ele>1652.50073242188</ele>
        <time>2018-07-28T07:44:08Z</time>
      </trkpt>
      <trkpt lat="36.6969833374023" lon="-5.01813888549805">
        <ele>1652.60986328125</ele>
        <time>2018-07-28T07:44:09Z</time>
      </trkpt>
      <trkpt lat="36.6969833374023" lon="-5.01813793182373">
        <ele>1652.6005859375</ele>
        <time>2018-07-28T07:44:10Z</time>
      </trkpt>
      <trkpt lat="36.6969833374023" lon="-5.01813697814941">
        <ele>1652.59130859375</ele>
        <time>2018-07-28T07:44:11Z</time>
      </trkpt>
      <trkpt lat="36.6969833374023" lon="-5.01813697814941">
        <ele>1652.59130859375</ele>
        <time>2018-07-28T07:44:12Z</time>
      </trkpt>
      <trkpt lat="36.6969795227051" lon="-5.01813697814941">
        <ele>1652.70031738281</ele>
        <time>2018-07-28T07:44:13Z</time>
      </trkpt>
      <trkpt lat="36.6969833374023" lon="-5.01813697814941">
        <ele>1652.59130859375</ele>
        <time>2018-07-28T07:44:14Z</time>
      </trkpt>
      <trkpt lat="36.6969833374023" lon="-5.01813793182373">
        <ele>1652.6005859375</ele>
        <time>2018-07-28T07:44:15Z</time>
      </trkpt>
      <trkpt lat="36.6969833374023" lon="-5.01813888549805">
        <ele>1652.60986328125</ele>
        <time>2018-07-28T07:44:16Z</time>
      </trkpt>
      <trkpt lat="36.6969833374023" lon="-5.01813983917236">
        <ele>1652.619140625</ele>
        <time>2018-07-28T07:44:17Z</time>
      </trkpt>
      <trkpt lat="36.6969871520996" lon="-5.01814079284668">
        <ele>1652.51928710938</ele>
        <time>2018-07-28T07:44:18Z</time>
      </trkpt>
      <trkpt lat="36.6969871520996" lon="-5.01814079284668">
        <ele>1652.51928710938</ele>
        <time>2018-07-28T07:44:19Z</time>
      </trkpt>
      <trkpt lat="36.6969871520996" lon="-5.01814079284668">
        <ele>1652.51928710938</ele>
        <time>2018-07-28T07:44:20Z</time>
      </trkpt>
      <trkpt lat="36.6969871520996" lon="-5.01814222335815">
        <ele>1652.53308105469</ele>
        <time>2018-07-28T07:44:21Z</time>
      </trkpt>
      <trkpt lat="36.6969909667969" lon="-5.01814222335815">
        <ele>1652.42395019531</ele>
        <time>2018-07-28T07:44:22Z</time>
      </trkpt>
      <trkpt lat="36.6969947814941" lon="-5.01814317703247">
        <ele>1652.32385253906</ele>
        <time>2018-07-28T07:44:23Z</time>
      </trkpt>
      <trkpt lat="36.6969947814941" lon="-5.01814317703247">
        <ele>1652.32385253906</ele>
        <time>2018-07-28T07:44:24Z</time>
      </trkpt>
      <trkpt lat="36.6969947814941" lon="-5.01814317703247">
        <ele>1652.32385253906</ele>
        <time>2018-07-28T07:44:25Z</time>
      </trkpt>
      <trkpt lat="36.6969947814941" lon="-5.01814317703247">
        <ele>1652.32385253906</ele>
        <time>2018-07-28T07:44:26Z</time>
      </trkpt>
      <trkpt lat="36.6969947814941" lon="-5.01814222335815">
        <ele>1652.31469726562</ele>
        <time>2018-07-28T07:44:27Z</time>
      </trkpt>
      <trkpt lat="36.6969947814941" lon="-5.01814317703247">
        <ele>1652.32385253906</ele>
        <time>2018-07-28T07:44:28Z</time>
      </trkpt>
      <trkpt lat="36.6969909667969" lon="-5.0181450843811">
        <ele>1652.45153808594</ele>
        <time>2018-07-28T07:44:29Z</time>
      </trkpt>
      <trkpt lat="36.6969947814941" lon="-5.01814603805542">
        <ele>1652.35144042969</ele>
        <time>2018-07-28T07:44:30Z</time>
      </trkpt>
      <trkpt lat="36.6969947814941" lon="-5.01814699172974">
        <ele>1652.36071777344</ele>
        <time>2018-07-28T07:44:31Z</time>
      </trkpt>
      <trkpt lat="36.6969909667969" lon="-5.01814699172974">
        <ele>1652.46997070312</ele>
        <time>2018-07-28T07:44:32Z</time>
      </trkpt>
      <trkpt lat="36.6969909667969" lon="-5.01814699172974">
        <ele>1652.46997070312</ele>
        <time>2018-07-28T07:44:33Z</time>
      </trkpt>
      <trkpt lat="36.6969909667969" lon="-5.01814794540405">
        <ele>1652.47924804688</ele>
        <time>2018-07-28T07:44:34Z</time>
      </trkpt>
      <trkpt lat="36.6969909667969" lon="-5.01814889907837">
        <ele>1652.48840332031</ele>
        <time>2018-07-28T07:44:35Z</time>
      </trkpt>
      <trkpt lat="36.6969909667969" lon="-5.018150806427">
        <ele>1652.5068359375</ele>
        <time>2018-07-28T07:44:36Z</time>
      </trkpt>
      <trkpt lat="36.6969947814941" lon="-5.01815509796143">
        <ele>1652.43884277344</ele>
        <time>2018-07-28T07:44:37Z</time>
      </trkpt>
      <trkpt lat="36.6969985961914" lon="-5.01816082000732">
        <ele>1652.38427734375</ele>
        <time>2018-07-28T07:44:38Z</time>
      </trkpt>
      <trkpt lat="36.6969985961914" lon="-5.01816701889038">
        <ele>1652.44384765625</ele>
        <time>2018-07-28T07:44:39Z</time>
      </trkpt>
      <trkpt lat="36.6969985961914" lon="-5.01817083358765">
        <ele>1652.48046875</ele>
        <time>2018-07-28T07:44:40Z</time>
      </trkpt>
      <trkpt lat="36.6969947814941" lon="-5.01817607879639">
        <ele>1652.64099121094</ele>
        <time>2018-07-28T07:44:41Z</time>
      </trkpt>
      <trkpt lat="36.6969947814941" lon="-5.01817893981934">
        <ele>1652.66857910156</ele>
        <time>2018-07-28T07:44:42Z</time>
      </trkpt>
      <trkpt lat="36.6969909667969" lon="-5.01818323135376">
        <ele>1652.8203125</ele>
        <time>2018-07-28T07:44:43Z</time>
      </trkpt>
      <trkpt lat="36.6969871520996" lon="-5.01818609237671">
        <ele>1652.95825195312</ele>
        <time>2018-07-28T07:44:44Z</time>
      </trkpt>
      <trkpt lat="36.6969833374023" lon="-5.01818704605103">
        <ele>1653.07800292969</ele>
        <time>2018-07-28T07:44:45Z</time>
      </trkpt>
      <trkpt lat="36.6969833374023" lon="-5.01818799972534">
        <ele>1653.08728027344</ele>
        <time>2018-07-28T07:44:46Z</time>
      </trkpt>
      <trkpt lat="36.6969833374023" lon="-5.01818895339966">
        <ele>1653.09655761719</ele>
        <time>2018-07-28T07:44:47Z</time>
      </trkpt>
      <trkpt lat="36.6969833374023" lon="-5.01818990707397">
        <ele>1653.10583496094</ele>
        <time>2018-07-28T07:44:48Z</time>
      </trkpt>
      <trkpt lat="36.6969833374023" lon="-5.01819276809692">
        <ele>1653.13354492188</ele>
        <time>2018-07-28T07:44:49Z</time>
      </trkpt>
      <trkpt lat="36.6969795227051" lon="-5.01819610595703">
        <ele>1653.27673339844</ele>
        <time>2018-07-28T07:44:50Z</time>
      </trkpt>
      <trkpt lat="36.6969757080078" lon="-5.01819801330566">
        <ele>1653.40600585938</ele>
        <time>2018-07-28T07:44:51Z</time>
      </trkpt>
      <trkpt lat="36.6969757080078" lon="-5.01819896697998">
        <ele>1653.41528320312</ele>
        <time>2018-07-28T07:44:52Z</time>
      </trkpt>
      <trkpt lat="36.6969757080078" lon="-5.01819896697998">
        <ele>1653.41528320312</ele>
        <time>2018-07-28T07:44:53Z</time>
      </trkpt>
      <trkpt lat="36.6969795227051" lon="-5.01819801330566">
        <ele>1653.29528808594</ele>
        <time>2018-07-28T07:44:54Z</time>
      </trkpt>
      <trkpt lat="36.6969833374023" lon="-5.01819610595703">
        <ele>1653.166015625</ele>
        <time>2018-07-28T07:44:55Z</time>
      </trkpt>
      <trkpt lat="36.6969833374023" lon="-5.0181941986084">
        <ele>1653.1474609375</ele>
        <time>2018-07-28T07:44:56Z</time>
      </trkpt>
      <trkpt lat="36.6969833374023" lon="-5.01819276809692">
        <ele>1653.13354492188</ele>
        <time>2018-07-28T07:44:57Z</time>
      </trkpt>
      <trkpt lat="36.6969757080078" lon="-5.01819181442261">
        <ele>1653.34545898438</ele>
        <time>2018-07-28T07:44:58Z</time>
      </trkpt>
      <trkpt lat="36.6969718933106" lon="-5.01819086074829">
        <ele>1653.44665527344</ele>
        <time>2018-07-28T07:44:59Z</time>
      </trkpt>
      <trkpt lat="36.6969718933106" lon="-5.01818895339966">
        <ele>1653.42797851562</ele>
        <time>2018-07-28T07:45:00Z</time>
      </trkpt>
      <trkpt lat="36.6969718933106" lon="-5.01818895339966">
        <ele>1653.42797851562</ele>
        <time>2018-07-28T07:45:01Z</time>
      </trkpt>
      <trkpt lat="36.6969718933106" lon="-5.01818799972534">
        <ele>1653.41857910156</ele>
        <time>2018-07-28T07:45:02Z</time>
      </trkpt>
      <trkpt lat="36.6969757080078" lon="-5.01818704605103">
        <ele>1653.298828125</ele>
        <time>2018-07-28T07:45:03Z</time>
      </trkpt>
      <trkpt lat="36.6969795227051" lon="-5.01818609237671">
        <ele>1653.17907714844</ele>
        <time>2018-07-28T07:45:04Z</time>
      </trkpt>
      <trkpt lat="36.6969795227051" lon="-5.01818704605103">
        <ele>1653.18835449219</ele>
        <time>2018-07-28T07:45:05Z</time>
      </trkpt>
      <trkpt lat="36.6969795227051" lon="-5.01818895339966">
        <ele>1653.20703125</ele>
        <time>2018-07-28T07:45:06Z</time>
      </trkpt>
      <trkpt lat="36.6969795227051" lon="-5.01819086074829">
        <ele>1653.2255859375</ele>
        <time>2018-07-28T07:45:07Z</time>
      </trkpt>
      <trkpt lat="36.6969795227051" lon="-5.0181941986084">
        <ele>1653.25805664062</ele>
        <time>2018-07-28T07:45:08Z</time>
      </trkpt>
      <trkpt lat="36.6969757080078" lon="-5.01819705963135">
        <ele>1653.39672851562</ele>
        <time>2018-07-28T07:45:09Z</time>
      </trkpt>
      <trkpt lat="36.6969757080078" lon="-5.0181999206543">
        <ele>1653.42468261719</ele>
        <time>2018-07-28T07:45:10Z</time>
      </trkpt>
      <trkpt lat="36.6969757080078" lon="-5.01820278167725">
        <ele>1653.45263671875</ele>
        <time>2018-07-28T07:45:11Z</time>
      </trkpt>
      <trkpt lat="36.6969757080078" lon="-5.01820278167725">
        <ele>1653.45263671875</ele>
        <time>2018-07-28T07:45:12Z</time>
      </trkpt>
      <trkpt lat="36.6969757080078" lon="-5.01820278167725">
        <ele>1653.45263671875</ele>
        <time>2018-07-28T07:45:13Z</time>
      </trkpt>
      <trkpt lat="36.6969795227051" lon="-5.01820087432861">
        <ele>1653.3232421875</ele>
        <time>2018-07-28T07:45:14Z</time>
      </trkpt>
      <trkpt lat="36.6969795227051" lon="-5.0181999206543">
        <ele>1653.31384277344</ele>
        <time>2018-07-28T07:45:15Z</time>
      </trkpt>
      <trkpt lat="36.6969795227051" lon="-5.01819801330566">
        <ele>1653.29528808594</ele>
        <time>2018-07-28T07:45:16Z</time>
      </trkpt>
      <trkpt lat="36.6969833374023" lon="-5.01819705963135">
        <ele>1653.17529296875</ele>
        <time>2018-07-28T07:45:17Z</time>
      </trkpt>
      <trkpt lat="36.6969833374023" lon="-5.01819610595703">
        <ele>1653.166015625</ele>
        <time>2018-07-28T07:45:18Z</time>
      </trkpt>
      <trkpt lat="36.6969833374023" lon="-5.01819515228272">
        <ele>1653.15673828125</ele>
        <time>2018-07-28T07:45:19Z</time>
      </trkpt>
      <trkpt lat="36.6969871520996" lon="-5.01819515228272">
        <ele>1653.04614257812</ele>
        <time>2018-07-28T07:45:20Z</time>
      </trkpt>
      <trkpt lat="36.6969871520996" lon="-5.01819515228272">
        <ele>1653.04614257812</ele>
        <time>2018-07-28T07:45:21Z</time>
      </trkpt>
      <trkpt lat="36.6969871520996" lon="-5.01819515228272">
        <ele>1653.04614257812</ele>
        <time>2018-07-28T07:45:22Z</time>
      </trkpt>
      <trkpt lat="36.6969871520996" lon="-5.0181941986084">
        <ele>1653.03686523438</ele>
        <time>2018-07-28T07:45:23Z</time>
      </trkpt>
      <trkpt lat="36.6969909667969" lon="-5.0181941986084">
        <ele>1652.92626953125</ele>
        <time>2018-07-28T07:45:24Z</time>
      </trkpt>
      <trkpt lat="36.6969909667969" lon="-5.01819276809692">
        <ele>1652.91247558594</ele>
        <time>2018-07-28T07:45:25Z</time>
      </trkpt>
      <trkpt lat="36.6969947814941" lon="-5.01819181442261">
        <ele>1652.79260253906</ele>
        <time>2018-07-28T07:45:26Z</time>
      </trkpt>
      <trkpt lat="36.6969947814941" lon="-5.01819181442261">
        <ele>1652.79260253906</ele>
        <time>2018-07-28T07:45:27Z</time>
      </trkpt>
      <trkpt lat="36.6969985961914" lon="-5.01819086074829">
        <ele>1652.67297363281</ele>
        <time>2018-07-28T07:45:28Z</time>
      </trkpt>
      <trkpt lat="36.6969985961914" lon="-5.01818990707397">
        <ele>1652.66381835938</ele>
        <time>2018-07-28T07:45:29Z</time>
      </trkpt>
      <trkpt lat="36.6969985961914" lon="-5.01818895339966">
        <ele>1652.65466308594</ele>
        <time>2018-07-28T07:45:30Z</time>
      </trkpt>
      <trkpt lat="36.6969985961914" lon="-5.01818799972534">
        <ele>1652.64538574219</ele>
        <time>2018-07-28T07:45:31Z</time>
      </trkpt>
      <trkpt lat="36.6969985961914" lon="-5.01818704605103">
        <ele>1652.63623046875</ele>
        <time>2018-07-28T07:45:32Z</time>
      </trkpt>
      <trkpt lat="36.6969985961914" lon="-5.01818609237671">
        <ele>1652.62707519531</ele>
        <time>2018-07-28T07:45:33Z</time>
      </trkpt>
      <trkpt lat="36.6969985961914" lon="-5.01818513870239">
        <ele>1652.61791992188</ele>
        <time>2018-07-28T07:45:34Z</time>
      </trkpt>
      <trkpt lat="36.6970024108887" lon="-5.01818323135376">
        <ele>1652.4892578125</ele>
        <time>2018-07-28T07:45:35Z</time>
      </trkpt>
      <trkpt lat="36.6970024108887" lon="-5.01818084716797">
        <ele>1652.46643066406</ele>
        <time>2018-07-28T07:45:36Z</time>
      </trkpt>
      <trkpt lat="36.6970024108887" lon="-5.01817989349365">
        <ele>1652.45727539062</ele>
        <time>2018-07-28T07:45:37Z</time>
      </trkpt>
      <trkpt lat="36.6970024108887" lon="-5.01817893981934">
        <ele>1652.44812011719</ele>
        <time>2018-07-28T07:45:38Z</time>
      </trkpt>
      <trkpt lat="36.6970024108887" lon="-5.01817893981934">
        <ele>1652.44812011719</ele>
        <time>2018-07-28T07:45:39Z</time>
      </trkpt>
      <trkpt lat="36.6970024108887" lon="-5.01817893981934">
        <ele>1652.44812011719</ele>
        <time>2018-07-28T07:45:40Z</time>
      </trkpt>
      <trkpt lat="36.6970062255859" lon="-5.01817989349365">
        <ele>1652.34704589844</ele>
        <time>2018-07-28T07:45:41Z</time>
      </trkpt>
      <trkpt lat="36.6970062255859" lon="-5.01817989349365">
        <ele>1652.34704589844</ele>
        <time>2018-07-28T07:45:42Z</time>
      </trkpt>
      <trkpt lat="36.6970062255859" lon="-5.01817989349365">
        <ele>1652.34704589844</ele>
        <time>2018-07-28T07:45:43Z</time>
      </trkpt>
      <trkpt lat="36.6970062255859" lon="-5.01817893981934">
        <ele>1652.33801269531</ele>
        <time>2018-07-28T07:45:44Z</time>
      </trkpt>
      <trkpt lat="36.6970100402832" lon="-5.01817893981934">
        <ele>1652.22778320312</ele>
        <time>2018-07-28T07:45:45Z</time>
      </trkpt>
      <trkpt lat="36.6970100402832" lon="-5.01817893981934">
        <ele>1652.22778320312</ele>
        <time>2018-07-28T07:45:46Z</time>
      </trkpt>
      <trkpt lat="36.6970138549805" lon="-5.01817893981934">
        <ele>1652.11755371094</ele>
        <time>2018-07-28T07:45:47Z</time>
      </trkpt>
      <trkpt lat="36.6970138549805" lon="-5.01817893981934">
        <ele>1652.11755371094</ele>
        <time>2018-07-28T07:45:48Z</time>
      </trkpt>
      <trkpt lat="36.6970138549805" lon="-5.01817893981934">
        <ele>1652.11755371094</ele>
        <time>2018-07-28T07:45:49Z</time>
      </trkpt>
      <trkpt lat="36.6970138549805" lon="-5.01817893981934">
        <ele>1652.11755371094</ele>
        <time>2018-07-28T07:45:50Z</time>
      </trkpt>
      <trkpt lat="36.6970138549805" lon="-5.01817798614502">
        <ele>1652.10852050781</ele>
        <time>2018-07-28T07:45:51Z</time>
      </trkpt>
      <trkpt lat="36.6970138549805" lon="-5.01817607879639">
        <ele>1652.09045410156</ele>
        <time>2018-07-28T07:45:52Z</time>
      </trkpt>
      <trkpt lat="36.6970100402832" lon="-5.01817417144775">
        <ele>1652.18237304688</ele>
        <time>2018-07-28T07:45:53Z</time>
      </trkpt>
      <trkpt lat="36.6970100402832" lon="-5.01817178726196">
        <ele>1652.15966796875</ele>
        <time>2018-07-28T07:45:54Z</time>
      </trkpt>
      <trkpt lat="36.6970138549805" lon="-5.01817083358765">
        <ele>1652.04052734375</ele>
        <time>2018-07-28T07:45:55Z</time>
      </trkpt>
      <trkpt lat="36.6970138549805" lon="-5.01816987991333">
        <ele>1652.03149414062</ele>
        <time>2018-07-28T07:45:56Z</time>
      </trkpt>
      <trkpt lat="36.6970100402832" lon="-5.01817083358765">
        <ele>1652.15051269531</ele>
        <time>2018-07-28T07:45:57Z</time>
      </trkpt>
      <trkpt lat="36.6970100402832" lon="-5.01816987991333">
        <ele>1652.14147949219</ele>
        <time>2018-07-28T07:45:58Z</time>
      </trkpt>
      <trkpt lat="36.6970100402832" lon="-5.01816987991333">
        <ele>1652.14147949219</ele>
        <time>2018-07-28T07:45:59Z</time>
      </trkpt>
      <trkpt lat="36.6970100402832" lon="-5.01816987991333">
        <ele>1652.14147949219</ele>
        <time>2018-07-28T07:46:00Z</time>
      </trkpt>
      <trkpt lat="36.6970100402832" lon="-5.01817083358765">
        <ele>1652.15051269531</ele>
        <time>2018-07-28T07:46:01Z</time>
      </trkpt>
      <trkpt lat="36.6970062255859" lon="-5.01817083358765">
        <ele>1652.26049804688</ele>
        <time>2018-07-28T07:46:02Z</time>
      </trkpt>
      <trkpt lat="36.6970062255859" lon="-5.01816892623901">
        <ele>1652.24230957031</ele>
        <time>2018-07-28T07:46:03Z</time>
      </trkpt>
      <trkpt lat="36.6970100402832" lon="-5.01816701889038">
        <ele>1652.11413574219</ele>
        <time>2018-07-28T07:46:04Z</time>
      </trkpt>
      <trkpt lat="36.6970100402832" lon="-5.01816415786743">
        <ele>1652.0869140625</ele>
        <time>2018-07-28T07:46:05Z</time>
      </trkpt>
      <trkpt lat="36.6970138549805" lon="-5.01816511154175">
        <ele>1651.98620605469</ele>
        <time>2018-07-28T07:46:06Z</time>
      </trkpt>
      <trkpt lat="36.6970138549805" lon="-5.01816701889038">
        <ele>1652.00427246094</ele>
        <time>2018-07-28T07:46:07Z</time>
      </trkpt>
      <trkpt lat="36.6970176696777" lon="-5.01816987991333">
        <ele>1651.92150878906</ele>
        <time>2018-07-28T07:46:08Z</time>
      </trkpt>
      <trkpt lat="36.697021484375" lon="-5.01817321777344">
        <ele>1651.84313964844</ele>
        <time>2018-07-28T07:46:09Z</time>
      </trkpt>
      <trkpt lat="36.697021484375" lon="-5.01817321777344">
        <ele>1651.84313964844</ele>
        <time>2018-07-28T07:46:10Z</time>
      </trkpt>
      <trkpt lat="36.697021484375" lon="-5.01817178726196">
        <ele>1651.82958984375</ele>
        <time>2018-07-28T07:46:11Z</time>
      </trkpt>
      <trkpt lat="36.697021484375" lon="-5.01816987991333">
        <ele>1651.81164550781</ele>
        <time>2018-07-28T07:46:12Z</time>
      </trkpt>
      <trkpt lat="36.6970176696777" lon="-5.01816606521606">
        <ele>1651.88537597656</ele>
        <time>2018-07-28T07:46:13Z</time>
      </trkpt>
      <trkpt lat="36.6970138549805" lon="-5.01816415786743">
        <ele>1651.97717285156</ele>
        <time>2018-07-28T07:46:14Z</time>
      </trkpt>
      <trkpt lat="36.6970100402832" lon="-5.01816415786743">
        <ele>1652.0869140625</ele>
        <time>2018-07-28T07:46:15Z</time>
      </trkpt>
      <trkpt lat="36.6970100402832" lon="-5.01816415786743">
        <ele>1652.0869140625</ele>
        <time>2018-07-28T07:46:16Z</time>
      </trkpt>
      <trkpt lat="36.6970100402832" lon="-5.01816320419312">
        <ele>1652.07788085938</ele>
        <time>2018-07-28T07:46:17Z</time>
      </trkpt>
      <trkpt lat="36.6970100402832" lon="-5.01816177368164">
        <ele>1652.06420898438</ele>
        <time>2018-07-28T07:46:18Z</time>
      </trkpt>
      <trkpt lat="36.6970100402832" lon="-5.01816177368164">
        <ele>1652.06420898438</ele>
        <time>2018-07-28T07:46:19Z</time>
      </trkpt>
      <trkpt lat="36.6970100402832" lon="-5.01816320419312">
        <ele>1652.07788085938</ele>
        <time>2018-07-28T07:46:20Z</time>
      </trkpt>
      <trkpt lat="36.6970100402832" lon="-5.01816415786743">
        <ele>1652.0869140625</ele>
        <time>2018-07-28T07:46:21Z</time>
      </trkpt>
      <trkpt lat="36.6970062255859" lon="-5.01816511154175">
        <ele>1652.20581054688</ele>
        <time>2018-07-28T07:46:22Z</time>
      </trkpt>
      <trkpt lat="36.6970062255859" lon="-5.01816415786743">
        <ele>1652.19677734375</ele>
        <time>2018-07-28T07:46:23Z</time>
      </trkpt>
      <trkpt lat="36.6970062255859" lon="-5.01816415786743">
        <ele>1652.19677734375</ele>
        <time>2018-07-28T07:46:24Z</time>
      </trkpt>
      <trkpt lat="36.6970062255859" lon="-5.01816177368164">
        <ele>1652.17395019531</ele>
        <time>2018-07-28T07:46:25Z</time>
      </trkpt>
      <trkpt lat="36.6970024108887" lon="-5.01815891265869">
        <ele>1652.25622558594</ele>
        <time>2018-07-28T07:46:26Z</time>
      </trkpt>
      <trkpt lat="36.6970024108887" lon="-5.01815605163574">
        <ele>1652.22888183594</ele>
        <time>2018-07-28T07:46:27Z</time>
      </trkpt>
      <trkpt lat="36.6969985961914" lon="-5.01815319061279">
        <ele>1652.31091308594</ele>
        <time>2018-07-28T07:46:28Z</time>
      </trkpt>
      <trkpt lat="36.6969985961914" lon="-5.018150806427">
        <ele>1652.28796386719</ele>
        <time>2018-07-28T07:46:29Z</time>
      </trkpt>
      <trkpt lat="36.6969947814941" lon="-5.018150806427">
        <ele>1652.3974609375</ele>
        <time>2018-07-28T07:46:30Z</time>
      </trkpt>
      <trkpt lat="36.6969947814941" lon="-5.01815223693848">
        <ele>1652.41125488281</ele>
        <time>2018-07-28T07:46:31Z</time>
      </trkpt>
      <trkpt lat="36.6969947814941" lon="-5.01815319061279">
        <ele>1652.42041015625</ele>
        <time>2018-07-28T07:46:32Z</time>
      </trkpt>
      <trkpt lat="36.6969985961914" lon="-5.01815509796143">
        <ele>1652.32922363281</ele>
        <time>2018-07-28T07:46:33Z</time>
      </trkpt>
      <trkpt lat="36.6969985961914" lon="-5.01815414428711">
        <ele>1652.32006835938</ele>
        <time>2018-07-28T07:46:34Z</time>
      </trkpt>
      <trkpt lat="36.6969985961914" lon="-5.01815319061279">
        <ele>1652.31091308594</ele>
        <time>2018-07-28T07:46:35Z</time>
      </trkpt>
      <trkpt lat="36.6969985961914" lon="-5.01815223693848">
        <ele>1652.3017578125</ele>
        <time>2018-07-28T07:46:36Z</time>
      </trkpt>
      <trkpt lat="36.6969985961914" lon="-5.01815223693848">
        <ele>1652.3017578125</ele>
        <time>2018-07-28T07:46:37Z</time>
      </trkpt>
      <trkpt lat="36.6970024108887" lon="-5.01815223693848">
        <ele>1652.19226074219</ele>
        <time>2018-07-28T07:46:38Z</time>
      </trkpt>
      <trkpt lat="36.6970024108887" lon="-5.018150806427">
        <ele>1652.17858886719</ele>
        <time>2018-07-28T07:46:39Z</time>
      </trkpt>
      <trkpt lat="36.6970062255859" lon="-5.01814985275269">
        <ele>1652.06005859375</ele>
        <time>2018-07-28T07:46:40Z</time>
      </trkpt>
      <trkpt lat="36.6970062255859" lon="-5.01814889907837">
        <ele>1652.05090332031</ele>
        <time>2018-07-28T07:46:41Z</time>
      </trkpt>
      <trkpt lat="36.6970062255859" lon="-5.01814889907837">
        <ele>1652.05090332031</ele>
        <time>2018-07-28T07:46:42Z</time>
      </trkpt>
      <trkpt lat="36.6970100402832" lon="-5.01814985275269">
        <ele>1651.95068359375</ele>
        <time>2018-07-28T07:46:43Z</time>
      </trkpt>
      <trkpt lat="36.6970138549805" lon="-5.01814985275269">
        <ele>1651.84118652344</ele>
        <time>2018-07-28T07:46:44Z</time>
      </trkpt>
      <trkpt lat="36.6970138549805" lon="-5.01814889907837">
        <ele>1651.83215332031</ele>
        <time>2018-07-28T07:46:45Z</time>
      </trkpt>
      <trkpt lat="36.6970176696777" lon="-5.01814889907837">
        <ele>1651.72277832031</ele>
        <time>2018-07-28T07:46:46Z</time>
      </trkpt>
      <trkpt lat="36.6970176696777" lon="-5.01814889907837">
        <ele>1651.72277832031</ele>
        <time>2018-07-28T07:46:47Z</time>
      </trkpt>
      <trkpt lat="36.697021484375" lon="-5.01814889907837">
        <ele>1651.61340332031</ele>
        <time>2018-07-28T07:46:48Z</time>
      </trkpt>
      <trkpt lat="36.697021484375" lon="-5.01814794540405">
        <ele>1651.60437011719</ele>
        <time>2018-07-28T07:46:49Z</time>
      </trkpt>
      <trkpt lat="36.697021484375" lon="-5.01814794540405">
        <ele>1651.60437011719</ele>
        <time>2018-07-28T07:46:50Z</time>
      </trkpt>
      <trkpt lat="36.697021484375" lon="-5.018150806427">
        <ele>1651.63146972656</ele>
        <time>2018-07-28T07:46:51Z</time>
      </trkpt>
      <trkpt lat="36.6970176696777" lon="-5.01815414428711">
        <ele>1651.7724609375</ele>
        <time>2018-07-28T07:46:52Z</time>
      </trkpt>
      <trkpt lat="36.6970138549805" lon="-5.01815700531006">
        <ele>1651.9091796875</ele>
        <time>2018-07-28T07:46:53Z</time>
      </trkpt>
      <trkpt lat="36.6970062255859" lon="-5.01815605163574">
        <ele>1652.11926269531</ele>
        <time>2018-07-28T07:46:54Z</time>
      </trkpt>
      <trkpt lat="36.6969985961914" lon="-5.01815414428711">
        <ele>1652.32006835938</ele>
        <time>2018-07-28T07:46:55Z</time>
      </trkpt>
      <trkpt lat="36.6969947814941" lon="-5.01815319061279">
        <ele>1652.42041015625</ele>
        <time>2018-07-28T07:46:56Z</time>
      </trkpt>
      <trkpt lat="36.6969909667969" lon="-5.01815223693848">
        <ele>1652.52075195312</ele>
        <time>2018-07-28T07:46:57Z</time>
      </trkpt>
      <trkpt lat="36.6969871520996" lon="-5.01814985275269">
        <ele>1652.60705566406</ele>
        <time>2018-07-28T07:46:58Z</time>
      </trkpt>
      <trkpt lat="36.6969833374023" lon="-5.01814985275269">
        <ele>1652.71643066406</ele>
        <time>2018-07-28T07:46:59Z</time>
      </trkpt>
      <trkpt lat="36.6969757080078" lon="-5.01815319061279">
        <ele>1652.96789550781</ele>
        <time>2018-07-28T07:47:00Z</time>
      </trkpt>
      <trkpt lat="36.6969680786133" lon="-5.01815605163574">
        <ele>1653.21496582031</ele>
        <time>2018-07-28T07:47:01Z</time>
      </trkpt>
      <trkpt lat="36.6969604492188" lon="-5.01815986633301">
        <ele>1653.47180175781</ele>
        <time>2018-07-28T07:47:02Z</time>
      </trkpt>
      <trkpt lat="36.6969566345215" lon="-5.01816511154175">
        <ele>1653.63354492188</ele>
        <time>2018-07-28T07:47:03Z</time>
      </trkpt>
      <trkpt lat="36.696949005127" lon="-5.01817417144775">
        <ele>1653.94348144531</ele>
        <time>2018-07-28T07:47:04Z</time>
      </trkpt>
      <trkpt lat="36.696949005127" lon="-5.01818609237671">
        <ele>1654.06225585938</ele>
        <time>2018-07-28T07:47:05Z</time>
      </trkpt>
      <trkpt lat="36.696949005127" lon="-5.01819705963135">
        <ele>1654.17163085938</ele>
        <time>2018-07-28T07:47:06Z</time>
      </trkpt>
      <trkpt lat="36.6969451904297" lon="-5.01820421218872">
        <ele>1654.35375976562</ele>
        <time>2018-07-28T07:47:07Z</time>
      </trkpt>
      <trkpt lat="36.6969375610352" lon="-5.01820802688599">
        <ele>1654.61389160156</ele>
        <time>2018-07-28T07:47:08Z</time>
      </trkpt>
      <trkpt lat="36.6969337463379" lon="-5.01821184158325">
        <ele>1654.76330566406</ele>
        <time>2018-07-28T07:47:09Z</time>
      </trkpt>
      <trkpt lat="36.6969299316406" lon="-5.01821804046631">
        <ele>1654.93713378906</ele>
        <time>2018-07-28T07:47:10Z</time>
      </trkpt>
      <trkpt lat="36.6969261169434" lon="-5.01822185516357">
        <ele>1655.08703613281</ele>
        <time>2018-07-28T07:47:11Z</time>
      </trkpt>
      <trkpt lat="36.6969261169434" lon="-5.01822519302368">
        <ele>1655.12084960938</ele>
        <time>2018-07-28T07:47:12Z</time>
      </trkpt>
      <trkpt lat="36.6969223022461" lon="-5.01822805404663">
        <ele>1655.26135253906</ele>
        <time>2018-07-28T07:47:13Z</time>
      </trkpt>
      <trkpt lat="36.6969223022461" lon="-5.01822996139526">
        <ele>1655.28076171875</ele>
        <time>2018-07-28T07:47:14Z</time>
      </trkpt>
      <trkpt lat="36.6969223022461" lon="-5.01823377609253">
        <ele>1655.31945800781</ele>
        <time>2018-07-28T07:47:15Z</time>
      </trkpt>
      <trkpt lat="36.6969184875488" lon="-5.01823616027832">
        <ele>1655.45544433594</ele>
        <time>2018-07-28T07:47:16Z</time>
      </trkpt>
      <trkpt lat="36.6969146728516" lon="-5.01823997497559">
        <ele>1655.60620117188</ele>
        <time>2018-07-28T07:47:17Z</time>
      </trkpt>
      <trkpt lat="36.6969108581543" lon="-5.01824522018433">
        <ele>1655.77185058594</ele>
        <time>2018-07-28T07:47:18Z</time>
      </trkpt>
      <trkpt lat="36.6969108581543" lon="-5.01825094223022">
        <ele>1655.83044433594</ele>
        <time>2018-07-28T07:47:19Z</time>
      </trkpt>
      <trkpt lat="36.6969108581543" lon="-5.01825523376465">
        <ele>1655.87438964844</ele>
        <time>2018-07-28T07:47:20Z</time>
      </trkpt>
      <trkpt lat="36.6969108581543" lon="-5.01825714111328">
        <ele>1655.89392089844</ele>
        <time>2018-07-28T07:47:21Z</time>
      </trkpt>
      <trkpt lat="36.6969108581543" lon="-5.01826000213623">
        <ele>1655.92321777344</ele>
        <time>2018-07-28T07:47:22Z</time>
      </trkpt>
      <trkpt lat="36.6969108581543" lon="-5.0182638168335">
        <ele>1655.96228027344</ele>
        <time>2018-07-28T07:47:23Z</time>
      </trkpt>
      <trkpt lat="36.6969108581543" lon="-5.01826810836792">
        <ele>1656.00622558594</ele>
        <time>2018-07-28T07:47:24Z</time>
      </trkpt>
      <trkpt lat="36.6969146728516" lon="-5.01827096939087">
        <ele>1655.9228515625</ele>
        <time>2018-07-28T07:47:25Z</time>
      </trkpt>
      <trkpt lat="36.6969146728516" lon="-5.01827478408814">
        <ele>1655.96179199219</ele>
        <time>2018-07-28T07:47:26Z</time>
      </trkpt>
      <trkpt lat="36.6969146728516" lon="-5.01827907562256">
        <ele>1656.00561523438</ele>
        <time>2018-07-28T07:47:27Z</time>
      </trkpt>
      <trkpt lat="36.6969184875488" lon="-5.01828193664551">
        <ele>1655.92175292969</ele>
        <time>2018-07-28T07:47:28Z</time>
      </trkpt>
      <trkpt lat="36.6969223022461" lon="-5.01828384399414">
        <ele>1655.828125</ele>
        <time>2018-07-28T07:47:29Z</time>
      </trkpt>
      <trkpt lat="36.6969184875488" lon="-5.01828718185425">
        <ele>1655.97521972656</ele>
        <time>2018-07-28T07:47:30Z</time>
      </trkpt>
      <trkpt lat="36.6969108581543" lon="-5.0182900428772">
        <ele>1656.23083496094</ele>
        <time>2018-07-28T07:47:31Z</time>
      </trkpt>
      <trkpt lat="36.6969146728516" lon="-5.01829195022583">
        <ele>1656.13708496094</ele>
        <time>2018-07-28T07:47:32Z</time>
      </trkpt>
      <trkpt lat="36.6969223022461" lon="-5.01829385757446">
        <ele>1655.92993164062</ele>
        <time>2018-07-28T07:47:33Z</time>
      </trkpt>
      <trkpt lat="36.6969337463379" lon="-5.0182957649231">
        <ele>1655.60900878906</ele>
        <time>2018-07-28T07:47:34Z</time>
      </trkpt>
      <trkpt lat="36.6969375610352" lon="-5.01829814910889">
        <ele>1655.51953125</ele>
        <time>2018-07-28T07:47:35Z</time>
      </trkpt>
      <trkpt lat="36.6969413757324" lon="-5.0182991027832">
        <ele>1655.41564941406</ele>
        <time>2018-07-28T07:47:36Z</time>
      </trkpt>
      <trkpt lat="36.6969451904297" lon="-5.01829814910889">
        <ele>1655.29260253906</ele>
        <time>2018-07-28T07:47:37Z</time>
      </trkpt>
      <trkpt lat="36.696949005127" lon="-5.01829481124878">
        <ele>1655.14587402344</ele>
        <time>2018-07-28T07:47:38Z</time>
      </trkpt>
      <trkpt lat="36.696949005127" lon="-5.01829195022583">
        <ele>1655.11743164062</ele>
        <time>2018-07-28T07:47:39Z</time>
      </trkpt>
      <trkpt lat="36.6969451904297" lon="-5.01828908920288">
        <ele>1655.20202636719</ele>
        <time>2018-07-28T07:47:40Z</time>
      </trkpt>
      <trkpt lat="36.6969413757324" lon="-5.01828479766846">
        <ele>1655.27233886719</ele>
        <time>2018-07-28T07:47:41Z</time>
      </trkpt>
      <trkpt lat="36.6969375610352" lon="-5.01828289031982">
        <ele>1655.3662109375</ele>
        <time>2018-07-28T07:47:42Z</time>
      </trkpt>
      <trkpt lat="36.6969375610352" lon="-5.01828193664551">
        <ele>1655.35668945312</ele>
        <time>2018-07-28T07:47:43Z</time>
      </trkpt>
      <trkpt lat="36.6969375610352" lon="-5.01828193664551">
        <ele>1655.35668945312</ele>
        <time>2018-07-28T07:47:44Z</time>
      </trkpt>
      <trkpt lat="36.6969375610352" lon="-5.01828193664551">
        <ele>1655.35668945312</ele>
        <time>2018-07-28T07:47:45Z</time>
      </trkpt>
      <trkpt lat="36.6969413757324" lon="-5.01828384399414">
        <ele>1655.2626953125</ele>
        <time>2018-07-28T07:47:46Z</time>
      </trkpt>
      <trkpt lat="36.6969451904297" lon="-5.01828622817993">
        <ele>1655.17346191406</ele>
        <time>2018-07-28T07:47:47Z</time>
      </trkpt>
      <trkpt lat="36.696949005127" lon="-5.01828908920288">
        <ele>1655.0888671875</ele>
        <time>2018-07-28T07:47:48Z</time>
      </trkpt>
      <trkpt lat="36.6969566345215" lon="-5.01828908920288">
        <ele>1654.86242675781</ele>
        <time>2018-07-28T07:47:49Z</time>
      </trkpt>
      <trkpt lat="36.6969604492188" lon="-5.01828908920288">
        <ele>1654.74914550781</ele>
        <time>2018-07-28T07:47:50Z</time>
      </trkpt>
      <trkpt lat="36.6969680786133" lon="-5.01828813552856">
        <ele>1654.51330566406</ele>
        <time>2018-07-28T07:47:51Z</time>
      </trkpt>
      <trkpt lat="36.6969718933106" lon="-5.01828813552856">
        <ele>1654.40014648438</ele>
        <time>2018-07-28T07:47:52Z</time>
      </trkpt>
      <trkpt lat="36.6969718933106" lon="-5.01828813552856">
        <ele>1654.40014648438</ele>
        <time>2018-07-28T07:47:53Z</time>
      </trkpt>
      <trkpt lat="36.6969757080078" lon="-5.01828813552856">
        <ele>1654.28698730469</ele>
        <time>2018-07-28T07:47:54Z</time>
      </trkpt>
      <trkpt lat="36.6969757080078" lon="-5.01828908920288">
        <ele>1654.29626464844</ele>
        <time>2018-07-28T07:47:55Z</time>
      </trkpt>
      <trkpt lat="36.6969757080078" lon="-5.01828908920288">
        <ele>1654.29626464844</ele>
        <time>2018-07-28T07:47:56Z</time>
      </trkpt>
      <trkpt lat="36.6969795227051" lon="-5.0182900428772">
        <ele>1654.1923828125</ele>
        <time>2018-07-28T07:47:57Z</time>
      </trkpt>
      <trkpt lat="36.6969795227051" lon="-5.01829099655151">
        <ele>1654.20166015625</ele>
        <time>2018-07-28T07:47:58Z</time>
      </trkpt>
      <trkpt lat="36.6969833374023" lon="-5.01829099655151">
        <ele>1654.08837890625</ele>
        <time>2018-07-28T07:47:59Z</time>
      </trkpt>
      <trkpt lat="36.6969795227051" lon="-5.01829099655151">
        <ele>1654.20166015625</ele>
        <time>2018-07-28T07:48:00Z</time>
      </trkpt>
      <trkpt lat="36.6969795227051" lon="-5.01829195022583">
        <ele>1654.2109375</ele>
        <time>2018-07-28T07:48:01Z</time>
      </trkpt>
      <trkpt lat="36.6969795227051" lon="-5.01829290390015">
        <ele>1654.22021484375</ele>
        <time>2018-07-28T07:48:02Z</time>
      </trkpt>
      <trkpt lat="36.6969795227051" lon="-5.01829290390015">
        <ele>1654.22021484375</ele>
        <time>2018-07-28T07:48:03Z</time>
      </trkpt>
      <trkpt lat="36.6969795227051" lon="-5.01829290390015">
        <ele>1654.22021484375</ele>
        <time>2018-07-28T07:48:04Z</time>
      </trkpt>
      <trkpt lat="36.6969795227051" lon="-5.01829385757446">
        <ele>1654.2294921875</ele>
        <time>2018-07-28T07:48:05Z</time>
      </trkpt>
      <trkpt lat="36.6969757080078" lon="-5.01829290390015">
        <ele>1654.33361816406</ele>
        <time>2018-07-28T07:48:06Z</time>
      </trkpt>
      <trkpt lat="36.6969757080078" lon="-5.01829099655151">
        <ele>1654.31494140625</ele>
        <time>2018-07-28T07:48:07Z</time>
      </trkpt>
      <trkpt lat="36.6969757080078" lon="-5.01828908920288">
        <ele>1654.29626464844</ele>
        <time>2018-07-28T07:48:08Z</time>
      </trkpt>
      <trkpt lat="36.6969757080078" lon="-5.01828908920288">
        <ele>1654.29626464844</ele>
        <time>2018-07-28T07:48:09Z</time>
      </trkpt>
      <trkpt lat="36.6969795227051" lon="-5.01828908920288">
        <ele>1654.18310546875</ele>
        <time>2018-07-28T07:48:10Z</time>
      </trkpt>
      <trkpt lat="36.6969833374023" lon="-5.0182900428772">
        <ele>1654.0791015625</ele>
        <time>2018-07-28T07:48:11Z</time>
      </trkpt>
      <trkpt lat="36.6969833374023" lon="-5.01829099655151">
        <ele>1654.08837890625</ele>
        <time>2018-07-28T07:48:12Z</time>
      </trkpt>
      <trkpt lat="36.6969871520996" lon="-5.01829099655151">
        <ele>1653.97509765625</ele>
        <time>2018-07-28T07:48:13Z</time>
      </trkpt>
      <trkpt lat="36.6969871520996" lon="-5.0182900428772">
        <ele>1653.9658203125</ele>
        <time>2018-07-28T07:48:14Z</time>
      </trkpt>
      <trkpt lat="36.6969833374023" lon="-5.0182900428772">
        <ele>1654.0791015625</ele>
        <time>2018-07-28T07:48:15Z</time>
      </trkpt>
      <trkpt lat="36.6969833374023" lon="-5.01828813552856">
        <ele>1654.060546875</ele>
        <time>2018-07-28T07:48:16Z</time>
      </trkpt>
      <trkpt lat="36.6969833374023" lon="-5.01828813552856">
        <ele>1654.060546875</ele>
        <time>2018-07-28T07:48:17Z</time>
      </trkpt>
      <trkpt lat="36.6969795227051" lon="-5.01828813552856">
        <ele>1654.17370605469</ele>
        <time>2018-07-28T07:48:18Z</time>
      </trkpt>
      <trkpt lat="36.6969795227051" lon="-5.01828908920288">
        <ele>1654.18310546875</ele>
        <time>2018-07-28T07:48:19Z</time>
      </trkpt>
      <trkpt lat="36.6969795227051" lon="-5.01828908920288">
        <ele>1654.18310546875</ele>
        <time>2018-07-28T07:48:20Z</time>
      </trkpt>
      <trkpt lat="36.6969795227051" lon="-5.01828908920288">
        <ele>1654.18310546875</ele>
        <time>2018-07-28T07:48:21Z</time>
      </trkpt>
      <trkpt lat="36.6969795227051" lon="-5.01828908920288">
        <ele>1654.18310546875</ele>
        <time>2018-07-28T07:48:22Z</time>
      </trkpt>
      <trkpt lat="36.6969795227051" lon="-5.01828908920288">
        <ele>1654.18310546875</ele>
        <time>2018-07-28T07:48:23Z</time>
      </trkpt>
      <trkpt lat="36.6969795227051" lon="-5.01828908920288">
        <ele>1654.18310546875</ele>
        <time>2018-07-28T07:48:24Z</time>
      </trkpt>
      <trkpt lat="36.6969795227051" lon="-5.01828908920288">
        <ele>1654.18310546875</ele>
        <time>2018-07-28T07:48:25Z</time>
      </trkpt>
      <trkpt lat="36.6969795227051" lon="-5.01828908920288">
        <ele>1654.18310546875</ele>
        <time>2018-07-28T07:48:26Z</time>
      </trkpt>
      <trkpt lat="36.6969757080078" lon="-5.0182900428772">
        <ele>1654.30554199219</ele>
        <time>2018-07-28T07:48:27Z</time>
      </trkpt>
      <trkpt lat="36.6969757080078" lon="-5.01829195022583">
        <ele>1654.32421875</ele>
        <time>2018-07-28T07:48:28Z</time>
      </trkpt>
      <trkpt lat="36.6969757080078" lon="-5.01829290390015">
        <ele>1654.33361816406</ele>
        <time>2018-07-28T07:48:29Z</time>
      </trkpt>
      <trkpt lat="36.6969757080078" lon="-5.01829290390015">
        <ele>1654.33361816406</ele>
        <time>2018-07-28T07:48:30Z</time>
      </trkpt>
      <trkpt lat="36.6969757080078" lon="-5.01829195022583">
        <ele>1654.32421875</ele>
        <time>2018-07-28T07:48:31Z</time>
      </trkpt>
      <trkpt lat="36.6969795227051" lon="-5.01829195022583">
        <ele>1654.2109375</ele>
        <time>2018-07-28T07:48:32Z</time>
      </trkpt>
      <trkpt lat="36.6969833374023" lon="-5.01829099655151">
        <ele>1654.08837890625</ele>
        <time>2018-07-28T07:48:33Z</time>
      </trkpt>
      <trkpt lat="36.6969833374023" lon="-5.01828908920288">
        <ele>1654.06982421875</ele>
        <time>2018-07-28T07:48:34Z</time>
      </trkpt>
      <trkpt lat="36.6969871520996" lon="-5.01828622817993">
        <ele>1653.92883300781</ele>
        <time>2018-07-28T07:48:35Z</time>
      </trkpt>
      <trkpt lat="36.6969871520996" lon="-5.01828384399414">
        <ele>1653.90576171875</ele>
        <time>2018-07-28T07:48:36Z</time>
      </trkpt>
      <trkpt lat="36.6969871520996" lon="-5.01828193664551">
        <ele>1653.88732910156</ele>
        <time>2018-07-28T07:48:37Z</time>
      </trkpt>
      <trkpt lat="36.6969833374023" lon="-5.01828002929688">
        <ele>1653.98181152344</ele>
        <time>2018-07-28T07:48:38Z</time>
      </trkpt>
      <trkpt lat="36.6969833374023" lon="-5.01827907562256">
        <ele>1653.97253417969</ele>
        <time>2018-07-28T07:48:39Z</time>
      </trkpt>
      <trkpt lat="36.6969795227051" lon="-5.01827907562256">
        <ele>1654.08544921875</ele>
        <time>2018-07-28T07:48:40Z</time>
      </trkpt>
      <trkpt lat="36.6969795227051" lon="-5.01827716827393">
        <ele>1654.06689453125</ele>
        <time>2018-07-28T07:48:41Z</time>
      </trkpt>
      <trkpt lat="36.6969795227051" lon="-5.01827478408814">
        <ele>1654.04357910156</ele>
        <time>2018-07-28T07:48:42Z</time>
      </trkpt>
      <trkpt lat="36.6969795227051" lon="-5.0182728767395">
        <ele>1654.02502441406</ele>
        <time>2018-07-28T07:48:43Z</time>
      </trkpt>
      <trkpt lat="36.6969833374023" lon="-5.01827192306519">
        <ele>1653.90295410156</ele>
        <time>2018-07-28T07:48:44Z</time>
      </trkpt>
      <trkpt lat="36.6969833374023" lon="-5.01827001571655">
        <ele>1653.88439941406</ele>
        <time>2018-07-28T07:48:45Z</time>
      </trkpt>
      <trkpt lat="36.6969871520996" lon="-5.01826906204224">
        <ele>1653.76245117188</ele>
        <time>2018-07-28T07:48:46Z</time>
      </trkpt>
      <trkpt lat="36.6969871520996" lon="-5.0182671546936">
        <ele>1653.74401855469</ele>
        <time>2018-07-28T07:48:47Z</time>
      </trkpt>
      <trkpt lat="36.6969871520996" lon="-5.0182671546936">
        <ele>1653.74401855469</ele>
        <time>2018-07-28T07:48:48Z</time>
      </trkpt>
      <trkpt lat="36.6969871520996" lon="-5.01826620101929">
        <ele>1653.73474121094</ele>
        <time>2018-07-28T07:48:49Z</time>
      </trkpt>
      <trkpt lat="36.6969909667969" lon="-5.01826477050781">
        <ele>1653.60827636719</ele>
        <time>2018-07-28T07:48:50Z</time>
      </trkpt>
      <trkpt lat="36.6969947814941" lon="-5.01826477050781">
        <ele>1653.49572753906</ele>
        <time>2018-07-28T07:48:51Z</time>
      </trkpt>
      <trkpt lat="36.6969947814941" lon="-5.0182638168335">
        <ele>1653.48657226562</ele>
        <time>2018-07-28T07:48:52Z</time>
      </trkpt>
      <trkpt lat="36.6969985961914" lon="-5.0182638168335">
        <ele>1653.3740234375</ele>
        <time>2018-07-28T07:48:53Z</time>
      </trkpt>
      <trkpt lat="36.6969985961914" lon="-5.0182638168335">
        <ele>1653.3740234375</ele>
        <time>2018-07-28T07:48:54Z</time>
      </trkpt>
      <trkpt lat="36.6970024108887" lon="-5.0182638168335">
        <ele>1653.26147460938</ele>
        <time>2018-07-28T07:48:55Z</time>
      </trkpt>
      <trkpt lat="36.6970062255859" lon="-5.0182638168335">
        <ele>1653.14904785156</ele>
        <time>2018-07-28T07:48:56Z</time>
      </trkpt>
      <trkpt lat="36.6970024108887" lon="-5.01826477050781">
        <ele>1653.27062988281</ele>
        <time>2018-07-28T07:48:57Z</time>
      </trkpt>
      <trkpt lat="36.6970024108887" lon="-5.01826477050781">
        <ele>1653.27062988281</ele>
        <time>2018-07-28T07:48:58Z</time>
      </trkpt>
      <trkpt lat="36.6969985961914" lon="-5.01826477050781">
        <ele>1653.38317871094</ele>
        <time>2018-07-28T07:48:59Z</time>
      </trkpt>
      <trkpt lat="36.6969947814941" lon="-5.01826477050781">
        <ele>1653.49572753906</ele>
        <time>2018-07-28T07:49:00Z</time>
      </trkpt>
      <trkpt lat="36.6969947814941" lon="-5.01826477050781">
        <ele>1653.49572753906</ele>
        <time>2018-07-28T07:49:01Z</time>
      </trkpt>
      <trkpt lat="36.6969947814941" lon="-5.0182638168335">
        <ele>1653.48657226562</ele>
        <time>2018-07-28T07:49:02Z</time>
      </trkpt>
      <trkpt lat="36.6969909667969" lon="-5.0182638168335">
        <ele>1653.59912109375</ele>
        <time>2018-07-28T07:49:03Z</time>
      </trkpt>
      <trkpt lat="36.6969909667969" lon="-5.01826286315918">
        <ele>1653.58984375</ele>
        <time>2018-07-28T07:49:04Z</time>
      </trkpt>
      <trkpt lat="36.6969909667969" lon="-5.01826190948486">
        <ele>1653.58068847656</ele>
        <time>2018-07-28T07:49:05Z</time>
      </trkpt>
      <trkpt lat="36.6969871520996" lon="-5.01826095581055">
        <ele>1653.68395996094</ele>
        <time>2018-07-28T07:49:06Z</time>
      </trkpt>
      <trkpt lat="36.6969871520996" lon="-5.01825904846191">
        <ele>1653.66540527344</ele>
        <time>2018-07-28T07:49:07Z</time>
      </trkpt>
      <trkpt lat="36.6969871520996" lon="-5.01825714111328">
        <ele>1653.64697265625</ele>
        <time>2018-07-28T07:49:08Z</time>
      </trkpt>
      <trkpt lat="36.6969871520996" lon="-5.01825618743896">
        <ele>1653.6376953125</ele>
        <time>2018-07-28T07:49:09Z</time>
      </trkpt>
      <trkpt lat="36.6969833374023" lon="-5.01825714111328">
        <ele>1653.75927734375</ele>
        <time>2018-07-28T07:49:10Z</time>
      </trkpt>
      <trkpt lat="36.6969833374023" lon="-5.01825714111328">
        <ele>1653.75927734375</ele>
        <time>2018-07-28T07:49:11Z</time>
      </trkpt>
      <trkpt lat="36.6969795227051" lon="-5.01825523376465">
        <ele>1653.85302734375</ele>
        <time>2018-07-28T07:49:12Z</time>
      </trkpt>
      <trkpt lat="36.6969757080078" lon="-5.01825284957886">
        <ele>1653.94201660156</ele>
        <time>2018-07-28T07:49:13Z</time>
      </trkpt>
      <trkpt lat="36.6969718933106" lon="-5.01825094223022">
        <ele>1654.03552246094</ele>
        <time>2018-07-28T07:49:14Z</time>
      </trkpt>
      <trkpt lat="36.696964263916" lon="-5.01824808120728">
        <ele>1654.23168945312</ele>
        <time>2018-07-28T07:49:15Z</time>
      </trkpt>
      <trkpt lat="36.6969566345215" lon="-5.01824283599854">
        <ele>1654.40393066406</ele>
        <time>2018-07-28T07:49:16Z</time>
      </trkpt>
      <trkpt lat="36.696949005127" lon="-5.01823711395264">
        <ele>1654.57080078125</ele>
        <time>2018-07-28T07:49:17Z</time>
      </trkpt>
      <trkpt lat="36.6969451904297" lon="-5.01822900772095">
        <ele>1654.6015625</ele>
        <time>2018-07-28T07:49:18Z</time>
      </trkpt>
      <trkpt lat="36.6969451904297" lon="-5.01822185516357">
        <ele>1654.53015136719</ele>
        <time>2018-07-28T07:49:19Z</time>
      </trkpt>
      <trkpt lat="36.6969451904297" lon="-5.01821517944336">
        <ele>1654.46337890625</ele>
        <time>2018-07-28T07:49:20Z</time>
      </trkpt>
      <trkpt lat="36.6969451904297" lon="-5.0182089805603">
        <ele>1654.4013671875</ele>
        <time>2018-07-28T07:49:21Z</time>
      </trkpt>
      <trkpt lat="36.6969451904297" lon="-5.01820516586304">
        <ele>1654.36328125</ele>
        <time>2018-07-28T07:49:22Z</time>
      </trkpt>
      <trkpt lat="36.6969451904297" lon="-5.01820182800293">
        <ele>1654.32995605469</ele>
        <time>2018-07-28T07:49:23Z</time>
      </trkpt>
      <trkpt lat="36.6969413757324" lon="-5.0181999206543">
        <ele>1654.42163085938</ele>
        <time>2018-07-28T07:49:24Z</time>
      </trkpt>
      <trkpt lat="36.6969375610352" lon="-5.01819705963135">
        <ele>1654.50366210938</ele>
        <time>2018-07-28T07:49:25Z</time>
      </trkpt>
      <trkpt lat="36.6969337463379" lon="-5.01819515228272">
        <ele>1654.59521484375</ele>
        <time>2018-07-28T07:49:26Z</time>
      </trkpt>
      <trkpt lat="36.6969337463379" lon="-5.01819181442261">
        <ele>1654.5615234375</ele>
        <time>2018-07-28T07:49:27Z</time>
      </trkpt>
      <trkpt lat="36.6969337463379" lon="-5.01818895339966">
        <ele>1654.53271484375</ele>
        <time>2018-07-28T07:49:28Z</time>
      </trkpt>
      <trkpt lat="36.6969337463379" lon="-5.01818704605103">
        <ele>1654.51342773438</ele>
        <time>2018-07-28T07:49:29Z</time>
      </trkpt>
      <trkpt lat="36.6969337463379" lon="-5.01818609237671">
        <ele>1654.50390625</ele>
        <time>2018-07-28T07:49:30Z</time>
      </trkpt>
      <trkpt lat="36.6969337463379" lon="-5.01818513870239">
        <ele>1654.49426269531</ele>
        <time>2018-07-28T07:49:31Z</time>
      </trkpt>
      <trkpt lat="36.6969337463379" lon="-5.01818609237671">
        <ele>1654.50390625</ele>
        <time>2018-07-28T07:49:32Z</time>
      </trkpt>
      <trkpt lat="36.6969337463379" lon="-5.01818513870239">
        <ele>1654.49426269531</ele>
        <time>2018-07-28T07:49:33Z</time>
      </trkpt>
      <trkpt lat="36.6969375610352" lon="-5.01818323135376">
        <ele>1654.36474609375</ele>
        <time>2018-07-28T07:49:34Z</time>
      </trkpt>
      <trkpt lat="36.6969413757324" lon="-5.01817893981934">
        <ele>1654.21142578125</ele>
        <time>2018-07-28T07:49:35Z</time>
      </trkpt>
      <trkpt lat="36.6969451904297" lon="-5.0181770324707">
        <ele>1654.08215332031</ele>
        <time>2018-07-28T07:49:36Z</time>
      </trkpt>
      <trkpt lat="36.6969528198242" lon="-5.01817417144775">
        <ele>1653.83337402344</ele>
        <time>2018-07-28T07:49:37Z</time>
      </trkpt>
      <trkpt lat="36.6969566345215" lon="-5.01817083358765">
        <ele>1653.69018554688</ele>
        <time>2018-07-28T07:49:38Z</time>
      </trkpt>
      <trkpt lat="36.6969604492188" lon="-5.01816892623901">
        <ele>1653.56140136719</ele>
        <time>2018-07-28T07:49:39Z</time>
      </trkpt>
      <trkpt lat="36.6969680786133" lon="-5.0181679725647">
        <ele>1653.33215332031</ele>
        <time>2018-07-28T07:49:40Z</time>
      </trkpt>
      <trkpt lat="36.6969718933106" lon="-5.0181679725647">
        <ele>1653.22229003906</ele>
        <time>2018-07-28T07:49:41Z</time>
      </trkpt>
      <trkpt lat="36.6969718933106" lon="-5.01816701889038">
        <ele>1653.212890625</ele>
        <time>2018-07-28T07:49:42Z</time>
      </trkpt>
      <trkpt lat="36.6969718933106" lon="-5.01816511154175">
        <ele>1653.19421386719</ele>
        <time>2018-07-28T07:49:43Z</time>
      </trkpt>
      <trkpt lat="36.6969718933106" lon="-5.01816415786743">
        <ele>1653.18493652344</ele>
        <time>2018-07-28T07:49:44Z</time>
      </trkpt>
      <trkpt lat="36.6969718933106" lon="-5.01816415786743">
        <ele>1653.18493652344</ele>
        <time>2018-07-28T07:49:45Z</time>
      </trkpt>
      <trkpt lat="36.6969718933106" lon="-5.01816320419312">
        <ele>1653.17553710938</ele>
        <time>2018-07-28T07:49:46Z</time>
      </trkpt>
      <trkpt lat="36.6969718933106" lon="-5.01816177368164">
        <ele>1653.16149902344</ele>
        <time>2018-07-28T07:49:47Z</time>
      </trkpt>
      <trkpt lat="36.6969757080078" lon="-5.01816177368164">
        <ele>1653.0517578125</ele>
        <time>2018-07-28T07:49:48Z</time>
      </trkpt>
      <trkpt lat="36.6969795227051" lon="-5.01816415786743">
        <ele>1652.96533203125</ele>
        <time>2018-07-28T07:49:49Z</time>
      </trkpt>
      <trkpt lat="36.6969871520996" lon="-5.01816511154175">
        <ele>1652.75500488281</ele>
        <time>2018-07-28T07:49:50Z</time>
      </trkpt>
      <trkpt lat="36.6969947814941" lon="-5.01816511154175">
        <ele>1652.53527832031</ele>
        <time>2018-07-28T07:49:51Z</time>
      </trkpt>
      <trkpt lat="36.6969947814941" lon="-5.01816082000732">
        <ele>1652.49389648438</ele>
        <time>2018-07-28T07:49:52Z</time>
      </trkpt>
      <trkpt lat="36.6969947814941" lon="-5.01815700531006">
        <ele>1652.45715332031</ele>
        <time>2018-07-28T07:49:53Z</time>
      </trkpt>
      <trkpt lat="36.6969947814941" lon="-5.01815414428711">
        <ele>1652.42956542969</ele>
        <time>2018-07-28T07:49:54Z</time>
      </trkpt>
      <trkpt lat="36.6969985961914" lon="-5.018150806427">
        <ele>1652.28796386719</ele>
        <time>2018-07-28T07:49:55Z</time>
      </trkpt>
      <trkpt lat="36.6969985961914" lon="-5.0181450843811">
        <ele>1652.23303222656</ele>
        <time>2018-07-28T07:49:56Z</time>
      </trkpt>
      <trkpt lat="36.6969985961914" lon="-5.01813697814941">
        <ele>1652.15515136719</ele>
        <time>2018-07-28T07:49:57Z</time>
      </trkpt>
      <trkpt lat="36.6969947814941" lon="-5.01812887191772">
        <ele>1652.18603515625</ele>
        <time>2018-07-28T07:49:58Z</time>
      </trkpt>
      <trkpt lat="36.6969909667969" lon="-5.01812076568604">
        <ele>1652.21655273438</ele>
        <time>2018-07-28T07:49:59Z</time>
      </trkpt>
      <trkpt lat="36.6969833374023" lon="-5.01811218261719">
        <ele>1652.35034179688</ele>
        <time>2018-07-28T07:50:00Z</time>
      </trkpt>
      <trkpt lat="36.6969757080078" lon="-5.0181040763855">
        <ele>1652.48779296875</ele>
        <time>2018-07-28T07:50:01Z</time>
      </trkpt>
      <trkpt lat="36.6969718933106" lon="-5.01809597015381">
        <ele>1652.51647949219</ele>
        <time>2018-07-28T07:50:02Z</time>
      </trkpt>
      <trkpt lat="36.696964263916" lon="-5.01809215545654">
        <ele>1652.69470214844</ele>
        <time>2018-07-28T07:50:03Z</time>
      </trkpt>
      <trkpt lat="36.6969604492188" lon="-5.01809215545654">
        <ele>1652.80249023438</ele>
        <time>2018-07-28T07:50:04Z</time>
      </trkpt>
      <trkpt lat="36.6969604492188" lon="-5.01809215545654">
        <ele>1652.80249023438</ele>
        <time>2018-07-28T07:50:05Z</time>
      </trkpt>
      <trkpt lat="36.696964263916" lon="-5.01809215545654">
        <ele>1652.69470214844</ele>
        <time>2018-07-28T07:50:06Z</time>
      </trkpt>
      <trkpt lat="36.696964263916" lon="-5.01808977127075">
        <ele>1652.67126464844</ele>
        <time>2018-07-28T07:50:07Z</time>
      </trkpt>
      <trkpt lat="36.6969604492188" lon="-5.01808595657349">
        <ele>1652.7412109375</ele>
        <time>2018-07-28T07:50:08Z</time>
      </trkpt>
      <trkpt lat="36.6969604492188" lon="-5.01808214187622">
        <ele>1652.70361328125</ele>
        <time>2018-07-28T07:50:09Z</time>
      </trkpt>
      <trkpt lat="36.6969604492188" lon="-5.01807594299316">
        <ele>1652.64233398438</ele>
        <time>2018-07-28T07:50:10Z</time>
      </trkpt>
      <trkpt lat="36.6969604492188" lon="-5.01806879043579">
        <ele>1652.57153320312</ele>
        <time>2018-07-28T07:50:11Z</time>
      </trkpt>
      <trkpt lat="36.6969566345215" lon="-5.01806116104126">
        <ele>1652.60314941406</ele>
        <time>2018-07-28T07:50:12Z</time>
      </trkpt>
      <trkpt lat="36.6969566345215" lon="-5.01805591583252">
        <ele>1652.55114746094</ele>
        <time>2018-07-28T07:50:13Z</time>
      </trkpt>
      <trkpt lat="36.696949005127" lon="-5.01804780960083">
        <ele>1652.68395996094</ele>
        <time>2018-07-28T07:50:14Z</time>
      </trkpt>
      <trkpt lat="36.6969451904297" lon="-5.01804113388062">
        <ele>1652.72387695312</ele>
        <time>2018-07-28T07:50:15Z</time>
      </trkpt>
      <trkpt lat="36.6969375610352" lon="-5.01803112030029">
        <ele>1652.83605957031</ele>
        <time>2018-07-28T07:50:16Z</time>
      </trkpt>
      <trkpt lat="36.6969337463379" lon="-5.01802396774292">
        <ele>1652.8701171875</ele>
        <time>2018-07-28T07:50:17Z</time>
      </trkpt>
      <trkpt lat="36.6969261169434" lon="-5.01801681518555">
        <ele>1653.00952148438</ele>
        <time>2018-07-28T07:50:18Z</time>
      </trkpt>
      <trkpt lat="36.6969261169434" lon="-5.01801300048828">
        <ele>1652.97094726562</ele>
        <time>2018-07-28T07:50:19Z</time>
      </trkpt>
      <trkpt lat="36.6969261169434" lon="-5.01801013946533">
        <ele>1652.94189453125</ele>
        <time>2018-07-28T07:50:20Z</time>
      </trkpt>
      <trkpt lat="36.6969299316406" lon="-5.01800680160522">
        <ele>1652.80261230469</ele>
        <time>2018-07-28T07:50:21Z</time>
      </trkpt>
      <trkpt lat="36.6969337463379" lon="-5.01800394058228">
        <ele>1652.66833496094</ele>
        <time>2018-07-28T07:50:22Z</time>
      </trkpt>
      <trkpt lat="36.6969375610352" lon="-5.01799917221069">
        <ele>1652.51501464844</ele>
        <time>2018-07-28T07:50:23Z</time>
      </trkpt>
      <trkpt lat="36.6969375610352" lon="-5.0179967880249">
        <ele>1652.49108886719</ele>
        <time>2018-07-28T07:50:24Z</time>
      </trkpt>
      <trkpt lat="36.6969375610352" lon="-5.01799392700195">
        <ele>1652.46228027344</ele>
        <time>2018-07-28T07:50:25Z</time>
      </trkpt>
      <trkpt lat="36.6969413757324" lon="-5.01799297332764">
        <ele>1652.34765625</ele>
        <time>2018-07-28T07:50:26Z</time>
      </trkpt>
      <trkpt lat="36.6969451904297" lon="-5.01799201965332">
        <ele>1652.23303222656</ele>
        <time>2018-07-28T07:50:27Z</time>
      </trkpt>
      <trkpt lat="36.6969451904297" lon="-5.017991065979">
        <ele>1652.22351074219</ele>
        <time>2018-07-28T07:50:28Z</time>
      </trkpt>
      <trkpt lat="36.696949005127" lon="-5.017991065979">
        <ele>1652.11840820312</ele>
        <time>2018-07-28T07:50:29Z</time>
      </trkpt>
      <trkpt lat="36.6969528198242" lon="-5.017991065979">
        <ele>1652.01342773438</ele>
        <time>2018-07-28T07:50:30Z</time>
      </trkpt>
      <trkpt lat="36.6969566345215" lon="-5.01799297332764">
        <ele>1651.92724609375</ele>
        <time>2018-07-28T07:50:31Z</time>
      </trkpt>
      <trkpt lat="36.6969604492188" lon="-5.01799392700195">
        <ele>1651.83154296875</ele>
        <time>2018-07-28T07:50:32Z</time>
      </trkpt>
      <trkpt lat="36.6969604492188" lon="-5.01799583435059">
        <ele>1651.85046386719</ele>
        <time>2018-07-28T07:50:33Z</time>
      </trkpt>
      <trkpt lat="36.696964263916" lon="-5.01799488067627">
        <ele>1651.73583984375</ele>
        <time>2018-07-28T07:50:34Z</time>
      </trkpt>
      <trkpt lat="36.6969680786133" lon="-5.01799583435059">
        <ele>1651.64013671875</ele>
        <time>2018-07-28T07:50:35Z</time>
      </trkpt>
      <trkpt lat="36.6969680786133" lon="-5.01799821853638">
        <ele>1651.66357421875</ele>
        <time>2018-07-28T07:50:36Z</time>
      </trkpt>
      <trkpt lat="36.6969718933106" lon="-5.01800107955933">
        <ele>1651.58630371094</ele>
        <time>2018-07-28T07:50:37Z</time>
      </trkpt>
      <trkpt lat="36.6969795227051" lon="-5.01800298690796">
        <ele>1651.39428710938</ele>
        <time>2018-07-28T07:50:38Z</time>
      </trkpt>
      <trkpt lat="36.6969833374023" lon="-5.01800394058228">
        <ele>1651.29821777344</ele>
        <time>2018-07-28T07:50:39Z</time>
      </trkpt>
      <trkpt lat="36.6969909667969" lon="-5.01800394058228">
        <ele>1651.08740234375</ele>
        <time>2018-07-28T07:50:40Z</time>
      </trkpt>
      <trkpt lat="36.6969947814941" lon="-5.01800489425659">
        <ele>1650.9912109375</ele>
        <time>2018-07-28T07:50:41Z</time>
      </trkpt>
      <trkpt lat="36.6970024108887" lon="-5.01801013946533">
        <ele>1650.83056640625</ele>
        <time>2018-07-28T07:50:42Z</time>
      </trkpt>
      <trkpt lat="36.6970062255859" lon="-5.01801490783691">
        <ele>1650.77062988281</ele>
        <time>2018-07-28T07:50:43Z</time>
      </trkpt>
      <trkpt lat="36.6970100402832" lon="-5.01801776885986">
        <ele>1650.69213867188</ele>
        <time>2018-07-28T07:50:44Z</time>
      </trkpt>
      <trkpt lat="36.6970138549805" lon="-5.01802015304565">
        <ele>1650.60900878906</ele>
        <time>2018-07-28T07:50:45Z</time>
      </trkpt>
      <trkpt lat="36.6970176696777" lon="-5.01801919937134">
        <ele>1650.494140625</ele>
        <time>2018-07-28T07:50:46Z</time>
      </trkpt>
      <trkpt lat="36.697021484375" lon="-5.01801681518555">
        <ele>1650.36584472656</ele>
        <time>2018-07-28T07:50:47Z</time>
      </trkpt>
      <trkpt lat="36.6970252990723" lon="-5.01801109313965">
        <ele>1650.20617675781</ele>
        <time>2018-07-28T07:50:48Z</time>
      </trkpt>
      <trkpt lat="36.6970291137695" lon="-5.01800489425659">
        <ele>1650.04235839844</ele>
        <time>2018-07-28T07:50:49Z</time>
      </trkpt>
      <trkpt lat="36.6970291137695" lon="-5.01799917221069">
        <ele>1649.98864746094</ele>
        <time>2018-07-28T07:50:50Z</time>
      </trkpt>
      <trkpt lat="36.6970291137695" lon="-5.01799297332764">
        <ele>1649.93041992188</ele>
        <time>2018-07-28T07:50:51Z</time>
      </trkpt>
      <trkpt lat="36.6970291137695" lon="-5.01798582077026">
        <ele>1649.86328125</ele>
        <time>2018-07-28T07:50:52Z</time>
      </trkpt>
      <trkpt lat="36.6970329284668" lon="-5.01797819137573">
        <ele>1649.68701171875</ele>
        <time>2018-07-28T07:50:53Z</time>
      </trkpt>
      <trkpt lat="36.6970329284668" lon="-5.01797103881836">
        <ele>1649.61999511719</ele>
        <time>2018-07-28T07:50:54Z</time>
      </trkpt>
      <trkpt lat="36.6970367431641" lon="-5.01796388626099">
        <ele>1649.44873046875</ele>
        <time>2018-07-28T07:50:55Z</time>
      </trkpt>
      <trkpt lat="36.6970367431641" lon="-5.01795816421509">
        <ele>1649.39538574219</ele>
        <time>2018-07-28T07:50:56Z</time>
      </trkpt>
      <trkpt lat="36.6970405578613" lon="-5.01795101165772">
        <ele>1649.224609375</ele>
        <time>2018-07-28T07:50:57Z</time>
      </trkpt>
      <trkpt lat="36.6970443725586" lon="-5.01794576644897">
        <ele>1649.07202148438</ele>
        <time>2018-07-28T07:50:58Z</time>
      </trkpt>
      <trkpt lat="36.6970481872559" lon="-5.01794195175171">
        <ele>1648.93286132812</ele>
        <time>2018-07-28T07:50:59Z</time>
      </trkpt>
      <trkpt lat="36.6970558166504" lon="-5.01794004440308">
        <ele>1648.7080078125</ele>
        <time>2018-07-28T07:51:00Z</time>
      </trkpt>
      <trkpt lat="36.6970558166504" lon="-5.01793718338013">
        <ele>1648.681640625</ele>
        <time>2018-07-28T07:51:01Z</time>
      </trkpt>
      <trkpt lat="36.6970558166504" lon="-5.01793622970581">
        <ele>1648.6728515625</ele>
        <time>2018-07-28T07:51:02Z</time>
      </trkpt>
      <trkpt lat="36.6970596313477" lon="-5.01793479919434">
        <ele>1648.55627441406</ele>
        <time>2018-07-28T07:51:03Z</time>
      </trkpt>
      <trkpt lat="36.6970634460449" lon="-5.01793479919434">
        <ele>1648.45275878906</ele>
        <time>2018-07-28T07:51:04Z</time>
      </trkpt>
      <trkpt lat="36.6970672607422" lon="-5.01793384552002">
        <ele>1648.34057617188</ele>
        <time>2018-07-28T07:51:05Z</time>
      </trkpt>
      <trkpt lat="36.6970710754394" lon="-5.0179328918457">
        <ele>1648.22839355469</ele>
        <time>2018-07-28T07:51:06Z</time>
      </trkpt>
      <trkpt lat="36.6970748901367" lon="-5.01793098449707">
        <ele>1648.10766601562</ele>
        <time>2018-07-28T07:51:07Z</time>
      </trkpt>
      <trkpt lat="36.6970748901367" lon="-5.01792812347412">
        <ele>1648.08178710938</ele>
        <time>2018-07-28T07:51:08Z</time>
      </trkpt>
      <trkpt lat="36.6970748901367" lon="-5.01792621612549">
        <ele>1648.064453125</ele>
        <time>2018-07-28T07:51:09Z</time>
      </trkpt>
      <trkpt lat="36.697078704834" lon="-5.0179238319397">
        <ele>1647.93969726562</ele>
        <time>2018-07-28T07:51:10Z</time>
      </trkpt>
      <trkpt lat="36.6970825195312" lon="-5.01791906356812">
        <ele>1647.79357910156</ele>
        <time>2018-07-28T07:51:11Z</time>
      </trkpt>
      <trkpt lat="36.6970863342285" lon="-5.01791381835938">
        <ele>1647.64343261719</ele>
        <time>2018-07-28T07:51:12Z</time>
      </trkpt>
      <trkpt lat="36.697093963623" lon="-5.01790809631348">
        <ele>1647.38647460938</ele>
        <time>2018-07-28T07:51:13Z</time>
      </trkpt>
      <trkpt lat="36.6970977783203" lon="-5.01790523529053">
        <ele>1647.25830078125</ele>
        <time>2018-07-28T07:51:14Z</time>
      </trkpt>
      <trkpt lat="36.6971015930176" lon="-5.01790523529053">
        <ele>1647.15563964844</ele>
        <time>2018-07-28T07:51:15Z</time>
      </trkpt>
      <trkpt lat="36.6971054077148" lon="-5.01790714263916">
        <ele>1647.06982421875</ele>
        <time>2018-07-28T07:51:16Z</time>
      </trkpt>
      <trkpt lat="36.6971092224121" lon="-5.01791000366211">
        <ele>1646.99230957031</ele>
        <time>2018-07-28T07:51:17Z</time>
      </trkpt>
      <trkpt lat="36.6971092224121" lon="-5.01791381835938">
        <ele>1647.02587890625</ele>
        <time>2018-07-28T07:51:18Z</time>
      </trkpt>
      <trkpt lat="36.6971092224121" lon="-5.0179181098938">
        <ele>1647.06372070312</ele>
        <time>2018-07-28T07:51:19Z</time>
      </trkpt>
      <trkpt lat="36.6971130371094" lon="-5.01792287826538">
        <ele>1647.00256347656</ele>
        <time>2018-07-28T07:51:20Z</time>
      </trkpt>
      <trkpt lat="36.6971168518066" lon="-5.01792621612549">
        <ele>1646.92858886719</ele>
        <time>2018-07-28T07:51:21Z</time>
      </trkpt>
      <trkpt lat="36.6971206665039" lon="-5.01792907714844">
        <ele>1646.85034179688</ele>
        <time>2018-07-28T07:51:22Z</time>
      </trkpt>
      <trkpt lat="36.6971206665039" lon="-5.0179328918457">
        <ele>1646.88366699219</ele>
        <time>2018-07-28T07:51:23Z</time>
      </trkpt>
      <trkpt lat="36.6971206665039" lon="-5.01793718338013">
        <ele>1646.92114257812</ele>
        <time>2018-07-28T07:51:24Z</time>
      </trkpt>
      <trkpt lat="36.6971244812012" lon="-5.01794195175171">
        <ele>1646.85913085938</ele>
        <time>2018-07-28T07:51:25Z</time>
      </trkpt>
      <trkpt lat="36.6971282958984" lon="-5.01794576644897">
        <ele>1646.78845214844</ele>
        <time>2018-07-28T07:51:26Z</time>
      </trkpt>
      <trkpt lat="36.697135925293" lon="-5.01795101165772">
        <ele>1646.62609863281</ele>
        <time>2018-07-28T07:51:27Z</time>
      </trkpt>
      <trkpt lat="36.6971397399902" lon="-5.01795482635498">
        <ele>1646.55493164062</ele>
        <time>2018-07-28T07:51:28Z</time>
      </trkpt>
      <trkpt lat="36.6971435546875" lon="-5.0179591178894">
        <ele>1646.48767089844</ele>
        <time>2018-07-28T07:51:29Z</time>
      </trkpt>
      <trkpt lat="36.6971473693848" lon="-5.0179591178894">
        <ele>1646.38354492188</ele>
        <time>2018-07-28T07:51:30Z</time>
      </trkpt>
      <trkpt lat="36.697151184082" lon="-5.01796197891235">
        <ele>1646.3037109375</ele>
        <time>2018-07-28T07:51:31Z</time>
      </trkpt>
      <trkpt lat="36.6971549987793" lon="-5.01796293258667">
        <ele>1646.20751953125</ele>
        <time>2018-07-28T07:51:32Z</time>
      </trkpt>
      <trkpt lat="36.6971588134766" lon="-5.0179648399353">
        <ele>1646.11938476562</ele>
        <time>2018-07-28T07:51:33Z</time>
      </trkpt>
      <trkpt lat="36.6971626281738" lon="-5.01796579360962">
        <ele>1646.02319335938</ele>
        <time>2018-07-28T07:51:34Z</time>
      </trkpt>
      <trkpt lat="36.6971664428711" lon="-5.01796817779541">
        <ele>1645.93884277344</ele>
        <time>2018-07-28T07:51:35Z</time>
      </trkpt>
      <trkpt lat="36.6971740722656" lon="-5.01797199249268">
        <ele>1645.76184082031</ele>
        <time>2018-07-28T07:51:36Z</time>
      </trkpt>
      <trkpt lat="36.6971778869629" lon="-5.01797485351562">
        <ele>1645.68115234375</ele>
        <time>2018-07-28T07:51:37Z</time>
      </trkpt>
      <trkpt lat="36.6971817016602" lon="-5.01797723770142">
        <ele>1645.59631347656</ele>
        <time>2018-07-28T07:51:38Z</time>
      </trkpt>
      <trkpt lat="36.6971817016602" lon="-5.01797819137573">
        <ele>1645.60424804688</ele>
        <time>2018-07-28T07:51:39Z</time>
      </trkpt>
      <trkpt lat="36.6971893310547" lon="-5.01797914505005">
        <ele>1645.40270996094</ele>
        <time>2018-07-28T07:51:40Z</time>
      </trkpt>
      <trkpt lat="36.697193145752" lon="-5.01798295974731">
        <ele>1645.32934570312</ele>
        <time>2018-07-28T07:51:41Z</time>
      </trkpt>
      <trkpt lat="36.6972007751465" lon="-5.01798820495606">
        <ele>1645.16247558594</ele>
        <time>2018-07-28T07:51:42Z</time>
      </trkpt>
      <trkpt lat="36.6972045898438" lon="-5.01799297332764">
        <ele>1645.09619140625</ele>
        <time>2018-07-28T07:51:43Z</time>
      </trkpt>
      <trkpt lat="36.697208404541" lon="-5.01799821853638">
        <ele>1645.03356933594</ele>
        <time>2018-07-28T07:51:44Z</time>
      </trkpt>
      <trkpt lat="36.6972122192383" lon="-5.01800203323364">
        <ele>1644.95910644531</ele>
        <time>2018-07-28T07:51:45Z</time>
      </trkpt>
      <trkpt lat="36.6972160339356" lon="-5.01800680160522">
        <ele>1644.89221191406</ele>
        <time>2018-07-28T07:51:46Z</time>
      </trkpt>
      <trkpt lat="36.6972236633301" lon="-5.01801490783691">
        <ele>1644.74597167969</ele>
        <time>2018-07-28T07:51:47Z</time>
      </trkpt>
      <trkpt lat="36.6972274780273" lon="-5.0180230140686">
        <ele>1644.70483398438</ele>
        <time>2018-07-28T07:51:48Z</time>
      </trkpt>
      <trkpt lat="36.6972312927246" lon="-5.01803207397461">
        <ele>1644.67077636719</ele>
        <time>2018-07-28T07:51:49Z</time>
      </trkpt>
      <trkpt lat="36.6972351074219" lon="-5.01803922653198">
        <ele>1644.62121582031</ele>
        <time>2018-07-28T07:51:50Z</time>
      </trkpt>
      <trkpt lat="36.6972351074219" lon="-5.0180459022522">
        <ele>1644.67395019531</ele>
        <time>2018-07-28T07:51:51Z</time>
      </trkpt>
      <trkpt lat="36.6972427368164" lon="-5.01805305480957">
        <ele>1644.51708984375</ele>
        <time>2018-07-28T07:51:52Z</time>
      </trkpt>
      <trkpt lat="36.6972465515137" lon="-5.01806211471558">
        <ele>1644.48120117188</ele>
        <time>2018-07-28T07:51:53Z</time>
      </trkpt>
      <trkpt lat="36.6972541809082" lon="-5.01806592941284">
        <ele>1644.296875</ele>
        <time>2018-07-28T07:51:54Z</time>
      </trkpt>
      <trkpt lat="36.6972618103027" lon="-5.01806592941284">
        <ele>1644.08264160156</ele>
        <time>2018-07-28T07:51:55Z</time>
      </trkpt>
      <trkpt lat="36.6972694396973" lon="-5.01806497573853">
        <ele>1643.86120605469</ele>
        <time>2018-07-28T07:51:56Z</time>
      </trkpt>
      <trkpt lat="36.6972770690918" lon="-5.01806497573853">
        <ele>1643.64709472656</ele>
        <time>2018-07-28T07:51:57Z</time>
      </trkpt>
      <trkpt lat="36.6972846984863" lon="-5.01806592941284">
        <ele>1643.44006347656</ele>
        <time>2018-07-28T07:51:58Z</time>
      </trkpt>
      <trkpt lat="36.6972885131836" lon="-5.01806592941284">
        <ele>1643.3330078125</ele>
        <time>2018-07-28T07:51:59Z</time>
      </trkpt>
      <trkpt lat="36.6972885131836" lon="-5.01806402206421">
        <ele>1643.31860351562</ele>
        <time>2018-07-28T07:52:00Z</time>
      </trkpt>
      <trkpt lat="36.6972885131836" lon="-5.01806306838989">
        <ele>1643.3115234375</ele>
        <time>2018-07-28T07:52:01Z</time>
      </trkpt>
      <trkpt lat="36.6972923278809" lon="-5.01806306838989">
        <ele>1643.20446777344</ele>
        <time>2018-07-28T07:52:02Z</time>
      </trkpt>
      <trkpt lat="36.6972961425781" lon="-5.01806688308716">
        <ele>1643.1259765625</ele>
        <time>2018-07-28T07:52:03Z</time>
      </trkpt>
      <trkpt lat="36.6973037719727" lon="-5.01807117462158">
        <ele>1642.94348144531</ele>
        <time>2018-07-28T07:52:04Z</time>
      </trkpt>
      <trkpt lat="36.6973075866699" lon="-5.01807498931885">
        <ele>1642.86437988281</ele>
        <time>2018-07-28T07:52:05Z</time>
      </trkpt>
      <trkpt lat="36.6973114013672" lon="-5.01807689666748">
        <ele>1642.77111816406</ele>
        <time>2018-07-28T07:52:06Z</time>
      </trkpt>
      <trkpt lat="36.6973152160644" lon="-5.01808023452759">
        <ele>1642.68823242188</ele>
        <time>2018-07-28T07:52:07Z</time>
      </trkpt>
      <trkpt lat="36.697322845459" lon="-5.01808309555054">
        <ele>1642.49401855469</ele>
        <time>2018-07-28T07:52:08Z</time>
      </trkpt>
      <trkpt lat="36.697322845459" lon="-5.0180869102478">
        <ele>1642.52172851562</ele>
        <time>2018-07-28T07:52:09Z</time>
      </trkpt>
      <trkpt lat="36.6973266601562" lon="-5.01808977127075">
        <ele>1642.43481445312</ele>
        <time>2018-07-28T07:52:10Z</time>
      </trkpt>
      <trkpt lat="36.6973304748535" lon="-5.01809310913086">
        <ele>1642.35119628906</ele>
        <time>2018-07-28T07:52:11Z</time>
      </trkpt>
      <trkpt lat="36.6973304748535" lon="-5.01809501647949">
        <ele>1642.36499023438</ele>
        <time>2018-07-28T07:52:12Z</time>
      </trkpt>
      <trkpt lat="36.6973342895508" lon="-5.01809692382812">
        <ele>1642.27075195312</ele>
        <time>2018-07-28T07:52:13Z</time>
      </trkpt>
      <trkpt lat="36.6973342895508" lon="-5.01809978485107">
        <ele>1642.29138183594</ele>
        <time>2018-07-28T07:52:14Z</time>
      </trkpt>
      <trkpt lat="36.697338104248" lon="-5.01810312271118">
        <ele>1642.20727539062</ele>
        <time>2018-07-28T07:52:15Z</time>
      </trkpt>
      <trkpt lat="36.6973419189453" lon="-5.01810216903686">
        <ele>1642.09228515625</ele>
        <time>2018-07-28T07:52:16Z</time>
      </trkpt>
      <trkpt lat="36.6973495483398" lon="-5.01809883117676">
        <ele>1641.8525390625</ele>
        <time>2018-07-28T07:52:17Z</time>
      </trkpt>
      <trkpt lat="36.6973533630371" lon="-5.01809406280518">
        <ele>1641.71081542969</ele>
        <time>2018-07-28T07:52:18Z</time>
      </trkpt>
      <trkpt lat="36.6973609924316" lon="-5.01809310913086">
        <ele>1641.48840332031</ele>
        <time>2018-07-28T07:52:19Z</time>
      </trkpt>
      <trkpt lat="36.6973686218262" lon="-5.01809310913086">
        <ele>1641.27282714844</ele>
        <time>2018-07-28T07:52:20Z</time>
      </trkpt>
      <trkpt lat="36.6973724365234" lon="-5.01809215545654">
        <ele>1641.15832519531</ele>
        <time>2018-07-28T07:52:21Z</time>
      </trkpt>
      <trkpt lat="36.697380065918" lon="-5.01809120178223">
        <ele>1640.93615722656</ele>
        <time>2018-07-28T07:52:22Z</time>
      </trkpt>
      <trkpt lat="36.6973838806152" lon="-5.01809120178223">
        <ele>1640.82836914062</ele>
        <time>2018-07-28T07:52:23Z</time>
      </trkpt>
      <trkpt lat="36.6973876953125" lon="-5.01809215545654">
        <ele>1640.72705078125</ele>
        <time>2018-07-28T07:52:24Z</time>
      </trkpt>
      <trkpt lat="36.697395324707" lon="-5.01809406280518">
        <ele>1640.52429199219</ele>
        <time>2018-07-28T07:52:25Z</time>
      </trkpt>
      <trkpt lat="36.6974029541016" lon="-5.01809597015381">
        <ele>1640.3212890625</ele>
        <time>2018-07-28T07:52:26Z</time>
      </trkpt>
      <trkpt lat="36.6974105834961" lon="-5.01809883117676">
        <ele>1640.12451171875</ele>
        <time>2018-07-28T07:52:27Z</time>
      </trkpt>
      <trkpt lat="36.6974143981934" lon="-5.01810216903686">
        <ele>1640.03857421875</ele>
        <time>2018-07-28T07:52:28Z</time>
      </trkpt>
      <trkpt lat="36.6974220275879" lon="-5.01810693740845">
        <ele>1639.85363769531</ele>
        <time>2018-07-28T07:52:29Z</time>
      </trkpt>
      <trkpt lat="36.6974296569824" lon="-5.01811408996582">
        <ele>1639.68383789062</ele>
        <time>2018-07-28T07:52:30Z</time>
      </trkpt>
      <trkpt lat="36.6974411010742" lon="-5.01812219619751">
        <ele>1639.41064453125</ele>
        <time>2018-07-28T07:52:31Z</time>
      </trkpt>
      <trkpt lat="36.6974487304688" lon="-5.01812887191772">
        <ele>1639.23583984375</ele>
        <time>2018-07-28T07:52:32Z</time>
      </trkpt>
      <trkpt lat="36.6974563598633" lon="-5.01813411712646">
        <ele>1639.05126953125</ele>
        <time>2018-07-28T07:52:33Z</time>
      </trkpt>
      <trkpt lat="36.6974639892578" lon="-5.01813888549805">
        <ele>1638.86315917969</ele>
        <time>2018-07-28T07:52:34Z</time>
      </trkpt>
      <trkpt lat="36.6974716186523" lon="-5.01814413070679">
        <ele>1638.67761230469</ele>
        <time>2018-07-28T07:52:35Z</time>
      </trkpt>
      <trkpt lat="36.6974792480469" lon="-5.01814889907837">
        <ele>1638.48840332031</ele>
        <time>2018-07-28T07:52:36Z</time>
      </trkpt>
      <trkpt lat="36.6974868774414" lon="-5.01815414428711">
        <ele>1638.30163574219</ele>
        <time>2018-07-28T07:52:37Z</time>
      </trkpt>
      <trkpt lat="36.6974945068359" lon="-5.01815986633301">
        <ele>1638.1171875</ele>
        <time>2018-07-28T07:52:38Z</time>
      </trkpt>
      <trkpt lat="36.6974945068359" lon="-5.01816606521606">
        <ele>1638.15454101562</ele>
        <time>2018-07-28T07:52:39Z</time>
      </trkpt>
      <trkpt lat="36.6974983215332" lon="-5.01817321777344">
        <ele>1638.08776855469</ele>
        <time>2018-07-28T07:52:40Z</time>
      </trkpt>
      <trkpt lat="36.6975021362305" lon="-5.01817989349365">
        <ele>1638.00720214844</ele>
        <time>2018-07-28T07:52:41Z</time>
      </trkpt>
      <trkpt lat="36.697509765625" lon="-5.01818799972534">
        <ele>1637.796875</ele>
        <time>2018-07-28T07:52:42Z</time>
      </trkpt>
      <trkpt lat="36.6975135803223" lon="-5.01819801330566">
        <ele>1637.72570800781</ele>
        <time>2018-07-28T07:52:43Z</time>
      </trkpt>
      <trkpt lat="36.6975173950195" lon="-5.0182089805603">
        <ele>1637.65881347656</ele>
        <time>2018-07-28T07:52:44Z</time>
      </trkpt>
      <trkpt lat="36.6975212097168" lon="-5.01821994781494">
        <ele>1637.5908203125</ele>
        <time>2018-07-28T07:52:45Z</time>
      </trkpt>
      <trkpt lat="36.6975173950195" lon="-5.0182318687439">
        <ele>1637.79040527344</ele>
        <time>2018-07-28T07:52:46Z</time>
      </trkpt>
      <trkpt lat="36.6975135803223" lon="-5.0182409286499">
        <ele>1637.97473144531</ele>
        <time>2018-07-28T07:52:47Z</time>
      </trkpt>
      <trkpt lat="36.697509765625" lon="-5.01825094223022">
        <ele>1638.16564941406</ele>
        <time>2018-07-28T07:52:48Z</time>
      </trkpt>
      <trkpt lat="36.6975059509277" lon="-5.01825904846191">
        <ele>1638.34643554688</ele>
        <time>2018-07-28T07:52:49Z</time>
      </trkpt>
      <trkpt lat="36.6975059509277" lon="-5.01826906204224">
        <ele>1638.40563964844</ele>
        <time>2018-07-28T07:52:50Z</time>
      </trkpt>
      <trkpt lat="36.697509765625" lon="-5.01827812194824">
        <ele>1638.32495117188</ele>
        <time>2018-07-28T07:52:51Z</time>
      </trkpt>
      <trkpt lat="36.6975135803223" lon="-5.01828479766846">
        <ele>1638.22937011719</ele>
        <time>2018-07-28T07:52:52Z</time>
      </trkpt>
      <trkpt lat="36.6975135803223" lon="-5.01829099655151">
        <ele>1638.26538085938</ele>
        <time>2018-07-28T07:52:53Z</time>
      </trkpt>
      <trkpt lat="36.6975135803223" lon="-5.01829719543457">
        <ele>1638.30139160156</ele>
        <time>2018-07-28T07:52:54Z</time>
      </trkpt>
      <trkpt lat="36.6975173950195" lon="-5.0183048248291">
        <ele>1638.20983886719</ele>
        <time>2018-07-28T07:52:55Z</time>
      </trkpt>
      <trkpt lat="36.6975212097168" lon="-5.01831483840942">
        <ele>1638.13110351562</ele>
        <time>2018-07-28T07:52:56Z</time>
      </trkpt>
      <trkpt lat="36.6975250244141" lon="-5.01832294464111">
        <ele>1638.04052734375</ele>
        <time>2018-07-28T07:52:57Z</time>
      </trkpt>
      <trkpt lat="36.6975326538086" lon="-5.01832723617554">
        <ele>1637.79077148438</ele>
        <time>2018-07-28T07:52:58Z</time>
      </trkpt>
      <trkpt lat="36.6975364685059" lon="-5.01833200454712">
        <ele>1637.67980957031</ele>
        <time>2018-07-28T07:52:59Z</time>
      </trkpt>
      <trkpt lat="36.6975440979004" lon="-5.0183367729187">
        <ele>1637.45141601562</ele>
        <time>2018-07-28T07:53:00Z</time>
      </trkpt>
      <trkpt lat="36.6975517272949" lon="-5.01834392547607">
        <ele>1637.25854492188</ele>
        <time>2018-07-28T07:53:01Z</time>
      </trkpt>
      <trkpt lat="36.6975555419922" lon="-5.01834917068481">
        <ele>1637.181640625</ele>
        <time>2018-07-28T07:53:02Z</time>
      </trkpt>
      <trkpt lat="36.6975593566894" lon="-5.01835203170776">
        <ele>1637.07788085938</ele>
        <time>2018-07-28T07:53:03Z</time>
      </trkpt>
      <trkpt lat="36.697566986084" lon="-5.0183539390564">
        <ele>1636.82690429688</ele>
        <time>2018-07-28T07:53:04Z</time>
      </trkpt>
      <trkpt lat="36.6975708007812" lon="-5.01835823059082">
        <ele>1636.74035644531</ele>
        <time>2018-07-28T07:53:05Z</time>
      </trkpt>
      <trkpt lat="36.6975784301758" lon="-5.0183629989624">
        <ele>1636.52368164062</ele>
        <time>2018-07-28T07:53:06Z</time>
      </trkpt>
      <trkpt lat="36.697582244873" lon="-5.01836490631104">
        <ele>1636.41003417969</ele>
        <time>2018-07-28T07:53:07Z</time>
      </trkpt>
      <trkpt lat="36.6975898742676" lon="-5.01836585998535">
        <ele>1636.14953613281</ele>
        <time>2018-07-28T07:53:08Z</time>
      </trkpt>
      <trkpt lat="36.6975936889648" lon="-5.01837015151978">
        <ele>1636.06457519531</ele>
        <time>2018-07-28T07:53:09Z</time>
      </trkpt>
      <trkpt lat="36.6976013183594" lon="-5.01837587356567">
        <ele>1635.86157226562</ele>
        <time>2018-07-28T07:53:10Z</time>
      </trkpt>
      <trkpt lat="36.6976051330566" lon="-5.01838207244873">
        <ele>1635.80065917969</ele>
        <time>2018-07-28T07:53:11Z</time>
      </trkpt>
      <trkpt lat="36.6976051330566" lon="-5.01838397979736">
        <ele>1635.82348632812</ele>
        <time>2018-07-28T07:53:12Z</time>
      </trkpt>
      <trkpt lat="36.6976089477539" lon="-5.01838397979736">
        <ele>1635.6884765625</ele>
        <time>2018-07-28T07:53:13Z</time>
      </trkpt>
      <trkpt lat="36.6976089477539" lon="-5.01838302612305">
        <ele>1635.67687988281</ele>
        <time>2018-07-28T07:53:14Z</time>
      </trkpt>
      <trkpt lat="36.6976089477539" lon="-5.01838397979736">
        <ele>1635.6884765625</ele>
        <time>2018-07-28T07:53:15Z</time>
      </trkpt>
      <trkpt lat="36.6976089477539" lon="-5.01838397979736">
        <ele>1635.6884765625</ele>
        <time>2018-07-28T07:53:16Z</time>
      </trkpt>
      <trkpt lat="36.6976089477539" lon="-5.01838493347168">
        <ele>1635.69995117188</ele>
        <time>2018-07-28T07:53:17Z</time>
      </trkpt>
      <trkpt lat="36.6976127624512" lon="-5.01838779449463">
        <ele>1635.59948730469</ele>
        <time>2018-07-28T07:53:18Z</time>
      </trkpt>
      <trkpt lat="36.6976165771484" lon="-5.01839780807495">
        <ele>1635.58618164062</ele>
        <time>2018-07-28T07:53:19Z</time>
      </trkpt>
      <trkpt lat="36.6976203918457" lon="-5.01841115951538">
        <ele>1635.61437988281</ele>
        <time>2018-07-28T07:53:20Z</time>
      </trkpt>
      <trkpt lat="36.697624206543" lon="-5.01842308044434">
        <ele>1635.62622070312</ele>
        <time>2018-07-28T07:53:21Z</time>
      </trkpt>
      <trkpt lat="36.6976318359375" lon="-5.01843309402466">
        <ele>1635.48278808594</ele>
        <time>2018-07-28T07:53:22Z</time>
      </trkpt>
      <trkpt lat="36.6976356506348" lon="-5.01844215393066">
        <ele>1635.4619140625</ele>
        <time>2018-07-28T07:53:23Z</time>
      </trkpt>
      <trkpt lat="36.697639465332" lon="-5.01844787597656">
        <ele>1635.400390625</ele>
        <time>2018-07-28T07:53:24Z</time>
      </trkpt>
      <trkpt lat="36.697639465332" lon="-5.01844882965088">
        <ele>1635.412109375</ele>
        <time>2018-07-28T07:53:25Z</time>
      </trkpt>
      <trkpt lat="36.697639465332" lon="-5.0184497833252">
        <ele>1635.42395019531</ele>
        <time>2018-07-28T07:53:26Z</time>
      </trkpt>
      <trkpt lat="36.6976356506348" lon="-5.01845216751099">
        <ele>1635.58569335938</ele>
        <time>2018-07-28T07:53:27Z</time>
      </trkpt>
      <trkpt lat="36.6976356506348" lon="-5.01845693588257">
        <ele>1635.64465332031</ele>
        <time>2018-07-28T07:53:28Z</time>
      </trkpt>
      <trkpt lat="36.697639465332" lon="-5.01846218109131">
        <ele>1635.57775878906</ele>
        <time>2018-07-28T07:53:29Z</time>
      </trkpt>
      <trkpt lat="36.6976470947266" lon="-5.01846981048584">
        <ele>1635.40979003906</ele>
        <time>2018-07-28T07:53:30Z</time>
      </trkpt>
      <trkpt lat="36.6976547241211" lon="-5.0184760093689">
        <ele>1635.22509765625</ele>
        <time>2018-07-28T07:53:31Z</time>
      </trkpt>
      <trkpt lat="36.6976661682129" lon="-5.0184850692749">
        <ele>1634.94714355469</ele>
        <time>2018-07-28T07:53:32Z</time>
      </trkpt>
      <trkpt lat="36.6976737976074" lon="-5.01849222183228">
        <ele>1634.77734375</ele>
        <time>2018-07-28T07:53:33Z</time>
      </trkpt>
      <trkpt lat="36.697681427002" lon="-5.01849985122681">
        <ele>1634.61499023438</ele>
        <time>2018-07-28T07:53:34Z</time>
      </trkpt>
      <trkpt lat="36.6976890563965" lon="-5.0185079574585">
        <ele>1634.46020507812</ele>
        <time>2018-07-28T07:53:35Z</time>
      </trkpt>
      <trkpt lat="36.6976890563965" lon="-5.01851511001587">
        <ele>1634.55310058594</ele>
        <time>2018-07-28T07:53:36Z</time>
      </trkpt>
      <trkpt lat="36.697696685791" lon="-5.01851892471314">
        <ele>1634.34423828125</ele>
        <time>2018-07-28T07:53:37Z</time>
      </trkpt>
      <trkpt lat="36.6977081298828" lon="-5.01851511001587">
        <ele>1633.90637207031</ele>
        <time>2018-07-28T07:53:38Z</time>
      </trkpt>
      <trkpt lat="36.6977157592773" lon="-5.01850700378418">
        <ele>1633.53991699219</ele>
        <time>2018-07-28T07:53:39Z</time>
      </trkpt>
      <trkpt lat="36.6977233886719" lon="-5.01849985122681">
        <ele>1633.18493652344</ele>
        <time>2018-07-28T07:53:40Z</time>
      </trkpt>
      <trkpt lat="36.6977272033691" lon="-5.01849699020386">
        <ele>1633.01647949219</ele>
        <time>2018-07-28T07:53:41Z</time>
      </trkpt>
      <trkpt lat="36.6977310180664" lon="-5.01849412918091">
        <ele>1632.84790039062</ele>
        <time>2018-07-28T07:53:42Z</time>
      </trkpt>
      <trkpt lat="36.6977386474609" lon="-5.01848983764648">
        <ele>1632.52917480469</ele>
        <time>2018-07-28T07:53:43Z</time>
      </trkpt>
      <trkpt lat="36.6977424621582" lon="-5.01848793029785">
        <ele>1632.37280273438</ele>
        <time>2018-07-28T07:53:44Z</time>
      </trkpt>
      <trkpt lat="36.6977500915527" lon="-5.01848602294922">
        <ele>1632.08569335938</ele>
        <time>2018-07-28T07:53:45Z</time>
      </trkpt>
      <trkpt lat="36.6977577209473" lon="-5.01848411560059">
        <ele>1631.79821777344</ele>
        <time>2018-07-28T07:53:46Z</time>
      </trkpt>
      <trkpt lat="36.6977653503418" lon="-5.01847982406616">
        <ele>1631.47729492188</ele>
        <time>2018-07-28T07:53:47Z</time>
      </trkpt>
      <trkpt lat="36.6977729797363" lon="-5.01847314834595">
        <ele>1631.12243652344</ele>
        <time>2018-07-28T07:53:48Z</time>
      </trkpt>
      <trkpt lat="36.6977806091309" lon="-5.01846694946289">
        <ele>1630.77307128906</ele>
        <time>2018-07-28T07:53:49Z</time>
      </trkpt>
      <trkpt lat="36.6977844238281" lon="-5.01845979690552">
        <ele>1630.54089355469</ele>
        <time>2018-07-28T07:53:50Z</time>
      </trkpt>
      <trkpt lat="36.6977882385254" lon="-5.0184531211853">
        <ele>1630.31481933594</ele>
        <time>2018-07-28T07:53:51Z</time>
      </trkpt>
      <trkpt lat="36.6977844238281" lon="-5.0184440612793">
        <ele>1630.31945800781</ele>
        <time>2018-07-28T07:53:52Z</time>
      </trkpt>
      <trkpt lat="36.6977844238281" lon="-5.01843786239624">
        <ele>1630.23217773438</ele>
        <time>2018-07-28T07:53:53Z</time>
      </trkpt>
      <trkpt lat="36.6977844238281" lon="-5.01843214035034">
        <ele>1630.15161132812</ele>
        <time>2018-07-28T07:53:54Z</time>
      </trkpt>
      <trkpt lat="36.6977806091309" lon="-5.0184268951416">
        <ele>1630.2109375</ele>
        <time>2018-07-28T07:53:55Z</time>
      </trkpt>
      <trkpt lat="36.6977806091309" lon="-5.01842308044434">
        <ele>1630.15747070312</ele>
        <time>2018-07-28T07:53:56Z</time>
      </trkpt>
      <trkpt lat="36.6977767944336" lon="-5.01841688156128">
        <ele>1630.2041015625</ele>
        <time>2018-07-28T07:53:57Z</time>
      </trkpt>
      <trkpt lat="36.6977767944336" lon="-5.01841020584106">
        <ele>1630.11071777344</ele>
        <time>2018-07-28T07:53:58Z</time>
      </trkpt>
      <trkpt lat="36.6977767944336" lon="-5.01840019226074">
        <ele>1629.970703125</ele>
        <time>2018-07-28T07:53:59Z</time>
      </trkpt>
      <trkpt lat="36.6977806091309" lon="-5.01839113235474">
        <ele>1629.70910644531</ele>
        <time>2018-07-28T07:54:00Z</time>
      </trkpt>
      <trkpt lat="36.6977767944336" lon="-5.01838111877441">
        <ele>1629.70385742188</ele>
        <time>2018-07-28T07:54:01Z</time>
      </trkpt>
      <trkpt lat="36.6977767944336" lon="-5.01837205886841">
        <ele>1629.5771484375</ele>
        <time>2018-07-28T07:54:02Z</time>
      </trkpt>
      <trkpt lat="36.6977691650391" lon="-5.01836490631104">
        <ele>1629.74890136719</ele>
        <time>2018-07-28T07:54:03Z</time>
      </trkpt>
      <trkpt lat="36.6977691650391" lon="-5.01836013793945">
        <ele>1629.6826171875</ele>
        <time>2018-07-28T07:54:04Z</time>
      </trkpt>
      <trkpt lat="36.6977653503418" lon="-5.01835584640503">
        <ele>1629.75939941406</ele>
        <time>2018-07-28T07:54:05Z</time>
      </trkpt>
      <trkpt lat="36.6977615356445" lon="-5.01835107803345">
        <ele>1629.82983398438</ele>
        <time>2018-07-28T07:54:06Z</time>
      </trkpt>
      <trkpt lat="36.6977577209473" lon="-5.01834583282471">
        <ele>1629.89416503906</ele>
        <time>2018-07-28T07:54:07Z</time>
      </trkpt>
      <trkpt lat="36.6977577209473" lon="-5.01834297180176">
        <ele>1629.85473632812</ele>
        <time>2018-07-28T07:54:08Z</time>
      </trkpt>
      <trkpt lat="36.6977615356445" lon="-5.0183367729187">
        <ele>1629.63220214844</ele>
        <time>2018-07-28T07:54:09Z</time>
      </trkpt>
      <trkpt lat="36.6977653503418" lon="-5.0183310508728">
        <ele>1629.4423828125</ele>
        <time>2018-07-28T07:54:10Z</time>
      </trkpt>
      <trkpt lat="36.6977653503418" lon="-5.01831912994385">
        <ele>1629.41638183594</ele>
        <time>2018-07-28T07:54:11Z</time>
      </trkpt>
      <trkpt lat="36.6977653503418" lon="-5.01831102371216">
        <ele>1629.39880371094</ele>
        <time>2018-07-28T07:54:12Z</time>
      </trkpt>
      <trkpt lat="36.6977691650391" lon="-5.01830387115478">
        <ele>1629.24743652344</ele>
        <time>2018-07-28T07:54:13Z</time>
      </trkpt>
      <trkpt lat="36.6977691650391" lon="-5.01830101013184">
        <ele>1629.24145507812</ele>
        <time>2018-07-28T07:54:14Z</time>
      </trkpt>
      <trkpt lat="36.6977691650391" lon="-5.01829719543457">
        <ele>1629.23327636719</ele>
        <time>2018-07-28T07:54:15Z</time>
      </trkpt>
      <trkpt lat="36.6977729797363" lon="-5.01829290390015">
        <ele>1629.08911132812</ele>
        <time>2018-07-28T07:54:16Z</time>
      </trkpt>
      <trkpt lat="36.6977767944336" lon="-5.01829099655151">
        <ele>1628.95007324219</ele>
        <time>2018-07-28T07:54:17Z</time>
      </trkpt>
      <trkpt lat="36.6977767944336" lon="-5.01828718185425">
        <ele>1628.94250488281</ele>
        <time>2018-07-28T07:54:18Z</time>
      </trkpt>
      <trkpt lat="36.6977729797363" lon="-5.01828193664551">
        <ele>1629.06640625</ele>
        <time>2018-07-28T07:54:19Z</time>
      </trkpt>
      <trkpt lat="36.6977729797363" lon="-5.01827812194824">
        <ele>1629.05847167969</ele>
        <time>2018-07-28T07:54:20Z</time>
      </trkpt>
      <trkpt lat="36.6977729797363" lon="-5.01827621459961">
        <ele>1629.05456542969</ele>
        <time>2018-07-28T07:54:21Z</time>
      </trkpt>
      <trkpt lat="36.6977691650391" lon="-5.01827621459961">
        <ele>1629.18872070312</ele>
        <time>2018-07-28T07:54:22Z</time>
      </trkpt>
      <trkpt lat="36.6977691650391" lon="-5.01827383041382">
        <ele>1629.18371582031</ele>
        <time>2018-07-28T07:54:23Z</time>
      </trkpt>
      <trkpt lat="36.6977767944336" lon="-5.01827383041382">
        <ele>1628.91552734375</ele>
        <time>2018-07-28T07:54:24Z</time>
      </trkpt>
      <trkpt lat="36.6977806091309" lon="-5.01827383041382">
        <ele>1628.78149414062</ele>
        <time>2018-07-28T07:54:25Z</time>
      </trkpt>
      <trkpt lat="36.6977844238281" lon="-5.01827621459961">
        <ele>1628.65197753906</ele>
        <time>2018-07-28T07:54:26Z</time>
      </trkpt>
      <trkpt lat="36.6977882385254" lon="-5.01827478408814">
        <ele>1628.51513671875</ele>
        <time>2018-07-28T07:54:27Z</time>
      </trkpt>
      <trkpt lat="36.6977920532227" lon="-5.01827383041382">
        <ele>1628.37927246094</ele>
        <time>2018-07-28T07:54:28Z</time>
      </trkpt>
      <trkpt lat="36.6977920532227" lon="-5.01827192306519">
        <ele>1628.37585449219</ele>
        <time>2018-07-28T07:54:29Z</time>
      </trkpt>
      <trkpt lat="36.6977958679199" lon="-5.01827001571655">
        <ele>1628.23864746094</ele>
        <time>2018-07-28T07:54:30Z</time>
      </trkpt>
      <trkpt lat="36.6977958679199" lon="-5.01826906204224">
        <ele>1628.23693847656</ele>
        <time>2018-07-28T07:54:31Z</time>
      </trkpt>
      <trkpt lat="36.6977996826172" lon="-5.0182671546936">
        <ele>1628.09997558594</ele>
        <time>2018-07-28T07:54:32Z</time>
      </trkpt>
      <trkpt lat="36.6977996826172" lon="-5.01826477050781">
        <ele>1628.09594726562</ele>
        <time>2018-07-28T07:54:33Z</time>
      </trkpt>
      <trkpt lat="36.6978034973144" lon="-5.01826190948486">
        <ele>1627.95764160156</ele>
        <time>2018-07-28T07:54:34Z</time>
      </trkpt>
      <trkpt lat="36.697811126709" lon="-5.01826095581055">
        <ele>1627.689453125</ele>
        <time>2018-07-28T07:54:35Z</time>
      </trkpt>
      <trkpt lat="36.6978187561035" lon="-5.01825904846191">
        <ele>1627.42004394531</ele>
        <time>2018-07-28T07:54:36Z</time>
      </trkpt>
      <trkpt lat="36.6978302001953" lon="-5.01825618743896">
        <ele>1627.01672363281</ele>
        <time>2018-07-28T07:54:37Z</time>
      </trkpt>
      <trkpt lat="36.6978378295898" lon="-5.01825284957886">
        <ele>1626.74682617188</ele>
        <time>2018-07-28T07:54:38Z</time>
      </trkpt>
      <trkpt lat="36.6978416442871" lon="-5.01824998855591">
        <ele>1626.61071777344</ele>
        <time>2018-07-28T07:54:39Z</time>
      </trkpt>
      <trkpt lat="36.6978530883789" lon="-5.01824903488159">
        <ele>1626.21166992188</ele>
        <time>2018-07-28T07:54:40Z</time>
      </trkpt>
      <trkpt lat="36.6978607177734" lon="-5.01824998855591">
        <ele>1625.94702148438</ele>
        <time>2018-07-28T07:54:41Z</time>
      </trkpt>
      <trkpt lat="36.6978721618652" lon="-5.01824903488159">
        <ele>1625.54809570312</ele>
        <time>2018-07-28T07:54:42Z</time>
      </trkpt>
      <trkpt lat="36.6978721618652" lon="-5.01824378967285">
        <ele>1625.54479980469</ele>
        <time>2018-07-28T07:54:43Z</time>
      </trkpt>
      <trkpt lat="36.6978721618652" lon="-5.01823806762695">
        <ele>1625.54113769531</ele>
        <time>2018-07-28T07:54:44Z</time>
      </trkpt>
      <trkpt lat="36.6978721618652" lon="-5.01823282241821">
        <ele>1625.53771972656</ele>
        <time>2018-07-28T07:54:45Z</time>
      </trkpt>
      <trkpt lat="36.6978759765625" lon="-5.01822805404663">
        <ele>1625.40319824219</ele>
        <time>2018-07-28T07:54:46Z</time>
      </trkpt>
      <trkpt lat="36.6978759765625" lon="-5.01822280883789">
        <ele>1625.40002441406</ele>
        <time>2018-07-28T07:54:47Z</time>
      </trkpt>
      <trkpt lat="36.6978759765625" lon="-5.01821613311768">
        <ele>1625.39611816406</ele>
        <time>2018-07-28T07:54:48Z</time>
      </trkpt>
      <trkpt lat="36.6978797912598" lon="-5.01820993423462">
        <ele>1625.26196289062</ele>
        <time>2018-07-28T07:54:49Z</time>
      </trkpt>
      <trkpt lat="36.6978759765625" lon="-5.01820182800293">
        <ele>1625.38781738281</ele>
        <time>2018-07-28T07:54:50Z</time>
      </trkpt>
      <trkpt lat="36.6978759765625" lon="-5.01819610595703">
        <ele>1625.38439941406</ele>
        <time>2018-07-28T07:54:51Z</time>
      </trkpt>
      <trkpt lat="36.6978721618652" lon="-5.01818990707397">
        <ele>1625.51025390625</ele>
        <time>2018-07-28T07:54:52Z</time>
      </trkpt>
      <trkpt lat="36.697868347168" lon="-5.01818799972534">
        <ele>1625.63842773438</ele>
        <time>2018-07-28T07:54:53Z</time>
      </trkpt>
      <trkpt lat="36.6978645324707" lon="-5.01818704605103">
        <ele>1625.76696777344</ele>
        <time>2018-07-28T07:54:54Z</time>
      </trkpt>
      <trkpt lat="36.6978569030762" lon="-5.01818704605103">
        <ele>1626.02563476562</ele>
        <time>2018-07-28T07:54:55Z</time>
      </trkpt>
      <trkpt lat="36.6978492736816" lon="-5.01818513870239">
        <ele>1626.28234863281</ele>
        <time>2018-07-28T07:54:56Z</time>
      </trkpt>
      <trkpt lat="36.6978454589844" lon="-5.01817989349365">
        <ele>1626.40612792969</ele>
        <time>2018-07-28T07:54:57Z</time>
      </trkpt>
      <trkpt lat="36.6978416442871" lon="-5.01817417144775">
        <ele>1626.52880859375</ele>
        <time>2018-07-28T07:54:58Z</time>
      </trkpt>
      <trkpt lat="36.6978378295898" lon="-5.0181679725647">
        <ele>1626.650390625</ele>
        <time>2018-07-28T07:54:59Z</time>
      </trkpt>
      <trkpt lat="36.6978378295898" lon="-5.01816082000732">
        <ele>1626.64233398438</ele>
        <time>2018-07-28T07:55:00Z</time>
      </trkpt>
      <trkpt lat="36.6978378295898" lon="-5.01815319061279">
        <ele>1626.63366699219</ele>
        <time>2018-07-28T07:55:01Z</time>
      </trkpt>
      <trkpt lat="36.6978340148926" lon="-5.01814079284668">
        <ele>1626.74633789062</ele>
        <time>2018-07-28T07:55:02Z</time>
      </trkpt>
      <trkpt lat="36.6978302001953" lon="-5.01812982559204">
        <ele>1626.859375</ele>
        <time>2018-07-28T07:55:03Z</time>
      </trkpt>
      <trkpt lat="36.697826385498" lon="-5.0181188583374">
        <ele>1626.97131347656</ele>
        <time>2018-07-28T07:55:04Z</time>
      </trkpt>
      <trkpt lat="36.6978225708008" lon="-5.0181097984314">
        <ele>1627.08459472656</ele>
        <time>2018-07-28T07:55:05Z</time>
      </trkpt>
      <trkpt lat="36.6978187561035" lon="-5.01810121536255">
        <ele>1627.19750976562</ele>
        <time>2018-07-28T07:55:06Z</time>
      </trkpt>
      <trkpt lat="36.697811126709" lon="-5.01809310913086">
        <ele>1627.43432617188</ele>
        <time>2018-07-28T07:55:07Z</time>
      </trkpt>
      <trkpt lat="36.6978073120117" lon="-5.01808500289917">
        <ele>1627.54577636719</ele>
        <time>2018-07-28T07:55:08Z</time>
      </trkpt>
      <trkpt lat="36.6977996826172" lon="-5.01807594299316">
        <ele>1627.77783203125</ele>
        <time>2018-07-28T07:55:09Z</time>
      </trkpt>
      <trkpt lat="36.6977996826172" lon="-5.01806783676147">
        <ele>1627.76416015625</ele>
        <time>2018-07-28T07:55:10Z</time>
      </trkpt>
      <trkpt lat="36.6978034973144" lon="-5.01805877685547">
        <ele>1627.62670898438</ele>
        <time>2018-07-28T07:55:11Z</time>
      </trkpt>
      <trkpt lat="36.6978034973144" lon="-5.01805114746094">
        <ele>1627.6142578125</ele>
        <time>2018-07-28T07:55:12Z</time>
      </trkpt>
      <trkpt lat="36.6977996826172" lon="-5.01804113388062">
        <ele>1627.71923828125</ele>
        <time>2018-07-28T07:55:13Z</time>
      </trkpt>
      <trkpt lat="36.6977920532227" lon="-5.01803207397461">
        <ele>1627.94543457031</ele>
        <time>2018-07-28T07:55:14Z</time>
      </trkpt>
      <trkpt lat="36.6977920532227" lon="-5.01802396774292">
        <ele>1627.93090820312</ele>
        <time>2018-07-28T07:55:15Z</time>
      </trkpt>
      <trkpt lat="36.6977920532227" lon="-5.01801776885986">
        <ele>1627.91979980469</ele>
        <time>2018-07-28T07:55:16Z</time>
      </trkpt>
      <trkpt lat="36.6977958679199" lon="-5.01801109313965">
        <ele>1627.78820800781</ele>
        <time>2018-07-28T07:55:17Z</time>
      </trkpt>
      <trkpt lat="36.6977996826172" lon="-5.01800584793091">
        <ele>1627.65979003906</ele>
        <time>2018-07-28T07:55:18Z</time>
      </trkpt>
      <trkpt lat="36.6978034973144" lon="-5.01800012588501">
        <ele>1627.53112792969</ele>
        <time>2018-07-28T07:55:19Z</time>
      </trkpt>
      <trkpt lat="36.6978034973144" lon="-5.01799583435059">
        <ele>1627.52404785156</ele>
        <time>2018-07-28T07:55:20Z</time>
      </trkpt>
      <trkpt lat="36.6978034973144" lon="-5.01799297332764">
        <ele>1627.51940917969</ele>
        <time>2018-07-28T07:55:21Z</time>
      </trkpt>
      <trkpt lat="36.6978073120117" lon="-5.01798915863037">
        <ele>1627.39477539062</ele>
        <time>2018-07-28T07:55:22Z</time>
      </trkpt>
      <trkpt lat="36.697811126709" lon="-5.01798295974731">
        <ele>1627.26696777344</ele>
        <time>2018-07-28T07:55:23Z</time>
      </trkpt>
      <trkpt lat="36.6978149414062" lon="-5.01797819137573">
        <ele>1627.14184570312</ele>
        <time>2018-07-28T07:55:24Z</time>
      </trkpt>
      <trkpt lat="36.6978187561035" lon="-5.01797389984131">
        <ele>1627.01806640625</ele>
        <time>2018-07-28T07:55:25Z</time>
      </trkpt>
      <trkpt lat="36.697826385498" lon="-5.01797103881836">
        <ele>1626.77917480469</ele>
        <time>2018-07-28T07:55:26Z</time>
      </trkpt>
      <trkpt lat="36.697826385498" lon="-5.01796722412109">
        <ele>1626.77416992188</ele>
        <time>2018-07-28T07:55:27Z</time>
      </trkpt>
      <trkpt lat="36.6978340148926" lon="-5.01796388626099">
        <ele>1626.53576660156</ele>
        <time>2018-07-28T07:55:28Z</time>
      </trkpt>
      <trkpt lat="36.6978378295898" lon="-5.01795816421509">
        <ele>1626.41223144531</ele>
        <time>2018-07-28T07:55:29Z</time>
      </trkpt>
      <trkpt lat="36.6978378295898" lon="-5.01795291900635">
        <ele>1626.40625</ele>
        <time>2018-07-28T07:55:30Z</time>
      </trkpt>
      <trkpt lat="36.6978416442871" lon="-5.01794719696045">
        <ele>1626.28369140625</ele>
        <time>2018-07-28T07:55:31Z</time>
      </trkpt>
      <trkpt lat="36.6978416442871" lon="-5.01794099807739">
        <ele>1626.27697753906</ele>
        <time>2018-07-28T07:55:32Z</time>
      </trkpt>
      <trkpt lat="36.6978492736816" lon="-5.01793718338013">
        <ele>1626.04174804688</ele>
        <time>2018-07-28T07:55:33Z</time>
      </trkpt>
      <trkpt lat="36.6978530883789" lon="-5.01793193817139">
        <ele>1625.92138671875</ele>
        <time>2018-07-28T07:55:34Z</time>
      </trkpt>
      <trkpt lat="36.6978569030762" lon="-5.0179271697998">
        <ele>1625.80200195312</ele>
        <time>2018-07-28T07:55:35Z</time>
      </trkpt>
      <trkpt lat="36.6978569030762" lon="-5.01792192459106">
        <ele>1625.79748535156</ele>
        <time>2018-07-28T07:55:36Z</time>
      </trkpt>
      <trkpt lat="36.6978492736816" lon="-5.01791381835938">
        <ele>1626.01904296875</ele>
        <time>2018-07-28T07:55:37Z</time>
      </trkpt>
      <trkpt lat="36.6978492736816" lon="-5.01790618896484">
        <ele>1626.01159667969</ele>
        <time>2018-07-28T07:55:38Z</time>
      </trkpt>
      <trkpt lat="36.6978454589844" lon="-5.01789712905884">
        <ele>1626.1162109375</ele>
        <time>2018-07-28T07:55:39Z</time>
      </trkpt>
      <trkpt lat="36.6978492736816" lon="-5.01788902282715">
        <ele>1625.99499511719</ele>
        <time>2018-07-28T07:55:40Z</time>
      </trkpt>
      <trkpt lat="36.6978492736816" lon="-5.01788520812988">
        <ele>1625.9912109375</ele>
        <time>2018-07-28T07:55:41Z</time>
      </trkpt>
      <trkpt lat="36.6978530883789" lon="-5.01788187026978">
        <ele>1625.87548828125</ele>
        <time>2018-07-28T07:55:42Z</time>
      </trkpt>
      <trkpt lat="36.6978530883789" lon="-5.01787900924683">
        <ele>1625.87292480469</ele>
        <time>2018-07-28T07:55:43Z</time>
      </trkpt>
      <trkpt lat="36.6978492736816" lon="-5.01787805557251">
        <ele>1625.984375</ele>
        <time>2018-07-28T07:55:44Z</time>
      </trkpt>
      <trkpt lat="36.6978492736816" lon="-5.01787900924683">
        <ele>1625.98522949219</ele>
        <time>2018-07-28T07:55:45Z</time>
      </trkpt>
      <trkpt lat="36.6978569030762" lon="-5.01787996292114">
        <ele>1625.76135253906</ele>
        <time>2018-07-28T07:55:46Z</time>
      </trkpt>
      <trkpt lat="36.6978645324707" lon="-5.01788187026978">
        <ele>1625.53796386719</ele>
        <time>2018-07-28T07:55:47Z</time>
      </trkpt>
      <trkpt lat="36.697868347168" lon="-5.01788282394409">
        <ele>1625.42602539062</ele>
        <time>2018-07-28T07:55:48Z</time>
      </trkpt>
      <trkpt lat="36.6978759765625" lon="-5.01788520812988">
        <ele>1625.20227050781</ele>
        <time>2018-07-28T07:55:49Z</time>
      </trkpt>
      <trkpt lat="36.6978797912598" lon="-5.01788806915283">
        <ele>1625.09106445312</ele>
        <time>2018-07-28T07:55:50Z</time>
      </trkpt>
      <trkpt lat="36.6978874206543" lon="-5.0178918838501">
        <ele>1624.86694335938</ele>
        <time>2018-07-28T07:55:51Z</time>
      </trkpt>
      <trkpt lat="36.6978950500488" lon="-5.0178952217102">
        <ele>1624.64184570312</ele>
        <time>2018-07-28T07:55:52Z</time>
      </trkpt>
      <trkpt lat="36.6979026794434" lon="-5.01789712905884">
        <ele>1624.41564941406</ele>
        <time>2018-07-28T07:55:53Z</time>
      </trkpt>
      <trkpt lat="36.6979103088379" lon="-5.01789808273315">
        <ele>1624.18908691406</ele>
        <time>2018-07-28T07:55:54Z</time>
      </trkpt>
      <trkpt lat="36.6979103088379" lon="-5.01789808273315">
        <ele>1624.18908691406</ele>
        <time>2018-07-28T07:55:55Z</time>
      </trkpt>
      <trkpt lat="36.6979141235352" lon="-5.01789999008179">
        <ele>1624.07568359375</ele>
        <time>2018-07-28T07:55:56Z</time>
      </trkpt>
      <trkpt lat="36.6979141235352" lon="-5.0179009437561">
        <ele>1624.07568359375</ele>
        <time>2018-07-28T07:55:57Z</time>
      </trkpt>
      <trkpt lat="36.6979179382324" lon="-5.01789999008179">
        <ele>1623.96215820312</ele>
        <time>2018-07-28T07:55:58Z</time>
      </trkpt>
      <trkpt lat="36.6979217529297" lon="-5.01789617538452">
        <ele>1623.84887695312</ele>
        <time>2018-07-28T07:55:59Z</time>
      </trkpt>
      <trkpt lat="36.697925567627" lon="-5.01789283752441">
        <ele>1623.73608398438</ele>
        <time>2018-07-28T07:56:00Z</time>
      </trkpt>
      <trkpt lat="36.6979293823242" lon="-5.01788902282715">
        <ele>1623.62353515625</ele>
        <time>2018-07-28T07:56:01Z</time>
      </trkpt>
      <trkpt lat="36.6979331970215" lon="-5.01788806915283">
        <ele>1623.51086425781</ele>
        <time>2018-07-28T07:56:02Z</time>
      </trkpt>
      <trkpt lat="36.6979446411133" lon="-5.01788711547852">
        <ele>1623.17272949219</ele>
        <time>2018-07-28T07:56:03Z</time>
      </trkpt>
      <trkpt lat="36.6979522705078" lon="-5.01788711547852">
        <ele>1622.94702148438</ele>
        <time>2018-07-28T07:56:04Z</time>
      </trkpt>
      <trkpt lat="36.6979598999023" lon="-5.01788806915283">
        <ele>1622.72082519531</ele>
        <time>2018-07-28T07:56:05Z</time>
      </trkpt>
      <trkpt lat="36.6979675292969" lon="-5.01788806915283">
        <ele>1622.4951171875</ele>
        <time>2018-07-28T07:56:06Z</time>
      </trkpt>
      <trkpt lat="36.6979713439941" lon="-5.01788711547852">
        <ele>1622.38293457031</ele>
        <time>2018-07-28T07:56:07Z</time>
      </trkpt>
      <trkpt lat="36.6979789733887" lon="-5.01788091659546">
        <ele>1622.16284179688</ele>
        <time>2018-07-28T07:56:08Z</time>
      </trkpt>
      <trkpt lat="36.6979827880859" lon="-5.01787376403809">
        <ele>1622.05725097656</ele>
        <time>2018-07-28T07:56:09Z</time>
      </trkpt>
      <trkpt lat="36.6979827880859" lon="-5.01786613464356">
        <ele>1622.064453125</ele>
        <time>2018-07-28T07:56:10Z</time>
      </trkpt>
      <trkpt lat="36.6979789733887" lon="-5.0178599357605">
        <ele>1622.181640625</ele>
        <time>2018-07-28T07:56:11Z</time>
      </trkpt>
      <trkpt lat="36.6979751586914" lon="-5.01785182952881">
        <ele>1622.2998046875</ele>
        <time>2018-07-28T07:56:12Z</time>
      </trkpt>
      <trkpt lat="36.6979713439941" lon="-5.01784706115723">
        <ele>1622.41442871094</ele>
        <time>2018-07-28T07:56:13Z</time>
      </trkpt>
      <trkpt lat="36.6979675292969" lon="-5.01784515380859">
        <ele>1622.52648925781</ele>
        <time>2018-07-28T07:56:14Z</time>
      </trkpt>
      <trkpt lat="36.6979637145996" lon="-5.01784086227417">
        <ele>1622.63989257812</ele>
        <time>2018-07-28T07:56:15Z</time>
      </trkpt>
      <trkpt lat="36.6979484558106" lon="-5.01783514022827">
        <ele>1623.08361816406</ele>
        <time>2018-07-28T07:56:16Z</time>
      </trkpt>
      <trkpt lat="36.6979370117188" lon="-5.0178279876709">
        <ele>1623.41564941406</ele>
        <time>2018-07-28T07:56:17Z</time>
      </trkpt>
      <trkpt lat="36.6979293823242" lon="-5.01782321929932">
        <ele>1623.63562011719</ele>
        <time>2018-07-28T07:56:18Z</time>
      </trkpt>
      <trkpt lat="36.6979293823242" lon="-5.01782083511353">
        <ele>1623.63610839844</ele>
        <time>2018-07-28T07:56:19Z</time>
      </trkpt>
      <trkpt lat="36.6979293823242" lon="-5.01781797409058">
        <ele>1623.63659667969</ele>
        <time>2018-07-28T07:56:20Z</time>
      </trkpt>
      <trkpt lat="36.6979293823242" lon="-5.01781702041626">
        <ele>1623.63671875</ele>
        <time>2018-07-28T07:56:21Z</time>
      </trkpt>
      <trkpt lat="36.697925567627" lon="-5.01781511306763">
        <ele>1623.74597167969</ele>
        <time>2018-07-28T07:56:22Z</time>
      </trkpt>
      <trkpt lat="36.6979293823242" lon="-5.01781797409058">
        <ele>1623.63659667969</ele>
        <time>2018-07-28T07:56:23Z</time>
      </trkpt>
      <trkpt lat="36.6979331970215" lon="-5.01782178878784">
        <ele>1623.52673339844</ele>
        <time>2018-07-28T07:56:24Z</time>
      </trkpt>
      <trkpt lat="36.6979331970215" lon="-5.01782703399658">
        <ele>1623.525390625</ele>
        <time>2018-07-28T07:56:25Z</time>
      </trkpt>
      <trkpt lat="36.6979331970215" lon="-5.01783084869385">
        <ele>1623.52453613281</ele>
        <time>2018-07-28T07:56:26Z</time>
      </trkpt>
      <trkpt lat="36.6979331970215" lon="-5.01783514022827">
        <ele>1623.5234375</ele>
        <time>2018-07-28T07:56:27Z</time>
      </trkpt>
      <trkpt lat="36.6979331970215" lon="-5.01783895492554">
        <ele>1623.52258300781</ele>
        <time>2018-07-28T07:56:28Z</time>
      </trkpt>
      <trkpt lat="36.6979293823242" lon="-5.01783990859985">
        <ele>1623.63256835938</ele>
        <time>2018-07-28T07:56:29Z</time>
      </trkpt>
      <trkpt lat="36.6979293823242" lon="-5.01783990859985">
        <ele>1623.63256835938</ele>
        <time>2018-07-28T07:56:30Z</time>
      </trkpt>
      <trkpt lat="36.6979293823242" lon="-5.01784086227417">
        <ele>1623.63244628906</ele>
        <time>2018-07-28T07:56:31Z</time>
      </trkpt>
      <trkpt lat="36.6979331970215" lon="-5.01784420013428">
        <ele>1623.52136230469</ele>
        <time>2018-07-28T07:56:32Z</time>
      </trkpt>
      <trkpt lat="36.6979446411133" lon="-5.01784992218018">
        <ele>1623.18762207031</ele>
        <time>2018-07-28T07:56:33Z</time>
      </trkpt>
      <trkpt lat="36.6979522705078" lon="-5.01785612106323">
        <ele>1622.962890625</ele>
        <time>2018-07-28T07:56:34Z</time>
      </trkpt>
      <trkpt lat="36.6979598999023" lon="-5.01786279678345">
        <ele>1622.73657226562</ele>
        <time>2018-07-28T07:56:35Z</time>
      </trkpt>
      <trkpt lat="36.6979675292969" lon="-5.01786994934082">
        <ele>1622.50830078125</ele>
        <time>2018-07-28T07:56:36Z</time>
      </trkpt>
      <trkpt lat="36.6979713439941" lon="-5.01787519454956">
        <ele>1622.39233398438</ele>
        <time>2018-07-28T07:56:37Z</time>
      </trkpt>
      <trkpt lat="36.6979789733887" lon="-5.01787996292114">
        <ele>1622.16369628906</ele>
        <time>2018-07-28T07:56:38Z</time>
      </trkpt>
      <trkpt lat="36.6979827880859" lon="-5.01788520812988">
        <ele>1622.04626464844</ele>
        <time>2018-07-28T07:56:39Z</time>
      </trkpt>
      <trkpt lat="36.6979866027832" lon="-5.01789093017578">
        <ele>1621.92785644531</ele>
        <time>2018-07-28T07:56:40Z</time>
      </trkpt>
      <trkpt lat="36.6979942321777" lon="-5.01789283752441">
        <ele>1621.69970703125</ele>
        <time>2018-07-28T07:56:41Z</time>
      </trkpt>
      <trkpt lat="36.697998046875" lon="-5.01788902282715">
        <ele>1621.59094238281</ele>
        <time>2018-07-28T07:56:42Z</time>
      </trkpt>
      <trkpt lat="36.6980018615723" lon="-5.01788377761841">
        <ele>1621.48449707031</ele>
        <time>2018-07-28T07:56:43Z</time>
      </trkpt>
      <trkpt lat="36.6980018615723" lon="-5.01788091659546">
        <ele>1621.48803710938</ele>
        <time>2018-07-28T07:56:44Z</time>
      </trkpt>
      <trkpt lat="36.697998046875" lon="-5.01788091659546">
        <ele>1621.60046386719</ele>
        <time>2018-07-28T07:56:45Z</time>
      </trkpt>
      <trkpt lat="36.697998046875" lon="-5.01787996292114">
        <ele>1621.6015625</ele>
        <time>2018-07-28T07:56:46Z</time>
      </trkpt>
      <trkpt lat="36.6980018615723" lon="-5.01787519454956">
        <ele>1621.49499511719</ele>
        <time>2018-07-28T07:56:47Z</time>
      </trkpt>
      <trkpt lat="36.6980018615723" lon="-5.01786804199219">
        <ele>1621.50378417969</ele>
        <time>2018-07-28T07:56:48Z</time>
      </trkpt>
      <trkpt lat="36.6980056762695" lon="-5.01786184310913">
        <ele>1621.40002441406</ele>
        <time>2018-07-28T07:56:49Z</time>
      </trkpt>
      <trkpt lat="36.6980094909668" lon="-5.01786088943481">
        <ele>1621.28979492188</ele>
        <time>2018-07-28T07:56:50Z</time>
      </trkpt>
      <trkpt lat="36.6980094909668" lon="-5.01786422729492">
        <ele>1621.28540039062</ele>
        <time>2018-07-28T07:56:51Z</time>
      </trkpt>
      <trkpt lat="36.6980133056641" lon="-5.01787281036377">
        <ele>1621.16186523438</ele>
        <time>2018-07-28T07:56:52Z</time>
      </trkpt>
      <trkpt lat="36.6980209350586" lon="-5.01788377761841">
        <ele>1620.92138671875</ele>
        <time>2018-07-28T07:56:53Z</time>
      </trkpt>
      <trkpt lat="36.6980285644531" lon="-5.01789712905884">
        <ele>1620.67456054688</ele>
        <time>2018-07-28T07:56:54Z</time>
      </trkpt>
      <trkpt lat="36.6980400085449" lon="-5.01790809631348">
        <ele>1620.31494140625</ele>
        <time>2018-07-28T07:56:55Z</time>
      </trkpt>
      <trkpt lat="36.698055267334" lon="-5.01791906356812">
        <ele>1619.83715820312</ele>
        <time>2018-07-28T07:56:56Z</time>
      </trkpt>
      <trkpt lat="36.6980628967285" lon="-5.01792812347412">
        <ele>1619.58898925781</ele>
        <time>2018-07-28T07:56:57Z</time>
      </trkpt>
      <trkpt lat="36.6980743408203" lon="-5.01793718338013">
        <ele>1619.22314453125</ele>
        <time>2018-07-28T07:56:58Z</time>
      </trkpt>
      <trkpt lat="36.6980819702148" lon="-5.01794815063477">
        <ele>1618.96594238281</ele>
        <time>2018-07-28T07:56:59Z</time>
      </trkpt>
      <trkpt lat="36.6980857849121" lon="-5.01796007156372">
        <ele>1618.82080078125</ele>
        <time>2018-07-28T07:57:00Z</time>
      </trkpt>
      <trkpt lat="36.6980934143066" lon="-5.01797294616699">
        <ele>1618.55432128906</ele>
        <time>2018-07-28T07:57:01Z</time>
      </trkpt>
      <trkpt lat="36.6981048583984" lon="-5.01798486709595">
        <ele>1618.16943359375</ele>
        <time>2018-07-28T07:57:02Z</time>
      </trkpt>
      <trkpt lat="36.6981163024902" lon="-5.01799488067627">
        <ele>1617.7861328125</ele>
        <time>2018-07-28T07:57:03Z</time>
      </trkpt>
      <trkpt lat="36.6981239318848" lon="-5.01800394058228">
        <ele>1617.52160644531</ele>
        <time>2018-07-28T07:57:04Z</time>
      </trkpt>
      <trkpt lat="36.698127746582" lon="-5.01801013946533">
        <ele>1617.38354492188</ele>
        <time>2018-07-28T07:57:05Z</time>
      </trkpt>
      <trkpt lat="36.6981315612793" lon="-5.01801490783691">
        <ele>1617.24914550781</ele>
        <time>2018-07-28T07:57:06Z</time>
      </trkpt>
      <trkpt lat="36.6981353759766" lon="-5.01801919937134">
        <ele>1617.11584472656</ele>
        <time>2018-07-28T07:57:07Z</time>
      </trkpt>
      <trkpt lat="36.6981468200684" lon="-5.0180230140686">
        <ele>1616.74291992188</ele>
        <time>2018-07-28T07:57:08Z</time>
      </trkpt>
      <trkpt lat="36.6981544494629" lon="-5.01802778244019">
        <ele>1616.48608398438</ele>
        <time>2018-07-28T07:57:09Z</time>
      </trkpt>
      <trkpt lat="36.6981620788574" lon="-5.01803207397461">
        <ele>1616.22973632812</ele>
        <time>2018-07-28T07:57:10Z</time>
      </trkpt>
      <trkpt lat="36.698169708252" lon="-5.01803398132324">
        <ele>1615.98132324219</ele>
        <time>2018-07-28T07:57:11Z</time>
      </trkpt>
      <trkpt lat="36.6981735229492" lon="-5.01803588867188">
        <ele>1615.85339355469</ele>
        <time>2018-07-28T07:57:12Z</time>
      </trkpt>
      <trkpt lat="36.6981811523438" lon="-5.01803588867188">
        <ele>1615.611328125</ele>
        <time>2018-07-28T07:57:13Z</time>
      </trkpt>
      <trkpt lat="36.6981887817383" lon="-5.01803779602051">
        <ele>1615.36193847656</ele>
        <time>2018-07-28T07:57:14Z</time>
      </trkpt>
      <trkpt lat="36.6981925964356" lon="-5.0180401802063">
        <ele>1615.23132324219</ele>
        <time>2018-07-28T07:57:15Z</time>
      </trkpt>
      <trkpt lat="36.6981964111328" lon="-5.01804399490356">
        <ele>1615.0947265625</ele>
        <time>2018-07-28T07:57:16Z</time>
      </trkpt>
      <trkpt lat="36.6982002258301" lon="-5.01804780960083">
        <ele>1614.95776367188</ele>
        <time>2018-07-28T07:57:17Z</time>
      </trkpt>
      <trkpt lat="36.6982040405273" lon="-5.01805305480957">
        <ele>1614.81433105469</ele>
        <time>2018-07-28T07:57:18Z</time>
      </trkpt>
      <trkpt lat="36.6982116699219" lon="-5.01805782318115">
        <ele>1614.55029296875</ele>
        <time>2018-07-28T07:57:19Z</time>
      </trkpt>
      <trkpt lat="36.6982192993164" lon="-5.01806592941284">
        <ele>1614.2705078125</ele>
        <time>2018-07-28T07:57:20Z</time>
      </trkpt>
      <trkpt lat="36.6982231140137" lon="-5.01807498931885">
        <ele>1614.10791015625</ele>
        <time>2018-07-28T07:57:21Z</time>
      </trkpt>
      <trkpt lat="36.6982307434082" lon="-5.01808404922485">
        <ele>1613.82067871094</ele>
        <time>2018-07-28T07:57:22Z</time>
      </trkpt>
      <trkpt lat="36.6982383728027" lon="-5.01809310913086">
        <ele>1613.53149414062</ele>
        <time>2018-07-28T07:57:23Z</time>
      </trkpt>
      <trkpt lat="36.6982498168945" lon="-5.01810216903686">
        <ele>1613.11560058594</ele>
        <time>2018-07-28T07:57:24Z</time>
      </trkpt>
      <trkpt lat="36.6982574462891" lon="-5.01810884475708">
        <ele>1612.83349609375</ele>
        <time>2018-07-28T07:57:25Z</time>
      </trkpt>
      <trkpt lat="36.6982650756836" lon="-5.01811504364014">
        <ele>1612.55249023438</ele>
        <time>2018-07-28T07:57:26Z</time>
      </trkpt>
      <trkpt lat="36.6982765197754" lon="-5.0181188583374">
        <ele>1612.15661621094</ele>
        <time>2018-07-28T07:57:27Z</time>
      </trkpt>
      <trkpt lat="36.6982803344727" lon="-5.01812219619751">
        <ele>1612.013671875</ele>
        <time>2018-07-28T07:57:28Z</time>
      </trkpt>
      <trkpt lat="36.6982841491699" lon="-5.01812314987183">
        <ele>1611.8828125</ele>
        <time>2018-07-28T07:57:29Z</time>
      </trkpt>
      <trkpt lat="36.6982879638672" lon="-5.01812505722046">
        <ele>1611.74682617188</ele>
        <time>2018-07-28T07:57:30Z</time>
      </trkpt>
      <trkpt lat="36.698299407959" lon="-5.01812696456909">
        <ele>1611.35876464844</ele>
        <time>2018-07-28T07:57:31Z</time>
      </trkpt>
      <trkpt lat="36.6983108520508" lon="-5.01812887191772">
        <ele>1610.96984863281</ele>
        <time>2018-07-28T07:57:32Z</time>
      </trkpt>
      <trkpt lat="36.6983222961426" lon="-5.01812696456909">
        <ele>1610.60278320312</ele>
        <time>2018-07-28T07:57:33Z</time>
      </trkpt>
      <trkpt lat="36.6983261108398" lon="-5.01812601089478">
        <ele>1610.482421875</ele>
        <time>2018-07-28T07:57:34Z</time>
      </trkpt>
      <trkpt lat="36.6983261108398" lon="-5.01812410354614">
        <ele>1610.49365234375</ele>
        <time>2018-07-28T07:57:35Z</time>
      </trkpt>
      <trkpt lat="36.6983222961426" lon="-5.01812601089478">
        <ele>1610.60827636719</ele>
        <time>2018-07-28T07:57:36Z</time>
      </trkpt>
      <trkpt lat="36.6983184814453" lon="-5.01812982559204">
        <ele>1610.71215820312</ele>
        <time>2018-07-28T07:57:37Z</time>
      </trkpt>
      <trkpt lat="36.6983070373535" lon="-5.01813507080078">
        <ele>1611.06115722656</ele>
        <time>2018-07-28T07:57:38Z</time>
      </trkpt>
      <trkpt lat="36.6982917785644" lon="-5.01813888549805">
        <ele>1611.54626464844</ele>
        <time>2018-07-28T07:57:39Z</time>
      </trkpt>
      <trkpt lat="36.6982841491699" lon="-5.01813983917236">
        <ele>1611.79455566406</ele>
        <time>2018-07-28T07:57:40Z</time>
      </trkpt>
      <trkpt lat="36.6982803344727" lon="-5.01813888549805">
        <ele>1611.92626953125</ele>
        <time>2018-07-28T07:57:41Z</time>
      </trkpt>
      <trkpt lat="36.6982765197754" lon="-5.01813888549805">
        <ele>1612.05285644531</ele>
        <time>2018-07-28T07:57:42Z</time>
      </trkpt>
      <trkpt lat="36.6982765197754" lon="-5.01813888549805">
        <ele>1612.05285644531</ele>
        <time>2018-07-28T07:57:43Z</time>
      </trkpt>
      <trkpt lat="36.6982765197754" lon="-5.01814222335815">
        <ele>1612.03564453125</ele>
        <time>2018-07-28T07:57:44Z</time>
      </trkpt>
      <trkpt lat="36.6982803344727" lon="-5.0181450843811">
        <ele>1611.89379882812</ele>
        <time>2018-07-28T07:57:45Z</time>
      </trkpt>
      <trkpt lat="36.6982879638672" lon="-5.01814985275269">
        <ele>1611.6142578125</ele>
        <time>2018-07-28T07:57:46Z</time>
      </trkpt>
      <trkpt lat="36.698299407959" lon="-5.01815414428711">
        <ele>1611.20886230469</ele>
        <time>2018-07-28T07:57:47Z</time>
      </trkpt>
      <trkpt lat="36.698314666748" lon="-5.01815605163574">
        <ele>1610.68798828125</ele>
        <time>2018-07-28T07:57:48Z</time>
      </trkpt>
      <trkpt lat="36.6983222961426" lon="-5.01815795898438">
        <ele>1610.42175292969</ele>
        <time>2018-07-28T07:57:49Z</time>
      </trkpt>
      <trkpt lat="36.6983299255371" lon="-5.01815986633301">
        <ele>1610.15502929688</ele>
        <time>2018-07-28T07:57:50Z</time>
      </trkpt>
      <trkpt lat="36.6983337402344" lon="-5.01815986633301">
        <ele>1610.03161621094</ele>
        <time>2018-07-28T07:57:51Z</time>
      </trkpt>
      <trkpt lat="36.6983299255371" lon="-5.01815986633301">
        <ele>1610.15502929688</ele>
        <time>2018-07-28T07:57:52Z</time>
      </trkpt>
      <trkpt lat="36.6983261108398" lon="-5.01815891265869">
        <ele>1610.28845214844</ele>
        <time>2018-07-28T07:57:53Z</time>
      </trkpt>
      <trkpt lat="36.6983261108398" lon="-5.01815891265869">
        <ele>1610.28845214844</ele>
        <time>2018-07-28T07:57:54Z</time>
      </trkpt>
      <trkpt lat="36.6983299255371" lon="-5.01815795898438">
        <ele>1610.16625976562</ele>
        <time>2018-07-28T07:57:55Z</time>
      </trkpt>
      <trkpt lat="36.6983337402344" lon="-5.01815795898438">
        <ele>1610.04309082031</ele>
        <time>2018-07-28T07:57:56Z</time>
      </trkpt>
      <trkpt lat="36.6983337402344" lon="-5.01815795898438">
        <ele>1610.04309082031</ele>
        <time>2018-07-28T07:57:57Z</time>
      </trkpt>
      <trkpt lat="36.6983337402344" lon="-5.01815986633301">
        <ele>1610.03161621094</ele>
        <time>2018-07-28T07:57:58Z</time>
      </trkpt>
      <trkpt lat="36.6983299255371" lon="-5.01816177368164">
        <ele>1610.14367675781</ele>
        <time>2018-07-28T07:57:59Z</time>
      </trkpt>
      <trkpt lat="36.6983299255371" lon="-5.01816177368164">
        <ele>1610.14367675781</ele>
        <time>2018-07-28T07:58:00Z</time>
      </trkpt>
      <trkpt lat="36.6983337402344" lon="-5.01816320419312">
        <ele>1610.01159667969</ele>
        <time>2018-07-28T07:58:01Z</time>
      </trkpt>
      <trkpt lat="36.6983375549316" lon="-5.01816320419312">
        <ele>1609.92578125</ele>
        <time>2018-07-28T07:58:02Z</time>
      </trkpt>
      <trkpt lat="36.6983413696289" lon="-5.01816606521606">
        <ele>1609.82238769531</ele>
        <time>2018-07-28T07:58:03Z</time>
      </trkpt>
      <trkpt lat="36.6983413696289" lon="-5.01816892623901">
        <ele>1609.80480957031</ele>
        <time>2018-07-28T07:58:04Z</time>
      </trkpt>
      <trkpt lat="36.6983413696289" lon="-5.01817321777344">
        <ele>1609.77856445312</ele>
        <time>2018-07-28T07:58:05Z</time>
      </trkpt>
      <trkpt lat="36.6983451843262" lon="-5.0181770324707">
        <ele>1609.66845703125</ele>
        <time>2018-07-28T07:58:06Z</time>
      </trkpt>
      <trkpt lat="36.6983528137207" lon="-5.01818180084228">
        <ele>1609.46508789062</ele>
        <time>2018-07-28T07:58:07Z</time>
      </trkpt>
      <trkpt lat="36.6983604431152" lon="-5.01818513870239">
        <ele>1609.26965332031</ele>
        <time>2018-07-28T07:58:08Z</time>
      </trkpt>
      <trkpt lat="36.6983642578125" lon="-5.01818704605103">
        <ele>1609.17004394531</ele>
        <time>2018-07-28T07:58:09Z</time>
      </trkpt>
      <trkpt lat="36.698371887207" lon="-5.01818513870239">
        <ele>1609.00805664062</ele>
        <time>2018-07-28T07:58:10Z</time>
      </trkpt>
      <trkpt lat="36.698371887207" lon="-5.01817989349365">
        <ele>1609.04284667969</ele>
        <time>2018-07-28T07:58:11Z</time>
      </trkpt>
      <trkpt lat="36.6983757019043" lon="-5.01817178726196">
        <ele>1609.01000976562</ele>
        <time>2018-07-28T07:58:12Z</time>
      </trkpt>
      <trkpt lat="36.6983795166016" lon="-5.01816987991333">
        <ele>1608.9365234375</ele>
        <time>2018-07-28T07:58:13Z</time>
      </trkpt>
      <trkpt lat="36.6983871459961" lon="-5.01816987991333">
        <ele>1608.76391601562</ele>
        <time>2018-07-28T07:58:14Z</time>
      </trkpt>
      <trkpt lat="36.6983947753906" lon="-5.01817083358765">
        <ele>1608.58483886719</ele>
        <time>2018-07-28T07:58:15Z</time>
      </trkpt>
      <trkpt lat="36.6983947753906" lon="-5.01816701889038">
        <ele>1608.61145019531</ele>
        <time>2018-07-28T07:58:16Z</time>
      </trkpt>
      <trkpt lat="36.6983985900879" lon="-5.01816320419312">
        <ele>1608.55212402344</ele>
        <time>2018-07-28T07:58:17Z</time>
      </trkpt>
      <trkpt lat="36.6984062194824" lon="-5.01815986633301">
        <ele>1608.404296875</ele>
        <time>2018-07-28T07:58:18Z</time>
      </trkpt>
      <trkpt lat="36.698413848877" lon="-5.01815509796143">
        <ele>1608.26770019531</ele>
        <time>2018-07-28T07:58:19Z</time>
      </trkpt>
      <trkpt lat="36.698413848877" lon="-5.01814699172974">
        <ele>1608.32666015625</ele>
        <time>2018-07-28T07:58:20Z</time>
      </trkpt>
      <trkpt lat="36.6984176635742" lon="-5.01813697814941">
        <ele>1608.31530761719</ele>
        <time>2018-07-28T07:58:21Z</time>
      </trkpt>
      <trkpt lat="36.6984176635742" lon="-5.01812601089478">
        <ele>1608.39575195312</ele>
        <time>2018-07-28T07:58:22Z</time>
      </trkpt>
      <trkpt lat="36.6984214782715" lon="-5.01811790466309">
        <ele>1608.3720703125</ele>
        <time>2018-07-28T07:58:23Z</time>
      </trkpt>
      <trkpt lat="36.6984176635742" lon="-5.01810884475708">
        <ele>1608.52172851562</ele>
        <time>2018-07-28T07:58:24Z</time>
      </trkpt>
      <trkpt lat="36.6984176635742" lon="-5.01810312271118">
        <ele>1608.56359863281</ele>
        <time>2018-07-28T07:58:25Z</time>
      </trkpt>
      <trkpt lat="36.6984214782715" lon="-5.01809883117676">
        <ele>1608.51318359375</ele>
        <time>2018-07-28T07:58:26Z</time>
      </trkpt>
      <trkpt lat="36.6984252929688" lon="-5.01809692382812">
        <ele>1608.44543457031</ele>
        <time>2018-07-28T07:58:27Z</time>
      </trkpt>
      <trkpt lat="36.698429107666" lon="-5.01809692382812">
        <ele>1608.36364746094</ele>
        <time>2018-07-28T07:58:28Z</time>
      </trkpt>
      <trkpt lat="36.6984367370606" lon="-5.01809978485107">
        <ele>1608.17810058594</ele>
        <time>2018-07-28T07:58:29Z</time>
      </trkpt>
      <trkpt lat="36.6984443664551" lon="-5.0181040763855">
        <ele>1607.98071289062</ele>
        <time>2018-07-28T07:58:30Z</time>
      </trkpt>
      <trkpt lat="36.6984519958496" lon="-5.01810884475708">
        <ele>1607.77856445312</ele>
        <time>2018-07-28T07:58:31Z</time>
      </trkpt>
      <trkpt lat="36.6984596252441" lon="-5.0181131362915">
        <ele>1607.5791015625</ele>
        <time>2018-07-28T07:58:32Z</time>
      </trkpt>
      <trkpt lat="36.6984672546387" lon="-5.01811504364014">
        <ele>1607.39794921875</ele>
        <time>2018-07-28T07:58:33Z</time>
      </trkpt>
      <trkpt lat="36.6984748840332" lon="-5.01811695098877">
        <ele>1607.21643066406</ele>
        <time>2018-07-28T07:58:34Z</time>
      </trkpt>
      <trkpt lat="36.6984748840332" lon="-5.01811599731445">
        <ele>1607.22424316406</ele>
        <time>2018-07-28T07:58:35Z</time>
      </trkpt>
      <trkpt lat="36.6984825134277" lon="-5.0181131362915">
        <ele>1607.08215332031</ele>
        <time>2018-07-28T07:58:36Z</time>
      </trkpt>
      <trkpt lat="36.698486328125" lon="-5.01810789108276">
        <ele>1607.04357910156</ele>
        <time>2018-07-28T07:58:37Z</time>
      </trkpt>
      <trkpt lat="36.6984939575195" lon="-5.01810216903686">
        <ele>1606.92736816406</ele>
        <time>2018-07-28T07:58:38Z</time>
      </trkpt>
      <trkpt lat="36.6985015869141" lon="-5.01810121536255">
        <ele>1606.77136230469</ele>
        <time>2018-07-28T07:58:39Z</time>
      </trkpt>
      <trkpt lat="36.6985054016113" lon="-5.01809978485107">
        <ele>1606.70166015625</ele>
        <time>2018-07-28T07:58:40Z</time>
      </trkpt>
      <trkpt lat="36.6985130310059" lon="-5.01810121536255">
        <ele>1606.52502441406</ele>
        <time>2018-07-28T07:58:41Z</time>
      </trkpt>
      <trkpt lat="36.6985168457031" lon="-5.01810121536255">
        <ele>1606.44287109375</ele>
        <time>2018-07-28T07:58:42Z</time>
      </trkpt>
      <trkpt lat="36.6985244750977" lon="-5.01809883117676">
        <ele>1606.30029296875</ele>
        <time>2018-07-28T07:58:43Z</time>
      </trkpt>
      <trkpt lat="36.6985321044922" lon="-5.01809406280518">
        <ele>1606.17993164062</ele>
        <time>2018-07-28T07:58:44Z</time>
      </trkpt>
      <trkpt lat="36.6985321044922" lon="-5.01808786392212">
        <ele>1606.23669433594</ele>
        <time>2018-07-28T07:58:45Z</time>
      </trkpt>
      <trkpt lat="36.6985321044922" lon="-5.01808404922485">
        <ele>1606.27160644531</ele>
        <time>2018-07-28T07:58:46Z</time>
      </trkpt>
      <trkpt lat="36.6985359191894" lon="-5.01808309555054">
        <ele>1606.19921875</ele>
        <time>2018-07-28T07:58:47Z</time>
      </trkpt>
      <trkpt lat="36.698543548584" lon="-5.01808214187622">
        <ele>1606.04614257812</ele>
        <time>2018-07-28T07:58:48Z</time>
      </trkpt>
      <trkpt lat="36.6985511779785" lon="-5.0180811882019">
        <ele>1605.89331054688</ele>
        <time>2018-07-28T07:58:49Z</time>
      </trkpt>
      <trkpt lat="36.6985626220703" lon="-5.01808023452759">
        <ele>1605.65979003906</ele>
        <time>2018-07-28T07:58:50Z</time>
      </trkpt>
      <trkpt lat="36.6985740661621" lon="-5.01808023452759">
        <ele>1605.41723632812</ele>
        <time>2018-07-28T07:58:51Z</time>
      </trkpt>
      <trkpt lat="36.6985893249512" lon="-5.01807880401611">
        <ele>1605.10827636719</ele>
        <time>2018-07-28T07:58:52Z</time>
      </trkpt>
      <trkpt lat="36.698600769043" lon="-5.01807594299316">
        <ele>1604.89526367188</ele>
        <time>2018-07-28T07:58:53Z</time>
      </trkpt>
      <trkpt lat="36.6986122131348" lon="-5.01807498931885">
        <ele>1604.66357421875</ele>
        <time>2018-07-28T07:58:54Z</time>
      </trkpt>
      <trkpt lat="36.6986236572266" lon="-5.01807403564453">
        <ele>1604.43200683594</ele>
        <time>2018-07-28T07:58:55Z</time>
      </trkpt>
      <trkpt lat="36.6986312866211" lon="-5.01807117462158">
        <ele>1604.3017578125</ele>
        <time>2018-07-28T07:58:56Z</time>
      </trkpt>
      <trkpt lat="36.6986351013184" lon="-5.01806402206421">
        <ele>1604.29858398438</ele>
        <time>2018-07-28T07:58:57Z</time>
      </trkpt>
      <trkpt lat="36.6986427307129" lon="-5.01805591583252">
        <ele>1604.22729492188</ele>
        <time>2018-07-28T07:58:58Z</time>
      </trkpt>
      <trkpt lat="36.6986541748047" lon="-5.01804685592651">
        <ele>1604.08959960938</ele>
        <time>2018-07-28T07:58:59Z</time>
      </trkpt>
      <trkpt lat="36.6986656188965" lon="-5.01803922653198">
        <ele>1603.93908691406</ele>
        <time>2018-07-28T07:59:00Z</time>
      </trkpt>
      <trkpt lat="36.698673248291" lon="-5.01803016662598">
        <ele>1603.88549804688</ele>
        <time>2018-07-28T07:59:01Z</time>
      </trkpt>
      <trkpt lat="36.6986770629883" lon="-5.0180230140686">
        <ele>1603.88952636719</ele>
        <time>2018-07-28T07:59:02Z</time>
      </trkpt>
      <trkpt lat="36.6986770629883" lon="-5.01801586151123">
        <ele>1603.97143554688</ele>
        <time>2018-07-28T07:59:03Z</time>
      </trkpt>
      <trkpt lat="36.6986770629883" lon="-5.0180082321167">
        <ele>1604.05871582031</ele>
        <time>2018-07-28T07:59:04Z</time>
      </trkpt>
      <trkpt lat="36.698673248291" lon="-5.01800203323364">
        <ele>1604.20568847656</ele>
        <time>2018-07-28T07:59:05Z</time>
      </trkpt>
      <trkpt lat="36.6986808776856" lon="-5.01799583435059">
        <ele>1604.12487792969</ele>
        <time>2018-07-28T07:59:06Z</time>
      </trkpt>
      <trkpt lat="36.6986808776856" lon="-5.01799201965332">
        <ele>1604.16870117188</ele>
        <time>2018-07-28T07:59:07Z</time>
      </trkpt>
      <trkpt lat="36.6986846923828" lon="-5.01798915863037">
        <ele>1604.12634277344</ele>
        <time>2018-07-28T07:59:08Z</time>
      </trkpt>
      <trkpt lat="36.6986846923828" lon="-5.01798582077026">
        <ele>1604.16491699219</ele>
        <time>2018-07-28T07:59:09Z</time>
      </trkpt>
      <trkpt lat="36.6986846923828" lon="-5.01798391342163">
        <ele>1604.18701171875</ele>
        <time>2018-07-28T07:59:10Z</time>
      </trkpt>
      <trkpt lat="36.6986923217773" lon="-5.01798391342163">
        <ele>1604.03698730469</ele>
        <time>2018-07-28T07:59:11Z</time>
      </trkpt>
      <trkpt lat="36.6986999511719" lon="-5.01798391342163">
        <ele>1603.88696289062</ele>
        <time>2018-07-28T07:59:12Z</time>
      </trkpt>
      <trkpt lat="36.6987075805664" lon="-5.01798295974731">
        <ele>1603.74829101562</ele>
        <time>2018-07-28T07:59:13Z</time>
      </trkpt>
      <trkpt lat="36.6987113952637" lon="-5.01798295974731">
        <ele>1603.67333984375</ele>
        <time>2018-07-28T07:59:14Z</time>
      </trkpt>
      <trkpt lat="36.6987152099609" lon="-5.01798486709595">
        <ele>1603.57531738281</ele>
        <time>2018-07-28T07:59:15Z</time>
      </trkpt>
      <trkpt lat="36.6987190246582" lon="-5.01798677444458">
        <ele>1603.47717285156</ele>
        <time>2018-07-28T07:59:16Z</time>
      </trkpt>
      <trkpt lat="36.6987266540527" lon="-5.01798820495606">
        <ele>1603.30932617188</ele>
        <time>2018-07-28T07:59:17Z</time>
      </trkpt>
      <trkpt lat="36.6987342834473" lon="-5.01798820495606">
        <ele>1603.15881347656</ele>
        <time>2018-07-28T07:59:18Z</time>
      </trkpt>
      <trkpt lat="36.6987419128418" lon="-5.01798915863037">
        <ele>1602.99633789062</ele>
        <time>2018-07-28T07:59:19Z</time>
      </trkpt>
      <trkpt lat="36.6987457275391" lon="-5.017991065979">
        <ele>1602.89709472656</ele>
        <time>2018-07-28T07:59:20Z</time>
      </trkpt>
      <trkpt lat="36.6987495422363" lon="-5.01799392700195">
        <ele>1602.78564453125</ele>
        <time>2018-07-28T07:59:21Z</time>
      </trkpt>
      <trkpt lat="36.6987495422363" lon="-5.0179967880249">
        <ele>1602.74951171875</ele>
        <time>2018-07-28T07:59:22Z</time>
      </trkpt>
      <trkpt lat="36.6987533569336" lon="-5.01799917221069">
        <ele>1602.6435546875</ele>
        <time>2018-07-28T07:59:23Z</time>
      </trkpt>
      <trkpt lat="36.6987571716309" lon="-5.01800394058228">
        <ele>1602.50708007812</ele>
        <time>2018-07-28T07:59:24Z</time>
      </trkpt>
      <trkpt lat="36.6987686157227" lon="-5.01800680160522">
        <ele>1602.24145507812</ele>
        <time>2018-07-28T07:59:25Z</time>
      </trkpt>
      <trkpt lat="36.6987762451172" lon="-5.0180082321167">
        <ele>1602.07006835938</ele>
        <time>2018-07-28T07:59:26Z</time>
      </trkpt>
      <trkpt lat="36.6987838745117" lon="-5.0180082321167">
        <ele>1601.91711425781</ele>
        <time>2018-07-28T07:59:27Z</time>
      </trkpt>
      <trkpt lat="36.698787689209" lon="-5.01801013946533">
        <ele>1601.8154296875</ele>
        <time>2018-07-28T07:59:28Z</time>
      </trkpt>
      <trkpt lat="36.698787689209" lon="-5.01801300048828">
        <ele>1601.77770996094</ele>
        <time>2018-07-28T07:59:29Z</time>
      </trkpt>
      <trkpt lat="36.6987915039062" lon="-5.01801681518555">
        <ele>1601.65026855469</ele>
        <time>2018-07-28T07:59:30Z</time>
      </trkpt>
      <trkpt lat="36.6987915039062" lon="-5.01802206039429">
        <ele>1601.58081054688</ele>
        <time>2018-07-28T07:59:31Z</time>
      </trkpt>
      <trkpt lat="36.6987915039062" lon="-5.01802682876587">
        <ele>1601.517578125</ele>
        <time>2018-07-28T07:59:32Z</time>
      </trkpt>
      <trkpt lat="36.6987953186035" lon="-5.01803398132324">
        <ele>1601.3447265625</ele>
        <time>2018-07-28T07:59:33Z</time>
      </trkpt>
      <trkpt lat="36.698802947998" lon="-5.0180401802063">
        <ele>1601.10534667969</ele>
        <time>2018-07-28T07:59:34Z</time>
      </trkpt>
      <trkpt lat="36.6988067626953" lon="-5.0180459022522">
        <ele>1600.94970703125</ele>
        <time>2018-07-28T07:59:35Z</time>
      </trkpt>
      <trkpt lat="36.6988105773926" lon="-5.0180459022522">
        <ele>1600.87084960938</ele>
        <time>2018-07-28T07:59:36Z</time>
      </trkpt>
      <trkpt lat="36.6988105773926" lon="-5.0180459022522">
        <ele>1600.87084960938</ele>
        <time>2018-07-28T07:59:37Z</time>
      </trkpt>
      <trkpt lat="36.6988105773926" lon="-5.01804494857788">
        <ele>1600.8837890625</ele>
        <time>2018-07-28T07:59:38Z</time>
      </trkpt>
      <trkpt lat="36.6988143920898" lon="-5.01804685592651">
        <ele>1600.77917480469</ele>
        <time>2018-07-28T07:59:39Z</time>
      </trkpt>
      <trkpt lat="36.6988182067871" lon="-5.01805210113525">
        <ele>1600.62854003906</ele>
        <time>2018-07-28T07:59:40Z</time>
      </trkpt>
      <trkpt lat="36.6988220214844" lon="-5.01805686950684">
        <ele>1600.48388671875</ele>
        <time>2018-07-28T07:59:41Z</time>
      </trkpt>
      <trkpt lat="36.6988258361816" lon="-5.01806211471558">
        <ele>1600.33203125</ele>
        <time>2018-07-28T07:59:42Z</time>
      </trkpt>
      <trkpt lat="36.6988296508789" lon="-5.01806306838989">
        <ele>1600.23913574219</ele>
        <time>2018-07-28T07:59:43Z</time>
      </trkpt>
      <trkpt lat="36.6988334655762" lon="-5.01806306838989">
        <ele>1600.15930175781</ele>
        <time>2018-07-28T07:59:44Z</time>
      </trkpt>
      <trkpt lat="36.6988372802734" lon="-5.01806116104126">
        <ele>1600.10620117188</ele>
        <time>2018-07-28T07:59:45Z</time>
      </trkpt>
      <trkpt lat="36.6988410949707" lon="-5.01806020736694">
        <ele>1600.03991699219</ele>
        <time>2018-07-28T07:59:46Z</time>
      </trkpt>
      <trkpt lat="36.6988410949707" lon="-5.01806211471558">
        <ele>1600.01306152344</ele>
        <time>2018-07-28T07:59:47Z</time>
      </trkpt>
      <trkpt lat="36.698844909668" lon="-5.01806592941284">
        <ele>1599.87951660156</ele>
        <time>2018-07-28T07:59:48Z</time>
      </trkpt>
      <trkpt lat="36.6988487243652" lon="-5.01807022094727">
        <ele>1599.73876953125</ele>
        <time>2018-07-28T07:59:49Z</time>
      </trkpt>
      <trkpt lat="36.6988525390625" lon="-5.0180721282959">
        <ele>1599.63146972656</ele>
        <time>2018-07-28T07:59:50Z</time>
      </trkpt>
      <trkpt lat="36.6988563537598" lon="-5.01807594299316">
        <ele>1599.49658203125</ele>
        <time>2018-07-28T07:59:51Z</time>
      </trkpt>
      <trkpt lat="36.698860168457" lon="-5.01807689666748">
        <ele>1599.40234375</ele>
        <time>2018-07-28T07:59:52Z</time>
      </trkpt>
      <trkpt lat="36.698860168457" lon="-5.01807689666748">
        <ele>1599.40234375</ele>
        <time>2018-07-28T07:59:53Z</time>
      </trkpt>
      <trkpt lat="36.6988563537598" lon="-5.0180778503418">
        <ele>1599.46936035156</ele>
        <time>2018-07-28T07:59:54Z</time>
      </trkpt>
      <trkpt lat="36.6988525390625" lon="-5.01808309555054">
        <ele>1599.47546386719</ele>
        <time>2018-07-28T07:59:55Z</time>
      </trkpt>
      <trkpt lat="36.6988525390625" lon="-5.01808977127075">
        <ele>1599.38049316406</ele>
        <time>2018-07-28T07:59:56Z</time>
      </trkpt>
      <trkpt lat="36.6988563537598" lon="-5.01809406280518">
        <ele>1599.23779296875</ele>
        <time>2018-07-28T07:59:57Z</time>
      </trkpt>
      <trkpt lat="36.698860168457" lon="-5.01809597015381">
        <ele>1599.12878417969</ele>
        <time>2018-07-28T07:59:58Z</time>
      </trkpt>
      <trkpt lat="36.6988716125488" lon="-5.01809787750244">
        <ele>1598.85571289062</ele>
        <time>2018-07-28T07:59:59Z</time>
      </trkpt>
      <trkpt lat="36.6988792419434" lon="-5.01810312271118">
        <ele>1598.61499023438</ele>
        <time>2018-07-28T08:00:00Z</time>
      </trkpt>
      <trkpt lat="36.6988906860352" lon="-5.01810884475708">
        <ele>1598.28356933594</ele>
        <time>2018-07-28T08:00:01Z</time>
      </trkpt>
      <trkpt lat="36.6989059448242" lon="-5.01811599731445">
        <ele>1597.84545898438</ele>
        <time>2018-07-28T08:00:02Z</time>
      </trkpt>
      <trkpt lat="36.698917388916" lon="-5.01812314987183">
        <ele>1597.48742675781</ele>
        <time>2018-07-28T08:00:03Z</time>
      </trkpt>
      <trkpt lat="36.6989288330078" lon="-5.01812791824341">
        <ele>1597.16357421875</ele>
        <time>2018-07-28T08:00:04Z</time>
      </trkpt>
      <trkpt lat="36.6989402770996" lon="-5.01813220977783">
        <ele>1596.84533691406</ele>
        <time>2018-07-28T08:00:05Z</time>
      </trkpt>
      <trkpt lat="36.6989517211914" lon="-5.0181360244751">
        <ele>1596.533203125</ele>
        <time>2018-07-28T08:00:06Z</time>
      </trkpt>
      <trkpt lat="36.6989593505859" lon="-5.01813697814941">
        <ele>1596.349609375</ele>
        <time>2018-07-28T08:00:07Z</time>
      </trkpt>
      <trkpt lat="36.6989669799805" lon="-5.01813316345215">
        <ele>1596.2421875</ele>
        <time>2018-07-28T08:00:08Z</time>
      </trkpt>
      <trkpt lat="36.698974609375" lon="-5.01812601089478">
        <ele>1596.18969726562</ele>
        <time>2018-07-28T08:00:09Z</time>
      </trkpt>
      <trkpt lat="36.6989822387695" lon="-5.01812410354614">
        <ele>1596.05358886719</ele>
        <time>2018-07-28T08:00:10Z</time>
      </trkpt>
      <trkpt lat="36.6989898681641" lon="-5.01812410354614">
        <ele>1595.88659667969</ele>
        <time>2018-07-28T08:00:11Z</time>
      </trkpt>
      <trkpt lat="36.6989974975586" lon="-5.01812601089478">
        <ele>1595.68811035156</ele>
        <time>2018-07-28T08:00:12Z</time>
      </trkpt>
      <trkpt lat="36.6990013122559" lon="-5.01812791824341">
        <ele>1595.57287597656</ele>
        <time>2018-07-28T08:00:13Z</time>
      </trkpt>
      <trkpt lat="36.6990051269531" lon="-5.01812982559204">
        <ele>1595.45739746094</ele>
        <time>2018-07-28T08:00:14Z</time>
      </trkpt>
      <trkpt lat="36.6990089416504" lon="-5.01813220977783">
        <ele>1595.33374023438</ele>
        <time>2018-07-28T08:00:15Z</time>
      </trkpt>
      <trkpt lat="36.6990127563477" lon="-5.01813411712646">
        <ele>1595.2177734375</ele>
        <time>2018-07-28T08:00:16Z</time>
      </trkpt>
      <trkpt lat="36.6990165710449" lon="-5.01813411712646">
        <ele>1595.13366699219</ele>
        <time>2018-07-28T08:00:17Z</time>
      </trkpt>
      <trkpt lat="36.6990203857422" lon="-5.01813316345215">
        <ele>1595.06567382812</ele>
        <time>2018-07-28T08:00:18Z</time>
      </trkpt>
      <trkpt lat="36.6990242004394" lon="-5.01813507080078">
        <ele>1594.94934082031</ele>
        <time>2018-07-28T08:00:19Z</time>
      </trkpt>
      <trkpt lat="36.6990356445312" lon="-5.01813793182373">
        <ele>1594.64794921875</ele>
        <time>2018-07-28T08:00:20Z</time>
      </trkpt>
      <trkpt lat="36.6990432739258" lon="-5.0181450843811">
        <ele>1594.35595703125</ele>
        <time>2018-07-28T08:00:21Z</time>
      </trkpt>
      <trkpt lat="36.699047088623" lon="-5.01814985275269">
        <ele>1594.18872070312</ele>
        <time>2018-07-28T08:00:22Z</time>
      </trkpt>
      <trkpt lat="36.6990509033203" lon="-5.01815605163574">
        <ele>1593.99597167969</ele>
        <time>2018-07-28T08:00:23Z</time>
      </trkpt>
      <trkpt lat="36.6990547180176" lon="-5.01816177368164">
        <ele>1593.81079101562</ele>
        <time>2018-07-28T08:00:24Z</time>
      </trkpt>
      <trkpt lat="36.6990585327148" lon="-5.01816606521606">
        <ele>1593.65002441406</ele>
        <time>2018-07-28T08:00:25Z</time>
      </trkpt>
      <trkpt lat="36.6990585327148" lon="-5.01816892623901">
        <ele>1593.59997558594</ele>
        <time>2018-07-28T08:00:26Z</time>
      </trkpt>
      <trkpt lat="36.6990661621094" lon="-5.01817083358765">
        <ele>1593.39404296875</ele>
        <time>2018-07-28T08:00:27Z</time>
      </trkpt>
      <trkpt lat="36.6990699768066" lon="-5.01817417144775">
        <ele>1593.24877929688</ele>
        <time>2018-07-28T08:00:28Z</time>
      </trkpt>
      <trkpt lat="36.6990737915039" lon="-5.01817989349365">
        <ele>1593.06079101562</ele>
        <time>2018-07-28T08:00:29Z</time>
      </trkpt>
      <trkpt lat="36.6990776062012" lon="-5.01818704605103">
        <ele>1592.8466796875</ele>
        <time>2018-07-28T08:00:30Z</time>
      </trkpt>
      <trkpt lat="36.6990737915039" lon="-5.01819610595703">
        <ele>1592.77331542969</ele>
        <time>2018-07-28T08:00:31Z</time>
      </trkpt>
      <trkpt lat="36.6990737915039" lon="-5.01820278167725">
        <ele>1592.65502929688</ele>
        <time>2018-07-28T08:00:32Z</time>
      </trkpt>
      <trkpt lat="36.6990737915039" lon="-5.01820993423462">
        <ele>1592.52819824219</ele>
        <time>2018-07-28T08:00:33Z</time>
      </trkpt>
      <trkpt lat="36.6990776062012" lon="-5.01821613311768">
        <ele>1592.32922363281</ele>
        <time>2018-07-28T08:00:34Z</time>
      </trkpt>
      <trkpt lat="36.6990776062012" lon="-5.01822185516357">
        <ele>1592.22741699219</ele>
        <time>2018-07-28T08:00:35Z</time>
      </trkpt>
      <trkpt lat="36.6990814208984" lon="-5.018226146698">
        <ele>1592.06140136719</ele>
        <time>2018-07-28T08:00:36Z</time>
      </trkpt>
      <trkpt lat="36.6990852355957" lon="-5.01822900772095">
        <ele>1591.92053222656</ele>
        <time>2018-07-28T08:00:37Z</time>
      </trkpt>
      <trkpt lat="36.6990928649902" lon="-5.0182318687439">
        <ele>1591.68933105469</ele>
        <time>2018-07-28T08:00:38Z</time>
      </trkpt>
      <trkpt lat="36.6990966796875" lon="-5.01823616027832">
        <ele>1591.52172851562</ele>
        <time>2018-07-28T08:00:39Z</time>
      </trkpt>
      <trkpt lat="36.6991004943848" lon="-5.01824188232422">
        <ele>1591.32751464844</ele>
        <time>2018-07-28T08:00:40Z</time>
      </trkpt>
      <trkpt lat="36.699104309082" lon="-5.01824998855591">
        <ele>1591.08935546875</ele>
        <time>2018-07-28T08:00:41Z</time>
      </trkpt>
      <trkpt lat="36.699104309082" lon="-5.01825714111328">
        <ele>1590.958984375</ele>
        <time>2018-07-28T08:00:42Z</time>
      </trkpt>
      <trkpt lat="36.6991081237793" lon="-5.01826095581055">
        <ele>1590.7978515625</ele>
        <time>2018-07-28T08:00:43Z</time>
      </trkpt>
      <trkpt lat="36.6991081237793" lon="-5.01826190948486">
        <ele>1590.78039550781</ele>
        <time>2018-07-28T08:00:44Z</time>
      </trkpt>
      <trkpt lat="36.6991119384766" lon="-5.01826095581055">
        <ele>1590.7060546875</ele>
        <time>2018-07-28T08:00:45Z</time>
      </trkpt>
      <trkpt lat="36.6991157531738" lon="-5.01826095581055">
        <ele>1590.6142578125</ele>
        <time>2018-07-28T08:00:46Z</time>
      </trkpt>
      <trkpt lat="36.6991195678711" lon="-5.01826286315918">
        <ele>1590.4873046875</ele>
        <time>2018-07-28T08:00:47Z</time>
      </trkpt>
      <trkpt lat="36.6991310119629" lon="-5.01826620101929">
        <ele>1590.14953613281</ele>
        <time>2018-07-28T08:00:48Z</time>
      </trkpt>
      <trkpt lat="36.6991386413574" lon="-5.01827001571655">
        <ele>1589.89379882812</ele>
        <time>2018-07-28T08:00:49Z</time>
      </trkpt>
      <trkpt lat="36.6991500854492" lon="-5.01827478408814">
        <ele>1589.52661132812</ele>
        <time>2018-07-28T08:00:50Z</time>
      </trkpt>
      <trkpt lat="36.6991539001465" lon="-5.01828098297119">
        <ele>1589.31628417969</ele>
        <time>2018-07-28T08:00:51Z</time>
      </trkpt>
      <trkpt lat="36.699161529541" lon="-5.01828622817993">
        <ele>1589.03002929688</ele>
        <time>2018-07-28T08:00:52Z</time>
      </trkpt>
      <trkpt lat="36.6991691589356" lon="-5.01829385757446">
        <ele>1588.70776367188</ele>
        <time>2018-07-28T08:00:53Z</time>
      </trkpt>
      <trkpt lat="36.6991767883301" lon="-5.01830005645752">
        <ele>1588.43481445312</ele>
        <time>2018-07-28T08:00:54Z</time>
      </trkpt>
      <trkpt lat="36.6991844177246" lon="-5.01830720901489">
        <ele>1588.14282226562</ele>
        <time>2018-07-28T08:00:55Z</time>
      </trkpt>
      <trkpt lat="36.6991882324219" lon="-5.01831007003784">
        <ele>1588.01037597656</ele>
        <time>2018-07-28T08:00:56Z</time>
      </trkpt>
      <trkpt lat="36.6991920471191" lon="-5.01831293106079">
        <ele>1587.87768554688</ele>
        <time>2018-07-28T08:00:57Z</time>
      </trkpt>
      <trkpt lat="36.6991996765137" lon="-5.01831817626953">
        <ele>1587.62121582031</ele>
        <time>2018-07-28T08:00:58Z</time>
      </trkpt>
      <trkpt lat="36.6992034912109" lon="-5.01832485198975">
        <ele>1587.41381835938</ele>
        <time>2018-07-28T08:00:59Z</time>
      </trkpt>
      <trkpt lat="36.6992073059082" lon="-5.01833200454712">
        <ele>1587.19689941406</ele>
        <time>2018-07-28T08:01:00Z</time>
      </trkpt>
      <trkpt lat="36.6992111206055" lon="-5.01834011077881">
        <ele>1587.17614746094</ele>
        <time>2018-07-28T08:01:01Z</time>
      </trkpt>
      <trkpt lat="36.69921875" lon="-5.01834583282471">
        <ele>1587.08837890625</ele>
        <time>2018-07-28T08:01:02Z</time>
      </trkpt>
      <trkpt lat="36.6992225646973" lon="-5.01835298538208">
        <ele>1587.09533691406</ele>
        <time>2018-07-28T08:01:03Z</time>
      </trkpt>
      <trkpt lat="36.6992301940918" lon="-5.01835680007935">
        <ele>1586.98156738281</ele>
        <time>2018-07-28T08:01:04Z</time>
      </trkpt>
      <trkpt lat="36.6992378234863" lon="-5.01836013793945">
        <ele>1586.86108398438</ele>
        <time>2018-07-28T08:01:05Z</time>
      </trkpt>
      <trkpt lat="36.6992454528809" lon="-5.01836776733398">
        <ele>1586.78869628906</ele>
        <time>2018-07-28T08:01:06Z</time>
      </trkpt>
      <trkpt lat="36.6992492675781" lon="-5.01837491989136">
        <ele>1586.78967285156</ele>
        <time>2018-07-28T08:01:07Z</time>
      </trkpt>
      <trkpt lat="36.6992492675781" lon="-5.01838302612305">
        <ele>1586.88220214844</ele>
        <time>2018-07-28T08:01:08Z</time>
      </trkpt>
      <trkpt lat="36.6992492675781" lon="-5.01838493347168">
        <ele>1586.90405273438</ele>
        <time>2018-07-28T08:01:09Z</time>
      </trkpt>
      <trkpt lat="36.6992492675781" lon="-5.01839113235474">
        <ele>1586.97473144531</ele>
        <time>2018-07-28T08:01:10Z</time>
      </trkpt>
      <trkpt lat="36.6992492675781" lon="-5.01839685440064">
        <ele>1587.0400390625</ele>
        <time>2018-07-28T08:01:11Z</time>
      </trkpt>
      <trkpt lat="36.6992492675781" lon="-5.01840782165527">
        <ele>1587.16528320312</ele>
        <time>2018-07-28T08:01:12Z</time>
      </trkpt>
      <trkpt lat="36.6992492675781" lon="-5.01841592788696">
        <ele>1587.2578125</ele>
        <time>2018-07-28T08:01:13Z</time>
      </trkpt>
      <trkpt lat="36.6992492675781" lon="-5.01842308044434">
        <ele>1587.33947753906</ele>
        <time>2018-07-28T08:01:14Z</time>
      </trkpt>
      <trkpt lat="36.6992492675781" lon="-5.01842880249023">
        <ele>1587.40478515625</ele>
        <time>2018-07-28T08:01:15Z</time>
      </trkpt>
      <trkpt lat="36.6992492675781" lon="-5.01843500137329">
        <ele>1587.4755859375</ele>
        <time>2018-07-28T08:01:16Z</time>
      </trkpt>
      <trkpt lat="36.6992492675781" lon="-5.01843881607056">
        <ele>1587.51916503906</ele>
        <time>2018-07-28T08:01:17Z</time>
      </trkpt>
      <trkpt lat="36.6992492675781" lon="-5.01844501495361">
        <ele>1587.58984375</ele>
        <time>2018-07-28T08:01:18Z</time>
      </trkpt>
      <trkpt lat="36.6992530822754" lon="-5.01845216751099">
        <ele>1587.58386230469</ele>
        <time>2018-07-28T08:01:19Z</time>
      </trkpt>
      <trkpt lat="36.6992568969727" lon="-5.01845979690552">
        <ele>1587.58215332031</ele>
        <time>2018-07-28T08:01:20Z</time>
      </trkpt>
      <trkpt lat="36.6992645263672" lon="-5.01846599578857">
        <ele>1587.47436523438</ele>
        <time>2018-07-28T08:01:21Z</time>
      </trkpt>
      <trkpt lat="36.6992683410644" lon="-5.01847314834595">
        <ele>1587.46435546875</ele>
        <time>2018-07-28T08:01:22Z</time>
      </trkpt>
      <trkpt lat="36.6992721557617" lon="-5.01847887039185">
        <ele>1587.4375</ele>
        <time>2018-07-28T08:01:23Z</time>
      </trkpt>
      <trkpt lat="36.6992797851562" lon="-5.0184850692749">
        <ele>1587.32458496094</ele>
        <time>2018-07-28T08:01:24Z</time>
      </trkpt>
      <trkpt lat="36.6992874145508" lon="-5.01848983764648">
        <ele>1587.19445800781</ele>
        <time>2018-07-28T08:01:25Z</time>
      </trkpt>
      <trkpt lat="36.699291229248" lon="-5.01849508285522">
        <ele>1587.15881347656</ele>
        <time>2018-07-28T08:01:26Z</time>
      </trkpt>
      <trkpt lat="36.6992988586426" lon="-5.01849699020386">
        <ele>1586.99621582031</ele>
        <time>2018-07-28T08:01:27Z</time>
      </trkpt>
      <trkpt lat="36.6993064880371" lon="-5.01849889755249">
        <ele>1586.8330078125</ele>
        <time>2018-07-28T08:01:28Z</time>
      </trkpt>
      <trkpt lat="36.6993103027344" lon="-5.0185022354126">
        <ele>1586.77526855469</ele>
        <time>2018-07-28T08:01:29Z</time>
      </trkpt>
      <trkpt lat="36.6993141174316" lon="-5.01850509643555">
        <ele>1586.71228027344</ele>
        <time>2018-07-28T08:01:30Z</time>
      </trkpt>
      <trkpt lat="36.6993217468262" lon="-5.01850986480713">
        <ele>1586.5751953125</ele>
        <time>2018-07-28T08:01:31Z</time>
      </trkpt>
      <trkpt lat="36.6993255615234" lon="-5.01851511001587">
        <ele>1586.53405761719</ele>
        <time>2018-07-28T08:01:32Z</time>
      </trkpt>
      <trkpt lat="36.6993293762207" lon="-5.01851987838745">
        <ele>1586.48754882812</ele>
        <time>2018-07-28T08:01:33Z</time>
      </trkpt>
      <trkpt lat="36.699333190918" lon="-5.01852416992188">
        <ele>1586.435546875</ele>
        <time>2018-07-28T08:01:34Z</time>
      </trkpt>
      <trkpt lat="36.6993370056152" lon="-5.01852703094482">
        <ele>1586.36926269531</ele>
        <time>2018-07-28T08:01:35Z</time>
      </trkpt>
      <trkpt lat="36.6993408203125" lon="-5.01852893829346">
        <ele>1586.29345703125</ele>
        <time>2018-07-28T08:01:36Z</time>
      </trkpt>
      <trkpt lat="36.6993446350098" lon="-5.01853179931641">
        <ele>1586.22631835938</ele>
        <time>2018-07-28T08:01:37Z</time>
      </trkpt>
      <trkpt lat="36.699348449707" lon="-5.01853513717651">
        <ele>1586.1630859375</ele>
        <time>2018-07-28T08:01:38Z</time>
      </trkpt>
      <trkpt lat="36.6993522644043" lon="-5.01853895187378">
        <ele>1586.10363769531</ele>
        <time>2018-07-28T08:01:39Z</time>
      </trkpt>
      <trkpt lat="36.6993598937988" lon="-5.01854181289673">
        <ele>1585.93994140625</ele>
        <time>2018-07-28T08:01:40Z</time>
      </trkpt>
      <trkpt lat="36.6993637084961" lon="-5.01854419708252">
        <ele>1585.86633300781</ele>
        <time>2018-07-28T08:01:41Z</time>
      </trkpt>
      <trkpt lat="36.6993713378906" lon="-5.01854705810547">
        <ele>1585.70104980469</ele>
        <time>2018-07-28T08:01:42Z</time>
      </trkpt>
      <trkpt lat="36.6993789672852" lon="-5.01855087280273">
        <ele>1585.54296875</ele>
        <time>2018-07-28T08:01:43Z</time>
      </trkpt>
      <trkpt lat="36.6993865966797" lon="-5.01855421066284">
        <ele>1585.37976074219</ele>
        <time>2018-07-28T08:01:44Z</time>
      </trkpt>
      <trkpt lat="36.6993942260742" lon="-5.01855182647705">
        <ele>1585.16796875</ele>
        <time>2018-07-28T08:01:45Z</time>
      </trkpt>
      <trkpt lat="36.699405670166" lon="-5.01854801177978">
        <ele>1584.84985351562</ele>
        <time>2018-07-28T08:01:46Z</time>
      </trkpt>
      <trkpt lat="36.6994132995606" lon="-5.01854515075684">
        <ele>1584.63623046875</ele>
        <time>2018-07-28T08:01:47Z</time>
      </trkpt>
      <trkpt lat="36.6994171142578" lon="-5.01854610443115">
        <ele>1584.54846191406</ele>
        <time>2018-07-28T08:01:48Z</time>
      </trkpt>
      <trkpt lat="36.6994247436523" lon="-5.01854515075684">
        <ele>1584.35046386719</ele>
        <time>2018-07-28T08:01:49Z</time>
      </trkpt>
      <trkpt lat="36.6994285583496" lon="-5.01854515075684">
        <ele>1584.25512695312</ele>
        <time>2018-07-28T08:01:50Z</time>
      </trkpt>
      <trkpt lat="36.6994323730469" lon="-5.01854610443115">
        <ele>1584.1669921875</ele>
        <time>2018-07-28T08:01:51Z</time>
      </trkpt>
      <trkpt lat="36.6994361877441" lon="-5.01854801177978">
        <ele>1584.08569335938</ele>
        <time>2018-07-28T08:01:52Z</time>
      </trkpt>
      <trkpt lat="36.6994438171387" lon="-5.01854801177978">
        <ele>1583.89477539062</ele>
        <time>2018-07-28T08:01:53Z</time>
      </trkpt>
      <trkpt lat="36.6994476318359" lon="-5.01854705810547">
        <ele>1583.79235839844</ele>
        <time>2018-07-28T08:01:54Z</time>
      </trkpt>
      <trkpt lat="36.6994514465332" lon="-5.01854276657104">
        <ele>1583.66674804688</ele>
        <time>2018-07-28T08:01:55Z</time>
      </trkpt>
      <trkpt lat="36.6994552612305" lon="-5.0185399055481">
        <ele>1583.5517578125</ele>
        <time>2018-07-28T08:01:56Z</time>
      </trkpt>
      <trkpt lat="36.6994590759277" lon="-5.01853609085083">
        <ele>1583.4306640625</ele>
        <time>2018-07-28T08:01:57Z</time>
      </trkpt>
      <trkpt lat="36.699462890625" lon="-5.01853179931641">
        <ele>1583.30688476562</ele>
        <time>2018-07-28T08:01:58Z</time>
      </trkpt>
      <trkpt lat="36.6994667053223" lon="-5.01852512359619">
        <ele>1583.16784667969</ele>
        <time>2018-07-28T08:01:59Z</time>
      </trkpt>
      <trkpt lat="36.6994705200195" lon="-5.0185170173645">
        <ele>1583.0205078125</ele>
        <time>2018-07-28T08:02:00Z</time>
      </trkpt>
      <trkpt lat="36.6994743347168" lon="-5.01850891113281">
        <ele>1582.87438964844</ele>
        <time>2018-07-28T08:02:01Z</time>
      </trkpt>
      <trkpt lat="36.6994781494141" lon="-5.0185022354126">
        <ele>1582.73889160156</ele>
        <time>2018-07-28T08:02:02Z</time>
      </trkpt>
      <trkpt lat="36.6994819641113" lon="-5.01849412918091">
        <ele>1582.59533691406</ele>
        <time>2018-07-28T08:02:03Z</time>
      </trkpt>
      <trkpt lat="36.6994857788086" lon="-5.0184850692749">
        <ele>1582.44714355469</ele>
        <time>2018-07-28T08:02:04Z</time>
      </trkpt>
      <trkpt lat="36.6994857788086" lon="-5.01847505569458">
        <ele>1582.38403320312</ele>
        <time>2018-07-28T08:02:05Z</time>
      </trkpt>
      <trkpt lat="36.6994895935059" lon="-5.01846694946289">
        <ele>1582.24401855469</ele>
        <time>2018-07-28T08:02:06Z</time>
      </trkpt>
      <trkpt lat="36.6994895935059" lon="-5.01845788955688">
        <ele>1582.18762207031</ele>
        <time>2018-07-28T08:02:07Z</time>
      </trkpt>
      <trkpt lat="36.6994934082031" lon="-5.0184497833252">
        <ele>1582.0498046875</ele>
        <time>2018-07-28T08:02:08Z</time>
      </trkpt>
      <trkpt lat="36.6994972229004" lon="-5.01844310760498">
        <ele>1581.921875</ele>
        <time>2018-07-28T08:02:09Z</time>
      </trkpt>
      <trkpt lat="36.6995048522949" lon="-5.01843881607056">
        <ele>1581.72290039062</ele>
        <time>2018-07-28T08:02:10Z</time>
      </trkpt>
      <trkpt lat="36.6995124816894" lon="-5.01843309402466">
        <ele>1581.51708984375</ele>
        <time>2018-07-28T08:02:11Z</time>
      </trkpt>
      <trkpt lat="36.6995162963867" lon="-5.01843118667603">
        <ele>1581.42028808594</ele>
        <time>2018-07-28T08:02:12Z</time>
      </trkpt>
      <trkpt lat="36.699520111084" lon="-5.01843118667603">
        <ele>1581.33435058594</ele>
        <time>2018-07-28T08:02:13Z</time>
      </trkpt>
      <trkpt lat="36.6995277404785" lon="-5.01843404769897">
        <ele>1581.17797851562</ele>
        <time>2018-07-28T08:02:14Z</time>
      </trkpt>
      <trkpt lat="36.6995315551758" lon="-5.01843404769897">
        <ele>1581.09191894531</ele>
        <time>2018-07-28T08:02:15Z</time>
      </trkpt>
      <trkpt lat="36.699535369873" lon="-5.01843214035034">
        <ele>1580.99584960938</ele>
        <time>2018-07-28T08:02:16Z</time>
      </trkpt>
      <trkpt lat="36.6995391845703" lon="-5.01843214035034">
        <ele>1580.90979003906</ele>
        <time>2018-07-28T08:02:17Z</time>
      </trkpt>
      <trkpt lat="36.6995429992676" lon="-5.01843309402466">
        <ele>1580.82873535156</ele>
        <time>2018-07-28T08:02:18Z</time>
      </trkpt>
      <trkpt lat="36.6995468139648" lon="-5.01843309402466">
        <ele>1580.74267578125</ele>
        <time>2018-07-28T08:02:19Z</time>
      </trkpt>
      <trkpt lat="36.6995506286621" lon="-5.01843309402466">
        <ele>1580.65661621094</ele>
        <time>2018-07-28T08:02:20Z</time>
      </trkpt>
      <trkpt lat="36.6995582580566" lon="-5.01843118667603">
        <ele>1580.47546386719</ele>
        <time>2018-07-28T08:02:21Z</time>
      </trkpt>
      <trkpt lat="36.6995658874512" lon="-5.01843023300171">
        <ele>1580.29943847656</ele>
        <time>2018-07-28T08:02:22Z</time>
      </trkpt>
      <trkpt lat="36.6995697021484" lon="-5.01842880249023">
        <ele>1580.20715332031</ele>
        <time>2018-07-28T08:02:23Z</time>
      </trkpt>
      <trkpt lat="36.699577331543" lon="-5.01842880249023">
        <ele>1580.03576660156</ele>
        <time>2018-07-28T08:02:24Z</time>
      </trkpt>
      <trkpt lat="36.6995849609375" lon="-5.01843118667603">
        <ele>1579.87438964844</ele>
        <time>2018-07-28T08:02:25Z</time>
      </trkpt>
      <trkpt lat="36.699592590332" lon="-5.01843309402466">
        <ele>1579.71020507812</ele>
        <time>2018-07-28T08:02:26Z</time>
      </trkpt>
      <trkpt lat="36.6995964050293" lon="-5.01843595504761">
        <ele>1579.63537597656</ele>
        <time>2018-07-28T08:02:27Z</time>
      </trkpt>
      <trkpt lat="36.6996002197266" lon="-5.01843881607056">
        <ele>1579.56005859375</ele>
        <time>2018-07-28T08:02:28Z</time>
      </trkpt>
      <trkpt lat="36.6996078491211" lon="-5.01844215393066">
        <ele>1579.39929199219</ele>
        <time>2018-07-28T08:02:29Z</time>
      </trkpt>
      <trkpt lat="36.6996116638184" lon="-5.01844501495361">
        <ele>1579.32275390625</ele>
        <time>2018-07-28T08:02:30Z</time>
      </trkpt>
      <trkpt lat="36.6996192932129" lon="-5.01845121383667">
        <ele>1579.169921875</ele>
        <time>2018-07-28T08:02:31Z</time>
      </trkpt>
      <trkpt lat="36.6996231079102" lon="-5.01845788955688">
        <ele>1579.10473632812</ele>
        <time>2018-07-28T08:02:32Z</time>
      </trkpt>
      <trkpt lat="36.699634552002" lon="-5.01846408843994">
        <ele>1578.85961914062</ele>
        <time>2018-07-28T08:02:33Z</time>
      </trkpt>
      <trkpt lat="36.6996383666992" lon="-5.01846981048584">
        <ele>1578.78833007812</ele>
        <time>2018-07-28T08:02:34Z</time>
      </trkpt>
      <trkpt lat="36.6996459960938" lon="-5.0184760093689">
        <ele>1578.62780761719</ele>
        <time>2018-07-28T08:02:35Z</time>
      </trkpt>
      <trkpt lat="36.699649810791" lon="-5.01848220825195">
        <ele>1578.55541992188</ele>
        <time>2018-07-28T08:02:36Z</time>
      </trkpt>
      <trkpt lat="36.6996574401856" lon="-5.01848697662354">
        <ele>1578.38757324219</ele>
        <time>2018-07-28T08:02:37Z</time>
      </trkpt>
      <trkpt lat="36.6996688842773" lon="-5.0184907913208">
        <ele>1578.12512207031</ele>
        <time>2018-07-28T08:02:38Z</time>
      </trkpt>
      <trkpt lat="36.6996765136719" lon="-5.01849603652954">
        <ele>1577.95495605469</ele>
        <time>2018-07-28T08:02:39Z</time>
      </trkpt>
      <trkpt lat="36.6996803283691" lon="-5.01849889755249">
        <ele>1577.86975097656</ele>
        <time>2018-07-28T08:02:40Z</time>
      </trkpt>
      <trkpt lat="36.6996841430664" lon="-5.01849985122681">
        <ele>1577.7802734375</ele>
        <time>2018-07-28T08:02:41Z</time>
      </trkpt>
      <trkpt lat="36.6996917724609" lon="-5.01849889755249">
        <ele>1577.59545898438</ele>
        <time>2018-07-28T08:02:42Z</time>
      </trkpt>
      <trkpt lat="36.6996955871582" lon="-5.01850080490112">
        <ele>1577.50732421875</ele>
        <time>2018-07-28T08:02:43Z</time>
      </trkpt>
      <trkpt lat="36.6996994018555" lon="-5.0185022354126">
        <ele>1577.41809082031</ele>
        <time>2018-07-28T08:02:44Z</time>
      </trkpt>
      <trkpt lat="36.6997032165527" lon="-5.01850509643555">
        <ele>1577.3310546875</ele>
        <time>2018-07-28T08:02:45Z</time>
      </trkpt>
      <trkpt lat="36.6997032165527" lon="-5.01850986480713">
        <ele>1577.33874511719</ele>
        <time>2018-07-28T08:02:46Z</time>
      </trkpt>
      <trkpt lat="36.69970703125" lon="-5.01851511001587">
        <ele>1577.25439453125</ele>
        <time>2018-07-28T08:02:47Z</time>
      </trkpt>
      <trkpt lat="36.69970703125" lon="-5.01852083206177">
        <ele>1577.26306152344</ele>
        <time>2018-07-28T08:02:48Z</time>
      </trkpt>
      <trkpt lat="36.69970703125" lon="-5.01852321624756">
        <ele>1577.26672363281</ele>
        <time>2018-07-28T08:02:49Z</time>
      </trkpt>
      <trkpt lat="36.69970703125" lon="-5.01852512359619">
        <ele>1577.26965332031</ele>
        <time>2018-07-28T08:02:50Z</time>
      </trkpt>
      <trkpt lat="36.6997108459473" lon="-5.01852798461914">
        <ele>1577.18017578125</ele>
        <time>2018-07-28T08:02:51Z</time>
      </trkpt>
      <trkpt lat="36.6997184753418" lon="-5.01853084564209">
        <ele>1576.99609375</ele>
        <time>2018-07-28T08:02:52Z</time>
      </trkpt>
      <trkpt lat="36.6997299194336" lon="-5.0185341835022">
        <ele>1576.71728515625</ele>
        <time>2018-07-28T08:02:53Z</time>
      </trkpt>
      <trkpt lat="36.6997375488281" lon="-5.0185341835022">
        <ele>1576.52856445312</ele>
        <time>2018-07-28T08:02:54Z</time>
      </trkpt>
      <trkpt lat="36.6997413635254" lon="-5.01853513717651">
        <ele>1576.43493652344</ele>
        <time>2018-07-28T08:02:55Z</time>
      </trkpt>
      <trkpt lat="36.6997451782227" lon="-5.01853609085083">
        <ele>1576.34118652344</ele>
        <time>2018-07-28T08:02:56Z</time>
      </trkpt>
      <trkpt lat="36.6997489929199" lon="-5.01854181289673">
        <ele>1576.25012207031</ele>
        <time>2018-07-28T08:02:57Z</time>
      </trkpt>
      <trkpt lat="36.6997566223144" lon="-5.01854705810547">
        <ele>1576.06262207031</ele>
        <time>2018-07-28T08:02:58Z</time>
      </trkpt>
      <trkpt lat="36.699764251709" lon="-5.0185489654541">
        <ele>1575.87231445312</ele>
        <time>2018-07-28T08:02:59Z</time>
      </trkpt>
      <trkpt lat="36.6997718811035" lon="-5.01854801177978">
        <ele>1575.68090820312</ele>
        <time>2018-07-28T08:03:00Z</time>
      </trkpt>
      <trkpt lat="36.6997833251953" lon="-5.01854276657104">
        <ele>1575.39501953125</ele>
        <time>2018-07-28T08:03:01Z</time>
      </trkpt>
      <trkpt lat="36.6997985839844" lon="-5.01853609085083">
        <ele>1575.01782226562</ele>
        <time>2018-07-28T08:03:02Z</time>
      </trkpt>
      <trkpt lat="36.6998100280762" lon="-5.01852893829346">
        <ele>1574.73913574219</ele>
        <time>2018-07-28T08:03:03Z</time>
      </trkpt>
      <trkpt lat="36.6998176574707" lon="-5.01852607727051">
        <ele>1574.5537109375</ele>
        <time>2018-07-28T08:03:04Z</time>
      </trkpt>
      <trkpt lat="36.699821472168" lon="-5.01852607727051">
        <ele>1574.46008300781</ele>
        <time>2018-07-28T08:03:05Z</time>
      </trkpt>
      <trkpt lat="36.699821472168" lon="-5.01852512359619">
        <ele>1574.4609375</ele>
        <time>2018-07-28T08:03:06Z</time>
      </trkpt>
      <trkpt lat="36.6998252868652" lon="-5.01852512359619">
        <ele>1574.36730957031</ele>
        <time>2018-07-28T08:03:07Z</time>
      </trkpt>
      <trkpt lat="36.6998291015625" lon="-5.01852321624756">
        <ele>1574.27587890625</ele>
        <time>2018-07-28T08:03:08Z</time>
      </trkpt>
      <trkpt lat="36.6998329162598" lon="-5.01852321624756">
        <ele>1574.18237304688</ele>
        <time>2018-07-28T08:03:09Z</time>
      </trkpt>
      <trkpt lat="36.6998405456543" lon="-5.01852416992188">
        <ele>1573.994140625</ele>
        <time>2018-07-28T08:03:10Z</time>
      </trkpt>
      <trkpt lat="36.6998519897461" lon="-5.01852703094482">
        <ele>1573.70886230469</ele>
        <time>2018-07-28T08:03:11Z</time>
      </trkpt>
      <trkpt lat="36.6998558044434" lon="-5.01852798461914">
        <ele>1573.61352539062</ele>
        <time>2018-07-28T08:03:12Z</time>
      </trkpt>
      <trkpt lat="36.6998596191406" lon="-5.01852703094482">
        <ele>1573.52136230469</ele>
        <time>2018-07-28T08:03:13Z</time>
      </trkpt>
      <trkpt lat="36.6998672485352" lon="-5.01852703094482">
        <ele>1573.33374023438</ele>
        <time>2018-07-28T08:03:14Z</time>
      </trkpt>
      <trkpt lat="36.6998748779297" lon="-5.01852989196777">
        <ele>1573.14025878906</ele>
        <time>2018-07-28T08:03:15Z</time>
      </trkpt>
      <trkpt lat="36.6998825073242" lon="-5.0185341835022">
        <ele>1572.94250488281</ele>
        <time>2018-07-28T08:03:16Z</time>
      </trkpt>
      <trkpt lat="36.6998863220215" lon="-5.01853609085083">
        <ele>1572.84362792969</ele>
        <time>2018-07-28T08:03:17Z</time>
      </trkpt>
      <trkpt lat="36.6998901367188" lon="-5.01853704452515">
        <ele>1572.74682617188</ele>
        <time>2018-07-28T08:03:18Z</time>
      </trkpt>
      <trkpt lat="36.699893951416" lon="-5.01853799819946">
        <ele>1572.64978027344</ele>
        <time>2018-07-28T08:03:19Z</time>
      </trkpt>
      <trkpt lat="36.6998977661133" lon="-5.01853895187378">
        <ele>1572.55261230469</ele>
        <time>2018-07-28T08:03:20Z</time>
      </trkpt>
      <trkpt lat="36.6999053955078" lon="-5.01854085922241">
        <ele>1572.35791015625</ele>
        <time>2018-07-28T08:03:21Z</time>
      </trkpt>
      <trkpt lat="36.6999168395996" lon="-5.01854419708252">
        <ele>1572.06311035156</ele>
        <time>2018-07-28T08:03:22Z</time>
      </trkpt>
      <trkpt lat="36.6999282836914" lon="-5.01854801177978">
        <ele>1571.76513671875</ele>
        <time>2018-07-28T08:03:23Z</time>
      </trkpt>
      <trkpt lat="36.6999320983887" lon="-5.01854801177978">
        <ele>1571.66955566406</ele>
        <time>2018-07-28T08:03:24Z</time>
      </trkpt>
      <trkpt lat="36.6999320983887" lon="-5.01854801177978">
        <ele>1571.66955566406</ele>
        <time>2018-07-28T08:03:25Z</time>
      </trkpt>
      <trkpt lat="36.6999320983887" lon="-5.01854801177978">
        <ele>1571.66955566406</ele>
        <time>2018-07-28T08:03:26Z</time>
      </trkpt>
      <trkpt lat="36.6999320983887" lon="-5.01854705810547">
        <ele>1571.67272949219</ele>
        <time>2018-07-28T08:03:27Z</time>
      </trkpt>
      <trkpt lat="36.6999320983887" lon="-5.01854610443115">
        <ele>1571.67590332031</ele>
        <time>2018-07-28T08:03:28Z</time>
      </trkpt>
      <trkpt lat="36.6999320983887" lon="-5.01854276657104">
        <ele>1571.68713378906</ele>
        <time>2018-07-28T08:03:29Z</time>
      </trkpt>
      <trkpt lat="36.6999320983887" lon="-5.01854085922241">
        <ele>1571.69348144531</ele>
        <time>2018-07-28T08:03:30Z</time>
      </trkpt>
      <trkpt lat="36.6999320983887" lon="-5.01853895187378">
        <ele>1571.69982910156</ele>
        <time>2018-07-28T08:03:31Z</time>
      </trkpt>
      <trkpt lat="36.6999359130859" lon="-5.01853799819946">
        <ele>1571.60827636719</ele>
        <time>2018-07-28T08:03:32Z</time>
      </trkpt>
      <trkpt lat="36.6999359130859" lon="-5.01853799819946">
        <ele>1571.60827636719</ele>
        <time>2018-07-28T08:03:33Z</time>
      </trkpt>
      <trkpt lat="36.6999397277832" lon="-5.01853799819946">
        <ele>1571.513671875</ele>
        <time>2018-07-28T08:03:34Z</time>
      </trkpt>
      <trkpt lat="36.6999397277832" lon="-5.01853799819946">
        <ele>1571.513671875</ele>
        <time>2018-07-28T08:03:35Z</time>
      </trkpt>
      <trkpt lat="36.6999397277832" lon="-5.01853609085083">
        <ele>1571.52026367188</ele>
        <time>2018-07-28T08:03:36Z</time>
      </trkpt>
      <trkpt lat="36.6999397277832" lon="-5.01853513717651">
        <ele>1571.52355957031</ele>
        <time>2018-07-28T08:03:37Z</time>
      </trkpt>
      <trkpt lat="36.6999359130859" lon="-5.01853513717651">
        <ele>1571.61804199219</ele>
        <time>2018-07-28T08:03:38Z</time>
      </trkpt>
      <trkpt lat="36.6999359130859" lon="-5.01853704452515">
        <ele>1571.61157226562</ele>
        <time>2018-07-28T08:03:39Z</time>
      </trkpt>
      <trkpt lat="36.6999320983887" lon="-5.01854085922241">
        <ele>1571.69348144531</ele>
        <time>2018-07-28T08:03:40Z</time>
      </trkpt>
      <trkpt lat="36.6999320983887" lon="-5.01854610443115">
        <ele>1571.67590332031</ele>
        <time>2018-07-28T08:03:41Z</time>
      </trkpt>
      <trkpt lat="36.6999359130859" lon="-5.01855087280273">
        <ele>1571.56433105469</ele>
        <time>2018-07-28T08:03:42Z</time>
      </trkpt>
      <trkpt lat="36.6999397277832" lon="-5.01855182647705">
        <ele>1571.46520996094</ele>
        <time>2018-07-28T08:03:43Z</time>
      </trkpt>
      <trkpt lat="36.6999435424805" lon="-5.01855421066284">
        <ele>1571.36083984375</ele>
        <time>2018-07-28T08:03:44Z</time>
      </trkpt>
      <trkpt lat="36.699951171875" lon="-5.01855611801147">
        <ele>1571.16174316406</ele>
        <time>2018-07-28T08:03:45Z</time>
      </trkpt>
      <trkpt lat="36.6999588012695" lon="-5.01855897903442">
        <ele>1570.95812988281</ele>
        <time>2018-07-28T08:03:46Z</time>
      </trkpt>
      <trkpt lat="36.6999626159668" lon="-5.01855993270874">
        <ele>1570.85791015625</ele>
        <time>2018-07-28T08:03:47Z</time>
      </trkpt>
      <trkpt lat="36.6999702453613" lon="-5.01855993270874">
        <ele>1570.66491699219</ele>
        <time>2018-07-28T08:03:48Z</time>
      </trkpt>
      <trkpt lat="36.6999778747559" lon="-5.01855993270874">
        <ele>1570.47192382812</ele>
        <time>2018-07-28T08:03:49Z</time>
      </trkpt>
      <trkpt lat="36.6999816894531" lon="-5.01856184005737">
        <ele>1570.36706542969</ele>
        <time>2018-07-28T08:03:50Z</time>
      </trkpt>
      <trkpt lat="36.6999855041504" lon="-5.01856708526611">
        <ele>1570.24694824219</ele>
        <time>2018-07-28T08:03:51Z</time>
      </trkpt>
      <trkpt lat="36.6999893188477" lon="-5.01857089996338">
        <ele>1570.13244628906</ele>
        <time>2018-07-28T08:03:52Z</time>
      </trkpt>
      <trkpt lat="36.6999969482422" lon="-5.01857709884644">
        <ele>1569.908203125</ele>
        <time>2018-07-28T08:03:53Z</time>
      </trkpt>
      <trkpt lat="36.7000007629394" lon="-5.0185809135437">
        <ele>1569.79223632812</ele>
        <time>2018-07-28T08:03:54Z</time>
      </trkpt>
      <trkpt lat="36.7000045776367" lon="-5.01858615875244">
        <ele>1569.669921875</ele>
        <time>2018-07-28T08:03:55Z</time>
      </trkpt>
      <trkpt lat="36.700008392334" lon="-5.01858997344971">
        <ele>1569.55432128906</ele>
        <time>2018-07-28T08:03:56Z</time>
      </trkpt>
      <trkpt lat="36.7000160217285" lon="-5.01859092712402">
        <ele>1569.35522460938</ele>
        <time>2018-07-28T08:03:57Z</time>
      </trkpt>
      <trkpt lat="36.7000198364258" lon="-5.01858997344971">
        <ele>1569.2626953125</ele>
        <time>2018-07-28T08:03:58Z</time>
      </trkpt>
      <trkpt lat="36.7000274658203" lon="-5.01858711242676">
        <ele>1569.08251953125</ele>
        <time>2018-07-28T08:03:59Z</time>
      </trkpt>
      <trkpt lat="36.7000312805176" lon="-5.01858520507812">
        <ele>1568.99487304688</ele>
        <time>2018-07-28T08:04:00Z</time>
      </trkpt>
      <trkpt lat="36.7000389099121" lon="-5.01858711242676">
        <ele>1568.79113769531</ele>
        <time>2018-07-28T08:04:01Z</time>
      </trkpt>
      <trkpt lat="36.7000465393066" lon="-5.01858901977539">
        <ele>1568.58728027344</ele>
        <time>2018-07-28T08:04:02Z</time>
      </trkpt>
      <trkpt lat="36.7000541687012" lon="-5.01859188079834">
        <ele>1568.37829589844</ele>
        <time>2018-07-28T08:04:03Z</time>
      </trkpt>
      <trkpt lat="36.7000617980957" lon="-5.01859378814697">
        <ele>1568.17395019531</ele>
        <time>2018-07-28T08:04:04Z</time>
      </trkpt>
      <trkpt lat="36.700065612793" lon="-5.01859617233276">
        <ele>1568.06433105469</ele>
        <time>2018-07-28T08:04:05Z</time>
      </trkpt>
      <trkpt lat="36.7000732421875" lon="-5.0185980796814">
        <ele>1567.85974121094</ele>
        <time>2018-07-28T08:04:06Z</time>
      </trkpt>
      <trkpt lat="36.7000770568848" lon="-5.01859903335571">
        <ele>1567.75732421875</ele>
        <time>2018-07-28T08:04:07Z</time>
      </trkpt>
      <trkpt lat="36.7000846862793" lon="-5.01860094070435">
        <ele>1567.55249023438</ele>
        <time>2018-07-28T08:04:08Z</time>
      </trkpt>
      <trkpt lat="36.7000923156738" lon="-5.01860189437866">
        <ele>1567.3525390625</ele>
        <time>2018-07-28T08:04:09Z</time>
      </trkpt>
      <trkpt lat="36.7000961303711" lon="-5.01860284805298">
        <ele>1567.25</ele>
        <time>2018-07-28T08:04:10Z</time>
      </trkpt>
      <trkpt lat="36.7001037597656" lon="-5.01860523223877">
        <ele>1567.04211425781</ele>
        <time>2018-07-28T08:04:11Z</time>
      </trkpt>
      <trkpt lat="36.7001075744629" lon="-5.01860809326172">
        <ele>1566.92907714844</ele>
        <time>2018-07-28T08:04:12Z</time>
      </trkpt>
      <trkpt lat="36.7001113891602" lon="-5.01861095428467">
        <ele>1566.81591796875</ele>
        <time>2018-07-28T08:04:13Z</time>
      </trkpt>
      <trkpt lat="36.7001152038574" lon="-5.0186128616333">
        <ele>1566.70788574219</ele>
        <time>2018-07-28T08:04:14Z</time>
      </trkpt>
      <trkpt lat="36.7001190185547" lon="-5.01861381530762">
        <ele>1566.60498046875</ele>
        <time>2018-07-28T08:04:15Z</time>
      </trkpt>
      <trkpt lat="36.7001190185547" lon="-5.01861476898193">
        <ele>1566.59973144531</ele>
        <time>2018-07-28T08:04:16Z</time>
      </trkpt>
      <trkpt lat="36.7001190185547" lon="-5.01861619949341">
        <ele>1566.59191894531</ele>
        <time>2018-07-28T08:04:17Z</time>
      </trkpt>
      <trkpt lat="36.700122833252" lon="-5.01861810684204">
        <ele>1566.48364257812</ele>
        <time>2018-07-28T08:04:18Z</time>
      </trkpt>
      <trkpt lat="36.7001304626465" lon="-5.01861906051636">
        <ele>1566.28271484375</ele>
        <time>2018-07-28T08:04:19Z</time>
      </trkpt>
      <trkpt lat="36.700138092041" lon="-5.01862001419067">
        <ele>1566.08166503906</ele>
        <time>2018-07-28T08:04:20Z</time>
      </trkpt>
      <trkpt lat="36.7001495361328" lon="-5.01861906051636">
        <ele>1565.79357910156</ele>
        <time>2018-07-28T08:04:21Z</time>
      </trkpt>
      <trkpt lat="36.7001571655273" lon="-5.01861906051636">
        <ele>1565.59790039062</ele>
        <time>2018-07-28T08:04:22Z</time>
      </trkpt>
      <trkpt lat="36.7001647949219" lon="-5.01861715316772">
        <ele>1565.41320800781</ele>
        <time>2018-07-28T08:04:23Z</time>
      </trkpt>
      <trkpt lat="36.7001686096191" lon="-5.01861810684204">
        <ele>1565.30993652344</ele>
        <time>2018-07-28T08:04:24Z</time>
      </trkpt>
      <trkpt lat="36.7001724243164" lon="-5.01861906051636">
        <ele>1565.20654296875</ele>
        <time>2018-07-28T08:04:25Z</time>
      </trkpt>
      <trkpt lat="36.7001762390137" lon="-5.01862096786499">
        <ele>1565.09765625</ele>
        <time>2018-07-28T08:04:26Z</time>
      </trkpt>
      <trkpt lat="36.7001800537109" lon="-5.01862192153931">
        <ele>1564.994140625</ele>
        <time>2018-07-28T08:04:27Z</time>
      </trkpt>
      <trkpt lat="36.7001838684082" lon="-5.01862382888794">
        <ele>1564.88513183594</ele>
        <time>2018-07-28T08:04:28Z</time>
      </trkpt>
      <trkpt lat="36.7001876831055" lon="-5.01862621307373">
        <ele>1564.77319335938</ele>
        <time>2018-07-28T08:04:29Z</time>
      </trkpt>
      <trkpt lat="36.7001914978027" lon="-5.01862716674805">
        <ele>1564.66955566406</ele>
        <time>2018-07-28T08:04:30Z</time>
      </trkpt>
      <trkpt lat="36.7001953125" lon="-5.01862812042236">
        <ele>1564.56591796875</ele>
        <time>2018-07-28T08:04:31Z</time>
      </trkpt>
      <trkpt lat="36.7001953125" lon="-5.01862812042236">
        <ele>1564.56591796875</ele>
        <time>2018-07-28T08:04:32Z</time>
      </trkpt>
      <trkpt lat="36.7001991271973" lon="-5.018630027771">
        <ele>1564.45654296875</ele>
        <time>2018-07-28T08:04:33Z</time>
      </trkpt>
      <trkpt lat="36.7001991271973" lon="-5.01863193511963">
        <ele>1564.44519042969</ele>
        <time>2018-07-28T08:04:34Z</time>
      </trkpt>
      <trkpt lat="36.7002029418945" lon="-5.01863479614258">
        <ele>1564.32995605469</ele>
        <time>2018-07-28T08:04:35Z</time>
      </trkpt>
      <trkpt lat="36.7002067565918" lon="-5.01863813400269">
        <ele>1564.21179199219</ele>
        <time>2018-07-28T08:04:36Z</time>
      </trkpt>
      <trkpt lat="36.7002067565918" lon="-5.01864004135132">
        <ele>1564.20043945312</ele>
        <time>2018-07-28T08:04:37Z</time>
      </trkpt>
      <trkpt lat="36.7002105712891" lon="-5.01864385604858">
        <ele>1564.0791015625</ele>
        <time>2018-07-28T08:04:38Z</time>
      </trkpt>
      <trkpt lat="36.7002105712891" lon="-5.0186448097229">
        <ele>1564.07336425781</ele>
        <time>2018-07-28T08:04:39Z</time>
      </trkpt>
      <trkpt lat="36.7002105712891" lon="-5.01864576339722">
        <ele>1564.06762695312</ele>
        <time>2018-07-28T08:04:40Z</time>
      </trkpt>
      <trkpt lat="36.7002105712891" lon="-5.01864814758301">
        <ele>1564.05334472656</ele>
        <time>2018-07-28T08:04:41Z</time>
      </trkpt>
      <trkpt lat="36.7002143859863" lon="-5.01865291595459">
        <ele>1563.92614746094</ele>
        <time>2018-07-28T08:04:42Z</time>
      </trkpt>
      <trkpt lat="36.7002143859863" lon="-5.01865911483765">
        <ele>1563.888671875</ele>
        <time>2018-07-28T08:04:43Z</time>
      </trkpt>
      <trkpt lat="36.7002143859863" lon="-5.01866388320923">
        <ele>1563.85986328125</ele>
        <time>2018-07-28T08:04:44Z</time>
      </trkpt>
      <trkpt lat="36.7002182006836" lon="-5.01866817474365">
        <ele>1563.73510742188</ele>
        <time>2018-07-28T08:04:45Z</time>
      </trkpt>
      <trkpt lat="36.7002220153809" lon="-5.01867198944092">
        <ele>1563.61303710938</ele>
        <time>2018-07-28T08:04:46Z</time>
      </trkpt>
      <trkpt lat="36.7002296447754" lon="-5.01867723464966">
        <ele>1563.38293457031</ele>
        <time>2018-07-28T08:04:47Z</time>
      </trkpt>
      <trkpt lat="36.7002372741699" lon="-5.01867914199829">
        <ele>1563.17297363281</ele>
        <time>2018-07-28T08:04:48Z</time>
      </trkpt>
      <trkpt lat="36.7002487182617" lon="-5.01868009567261">
        <ele>1562.86950683594</ele>
        <time>2018-07-28T08:04:49Z</time>
      </trkpt>
      <trkpt lat="36.7002563476562" lon="-5.01868104934692">
        <ele>1562.66516113281</ele>
        <time>2018-07-28T08:04:50Z</time>
      </trkpt>
      <trkpt lat="36.7002601623535" lon="-5.01868486404419">
        <ele>1562.5419921875</ele>
        <time>2018-07-28T08:04:51Z</time>
      </trkpt>
      <trkpt lat="36.700267791748" lon="-5.01869010925293">
        <ele>1562.31018066406</ele>
        <time>2018-07-28T08:04:52Z</time>
      </trkpt>
      <trkpt lat="36.7002754211426" lon="-5.01869297027588">
        <ele>1562.09313964844</ele>
        <time>2018-07-28T08:04:53Z</time>
      </trkpt>
      <trkpt lat="36.7002792358398" lon="-5.01869583129883">
        <ele>1561.97534179688</ele>
        <time>2018-07-28T08:04:54Z</time>
      </trkpt>
      <trkpt lat="36.7002868652344" lon="-5.01869821548462">
        <ele>1561.76086425781</ele>
        <time>2018-07-28T08:04:55Z</time>
      </trkpt>
      <trkpt lat="36.7002906799316" lon="-5.01870107650757">
        <ele>1561.64282226562</ele>
        <time>2018-07-28T08:04:56Z</time>
      </trkpt>
      <trkpt lat="36.7002983093262" lon="-5.01870489120483">
        <ele>1561.41870117188</ele>
        <time>2018-07-28T08:04:57Z</time>
      </trkpt>
      <trkpt lat="36.7003021240234" lon="-5.01871109008789">
        <ele>1561.27844238281</ele>
        <time>2018-07-28T08:04:58Z</time>
      </trkpt>
      <trkpt lat="36.700309753418" lon="-5.01871490478516">
        <ele>1561.05358886719</ele>
        <time>2018-07-28T08:04:59Z</time>
      </trkpt>
      <trkpt lat="36.7003173828125" lon="-5.01871776580811">
        <ele>1560.83471679688</ele>
        <time>2018-07-28T08:05:00Z</time>
      </trkpt>
      <trkpt lat="36.700325012207" lon="-5.01871919631958">
        <ele>1560.62524414062</ele>
        <time>2018-07-28T08:05:01Z</time>
      </trkpt>
      <trkpt lat="36.7003326416016" lon="-5.01871681213379">
        <ele>1560.44116210938</ele>
        <time>2018-07-28T08:05:02Z</time>
      </trkpt>
      <trkpt lat="36.7003402709961" lon="-5.01871490478516">
        <ele>1560.25402832031</ele>
        <time>2018-07-28T08:05:03Z</time>
      </trkpt>
      <trkpt lat="36.7003517150879" lon="-5.01871299743652">
        <ele>1559.96728515625</ele>
        <time>2018-07-28T08:05:04Z</time>
      </trkpt>
      <trkpt lat="36.7003631591797" lon="-5.01871490478516">
        <ele>1559.65441894531</ele>
        <time>2018-07-28T08:05:05Z</time>
      </trkpt>
      <trkpt lat="36.7003707885742" lon="-5.01871776580811">
        <ele>1559.43469238281</ele>
        <time>2018-07-28T08:05:06Z</time>
      </trkpt>
      <trkpt lat="36.7003707885742" lon="-5.01872110366821">
        <ele>1559.41162109375</ele>
        <time>2018-07-28T08:05:07Z</time>
      </trkpt>
      <trkpt lat="36.7003707885742" lon="-5.01872682571411">
        <ele>1559.37194824219</ele>
        <time>2018-07-28T08:05:08Z</time>
      </trkpt>
      <trkpt lat="36.7003746032715" lon="-5.01873397827148">
        <ele>1559.22192382812</ele>
        <time>2018-07-28T08:05:09Z</time>
      </trkpt>
      <trkpt lat="36.7003784179688" lon="-5.01874303817749">
        <ele>1559.05834960938</ele>
        <time>2018-07-28T08:05:10Z</time>
      </trkpt>
      <trkpt lat="36.700382232666" lon="-5.01875114440918">
        <ele>1558.90100097656</ele>
        <time>2018-07-28T08:05:11Z</time>
      </trkpt>
      <trkpt lat="36.7003860473633" lon="-5.01875686645508">
        <ele>1558.76013183594</ele>
        <time>2018-07-28T08:05:12Z</time>
      </trkpt>
      <trkpt lat="36.7003898620606" lon="-5.01876401901245">
        <ele>1558.60888671875</ele>
        <time>2018-07-28T08:05:13Z</time>
      </trkpt>
      <trkpt lat="36.7003936767578" lon="-5.01877021789551">
        <ele>1558.46398925781</ele>
        <time>2018-07-28T08:05:14Z</time>
      </trkpt>
      <trkpt lat="36.7003974914551" lon="-5.01877593994141">
        <ele>1558.322265625</ele>
        <time>2018-07-28T08:05:15Z</time>
      </trkpt>
      <trkpt lat="36.7004013061523" lon="-5.01878213882446">
        <ele>1558.17700195312</ele>
        <time>2018-07-28T08:05:16Z</time>
      </trkpt>
      <trkpt lat="36.7004089355469" lon="-5.01878881454468">
        <ele>1557.92639160156</ele>
        <time>2018-07-28T08:05:17Z</time>
      </trkpt>
      <trkpt lat="36.7004127502441" lon="-5.01879692077637">
        <ele>1557.7666015625</ele>
        <time>2018-07-28T08:05:18Z</time>
      </trkpt>
      <trkpt lat="36.7004165649414" lon="-5.01880407333374">
        <ele>1557.61340332031</ele>
        <time>2018-07-28T08:05:19Z</time>
      </trkpt>
      <trkpt lat="36.7004203796387" lon="-5.01880979537964">
        <ele>1557.47021484375</ele>
        <time>2018-07-28T08:05:20Z</time>
      </trkpt>
      <trkpt lat="36.7004241943359" lon="-5.01881504058838">
        <ele>1557.33020019531</ele>
        <time>2018-07-28T08:05:21Z</time>
      </trkpt>
      <trkpt lat="36.7004241943359" lon="-5.01881694793701">
        <ele>1557.31628417969</ele>
        <time>2018-07-28T08:05:22Z</time>
      </trkpt>
      <trkpt lat="36.7004280090332" lon="-5.01881885528564">
        <ele>1557.20031738281</ele>
        <time>2018-07-28T08:05:23Z</time>
      </trkpt>
      <trkpt lat="36.7004280090332" lon="-5.01882314682007">
        <ele>1557.16906738281</ele>
        <time>2018-07-28T08:05:24Z</time>
      </trkpt>
      <trkpt lat="36.7004318237305" lon="-5.01882886886597">
        <ele>1557.02514648438</ele>
        <time>2018-07-28T08:05:25Z</time>
      </trkpt>
      <trkpt lat="36.7004318237305" lon="-5.01883506774902">
        <ele>1556.97998046875</ele>
        <time>2018-07-28T08:05:26Z</time>
      </trkpt>
      <trkpt lat="36.7004356384277" lon="-5.01884078979492">
        <ele>1556.83557128906</ele>
        <time>2018-07-28T08:05:27Z</time>
      </trkpt>
      <trkpt lat="36.700439453125" lon="-5.01884603500366">
        <ele>1556.6943359375</ele>
        <time>2018-07-28T08:05:28Z</time>
      </trkpt>
      <trkpt lat="36.7004432678223" lon="-5.01885080337524">
        <ele>1556.55651855469</ele>
        <time>2018-07-28T08:05:29Z</time>
      </trkpt>
      <trkpt lat="36.7004432678223" lon="-5.01885414123535">
        <ele>1556.53198242188</ele>
        <time>2018-07-28T08:05:30Z</time>
      </trkpt>
      <trkpt lat="36.7004508972168" lon="-5.01885604858398">
        <ele>1556.31188964844</ele>
        <time>2018-07-28T08:05:31Z</time>
      </trkpt>
      <trkpt lat="36.7004623413086" lon="-5.01885986328125">
        <ele>1555.97424316406</ele>
        <time>2018-07-28T08:05:32Z</time>
      </trkpt>
      <trkpt lat="36.7004776000977" lon="-5.01886510848999">
        <ele>1555.52221679688</ele>
        <time>2018-07-28T08:05:33Z</time>
      </trkpt>
      <trkpt lat="36.7004852294922" lon="-5.0188717842102">
        <ele>1555.26501464844</ele>
        <time>2018-07-28T08:05:34Z</time>
      </trkpt>
      <trkpt lat="36.700496673584" lon="-5.01887893676758">
        <ele>1554.90002441406</ele>
        <time>2018-07-28T08:05:35Z</time>
      </trkpt>
      <trkpt lat="36.7005043029785" lon="-5.0188889503479">
        <ele>1554.61584472656</ele>
        <time>2018-07-28T08:05:36Z</time>
      </trkpt>
      <trkpt lat="36.700511932373" lon="-5.01889705657959">
        <ele>1554.34545898438</ele>
        <time>2018-07-28T08:05:37Z</time>
      </trkpt>
      <trkpt lat="36.7005195617676" lon="-5.01890182495117">
        <ele>1554.10046386719</ele>
        <time>2018-07-28T08:05:38Z</time>
      </trkpt>
      <trkpt lat="36.7005310058594" lon="-5.01890420913696">
        <ele>1553.76953125</ele>
        <time>2018-07-28T08:05:39Z</time>
      </trkpt>
      <trkpt lat="36.7005424499512" lon="-5.01890277862549">
        <ele>1553.46862792969</ele>
        <time>2018-07-28T08:05:40Z</time>
      </trkpt>
      <trkpt lat="36.7005577087402" lon="-5.01890420913696">
        <ele>1553.04089355469</ele>
        <time>2018-07-28T08:05:41Z</time>
      </trkpt>
      <trkpt lat="36.700569152832" lon="-5.01890182495117">
        <ele>1552.74792480469</ele>
        <time>2018-07-28T08:05:42Z</time>
      </trkpt>
      <trkpt lat="36.7005844116211" lon="-5.01890087127686">
        <ele>1552.33947753906</ele>
        <time>2018-07-28T08:05:43Z</time>
      </trkpt>
      <trkpt lat="36.7005958557129" lon="-5.01889991760254">
        <ele>1552.03527832031</ele>
        <time>2018-07-28T08:05:44Z</time>
      </trkpt>
      <trkpt lat="36.7006034851074" lon="-5.01890087127686">
        <ele>1551.8193359375</ele>
        <time>2018-07-28T08:05:45Z</time>
      </trkpt>
      <trkpt lat="36.7006149291992" lon="-5.01890277862549">
        <ele>1551.49133300781</ele>
        <time>2018-07-28T08:05:46Z</time>
      </trkpt>
      <trkpt lat="36.700626373291" lon="-5.0189061164856">
        <ele>1551.15112304688</ele>
        <time>2018-07-28T08:05:47Z</time>
      </trkpt>
      <trkpt lat="36.7006340026856" lon="-5.01890897750854">
        <ele>1550.91870117188</ele>
        <time>2018-07-28T08:05:48Z</time>
      </trkpt>
      <trkpt lat="36.7006454467773" lon="-5.01891088485718">
        <ele>1550.58984375</ele>
        <time>2018-07-28T08:05:49Z</time>
      </trkpt>
      <trkpt lat="36.7006492614746" lon="-5.01891279220581">
        <ele>1550.46923828125</ele>
        <time>2018-07-28T08:05:50Z</time>
      </trkpt>
      <trkpt lat="36.7006568908691" lon="-5.0189151763916">
        <ele>1550.240234375</ele>
        <time>2018-07-28T08:05:51Z</time>
      </trkpt>
      <trkpt lat="36.7006607055664" lon="-5.01891613006592">
        <ele>1550.12768554688</ele>
        <time>2018-07-28T08:05:52Z</time>
      </trkpt>
      <trkpt lat="36.7006607055664" lon="-5.01891708374023">
        <ele>1550.11950683594</ele>
        <time>2018-07-28T08:05:53Z</time>
      </trkpt>
      <trkpt lat="36.7006645202637" lon="-5.01891899108887">
        <ele>1549.99865722656</ele>
        <time>2018-07-28T08:05:54Z</time>
      </trkpt>
      <trkpt lat="36.7006683349609" lon="-5.01892518997192">
        <ele>1549.84057617188</ele>
        <time>2018-07-28T08:05:55Z</time>
      </trkpt>
      <trkpt lat="36.7006759643555" lon="-5.01892995834351">
        <ele>1549.59008789062</ele>
        <time>2018-07-28T08:05:56Z</time>
      </trkpt>
      <trkpt lat="36.70068359375" lon="-5.01893377304077">
        <ele>1549.34741210938</ele>
        <time>2018-07-28T08:05:57Z</time>
      </trkpt>
      <trkpt lat="36.70068359375" lon="-5.01893281936646">
        <ele>1549.35571289062</ele>
        <time>2018-07-28T08:05:58Z</time>
      </trkpt>
      <trkpt lat="36.7006874084473" lon="-5.01893281936646">
        <ele>1549.2509765625</ele>
        <time>2018-07-28T08:05:59Z</time>
      </trkpt>
      <trkpt lat="36.7006874084473" lon="-5.01893281936646">
        <ele>1549.2509765625</ele>
        <time>2018-07-28T08:06:00Z</time>
      </trkpt>
      <trkpt lat="36.7006912231445" lon="-5.01893615722656">
        <ele>1549.11694335938</ele>
        <time>2018-07-28T08:06:01Z</time>
      </trkpt>
      <trkpt lat="36.7006874084473" lon="-5.01893901824951">
        <ele>1549.19677734375</ele>
        <time>2018-07-28T08:06:02Z</time>
      </trkpt>
      <trkpt lat="36.7006912231445" lon="-5.01894378662109">
        <ele>1549.04992675781</ele>
        <time>2018-07-28T08:06:03Z</time>
      </trkpt>
      <trkpt lat="36.7006912231445" lon="-5.01894807815552">
        <ele>1549.01232910156</ele>
        <time>2018-07-28T08:06:04Z</time>
      </trkpt>
      <trkpt lat="36.7006950378418" lon="-5.01895380020142">
        <ele>1548.85681152344</ele>
        <time>2018-07-28T08:06:05Z</time>
      </trkpt>
      <trkpt lat="36.7006988525391" lon="-5.01895904541016">
        <ele>1548.70544433594</ele>
        <time>2018-07-28T08:06:06Z</time>
      </trkpt>
      <trkpt lat="36.7006988525391" lon="-5.01896190643311">
        <ele>1548.68017578125</ele>
        <time>2018-07-28T08:06:07Z</time>
      </trkpt>
      <trkpt lat="36.7007064819336" lon="-5.01896619796753">
        <ele>1548.43139648438</ele>
        <time>2018-07-28T08:06:08Z</time>
      </trkpt>
      <trkpt lat="36.7007102966309" lon="-5.01897192001343">
        <ele>1548.27502441406</ele>
        <time>2018-07-28T08:06:09Z</time>
      </trkpt>
      <trkpt lat="36.7007141113281" lon="-5.0189790725708">
        <ele>1548.10571289062</ele>
        <time>2018-07-28T08:06:10Z</time>
      </trkpt>
      <trkpt lat="36.7007217407227" lon="-5.01898622512817">
        <ele>1547.830078125</ele>
        <time>2018-07-28T08:06:11Z</time>
      </trkpt>
      <trkpt lat="36.7007255554199" lon="-5.01898908615112">
        <ele>1547.69848632812</ele>
        <time>2018-07-28T08:06:12Z</time>
      </trkpt>
      <trkpt lat="36.7007293701172" lon="-5.01899003982544">
        <ele>1547.583984375</ele>
        <time>2018-07-28T08:06:13Z</time>
      </trkpt>
      <trkpt lat="36.7007331848144" lon="-5.01899194717407">
        <ele>1547.46081542969</ele>
        <time>2018-07-28T08:06:14Z</time>
      </trkpt>
      <trkpt lat="36.7007369995117" lon="-5.0189938545227">
        <ele>1547.33752441406</ele>
        <time>2018-07-28T08:06:15Z</time>
      </trkpt>
      <trkpt lat="36.7007369995117" lon="-5.01899480819702">
        <ele>1547.32885742188</ele>
        <time>2018-07-28T08:06:16Z</time>
      </trkpt>
      <trkpt lat="36.700740814209" lon="-5.0189938545227">
        <ele>1547.2314453125</ele>
        <time>2018-07-28T08:06:17Z</time>
      </trkpt>
      <trkpt lat="36.700740814209" lon="-5.01899290084839">
        <ele>1547.24011230469</ele>
        <time>2018-07-28T08:06:18Z</time>
      </trkpt>
      <trkpt lat="36.7007446289062" lon="-5.01899099349976">
        <ele>1547.1513671875</ele>
        <time>2018-07-28T08:06:19Z</time>
      </trkpt>
      <trkpt lat="36.7007522583008" lon="-5.01899099349976">
        <ele>1546.93933105469</ele>
        <time>2018-07-28T08:06:20Z</time>
      </trkpt>
      <trkpt lat="36.7007598876953" lon="-5.01899099349976">
        <ele>1546.72741699219</ele>
        <time>2018-07-28T08:06:21Z</time>
      </trkpt>
      <trkpt lat="36.7007637023926" lon="-5.01899099349976">
        <ele>1546.62133789062</ele>
        <time>2018-07-28T08:06:22Z</time>
      </trkpt>
      <trkpt lat="36.7007713317871" lon="-5.01898717880249">
        <ele>1546.44458007812</ele>
        <time>2018-07-28T08:06:23Z</time>
      </trkpt>
      <trkpt lat="36.7007751464844" lon="-5.01898622512817">
        <ele>1546.34753417969</ele>
        <time>2018-07-28T08:06:24Z</time>
      </trkpt>
      <trkpt lat="36.7007789611816" lon="-5.0189847946167">
        <ele>1546.2548828125</ele>
        <time>2018-07-28T08:06:25Z</time>
      </trkpt>
      <trkpt lat="36.7007827758789" lon="-5.01898717880249">
        <ele>1546.12683105469</ele>
        <time>2018-07-28T08:06:26Z</time>
      </trkpt>
      <trkpt lat="36.7007865905762" lon="-5.01898622512817">
        <ele>1546.02990722656</ele>
        <time>2018-07-28T08:06:27Z</time>
      </trkpt>
      <trkpt lat="36.7007904052734" lon="-5.01898717880249">
        <ele>1545.9150390625</ele>
        <time>2018-07-28T08:06:28Z</time>
      </trkpt>
      <trkpt lat="36.700798034668" lon="-5.01898717880249">
        <ele>1545.70324707031</ele>
        <time>2018-07-28T08:06:29Z</time>
      </trkpt>
      <trkpt lat="36.700798034668" lon="-5.01898717880249">
        <ele>1545.70324707031</ele>
        <time>2018-07-28T08:06:30Z</time>
      </trkpt>
      <trkpt lat="36.7008018493652" lon="-5.01898717880249">
        <ele>1545.59729003906</ele>
        <time>2018-07-28T08:06:31Z</time>
      </trkpt>
      <trkpt lat="36.7008056640625" lon="-5.01898717880249">
        <ele>1545.49133300781</ele>
        <time>2018-07-28T08:06:32Z</time>
      </trkpt>
      <trkpt lat="36.7008094787598" lon="-5.01898813247681">
        <ele>1545.37646484375</ele>
        <time>2018-07-28T08:06:33Z</time>
      </trkpt>
      <trkpt lat="36.700813293457" lon="-5.01898813247681">
        <ele>1545.2705078125</ele>
        <time>2018-07-28T08:06:34Z</time>
      </trkpt>
      <trkpt lat="36.7008209228516" lon="-5.01898908615112">
        <ele>1545.04956054688</ele>
        <time>2018-07-28T08:06:35Z</time>
      </trkpt>
      <trkpt lat="36.7008247375488" lon="-5.01898717880249">
        <ele>1544.96179199219</ele>
        <time>2018-07-28T08:06:36Z</time>
      </trkpt>
      <trkpt lat="36.7008247375488" lon="-5.01898288726807">
        <ele>1545.00268554688</ele>
        <time>2018-07-28T08:06:37Z</time>
      </trkpt>
      <trkpt lat="36.7008247375488" lon="-5.0189790725708">
        <ele>1545.03918457031</ele>
        <time>2018-07-28T08:06:38Z</time>
      </trkpt>
      <trkpt lat="36.7008285522461" lon="-5.01897287368774">
        <ele>1544.99279785156</ele>
        <time>2018-07-28T08:06:39Z</time>
      </trkpt>
      <trkpt lat="36.7008361816406" lon="-5.01896905899048">
        <ele>1544.79284667969</ele>
        <time>2018-07-28T08:06:40Z</time>
      </trkpt>
      <trkpt lat="36.7008438110352" lon="-5.01896476745606">
        <ele>1544.55493164062</ele>
        <time>2018-07-28T08:06:41Z</time>
      </trkpt>
      <trkpt lat="36.7008476257324" lon="-5.01896381378174">
        <ele>1544.42456054688</ele>
        <time>2018-07-28T08:06:42Z</time>
      </trkpt>
      <trkpt lat="36.7008514404297" lon="-5.01896381378174">
        <ele>1544.28491210938</ele>
        <time>2018-07-28T08:06:43Z</time>
      </trkpt>
      <trkpt lat="36.7008590698242" lon="-5.01896619796753">
        <ele>1543.98315429688</ele>
        <time>2018-07-28T08:06:44Z</time>
      </trkpt>
      <trkpt lat="36.7008666992188" lon="-5.01896905899048">
        <ele>1543.67687988281</ele>
        <time>2018-07-28T08:06:45Z</time>
      </trkpt>
      <trkpt lat="36.7008743286133" lon="-5.01897287368774">
        <ele>1543.36169433594</ele>
        <time>2018-07-28T08:06:46Z</time>
      </trkpt>
      <trkpt lat="36.7008781433106" lon="-5.01897811889648">
        <ele>1543.17260742188</ele>
        <time>2018-07-28T08:06:47Z</time>
      </trkpt>
      <trkpt lat="36.7008819580078" lon="-5.01898384094238">
        <ele>1542.97900390625</ele>
        <time>2018-07-28T08:06:48Z</time>
      </trkpt>
      <trkpt lat="36.7008857727051" lon="-5.01899099349976">
        <ele>1542.77209472656</ele>
        <time>2018-07-28T08:06:49Z</time>
      </trkpt>
      <trkpt lat="36.7008895874023" lon="-5.01899719238281">
        <ele>1542.57434082031</ele>
        <time>2018-07-28T08:06:50Z</time>
      </trkpt>
      <trkpt lat="36.7008934020996" lon="-5.01900291442871">
        <ele>1542.38122558594</ele>
        <time>2018-07-28T08:06:51Z</time>
      </trkpt>
      <trkpt lat="36.7008934020996" lon="-5.01900815963745">
        <ele>1542.33178710938</ele>
        <time>2018-07-28T08:06:52Z</time>
      </trkpt>
      <trkpt lat="36.7008972167969" lon="-5.0190110206604">
        <ele>1542.16577148438</ele>
        <time>2018-07-28T08:06:53Z</time>
      </trkpt>
      <trkpt lat="36.7008934020996" lon="-5.0190110206604">
        <ele>1542.30480957031</ele>
        <time>2018-07-28T08:06:54Z</time>
      </trkpt>
      <trkpt lat="36.7008934020996" lon="-5.01901006698608">
        <ele>1542.31384277344</ele>
        <time>2018-07-28T08:06:55Z</time>
      </trkpt>
      <trkpt lat="36.7008934020996" lon="-5.01901006698608">
        <ele>1542.31384277344</ele>
        <time>2018-07-28T08:06:56Z</time>
      </trkpt>
      <trkpt lat="36.7008895874023" lon="-5.01901483535767">
        <ele>1542.40783691406</ele>
        <time>2018-07-28T08:06:57Z</time>
      </trkpt>
      <trkpt lat="36.7008895874023" lon="-5.01902198791504">
        <ele>1542.34033203125</ele>
        <time>2018-07-28T08:06:58Z</time>
      </trkpt>
      <trkpt lat="36.7008857727051" lon="-5.01903104782104">
        <ele>1542.39367675781</ele>
        <time>2018-07-28T08:06:59Z</time>
      </trkpt>
      <trkpt lat="36.7008857727051" lon="-5.01903820037842">
        <ele>1542.32604980469</ele>
        <time>2018-07-28T08:07:00Z</time>
      </trkpt>
      <trkpt lat="36.7008819580078" lon="-5.01904821395874">
        <ele>1542.3701171875</ele>
        <time>2018-07-28T08:07:01Z</time>
      </trkpt>
      <trkpt lat="36.7008781433106" lon="-5.0190601348877">
        <ele>1542.39575195312</ele>
        <time>2018-07-28T08:07:02Z</time>
      </trkpt>
      <trkpt lat="36.7008743286133" lon="-5.0190749168396">
        <ele>1542.39416503906</ele>
        <time>2018-07-28T08:07:03Z</time>
      </trkpt>
      <trkpt lat="36.700870513916" lon="-5.01908683776856">
        <ele>1542.41931152344</ele>
        <time>2018-07-28T08:07:04Z</time>
      </trkpt>
      <trkpt lat="36.7008666992188" lon="-5.01909685134888">
        <ele>1542.46240234375</ele>
        <time>2018-07-28T08:07:05Z</time>
      </trkpt>
      <trkpt lat="36.7008666992188" lon="-5.0191068649292">
        <ele>1542.3671875</ele>
        <time>2018-07-28T08:07:06Z</time>
      </trkpt>
      <trkpt lat="36.7008628845215" lon="-5.0191159248352">
        <ele>1542.4189453125</ele>
        <time>2018-07-28T08:07:07Z</time>
      </trkpt>
      <trkpt lat="36.7008628845215" lon="-5.01912593841553">
        <ele>1542.32373046875</ele>
        <time>2018-07-28T08:07:08Z</time>
      </trkpt>
      <trkpt lat="36.7008590698242" lon="-5.01913404464722">
        <ele>1542.38427734375</ele>
        <time>2018-07-28T08:07:09Z</time>
      </trkpt>
      <trkpt lat="36.700855255127" lon="-5.01914310455322">
        <ele>1542.435546875</ele>
        <time>2018-07-28T08:07:10Z</time>
      </trkpt>
      <trkpt lat="36.700855255127" lon="-5.01915216445923">
        <ele>1542.34912109375</ele>
        <time>2018-07-28T08:07:11Z</time>
      </trkpt>
      <trkpt lat="36.7008514404297" lon="-5.01916217803955">
        <ele>1542.39099121094</ele>
        <time>2018-07-28T08:07:12Z</time>
      </trkpt>
      <trkpt lat="36.7008476257324" lon="-5.01917123794556">
        <ele>1542.49621582031</ele>
        <time>2018-07-28T08:07:13Z</time>
      </trkpt>
      <trkpt lat="36.7008476257324" lon="-5.0191798210144">
        <ele>1542.51623535156</ele>
        <time>2018-07-28T08:07:14Z</time>
      </trkpt>
      <trkpt lat="36.7008476257324" lon="-5.01918983459473">
        <ele>1542.53967285156</ele>
        <time>2018-07-28T08:07:15Z</time>
      </trkpt>
      <trkpt lat="36.7008438110352" lon="-5.01919889450073">
        <ele>1542.69873046875</ele>
        <time>2018-07-28T08:07:16Z</time>
      </trkpt>
      <trkpt lat="36.7008438110352" lon="-5.01920795440674">
        <ele>1542.71997070312</ele>
        <time>2018-07-28T08:07:17Z</time>
      </trkpt>
      <trkpt lat="36.7008438110352" lon="-5.01921796798706">
        <ele>1542.74365234375</ele>
        <time>2018-07-28T08:07:18Z</time>
      </trkpt>
      <trkpt lat="36.7008438110352" lon="-5.01922702789307">
        <ele>1542.76489257812</ele>
        <time>2018-07-28T08:07:19Z</time>
      </trkpt>
      <trkpt lat="36.7008438110352" lon="-5.01923704147339">
        <ele>1542.78857421875</ele>
        <time>2018-07-28T08:07:20Z</time>
      </trkpt>
      <trkpt lat="36.7008399963379" lon="-5.01924419403076">
        <ele>1542.94396972656</ele>
        <time>2018-07-28T08:07:21Z</time>
      </trkpt>
      <trkpt lat="36.7008399963379" lon="-5.01924896240234">
        <ele>1542.95532226562</ele>
        <time>2018-07-28T08:07:22Z</time>
      </trkpt>
      <trkpt lat="36.7008361816406" lon="-5.01925182342529">
        <ele>1543.10083007812</ele>
        <time>2018-07-28T08:07:23Z</time>
      </trkpt>
      <trkpt lat="36.7008323669434" lon="-5.0192551612854">
        <ele>1543.24157714844</ele>
        <time>2018-07-28T08:07:24Z</time>
      </trkpt>
      <trkpt lat="36.7008323669434" lon="-5.01925897598267">
        <ele>1543.25073242188</ele>
        <time>2018-07-28T08:07:25Z</time>
      </trkpt>
      <trkpt lat="36.7008323669434" lon="-5.01926422119141">
        <ele>1543.26342773438</ele>
        <time>2018-07-28T08:07:26Z</time>
      </trkpt>
      <trkpt lat="36.7008323669434" lon="-5.0192699432373">
        <ele>1543.27722167969</ele>
        <time>2018-07-28T08:07:27Z</time>
      </trkpt>
      <trkpt lat="36.7008323669434" lon="-5.01927423477173">
        <ele>1543.28759765625</ele>
        <time>2018-07-28T08:07:28Z</time>
      </trkpt>
      <trkpt lat="36.7008361816406" lon="-5.01927518844604">
        <ele>1543.15661621094</ele>
        <time>2018-07-28T08:07:29Z</time>
      </trkpt>
      <trkpt lat="36.7008399963379" lon="-5.01927804946899">
        <ele>1543.02429199219</ele>
        <time>2018-07-28T08:07:30Z</time>
      </trkpt>
      <trkpt lat="36.7008438110352" lon="-5.01928281784058">
        <ele>1542.89636230469</ele>
        <time>2018-07-28T08:07:31Z</time>
      </trkpt>
      <trkpt lat="36.7008514404297" lon="-5.01929092407227">
        <ele>1542.63659667969</ele>
        <time>2018-07-28T08:07:32Z</time>
      </trkpt>
      <trkpt lat="36.7008590698242" lon="-5.01929903030396">
        <ele>1542.37646484375</ele>
        <time>2018-07-28T08:07:33Z</time>
      </trkpt>
      <trkpt lat="36.7008666992188" lon="-5.01930379867554">
        <ele>1542.10815429688</ele>
        <time>2018-07-28T08:07:34Z</time>
      </trkpt>
      <trkpt lat="36.700870513916" lon="-5.01930904388428">
        <ele>1541.98034667969</ele>
        <time>2018-07-28T08:07:35Z</time>
      </trkpt>
      <trkpt lat="36.7008743286133" lon="-5.01931285858154">
        <ele>1541.84912109375</ele>
        <time>2018-07-28T08:07:36Z</time>
      </trkpt>
      <trkpt lat="36.7008781433106" lon="-5.01931810379028">
        <ele>1541.72094726562</ele>
        <time>2018-07-28T08:07:37Z</time>
      </trkpt>
      <trkpt lat="36.7008819580078" lon="-5.01932287216186">
        <ele>1541.59155273438</ele>
        <time>2018-07-28T08:07:38Z</time>
      </trkpt>
      <trkpt lat="36.7008895874023" lon="-5.01932811737061">
        <ele>1541.32312011719</ele>
        <time>2018-07-28T08:07:39Z</time>
      </trkpt>
      <trkpt lat="36.7008972167969" lon="-5.0193338394165">
        <ele>1541.05529785156</ele>
        <time>2018-07-28T08:07:40Z</time>
      </trkpt>
      <trkpt lat="36.7009048461914" lon="-5.01933813095093">
        <ele>1540.78405761719</ele>
        <time>2018-07-28T08:07:41Z</time>
      </trkpt>
      <trkpt lat="36.7009124755859" lon="-5.01933908462524">
        <ele>1540.50573730469</ele>
        <time>2018-07-28T08:07:42Z</time>
      </trkpt>
      <trkpt lat="36.7009201049805" lon="-5.0193362236023">
        <ele>1540.21960449219</ele>
        <time>2018-07-28T08:07:43Z</time>
      </trkpt>
      <trkpt lat="36.700927734375" lon="-5.01933288574219">
        <ele>1539.93273925781</ele>
        <time>2018-07-28T08:07:44Z</time>
      </trkpt>
      <trkpt lat="36.7009391784668" lon="-5.0193338394165">
        <ele>1539.51440429688</ele>
        <time>2018-07-28T08:07:45Z</time>
      </trkpt>
      <trkpt lat="36.7009468078613" lon="-5.01933717727661">
        <ele>1539.24060058594</ele>
        <time>2018-07-28T08:07:46Z</time>
      </trkpt>
      <trkpt lat="36.7009544372559" lon="-5.01934289932251">
        <ele>1538.97106933594</ele>
        <time>2018-07-28T08:07:47Z</time>
      </trkpt>
      <trkpt lat="36.7009658813477" lon="-5.01934909820557">
        <ele>1538.56164550781</ele>
        <time>2018-07-28T08:07:48Z</time>
      </trkpt>
      <trkpt lat="36.7009735107422" lon="-5.01935482025146">
        <ele>1538.29125976562</ele>
        <time>2018-07-28T08:07:49Z</time>
      </trkpt>
      <trkpt lat="36.7009773254394" lon="-5.01935815811157">
        <ele>1538.15673828125</ele>
        <time>2018-07-28T08:07:50Z</time>
      </trkpt>
      <trkpt lat="36.7009811401367" lon="-5.01936101913452">
        <ele>1538.02136230469</ele>
        <time>2018-07-28T08:07:51Z</time>
      </trkpt>
      <trkpt lat="36.700984954834" lon="-5.01936388015747">
        <ele>1537.8857421875</ele>
        <time>2018-07-28T08:07:52Z</time>
      </trkpt>
      <trkpt lat="36.7009925842285" lon="-5.01936817169189">
        <ele>1537.61193847656</ele>
        <time>2018-07-28T08:07:53Z</time>
      </trkpt>
      <trkpt lat="36.7009963989258" lon="-5.01937007904053">
        <ele>1537.47448730469</ele>
        <time>2018-07-28T08:07:54Z</time>
      </trkpt>
      <trkpt lat="36.701000213623" lon="-5.01937103271484">
        <ele>1537.33544921875</ele>
        <time>2018-07-28T08:07:55Z</time>
      </trkpt>
      <trkpt lat="36.701000213623" lon="-5.01937007904053">
        <ele>1537.33386230469</ele>
        <time>2018-07-28T08:07:56Z</time>
      </trkpt>
      <trkpt lat="36.7010040283203" lon="-5.01937007904053">
        <ele>1537.19311523438</ele>
        <time>2018-07-28T08:07:57Z</time>
      </trkpt>
      <trkpt lat="36.7010078430176" lon="-5.01937103271484">
        <ele>1537.05407714844</ele>
        <time>2018-07-28T08:07:58Z</time>
      </trkpt>
      <trkpt lat="36.7010116577148" lon="-5.01937198638916">
        <ele>1536.91491699219</ele>
        <time>2018-07-28T08:07:59Z</time>
      </trkpt>
      <trkpt lat="36.7010154724121" lon="-5.01937198638916">
        <ele>1536.77416992188</ele>
        <time>2018-07-28T08:08:00Z</time>
      </trkpt>
      <trkpt lat="36.7010192871094" lon="-5.01937103271484">
        <ele>1536.63195800781</ele>
        <time>2018-07-28T08:08:01Z</time>
      </trkpt>
      <trkpt lat="36.7010231018066" lon="-5.01937198638916">
        <ele>1536.49279785156</ele>
        <time>2018-07-28T08:08:02Z</time>
      </trkpt>
      <trkpt lat="36.7010231018066" lon="-5.01937198638916">
        <ele>1536.49279785156</ele>
        <time>2018-07-28T08:08:03Z</time>
      </trkpt>
      <trkpt lat="36.7010269165039" lon="-5.01937294006348">
        <ele>1536.353515625</ele>
        <time>2018-07-28T08:08:04Z</time>
      </trkpt>
      <trkpt lat="36.7010307312012" lon="-5.01937198638916">
        <ele>1536.21130371094</ele>
        <time>2018-07-28T08:08:05Z</time>
      </trkpt>
      <trkpt lat="36.7010345458984" lon="-5.01937294006348">
        <ele>1536.07214355469</ele>
        <time>2018-07-28T08:08:06Z</time>
      </trkpt>
      <trkpt lat="36.7010383605957" lon="-5.01937389373779">
        <ele>1535.93286132812</ele>
        <time>2018-07-28T08:08:07Z</time>
      </trkpt>
      <trkpt lat="36.701042175293" lon="-5.01937484741211">
        <ele>1535.79345703125</ele>
        <time>2018-07-28T08:08:08Z</time>
      </trkpt>
      <trkpt lat="36.7010459899902" lon="-5.01937913894653">
        <ele>1535.65905761719</ele>
        <time>2018-07-28T08:08:09Z</time>
      </trkpt>
      <trkpt lat="36.7010498046875" lon="-5.01938390731812">
        <ele>1535.52526855469</ele>
        <time>2018-07-28T08:08:10Z</time>
      </trkpt>
      <trkpt lat="36.7010498046875" lon="-5.01938819885254">
        <ele>1535.53149414062</ele>
        <time>2018-07-28T08:08:11Z</time>
      </trkpt>
      <trkpt lat="36.7010536193848" lon="-5.01938915252686">
        <ele>1535.39196777344</ele>
        <time>2018-07-28T08:08:12Z</time>
      </trkpt>
      <trkpt lat="36.7010536193848" lon="-5.01939105987549">
        <ele>1535.39465332031</ele>
        <time>2018-07-28T08:08:13Z</time>
      </trkpt>
      <trkpt lat="36.7010536193848" lon="-5.0193920135498">
        <ele>1535.39611816406</ele>
        <time>2018-07-28T08:08:14Z</time>
      </trkpt>
      <trkpt lat="36.7010612487793" lon="-5.01939487457275">
        <ele>1535.11804199219</ele>
        <time>2018-07-28T08:08:15Z</time>
      </trkpt>
      <trkpt lat="36.7010726928711" lon="-5.01939582824707">
        <ele>1534.69604492188</ele>
        <time>2018-07-28T08:08:16Z</time>
      </trkpt>
      <trkpt lat="36.7010841369629" lon="-5.01939678192139">
        <ele>1534.27404785156</ele>
        <time>2018-07-28T08:08:17Z</time>
      </trkpt>
      <trkpt lat="36.7010917663574" lon="-5.01939916610718">
        <ele>1533.99487304688</ele>
        <time>2018-07-28T08:08:18Z</time>
      </trkpt>
      <trkpt lat="36.701099395752" lon="-5.01940011978149">
        <ele>1533.71374511719</ele>
        <time>2018-07-28T08:08:19Z</time>
      </trkpt>
      <trkpt lat="36.7011070251465" lon="-5.01939916610718">
        <ele>1533.43017578125</ele>
        <time>2018-07-28T08:08:20Z</time>
      </trkpt>
      <trkpt lat="36.701114654541" lon="-5.01939582824707">
        <ele>1533.14392089844</ele>
        <time>2018-07-28T08:08:21Z</time>
      </trkpt>
      <trkpt lat="36.7011184692383" lon="-5.01939296722412">
        <ele>1532.99951171875</ele>
        <time>2018-07-28T08:08:22Z</time>
      </trkpt>
      <trkpt lat="36.7011260986328" lon="-5.01939296722412">
        <ele>1532.71740722656</ele>
        <time>2018-07-28T08:08:23Z</time>
      </trkpt>
      <trkpt lat="36.7011375427246" lon="-5.01939392089844">
        <ele>1532.29516601562</ele>
        <time>2018-07-28T08:08:24Z</time>
      </trkpt>
      <trkpt lat="36.7011451721191" lon="-5.01939296722412">
        <ele>1532.01208496094</ele>
        <time>2018-07-28T08:08:25Z</time>
      </trkpt>
      <trkpt lat="36.7011566162109" lon="-5.01939105987549">
        <ele>1531.58703613281</ele>
        <time>2018-07-28T08:08:26Z</time>
      </trkpt>
      <trkpt lat="36.701171875" lon="-5.0193920135498">
        <ele>1531.02380371094</ele>
        <time>2018-07-28T08:08:27Z</time>
      </trkpt>
      <trkpt lat="36.7011833190918" lon="-5.01939487457275">
        <ele>1530.60314941406</ele>
        <time>2018-07-28T08:08:28Z</time>
      </trkpt>
      <trkpt lat="36.7011947631836" lon="-5.01939916610718">
        <ele>1530.18347167969</ele>
        <time>2018-07-28T08:08:29Z</time>
      </trkpt>
      <trkpt lat="36.7012023925781" lon="-5.01940202713013">
        <ele>1529.90344238281</ele>
        <time>2018-07-28T08:08:30Z</time>
      </trkpt>
      <trkpt lat="36.7012138366699" lon="-5.01940488815308">
        <ele>1529.48205566406</ele>
        <time>2018-07-28T08:08:31Z</time>
      </trkpt>
      <trkpt lat="36.7012214660644" lon="-5.01940822601318">
        <ele>1529.20190429688</ele>
        <time>2018-07-28T08:08:32Z</time>
      </trkpt>
      <trkpt lat="36.7012252807617" lon="-5.01941108703613">
        <ele>1529.06262207031</ele>
        <time>2018-07-28T08:08:33Z</time>
      </trkpt>
      <trkpt lat="36.7012329101562" lon="-5.0194149017334">
        <ele>1528.78247070312</ele>
        <time>2018-07-28T08:08:34Z</time>
      </trkpt>
      <trkpt lat="36.7012367248535" lon="-5.01941680908203">
        <ele>1528.64233398438</ele>
        <time>2018-07-28T08:08:35Z</time>
      </trkpt>
      <trkpt lat="36.7012405395508" lon="-5.01942014694214">
        <ele>1528.50305175781</ele>
        <time>2018-07-28T08:08:36Z</time>
      </trkpt>
      <trkpt lat="36.7012405395508" lon="-5.01942014694214">
        <ele>1528.50305175781</ele>
        <time>2018-07-28T08:08:37Z</time>
      </trkpt>
      <trkpt lat="36.701244354248" lon="-5.01942110061646">
        <ele>1528.36206054688</ele>
        <time>2018-07-28T08:08:38Z</time>
      </trkpt>
      <trkpt lat="36.701244354248" lon="-5.01942110061646">
        <ele>1528.36206054688</ele>
        <time>2018-07-28T08:08:39Z</time>
      </trkpt>
      <trkpt lat="36.7012481689453" lon="-5.01942300796509">
        <ele>1528.22180175781</ele>
        <time>2018-07-28T08:08:40Z</time>
      </trkpt>
      <trkpt lat="36.7012557983398" lon="-5.01942586898804">
        <ele>1527.94030761719</ele>
        <time>2018-07-28T08:08:41Z</time>
      </trkpt>
      <trkpt lat="36.7012596130371" lon="-5.01942920684814">
        <ele>1527.80053710938</ele>
        <time>2018-07-28T08:08:42Z</time>
      </trkpt>
      <trkpt lat="36.7012634277344" lon="-5.01942920684814">
        <ele>1527.65893554688</ele>
        <time>2018-07-28T08:08:43Z</time>
      </trkpt>
      <trkpt lat="36.7012672424316" lon="-5.01942920684814">
        <ele>1527.51721191406</ele>
        <time>2018-07-28T08:08:44Z</time>
      </trkpt>
      <trkpt lat="36.7012710571289" lon="-5.01942920684814">
        <ele>1527.37561035156</ele>
        <time>2018-07-28T08:08:45Z</time>
      </trkpt>
      <trkpt lat="36.7012748718262" lon="-5.01942920684814">
        <ele>1527.23388671875</ele>
        <time>2018-07-28T08:08:46Z</time>
      </trkpt>
      <trkpt lat="36.7012786865234" lon="-5.01942777633667">
        <ele>1527.09155273438</ele>
        <time>2018-07-28T08:08:47Z</time>
      </trkpt>
      <trkpt lat="36.7012786865234" lon="-5.01942777633667">
        <ele>1527.09155273438</ele>
        <time>2018-07-28T08:08:48Z</time>
      </trkpt>
      <trkpt lat="36.7012825012207" lon="-5.01942920684814">
        <ele>1526.95056152344</ele>
        <time>2018-07-28T08:08:49Z</time>
      </trkpt>
      <trkpt lat="36.7012825012207" lon="-5.01943016052246">
        <ele>1526.95104980469</ele>
        <time>2018-07-28T08:08:50Z</time>
      </trkpt>
      <trkpt lat="36.7012825012207" lon="-5.01943111419678">
        <ele>1526.95153808594</ele>
        <time>2018-07-28T08:08:51Z</time>
      </trkpt>
      <trkpt lat="36.701286315918" lon="-5.01943302154541">
        <ele>1526.81066894531</ele>
        <time>2018-07-28T08:08:52Z</time>
      </trkpt>
      <trkpt lat="36.701286315918" lon="-5.01943492889404">
        <ele>1526.8115234375</ele>
        <time>2018-07-28T08:08:53Z</time>
      </trkpt>
      <trkpt lat="36.701286315918" lon="-5.01943683624268">
        <ele>1526.81237792969</ele>
        <time>2018-07-28T08:08:54Z</time>
      </trkpt>
      <trkpt lat="36.7012939453125" lon="-5.0194411277771">
        <ele>1526.53051757812</ele>
        <time>2018-07-28T08:08:55Z</time>
      </trkpt>
      <trkpt lat="36.7012977600098" lon="-5.01944589614868">
        <ele>1526.390625</ele>
        <time>2018-07-28T08:08:56Z</time>
      </trkpt>
      <trkpt lat="36.701301574707" lon="-5.01945018768311">
        <ele>1526.25024414062</ele>
        <time>2018-07-28T08:08:57Z</time>
      </trkpt>
      <trkpt lat="36.7013053894043" lon="-5.01945209503174">
        <ele>1526.10888671875</ele>
        <time>2018-07-28T08:08:58Z</time>
      </trkpt>
      <trkpt lat="36.7013053894043" lon="-5.01945400238037">
        <ele>1526.10961914062</ele>
        <time>2018-07-28T08:08:59Z</time>
      </trkpt>
      <trkpt lat="36.7013092041016" lon="-5.019455909729">
        <ele>1525.96826171875</ele>
        <time>2018-07-28T08:09:00Z</time>
      </trkpt>
      <trkpt lat="36.7013092041016" lon="-5.01945686340332">
        <ele>1525.96850585938</ele>
        <time>2018-07-28T08:09:01Z</time>
      </trkpt>
      <trkpt lat="36.7013092041016" lon="-5.01945781707764">
        <ele>1525.96887207031</ele>
        <time>2018-07-28T08:09:02Z</time>
      </trkpt>
      <trkpt lat="36.7013130187988" lon="-5.01945877075195">
        <ele>1525.82702636719</ele>
        <time>2018-07-28T08:09:03Z</time>
      </trkpt>
      <trkpt lat="36.7013130187988" lon="-5.01945877075195">
        <ele>1525.82702636719</ele>
        <time>2018-07-28T08:09:04Z</time>
      </trkpt>
      <trkpt lat="36.7013168334961" lon="-5.01945877075195">
        <ele>1525.68493652344</ele>
        <time>2018-07-28T08:09:05Z</time>
      </trkpt>
      <trkpt lat="36.7013130187988" lon="-5.01945877075195">
        <ele>1525.82702636719</ele>
        <time>2018-07-28T08:09:06Z</time>
      </trkpt>
      <trkpt lat="36.7013130187988" lon="-5.01946115493774">
        <ele>1525.82788085938</ele>
        <time>2018-07-28T08:09:07Z</time>
      </trkpt>
      <trkpt lat="36.7013130187988" lon="-5.01946306228638">
        <ele>1525.82849121094</ele>
        <time>2018-07-28T08:09:08Z</time>
      </trkpt>
      <trkpt lat="36.7013168334961" lon="-5.01946592330933">
        <ele>1525.68713378906</ele>
        <time>2018-07-28T08:09:09Z</time>
      </trkpt>
      <trkpt lat="36.7013206481934" lon="-5.01947021484375">
        <ele>1525.54614257812</ele>
        <time>2018-07-28T08:09:10Z</time>
      </trkpt>
      <trkpt lat="36.7013282775879" lon="-5.01947498321533">
        <ele>1525.2626953125</ele>
        <time>2018-07-28T08:09:11Z</time>
      </trkpt>
      <trkpt lat="36.7013359069824" lon="-5.0194787979126">
        <ele>1524.97875976562</ele>
        <time>2018-07-28T08:09:12Z</time>
      </trkpt>
      <trkpt lat="36.7013359069824" lon="-5.01948118209839">
        <ele>1524.97937011719</ele>
        <time>2018-07-28T08:09:13Z</time>
      </trkpt>
      <trkpt lat="36.7013397216797" lon="-5.0194821357727">
        <ele>1524.83703613281</ele>
        <time>2018-07-28T08:09:14Z</time>
      </trkpt>
      <trkpt lat="36.7013397216797" lon="-5.01948118209839">
        <ele>1524.83679199219</ele>
        <time>2018-07-28T08:09:15Z</time>
      </trkpt>
      <trkpt lat="36.7013397216797" lon="-5.01948118209839">
        <ele>1524.83679199219</ele>
        <time>2018-07-28T08:09:16Z</time>
      </trkpt>
      <trkpt lat="36.7013397216797" lon="-5.01948022842407">
        <ele>1524.83666992188</ele>
        <time>2018-07-28T08:09:17Z</time>
      </trkpt>
      <trkpt lat="36.701343536377" lon="-5.01948022842407">
        <ele>1524.69409179688</ele>
        <time>2018-07-28T08:09:18Z</time>
      </trkpt>
      <trkpt lat="36.701343536377" lon="-5.01948022842407">
        <ele>1524.69409179688</ele>
        <time>2018-07-28T08:09:19Z</time>
      </trkpt>
      <trkpt lat="36.701343536377" lon="-5.0194821357727">
        <ele>1524.69445800781</ele>
        <time>2018-07-28T08:09:20Z</time>
      </trkpt>
      <trkpt lat="36.7013473510742" lon="-5.01948499679565">
        <ele>1524.55249023438</ele>
        <time>2018-07-28T08:09:21Z</time>
      </trkpt>
      <trkpt lat="36.7013473510742" lon="-5.01948690414429">
        <ele>1524.55285644531</ele>
        <time>2018-07-28T08:09:22Z</time>
      </trkpt>
      <trkpt lat="36.7013511657715" lon="-5.01948976516724">
        <ele>1524.41064453125</ele>
        <time>2018-07-28T08:09:23Z</time>
      </trkpt>
      <trkpt lat="36.7013511657715" lon="-5.01949405670166">
        <ele>1524.41137695312</ele>
        <time>2018-07-28T08:09:24Z</time>
      </trkpt>
      <trkpt lat="36.7013549804688" lon="-5.01949977874756">
        <ele>1524.26953125</ele>
        <time>2018-07-28T08:09:25Z</time>
      </trkpt>
      <trkpt lat="36.701358795166" lon="-5.01950788497925">
        <ele>1524.12768554688</ele>
        <time>2018-07-28T08:09:26Z</time>
      </trkpt>
      <trkpt lat="36.7013626098633" lon="-5.01951503753662">
        <ele>1523.98559570312</ele>
        <time>2018-07-28T08:09:27Z</time>
      </trkpt>
      <trkpt lat="36.7013626098633" lon="-5.01952123641968">
        <ele>1523.986328125</ele>
        <time>2018-07-28T08:09:28Z</time>
      </trkpt>
      <trkpt lat="36.7013626098633" lon="-5.01952409744263">
        <ele>1523.98657226562</ele>
        <time>2018-07-28T08:09:29Z</time>
      </trkpt>
      <trkpt lat="36.7013664245606" lon="-5.01952695846558">
        <ele>1523.84362792969</ele>
        <time>2018-07-28T08:09:30Z</time>
      </trkpt>
      <trkpt lat="36.7013702392578" lon="-5.01952981948853">
        <ele>1523.70068359375</ele>
        <time>2018-07-28T08:09:31Z</time>
      </trkpt>
      <trkpt lat="36.7013702392578" lon="-5.01953077316284">
        <ele>1523.70068359375</ele>
        <time>2018-07-28T08:09:32Z</time>
      </trkpt>
      <trkpt lat="36.7013702392578" lon="-5.01953077316284">
        <ele>1523.70068359375</ele>
        <time>2018-07-28T08:09:33Z</time>
      </trkpt>
      <trkpt lat="36.7013702392578" lon="-5.01952791213989">
        <ele>1523.70043945312</ele>
        <time>2018-07-28T08:09:34Z</time>
      </trkpt>
      <trkpt lat="36.7013664245606" lon="-5.01952600479126">
        <ele>1523.84362792969</ele>
        <time>2018-07-28T08:09:35Z</time>
      </trkpt>
      <trkpt lat="36.7013664245606" lon="-5.01952409744263">
        <ele>1523.84338378906</ele>
        <time>2018-07-28T08:09:36Z</time>
      </trkpt>
      <trkpt lat="36.7013664245606" lon="-5.01952314376831">
        <ele>1523.84326171875</ele>
        <time>2018-07-28T08:09:37Z</time>
      </trkpt>
      <trkpt lat="36.7013664245606" lon="-5.01952219009399">
        <ele>1523.84326171875</ele>
        <time>2018-07-28T08:09:38Z</time>
      </trkpt>
      <trkpt lat="36.7013664245606" lon="-5.01952314376831">
        <ele>1523.84326171875</ele>
        <time>2018-07-28T08:09:39Z</time>
      </trkpt>
      <trkpt lat="36.7013702392578" lon="-5.01952505111694">
        <ele>1523.70031738281</ele>
        <time>2018-07-28T08:09:40Z</time>
      </trkpt>
      <trkpt lat="36.7013702392578" lon="-5.01952791213989">
        <ele>1523.70043945312</ele>
        <time>2018-07-28T08:09:41Z</time>
      </trkpt>
      <trkpt lat="36.7013702392578" lon="-5.01953077316284">
        <ele>1523.70068359375</ele>
        <time>2018-07-28T08:09:42Z</time>
      </trkpt>
      <trkpt lat="36.7013702392578" lon="-5.01953601837158">
        <ele>1523.701171875</ele>
        <time>2018-07-28T08:09:43Z</time>
      </trkpt>
      <trkpt lat="36.7013702392578" lon="-5.01954221725464">
        <ele>1523.70166015625</ele>
        <time>2018-07-28T08:09:44Z</time>
      </trkpt>
      <trkpt lat="36.7013664245606" lon="-5.01954698562622">
        <ele>1523.84558105469</ele>
        <time>2018-07-28T08:09:45Z</time>
      </trkpt>
      <trkpt lat="36.701358795166" lon="-5.01955223083496">
        <ele>1524.13354492188</ele>
        <time>2018-07-28T08:09:46Z</time>
      </trkpt>
      <trkpt lat="36.7013511657715" lon="-5.01955699920654">
        <ele>1524.42163085938</ele>
        <time>2018-07-28T08:09:47Z</time>
      </trkpt>
      <trkpt lat="36.701343536377" lon="-5.01956081390381">
        <ele>1524.7099609375</ele>
        <time>2018-07-28T08:09:48Z</time>
      </trkpt>
      <trkpt lat="36.701343536377" lon="-5.01956701278686">
        <ele>1524.71118164062</ele>
        <time>2018-07-28T08:09:49Z</time>
      </trkpt>
      <trkpt lat="36.7013397216797" lon="-5.01957178115845">
        <ele>1524.85607910156</ele>
        <time>2018-07-28T08:09:50Z</time>
      </trkpt>
      <trkpt lat="36.701343536377" lon="-5.0195779800415">
        <ele>1524.71325683594</ele>
        <time>2018-07-28T08:09:51Z</time>
      </trkpt>
      <trkpt lat="36.701343536377" lon="-5.01958084106445">
        <ele>1524.7138671875</ele>
        <time>2018-07-28T08:09:52Z</time>
      </trkpt>
      <trkpt lat="36.7013473510742" lon="-5.01958513259888">
        <ele>1524.57043457031</ele>
        <time>2018-07-28T08:09:53Z</time>
      </trkpt>
      <trkpt lat="36.7013473510742" lon="-5.01958799362183">
        <ele>1524.57092285156</ele>
        <time>2018-07-28T08:09:54Z</time>
      </trkpt>
      <trkpt lat="36.7013511657715" lon="-5.01959180831909">
        <ele>1524.42736816406</ele>
        <time>2018-07-28T08:09:55Z</time>
      </trkpt>
      <trkpt lat="36.7013511657715" lon="-5.01959609985352">
        <ele>1524.42797851562</ele>
        <time>2018-07-28T08:09:56Z</time>
      </trkpt>
      <trkpt lat="36.7013511657715" lon="-5.01959896087646">
        <ele>1524.42846679688</ele>
        <time>2018-07-28T08:09:57Z</time>
      </trkpt>
      <trkpt lat="36.7013511657715" lon="-5.01959991455078">
        <ele>1524.42858886719</ele>
        <time>2018-07-28T08:09:58Z</time>
      </trkpt>
      <trkpt lat="36.7013511657715" lon="-5.01960277557373">
        <ele>1524.42907714844</ele>
        <time>2018-07-28T08:09:59Z</time>
      </trkpt>
      <trkpt lat="36.7013549804688" lon="-5.01960706710815">
        <ele>1524.28515625</ele>
        <time>2018-07-28T08:10:00Z</time>
      </trkpt>
      <trkpt lat="36.7013549804688" lon="-5.01961278915405">
        <ele>1524.28601074219</ele>
        <time>2018-07-28T08:10:01Z</time>
      </trkpt>
      <trkpt lat="36.701358795166" lon="-5.01961898803711">
        <ele>1524.14221191406</ele>
        <time>2018-07-28T08:10:02Z</time>
      </trkpt>
      <trkpt lat="36.701358795166" lon="-5.01962518692017">
        <ele>1524.14294433594</ele>
        <time>2018-07-28T08:10:03Z</time>
      </trkpt>
      <trkpt lat="36.701358795166" lon="-5.01962995529175">
        <ele>1524.1435546875</ele>
        <time>2018-07-28T08:10:04Z</time>
      </trkpt>
      <trkpt lat="36.701358795166" lon="-5.01963376998901">
        <ele>1524.14404296875</ele>
        <time>2018-07-28T08:10:05Z</time>
      </trkpt>
      <trkpt lat="36.701358795166" lon="-5.01963806152344">
        <ele>1524.14465332031</ele>
        <time>2018-07-28T08:10:06Z</time>
      </trkpt>
      <trkpt lat="36.7013549804688" lon="-5.01964092254639">
        <ele>1524.29016113281</ele>
        <time>2018-07-28T08:10:07Z</time>
      </trkpt>
      <trkpt lat="36.7013511657715" lon="-5.01964521408081">
        <ele>1524.43603515625</ele>
        <time>2018-07-28T08:10:08Z</time>
      </trkpt>
      <trkpt lat="36.7013511657715" lon="-5.01964807510376">
        <ele>1524.4365234375</ele>
        <time>2018-07-28T08:10:09Z</time>
      </trkpt>
      <trkpt lat="36.7013549804688" lon="-5.01965188980103">
        <ele>1524.29174804688</ele>
        <time>2018-07-28T08:10:10Z</time>
      </trkpt>
      <trkpt lat="36.701358795166" lon="-5.01965808868408">
        <ele>1524.14721679688</ele>
        <time>2018-07-28T08:10:11Z</time>
      </trkpt>
      <trkpt lat="36.7013626098633" lon="-5.01966714859009">
        <ele>1524.00280761719</ele>
        <time>2018-07-28T08:10:12Z</time>
      </trkpt>
      <trkpt lat="36.7013664245606" lon="-5.01967716217041">
        <ele>1523.85827636719</ele>
        <time>2018-07-28T08:10:13Z</time>
      </trkpt>
      <trkpt lat="36.7013702392578" lon="-5.01968622207642">
        <ele>1523.71325683594</ele>
        <time>2018-07-28T08:10:14Z</time>
      </trkpt>
      <trkpt lat="36.7013702392578" lon="-5.01969480514526">
        <ele>1523.71398925781</ele>
        <time>2018-07-28T08:10:15Z</time>
      </trkpt>
      <trkpt lat="36.7013740539551" lon="-5.01970291137695">
        <ele>1523.56848144531</ele>
        <time>2018-07-28T08:10:16Z</time>
      </trkpt>
      <trkpt lat="36.7013816833496" lon="-5.01971387863159">
        <ele>1523.27648925781</ele>
        <time>2018-07-28T08:10:17Z</time>
      </trkpt>
      <trkpt lat="36.7013816833496" lon="-5.01972579956055">
        <ele>1523.27685546875</ele>
        <time>2018-07-28T08:10:18Z</time>
      </trkpt>
      <trkpt lat="36.7013854980469" lon="-5.01973819732666">
        <ele>1523.13049316406</ele>
        <time>2018-07-28T08:10:19Z</time>
      </trkpt>
      <trkpt lat="36.7013854980469" lon="-5.01974582672119">
        <ele>1523.13049316406</ele>
        <time>2018-07-28T08:10:20Z</time>
      </trkpt>
      <trkpt lat="36.7013893127441" lon="-5.01975297927856">
        <ele>1522.98364257812</ele>
        <time>2018-07-28T08:10:21Z</time>
      </trkpt>
      <trkpt lat="36.7013893127441" lon="-5.01976108551025">
        <ele>1522.98364257812</ele>
        <time>2018-07-28T08:10:22Z</time>
      </trkpt>
      <trkpt lat="36.7013854980469" lon="-5.01976823806763">
        <ele>1523.130859375</ele>
        <time>2018-07-28T08:10:23Z</time>
      </trkpt>
      <trkpt lat="36.7013854980469" lon="-5.01977396011353">
        <ele>1523.13098144531</ele>
        <time>2018-07-28T08:10:24Z</time>
      </trkpt>
      <trkpt lat="36.7013854980469" lon="-5.01978015899658">
        <ele>1523.13110351562</ele>
        <time>2018-07-28T08:10:25Z</time>
      </trkpt>
      <trkpt lat="36.7013854980469" lon="-5.0197868347168">
        <ele>1523.13110351562</ele>
        <time>2018-07-28T08:10:26Z</time>
      </trkpt>
      <trkpt lat="36.7013816833496" lon="-5.01979207992554">
        <ele>1523.27880859375</ele>
        <time>2018-07-28T08:10:27Z</time>
      </trkpt>
      <trkpt lat="36.7013816833496" lon="-5.01979923248291">
        <ele>1523.27905273438</ele>
        <time>2018-07-28T08:10:28Z</time>
      </trkpt>
      <trkpt lat="36.7013778686523" lon="-5.01980400085449">
        <ele>1523.42712402344</ele>
        <time>2018-07-28T08:10:29Z</time>
      </trkpt>
      <trkpt lat="36.7013702392578" lon="-5.0198130607605">
        <ele>1523.72351074219</ele>
        <time>2018-07-28T08:10:30Z</time>
      </trkpt>
      <trkpt lat="36.7013702392578" lon="-5.01982116699219">
        <ele>1523.72412109375</ele>
        <time>2018-07-28T08:10:31Z</time>
      </trkpt>
      <trkpt lat="36.7013626098633" lon="-5.01983308792114">
        <ele>1524.02172851562</ele>
        <time>2018-07-28T08:10:32Z</time>
      </trkpt>
      <trkpt lat="36.701358795166" lon="-5.01984119415283">
        <ele>1524.17102050781</ele>
        <time>2018-07-28T08:10:33Z</time>
      </trkpt>
      <trkpt lat="36.7013511657715" lon="-5.01984977722168">
        <ele>1524.46936035156</ele>
        <time>2018-07-28T08:10:34Z</time>
      </trkpt>
      <trkpt lat="36.7013473510742" lon="-5.01985692977905">
        <ele>1524.61926269531</ele>
        <time>2018-07-28T08:10:35Z</time>
      </trkpt>
      <trkpt lat="36.701343536377" lon="-5.01986408233643">
        <ele>1524.76928710938</ele>
        <time>2018-07-28T08:10:36Z</time>
      </trkpt>
      <trkpt lat="36.7013397216797" lon="-5.01987314224243">
        <ele>1524.92004394531</ele>
        <time>2018-07-28T08:10:37Z</time>
      </trkpt>
      <trkpt lat="36.7013359069824" lon="-5.01987886428833">
        <ele>1525.0703125</ele>
        <time>2018-07-28T08:10:38Z</time>
      </trkpt>
      <trkpt lat="36.7013282775879" lon="-5.01988792419434">
        <ele>1525.37084960938</ele>
        <time>2018-07-28T08:10:39Z</time>
      </trkpt>
      <trkpt lat="36.7013244628906" lon="-5.01989698410034">
        <ele>1525.52258300781</ele>
        <time>2018-07-28T08:10:40Z</time>
      </trkpt>
      <trkpt lat="36.7013244628906" lon="-5.01990985870361">
        <ele>1525.52612304688</ele>
        <time>2018-07-28T08:10:41Z</time>
      </trkpt>
      <trkpt lat="36.7013282775879" lon="-5.01992321014404">
        <ele>1525.38012695312</ele>
        <time>2018-07-28T08:10:42Z</time>
      </trkpt>
      <trkpt lat="36.7013320922852" lon="-5.01993417739868">
        <ele>1525.23303222656</ele>
        <time>2018-07-28T08:10:43Z</time>
      </trkpt>
      <trkpt lat="36.7013320922852" lon="-5.01994323730469">
        <ele>1525.23522949219</ele>
        <time>2018-07-28T08:10:44Z</time>
      </trkpt>
      <trkpt lat="36.7013320922852" lon="-5.01995086669922">
        <ele>1525.23706054688</ele>
        <time>2018-07-28T08:10:45Z</time>
      </trkpt>
      <trkpt lat="36.7013282775879" lon="-5.01995801925659">
        <ele>1525.38916015625</ele>
        <time>2018-07-28T08:10:46Z</time>
      </trkpt>
      <trkpt lat="36.7013244628906" lon="-5.01996517181396">
        <ele>1525.54162597656</ele>
        <time>2018-07-28T08:10:47Z</time>
      </trkpt>
      <trkpt lat="36.7013168334961" lon="-5.01996994018555">
        <ele>1525.84399414062</ele>
        <time>2018-07-28T08:10:48Z</time>
      </trkpt>
      <trkpt lat="36.7013092041016" lon="-5.01997709274292">
        <ele>1526.14758300781</ele>
        <time>2018-07-28T08:10:49Z</time>
      </trkpt>
      <trkpt lat="36.701301574707" lon="-5.01998281478882">
        <ele>1526.451171875</ele>
        <time>2018-07-28T08:10:50Z</time>
      </trkpt>
      <trkpt lat="36.7012939453125" lon="-5.01998805999756">
        <ele>1526.7548828125</ele>
        <time>2018-07-28T08:10:51Z</time>
      </trkpt>
      <trkpt lat="36.7012901306152" lon="-5.01999282836914">
        <ele>1526.90771484375</ele>
        <time>2018-07-28T08:10:52Z</time>
      </trkpt>
      <trkpt lat="36.7012825012207" lon="-5.01999807357788">
        <ele>1527.21203613281</ele>
        <time>2018-07-28T08:10:53Z</time>
      </trkpt>
      <trkpt lat="36.7012786865234" lon="-5.02000284194946">
        <ele>1527.35986328125</ele>
        <time>2018-07-28T08:10:54Z</time>
      </trkpt>
      <trkpt lat="36.7012748718262" lon="-5.0200080871582">
        <ele>1527.50366210938</ele>
        <time>2018-07-28T08:10:55Z</time>
      </trkpt>
      <trkpt lat="36.7012710571289" lon="-5.0200138092041">
        <ele>1527.64709472656</ele>
        <time>2018-07-28T08:10:56Z</time>
      </trkpt>
      <trkpt lat="36.7012672424316" lon="-5.02001905441284">
        <ele>1527.79150390625</ele>
        <time>2018-07-28T08:10:57Z</time>
      </trkpt>
      <trkpt lat="36.7012672424316" lon="-5.02002286911011">
        <ele>1527.78637695312</ele>
        <time>2018-07-28T08:10:58Z</time>
      </trkpt>
      <trkpt lat="36.7012672424316" lon="-5.02002716064453">
        <ele>1527.78051757812</ele>
        <time>2018-07-28T08:10:59Z</time>
      </trkpt>
      <trkpt lat="36.7012672424316" lon="-5.02002906799316">
        <ele>1527.77795410156</ele>
        <time>2018-07-28T08:11:00Z</time>
      </trkpt>
      <trkpt lat="36.7012634277344" lon="-5.02003288269043">
        <ele>1527.92492675781</ele>
        <time>2018-07-28T08:11:01Z</time>
      </trkpt>
      <trkpt lat="36.7012596130371" lon="-5.02003812789917">
        <ele>1528.07043457031</ele>
        <time>2018-07-28T08:11:02Z</time>
      </trkpt>
      <trkpt lat="36.7012596130371" lon="-5.02004289627075">
        <ele>1528.06433105469</ele>
        <time>2018-07-28T08:11:03Z</time>
      </trkpt>
      <trkpt lat="36.7012596130371" lon="-5.02005004882812">
        <ele>1528.05505371094</ele>
        <time>2018-07-28T08:11:04Z</time>
      </trkpt>
      <trkpt lat="36.7012596130371" lon="-5.02005481719971">
        <ele>1528.04895019531</ele>
        <time>2018-07-28T08:11:05Z</time>
      </trkpt>
      <trkpt lat="36.7012596130371" lon="-5.02006196975708">
        <ele>1528.03979492188</ele>
        <time>2018-07-28T08:11:06Z</time>
      </trkpt>
      <trkpt lat="36.7012557983398" lon="-5.0200629234314">
        <ele>1528.19177246094</ele>
        <time>2018-07-28T08:11:07Z</time>
      </trkpt>
      <trkpt lat="36.7012519836426" lon="-5.02006578445435">
        <ele>1528.34143066406</ele>
        <time>2018-07-28T08:11:08Z</time>
      </trkpt>
      <trkpt lat="36.7012519836426" lon="-5.02006912231445">
        <ele>1528.33728027344</ele>
        <time>2018-07-28T08:11:09Z</time>
      </trkpt>
      <trkpt lat="36.7012596130371" lon="-5.02007389068604">
        <ele>1528.02453613281</ele>
        <time>2018-07-28T08:11:10Z</time>
      </trkpt>
      <trkpt lat="36.7012634277344" lon="-5.02008104324341">
        <ele>1527.86157226562</ele>
        <time>2018-07-28T08:11:11Z</time>
      </trkpt>
      <trkpt lat="36.7012710571289" lon="-5.02009010314941">
        <ele>1527.54162597656</ele>
        <time>2018-07-28T08:11:12Z</time>
      </trkpt>
      <trkpt lat="36.7012748718262" lon="-5.02009916305542">
        <ele>1527.37475585938</ele>
        <time>2018-07-28T08:11:13Z</time>
      </trkpt>
      <trkpt lat="36.7012825012207" lon="-5.02011013031006">
        <ele>1527.04992675781</ele>
        <time>2018-07-28T08:11:14Z</time>
      </trkpt>
      <trkpt lat="36.701286315918" lon="-5.02012014389038">
        <ele>1526.88000488281</ele>
        <time>2018-07-28T08:11:15Z</time>
      </trkpt>
      <trkpt lat="36.7012939453125" lon="-5.0201301574707">
        <ele>1526.55419921875</ele>
        <time>2018-07-28T08:11:16Z</time>
      </trkpt>
      <trkpt lat="36.7012939453125" lon="-5.02013492584228">
        <ele>1526.54663085938</ele>
        <time>2018-07-28T08:11:17Z</time>
      </trkpt>
      <trkpt lat="36.7012939453125" lon="-5.02014017105103">
        <ele>1526.53833007812</ele>
        <time>2018-07-28T08:11:18Z</time>
      </trkpt>
      <trkpt lat="36.7012939453125" lon="-5.02014398574829">
        <ele>1526.53234863281</ele>
        <time>2018-07-28T08:11:19Z</time>
      </trkpt>
      <trkpt lat="36.7012977600098" lon="-5.02015018463135">
        <ele>1526.36645507812</ele>
        <time>2018-07-28T08:11:20Z</time>
      </trkpt>
      <trkpt lat="36.7013053894043" lon="-5.02016019821167">
        <ele>1526.03771972656</ele>
        <time>2018-07-28T08:11:21Z</time>
      </trkpt>
      <trkpt lat="36.7013206481934" lon="-5.02017307281494">
        <ele>1525.38903808594</ele>
        <time>2018-07-28T08:11:22Z</time>
      </trkpt>
      <trkpt lat="36.7013359069824" lon="-5.0201849937439">
        <ele>1524.73876953125</ele>
        <time>2018-07-28T08:11:23Z</time>
      </trkpt>
      <trkpt lat="36.7013473510742" lon="-5.02019596099854">
        <ele>1524.24487304688</ele>
        <time>2018-07-28T08:11:24Z</time>
      </trkpt>
      <trkpt lat="36.7013511657715" lon="-5.02020406723022">
        <ele>1524.07055664062</ele>
        <time>2018-07-28T08:11:25Z</time>
      </trkpt>
      <trkpt lat="36.7013549804688" lon="-5.0202112197876">
        <ele>1523.89770507812</ele>
        <time>2018-07-28T08:11:26Z</time>
      </trkpt>
      <trkpt lat="36.7013626098633" lon="-5.02021312713623">
        <ele>1523.57751464844</ele>
        <time>2018-07-28T08:11:27Z</time>
      </trkpt>
      <trkpt lat="36.7013664245606" lon="-5.02021503448486">
        <ele>1523.41528320312</ele>
        <time>2018-07-28T08:11:28Z</time>
      </trkpt>
      <trkpt lat="36.7013702392578" lon="-5.02021408081055">
        <ele>1523.25927734375</ele>
        <time>2018-07-28T08:11:29Z</time>
      </trkpt>
      <trkpt lat="36.7013816833496" lon="-5.0202169418335">
        <ele>1522.77819824219</ele>
        <time>2018-07-28T08:11:30Z</time>
      </trkpt>
      <trkpt lat="36.7013854980469" lon="-5.02021980285644">
        <ele>1522.61315917969</ele>
        <time>2018-07-28T08:11:31Z</time>
      </trkpt>
      <trkpt lat="36.7013931274414" lon="-5.02022409439087">
        <ele>1522.2861328125</ele>
        <time>2018-07-28T08:11:32Z</time>
      </trkpt>
      <trkpt lat="36.7014007568359" lon="-5.02022695541382">
        <ele>1521.96203613281</ele>
        <time>2018-07-28T08:11:33Z</time>
      </trkpt>
      <trkpt lat="36.7014045715332" lon="-5.02022886276245">
        <ele>1521.79870605469</ele>
        <time>2018-07-28T08:11:34Z</time>
      </trkpt>
      <trkpt lat="36.7014045715332" lon="-5.02023077011108">
        <ele>1521.79382324219</ele>
        <time>2018-07-28T08:11:35Z</time>
      </trkpt>
      <trkpt lat="36.7014122009277" lon="-5.02023506164551">
        <ele>1521.46533203125</ele>
        <time>2018-07-28T08:11:36Z</time>
      </trkpt>
      <trkpt lat="36.701416015625" lon="-5.02024221420288">
        <ele>1521.28771972656</ele>
        <time>2018-07-28T08:11:37Z</time>
      </trkpt>
      <trkpt lat="36.7014198303223" lon="-5.02024698257446">
        <ele>1521.11596679688</ele>
        <time>2018-07-28T08:11:38Z</time>
      </trkpt>
      <trkpt lat="36.7014198303223" lon="-5.0202488899231">
        <ele>1521.11083984375</ele>
        <time>2018-07-28T08:11:39Z</time>
      </trkpt>
      <trkpt lat="36.7014198303223" lon="-5.02024793624878">
        <ele>1521.11340332031</ele>
        <time>2018-07-28T08:11:40Z</time>
      </trkpt>
      <trkpt lat="36.7014236450195" lon="-5.0202488899231">
        <ele>1520.95153808594</ele>
        <time>2018-07-28T08:11:41Z</time>
      </trkpt>
      <trkpt lat="36.7014312744141" lon="-5.02025079727173">
        <ele>1520.62780761719</ele>
        <time>2018-07-28T08:11:42Z</time>
      </trkpt>
      <trkpt lat="36.7014389038086" lon="-5.0202579498291">
        <ele>1520.28881835938</ele>
        <time>2018-07-28T08:11:43Z</time>
      </trkpt>
      <trkpt lat="36.7014465332031" lon="-5.02026605606079">
        <ele>1519.9462890625</ele>
        <time>2018-07-28T08:11:44Z</time>
      </trkpt>
      <trkpt lat="36.7014541625977" lon="-5.02027416229248">
        <ele>1519.6025390625</ele>
        <time>2018-07-28T08:11:45Z</time>
      </trkpt>
      <trkpt lat="36.7014617919922" lon="-5.02027988433838">
        <ele>1519.26501464844</ele>
        <time>2018-07-28T08:11:46Z</time>
      </trkpt>
      <trkpt lat="36.7014694213867" lon="-5.02028512954712">
        <ele>1518.92822265625</ele>
        <time>2018-07-28T08:11:47Z</time>
      </trkpt>
      <trkpt lat="36.701473236084" lon="-5.02028894424438">
        <ele>1518.755859375</ele>
        <time>2018-07-28T08:11:48Z</time>
      </trkpt>
      <trkpt lat="36.7014808654785" lon="-5.0202898979187">
        <ele>1518.431640625</ele>
        <time>2018-07-28T08:11:49Z</time>
      </trkpt>
      <trkpt lat="36.7014846801758" lon="-5.02028703689575">
        <ele>1518.2802734375</ele>
        <time>2018-07-28T08:11:50Z</time>
      </trkpt>
      <trkpt lat="36.701488494873" lon="-5.02028179168701">
        <ele>1518.13684082031</ele>
        <time>2018-07-28T08:11:51Z</time>
      </trkpt>
      <trkpt lat="36.7014923095703" lon="-5.02027702331543">
        <ele>1517.9921875</ele>
        <time>2018-07-28T08:11:52Z</time>
      </trkpt>
      <trkpt lat="36.7014961242676" lon="-5.02027177810669">
        <ele>1517.84936523438</ele>
        <time>2018-07-28T08:11:53Z</time>
      </trkpt>
      <trkpt lat="36.7015037536621" lon="-5.02026891708374">
        <ele>1517.5390625</ele>
        <time>2018-07-28T08:11:54Z</time>
      </trkpt>
      <trkpt lat="36.7015075683594" lon="-5.02026796340942">
        <ele>1517.38244628906</ele>
        <time>2018-07-28T08:11:55Z</time>
      </trkpt>
      <trkpt lat="36.7015113830566" lon="-5.02026891708374">
        <ele>1517.21923828125</ele>
        <time>2018-07-28T08:11:56Z</time>
      </trkpt>
      <trkpt lat="36.7015228271484" lon="-5.02026891708374">
        <ele>1516.73950195312</ele>
        <time>2018-07-28T08:11:57Z</time>
      </trkpt>
      <trkpt lat="36.7015266418457" lon="-5.02026796340942">
        <ele>1516.58288574219</ele>
        <time>2018-07-28T08:11:58Z</time>
      </trkpt>
      <trkpt lat="36.7015342712402" lon="-5.02026510238647">
        <ele>1516.27355957031</ele>
        <time>2018-07-28T08:11:59Z</time>
      </trkpt>
      <trkpt lat="36.7015380859375" lon="-5.02026081085205">
        <ele>1516.12963867188</ele>
        <time>2018-07-28T08:12:00Z</time>
      </trkpt>
      <trkpt lat="36.7015419006348" lon="-5.02025413513184">
        <ele>1515.99487304688</ele>
        <time>2018-07-28T08:12:01Z</time>
      </trkpt>
      <trkpt lat="36.701545715332" lon="-5.0202488899231">
        <ele>1515.85510253906</ele>
        <time>2018-07-28T08:12:02Z</time>
      </trkpt>
      <trkpt lat="36.7015495300293" lon="-5.02024507522583">
        <ele>1515.71032714844</ele>
        <time>2018-07-28T08:12:03Z</time>
      </trkpt>
      <trkpt lat="36.7015571594238" lon="-5.02024412155151">
        <ele>1515.39562988281</ele>
        <time>2018-07-28T08:12:04Z</time>
      </trkpt>
      <trkpt lat="36.7015609741211" lon="-5.02023887634277">
        <ele>1515.25695800781</ele>
        <time>2018-07-28T08:12:05Z</time>
      </trkpt>
      <trkpt lat="36.7015647888184" lon="-5.02023077011108">
        <ele>1515.12976074219</ele>
        <time>2018-07-28T08:12:06Z</time>
      </trkpt>
      <trkpt lat="36.7015647888184" lon="-5.02022123336792">
        <ele>1515.16723632812</ele>
        <time>2018-07-28T08:12:07Z</time>
      </trkpt>
      <trkpt lat="36.7015609741211" lon="-5.02021408081055">
        <ele>1515.35327148438</ele>
        <time>2018-07-28T08:12:08Z</time>
      </trkpt>
      <trkpt lat="36.7015571594238" lon="-5.02020788192749">
        <ele>1515.53540039062</ele>
        <time>2018-07-28T08:12:09Z</time>
      </trkpt>
      <trkpt lat="36.7015571594238" lon="-5.02020597457886">
        <ele>1515.54272460938</ele>
        <time>2018-07-28T08:12:10Z</time>
      </trkpt>
      <trkpt lat="36.7015609741211" lon="-5.02020311355591">
        <ele>1515.39599609375</ele>
        <time>2018-07-28T08:12:11Z</time>
      </trkpt>
      <trkpt lat="36.7015647888184" lon="-5.02020120620728">
        <ele>1515.24572753906</ele>
        <time>2018-07-28T08:12:12Z</time>
      </trkpt>
      <trkpt lat="36.7015686035156" lon="-5.02019786834717">
        <ele>1515.10119628906</ele>
        <time>2018-07-28T08:12:13Z</time>
      </trkpt>
      <trkpt lat="36.7015724182129" lon="-5.0201940536499">
        <ele>1514.95874023438</ele>
        <time>2018-07-28T08:12:14Z</time>
      </trkpt>
      <trkpt lat="36.7015724182129" lon="-5.02018880844116">
        <ele>1514.97973632812</ele>
        <time>2018-07-28T08:12:15Z</time>
      </trkpt>
      <trkpt lat="36.7015724182129" lon="-5.02018594741821">
        <ele>1514.99108886719</ele>
        <time>2018-07-28T08:12:16Z</time>
      </trkpt>
      <trkpt lat="36.7015762329102" lon="-5.02018308639526">
        <ele>1514.84545898438</ele>
        <time>2018-07-28T08:12:17Z</time>
      </trkpt>
      <trkpt lat="36.7015800476074" lon="-5.02018213272095">
        <ele>1514.69213867188</ele>
        <time>2018-07-28T08:12:18Z</time>
      </trkpt>
      <trkpt lat="36.7015914916992" lon="-5.02018308639526">
        <ele>1514.21704101562</ele>
        <time>2018-07-28T08:12:19Z</time>
      </trkpt>
      <trkpt lat="36.7015991210938" lon="-5.02018594741821">
        <ele>1513.89074707031</ele>
        <time>2018-07-28T08:12:20Z</time>
      </trkpt>
      <trkpt lat="36.7016105651856" lon="-5.02018976211548">
        <ele>1513.40270996094</ele>
        <time>2018-07-28T08:12:21Z</time>
      </trkpt>
      <trkpt lat="36.7016181945801" lon="-5.02019309997559">
        <ele>1513.07348632812</ele>
        <time>2018-07-28T08:12:22Z</time>
      </trkpt>
      <trkpt lat="36.7016220092773" lon="-5.02019596099854">
        <ele>1512.90344238281</ele>
        <time>2018-07-28T08:12:23Z</time>
      </trkpt>
      <trkpt lat="36.7016258239746" lon="-5.0201997756958">
        <ele>1512.72900390625</ele>
        <time>2018-07-28T08:12:24Z</time>
      </trkpt>
      <trkpt lat="36.7016258239746" lon="-5.02020406723022">
        <ele>1512.70983886719</ele>
        <time>2018-07-28T08:12:25Z</time>
      </trkpt>
      <trkpt lat="36.7016296386719" lon="-5.02020883560181">
        <ele>1512.53076171875</ele>
        <time>2018-07-28T08:12:26Z</time>
      </trkpt>
      <trkpt lat="36.7016296386719" lon="-5.02021408081055">
        <ele>1512.50720214844</ele>
        <time>2018-07-28T08:12:27Z</time>
      </trkpt>
      <trkpt lat="36.7016334533691" lon="-5.02021312713623">
        <ele>1512.35339355469</ele>
        <time>2018-07-28T08:12:28Z</time>
      </trkpt>
      <trkpt lat="36.7016334533691" lon="-5.0202112197876">
        <ele>1512.36206054688</ele>
        <time>2018-07-28T08:12:29Z</time>
      </trkpt>
      <trkpt lat="36.7016334533691" lon="-5.0202112197876">
        <ele>1512.36206054688</ele>
        <time>2018-07-28T08:12:30Z</time>
      </trkpt>
      <trkpt lat="36.7016372680664" lon="-5.02021408081055">
        <ele>1512.19091796875</ele>
        <time>2018-07-28T08:12:31Z</time>
      </trkpt>
      <trkpt lat="36.7016372680664" lon="-5.02021503448486">
        <ele>1512.18664550781</ele>
        <time>2018-07-28T08:12:32Z</time>
      </trkpt>
      <trkpt lat="36.7016410827637" lon="-5.0202169418335">
        <ele>1512.01977539062</ele>
        <time>2018-07-28T08:12:33Z</time>
      </trkpt>
      <trkpt lat="36.7016448974609" lon="-5.02021598815918">
        <ele>1511.86596679688</ele>
        <time>2018-07-28T08:12:34Z</time>
      </trkpt>
      <trkpt lat="36.7016487121582" lon="-5.02021598815918">
        <ele>1511.70776367188</ele>
        <time>2018-07-28T08:12:35Z</time>
      </trkpt>
      <trkpt lat="36.7016448974609" lon="-5.02021598815918">
        <ele>1511.86596679688</ele>
        <time>2018-07-28T08:12:36Z</time>
      </trkpt>
      <trkpt lat="36.7016448974609" lon="-5.02021884918213">
        <ele>1511.85278320312</ele>
        <time>2018-07-28T08:12:37Z</time>
      </trkpt>
      <trkpt lat="36.7016487121582" lon="-5.02022314071655">
        <ele>1511.67456054688</ele>
        <time>2018-07-28T08:12:38Z</time>
      </trkpt>
      <trkpt lat="36.7016525268555" lon="-5.0202260017395">
        <ele>1511.50268554688</ele>
        <time>2018-07-28T08:12:39Z</time>
      </trkpt>
      <trkpt lat="36.7016563415527" lon="-5.02022981643677">
        <ele>1511.32629394531</ele>
        <time>2018-07-28T08:12:40Z</time>
      </trkpt>
      <trkpt lat="36.7016563415527" lon="-5.02023220062256">
        <ele>1511.31506347656</ele>
        <time>2018-07-28T08:12:41Z</time>
      </trkpt>
      <trkpt lat="36.7016563415527" lon="-5.02023506164551">
        <ele>1511.30151367188</ele>
        <time>2018-07-28T08:12:42Z</time>
      </trkpt>
      <trkpt lat="36.7016563415527" lon="-5.02023887634277">
        <ele>1511.28356933594</ele>
        <time>2018-07-28T08:12:43Z</time>
      </trkpt>
      <trkpt lat="36.70166015625" lon="-5.02024412155151">
        <ele>1511.09973144531</ele>
        <time>2018-07-28T08:12:44Z</time>
      </trkpt>
      <trkpt lat="36.7016677856445" lon="-5.02024698257446">
        <ele>1510.76306152344</ele>
        <time>2018-07-28T08:12:45Z</time>
      </trkpt>
      <trkpt lat="36.7016830444336" lon="-5.0202522277832">
        <ele>1510.03649902344</ele>
        <time>2018-07-28T08:12:46Z</time>
      </trkpt>
      <trkpt lat="36.7016944885254" lon="-5.02025699615478">
        <ele>1509.48742675781</ele>
        <time>2018-07-28T08:12:47Z</time>
      </trkpt>
      <trkpt lat="36.7017021179199" lon="-5.02026081085205">
        <ele>1509.1181640625</ele>
        <time>2018-07-28T08:12:48Z</time>
      </trkpt>
      <trkpt lat="36.7017097473144" lon="-5.02026319503784">
        <ele>1508.755859375</ele>
        <time>2018-07-28T08:12:49Z</time>
      </trkpt>
      <trkpt lat="36.701717376709" lon="-5.02026414871216">
        <ele>1508.400390625</ele>
        <time>2018-07-28T08:12:50Z</time>
      </trkpt>
      <trkpt lat="36.7017211914062" lon="-5.02026319503784">
        <ele>1508.22961425781</ele>
        <time>2018-07-28T08:12:51Z</time>
      </trkpt>
      <trkpt lat="36.7017211914062" lon="-5.02025985717773">
        <ele>1508.24597167969</ele>
        <time>2018-07-28T08:12:52Z</time>
      </trkpt>
      <trkpt lat="36.7017211914062" lon="-5.02025413513184">
        <ele>1508.27392578125</ele>
        <time>2018-07-28T08:12:53Z</time>
      </trkpt>
      <trkpt lat="36.7017250061035" lon="-5.02024984359741">
        <ele>1508.11950683594</ele>
        <time>2018-07-28T08:12:54Z</time>
      </trkpt>
      <trkpt lat="36.701732635498" lon="-5.02024602890015">
        <ele>1507.78747558594</ele>
        <time>2018-07-28T08:12:55Z</time>
      </trkpt>
      <trkpt lat="36.7017402648926" lon="-5.02024412155151">
        <ele>1507.4462890625</ele>
        <time>2018-07-28T08:12:56Z</time>
      </trkpt>
      <trkpt lat="36.7017478942871" lon="-5.0202431678772">
        <ele>1507.10034179688</ele>
        <time>2018-07-28T08:12:57Z</time>
      </trkpt>
      <trkpt lat="36.7017555236816" lon="-5.02024221420288">
        <ele>1506.75451660156</ele>
        <time>2018-07-28T08:12:58Z</time>
      </trkpt>
      <trkpt lat="36.7017631530762" lon="-5.02024507522583">
        <ele>1506.38977050781</ele>
        <time>2018-07-28T08:12:59Z</time>
      </trkpt>
      <trkpt lat="36.7017707824707" lon="-5.02024793624878">
        <ele>1506.02502441406</ele>
        <time>2018-07-28T08:13:00Z</time>
      </trkpt>
      <trkpt lat="36.7017784118652" lon="-5.02024984359741">
        <ele>1505.66491699219</ele>
        <time>2018-07-28T08:13:01Z</time>
      </trkpt>
      <trkpt lat="36.7017822265625" lon="-5.02024984359741">
        <ele>1505.48962402344</ele>
        <time>2018-07-28T08:13:02Z</time>
      </trkpt>
      <trkpt lat="36.701789855957" lon="-5.02024984359741">
        <ele>1505.13903808594</ele>
        <time>2018-07-28T08:13:03Z</time>
      </trkpt>
      <trkpt lat="36.7017974853516" lon="-5.02024984359741">
        <ele>1504.78833007812</ele>
        <time>2018-07-28T08:13:04Z</time>
      </trkpt>
      <trkpt lat="36.7018013000488" lon="-5.02024984359741">
        <ele>1504.61303710938</ele>
        <time>2018-07-28T08:13:05Z</time>
      </trkpt>
      <trkpt lat="36.7018127441406" lon="-5.02024984359741">
        <ele>1504.08703613281</ele>
        <time>2018-07-28T08:13:06Z</time>
      </trkpt>
      <trkpt lat="36.7018203735352" lon="-5.0202488899231">
        <ele>1503.7412109375</ele>
        <time>2018-07-28T08:13:07Z</time>
      </trkpt>
      <trkpt lat="36.7018241882324" lon="-5.02024698257446">
        <ele>1503.57543945312</ele>
        <time>2018-07-28T08:13:08Z</time>
      </trkpt>
      <trkpt lat="36.7018280029297" lon="-5.02024412155151">
        <ele>1503.41455078125</ele>
        <time>2018-07-28T08:13:09Z</time>
      </trkpt>
      <trkpt lat="36.701831817627" lon="-5.02024078369141">
        <ele>1503.25610351562</ele>
        <time>2018-07-28T08:13:10Z</time>
      </trkpt>
      <trkpt lat="36.701831817627" lon="-5.02023983001709">
        <ele>1503.26086425781</ele>
        <time>2018-07-28T08:13:11Z</time>
      </trkpt>
      <trkpt lat="36.7018356323242" lon="-5.02024078369141">
        <ele>1503.08081054688</ele>
        <time>2018-07-28T08:13:12Z</time>
      </trkpt>
      <trkpt lat="36.7018356323242" lon="-5.02024078369141">
        <ele>1503.08081054688</ele>
        <time>2018-07-28T08:13:13Z</time>
      </trkpt>
      <trkpt lat="36.7018356323242" lon="-5.02024221420288">
        <ele>1503.07360839844</ele>
        <time>2018-07-28T08:13:14Z</time>
      </trkpt>
      <trkpt lat="36.7018394470215" lon="-5.02024412155151">
        <ele>1502.888671875</ele>
        <time>2018-07-28T08:13:15Z</time>
      </trkpt>
      <trkpt lat="36.7018394470215" lon="-5.02024602890015">
        <ele>1502.87902832031</ele>
        <time>2018-07-28T08:13:16Z</time>
      </trkpt>
      <trkpt lat="36.7018394470215" lon="-5.0202488899231">
        <ele>1502.86462402344</ele>
        <time>2018-07-28T08:13:17Z</time>
      </trkpt>
      <trkpt lat="36.7018432617188" lon="-5.02025318145752">
        <ele>1502.66760253906</ele>
        <time>2018-07-28T08:13:18Z</time>
      </trkpt>
      <trkpt lat="36.7018508911133" lon="-5.0202579498291">
        <ele>1502.29272460938</ele>
        <time>2018-07-28T08:13:19Z</time>
      </trkpt>
      <trkpt lat="36.7018585205078" lon="-5.02026176452637">
        <ele>1501.92272949219</ele>
        <time>2018-07-28T08:13:20Z</time>
      </trkpt>
      <trkpt lat="36.7018623352051" lon="-5.02026700973511">
        <ele>1501.72058105469</ele>
        <time>2018-07-28T08:13:21Z</time>
      </trkpt>
      <trkpt lat="36.7018623352051" lon="-5.02027177810669">
        <ele>1501.69641113281</ele>
        <time>2018-07-28T08:13:22Z</time>
      </trkpt>
      <trkpt lat="36.7018661499023" lon="-5.02027797698975">
        <ele>1501.48937988281</ele>
        <time>2018-07-28T08:13:23Z</time>
      </trkpt>
      <trkpt lat="36.7018661499023" lon="-5.02028179168701">
        <ele>1501.46997070312</ele>
        <time>2018-07-28T08:13:24Z</time>
      </trkpt>
      <trkpt lat="36.7018699645996" lon="-5.02028703689575">
        <ele>1501.26782226562</ele>
        <time>2018-07-28T08:13:25Z</time>
      </trkpt>
      <trkpt lat="36.7018737792969" lon="-5.02029323577881">
        <ele>1501.06066894531</ele>
        <time>2018-07-28T08:13:26Z</time>
      </trkpt>
      <trkpt lat="36.7018775939941" lon="-5.02030277252197">
        <ele>1500.83642578125</ele>
        <time>2018-07-28T08:13:27Z</time>
      </trkpt>
      <trkpt lat="36.7018814086914" lon="-5.02031183242798">
        <ele>1500.61450195312</ele>
        <time>2018-07-28T08:13:28Z</time>
      </trkpt>
      <trkpt lat="36.7018852233887" lon="-5.02031898498535">
        <ele>1500.40234375</ele>
        <time>2018-07-28T08:13:29Z</time>
      </trkpt>
      <trkpt lat="36.7018852233887" lon="-5.02032423019409">
        <ele>1500.37548828125</ele>
        <time>2018-07-28T08:13:30Z</time>
      </trkpt>
      <trkpt lat="36.7018890380859" lon="-5.02032899856567">
        <ele>1500.17529296875</ele>
        <time>2018-07-28T08:13:31Z</time>
      </trkpt>
      <trkpt lat="36.7018928527832" lon="-5.02033185958862">
        <ele>1499.98486328125</ele>
        <time>2018-07-28T08:13:32Z</time>
      </trkpt>
      <trkpt lat="36.7018928527832" lon="-5.02033376693726">
        <ele>1499.97509765625</ele>
        <time>2018-07-28T08:13:33Z</time>
      </trkpt>
      <trkpt lat="36.7019004821777" lon="-5.02033996582031">
        <ele>1499.59167480469</ele>
        <time>2018-07-28T08:13:34Z</time>
      </trkpt>
      <trkpt lat="36.7019004821777" lon="-5.02034616470337">
        <ele>1499.55981445312</ele>
        <time>2018-07-28T08:13:35Z</time>
      </trkpt>
      <trkpt lat="36.701904296875" lon="-5.02034902572632">
        <ele>1499.36926269531</ele>
        <time>2018-07-28T08:13:36Z</time>
      </trkpt>
      <trkpt lat="36.7019081115723" lon="-5.020348072052">
        <ele>1499.19836425781</ele>
        <time>2018-07-28T08:13:37Z</time>
      </trkpt>
      <trkpt lat="36.7019081115723" lon="-5.02034521102905">
        <ele>1499.21313476562</ele>
        <time>2018-07-28T08:13:38Z</time>
      </trkpt>
      <trkpt lat="36.7019081115723" lon="-5.02034091949463">
        <ele>1499.23510742188</ele>
        <time>2018-07-28T08:13:39Z</time>
      </trkpt>
      <trkpt lat="36.7019081115723" lon="-5.02033376693726">
        <ele>1499.27197265625</ele>
        <time>2018-07-28T08:13:40Z</time>
      </trkpt>
      <trkpt lat="36.7019081115723" lon="-5.02032804489136">
        <ele>1499.30139160156</ele>
        <time>2018-07-28T08:13:41Z</time>
      </trkpt>
      <trkpt lat="36.7019119262695" lon="-5.02032089233398">
        <ele>1499.16259765625</ele>
        <time>2018-07-28T08:13:42Z</time>
      </trkpt>
      <trkpt lat="36.7019157409668" lon="-5.02031517028809">
        <ele>1499.01635742188</ele>
        <time>2018-07-28T08:13:43Z</time>
      </trkpt>
      <trkpt lat="36.7019195556641" lon="-5.02030897140503">
        <ele>1498.87268066406</ele>
        <time>2018-07-28T08:13:44Z</time>
      </trkpt>
      <trkpt lat="36.7019233703613" lon="-5.02030420303345">
        <ele>1498.7216796875</ele>
        <time>2018-07-28T08:13:45Z</time>
      </trkpt>
      <trkpt lat="36.7019271850586" lon="-5.02029514312744">
        <ele>1498.59289550781</ele>
        <time>2018-07-28T08:13:46Z</time>
      </trkpt>
      <trkpt lat="36.7019271850586" lon="-5.02028608322144">
        <ele>1498.63989257812</ele>
        <time>2018-07-28T08:13:47Z</time>
      </trkpt>
      <trkpt lat="36.7019271850586" lon="-5.02027797698975">
        <ele>1498.68176269531</ele>
        <time>2018-07-28T08:13:48Z</time>
      </trkpt>
      <trkpt lat="36.7019271850586" lon="-5.02027416229248">
        <ele>1498.70153808594</ele>
        <time>2018-07-28T08:13:49Z</time>
      </trkpt>
      <trkpt lat="36.7019309997559" lon="-5.02026987075806">
        <ele>1498.54833984375</ele>
        <time>2018-07-28T08:13:50Z</time>
      </trkpt>
      <trkpt lat="36.7019348144531" lon="-5.02026605606079">
        <ele>1498.39270019531</ele>
        <time>2018-07-28T08:13:51Z</time>
      </trkpt>
      <trkpt lat="36.7019348144531" lon="-5.02026414871216">
        <ele>1498.40258789062</ele>
        <time>2018-07-28T08:13:52Z</time>
      </trkpt>
      <trkpt lat="36.7019348144531" lon="-5.02026510238647">
        <ele>1498.39758300781</ele>
        <time>2018-07-28T08:13:53Z</time>
      </trkpt>
      <trkpt lat="36.7019348144531" lon="-5.02026700973511">
        <ele>1498.3876953125</ele>
        <time>2018-07-28T08:13:54Z</time>
      </trkpt>
      <trkpt lat="36.7019386291504" lon="-5.02027320861816">
        <ele>1498.18005371094</ele>
        <time>2018-07-28T08:13:55Z</time>
      </trkpt>
      <trkpt lat="36.7019462585449" lon="-5.02027702331543">
        <ele>1497.80932617188</ele>
        <time>2018-07-28T08:13:56Z</time>
      </trkpt>
      <trkpt lat="36.7019500732422" lon="-5.0202808380127">
        <ele>1497.61401367188</ele>
        <time>2018-07-28T08:13:57Z</time>
      </trkpt>
      <trkpt lat="36.7019577026367" lon="-5.02028322219849">
        <ele>1497.25061035156</ele>
        <time>2018-07-28T08:13:58Z</time>
      </trkpt>
      <trkpt lat="36.701961517334" lon="-5.0202808380127">
        <ele>1497.08752441406</ele>
        <time>2018-07-28T08:13:59Z</time>
      </trkpt>
      <trkpt lat="36.7019653320312" lon="-5.02027988433838">
        <ele>1496.9169921875</ele>
        <time>2018-07-28T08:14:00Z</time>
      </trkpt>
      <trkpt lat="36.7019691467285" lon="-5.02027702331543">
        <ele>1496.75659179688</ele>
        <time>2018-07-28T08:14:01Z</time>
      </trkpt>
      <trkpt lat="36.701976776123" lon="-5.0202751159668">
        <ele>1496.41564941406</ele>
        <time>2018-07-28T08:14:02Z</time>
      </trkpt>
      <trkpt lat="36.7019844055176" lon="-5.02027177810669">
        <ele>1496.08227539062</ele>
        <time>2018-07-28T08:14:03Z</time>
      </trkpt>
      <trkpt lat="36.7019882202148" lon="-5.02026987075806">
        <ele>1495.91687011719</ele>
        <time>2018-07-28T08:14:04Z</time>
      </trkpt>
      <trkpt lat="36.7019882202148" lon="-5.02026605606079">
        <ele>1495.93688964844</ele>
        <time>2018-07-28T08:14:05Z</time>
      </trkpt>
      <trkpt lat="36.7019920349121" lon="-5.02026176452637">
        <ele>1495.78405761719</ele>
        <time>2018-07-28T08:14:06Z</time>
      </trkpt>
      <trkpt lat="36.7019958496094" lon="-5.02026176452637">
        <ele>1495.60876464844</ele>
        <time>2018-07-28T08:14:07Z</time>
      </trkpt>
      <trkpt lat="36.7019996643066" lon="-5.02026176452637">
        <ele>1495.43334960938</ele>
        <time>2018-07-28T08:14:08Z</time>
      </trkpt>
      <trkpt lat="36.7020034790039" lon="-5.02026319503784">
        <ele>1495.25036621094</ele>
        <time>2018-07-28T08:14:09Z</time>
      </trkpt>
      <trkpt lat="36.7019996643066" lon="-5.02026319503784">
        <ele>1495.42578125</ele>
        <time>2018-07-28T08:14:10Z</time>
      </trkpt>
      <trkpt lat="36.7019996643066" lon="-5.02026414871216">
        <ele>1495.42077636719</ele>
        <time>2018-07-28T08:14:11Z</time>
      </trkpt>
      <trkpt lat="36.7020034790039" lon="-5.02026605606079">
        <ele>1495.23522949219</ele>
        <time>2018-07-28T08:14:12Z</time>
      </trkpt>
      <trkpt lat="36.7020111083984" lon="-5.02026510238647">
        <ele>1494.88952636719</ele>
        <time>2018-07-28T08:14:13Z</time>
      </trkpt>
      <trkpt lat="36.7020225524902" lon="-5.02026510238647">
        <ele>1494.36328125</ele>
        <time>2018-07-28T08:14:14Z</time>
      </trkpt>
      <trkpt lat="36.7020263671875" lon="-5.02025890350342">
        <ele>1494.22082519531</ele>
        <time>2018-07-28T08:14:15Z</time>
      </trkpt>
      <trkpt lat="36.7020301818848" lon="-5.02025413513184">
        <ele>1494.07080078125</ele>
        <time>2018-07-28T08:14:16Z</time>
      </trkpt>
      <trkpt lat="36.7020301818848" lon="-5.02024698257446">
        <ele>1494.10888671875</ele>
        <time>2018-07-28T08:14:17Z</time>
      </trkpt>
      <trkpt lat="36.7020378112793" lon="-5.02024602890015">
        <ele>1493.76342773438</ele>
        <time>2018-07-28T08:14:18Z</time>
      </trkpt>
      <trkpt lat="36.7020416259766" lon="-5.02024602890015">
        <ele>1493.58813476562</ele>
        <time>2018-07-28T08:14:19Z</time>
      </trkpt>
      <trkpt lat="36.7020492553711" lon="-5.02024507522583">
        <ele>1493.24255371094</ele>
        <time>2018-07-28T08:14:20Z</time>
      </trkpt>
      <trkpt lat="36.7020492553711" lon="-5.02024221420288">
        <ele>1493.25793457031</ele>
        <time>2018-07-28T08:14:21Z</time>
      </trkpt>
      <trkpt lat="36.7020530700684" lon="-5.02023696899414">
        <ele>1493.11071777344</ele>
        <time>2018-07-28T08:14:22Z</time>
      </trkpt>
      <trkpt lat="36.7020568847656" lon="-5.02023410797119">
        <ele>1492.95080566406</ele>
        <time>2018-07-28T08:14:23Z</time>
      </trkpt>
      <trkpt lat="36.7020645141602" lon="-5.02023220062256">
        <ele>1492.61059570312</ele>
        <time>2018-07-28T08:14:24Z</time>
      </trkpt>
      <trkpt lat="36.7020721435547" lon="-5.02023410797119">
        <ele>1492.24987792969</ele>
        <time>2018-07-28T08:14:25Z</time>
      </trkpt>
      <trkpt lat="36.7020835876465" lon="-5.02023506164551">
        <ele>1491.71899414062</ele>
        <time>2018-07-28T08:14:26Z</time>
      </trkpt>
      <trkpt lat="36.702091217041" lon="-5.02023792266846">
        <ele>1491.35302734375</ele>
        <time>2018-07-28T08:14:27Z</time>
      </trkpt>
      <trkpt lat="36.7020988464356" lon="-5.02023696899414">
        <ele>1491.00769042969</ele>
        <time>2018-07-28T08:14:28Z</time>
      </trkpt>
      <trkpt lat="36.7020988464356" lon="-5.02023696899414">
        <ele>1491.00769042969</ele>
        <time>2018-07-28T08:14:29Z</time>
      </trkpt>
      <trkpt lat="36.7020950317383" lon="-5.02023506164551">
        <ele>1491.19323730469</ele>
        <time>2018-07-28T08:14:30Z</time>
      </trkpt>
      <trkpt lat="36.702091217041" lon="-5.02023506164551">
        <ele>1491.36853027344</ele>
        <time>2018-07-28T08:14:31Z</time>
      </trkpt>
      <trkpt lat="36.702091217041" lon="-5.02023506164551">
        <ele>1491.36853027344</ele>
        <time>2018-07-28T08:14:32Z</time>
      </trkpt>
      <trkpt lat="36.7020950317383" lon="-5.02023601531982">
        <ele>1491.18811035156</ele>
        <time>2018-07-28T08:14:33Z</time>
      </trkpt>
      <trkpt lat="36.7020988464356" lon="-5.02023696899414">
        <ele>1491.00769042969</ele>
        <time>2018-07-28T08:14:34Z</time>
      </trkpt>
      <trkpt lat="36.7021026611328" lon="-5.02023792266846">
        <ele>1490.82727050781</ele>
        <time>2018-07-28T08:14:35Z</time>
      </trkpt>
      <trkpt lat="36.7021064758301" lon="-5.02023887634277">
        <ele>1490.64685058594</ele>
        <time>2018-07-28T08:14:36Z</time>
      </trkpt>
      <trkpt lat="36.7021102905273" lon="-5.02023983001709">
        <ele>1490.46630859375</ele>
        <time>2018-07-28T08:14:37Z</time>
      </trkpt>
      <trkpt lat="36.7021102905273" lon="-5.02024078369141">
        <ele>1490.46118164062</ele>
        <time>2018-07-28T08:14:38Z</time>
      </trkpt>
      <trkpt lat="36.7021141052246" lon="-5.02023983001709">
        <ele>1490.29113769531</ele>
        <time>2018-07-28T08:14:39Z</time>
      </trkpt>
      <trkpt lat="36.7021141052246" lon="-5.02023792266846">
        <ele>1490.30151367188</ele>
        <time>2018-07-28T08:14:40Z</time>
      </trkpt>
      <trkpt lat="36.7021141052246" lon="-5.02023696899414">
        <ele>1490.306640625</ele>
        <time>2018-07-28T08:14:41Z</time>
      </trkpt>
      <trkpt lat="36.7021179199219" lon="-5.02023696899414">
        <ele>1490.13146972656</ele>
        <time>2018-07-28T08:14:42Z</time>
      </trkpt>
      <trkpt lat="36.7021179199219" lon="-5.02023506164551">
        <ele>1490.14184570312</ele>
        <time>2018-07-28T08:14:43Z</time>
      </trkpt>
      <trkpt lat="36.7021217346191" lon="-5.02023506164551">
        <ele>1489.96655273438</ele>
        <time>2018-07-28T08:14:44Z</time>
      </trkpt>
      <trkpt lat="36.7021217346191" lon="-5.02023410797119">
        <ele>1489.97180175781</ele>
        <time>2018-07-28T08:14:45Z</time>
      </trkpt>
      <trkpt lat="36.7021255493164" lon="-5.02022981643677">
        <ele>1489.81994628906</ele>
        <time>2018-07-28T08:14:46Z</time>
      </trkpt>
      <trkpt lat="36.7021293640137" lon="-5.02022504806519">
        <ele>1489.67077636719</ele>
        <time>2018-07-28T08:14:47Z</time>
      </trkpt>
      <trkpt lat="36.7021331787109" lon="-5.02022123336792">
        <ele>1489.51647949219</ele>
        <time>2018-07-28T08:14:48Z</time>
      </trkpt>
      <trkpt lat="36.7021408081055" lon="-5.02021980285644">
        <ele>1489.17407226562</ele>
        <time>2018-07-28T08:14:49Z</time>
      </trkpt>
      <trkpt lat="36.7021446228027" lon="-5.02022123336792">
        <ele>1488.99096679688</ele>
        <time>2018-07-28T08:14:50Z</time>
      </trkpt>
      <trkpt lat="36.7021484375" lon="-5.02021980285644">
        <ele>1488.82373046875</ele>
        <time>2018-07-28T08:14:51Z</time>
      </trkpt>
      <trkpt lat="36.7021522521973" lon="-5.02021884918213">
        <ele>1488.65380859375</ele>
        <time>2018-07-28T08:14:52Z</time>
      </trkpt>
      <trkpt lat="36.7021522521973" lon="-5.02021884918213">
        <ele>1488.65380859375</ele>
        <time>2018-07-28T08:14:53Z</time>
      </trkpt>
      <trkpt lat="36.7021522521973" lon="-5.02022123336792">
        <ele>1488.640625</ele>
        <time>2018-07-28T08:14:54Z</time>
      </trkpt>
      <trkpt lat="36.7021560668945" lon="-5.02022409439087">
        <ele>1488.44982910156</ele>
        <time>2018-07-28T08:14:55Z</time>
      </trkpt>
      <trkpt lat="36.7021598815918" lon="-5.0202260017395">
        <ele>1488.26403808594</ele>
        <time>2018-07-28T08:14:56Z</time>
      </trkpt>
      <trkpt lat="36.7021598815918" lon="-5.02022695541382">
        <ele>1488.2587890625</ele>
        <time>2018-07-28T08:14:57Z</time>
      </trkpt>
      <trkpt lat="36.7021675109863" lon="-5.02022504806519">
        <ele>1487.9189453125</ele>
        <time>2018-07-28T08:14:58Z</time>
      </trkpt>
      <trkpt lat="36.7021751403809" lon="-5.02022504806519">
        <ele>1487.56860351562</ele>
        <time>2018-07-28T08:14:59Z</time>
      </trkpt>
      <trkpt lat="36.7021827697754" lon="-5.0202260017395">
        <ele>1487.212890625</ele>
        <time>2018-07-28T08:15:00Z</time>
      </trkpt>
      <trkpt lat="36.7021903991699" lon="-5.02022695541382">
        <ele>1486.85729980469</ele>
        <time>2018-07-28T08:15:01Z</time>
      </trkpt>
      <trkpt lat="36.7021903991699" lon="-5.02022695541382">
        <ele>1486.85729980469</ele>
        <time>2018-07-28T08:15:02Z</time>
      </trkpt>
      <trkpt lat="36.7021942138672" lon="-5.02022695541382">
        <ele>1486.68200683594</ele>
        <time>2018-07-28T08:15:03Z</time>
      </trkpt>
      <trkpt lat="36.7021903991699" lon="-5.02022504806519">
        <ele>1486.86779785156</ele>
        <time>2018-07-28T08:15:04Z</time>
      </trkpt>
      <trkpt lat="36.7021903991699" lon="-5.02022409439087">
        <ele>1486.87316894531</ele>
        <time>2018-07-28T08:15:05Z</time>
      </trkpt>
      <trkpt lat="36.7021903991699" lon="-5.02022409439087">
        <ele>1486.87316894531</ele>
        <time>2018-07-28T08:15:06Z</time>
      </trkpt>
      <trkpt lat="36.7021903991699" lon="-5.02022504806519">
        <ele>1486.86779785156</ele>
        <time>2018-07-28T08:15:07Z</time>
      </trkpt>
      <trkpt lat="36.7021942138672" lon="-5.02022790908814">
        <ele>1486.6767578125</ele>
        <time>2018-07-28T08:15:08Z</time>
      </trkpt>
      <trkpt lat="36.7021942138672" lon="-5.02023077011108">
        <ele>1486.66088867188</ele>
        <time>2018-07-28T08:15:09Z</time>
      </trkpt>
      <trkpt lat="36.7021980285644" lon="-5.02023506164551">
        <ele>1486.46179199219</ele>
        <time>2018-07-28T08:15:10Z</time>
      </trkpt>
      <trkpt lat="36.7022018432617" lon="-5.02023696899414">
        <ele>1486.27587890625</ele>
        <time>2018-07-28T08:15:11Z</time>
      </trkpt>
      <trkpt lat="36.7022018432617" lon="-5.02024078369141">
        <ele>1486.25463867188</ele>
        <time>2018-07-28T08:15:12Z</time>
      </trkpt>
      <trkpt lat="36.702205657959" lon="-5.02024412155151">
        <ele>1486.06079101562</ele>
        <time>2018-07-28T08:15:13Z</time>
      </trkpt>
      <trkpt lat="36.702205657959" lon="-5.02024793624878">
        <ele>1486.03942871094</ele>
        <time>2018-07-28T08:15:14Z</time>
      </trkpt>
      <trkpt lat="36.702205657959" lon="-5.02025508880615">
        <ele>1485.99963378906</ele>
        <time>2018-07-28T08:15:15Z</time>
      </trkpt>
      <trkpt lat="36.7022094726562" lon="-5.02026319503784">
        <ele>1485.77893066406</ele>
        <time>2018-07-28T08:15:16Z</time>
      </trkpt>
      <trkpt lat="36.7022132873535" lon="-5.02026891708374">
        <ele>1485.57165527344</ele>
        <time>2018-07-28T08:15:17Z</time>
      </trkpt>
      <trkpt lat="36.702220916748" lon="-5.02027082443237">
        <ele>1485.21008300781</ele>
        <time>2018-07-28T08:15:18Z</time>
      </trkpt>
      <trkpt lat="36.7022247314453" lon="-5.02026987075806">
        <ele>1485.0400390625</ele>
        <time>2018-07-28T08:15:19Z</time>
      </trkpt>
      <trkpt lat="36.7022285461426" lon="-5.02026605606079">
        <ele>1484.88598632812</ele>
        <time>2018-07-28T08:15:20Z</time>
      </trkpt>
      <trkpt lat="36.7022323608398" lon="-5.02025985717773">
        <ele>1484.74536132812</ele>
        <time>2018-07-28T08:15:21Z</time>
      </trkpt>
      <trkpt lat="36.7022399902344" lon="-5.02025699615478">
        <ele>1484.41064453125</ele>
        <time>2018-07-28T08:15:22Z</time>
      </trkpt>
      <trkpt lat="36.7022438049316" lon="-5.02025508880615">
        <ele>1484.24609375</ele>
        <time>2018-07-28T08:15:23Z</time>
      </trkpt>
      <trkpt lat="36.7022476196289" lon="-5.02025413513184">
        <ele>1484.07604980469</ele>
        <time>2018-07-28T08:15:24Z</time>
      </trkpt>
      <trkpt lat="36.7022552490234" lon="-5.02025318145752">
        <ele>1483.73083496094</ele>
        <time>2018-07-28T08:15:25Z</time>
      </trkpt>
      <trkpt lat="36.702262878418" lon="-5.02025318145752">
        <ele>1483.38012695312</ele>
        <time>2018-07-28T08:15:26Z</time>
      </trkpt>
      <trkpt lat="36.7022743225098" lon="-5.02025413513184">
        <ele>1482.8486328125</ele>
        <time>2018-07-28T08:15:27Z</time>
      </trkpt>
      <trkpt lat="36.7022857666016" lon="-5.02025318145752">
        <ele>1482.32800292969</ele>
        <time>2018-07-28T08:15:28Z</time>
      </trkpt>
      <trkpt lat="36.7022895812988" lon="-5.02025413513184">
        <ele>1482.14733886719</ele>
        <time>2018-07-28T08:15:29Z</time>
      </trkpt>
      <trkpt lat="36.7022972106934" lon="-5.02025413513184">
        <ele>1481.79663085938</ele>
        <time>2018-07-28T08:15:30Z</time>
      </trkpt>
      <trkpt lat="36.7023048400879" lon="-5.02025508880615">
        <ele>1481.4404296875</ele>
        <time>2018-07-28T08:15:31Z</time>
      </trkpt>
      <trkpt lat="36.7023162841797" lon="-5.02025699615478">
        <ele>1480.90344238281</ele>
        <time>2018-07-28T08:15:32Z</time>
      </trkpt>
      <trkpt lat="36.7023239135742" lon="-5.02026176452637">
        <ele>1480.52526855469</ele>
        <time>2018-07-28T08:15:33Z</time>
      </trkpt>
      <trkpt lat="36.7023315429688" lon="-5.02026700973511">
        <ele>1480.14440917969</ele>
        <time>2018-07-28T08:15:34Z</time>
      </trkpt>
      <trkpt lat="36.702335357666" lon="-5.02027320861816">
        <ele>1479.93322753906</ele>
        <time>2018-07-28T08:15:35Z</time>
      </trkpt>
      <trkpt lat="36.7023315429688" lon="-5.02027606964111">
        <ele>1480.09216308594</ele>
        <time>2018-07-28T08:15:36Z</time>
      </trkpt>
      <trkpt lat="36.7023315429688" lon="-5.0202808380127">
        <ele>1480.06469726562</ele>
        <time>2018-07-28T08:15:37Z</time>
      </trkpt>
      <trkpt lat="36.7023315429688" lon="-5.02028799057007">
        <ele>1480.02355957031</ele>
        <time>2018-07-28T08:15:38Z</time>
      </trkpt>
      <trkpt lat="36.7023391723633" lon="-5.02029991149902">
        <ele>1479.60375976562</ele>
        <time>2018-07-28T08:15:39Z</time>
      </trkpt>
      <trkpt lat="36.7023429870606" lon="-5.02031087875366">
        <ele>1479.36474609375</ele>
        <time>2018-07-28T08:15:40Z</time>
      </trkpt>
      <trkpt lat="36.7023429870606" lon="-5.0203218460083">
        <ele>1479.30151367188</ele>
        <time>2018-07-28T08:15:41Z</time>
      </trkpt>
      <trkpt lat="36.702335357666" lon="-5.02032804489136">
        <ele>1479.6171875</ele>
        <time>2018-07-28T08:15:42Z</time>
      </trkpt>
      <trkpt lat="36.7023277282715" lon="-5.02033615112305">
        <ele>1479.92211914062</ele>
        <time>2018-07-28T08:15:43Z</time>
      </trkpt>
      <trkpt lat="36.7023239135742" lon="-5.02034378051758">
        <ele>1480.05407714844</ele>
        <time>2018-07-28T08:15:44Z</time>
      </trkpt>
      <trkpt lat="36.7023162841797" lon="-5.02034997940064">
        <ele>1480.3701171875</ele>
        <time>2018-07-28T08:15:45Z</time>
      </trkpt>
      <trkpt lat="36.7023162841797" lon="-5.02035522460938">
        <ele>1480.34008789062</ele>
        <time>2018-07-28T08:15:46Z</time>
      </trkpt>
      <trkpt lat="36.7023124694824" lon="-5.02035999298096">
        <ele>1480.48864746094</ele>
        <time>2018-07-28T08:15:47Z</time>
      </trkpt>
      <trkpt lat="36.7023086547852" lon="-5.02036619186401">
        <ele>1480.62915039062</ele>
        <time>2018-07-28T08:15:48Z</time>
      </trkpt>
      <trkpt lat="36.7023048400879" lon="-5.02037382125854">
        <ele>1480.76147460938</ele>
        <time>2018-07-28T08:15:49Z</time>
      </trkpt>
      <trkpt lat="36.7022933959961" lon="-5.02038097381592">
        <ele>1481.24865722656</ele>
        <time>2018-07-28T08:15:50Z</time>
      </trkpt>
      <trkpt lat="36.7022819519043" lon="-5.02038717269897">
        <ele>1481.74157714844</ele>
        <time>2018-07-28T08:15:51Z</time>
      </trkpt>
      <trkpt lat="36.7022743225098" lon="-5.02039194107056">
        <ele>1482.06665039062</ele>
        <time>2018-07-28T08:15:52Z</time>
      </trkpt>
      <trkpt lat="36.7022705078125" lon="-5.02039623260498">
        <ele>1482.21838378906</ele>
        <time>2018-07-28T08:15:53Z</time>
      </trkpt>
      <trkpt lat="36.7022666931152" lon="-5.02040004730225">
        <ele>1482.37292480469</ele>
        <time>2018-07-28T08:15:54Z</time>
      </trkpt>
      <trkpt lat="36.7022590637207" lon="-5.0204029083252">
        <ele>1482.708984375</ele>
        <time>2018-07-28T08:15:55Z</time>
      </trkpt>
      <trkpt lat="36.7022552490234" lon="-5.02040576934814">
        <ele>1482.86901855469</ele>
        <time>2018-07-28T08:15:56Z</time>
      </trkpt>
      <trkpt lat="36.7022514343262" lon="-5.02041292190552">
        <ele>1483.0048828125</ele>
        <time>2018-07-28T08:15:57Z</time>
      </trkpt>
      <trkpt lat="36.7022476196289" lon="-5.02042198181152">
        <ele>1483.13000488281</ele>
        <time>2018-07-28T08:15:58Z</time>
      </trkpt>
      <trkpt lat="36.7022438049316" lon="-5.02043199539185">
        <ele>1483.24987792969</ele>
        <time>2018-07-28T08:15:59Z</time>
      </trkpt>
      <trkpt lat="36.7022399902344" lon="-5.02044010162354">
        <ele>1483.38061523438</ele>
        <time>2018-07-28T08:16:00Z</time>
      </trkpt>
      <trkpt lat="36.7022361755371" lon="-5.02044582366943">
        <ele>1483.52478027344</ele>
        <time>2018-07-28T08:16:01Z</time>
      </trkpt>
      <trkpt lat="36.7022361755371" lon="-5.02045106887817">
        <ele>1483.49536132812</ele>
        <time>2018-07-28T08:16:02Z</time>
      </trkpt>
      <trkpt lat="36.7022361755371" lon="-5.02045488357544">
        <ele>1483.47387695312</ele>
        <time>2018-07-28T08:16:03Z</time>
      </trkpt>
      <trkpt lat="36.7022361755371" lon="-5.02045917510986">
        <ele>1483.44982910156</ele>
        <time>2018-07-28T08:16:04Z</time>
      </trkpt>
      <trkpt lat="36.7022361755371" lon="-5.0204610824585">
        <ele>1483.43908691406</ele>
        <time>2018-07-28T08:16:05Z</time>
      </trkpt>
      <trkpt lat="36.7022399902344" lon="-5.02046489715576">
        <ele>1483.24108886719</ele>
        <time>2018-07-28T08:16:06Z</time>
      </trkpt>
      <trkpt lat="36.7022438049316" lon="-5.02047109603882">
        <ele>1483.02966308594</ele>
        <time>2018-07-28T08:16:07Z</time>
      </trkpt>
      <trkpt lat="36.7022438049316" lon="-5.02047681808472">
        <ele>1482.99743652344</ele>
        <time>2018-07-28T08:16:08Z</time>
      </trkpt>
      <trkpt lat="36.7022476196289" lon="-5.02048015594482">
        <ele>1482.80212402344</ele>
        <time>2018-07-28T08:16:09Z</time>
      </trkpt>
      <trkpt lat="36.7022476196289" lon="-5.02048110961914">
        <ele>1482.79675292969</ele>
        <time>2018-07-28T08:16:10Z</time>
      </trkpt>
      <trkpt lat="36.7022514343262" lon="-5.02048206329346">
        <ele>1482.61474609375</ele>
        <time>2018-07-28T08:16:11Z</time>
      </trkpt>
      <trkpt lat="36.7022590637207" lon="-5.02048397064209">
        <ele>1482.25073242188</ele>
        <time>2018-07-28T08:16:12Z</time>
      </trkpt>
      <trkpt lat="36.702262878418" lon="-5.02048683166504">
        <ele>1482.05798339844</ele>
        <time>2018-07-28T08:16:13Z</time>
      </trkpt>
      <trkpt lat="36.7022705078125" lon="-5.02049016952515">
        <ele>1481.68579101562</ele>
        <time>2018-07-28T08:16:14Z</time>
      </trkpt>
      <trkpt lat="36.7022743225098" lon="-5.02049493789673">
        <ele>1481.48205566406</ele>
        <time>2018-07-28T08:16:15Z</time>
      </trkpt>
      <trkpt lat="36.7022819519043" lon="-5.02050113677978">
        <ele>1481.09350585938</ele>
        <time>2018-07-28T08:16:16Z</time>
      </trkpt>
      <trkpt lat="36.7022857666016" lon="-5.02051019668579">
        <ele>1480.865234375</ele>
        <time>2018-07-28T08:16:17Z</time>
      </trkpt>
      <trkpt lat="36.7022933959961" lon="-5.02051687240601">
        <ele>1480.4736328125</ele>
        <time>2018-07-28T08:16:18Z</time>
      </trkpt>
      <trkpt lat="36.7022972106934" lon="-5.02052307128906">
        <ele>1480.26147460938</ele>
        <time>2018-07-28T08:16:19Z</time>
      </trkpt>
      <trkpt lat="36.7023048400879" lon="-5.02052593231201">
        <ele>1479.89147949219</ele>
        <time>2018-07-28T08:16:20Z</time>
      </trkpt>
      <trkpt lat="36.7023086547852" lon="-5.02052593231201">
        <ele>1479.71472167969</ele>
        <time>2018-07-28T08:16:21Z</time>
      </trkpt>
      <trkpt lat="36.7023124694824" lon="-5.0205249786377">
        <ele>1479.54333496094</ele>
        <time>2018-07-28T08:16:22Z</time>
      </trkpt>
      <trkpt lat="36.7023162841797" lon="-5.02052402496338">
        <ele>1479.37194824219</ele>
        <time>2018-07-28T08:16:23Z</time>
      </trkpt>
      <trkpt lat="36.7023239135742" lon="-5.0205249786377">
        <ele>1479.01281738281</ele>
        <time>2018-07-28T08:16:24Z</time>
      </trkpt>
      <trkpt lat="36.7023277282715" lon="-5.0205249786377">
        <ele>1478.8359375</ele>
        <time>2018-07-28T08:16:25Z</time>
      </trkpt>
      <trkpt lat="36.702335357666" lon="-5.02052307128906">
        <ele>1478.49328613281</ele>
        <time>2018-07-28T08:16:26Z</time>
      </trkpt>
      <trkpt lat="36.7023429870606" lon="-5.02051782608032">
        <ele>1478.169921875</ele>
        <time>2018-07-28T08:16:27Z</time>
      </trkpt>
      <trkpt lat="36.7023506164551" lon="-5.02051305770874">
        <ele>1477.84387207031</ele>
        <time>2018-07-28T08:16:28Z</time>
      </trkpt>
      <trkpt lat="36.7023544311523" lon="-5.02050876617432">
        <ele>1477.69201660156</ele>
        <time>2018-07-28T08:16:29Z</time>
      </trkpt>
      <trkpt lat="36.7023582458496" lon="-5.02050590515137">
        <ele>1477.53186035156</ele>
        <time>2018-07-28T08:16:30Z</time>
      </trkpt>
      <trkpt lat="36.7023658752441" lon="-5.0205020904541">
        <ele>1477.20056152344</ele>
        <time>2018-07-28T08:16:31Z</time>
      </trkpt>
      <trkpt lat="36.7023735046387" lon="-5.02049779891968">
        <ele>1476.8720703125</ele>
        <time>2018-07-28T08:16:32Z</time>
      </trkpt>
      <trkpt lat="36.7023735046387" lon="-5.02049589157104">
        <ele>1476.88317871094</ele>
        <time>2018-07-28T08:16:33Z</time>
      </trkpt>
      <trkpt lat="36.7023773193359" lon="-5.02049493789673">
        <ele>1476.71203613281</ele>
        <time>2018-07-28T08:16:34Z</time>
      </trkpt>
      <trkpt lat="36.7023811340332" lon="-5.0204930305481">
        <ele>1476.54650878906</ele>
        <time>2018-07-28T08:16:35Z</time>
      </trkpt>
      <trkpt lat="36.7023849487305" lon="-5.02049207687378">
        <ele>1476.37536621094</ele>
        <time>2018-07-28T08:16:36Z</time>
      </trkpt>
      <trkpt lat="36.7023887634277" lon="-5.0204930305481">
        <ele>1476.19323730469</ele>
        <time>2018-07-28T08:16:37Z</time>
      </trkpt>
      <trkpt lat="36.702392578125" lon="-5.02049398422241">
        <ele>1476.01098632812</ele>
        <time>2018-07-28T08:16:38Z</time>
      </trkpt>
      <trkpt lat="36.702392578125" lon="-5.02049684524536">
        <ele>1475.99426269531</ele>
        <time>2018-07-28T08:16:39Z</time>
      </trkpt>
      <trkpt lat="36.7023963928223" lon="-5.02049922943115">
        <ele>1475.80358886719</ele>
        <time>2018-07-28T08:16:40Z</time>
      </trkpt>
      <trkpt lat="36.7023963928223" lon="-5.02050590515137">
        <ele>1475.76452636719</ele>
        <time>2018-07-28T08:16:41Z</time>
      </trkpt>
      <trkpt lat="36.702392578125" lon="-5.02051305770874">
        <ele>1475.8994140625</ele>
        <time>2018-07-28T08:16:42Z</time>
      </trkpt>
      <trkpt lat="36.7023849487305" lon="-5.02052211761475">
        <ele>1476.20007324219</ele>
        <time>2018-07-28T08:16:43Z</time>
      </trkpt>
      <trkpt lat="36.7023773193359" lon="-5.02052783966064">
        <ele>1476.5205078125</ele>
        <time>2018-07-28T08:16:44Z</time>
      </trkpt>
      <trkpt lat="36.7023696899414" lon="-5.02053213119507">
        <ele>1476.84924316406</ele>
        <time>2018-07-28T08:16:45Z</time>
      </trkpt>
      <trkpt lat="36.7023735046387" lon="-5.02053689956665">
        <ele>1476.64453125</ele>
        <time>2018-07-28T08:16:46Z</time>
      </trkpt>
      <trkpt lat="36.7023735046387" lon="-5.02054405212402">
        <ele>1476.60302734375</ele>
        <time>2018-07-28T08:16:47Z</time>
      </trkpt>
      <trkpt lat="36.7023773193359" lon="-5.0205512046814">
        <ele>1476.38439941406</ele>
        <time>2018-07-28T08:16:48Z</time>
      </trkpt>
      <trkpt lat="36.7023773193359" lon="-5.0205569267273">
        <ele>1476.35107421875</ele>
        <time>2018-07-28T08:16:49Z</time>
      </trkpt>
      <trkpt lat="36.7023773193359" lon="-5.02056217193604">
        <ele>1476.32055664062</ele>
        <time>2018-07-28T08:16:50Z</time>
      </trkpt>
      <trkpt lat="36.7023811340332" lon="-5.02056694030762">
        <ele>1476.11572265625</ele>
        <time>2018-07-28T08:16:51Z</time>
      </trkpt>
      <trkpt lat="36.7023811340332" lon="-5.02057218551636">
        <ele>1476.08508300781</ele>
        <time>2018-07-28T08:16:52Z</time>
      </trkpt>
      <trkpt lat="36.7023849487305" lon="-5.02057695388794">
        <ele>1475.88024902344</ele>
        <time>2018-07-28T08:16:53Z</time>
      </trkpt>
      <trkpt lat="36.7023849487305" lon="-5.02058506011963">
        <ele>1475.83288574219</ele>
        <time>2018-07-28T08:16:54Z</time>
      </trkpt>
      <trkpt lat="36.7023887634277" lon="-5.02059316635132">
        <ele>1475.6083984375</ele>
        <time>2018-07-28T08:16:55Z</time>
      </trkpt>
      <trkpt lat="36.7023887634277" lon="-5.02059984207153">
        <ele>1475.56945800781</ele>
        <time>2018-07-28T08:16:56Z</time>
      </trkpt>
      <trkpt lat="36.7023887634277" lon="-5.02060604095459">
        <ele>1475.533203125</ele>
        <time>2018-07-28T08:16:57Z</time>
      </trkpt>
      <trkpt lat="36.7023887634277" lon="-5.02061176300049">
        <ele>1475.49975585938</ele>
        <time>2018-07-28T08:16:58Z</time>
      </trkpt>
      <trkpt lat="36.7023887634277" lon="-5.02061796188354">
        <ele>1475.46362304688</ele>
        <time>2018-07-28T08:16:59Z</time>
      </trkpt>
      <trkpt lat="36.7023887634277" lon="-5.0206241607666">
        <ele>1475.42736816406</ele>
        <time>2018-07-28T08:17:00Z</time>
      </trkpt>
      <trkpt lat="36.7023849487305" lon="-5.02063179016113">
        <ele>1475.56030273438</ele>
        <time>2018-07-28T08:17:01Z</time>
      </trkpt>
      <trkpt lat="36.7023849487305" lon="-5.02063894271851">
        <ele>1475.5185546875</ele>
        <time>2018-07-28T08:17:02Z</time>
      </trkpt>
      <trkpt lat="36.7023811340332" lon="-5.02064800262451">
        <ele>1475.64318847656</ele>
        <time>2018-07-28T08:17:03Z</time>
      </trkpt>
      <trkpt lat="36.7023773193359" lon="-5.0206561088562">
        <ele>1475.7734375</ele>
        <time>2018-07-28T08:17:04Z</time>
      </trkpt>
      <trkpt lat="36.7023773193359" lon="-5.02066421508789">
        <ele>1475.72631835938</ele>
        <time>2018-07-28T08:17:05Z</time>
      </trkpt>
      <trkpt lat="36.7023773193359" lon="-5.02066802978516">
        <ele>1475.7041015625</ele>
        <time>2018-07-28T08:17:06Z</time>
      </trkpt>
      <trkpt lat="36.7023773193359" lon="-5.02067184448242">
        <ele>1475.68188476562</ele>
        <time>2018-07-28T08:17:07Z</time>
      </trkpt>
      <trkpt lat="36.7023773193359" lon="-5.02067518234253">
        <ele>1475.66247558594</ele>
        <time>2018-07-28T08:17:08Z</time>
      </trkpt>
      <trkpt lat="36.7023773193359" lon="-5.02068090438843">
        <ele>1475.62915039062</ele>
        <time>2018-07-28T08:17:09Z</time>
      </trkpt>
      <trkpt lat="36.7023811340332" lon="-5.02068710327148">
        <ele>1475.41528320312</ele>
        <time>2018-07-28T08:17:10Z</time>
      </trkpt>
      <trkpt lat="36.7023811340332" lon="-5.02069187164307">
        <ele>1475.38745117188</ele>
        <time>2018-07-28T08:17:11Z</time>
      </trkpt>
      <trkpt lat="36.7023849487305" lon="-5.02069711685181">
        <ele>1475.17907714844</ele>
        <time>2018-07-28T08:17:12Z</time>
      </trkpt>
      <trkpt lat="36.7023887634277" lon="-5.0207028388977">
        <ele>1474.96789550781</ele>
        <time>2018-07-28T08:17:13Z</time>
      </trkpt>
      <trkpt lat="36.702392578125" lon="-5.02070999145508">
        <ele>1474.74829101562</ele>
        <time>2018-07-28T08:17:14Z</time>
      </trkpt>
      <trkpt lat="36.702392578125" lon="-5.02071523666382">
        <ele>1474.71765136719</ele>
        <time>2018-07-28T08:17:15Z</time>
      </trkpt>
      <trkpt lat="36.7023963928223" lon="-5.02072286605835">
        <ele>1474.4951171875</ele>
        <time>2018-07-28T08:17:16Z</time>
      </trkpt>
      <trkpt lat="36.7024002075195" lon="-5.02073192596436">
        <ele>1474.26416015625</ele>
        <time>2018-07-28T08:17:17Z</time>
      </trkpt>
      <trkpt lat="36.7023963928223" lon="-5.02074098587036">
        <ele>1474.38916015625</ele>
        <time>2018-07-28T08:17:18Z</time>
      </trkpt>
      <trkpt lat="36.7023887634277" lon="-5.02074909210205">
        <ele>1474.69787597656</ele>
        <time>2018-07-28T08:17:19Z</time>
      </trkpt>
      <trkpt lat="36.7023811340332" lon="-5.02075719833374">
        <ele>1475.00671386719</ele>
        <time>2018-07-28T08:17:20Z</time>
      </trkpt>
      <trkpt lat="36.7023773193359" lon="-5.02076482772827">
        <ele>1475.14038085938</ele>
        <time>2018-07-28T08:17:21Z</time>
      </trkpt>
      <trkpt lat="36.7023735046387" lon="-5.02077388763428">
        <ele>1475.26586914062</ele>
        <time>2018-07-28T08:17:22Z</time>
      </trkpt>
      <trkpt lat="36.7023696899414" lon="-5.02078199386597">
        <ele>1475.39697265625</ele>
        <time>2018-07-28T08:17:23Z</time>
      </trkpt>
      <trkpt lat="36.7023658752441" lon="-5.02078914642334">
        <ele>1475.53356933594</ele>
        <time>2018-07-28T08:17:24Z</time>
      </trkpt>
      <trkpt lat="36.7023620605469" lon="-5.02079677581787">
        <ele>1475.66760253906</ele>
        <time>2018-07-28T08:17:25Z</time>
      </trkpt>
      <trkpt lat="36.7023620605469" lon="-5.02080488204956">
        <ele>1475.62060546875</ele>
        <time>2018-07-28T08:17:26Z</time>
      </trkpt>
      <trkpt lat="36.7023620605469" lon="-5.02081298828125">
        <ele>1475.57360839844</ele>
        <time>2018-07-28T08:17:27Z</time>
      </trkpt>
      <trkpt lat="36.7023620605469" lon="-5.02082300186157">
        <ele>1475.51550292969</ele>
        <time>2018-07-28T08:17:28Z</time>
      </trkpt>
      <trkpt lat="36.7023658752441" lon="-5.02083492279053">
        <ele>1475.248046875</ele>
        <time>2018-07-28T08:17:29Z</time>
      </trkpt>
      <trkpt lat="36.7023735046387" lon="-5.02085208892822">
        <ele>1474.57495117188</ele>
        <time>2018-07-28T08:17:30Z</time>
      </trkpt>
      <trkpt lat="36.7023773193359" lon="-5.02086591720581">
        <ele>1474.14001464844</ele>
        <time>2018-07-28T08:17:31Z</time>
      </trkpt>
      <trkpt lat="36.7023773193359" lon="-5.02088022232056">
        <ele>1473.8759765625</ele>
        <time>2018-07-28T08:17:32Z</time>
      </trkpt>
      <trkpt lat="36.7023735046387" lon="-5.02089214324951">
        <ele>1473.83813476562</ele>
        <time>2018-07-28T08:17:33Z</time>
      </trkpt>
      <trkpt lat="36.7023735046387" lon="-5.02090501785278">
        <ele>1473.60119628906</ele>
        <time>2018-07-28T08:17:34Z</time>
      </trkpt>
      <trkpt lat="36.7023735046387" lon="-5.02091789245606">
        <ele>1473.36437988281</ele>
        <time>2018-07-28T08:17:35Z</time>
      </trkpt>
      <trkpt lat="36.7023735046387" lon="-5.02092981338501">
        <ele>1473.14514160156</ele>
        <time>2018-07-28T08:17:36Z</time>
      </trkpt>
      <trkpt lat="36.7023735046387" lon="-5.02094221115112">
        <ele>1472.9169921875</ele>
        <time>2018-07-28T08:17:37Z</time>
      </trkpt>
      <trkpt lat="36.7023696899414" lon="-5.02095079421997">
        <ele>1472.94470214844</ele>
        <time>2018-07-28T08:17:38Z</time>
      </trkpt>
      <trkpt lat="36.7023696899414" lon="-5.02095985412598">
        <ele>1472.77868652344</ele>
        <time>2018-07-28T08:17:39Z</time>
      </trkpt>
      <trkpt lat="36.7023735046387" lon="-5.02096509933472">
        <ele>1472.49597167969</ele>
        <time>2018-07-28T08:17:40Z</time>
      </trkpt>
      <trkpt lat="36.7023773193359" lon="-5.02097320556641">
        <ele>1472.15991210938</ele>
        <time>2018-07-28T08:17:41Z</time>
      </trkpt>
      <trkpt lat="36.7023773193359" lon="-5.02097988128662">
        <ele>1472.03662109375</ele>
        <time>2018-07-28T08:17:42Z</time>
      </trkpt>
      <trkpt lat="36.7023773193359" lon="-5.02098703384399">
        <ele>1471.90466308594</ele>
        <time>2018-07-28T08:17:43Z</time>
      </trkpt>
      <trkpt lat="36.7023773193359" lon="-5.02099180221558">
        <ele>1471.81665039062</ele>
        <time>2018-07-28T08:17:44Z</time>
      </trkpt>
      <trkpt lat="36.7023773193359" lon="-5.02099514007568">
        <ele>1471.75500488281</ele>
        <time>2018-07-28T08:17:45Z</time>
      </trkpt>
      <trkpt lat="36.7023773193359" lon="-5.02099800109863">
        <ele>1471.70227050781</ele>
        <time>2018-07-28T08:17:46Z</time>
      </trkpt>
      <trkpt lat="36.7023735046387" lon="-5.0210018157959">
        <ele>1471.82055664062</ele>
        <time>2018-07-28T08:17:47Z</time>
      </trkpt>
      <trkpt lat="36.7023735046387" lon="-5.02100610733032">
        <ele>1471.74157714844</ele>
        <time>2018-07-28T08:17:48Z</time>
      </trkpt>
      <trkpt lat="36.7023735046387" lon="-5.02100896835327">
        <ele>1471.68896484375</ele>
        <time>2018-07-28T08:17:49Z</time>
      </trkpt>
      <trkpt lat="36.7023735046387" lon="-5.02100992202759">
        <ele>1471.67138671875</ele>
        <time>2018-07-28T08:17:50Z</time>
      </trkpt>
      <trkpt lat="36.7023735046387" lon="-5.02100896835327">
        <ele>1471.68896484375</ele>
        <time>2018-07-28T08:17:51Z</time>
      </trkpt>
      <trkpt lat="36.7023696899414" lon="-5.02100801467896">
        <ele>1471.89562988281</ele>
        <time>2018-07-28T08:17:52Z</time>
      </trkpt>
      <trkpt lat="36.7023696899414" lon="-5.02100706100464">
        <ele>1471.9130859375</ele>
        <time>2018-07-28T08:17:53Z</time>
      </trkpt>
      <trkpt lat="36.7023696899414" lon="-5.02100706100464">
        <ele>1471.9130859375</ele>
        <time>2018-07-28T08:17:54Z</time>
      </trkpt>
      <trkpt lat="36.7023696899414" lon="-5.02100610733032">
        <ele>1471.93054199219</ele>
        <time>2018-07-28T08:17:55Z</time>
      </trkpt>
      <trkpt lat="36.7023696899414" lon="-5.02100706100464">
        <ele>1471.9130859375</ele>
        <time>2018-07-28T08:17:56Z</time>
      </trkpt>
      <trkpt lat="36.7023696899414" lon="-5.0210108757019">
        <ele>1471.84313964844</ele>
        <time>2018-07-28T08:17:57Z</time>
      </trkpt>
      <trkpt lat="36.7023735046387" lon="-5.02101898193359">
        <ele>1471.50476074219</ele>
        <time>2018-07-28T08:17:58Z</time>
      </trkpt>
      <trkpt lat="36.7023735046387" lon="-5.02102899551392">
        <ele>1471.32055664062</ele>
        <time>2018-07-28T08:17:59Z</time>
      </trkpt>
      <trkpt lat="36.7023773193359" lon="-5.02103710174561">
        <ele>1470.98059082031</ele>
        <time>2018-07-28T08:18:00Z</time>
      </trkpt>
      <trkpt lat="36.7023773193359" lon="-5.0210452079773">
        <ele>1470.83093261719</ele>
        <time>2018-07-28T08:18:01Z</time>
      </trkpt>
      <trkpt lat="36.7023811340332" lon="-5.02105283737183">
        <ele>1470.49829101562</ele>
        <time>2018-07-28T08:18:02Z</time>
      </trkpt>
      <trkpt lat="36.7023811340332" lon="-5.02106285095215">
        <ele>1470.31286621094</ele>
        <time>2018-07-28T08:18:03Z</time>
      </trkpt>
      <trkpt lat="36.7023811340332" lon="-5.02107381820679">
        <ele>1470.10986328125</ele>
        <time>2018-07-28T08:18:04Z</time>
      </trkpt>
      <trkpt lat="36.7023773193359" lon="-5.0210862159729">
        <ele>1470.07409667969</ele>
        <time>2018-07-28T08:18:05Z</time>
      </trkpt>
      <trkpt lat="36.7023773193359" lon="-5.02109384536743">
        <ele>1469.93322753906</ele>
        <time>2018-07-28T08:18:06Z</time>
      </trkpt>
      <trkpt lat="36.7023735046387" lon="-5.02110004425049">
        <ele>1470.01342773438</ele>
        <time>2018-07-28T08:18:07Z</time>
      </trkpt>
      <trkpt lat="36.7023735046387" lon="-5.02110576629639">
        <ele>1469.908203125</ele>
        <time>2018-07-28T08:18:08Z</time>
      </trkpt>
      <trkpt lat="36.7023735046387" lon="-5.02111387252808">
        <ele>1469.75915527344</ele>
        <time>2018-07-28T08:18:09Z</time>
      </trkpt>
      <trkpt lat="36.7023735046387" lon="-5.02112102508545">
        <ele>1469.62756347656</ele>
        <time>2018-07-28T08:18:10Z</time>
      </trkpt>
      <trkpt lat="36.7023773193359" lon="-5.02112579345703">
        <ele>1469.34362792969</ele>
        <time>2018-07-28T08:18:11Z</time>
      </trkpt>
      <trkpt lat="36.7023811340332" lon="-5.02113008499146">
        <ele>1469.06787109375</ele>
        <time>2018-07-28T08:18:12Z</time>
      </trkpt>
      <trkpt lat="36.7023811340332" lon="-5.0211329460144">
        <ele>1469.01489257812</ele>
        <time>2018-07-28T08:18:13Z</time>
      </trkpt>
      <trkpt lat="36.7023811340332" lon="-5.02113723754883">
        <ele>1468.93542480469</ele>
        <time>2018-07-28T08:18:14Z</time>
      </trkpt>
      <trkpt lat="36.7023849487305" lon="-5.02114200592041">
        <ele>1468.65002441406</ele>
        <time>2018-07-28T08:18:15Z</time>
      </trkpt>
      <trkpt lat="36.7023887634277" lon="-5.02114915847778">
        <ele>1468.31945800781</ele>
        <time>2018-07-28T08:18:16Z</time>
      </trkpt>
      <trkpt lat="36.7023887634277" lon="-5.02115488052368">
        <ele>1468.212890625</ele>
        <time>2018-07-28T08:18:17Z</time>
      </trkpt>
      <trkpt lat="36.7023887634277" lon="-5.02116203308106">
        <ele>1468.07958984375</ele>
        <time>2018-07-28T08:18:18Z</time>
      </trkpt>
      <trkpt lat="36.7023849487305" lon="-5.02116918563843">
        <ele>1468.14501953125</ele>
        <time>2018-07-28T08:18:19Z</time>
      </trkpt>
      <trkpt lat="36.7023849487305" lon="-5.02117919921875">
        <ele>1467.95910644531</ele>
        <time>2018-07-28T08:18:20Z</time>
      </trkpt>
      <trkpt lat="36.7023811340332" lon="-5.02119016647339">
        <ele>1467.95544433594</ele>
        <time>2018-07-28T08:18:21Z</time>
      </trkpt>
      <trkpt lat="36.7023811340332" lon="-5.02120018005371">
        <ele>1467.77001953125</ele>
        <time>2018-07-28T08:18:22Z</time>
      </trkpt>
      <trkpt lat="36.7023773193359" lon="-5.02120876312256">
        <ele>1467.81225585938</ele>
        <time>2018-07-28T08:18:23Z</time>
      </trkpt>
      <trkpt lat="36.7023735046387" lon="-5.02121591567993">
        <ele>1467.8818359375</ele>
        <time>2018-07-28T08:18:24Z</time>
      </trkpt>
      <trkpt lat="36.7023735046387" lon="-5.02122402191162">
        <ele>1467.73278808594</ele>
        <time>2018-07-28T08:18:25Z</time>
      </trkpt>
      <trkpt lat="36.7023696899414" lon="-5.02123308181763">
        <ele>1467.76879882812</ele>
        <time>2018-07-28T08:18:26Z</time>
      </trkpt>
      <trkpt lat="36.7023658752441" lon="-5.021240234375">
        <ele>1467.84069824219</ele>
        <time>2018-07-28T08:18:27Z</time>
      </trkpt>
      <trkpt lat="36.7023620605469" lon="-5.02124404907227">
        <ele>1467.97436523438</ele>
        <time>2018-07-28T08:18:28Z</time>
      </trkpt>
      <trkpt lat="36.7023582458496" lon="-5.02124691009522">
        <ele>1468.12573242188</ele>
        <time>2018-07-28T08:18:29Z</time>
      </trkpt>
      <trkpt lat="36.7023582458496" lon="-5.02125215530396">
        <ele>1468.03051757812</ele>
        <time>2018-07-28T08:18:30Z</time>
      </trkpt>
      <trkpt lat="36.7023544311523" lon="-5.02125692367554">
        <ele>1468.14807128906</ele>
        <time>2018-07-28T08:18:31Z</time>
      </trkpt>
      <trkpt lat="36.7023544311523" lon="-5.02126407623291">
        <ele>1468.01867675781</ele>
        <time>2018-07-28T08:18:32Z</time>
      </trkpt>
      <trkpt lat="36.7023544311523" lon="-5.02127122879028">
        <ele>1467.88928222656</ele>
        <time>2018-07-28T08:18:33Z</time>
      </trkpt>
      <trkpt lat="36.7023506164551" lon="-5.02127981185913">
        <ele>1467.939453125</ele>
        <time>2018-07-28T08:18:34Z</time>
      </trkpt>
      <trkpt lat="36.7023506164551" lon="-5.02128887176514">
        <ele>1467.77612304688</ele>
        <time>2018-07-28T08:18:35Z</time>
      </trkpt>
      <trkpt lat="36.7023506164551" lon="-5.02129793167114">
        <ele>1467.61267089844</ele>
        <time>2018-07-28T08:18:36Z</time>
      </trkpt>
      <trkpt lat="36.7023468017578" lon="-5.02130794525146">
        <ele>1467.63928222656</ele>
        <time>2018-07-28T08:18:37Z</time>
      </trkpt>
      <trkpt lat="36.7023468017578" lon="-5.02131605148315">
        <ele>1467.49365234375</ele>
        <time>2018-07-28T08:18:38Z</time>
      </trkpt>
      <trkpt lat="36.7023468017578" lon="-5.02132415771484">
        <ele>1467.34790039062</ele>
        <time>2018-07-28T08:18:39Z</time>
      </trkpt>
      <trkpt lat="36.7023468017578" lon="-5.02133178710938">
        <ele>1467.21081542969</ele>
        <time>2018-07-28T08:18:40Z</time>
      </trkpt>
      <trkpt lat="36.7023544311523" lon="-5.02133798599243">
        <ele>1466.68139648438</ele>
        <time>2018-07-28T08:18:41Z</time>
      </trkpt>
      <trkpt lat="36.7023620605469" lon="-5.02134323120117">
        <ele>1466.16772460938</ele>
        <time>2018-07-28T08:18:42Z</time>
      </trkpt>
      <trkpt lat="36.7023620605469" lon="-5.02134609222412">
        <ele>1466.11560058594</ele>
        <time>2018-07-28T08:18:43Z</time>
      </trkpt>
      <trkpt lat="36.7023544311523" lon="-5.02134704589844">
        <ele>1466.51745605469</ele>
        <time>2018-07-28T08:18:44Z</time>
      </trkpt>
      <trkpt lat="36.7023468017578" lon="-5.02134895324707">
        <ele>1466.90222167969</ele>
        <time>2018-07-28T08:18:45Z</time>
      </trkpt>
      <trkpt lat="36.7023391723633" lon="-5.0213508605957">
        <ele>1467.28759765625</ele>
        <time>2018-07-28T08:18:46Z</time>
      </trkpt>
      <trkpt lat="36.7023315429688" lon="-5.02135610580444">
        <ele>1467.61413574219</ele>
        <time>2018-07-28T08:18:47Z</time>
      </trkpt>
      <trkpt lat="36.7023277282715" lon="-5.02136278152466">
        <ele>1467.70629882812</ele>
        <time>2018-07-28T08:18:48Z</time>
      </trkpt>
      <trkpt lat="36.7023239135742" lon="-5.02136898040772">
        <ele>1467.8076171875</ele>
        <time>2018-07-28T08:18:49Z</time>
      </trkpt>
      <trkpt lat="36.702320098877" lon="-5.02137804031372">
        <ele>1467.85961914062</ele>
        <time>2018-07-28T08:18:50Z</time>
      </trkpt>
      <trkpt lat="36.702320098877" lon="-5.02138614654541">
        <ele>1467.71728515625</ele>
        <time>2018-07-28T08:18:51Z</time>
      </trkpt>
      <trkpt lat="36.7023162841797" lon="-5.02139377593994">
        <ele>1467.79577636719</ele>
        <time>2018-07-28T08:18:52Z</time>
      </trkpt>
      <trkpt lat="36.7023162841797" lon="-5.02140188217163">
        <ele>1467.65405273438</ele>
        <time>2018-07-28T08:18:53Z</time>
      </trkpt>
      <trkpt lat="36.7023162841797" lon="-5.02140808105469">
        <ele>1467.54565429688</ele>
        <time>2018-07-28T08:18:54Z</time>
      </trkpt>
      <trkpt lat="36.7023162841797" lon="-5.02141284942627">
        <ele>1467.46215820312</ele>
        <time>2018-07-28T08:18:55Z</time>
      </trkpt>
      <trkpt lat="36.7023162841797" lon="-5.02141714096069">
        <ele>1467.38708496094</ele>
        <time>2018-07-28T08:18:56Z</time>
      </trkpt>
      <trkpt lat="36.702320098877" lon="-5.02141809463501">
        <ele>1467.15661621094</ele>
        <time>2018-07-28T08:18:57Z</time>
      </trkpt>
      <trkpt lat="36.702320098877" lon="-5.02141904830933">
        <ele>1467.13989257812</ele>
        <time>2018-07-28T08:18:58Z</time>
      </trkpt>
      <trkpt lat="36.702320098877" lon="-5.02141904830933">
        <ele>1467.13989257812</ele>
        <time>2018-07-28T08:18:59Z</time>
      </trkpt>
      <trkpt lat="36.702320098877" lon="-5.02142095565796">
        <ele>1467.1064453125</ele>
        <time>2018-07-28T08:19:00Z</time>
      </trkpt>
      <trkpt lat="36.7023162841797" lon="-5.02142286300659">
        <ele>1467.287109375</ele>
        <time>2018-07-28T08:19:01Z</time>
      </trkpt>
      <trkpt lat="36.7023162841797" lon="-5.02142715454102">
        <ele>1467.21203613281</ele>
        <time>2018-07-28T08:19:02Z</time>
      </trkpt>
      <trkpt lat="36.7023162841797" lon="-5.0214319229126">
        <ele>1467.12866210938</ele>
        <time>2018-07-28T08:19:03Z</time>
      </trkpt>
      <trkpt lat="36.7023162841797" lon="-5.02143716812134">
        <ele>1467.03686523438</ele>
        <time>2018-07-28T08:19:04Z</time>
      </trkpt>
      <trkpt lat="36.7023162841797" lon="-5.02144813537598">
        <ele>1466.84509277344</ele>
        <time>2018-07-28T08:19:05Z</time>
      </trkpt>
      <trkpt lat="36.702320098877" lon="-5.02146100997925">
        <ele>1466.40344238281</ele>
        <time>2018-07-28T08:19:06Z</time>
      </trkpt>
      <trkpt lat="36.7023239135742" lon="-5.02147483825684">
        <ele>1465.94348144531</ele>
        <time>2018-07-28T08:19:07Z</time>
      </trkpt>
      <trkpt lat="36.7023277282715" lon="-5.02148723602295">
        <ele>1465.50708007812</ele>
        <time>2018-07-28T08:19:08Z</time>
      </trkpt>
      <trkpt lat="36.7023277282715" lon="-5.02149820327759">
        <ele>1465.31323242188</ele>
        <time>2018-07-28T08:19:09Z</time>
      </trkpt>
      <trkpt lat="36.7023315429688" lon="-5.02150583267212">
        <ele>1464.95922851562</ele>
        <time>2018-07-28T08:19:10Z</time>
      </trkpt>
      <trkpt lat="36.7023315429688" lon="-5.02150917053223">
        <ele>1464.90014648438</ele>
        <time>2018-07-28T08:19:11Z</time>
      </trkpt>
      <trkpt lat="36.7023277282715" lon="-5.02150917053223">
        <ele>1465.11950683594</ele>
        <time>2018-07-28T08:19:12Z</time>
      </trkpt>
      <trkpt lat="36.7023277282715" lon="-5.02151012420654">
        <ele>1465.1025390625</ele>
        <time>2018-07-28T08:19:13Z</time>
      </trkpt>
      <trkpt lat="36.7023239135742" lon="-5.02151203155518">
        <ele>1465.28845214844</ele>
        <time>2018-07-28T08:19:14Z</time>
      </trkpt>
      <trkpt lat="36.7023239135742" lon="-5.02151584625244">
        <ele>1465.22119140625</ele>
        <time>2018-07-28T08:19:15Z</time>
      </trkpt>
      <trkpt lat="36.7023239135742" lon="-5.0215220451355">
        <ele>1465.11206054688</ele>
        <time>2018-07-28T08:19:16Z</time>
      </trkpt>
      <trkpt lat="36.702320098877" lon="-5.0215277671814">
        <ele>1465.23181152344</ele>
        <time>2018-07-28T08:19:17Z</time>
      </trkpt>
      <trkpt lat="36.702320098877" lon="-5.0215368270874">
        <ele>1465.07275390625</ele>
        <time>2018-07-28T08:19:18Z</time>
      </trkpt>
      <trkpt lat="36.7023162841797" lon="-5.02154397964478">
        <ele>1465.16870117188</ele>
        <time>2018-07-28T08:19:19Z</time>
      </trkpt>
      <trkpt lat="36.702320098877" lon="-5.02155303955078">
        <ele>1464.78820800781</ele>
        <time>2018-07-28T08:19:20Z</time>
      </trkpt>
      <trkpt lat="36.7023239135742" lon="-5.02156019210815">
        <ele>1464.44030761719</ele>
        <time>2018-07-28T08:19:21Z</time>
      </trkpt>
      <trkpt lat="36.7023277282715" lon="-5.02157020568848">
        <ele>1464.04089355469</ele>
        <time>2018-07-28T08:19:22Z</time>
      </trkpt>
      <trkpt lat="36.7023315429688" lon="-5.0215802192688">
        <ele>1463.64025878906</ele>
        <time>2018-07-28T08:19:23Z</time>
      </trkpt>
      <trkpt lat="36.7023315429688" lon="-5.02159214019775">
        <ele>1463.42895507812</ele>
        <time>2018-07-28T08:19:24Z</time>
      </trkpt>
      <trkpt lat="36.702335357666" lon="-5.02159976959228">
        <ele>1463.06872558594</ele>
        <time>2018-07-28T08:19:25Z</time>
      </trkpt>
      <trkpt lat="36.702335357666" lon="-5.02160501480103">
        <ele>1462.97546386719</ele>
        <time>2018-07-28T08:19:26Z</time>
      </trkpt>
      <trkpt lat="36.702335357666" lon="-5.02161121368408">
        <ele>1462.86511230469</ele>
        <time>2018-07-28T08:19:27Z</time>
      </trkpt>
      <trkpt lat="36.702335357666" lon="-5.0216178894043">
        <ele>1462.74633789062</ele>
        <time>2018-07-28T08:19:28Z</time>
      </trkpt>
      <trkpt lat="36.702335357666" lon="-5.0216269493103">
        <ele>1462.58520507812</ele>
        <time>2018-07-28T08:19:29Z</time>
      </trkpt>
      <trkpt lat="36.7023315429688" lon="-5.02163505554199">
        <ele>1462.66796875</ele>
        <time>2018-07-28T08:19:30Z</time>
      </trkpt>
      <trkpt lat="36.7023277282715" lon="-5.02164316177368">
        <ele>1462.75170898438</ele>
        <time>2018-07-28T08:19:31Z</time>
      </trkpt>
      <trkpt lat="36.702320098877" lon="-5.02165222167969">
        <ele>1463.04760742188</ele>
        <time>2018-07-28T08:19:32Z</time>
      </trkpt>
      <trkpt lat="36.7023162841797" lon="-5.02165985107422">
        <ele>1463.14221191406</ele>
        <time>2018-07-28T08:19:33Z</time>
      </trkpt>
      <trkpt lat="36.7023124694824" lon="-5.02166986465454">
        <ele>1463.20751953125</ele>
        <time>2018-07-28T08:19:34Z</time>
      </trkpt>
      <trkpt lat="36.7023086547852" lon="-5.02167797088623">
        <ele>1463.32421875</ele>
        <time>2018-07-28T08:19:35Z</time>
      </trkpt>
      <trkpt lat="36.7023048400879" lon="-5.02168607711792">
        <ele>1463.44104003906</ele>
        <time>2018-07-28T08:19:36Z</time>
      </trkpt>
      <trkpt lat="36.7023048400879" lon="-5.02169609069824">
        <ele>1463.30236816406</ele>
        <time>2018-07-28T08:19:37Z</time>
      </trkpt>
      <trkpt lat="36.7023048400879" lon="-5.0217080116272">
        <ele>1463.13745117188</ele>
        <time>2018-07-28T08:19:38Z</time>
      </trkpt>
      <trkpt lat="36.7023048400879" lon="-5.02171993255615">
        <ele>1462.97253417969</ele>
        <time>2018-07-28T08:19:39Z</time>
      </trkpt>
      <trkpt lat="36.7023010253906" lon="-5.02172994613647">
        <ele>1463.0634765625</ele>
        <time>2018-07-28T08:19:40Z</time>
      </trkpt>
      <trkpt lat="36.7022972106934" lon="-5.0217399597168">
        <ele>1463.15478515625</ele>
        <time>2018-07-28T08:19:41Z</time>
      </trkpt>
      <trkpt lat="36.7022895812988" lon="-5.02174997329712">
        <ele>1463.47595214844</ele>
        <time>2018-07-28T08:19:42Z</time>
      </trkpt>
      <trkpt lat="36.7022895812988" lon="-5.02175998687744">
        <ele>1463.337890625</ele>
        <time>2018-07-28T08:19:43Z</time>
      </trkpt>
      <trkpt lat="36.7022857666016" lon="-5.02176809310913">
        <ele>1463.4560546875</ele>
        <time>2018-07-28T08:19:44Z</time>
      </trkpt>
      <trkpt lat="36.7022857666016" lon="-5.02177286148071">
        <ele>1463.39038085938</ele>
        <time>2018-07-28T08:19:45Z</time>
      </trkpt>
      <trkpt lat="36.7022857666016" lon="-5.02177715301514">
        <ele>1463.33117675781</ele>
        <time>2018-07-28T08:19:46Z</time>
      </trkpt>
      <trkpt lat="36.7022819519043" lon="-5.02177906036377">
        <ele>1463.53503417969</ele>
        <time>2018-07-28T08:19:47Z</time>
      </trkpt>
      <trkpt lat="36.702278137207" lon="-5.0217809677124">
        <ele>1463.73889160156</ele>
        <time>2018-07-28T08:19:48Z</time>
      </trkpt>
      <trkpt lat="36.702278137207" lon="-5.02178287506104">
        <ele>1463.71264648438</ele>
        <time>2018-07-28T08:19:49Z</time>
      </trkpt>
      <trkpt lat="36.702278137207" lon="-5.02178478240967">
        <ele>1463.68640136719</ele>
        <time>2018-07-28T08:19:50Z</time>
      </trkpt>
      <trkpt lat="36.7022743225098" lon="-5.02178716659546">
        <ele>1463.8837890625</ele>
        <time>2018-07-28T08:19:51Z</time>
      </trkpt>
      <trkpt lat="36.7022743225098" lon="-5.02179098129272">
        <ele>1463.83129882812</ele>
        <time>2018-07-28T08:19:52Z</time>
      </trkpt>
      <trkpt lat="36.702278137207" lon="-5.02179622650146">
        <ele>1463.52893066406</ele>
        <time>2018-07-28T08:19:53Z</time>
      </trkpt>
      <trkpt lat="36.702278137207" lon="-5.021803855896">
        <ele>1463.42395019531</ele>
        <time>2018-07-28T08:19:54Z</time>
      </trkpt>
      <trkpt lat="36.702278137207" lon="-5.02181386947632">
        <ele>1463.2861328125</ele>
        <time>2018-07-28T08:19:55Z</time>
      </trkpt>
      <trkpt lat="36.702278137207" lon="-5.02182579040527">
        <ele>1463.1220703125</ele>
        <time>2018-07-28T08:19:56Z</time>
      </trkpt>
      <trkpt lat="36.702278137207" lon="-5.0218391418457">
        <ele>1462.93835449219</ele>
        <time>2018-07-28T08:19:57Z</time>
      </trkpt>
      <trkpt lat="36.702278137207" lon="-5.02185106277466">
        <ele>1462.77429199219</ele>
        <time>2018-07-28T08:19:58Z</time>
      </trkpt>
      <trkpt lat="36.702278137207" lon="-5.02186298370361">
        <ele>1462.61022949219</ele>
        <time>2018-07-28T08:19:59Z</time>
      </trkpt>
      <trkpt lat="36.7022705078125" lon="-5.02187299728394">
        <ele>1462.93469238281</ele>
        <time>2018-07-28T08:20:00Z</time>
      </trkpt>
      <trkpt lat="36.702262878418" lon="-5.02188301086426">
        <ele>1463.25964355469</ele>
        <time>2018-07-28T08:20:01Z</time>
      </trkpt>
      <trkpt lat="36.7022552490234" lon="-5.02189302444458">
        <ele>1463.58508300781</ele>
        <time>2018-07-28T08:20:02Z</time>
      </trkpt>
      <trkpt lat="36.7022514343262" lon="-5.02190208435059">
        <ele>1463.69250488281</ele>
        <time>2018-07-28T08:20:03Z</time>
      </trkpt>
      <trkpt lat="36.7022514343262" lon="-5.02191209793091">
        <ele>1463.55541992188</ele>
        <time>2018-07-28T08:20:04Z</time>
      </trkpt>
      <trkpt lat="36.7022514343262" lon="-5.02192115783691">
        <ele>1463.43139648438</ele>
        <time>2018-07-28T08:20:05Z</time>
      </trkpt>
      <trkpt lat="36.7022438049316" lon="-5.02192687988281">
        <ele>1463.81665039062</ele>
        <time>2018-07-28T08:20:06Z</time>
      </trkpt>
      <trkpt lat="36.7022399902344" lon="-5.02193307876587">
        <ele>1463.96374511719</ele>
        <time>2018-07-28T08:20:07Z</time>
      </trkpt>
      <trkpt lat="36.7022323608398" lon="-5.02193880081177">
        <ele>1464.34936523438</ele>
        <time>2018-07-28T08:20:08Z</time>
      </trkpt>
      <trkpt lat="36.7022285461426" lon="-5.02194499969482">
        <ele>1464.49682617188</ele>
        <time>2018-07-28T08:20:09Z</time>
      </trkpt>
      <trkpt lat="36.7022247314453" lon="-5.02194976806641">
        <ele>1464.66394042969</ele>
        <time>2018-07-28T08:20:10Z</time>
      </trkpt>
      <trkpt lat="36.702220916748" lon="-5.02195501327515">
        <ele>1464.82458496094</ele>
        <time>2018-07-28T08:20:11Z</time>
      </trkpt>
      <trkpt lat="36.7022171020508" lon="-5.02195978164673">
        <ele>1464.99182128906</ele>
        <time>2018-07-28T08:20:12Z</time>
      </trkpt>
      <trkpt lat="36.7022132873535" lon="-5.02196598052978">
        <ele>1465.13977050781</ele>
        <time>2018-07-28T08:20:13Z</time>
      </trkpt>
      <trkpt lat="36.7022094726562" lon="-5.02197122573853">
        <ele>1465.30078125</ele>
        <time>2018-07-28T08:20:14Z</time>
      </trkpt>
      <trkpt lat="36.7022094726562" lon="-5.02197599411011">
        <ele>1465.23620605469</ele>
        <time>2018-07-28T08:20:15Z</time>
      </trkpt>
      <trkpt lat="36.7022094726562" lon="-5.02197885513306">
        <ele>1465.19738769531</ele>
        <time>2018-07-28T08:20:16Z</time>
      </trkpt>
      <trkpt lat="36.7022094726562" lon="-5.02197980880737">
        <ele>1465.18444824219</ele>
        <time>2018-07-28T08:20:17Z</time>
      </trkpt>
      <trkpt lat="36.702205657959" lon="-5.02197980880737">
        <ele>1465.41674804688</ele>
        <time>2018-07-28T08:20:18Z</time>
      </trkpt>
      <trkpt lat="36.702205657959" lon="-5.02198076248169">
        <ele>1465.40380859375</ele>
        <time>2018-07-28T08:20:19Z</time>
      </trkpt>
      <trkpt lat="36.7022018432617" lon="-5.02198505401611">
        <ele>1465.57800292969</ele>
        <time>2018-07-28T08:20:20Z</time>
      </trkpt>
      <trkpt lat="36.7022018432617" lon="-5.02199077606201">
        <ele>1465.50048828125</ele>
        <time>2018-07-28T08:20:21Z</time>
      </trkpt>
      <trkpt lat="36.7021980285644" lon="-5.0219988822937">
        <ele>1465.62329101562</ele>
        <time>2018-07-28T08:20:22Z</time>
      </trkpt>
      <trkpt lat="36.7022018432617" lon="-5.02200794219971">
        <ele>1465.26806640625</ele>
        <time>2018-07-28T08:20:23Z</time>
      </trkpt>
      <trkpt lat="36.702205657959" lon="-5.0220160484314">
        <ele>1464.92553710938</ele>
        <time>2018-07-28T08:20:24Z</time>
      </trkpt>
      <trkpt lat="36.7022094726562" lon="-5.0220251083374">
        <ele>1464.56994628906</ele>
        <time>2018-07-28T08:20:25Z</time>
      </trkpt>
      <trkpt lat="36.7022094726562" lon="-5.02203416824341">
        <ele>1464.44714355469</ele>
        <time>2018-07-28T08:20:26Z</time>
      </trkpt>
      <trkpt lat="36.7022094726562" lon="-5.02204418182373">
        <ele>1464.31127929688</ele>
        <time>2018-07-28T08:20:27Z</time>
      </trkpt>
      <trkpt lat="36.7022094726562" lon="-5.02205419540405">
        <ele>1464.17553710938</ele>
        <time>2018-07-28T08:20:28Z</time>
      </trkpt>
      <trkpt lat="36.7022094726562" lon="-5.02205610275269">
        <ele>1464.14965820312</ele>
        <time>2018-07-28T08:20:29Z</time>
      </trkpt>
      <trkpt lat="36.702205657959" lon="-5.02205276489258">
        <ele>1464.42797851562</ele>
        <time>2018-07-28T08:20:30Z</time>
      </trkpt>
      <trkpt lat="36.7022018432617" lon="-5.02204704284668">
        <ele>1464.73864746094</ele>
        <time>2018-07-28T08:20:31Z</time>
      </trkpt>
      <trkpt lat="36.7022018432617" lon="-5.02204513549805">
        <ele>1464.76440429688</ele>
        <time>2018-07-28T08:20:32Z</time>
      </trkpt>
      <trkpt lat="36.7022018432617" lon="-5.02204513549805">
        <ele>1464.76440429688</ele>
        <time>2018-07-28T08:20:33Z</time>
      </trkpt>
      <trkpt lat="36.7022018432617" lon="-5.022047996521">
        <ele>1464.72570800781</ele>
        <time>2018-07-28T08:20:34Z</time>
      </trkpt>
      <trkpt lat="36.7021980285644" lon="-5.02205181121826">
        <ele>1464.90710449219</ele>
        <time>2018-07-28T08:20:35Z</time>
      </trkpt>
      <trkpt lat="36.7021980285644" lon="-5.022057056427">
        <ele>1464.83618164062</ele>
        <time>2018-07-28T08:20:36Z</time>
      </trkpt>
      <trkpt lat="36.7021980285644" lon="-5.02206420898438">
        <ele>1464.73937988281</ele>
        <time>2018-07-28T08:20:37Z</time>
      </trkpt>
      <trkpt lat="36.7022018432617" lon="-5.02207279205322">
        <ele>1464.38989257812</ele>
        <time>2018-07-28T08:20:38Z</time>
      </trkpt>
      <trkpt lat="36.7021980285644" lon="-5.02208089828491">
        <ele>1464.51354980469</ele>
        <time>2018-07-28T08:20:39Z</time>
      </trkpt>
      <trkpt lat="36.7021942138672" lon="-5.02208995819092">
        <ele>1464.62451171875</ele>
        <time>2018-07-28T08:20:40Z</time>
      </trkpt>
      <trkpt lat="36.7021903991699" lon="-5.02209901809692">
        <ele>1464.73571777344</ele>
        <time>2018-07-28T08:20:41Z</time>
      </trkpt>
      <trkpt lat="36.7021903991699" lon="-5.0221061706543">
        <ele>1464.63903808594</ele>
        <time>2018-07-28T08:20:42Z</time>
      </trkpt>
      <trkpt lat="36.7021865844727" lon="-5.02211618423462">
        <ele>1464.73767089844</ele>
        <time>2018-07-28T08:20:43Z</time>
      </trkpt>
      <trkpt lat="36.7021865844727" lon="-5.02212476730347">
        <ele>1464.62182617188</ele>
        <time>2018-07-28T08:20:44Z</time>
      </trkpt>
      <trkpt lat="36.7021827697754" lon="-5.02213478088379">
        <ele>1464.720703125</ele>
        <time>2018-07-28T08:20:45Z</time>
      </trkpt>
      <trkpt lat="36.7021827697754" lon="-5.0221438407898">
        <ele>1464.59851074219</ele>
        <time>2018-07-28T08:20:46Z</time>
      </trkpt>
      <trkpt lat="36.7021827697754" lon="-5.02215385437012">
        <ele>1464.46337890625</ele>
        <time>2018-07-28T08:20:47Z</time>
      </trkpt>
      <trkpt lat="36.7021827697754" lon="-5.02216482162476">
        <ele>1464.31555175781</ele>
        <time>2018-07-28T08:20:48Z</time>
      </trkpt>
      <trkpt lat="36.7021827697754" lon="-5.02217388153076">
        <ele>1464.193359375</ele>
        <time>2018-07-28T08:20:49Z</time>
      </trkpt>
      <trkpt lat="36.7021827697754" lon="-5.02218103408814">
        <ele>1464.09680175781</ele>
        <time>2018-07-28T08:20:50Z</time>
      </trkpt>
      <trkpt lat="36.7021827697754" lon="-5.02218723297119">
        <ele>1464.01330566406</ele>
        <time>2018-07-28T08:20:51Z</time>
      </trkpt>
      <trkpt lat="36.7021827697754" lon="-5.02219295501709">
        <ele>1463.93603515625</ele>
        <time>2018-07-28T08:20:52Z</time>
      </trkpt>
      <trkpt lat="36.7021865844727" lon="-5.02219915390015">
        <ele>1463.61779785156</ele>
        <time>2018-07-28T08:20:53Z</time>
      </trkpt>
      <trkpt lat="36.7021903991699" lon="-5.02220582962036">
        <ele>1463.29284667969</ele>
        <time>2018-07-28T08:20:54Z</time>
      </trkpt>
      <trkpt lat="36.7021903991699" lon="-5.02221202850342">
        <ele>1463.20910644531</ele>
        <time>2018-07-28T08:20:55Z</time>
      </trkpt>
      <trkpt lat="36.7021827697754" lon="-5.02221918106079">
        <ele>1463.58239746094</ele>
        <time>2018-07-28T08:20:56Z</time>
      </trkpt>
      <trkpt lat="36.7021751403809" lon="-5.02222490310669">
        <ele>1463.97521972656</ele>
        <time>2018-07-28T08:20:57Z</time>
      </trkpt>
      <trkpt lat="36.7021675109863" lon="-5.02223110198975">
        <ele>1464.36193847656</ele>
        <time>2018-07-28T08:20:58Z</time>
      </trkpt>
      <trkpt lat="36.7021636962891" lon="-5.02223682403564">
        <ele>1464.52014160156</ele>
        <time>2018-07-28T08:20:59Z</time>
      </trkpt>
      <trkpt lat="36.7021598815918" lon="-5.02224206924438">
        <ele>1464.68493652344</ele>
        <time>2018-07-28T08:21:00Z</time>
      </trkpt>
      <trkpt lat="36.7021560668945" lon="-5.02224683761597">
        <ele>1464.85620117188</ele>
        <time>2018-07-28T08:21:01Z</time>
      </trkpt>
      <trkpt lat="36.7021522521973" lon="-5.02224922180176">
        <ele>1465.0595703125</ele>
        <time>2018-07-28T08:21:02Z</time>
      </trkpt>
      <trkpt lat="36.7021522521973" lon="-5.02225208282471">
        <ele>1465.02111816406</ele>
        <time>2018-07-28T08:21:03Z</time>
      </trkpt>
      <trkpt lat="36.7021446228027" lon="-5.02225303649902">
        <ele>1465.47900390625</ele>
        <time>2018-07-28T08:21:04Z</time>
      </trkpt>
      <trkpt lat="36.7021331787109" lon="-5.02225494384766">
        <ele>1466.15954589844</ele>
        <time>2018-07-28T08:21:05Z</time>
      </trkpt>
      <trkpt lat="36.7021255493164" lon="-5.02225589752197">
        <ele>1466.61755371094</ele>
        <time>2018-07-28T08:21:06Z</time>
      </trkpt>
      <trkpt lat="36.7021217346191" lon="-5.02225685119629">
        <ele>1466.84020996094</ele>
        <time>2018-07-28T08:21:07Z</time>
      </trkpt>
      <trkpt lat="36.7021179199219" lon="-5.02225923538208">
        <ele>1467.04382324219</ele>
        <time>2018-07-28T08:21:08Z</time>
      </trkpt>
      <trkpt lat="36.7021179199219" lon="-5.02226209640503">
        <ele>1467.005859375</ele>
        <time>2018-07-28T08:21:09Z</time>
      </trkpt>
      <trkpt lat="36.7021217346191" lon="-5.02226686477661">
        <ele>1466.70690917969</ele>
        <time>2018-07-28T08:21:10Z</time>
      </trkpt>
      <trkpt lat="36.7021255493164" lon="-5.02227401733398">
        <ele>1466.37622070312</ele>
        <time>2018-07-28T08:21:11Z</time>
      </trkpt>
      <trkpt lat="36.7021255493164" lon="-5.02228307723999">
        <ele>1466.25549316406</ele>
        <time>2018-07-28T08:21:12Z</time>
      </trkpt>
      <trkpt lat="36.7021217346191" lon="-5.022292137146">
        <ele>1466.37048339844</ele>
        <time>2018-07-28T08:21:13Z</time>
      </trkpt>
      <trkpt lat="36.7021141052246" lon="-5.022301197052">
        <ele>1466.7216796875</ele>
        <time>2018-07-28T08:21:14Z</time>
      </trkpt>
      <trkpt lat="36.7021141052246" lon="-5.02230787277222">
        <ele>1466.63293457031</ele>
        <time>2018-07-28T08:21:15Z</time>
      </trkpt>
      <trkpt lat="36.7021141052246" lon="-5.02231502532959">
        <ele>1466.53784179688</ele>
        <time>2018-07-28T08:21:16Z</time>
      </trkpt>
      <trkpt lat="36.7021141052246" lon="-5.02232217788696">
        <ele>1466.44287109375</ele>
        <time>2018-07-28T08:21:17Z</time>
      </trkpt>
      <trkpt lat="36.7021102905273" lon="-5.02232885360718">
        <ele>1466.59033203125</ele>
        <time>2018-07-28T08:21:18Z</time>
      </trkpt>
      <trkpt lat="36.7021064758301" lon="-5.02233409881592">
        <ele>1466.7568359375</ele>
        <time>2018-07-28T08:21:19Z</time>
      </trkpt>
      <trkpt lat="36.7021026611328" lon="-5.02233600616455">
        <ele>1466.9677734375</ele>
        <time>2018-07-28T08:21:20Z</time>
      </trkpt>
      <trkpt lat="36.7020988464356" lon="-5.02233982086182">
        <ele>1467.15356445312</ele>
        <time>2018-07-28T08:21:21Z</time>
      </trkpt>
      <trkpt lat="36.7020988464356" lon="-5.02234506607056">
        <ele>1467.083984375</ele>
        <time>2018-07-28T08:21:22Z</time>
      </trkpt>
      <trkpt lat="36.7020950317383" lon="-5.02235221862793">
        <ele>1467.22570800781</ele>
        <time>2018-07-28T08:21:23Z</time>
      </trkpt>
      <trkpt lat="36.7020874023438" lon="-5.02235889434814">
        <ele>1467.6103515625</ele>
        <time>2018-07-28T08:21:24Z</time>
      </trkpt>
      <trkpt lat="36.7020874023438" lon="-5.02236604690552">
        <ele>1467.51586914062</ele>
        <time>2018-07-28T08:21:25Z</time>
      </trkpt>
      <trkpt lat="36.7020874023438" lon="-5.02237319946289">
        <ele>1467.42138671875</ele>
        <time>2018-07-28T08:21:26Z</time>
      </trkpt>
      <trkpt lat="36.7020835876465" lon="-5.02238082885742">
        <ele>1467.55725097656</ele>
        <time>2018-07-28T08:21:27Z</time>
      </trkpt>
      <trkpt lat="36.7020835876465" lon="-5.02238702774048">
        <ele>1467.47546386719</ele>
        <time>2018-07-28T08:21:28Z</time>
      </trkpt>
      <trkpt lat="36.7020835876465" lon="-5.02239322662354">
        <ele>1467.39367675781</ele>
        <time>2018-07-28T08:21:29Z</time>
      </trkpt>
      <trkpt lat="36.7020835876465" lon="-5.02239894866943">
        <ele>1467.31811523438</ele>
        <time>2018-07-28T08:21:30Z</time>
      </trkpt>
      <trkpt lat="36.7020835876465" lon="-5.02240419387817">
        <ele>1467.24890136719</ele>
        <time>2018-07-28T08:21:31Z</time>
      </trkpt>
      <trkpt lat="36.7020835876465" lon="-5.0224118232727">
        <ele>1467.14807128906</ele>
        <time>2018-07-28T08:21:32Z</time>
      </trkpt>
      <trkpt lat="36.7020835876465" lon="-5.02241992950439">
        <ele>1467.04113769531</ele>
        <time>2018-07-28T08:21:33Z</time>
      </trkpt>
      <trkpt lat="36.7020874023438" lon="-5.02242994308472">
        <ele>1466.67163085938</ele>
        <time>2018-07-28T08:21:34Z</time>
      </trkpt>
      <trkpt lat="36.7020874023438" lon="-5.02243709564209">
        <ele>1466.5771484375</ele>
        <time>2018-07-28T08:21:35Z</time>
      </trkpt>
      <trkpt lat="36.702091217041" lon="-5.02244710922241">
        <ele>1466.20739746094</ele>
        <time>2018-07-28T08:21:36Z</time>
      </trkpt>
      <trkpt lat="36.702091217041" lon="-5.02245616912842">
        <ele>1466.08764648438</ele>
        <time>2018-07-28T08:21:37Z</time>
      </trkpt>
      <trkpt lat="36.7020950317383" lon="-5.02246713638306">
        <ele>1465.70495605469</ele>
        <time>2018-07-28T08:21:38Z</time>
      </trkpt>
      <trkpt lat="36.7021026611328" lon="-5.02247905731201">
        <ele>1465.07153320312</ele>
        <time>2018-07-28T08:21:39Z</time>
      </trkpt>
      <trkpt lat="36.7021064758301" lon="-5.02249002456665">
        <ele>1464.68823242188</ele>
        <time>2018-07-28T08:21:40Z</time>
      </trkpt>
      <trkpt lat="36.7021064758301" lon="-5.02249908447266">
        <ele>1464.56799316406</ele>
        <time>2018-07-28T08:21:41Z</time>
      </trkpt>
      <trkpt lat="36.7021064758301" lon="-5.02250623703003">
        <ele>1464.44921875</ele>
        <time>2018-07-28T08:21:42Z</time>
      </trkpt>
      <trkpt lat="36.7021064758301" lon="-5.02251195907593">
        <ele>1464.35144042969</ele>
        <time>2018-07-28T08:21:43Z</time>
      </trkpt>
      <trkpt lat="36.7021064758301" lon="-5.02251815795898">
        <ele>1464.24536132812</ele>
        <time>2018-07-28T08:21:44Z</time>
      </trkpt>
      <trkpt lat="36.7021026611328" lon="-5.02252197265625">
        <ele>1464.41711425781</ele>
        <time>2018-07-28T08:21:45Z</time>
      </trkpt>
      <trkpt lat="36.7020988464356" lon="-5.02252578735352">
        <ele>1464.58850097656</ele>
        <time>2018-07-28T08:21:46Z</time>
      </trkpt>
      <trkpt lat="36.702091217041" lon="-5.02253103256226">
        <ele>1464.97131347656</ele>
        <time>2018-07-28T08:21:47Z</time>
      </trkpt>
      <trkpt lat="36.702091217041" lon="-5.02254009246826">
        <ele>1464.81457519531</ele>
        <time>2018-07-28T08:21:48Z</time>
      </trkpt>
      <trkpt lat="36.7020950317383" lon="-5.0225510597229">
        <ele>1464.38928222656</ele>
        <time>2018-07-28T08:21:49Z</time>
      </trkpt>
      <trkpt lat="36.7020988464356" lon="-5.02255916595459">
        <ele>1464.01440429688</ele>
        <time>2018-07-28T08:21:50Z</time>
      </trkpt>
      <trkpt lat="36.7020988464356" lon="-5.02256298065186">
        <ele>1463.94873046875</ele>
        <time>2018-07-28T08:21:51Z</time>
      </trkpt>
      <trkpt lat="36.7021026611328" lon="-5.02256917953491">
        <ele>1463.60754394531</ele>
        <time>2018-07-28T08:21:52Z</time>
      </trkpt>
      <trkpt lat="36.7021064758301" lon="-5.02257776260376">
        <ele>1463.22619628906</ele>
        <time>2018-07-28T08:21:53Z</time>
      </trkpt>
      <trkpt lat="36.7021102905273" lon="-5.02258682250977">
        <ele>1462.83752441406</ele>
        <time>2018-07-28T08:21:54Z</time>
      </trkpt>
      <trkpt lat="36.7021179199219" lon="-5.02259397506714">
        <ele>1462.24877929688</ele>
        <time>2018-07-28T08:21:55Z</time>
      </trkpt>
      <trkpt lat="36.7021217346191" lon="-5.02259922027588">
        <ele>1461.9267578125</ele>
        <time>2018-07-28T08:21:56Z</time>
      </trkpt>
      <trkpt lat="36.7021293640137" lon="-5.02260398864746">
        <ele>1461.38037109375</ele>
        <time>2018-07-28T08:21:57Z</time>
      </trkpt>
      <trkpt lat="36.7021331787109" lon="-5.02261018753052">
        <ele>1461.04357910156</ele>
        <time>2018-07-28T08:21:58Z</time>
      </trkpt>
      <trkpt lat="36.7021369934082" lon="-5.02261781692505">
        <ele>1460.68347167969</ele>
        <time>2018-07-28T08:21:59Z</time>
      </trkpt>
      <trkpt lat="36.7021408081055" lon="-5.02262496948242">
        <ele>1460.33215332031</ele>
        <time>2018-07-28T08:22:00Z</time>
      </trkpt>
      <trkpt lat="36.7021446228027" lon="-5.02263021469116">
        <ele>1460.01318359375</ele>
        <time>2018-07-28T08:22:01Z</time>
      </trkpt>
      <trkpt lat="36.7021446228027" lon="-5.02263402938843">
        <ele>1459.94982910156</ele>
        <time>2018-07-28T08:22:02Z</time>
      </trkpt>
      <trkpt lat="36.7021484375" lon="-5.02263689041138">
        <ele>1459.67114257812</ele>
        <time>2018-07-28T08:22:03Z</time>
      </trkpt>
      <trkpt lat="36.7021484375" lon="-5.02264213562012">
        <ele>1459.58422851562</ele>
        <time>2018-07-28T08:22:04Z</time>
      </trkpt>
      <trkpt lat="36.7021522521973" lon="-5.0226469039917">
        <ele>1459.27453613281</ele>
        <time>2018-07-28T08:22:05Z</time>
      </trkpt>
      <trkpt lat="36.7021560668945" lon="-5.02265214920044">
        <ele>1458.95739746094</ele>
        <time>2018-07-28T08:22:06Z</time>
      </trkpt>
      <trkpt lat="36.7021598815918" lon="-5.0226559638977">
        <ele>1458.66430664062</ele>
        <time>2018-07-28T08:22:07Z</time>
      </trkpt>
      <trkpt lat="36.7021598815918" lon="-5.02265977859497">
        <ele>1458.60180664062</ele>
        <time>2018-07-28T08:22:08Z</time>
      </trkpt>
      <trkpt lat="36.7021636962891" lon="-5.02266407012939">
        <ele>1458.30139160156</ele>
        <time>2018-07-28T08:22:09Z</time>
      </trkpt>
      <trkpt lat="36.7021675109863" lon="-5.02266788482666">
        <ele>1458.00927734375</ele>
        <time>2018-07-28T08:22:10Z</time>
      </trkpt>
      <trkpt lat="36.7021713256836" lon="-5.02267122268677">
        <ele>1457.72521972656</ele>
        <time>2018-07-28T08:22:11Z</time>
      </trkpt>
      <trkpt lat="36.7021789550781" lon="-5.02267217636108">
        <ele>1457.25073242188</ele>
        <time>2018-07-28T08:22:12Z</time>
      </trkpt>
      <trkpt lat="36.7021865844727" lon="-5.02267599105835">
        <ele>1456.73034667969</ele>
        <time>2018-07-28T08:22:13Z</time>
      </trkpt>
      <trkpt lat="36.7021903991699" lon="-5.0226788520813">
        <ele>1456.45520019531</ele>
        <time>2018-07-28T08:22:14Z</time>
      </trkpt>
      <trkpt lat="36.7021942138672" lon="-5.02268600463867">
        <ele>1456.11181640625</ele>
        <time>2018-07-28T08:22:15Z</time>
      </trkpt>
      <trkpt lat="36.7021980285644" lon="-5.02269077301025">
        <ele>1455.80712890625</ele>
        <time>2018-07-28T08:22:16Z</time>
      </trkpt>
      <trkpt lat="36.7022018432617" lon="-5.02269601821899">
        <ele>1455.49536132812</ele>
        <time>2018-07-28T08:22:17Z</time>
      </trkpt>
      <trkpt lat="36.7022018432617" lon="-5.02269887924194">
        <ele>1455.44995117188</ele>
        <time>2018-07-28T08:22:18Z</time>
      </trkpt>
      <trkpt lat="36.702205657959" lon="-5.02270317077637">
        <ele>1455.15380859375</ele>
        <time>2018-07-28T08:22:19Z</time>
      </trkpt>
      <trkpt lat="36.7022094726562" lon="-5.02270889282227">
        <ele>1454.83569335938</ele>
        <time>2018-07-28T08:22:20Z</time>
      </trkpt>
      <trkpt lat="36.7022132873535" lon="-5.02271699905396">
        <ele>1454.48059082031</ele>
        <time>2018-07-28T08:22:21Z</time>
      </trkpt>
      <trkpt lat="36.7022171020508" lon="-5.02272701263428">
        <ele>1454.09631347656</ele>
        <time>2018-07-28T08:22:22Z</time>
      </trkpt>
      <trkpt lat="36.7022285461426" lon="-5.0227370262146">
        <ele>1453.26049804688</ele>
        <time>2018-07-28T08:22:23Z</time>
      </trkpt>
      <trkpt lat="36.7022323608398" lon="-5.02274799346924">
        <ele>1452.86462402344</ele>
        <time>2018-07-28T08:22:24Z</time>
      </trkpt>
      <trkpt lat="36.7022361755371" lon="-5.02275991439819">
        <ele>1452.45495605469</ele>
        <time>2018-07-28T08:22:25Z</time>
      </trkpt>
      <trkpt lat="36.7022438049316" lon="-5.02277088165283">
        <ele>1451.83654785156</ele>
        <time>2018-07-28T08:22:26Z</time>
      </trkpt>
      <trkpt lat="36.7022438049316" lon="-5.02278089523315">
        <ele>1451.68322753906</ele>
        <time>2018-07-28T08:22:27Z</time>
      </trkpt>
      <trkpt lat="36.7022438049316" lon="-5.02278804779053">
        <ele>1451.57360839844</ele>
        <time>2018-07-28T08:22:28Z</time>
      </trkpt>
      <trkpt lat="36.7022361755371" lon="-5.02279186248779">
        <ele>1451.96240234375</ele>
        <time>2018-07-28T08:22:29Z</time>
      </trkpt>
      <trkpt lat="36.7022323608398" lon="-5.02279615402222">
        <ele>1452.11962890625</ele>
        <time>2018-07-28T08:22:30Z</time>
      </trkpt>
      <trkpt lat="36.7022323608398" lon="-5.02279996871948">
        <ele>1452.060546875</ele>
        <time>2018-07-28T08:22:31Z</time>
      </trkpt>
      <trkpt lat="36.7022323608398" lon="-5.02281093597412">
        <ele>1451.89099121094</ele>
        <time>2018-07-28T08:22:32Z</time>
      </trkpt>
      <trkpt lat="36.7022323608398" lon="-5.02282381057739">
        <ele>1451.69177246094</ele>
        <time>2018-07-28T08:22:33Z</time>
      </trkpt>
      <trkpt lat="36.7022285461426" lon="-5.02283716201782">
        <ele>1451.70666503906</ele>
        <time>2018-07-28T08:22:34Z</time>
      </trkpt>
      <trkpt lat="36.7022247314453" lon="-5.02284812927246">
        <ele>1451.75720214844</ele>
        <time>2018-07-28T08:22:35Z</time>
      </trkpt>
      <trkpt lat="36.7022171020508" lon="-5.02286005020142">
        <ele>1452.01220703125</ele>
        <time>2018-07-28T08:22:36Z</time>
      </trkpt>
      <trkpt lat="36.7022094726562" lon="-5.02287006378174">
        <ele>1452.29479980469</ele>
        <time>2018-07-28T08:22:37Z</time>
      </trkpt>
      <trkpt lat="36.7021980285644" lon="-5.02287912368774">
        <ele>1452.80981445312</ele>
        <time>2018-07-28T08:22:38Z</time>
      </trkpt>
      <trkpt lat="36.7021827697754" lon="-5.02288579940796">
        <ele>1453.57946777344</ele>
        <time>2018-07-28T08:22:39Z</time>
      </trkpt>
      <trkpt lat="36.7021675109863" lon="-5.02289199829102">
        <ele>1454.35424804688</ele>
        <time>2018-07-28T08:22:40Z</time>
      </trkpt>
      <trkpt lat="36.7021560668945" lon="-5.02289915084839">
        <ele>1454.89245605469</ele>
        <time>2018-07-28T08:22:41Z</time>
      </trkpt>
      <trkpt lat="36.7021522521973" lon="-5.02290678024292">
        <ele>1454.98486328125</ele>
        <time>2018-07-28T08:22:42Z</time>
      </trkpt>
      <trkpt lat="36.7021484375" lon="-5.02291584014893">
        <ele>1455.052734375</ele>
        <time>2018-07-28T08:22:43Z</time>
      </trkpt>
      <trkpt lat="36.7021446228027" lon="-5.02292394638062">
        <ele>1455.13562011719</ele>
        <time>2018-07-28T08:22:44Z</time>
      </trkpt>
      <trkpt lat="36.7021446228027" lon="-5.02293395996094">
        <ele>1454.96936035156</ele>
        <time>2018-07-28T08:22:45Z</time>
      </trkpt>
      <trkpt lat="36.7021408081055" lon="-5.02294301986694">
        <ele>1455.03503417969</ele>
        <time>2018-07-28T08:22:46Z</time>
      </trkpt>
      <trkpt lat="36.7021408081055" lon="-5.02295303344727">
        <ele>1454.86828613281</ele>
        <time>2018-07-28T08:22:47Z</time>
      </trkpt>
      <trkpt lat="36.7021369934082" lon="-5.02296495437622">
        <ele>1454.884765625</ele>
        <time>2018-07-28T08:22:48Z</time>
      </trkpt>
      <trkpt lat="36.7021369934082" lon="-5.02297782897949">
        <ele>1454.66967773438</ele>
        <time>2018-07-28T08:22:49Z</time>
      </trkpt>
      <trkpt lat="36.7021369934082" lon="-5.02299118041992">
        <ele>1454.44665527344</ele>
        <time>2018-07-28T08:22:50Z</time>
      </trkpt>
      <trkpt lat="36.7021408081055" lon="-5.02300310134888">
        <ele>1454.03430175781</ele>
        <time>2018-07-28T08:22:51Z</time>
      </trkpt>
      <trkpt lat="36.7021408081055" lon="-5.02301406860352">
        <ele>1453.85168457031</ele>
        <time>2018-07-28T08:22:52Z</time>
      </trkpt>
      <trkpt lat="36.7021369934082" lon="-5.0230221748352">
        <ele>1453.92895507812</ele>
        <time>2018-07-28T08:22:53Z</time>
      </trkpt>
      <trkpt lat="36.7021331787109" lon="-5.02302598953247">
        <ele>1454.07727050781</ele>
        <time>2018-07-28T08:22:54Z</time>
      </trkpt>
      <trkpt lat="36.7021293640137" lon="-5.02302980422974">
        <ele>1454.22509765625</ele>
        <time>2018-07-28T08:22:55Z</time>
      </trkpt>
      <trkpt lat="36.7021217346191" lon="-5.02303504943848">
        <ele>1454.56018066406</ele>
        <time>2018-07-28T08:22:56Z</time>
      </trkpt>
      <trkpt lat="36.7021179199219" lon="-5.02303886413574">
        <ele>1454.70715332031</ele>
        <time>2018-07-28T08:22:57Z</time>
      </trkpt>
      <trkpt lat="36.7021102905273" lon="-5.02304315567017">
        <ele>1455.05676269531</ele>
        <time>2018-07-28T08:22:58Z</time>
      </trkpt>
      <trkpt lat="36.7021026611328" lon="-5.02304792404175">
        <ele>1455.39733886719</ele>
        <time>2018-07-28T08:22:59Z</time>
      </trkpt>
      <trkpt lat="36.7020988464356" lon="-5.02305603027344">
        <ele>1455.46887207031</ele>
        <time>2018-07-28T08:23:00Z</time>
      </trkpt>
      <trkpt lat="36.702091217041" lon="-5.02306604385376">
        <ele>1455.71667480469</ele>
        <time>2018-07-28T08:23:01Z</time>
      </trkpt>
      <trkpt lat="36.7020874023438" lon="-5.0230770111084">
        <ele>1455.73657226562</ele>
        <time>2018-07-28T08:23:02Z</time>
      </trkpt>
      <trkpt lat="36.7020797729492" lon="-5.02308702468872">
        <ele>1455.98083496094</ele>
        <time>2018-07-28T08:23:03Z</time>
      </trkpt>
      <trkpt lat="36.7020797729492" lon="-5.02309608459473">
        <ele>1455.82275390625</ele>
        <time>2018-07-28T08:23:04Z</time>
      </trkpt>
      <trkpt lat="36.702075958252" lon="-5.02310180664062">
        <ele>1455.93127441406</ele>
        <time>2018-07-28T08:23:05Z</time>
      </trkpt>
      <trkpt lat="36.7020721435547" lon="-5.02310800552368">
        <ele>1456.03076171875</ele>
        <time>2018-07-28T08:23:06Z</time>
      </trkpt>
      <trkpt lat="36.7020683288574" lon="-5.02311515808106">
        <ele>1456.11291503906</ele>
        <time>2018-07-28T08:23:07Z</time>
      </trkpt>
      <trkpt lat="36.7020683288574" lon="-5.02311992645264">
        <ele>1456.02905273438</ele>
        <time>2018-07-28T08:23:08Z</time>
      </trkpt>
      <trkpt lat="36.7020645141602" lon="-5.02312421798706">
        <ele>1456.16064453125</ele>
        <time>2018-07-28T08:23:09Z</time>
      </trkpt>
      <trkpt lat="36.7020606994629" lon="-5.02312612533569">
        <ele>1456.33410644531</ele>
        <time>2018-07-28T08:23:10Z</time>
      </trkpt>
      <trkpt lat="36.7020568847656" lon="-5.02312612533569">
        <ele>1456.54113769531</ele>
        <time>2018-07-28T08:23:11Z</time>
      </trkpt>
      <trkpt lat="36.7020492553711" lon="-5.02312707901001">
        <ele>1456.93835449219</ele>
        <time>2018-07-28T08:23:12Z</time>
      </trkpt>
      <trkpt lat="36.7020454406738" lon="-5.02312994003296">
        <ele>1457.09423828125</ele>
        <time>2018-07-28T08:23:13Z</time>
      </trkpt>
      <trkpt lat="36.7020378112793" lon="-5.0231351852417">
        <ele>1457.41357421875</ele>
        <time>2018-07-28T08:23:14Z</time>
      </trkpt>
      <trkpt lat="36.702033996582" lon="-5.0231409072876">
        <ele>1457.51696777344</ele>
        <time>2018-07-28T08:23:15Z</time>
      </trkpt>
      <trkpt lat="36.7020301818848" lon="-5.02314710617065">
        <ele>1457.61120605469</ele>
        <time>2018-07-28T08:23:16Z</time>
      </trkpt>
      <trkpt lat="36.7020301818848" lon="-5.02315378189087">
        <ele>1457.49047851562</ele>
        <time>2018-07-28T08:23:17Z</time>
      </trkpt>
      <trkpt lat="36.7020301818848" lon="-5.02315998077393">
        <ele>1457.37841796875</ele>
        <time>2018-07-28T08:23:18Z</time>
      </trkpt>
      <trkpt lat="36.7020263671875" lon="-5.02316522598267">
        <ele>1457.48864746094</ele>
        <time>2018-07-28T08:23:19Z</time>
      </trkpt>
      <trkpt lat="36.7020263671875" lon="-5.02317190170288">
        <ele>1457.36755371094</ele>
        <time>2018-07-28T08:23:20Z</time>
      </trkpt>
      <trkpt lat="36.7020263671875" lon="-5.02317905426025">
        <ele>1457.23779296875</ele>
        <time>2018-07-28T08:23:21Z</time>
      </trkpt>
      <trkpt lat="36.7020263671875" lon="-5.02318811416626">
        <ele>1457.07348632812</ele>
        <time>2018-07-28T08:23:22Z</time>
      </trkpt>
      <trkpt lat="36.7020301818848" lon="-5.02319717407227">
        <ele>1456.70556640625</ele>
        <time>2018-07-28T08:23:23Z</time>
      </trkpt>
      <trkpt lat="36.7020263671875" lon="-5.02320623397827">
        <ele>1456.74487304688</ele>
        <time>2018-07-28T08:23:24Z</time>
      </trkpt>
      <trkpt lat="36.7020225524902" lon="-5.02321577072144">
        <ele>1456.77453613281</ele>
        <time>2018-07-28T08:23:25Z</time>
      </trkpt>
      <trkpt lat="36.702018737793" lon="-5.02322483062744">
        <ele>1456.81188964844</ele>
        <time>2018-07-28T08:23:26Z</time>
      </trkpt>
      <trkpt lat="36.702018737793" lon="-5.02323389053345">
        <ele>1456.64672851562</ele>
        <time>2018-07-28T08:23:27Z</time>
      </trkpt>
      <trkpt lat="36.702018737793" lon="-5.02324295043945">
        <ele>1456.4814453125</ele>
        <time>2018-07-28T08:23:28Z</time>
      </trkpt>
      <trkpt lat="36.7020225524902" lon="-5.02325201034546">
        <ele>1456.11535644531</ele>
        <time>2018-07-28T08:23:29Z</time>
      </trkpt>
      <trkpt lat="36.7020225524902" lon="-5.02326011657715">
        <ele>1455.96789550781</ele>
        <time>2018-07-28T08:23:30Z</time>
      </trkpt>
      <trkpt lat="36.7020263671875" lon="-5.02326583862305">
        <ele>1455.66369628906</ele>
        <time>2018-07-28T08:23:31Z</time>
      </trkpt>
      <trkpt lat="36.7020225524902" lon="-5.02327299118042">
        <ele>1455.73376464844</ele>
        <time>2018-07-28T08:23:32Z</time>
      </trkpt>
      <trkpt lat="36.7020149230957" lon="-5.02328109741211">
        <ele>1455.98522949219</ele>
        <time>2018-07-28T08:23:33Z</time>
      </trkpt>
      <trkpt lat="36.7020111083984" lon="-5.0232892036438">
        <ele>1456.03601074219</ele>
        <time>2018-07-28T08:23:34Z</time>
      </trkpt>
      <trkpt lat="36.7020034790039" lon="-5.02329587936401">
        <ele>1456.31091308594</ele>
        <time>2018-07-28T08:23:35Z</time>
      </trkpt>
      <trkpt lat="36.7019996643066" lon="-5.02330207824707">
        <ele>1456.39501953125</ele>
        <time>2018-07-28T08:23:36Z</time>
      </trkpt>
      <trkpt lat="36.7019996643066" lon="-5.02331018447876">
        <ele>1456.24523925781</ele>
        <time>2018-07-28T08:23:37Z</time>
      </trkpt>
      <trkpt lat="36.7019958496094" lon="-5.02332019805908">
        <ele>1456.25756835938</ele>
        <time>2018-07-28T08:23:38Z</time>
      </trkpt>
      <trkpt lat="36.7019920349121" lon="-5.0233302116394">
        <ele>1456.26904296875</ele>
        <time>2018-07-28T08:23:39Z</time>
      </trkpt>
      <trkpt lat="36.7019882202148" lon="-5.02334022521973">
        <ele>1456.43017578125</ele>
        <time>2018-07-28T08:23:40Z</time>
      </trkpt>
      <trkpt lat="36.7019805908203" lon="-5.02335119247436">
        <ele>1456.85803222656</ele>
        <time>2018-07-28T08:23:41Z</time>
      </trkpt>
      <trkpt lat="36.7019805908203" lon="-5.02336311340332">
        <ele>1456.89575195312</ele>
        <time>2018-07-28T08:23:42Z</time>
      </trkpt>
      <trkpt lat="36.701976776123" lon="-5.02337694168091">
        <ele>1457.13464355469</ele>
        <time>2018-07-28T08:23:43Z</time>
      </trkpt>
      <trkpt lat="36.701976776123" lon="-5.02338886260986">
        <ele>1457.171875</ele>
        <time>2018-07-28T08:23:44Z</time>
      </trkpt>
      <trkpt lat="36.7019729614258" lon="-5.02339792251587">
        <ele>1457.39465332031</ele>
        <time>2018-07-28T08:23:45Z</time>
      </trkpt>
      <trkpt lat="36.7019729614258" lon="-5.02340698242188">
        <ele>1457.42260742188</ele>
        <time>2018-07-28T08:23:46Z</time>
      </trkpt>
      <trkpt lat="36.7019729614258" lon="-5.02341604232788">
        <ele>1457.45056152344</ele>
        <time>2018-07-28T08:23:47Z</time>
      </trkpt>
      <trkpt lat="36.7019729614258" lon="-5.02342414855957">
        <ele>1457.4755859375</ele>
        <time>2018-07-28T08:23:48Z</time>
      </trkpt>
      <trkpt lat="36.7019729614258" lon="-5.02343416213989">
        <ele>1457.50646972656</ele>
        <time>2018-07-28T08:23:49Z</time>
      </trkpt>
      <trkpt lat="36.701976776123" lon="-5.0234432220459">
        <ele>1457.341796875</ele>
        <time>2018-07-28T08:23:50Z</time>
      </trkpt>
      <trkpt lat="36.701976776123" lon="-5.02345418930054">
        <ele>1457.37609863281</ele>
        <time>2018-07-28T08:23:51Z</time>
      </trkpt>
      <trkpt lat="36.7019805908203" lon="-5.02346611022949">
        <ele>1457.2216796875</ele>
        <time>2018-07-28T08:23:52Z</time>
      </trkpt>
      <trkpt lat="36.7019844055176" lon="-5.02347993850708">
        <ele>1457.07421875</ele>
        <time>2018-07-28T08:23:53Z</time>
      </trkpt>
      <trkpt lat="36.7019844055176" lon="-5.0234899520874">
        <ele>1457.10632324219</ele>
        <time>2018-07-28T08:23:54Z</time>
      </trkpt>
      <trkpt lat="36.7019844055176" lon="-5.02349901199341">
        <ele>1457.13525390625</ele>
        <time>2018-07-28T08:23:55Z</time>
      </trkpt>
      <trkpt lat="36.7019805908203" lon="-5.02350997924805">
        <ele>1457.36047363281</ele>
        <time>2018-07-28T08:23:56Z</time>
      </trkpt>
      <trkpt lat="36.7019805908203" lon="-5.023521900177">
        <ele>1457.39819335938</ele>
        <time>2018-07-28T08:23:57Z</time>
      </trkpt>
      <trkpt lat="36.701976776123" lon="-5.02353477478027">
        <ele>1457.62805175781</ele>
        <time>2018-07-28T08:23:58Z</time>
      </trkpt>
      <trkpt lat="36.701976776123" lon="-5.02354383468628">
        <ele>1457.65637207031</ele>
        <time>2018-07-28T08:23:59Z</time>
      </trkpt>
      <trkpt lat="36.7019691467285" lon="-5.02355098724365">
        <ele>1458.0556640625</ele>
        <time>2018-07-28T08:24:00Z</time>
      </trkpt>
      <trkpt lat="36.7019653320312" lon="-5.02355289459228">
        <ele>1458.24987792969</ele>
        <time>2018-07-28T08:24:01Z</time>
      </trkpt>
      <trkpt lat="36.7019577026367" lon="-5.0235538482666">
        <ele>1458.62951660156</ele>
        <time>2018-07-28T08:24:02Z</time>
      </trkpt>
      <trkpt lat="36.7019538879394" lon="-5.0235538482666">
        <ele>1458.81787109375</ele>
        <time>2018-07-28T08:24:03Z</time>
      </trkpt>
      <trkpt lat="36.7019462585449" lon="-5.02355718612671">
        <ele>1459.20397949219</ele>
        <time>2018-07-28T08:24:04Z</time>
      </trkpt>
      <trkpt lat="36.7019424438477" lon="-5.02356195449829">
        <ele>1459.40539550781</ele>
        <time>2018-07-28T08:24:05Z</time>
      </trkpt>
      <trkpt lat="36.7019386291504" lon="-5.02356815338135">
        <ele>1459.61047363281</ele>
        <time>2018-07-28T08:24:06Z</time>
      </trkpt>
      <trkpt lat="36.7019348144531" lon="-5.02357482910156">
        <ele>1459.81628417969</ele>
        <time>2018-07-28T08:24:07Z</time>
      </trkpt>
      <trkpt lat="36.7019348144531" lon="-5.0235857963562">
        <ele>1459.84594726562</ele>
        <time>2018-07-28T08:24:08Z</time>
      </trkpt>
      <trkpt lat="36.7019348144531" lon="-5.02360010147095">
        <ele>1459.88464355469</ele>
        <time>2018-07-28T08:24:09Z</time>
      </trkpt>
      <trkpt lat="36.7019424438477" lon="-5.02361822128296">
        <ele>1459.56188964844</ele>
        <time>2018-07-28T08:24:10Z</time>
      </trkpt>
      <trkpt lat="36.7019462585449" lon="-5.02363204956055">
        <ele>1459.41491699219</ele>
        <time>2018-07-28T08:24:11Z</time>
      </trkpt>
      <trkpt lat="36.7019538879394" lon="-5.0236439704895">
        <ele>1459.07873535156</ele>
        <time>2018-07-28T08:24:12Z</time>
      </trkpt>
      <trkpt lat="36.7019577026367" lon="-5.02365303039551">
        <ele>1458.92041015625</ele>
        <time>2018-07-28T08:24:13Z</time>
      </trkpt>
      <trkpt lat="36.7019577026367" lon="-5.02366304397583">
        <ele>1458.94982910156</ele>
        <time>2018-07-28T08:24:14Z</time>
      </trkpt>
      <trkpt lat="36.7019577026367" lon="-5.02367401123047">
        <ele>1458.98193359375</ele>
        <time>2018-07-28T08:24:15Z</time>
      </trkpt>
      <trkpt lat="36.7019577026367" lon="-5.02368402481079">
        <ele>1459.01135253906</ele>
        <time>2018-07-28T08:24:16Z</time>
      </trkpt>
      <trkpt lat="36.7019538879394" lon="-5.02369499206543">
        <ele>1459.22644042969</ele>
        <time>2018-07-28T08:24:17Z</time>
      </trkpt>
      <trkpt lat="36.7019577026367" lon="-5.02370691299438">
        <ele>1459.07849121094</ele>
        <time>2018-07-28T08:24:18Z</time>
      </trkpt>
      <trkpt lat="36.7019538879394" lon="-5.02371883392334">
        <ele>1459.29553222656</ele>
        <time>2018-07-28T08:24:19Z</time>
      </trkpt>
      <trkpt lat="36.7019577026367" lon="-5.02372884750366">
        <ele>1459.14282226562</ele>
        <time>2018-07-28T08:24:20Z</time>
      </trkpt>
      <trkpt lat="36.701961517334" lon="-5.02373886108398">
        <ele>1458.99096679688</ele>
        <time>2018-07-28T08:24:21Z</time>
      </trkpt>
      <trkpt lat="36.7019653320312" lon="-5.02374696731567">
        <ele>1458.83410644531</ele>
        <time>2018-07-28T08:24:22Z</time>
      </trkpt>
      <trkpt lat="36.7019653320312" lon="-5.02375888824463">
        <ele>1458.86999511719</ele>
        <time>2018-07-28T08:24:23Z</time>
      </trkpt>
      <trkpt lat="36.7019691467285" lon="-5.02377414703369">
        <ele>1458.73608398438</ele>
        <time>2018-07-28T08:24:24Z</time>
      </trkpt>
      <trkpt lat="36.701976776123" lon="-5.02378988265991">
        <ele>1458.42553710938</ele>
        <time>2018-07-28T08:24:25Z</time>
      </trkpt>
      <trkpt lat="36.7019844055176" lon="-5.02380418777466">
        <ele>1458.11267089844</ele>
        <time>2018-07-28T08:24:26Z</time>
      </trkpt>
      <trkpt lat="36.7019882202148" lon="-5.02381610870361">
        <ele>1457.97265625</ele>
        <time>2018-07-28T08:24:27Z</time>
      </trkpt>
      <trkpt lat="36.7019958496094" lon="-5.02382802963257">
        <ele>1457.65563964844</ele>
        <time>2018-07-28T08:24:28Z</time>
      </trkpt>
      <trkpt lat="36.7019996643066" lon="-5.02384090423584">
        <ele>1457.52099609375</ele>
        <time>2018-07-28T08:24:29Z</time>
      </trkpt>
      <trkpt lat="36.7020034790039" lon="-5.0238528251648">
        <ele>1457.38415527344</ele>
        <time>2018-07-28T08:24:30Z</time>
      </trkpt>
      <trkpt lat="36.7020072937012" lon="-5.02386379241943">
        <ele>1457.24499511719</ele>
        <time>2018-07-28T08:24:31Z</time>
      </trkpt>
      <trkpt lat="36.7020111083984" lon="-5.02387523651123">
        <ele>1457.10827636719</ele>
        <time>2018-07-28T08:24:32Z</time>
      </trkpt>
      <trkpt lat="36.702018737793" lon="-5.02388620376587">
        <ele>1456.79516601562</ele>
        <time>2018-07-28T08:24:33Z</time>
      </trkpt>
      <trkpt lat="36.7020263671875" lon="-5.02389717102051">
        <ele>1456.48376464844</ele>
        <time>2018-07-28T08:24:34Z</time>
      </trkpt>
      <trkpt lat="36.7020301818848" lon="-5.02390623092651">
        <ele>1456.341796875</ele>
        <time>2018-07-28T08:24:35Z</time>
      </trkpt>
      <trkpt lat="36.702033996582" lon="-5.02391290664673">
        <ele>1456.19177246094</ele>
        <time>2018-07-28T08:24:36Z</time>
      </trkpt>
      <trkpt lat="36.7020378112793" lon="-5.0239200592041">
        <ele>1456.0439453125</ele>
        <time>2018-07-28T08:24:37Z</time>
      </trkpt>
      <trkpt lat="36.7020378112793" lon="-5.02392387390137">
        <ele>1456.05822753906</ele>
        <time>2018-07-28T08:24:38Z</time>
      </trkpt>
      <trkpt lat="36.7020416259766" lon="-5.02392578125">
        <ele>1455.89135742188</ele>
        <time>2018-07-28T08:24:39Z</time>
      </trkpt>
      <trkpt lat="36.7020416259766" lon="-5.02392721176147">
        <ele>1455.89672851562</ele>
        <time>2018-07-28T08:24:40Z</time>
      </trkpt>
      <trkpt lat="36.7020416259766" lon="-5.02392911911011">
        <ele>1455.90393066406</ele>
        <time>2018-07-28T08:24:41Z</time>
      </trkpt>
      <trkpt lat="36.7020454406738" lon="-5.02393198013306">
        <ele>1455.74096679688</ele>
        <time>2018-07-28T08:24:42Z</time>
      </trkpt>
      <trkpt lat="36.7020454406738" lon="-5.02393484115601">
        <ele>1455.75183105469</ele>
        <time>2018-07-28T08:24:43Z</time>
      </trkpt>
      <trkpt lat="36.7020454406738" lon="-5.02393913269043">
        <ele>1455.76818847656</ele>
        <time>2018-07-28T08:24:44Z</time>
      </trkpt>
      <trkpt lat="36.7020416259766" lon="-5.02394199371338">
        <ele>1455.95263671875</ele>
        <time>2018-07-28T08:24:45Z</time>
      </trkpt>
      <trkpt lat="36.7020454406738" lon="-5.02394485473633">
        <ele>1455.7900390625</ele>
        <time>2018-07-28T08:24:46Z</time>
      </trkpt>
      <trkpt lat="36.7020454406738" lon="-5.02395009994507">
        <ele>1455.81005859375</ele>
        <time>2018-07-28T08:24:47Z</time>
      </trkpt>
      <trkpt lat="36.7020454406738" lon="-5.02395486831665">
        <ele>1455.82824707031</ele>
        <time>2018-07-28T08:24:48Z</time>
      </trkpt>
      <trkpt lat="36.7020454406738" lon="-5.02396011352539">
        <ele>1455.84838867188</ele>
        <time>2018-07-28T08:24:49Z</time>
      </trkpt>
      <trkpt lat="36.7020454406738" lon="-5.02396488189697">
        <ele>1455.86657714844</ele>
        <time>2018-07-28T08:24:50Z</time>
      </trkpt>
      <trkpt lat="36.7020492553711" lon="-5.02397012710571">
        <ele>1455.71423339844</ele>
        <time>2018-07-28T08:24:51Z</time>
      </trkpt>
      <trkpt lat="36.7020530700684" lon="-5.02397584915161">
        <ele>1455.56420898438</ele>
        <time>2018-07-28T08:24:52Z</time>
      </trkpt>
      <trkpt lat="36.7020568847656" lon="-5.02398204803467">
        <ele>1455.41638183594</ele>
        <time>2018-07-28T08:24:53Z</time>
      </trkpt>
      <trkpt lat="36.7020568847656" lon="-5.02399015426636">
        <ele>1455.4482421875</ele>
        <time>2018-07-28T08:24:54Z</time>
      </trkpt>
      <trkpt lat="36.7020568847656" lon="-5.02399682998657">
        <ele>1455.47448730469</ele>
        <time>2018-07-28T08:24:55Z</time>
      </trkpt>
      <trkpt lat="36.7020568847656" lon="-5.02400588989258">
        <ele>1455.51013183594</ele>
        <time>2018-07-28T08:24:56Z</time>
      </trkpt>
      <trkpt lat="36.7020568847656" lon="-5.02401208877564">
        <ele>1455.53454589844</ele>
        <time>2018-07-28T08:24:57Z</time>
      </trkpt>
      <trkpt lat="36.7020606994629" lon="-5.0240159034729">
        <ele>1455.37902832031</ele>
        <time>2018-07-28T08:24:58Z</time>
      </trkpt>
      <trkpt lat="36.7020645141602" lon="-5.02401876449585">
        <ele>1455.21984863281</ele>
        <time>2018-07-28T08:24:59Z</time>
      </trkpt>
      <trkpt lat="36.7020683288574" lon="-5.02402687072754">
        <ele>1455.08215332031</ele>
        <time>2018-07-28T08:25:00Z</time>
      </trkpt>
      <trkpt lat="36.7020721435547" lon="-5.02403783798218">
        <ele>1454.95690917969</ele>
        <time>2018-07-28T08:25:01Z</time>
      </trkpt>
      <trkpt lat="36.7020721435547" lon="-5.02405118942261">
        <ele>1455.01147460938</ele>
        <time>2018-07-28T08:25:02Z</time>
      </trkpt>
      <trkpt lat="36.7020721435547" lon="-5.02406406402588">
        <ele>1455.06408691406</ele>
        <time>2018-07-28T08:25:03Z</time>
      </trkpt>
      <trkpt lat="36.7020797729492" lon="-5.02407789230347">
        <ele>1454.7841796875</ele>
        <time>2018-07-28T08:25:04Z</time>
      </trkpt>
      <trkpt lat="36.7020835876465" lon="-5.02409076690674">
        <ele>1454.67004394531</ele>
        <time>2018-07-28T08:25:05Z</time>
      </trkpt>
      <trkpt lat="36.702091217041" lon="-5.02410411834717">
        <ele>1454.39172363281</ele>
        <time>2018-07-28T08:25:06Z</time>
      </trkpt>
      <trkpt lat="36.7020988464356" lon="-5.02411508560181">
        <ele>1454.10510253906</ele>
        <time>2018-07-28T08:25:07Z</time>
      </trkpt>
      <trkpt lat="36.7021064758301" lon="-5.02412509918213">
        <ele>1453.81591796875</ele>
        <time>2018-07-28T08:25:08Z</time>
      </trkpt>
      <trkpt lat="36.7021141052246" lon="-5.02413177490234">
        <ele>1453.51330566406</ele>
        <time>2018-07-28T08:25:09Z</time>
      </trkpt>
      <trkpt lat="36.7021141052246" lon="-5.02413511276245">
        <ele>1453.5283203125</ele>
        <time>2018-07-28T08:25:10Z</time>
      </trkpt>
      <trkpt lat="36.7021102905273" lon="-5.02413702011108">
        <ele>1453.70288085938</ele>
        <time>2018-07-28T08:25:11Z</time>
      </trkpt>
      <trkpt lat="36.7021064758301" lon="-5.02414178848267">
        <ele>1453.88989257812</ele>
        <time>2018-07-28T08:25:12Z</time>
      </trkpt>
      <trkpt lat="36.7021026611328" lon="-5.02414894104004">
        <ele>1454.08715820312</ele>
        <time>2018-07-28T08:25:13Z</time>
      </trkpt>
      <trkpt lat="36.7021026611328" lon="-5.0241551399231">
        <ele>1454.11437988281</ele>
        <time>2018-07-28T08:25:14Z</time>
      </trkpt>
      <trkpt lat="36.7021064758301" lon="-5.02416181564331">
        <ele>1453.97875976562</ele>
        <time>2018-07-28T08:25:15Z</time>
      </trkpt>
      <trkpt lat="36.7021064758301" lon="-5.024169921875">
        <ele>1454.02062988281</ele>
        <time>2018-07-28T08:25:16Z</time>
      </trkpt>
      <trkpt lat="36.7021064758301" lon="-5.02417802810669">
        <ele>1454.07141113281</ele>
        <time>2018-07-28T08:25:17Z</time>
      </trkpt>
      <trkpt lat="36.7021064758301" lon="-5.02418613433838">
        <ele>1454.12219238281</ele>
        <time>2018-07-28T08:25:18Z</time>
      </trkpt>
      <trkpt lat="36.7021102905273" lon="-5.02419376373291">
        <ele>1454.00646972656</ele>
        <time>2018-07-28T08:25:19Z</time>
      </trkpt>
      <trkpt lat="36.7021102905273" lon="-5.02420091629028">
        <ele>1454.05163574219</ele>
        <time>2018-07-28T08:25:20Z</time>
      </trkpt>
      <trkpt lat="36.7021141052246" lon="-5.02420377731323">
        <ele>1453.90649414062</ele>
        <time>2018-07-28T08:25:21Z</time>
      </trkpt>
      <trkpt lat="36.7021179199219" lon="-5.02420806884766">
        <ele>1453.77075195312</ele>
        <time>2018-07-28T08:25:22Z</time>
      </trkpt>
      <trkpt lat="36.7021179199219" lon="-5.02421188354492">
        <ele>1453.79516601562</ele>
        <time>2018-07-28T08:25:23Z</time>
      </trkpt>
      <trkpt lat="36.7021217346191" lon="-5.02421998977661">
        <ele>1453.6845703125</ele>
        <time>2018-07-28T08:25:24Z</time>
      </trkpt>
      <trkpt lat="36.7021217346191" lon="-5.02422904968262">
        <ele>1453.74291992188</ele>
        <time>2018-07-28T08:25:25Z</time>
      </trkpt>
      <trkpt lat="36.7021255493164" lon="-5.02424001693726">
        <ele>1453.65209960938</ele>
        <time>2018-07-28T08:25:26Z</time>
      </trkpt>
      <trkpt lat="36.7021293640137" lon="-5.02425003051758">
        <ele>1453.55590820312</ele>
        <time>2018-07-28T08:25:27Z</time>
      </trkpt>
      <trkpt lat="36.7021331787109" lon="-5.02425909042358">
        <ele>1453.45434570312</ele>
        <time>2018-07-28T08:25:28Z</time>
      </trkpt>
      <trkpt lat="36.7021369934082" lon="-5.02426815032959">
        <ele>1453.353515625</ele>
        <time>2018-07-28T08:25:29Z</time>
      </trkpt>
      <trkpt lat="36.7021369934082" lon="-5.0242772102356">
        <ele>1453.41345214844</ele>
        <time>2018-07-28T08:25:30Z</time>
      </trkpt>
      <trkpt lat="36.7021408081055" lon="-5.02428483963013">
        <ele>1453.30432128906</ele>
        <time>2018-07-28T08:25:31Z</time>
      </trkpt>
      <trkpt lat="36.7021446228027" lon="-5.02429389953613">
        <ele>1453.20556640625</ele>
        <time>2018-07-28T08:25:32Z</time>
      </trkpt>
      <trkpt lat="36.7021484375" lon="-5.02430295944214">
        <ele>1453.107421875</ele>
        <time>2018-07-28T08:25:33Z</time>
      </trkpt>
      <trkpt lat="36.7021522521973" lon="-5.0243091583252">
        <ele>1452.99084472656</ele>
        <time>2018-07-28T08:25:34Z</time>
      </trkpt>
      <trkpt lat="36.7021522521973" lon="-5.02431488037109">
        <ele>1453.02966308594</ele>
        <time>2018-07-28T08:25:35Z</time>
      </trkpt>
      <trkpt lat="36.7021560668945" lon="-5.02432203292847">
        <ele>1452.92028808594</ele>
        <time>2018-07-28T08:25:36Z</time>
      </trkpt>
      <trkpt lat="36.7021560668945" lon="-5.02432823181152">
        <ele>1452.96264648438</ele>
        <time>2018-07-28T08:25:37Z</time>
      </trkpt>
      <trkpt lat="36.7021560668945" lon="-5.02433490753174">
        <ele>1453.00830078125</ele>
        <time>2018-07-28T08:25:38Z</time>
      </trkpt>
      <trkpt lat="36.7021560668945" lon="-5.02434015274048">
        <ele>1453.04418945312</ele>
        <time>2018-07-28T08:25:39Z</time>
      </trkpt>
      <trkpt lat="36.7021560668945" lon="-5.02434778213501">
        <ele>1453.09631347656</ele>
        <time>2018-07-28T08:25:40Z</time>
      </trkpt>
      <trkpt lat="36.7021560668945" lon="-5.02435398101807">
        <ele>1453.13879394531</ele>
        <time>2018-07-28T08:25:41Z</time>
      </trkpt>
      <trkpt lat="36.7021560668945" lon="-5.02435779571533">
        <ele>1453.16479492188</ele>
        <time>2018-07-28T08:25:42Z</time>
      </trkpt>
      <trkpt lat="36.7021560668945" lon="-5.02435922622681">
        <ele>1453.17456054688</ele>
        <time>2018-07-28T08:25:43Z</time>
      </trkpt>
      <trkpt lat="36.7021560668945" lon="-5.02436113357544">
        <ele>1453.18762207031</ele>
        <time>2018-07-28T08:25:44Z</time>
      </trkpt>
      <trkpt lat="36.7021598815918" lon="-5.0243649482727">
        <ele>1453.0576171875</ele>
        <time>2018-07-28T08:25:45Z</time>
      </trkpt>
      <trkpt lat="36.7021598815918" lon="-5.02437114715576">
        <ele>1453.10034179688</ele>
        <time>2018-07-28T08:25:46Z</time>
      </trkpt>
      <trkpt lat="36.7021598815918" lon="-5.02437686920166">
        <ele>1453.1396484375</ele>
        <time>2018-07-28T08:25:47Z</time>
      </trkpt>
      <trkpt lat="36.7021598815918" lon="-5.02438497543335">
        <ele>1453.19543457031</ele>
        <time>2018-07-28T08:25:48Z</time>
      </trkpt>
      <trkpt lat="36.7021598815918" lon="-5.02439212799072">
        <ele>1453.24475097656</ele>
        <time>2018-07-28T08:25:49Z</time>
      </trkpt>
      <trkpt lat="36.7021598815918" lon="-5.02439880371094">
        <ele>1453.29064941406</ele>
        <time>2018-07-28T08:25:50Z</time>
      </trkpt>
      <trkpt lat="36.7021636962891" lon="-5.02440500259399">
        <ele>1453.17895507812</ele>
        <time>2018-07-28T08:25:51Z</time>
      </trkpt>
      <trkpt lat="36.7021636962891" lon="-5.02440881729126">
        <ele>1453.20544433594</ele>
        <time>2018-07-28T08:25:52Z</time>
      </trkpt>
      <trkpt lat="36.7021675109863" lon="-5.02441501617432">
        <ele>1453.09448242188</ele>
        <time>2018-07-28T08:25:53Z</time>
      </trkpt>
      <trkpt lat="36.7021675109863" lon="-5.0244197845459">
        <ele>1453.12768554688</ele>
        <time>2018-07-28T08:25:54Z</time>
      </trkpt>
      <trkpt lat="36.7021713256836" lon="-5.02442407608032">
        <ele>1453.00415039062</ele>
        <time>2018-07-28T08:25:55Z</time>
      </trkpt>
      <trkpt lat="36.7021713256836" lon="-5.02442789077759">
        <ele>1453.03088378906</ele>
        <time>2018-07-28T08:25:56Z</time>
      </trkpt>
      <trkpt lat="36.7021713256836" lon="-5.0244312286377">
        <ele>1453.05432128906</ele>
        <time>2018-07-28T08:25:57Z</time>
      </trkpt>
      <trkpt lat="36.7021713256836" lon="-5.02443408966064">
        <ele>1453.07434082031</ele>
        <time>2018-07-28T08:25:58Z</time>
      </trkpt>
      <trkpt lat="36.7021713256836" lon="-5.02443695068359">
        <ele>1453.09436035156</ele>
        <time>2018-07-28T08:25:59Z</time>
      </trkpt>
      <trkpt lat="36.7021713256836" lon="-5.02444314956665">
        <ele>1453.13793945312</ele>
        <time>2018-07-28T08:26:00Z</time>
      </trkpt>
      <trkpt lat="36.7021713256836" lon="-5.02444982528686">
        <ele>1453.18469238281</ele>
        <time>2018-07-28T08:26:01Z</time>
      </trkpt>
      <trkpt lat="36.7021713256836" lon="-5.02445697784424">
        <ele>1453.23486328125</ele>
        <time>2018-07-28T08:26:02Z</time>
      </trkpt>
      <trkpt lat="36.7021713256836" lon="-5.02446508407593">
        <ele>1453.29174804688</ele>
        <time>2018-07-28T08:26:03Z</time>
      </trkpt>
      <trkpt lat="36.7021713256836" lon="-5.0244722366333">
        <ele>1453.34191894531</ele>
        <time>2018-07-28T08:26:04Z</time>
      </trkpt>
      <trkpt lat="36.7021713256836" lon="-5.02448177337646">
        <ele>1453.40881347656</ele>
        <time>2018-07-28T08:26:05Z</time>
      </trkpt>
      <trkpt lat="36.7021713256836" lon="-5.02449178695679">
        <ele>1453.47900390625</ele>
        <time>2018-07-28T08:26:06Z</time>
      </trkpt>
      <trkpt lat="36.7021713256836" lon="-5.02450323104858">
        <ele>1453.55932617188</ele>
        <time>2018-07-28T08:26:07Z</time>
      </trkpt>
      <trkpt lat="36.7021713256836" lon="-5.02451515197754">
        <ele>1453.64294433594</ele>
        <time>2018-07-28T08:26:08Z</time>
      </trkpt>
      <trkpt lat="36.7021713256836" lon="-5.02452802658081">
        <ele>1453.73315429688</ele>
        <time>2018-07-28T08:26:09Z</time>
      </trkpt>
      <trkpt lat="36.7021713256836" lon="-5.02454090118408">
        <ele>1453.82348632812</ele>
        <time>2018-07-28T08:26:10Z</time>
      </trkpt>
      <trkpt lat="36.7021675109863" lon="-5.0245509147644">
        <ele>1454.04162597656</ele>
        <time>2018-07-28T08:26:11Z</time>
      </trkpt>
      <trkpt lat="36.7021675109863" lon="-5.02455997467041">
        <ele>1454.10473632812</ele>
        <time>2018-07-28T08:26:12Z</time>
      </trkpt>
      <trkpt lat="36.7021636962891" lon="-5.02456903457642">
        <ele>1454.31506347656</ele>
        <time>2018-07-28T08:26:13Z</time>
      </trkpt>
      <trkpt lat="36.7021675109863" lon="-5.02457904815674">
        <ele>1454.23767089844</ele>
        <time>2018-07-28T08:26:14Z</time>
      </trkpt>
      <trkpt lat="36.7021751403809" lon="-5.02459001541138">
        <ele>1454.02172851562</ele>
        <time>2018-07-28T08:26:15Z</time>
      </trkpt>
      <trkpt lat="36.7021789550781" lon="-5.0246000289917">
        <ele>1453.94665527344</ele>
        <time>2018-07-28T08:26:16Z</time>
      </trkpt>
      <trkpt lat="36.7021789550781" lon="-5.0246090888977">
        <ele>1454.01098632812</ele>
        <time>2018-07-28T08:26:17Z</time>
      </trkpt>
      <trkpt lat="36.7021827697754" lon="-5.02461910247803">
        <ele>1453.93725585938</ele>
        <time>2018-07-28T08:26:18Z</time>
      </trkpt>
      <trkpt lat="36.7021865844727" lon="-5.02463006973267">
        <ele>1453.87121582031</ele>
        <time>2018-07-28T08:26:19Z</time>
      </trkpt>
      <trkpt lat="36.7021942138672" lon="-5.02464008331299">
        <ele>1453.65515136719</ele>
        <time>2018-07-28T08:26:20Z</time>
      </trkpt>
      <trkpt lat="36.7021980285644" lon="-5.02464818954468">
        <ele>1453.57055664062</ele>
        <time>2018-07-28T08:26:21Z</time>
      </trkpt>
      <trkpt lat="36.7022018432617" lon="-5.02465486526489">
        <ele>1453.47607421875</ele>
        <time>2018-07-28T08:26:22Z</time>
      </trkpt>
      <trkpt lat="36.702205657959" lon="-5.02466201782227">
        <ele>1453.3857421875</ele>
        <time>2018-07-28T08:26:23Z</time>
      </trkpt>
      <trkpt lat="36.702205657959" lon="-5.0246729850769">
        <ele>1453.46704101562</ele>
        <time>2018-07-28T08:26:24Z</time>
      </trkpt>
      <trkpt lat="36.7022094726562" lon="-5.02468585968018">
        <ele>1453.42041015625</ele>
        <time>2018-07-28T08:26:25Z</time>
      </trkpt>
      <trkpt lat="36.7022094726562" lon="-5.02469921112061">
        <ele>1453.51989746094</ele>
        <time>2018-07-28T08:26:26Z</time>
      </trkpt>
      <trkpt lat="36.702205657959" lon="-5.02471303939819">
        <ele>1453.76379394531</ele>
        <time>2018-07-28T08:26:27Z</time>
      </trkpt>
      <trkpt lat="36.702205657959" lon="-5.02472591400146">
        <ele>1453.85913085938</ele>
        <time>2018-07-28T08:26:28Z</time>
      </trkpt>
      <trkpt lat="36.7022018432617" lon="-5.0247368812561">
        <ele>1454.080078125</ele>
        <time>2018-07-28T08:26:29Z</time>
      </trkpt>
      <trkpt lat="36.7022018432617" lon="-5.02474594116211">
        <ele>1454.14685058594</ele>
        <time>2018-07-28T08:26:30Z</time>
      </trkpt>
      <trkpt lat="36.702205657959" lon="-5.02475309371948">
        <ele>1454.060546875</ele>
        <time>2018-07-28T08:26:31Z</time>
      </trkpt>
      <trkpt lat="36.702205657959" lon="-5.02475595474243">
        <ele>1454.08166503906</ele>
        <time>2018-07-28T08:26:32Z</time>
      </trkpt>
      <trkpt lat="36.702205657959" lon="-5.02475500106812">
        <ele>1454.07470703125</ele>
        <time>2018-07-28T08:26:33Z</time>
      </trkpt>
      <trkpt lat="36.702205657959" lon="-5.0247540473938">
        <ele>1454.06762695312</ele>
        <time>2018-07-28T08:26:34Z</time>
      </trkpt>
      <trkpt lat="36.702205657959" lon="-5.0247540473938">
        <ele>1454.06762695312</ele>
        <time>2018-07-28T08:26:35Z</time>
      </trkpt>
      <trkpt lat="36.702205657959" lon="-5.02475786209106">
        <ele>1454.09582519531</ele>
        <time>2018-07-28T08:26:36Z</time>
      </trkpt>
      <trkpt lat="36.702205657959" lon="-5.02476406097412">
        <ele>1454.14172363281</ele>
        <time>2018-07-28T08:26:37Z</time>
      </trkpt>
      <trkpt lat="36.702205657959" lon="-5.02477216720581">
        <ele>1454.20178222656</ele>
        <time>2018-07-28T08:26:38Z</time>
      </trkpt>
      <trkpt lat="36.702205657959" lon="-5.02477884292603">
        <ele>1454.25134277344</ele>
        <time>2018-07-28T08:26:39Z</time>
      </trkpt>
      <trkpt lat="36.702205657959" lon="-5.02478981018066">
        <ele>1454.33251953125</ele>
        <time>2018-07-28T08:26:40Z</time>
      </trkpt>
      <trkpt lat="36.702205657959" lon="-5.02480220794678">
        <ele>1454.42443847656</ele>
        <time>2018-07-28T08:26:41Z</time>
      </trkpt>
      <trkpt lat="36.7022094726562" lon="-5.02481698989868">
        <ele>1454.39770507812</ele>
        <time>2018-07-28T08:26:42Z</time>
      </trkpt>
      <trkpt lat="36.7022094726562" lon="-5.02483081817627">
        <ele>1454.50073242188</ele>
        <time>2018-07-28T08:26:43Z</time>
      </trkpt>
      <trkpt lat="36.7022132873535" lon="-5.02484607696533">
        <ele>1454.47961425781</ele>
        <time>2018-07-28T08:26:44Z</time>
      </trkpt>
      <trkpt lat="36.7022171020508" lon="-5.02485990524292">
        <ele>1454.44897460938</ele>
        <time>2018-07-28T08:26:45Z</time>
      </trkpt>
      <trkpt lat="36.7022171020508" lon="-5.02487182617188">
        <ele>1454.53881835938</ele>
        <time>2018-07-28T08:26:46Z</time>
      </trkpt>
      <trkpt lat="36.702220916748" lon="-5.02488088607788">
        <ele>1454.47375488281</ele>
        <time>2018-07-28T08:26:47Z</time>
      </trkpt>
      <trkpt lat="36.702220916748" lon="-5.02488994598389">
        <ele>1454.54248046875</ele>
        <time>2018-07-28T08:26:48Z</time>
      </trkpt>
      <trkpt lat="36.7022171020508" lon="-5.02489614486694">
        <ele>1454.72216796875</ele>
        <time>2018-07-28T08:26:49Z</time>
      </trkpt>
      <trkpt lat="36.7022171020508" lon="-5.02490186691284">
        <ele>1454.76538085938</ele>
        <time>2018-07-28T08:26:50Z</time>
      </trkpt>
      <trkpt lat="36.7022171020508" lon="-5.02490711212158">
        <ele>1454.80493164062</ele>
        <time>2018-07-28T08:26:51Z</time>
      </trkpt>
      <trkpt lat="36.7022171020508" lon="-5.02491283416748">
        <ele>1454.84802246094</ele>
        <time>2018-07-28T08:26:52Z</time>
      </trkpt>
      <trkpt lat="36.7022171020508" lon="-5.0249171257019">
        <ele>1454.88037109375</ele>
        <time>2018-07-28T08:26:53Z</time>
      </trkpt>
      <trkpt lat="36.7022171020508" lon="-5.02491998672485">
        <ele>1454.90197753906</ele>
        <time>2018-07-28T08:26:54Z</time>
      </trkpt>
      <trkpt lat="36.7022132873535" lon="-5.02492094039917">
        <ele>1455.04077148438</ele>
        <time>2018-07-28T08:26:55Z</time>
      </trkpt>
      <trkpt lat="36.7022132873535" lon="-5.0249228477478">
        <ele>1455.05517578125</ele>
        <time>2018-07-28T08:26:56Z</time>
      </trkpt>
      <trkpt lat="36.7022132873535" lon="-5.02492523193359">
        <ele>1455.07299804688</ele>
        <time>2018-07-28T08:26:57Z</time>
      </trkpt>
      <trkpt lat="36.7022132873535" lon="-5.02492713928223">
        <ele>1455.08728027344</ele>
        <time>2018-07-28T08:26:58Z</time>
      </trkpt>
      <trkpt lat="36.7022132873535" lon="-5.02492904663086">
        <ele>1455.1015625</ele>
        <time>2018-07-28T08:26:59Z</time>
      </trkpt>
      <trkpt lat="36.7022132873535" lon="-5.02493095397949">
        <ele>1455.11584472656</ele>
        <time>2018-07-28T08:27:00Z</time>
      </trkpt>
      <trkpt lat="36.7022094726562" lon="-5.02493381500244">
        <ele>1455.26843261719</ele>
        <time>2018-07-28T08:27:01Z</time>
      </trkpt>
      <trkpt lat="36.702205657959" lon="-5.02493619918823">
        <ele>1455.41723632812</ele>
        <time>2018-07-28T08:27:02Z</time>
      </trkpt>
      <trkpt lat="36.702205657959" lon="-5.02493906021118">
        <ele>1455.43835449219</ele>
        <time>2018-07-28T08:27:03Z</time>
      </trkpt>
      <trkpt lat="36.702205657959" lon="-5.0249400138855">
        <ele>1455.44543457031</ele>
        <time>2018-07-28T08:27:04Z</time>
      </trkpt>
      <trkpt lat="36.7022094726562" lon="-5.02494096755981">
        <ele>1455.32177734375</ele>
        <time>2018-07-28T08:27:05Z</time>
      </trkpt>
      <trkpt lat="36.7022094726562" lon="-5.02494192123413">
        <ele>1455.32885742188</ele>
        <time>2018-07-28T08:27:06Z</time>
      </trkpt>
      <trkpt lat="36.7022132873535" lon="-5.02494287490845">
        <ele>1455.20532226562</ele>
        <time>2018-07-28T08:27:07Z</time>
      </trkpt>
      <trkpt lat="36.7022132873535" lon="-5.02494478225708">
        <ele>1455.21960449219</ele>
        <time>2018-07-28T08:27:08Z</time>
      </trkpt>
      <trkpt lat="36.7022132873535" lon="-5.02494812011719">
        <ele>1455.24462890625</ele>
        <time>2018-07-28T08:27:09Z</time>
      </trkpt>
      <trkpt lat="36.7022094726562" lon="-5.02495002746582">
        <ele>1455.38928222656</ele>
        <time>2018-07-28T08:27:10Z</time>
      </trkpt>
      <trkpt lat="36.7022094726562" lon="-5.02495193481445">
        <ele>1455.40344238281</ele>
        <time>2018-07-28T08:27:11Z</time>
      </trkpt>
      <trkpt lat="36.7022094726562" lon="-5.02495622634888">
        <ele>1455.43542480469</ele>
        <time>2018-07-28T08:27:12Z</time>
      </trkpt>
      <trkpt lat="36.7022094726562" lon="-5.02496004104614">
        <ele>1455.4638671875</ele>
        <time>2018-07-28T08:27:13Z</time>
      </trkpt>
      <trkpt lat="36.7022094726562" lon="-5.02496480941772">
        <ele>1455.49938964844</ele>
        <time>2018-07-28T08:27:14Z</time>
      </trkpt>
      <trkpt lat="36.7022094726562" lon="-5.02497482299805">
        <ele>1455.57409667969</ele>
        <time>2018-07-28T08:27:15Z</time>
      </trkpt>
      <trkpt lat="36.7022132873535" lon="-5.02498722076416">
        <ele>1455.53771972656</ele>
        <time>2018-07-28T08:27:16Z</time>
      </trkpt>
      <trkpt lat="36.7022132873535" lon="-5.02500200271606">
        <ele>1455.62451171875</ele>
        <time>2018-07-28T08:27:17Z</time>
      </trkpt>
      <trkpt lat="36.7022094726562" lon="-5.02501106262207">
        <ele>1455.71142578125</ele>
        <time>2018-07-28T08:27:18Z</time>
      </trkpt>
      <trkpt lat="36.702205657959" lon="-5.02502012252808">
        <ele>1455.79748535156</ele>
        <time>2018-07-28T08:27:19Z</time>
      </trkpt>
      <trkpt lat="36.7022018432617" lon="-5.02502679824829">
        <ele>1455.89392089844</ele>
        <time>2018-07-28T08:27:20Z</time>
      </trkpt>
      <trkpt lat="36.7021980285644" lon="-5.0250358581543">
        <ele>1455.978515625</ele>
        <time>2018-07-28T08:27:21Z</time>
      </trkpt>
      <trkpt lat="36.7021942138672" lon="-5.02504396438599">
        <ele>1456.06677246094</ele>
        <time>2018-07-28T08:27:22Z</time>
      </trkpt>
      <trkpt lat="36.7021942138672" lon="-5.02505207061768">
        <ele>1456.02844238281</ele>
        <time>2018-07-28T08:27:23Z</time>
      </trkpt>
      <trkpt lat="36.7021903991699" lon="-5.02505922317505">
        <ele>1456.12023925781</ele>
        <time>2018-07-28T08:27:24Z</time>
      </trkpt>
      <trkpt lat="36.7021865844727" lon="-5.02506685256958">
        <ele>1456.20910644531</ele>
        <time>2018-07-28T08:27:25Z</time>
      </trkpt>
      <trkpt lat="36.7021827697754" lon="-5.02507591247559">
        <ele>1456.29040527344</ele>
        <time>2018-07-28T08:27:26Z</time>
      </trkpt>
      <trkpt lat="36.7021827697754" lon="-5.02508401870728">
        <ele>1456.25109863281</ele>
        <time>2018-07-28T08:27:27Z</time>
      </trkpt>
      <trkpt lat="36.7021789550781" lon="-5.02509212493896">
        <ele>1456.33581542969</ele>
        <time>2018-07-28T08:27:28Z</time>
      </trkpt>
      <trkpt lat="36.7021751403809" lon="-5.02509880065918">
        <ele>1456.42700195312</ele>
        <time>2018-07-28T08:27:29Z</time>
      </trkpt>
      <trkpt lat="36.7021713256836" lon="-5.02510499954224">
        <ele>1456.51989746094</ele>
        <time>2018-07-28T08:27:30Z</time>
      </trkpt>
      <trkpt lat="36.7021636962891" lon="-5.02511215209961">
        <ele>1456.73071289062</ele>
        <time>2018-07-28T08:27:31Z</time>
      </trkpt>
      <trkpt lat="36.7021598815918" lon="-5.02511978149414">
        <ele>1456.81494140625</ele>
        <time>2018-07-28T08:27:32Z</time>
      </trkpt>
      <trkpt lat="36.7021522521973" lon="-5.02512979507446">
        <ele>1457.00854492188</ele>
        <time>2018-07-28T08:27:33Z</time>
      </trkpt>
      <trkpt lat="36.7021522521973" lon="-5.02513885498047">
        <ele>1456.96142578125</ele>
        <time>2018-07-28T08:27:34Z</time>
      </trkpt>
      <trkpt lat="36.7021484375" lon="-5.02514886856079">
        <ele>1457.03088378906</ele>
        <time>2018-07-28T08:27:35Z</time>
      </trkpt>
      <trkpt lat="36.7021484375" lon="-5.02515888214111">
        <ele>1456.97839355469</ele>
        <time>2018-07-28T08:27:36Z</time>
      </trkpt>
      <trkpt lat="36.7021446228027" lon="-5.02517080307007">
        <ele>1457.03649902344</ele>
        <time>2018-07-28T08:27:37Z</time>
      </trkpt>
      <trkpt lat="36.7021446228027" lon="-5.02517986297607">
        <ele>1456.98852539062</ele>
        <time>2018-07-28T08:27:38Z</time>
      </trkpt>
      <trkpt lat="36.7021408081055" lon="-5.0251898765564">
        <ele>1457.05529785156</ele>
        <time>2018-07-28T08:27:39Z</time>
      </trkpt>
      <trkpt lat="36.7021408081055" lon="-5.02519798278809">
        <ele>1457.01208496094</ele>
        <time>2018-07-28T08:27:40Z</time>
      </trkpt>
      <trkpt lat="36.7021408081055" lon="-5.02520513534546">
        <ele>1456.97387695312</ele>
        <time>2018-07-28T08:27:41Z</time>
      </trkpt>
      <trkpt lat="36.7021408081055" lon="-5.02520990371704">
        <ele>1456.94836425781</ele>
        <time>2018-07-28T08:27:42Z</time>
      </trkpt>
      <trkpt lat="36.7021408081055" lon="-5.02521705627441">
        <ele>1456.91027832031</ele>
        <time>2018-07-28T08:27:43Z</time>
      </trkpt>
      <trkpt lat="36.7021369934082" lon="-5.02522420883179">
        <ele>1456.99035644531</ele>
        <time>2018-07-28T08:27:44Z</time>
      </trkpt>
      <trkpt lat="36.7021293640137" lon="-5.02523422241211">
        <ele>1457.17224121094</ele>
        <time>2018-07-28T08:27:45Z</time>
      </trkpt>
      <trkpt lat="36.7021255493164" lon="-5.02524185180664">
        <ele>1457.248046875</ele>
        <time>2018-07-28T08:27:46Z</time>
      </trkpt>
      <trkpt lat="36.7021141052246" lon="-5.02525091171265">
        <ele>1457.54956054688</ele>
        <time>2018-07-28T08:27:47Z</time>
      </trkpt>
      <trkpt lat="36.7021102905273" lon="-5.02525901794434">
        <ele>1457.62060546875</ele>
        <time>2018-07-28T08:27:48Z</time>
      </trkpt>
      <trkpt lat="36.7020988464356" lon="-5.02526617050171">
        <ele>1457.92932128906</ele>
        <time>2018-07-28T08:27:49Z</time>
      </trkpt>
      <trkpt lat="36.7020950317383" lon="-5.02527523040772">
        <ele>1457.99267578125</ele>
        <time>2018-07-28T08:27:50Z</time>
      </trkpt>
      <trkpt lat="36.7020950317383" lon="-5.02528715133667">
        <ele>1457.92272949219</ele>
        <time>2018-07-28T08:27:51Z</time>
      </trkpt>
      <trkpt lat="36.7020988464356" lon="-5.02530002593994">
        <ele>1457.73217773438</ele>
        <time>2018-07-28T08:27:52Z</time>
      </trkpt>
      <trkpt lat="36.7020988464356" lon="-5.0253119468689">
        <ele>1457.66284179688</ele>
        <time>2018-07-28T08:27:53Z</time>
      </trkpt>
      <trkpt lat="36.7021026611328" lon="-5.02532386779785">
        <ele>1457.4794921875</ele>
        <time>2018-07-28T08:27:54Z</time>
      </trkpt>
      <trkpt lat="36.7021026611328" lon="-5.02533483505249">
        <ele>1457.41613769531</ele>
        <time>2018-07-28T08:27:55Z</time>
      </trkpt>
      <trkpt lat="36.7021064758301" lon="-5.02534580230713">
        <ele>1457.23974609375</ele>
        <time>2018-07-28T08:27:56Z</time>
      </trkpt>
      <trkpt lat="36.7021064758301" lon="-5.02535486221314">
        <ele>1457.18786621094</ele>
        <time>2018-07-28T08:27:57Z</time>
      </trkpt>
      <trkpt lat="36.7021064758301" lon="-5.02536392211914">
        <ele>1457.13586425781</ele>
        <time>2018-07-28T08:27:58Z</time>
      </trkpt>
      <trkpt lat="36.7021026611328" lon="-5.02537202835083">
        <ele>1457.20129394531</ele>
        <time>2018-07-28T08:27:59Z</time>
      </trkpt>
      <trkpt lat="36.7020988464356" lon="-5.0253791809082">
        <ele>1457.271484375</ele>
        <time>2018-07-28T08:28:00Z</time>
      </trkpt>
      <trkpt lat="36.7020988464356" lon="-5.02538585662842">
        <ele>1457.23254394531</ele>
        <time>2018-07-28T08:28:01Z</time>
      </trkpt>
      <trkpt lat="36.7020950317383" lon="-5.02539587020874">
        <ele>1457.28503417969</ele>
        <time>2018-07-28T08:28:02Z</time>
      </trkpt>
      <trkpt lat="36.702091217041" lon="-5.02540588378906">
        <ele>1457.33666992188</ele>
        <time>2018-07-28T08:28:03Z</time>
      </trkpt>
      <trkpt lat="36.7020835876465" lon="-5.02541494369507">
        <ele>1457.50305175781</ele>
        <time>2018-07-28T08:28:04Z</time>
      </trkpt>
      <trkpt lat="36.7020721435547" lon="-5.02542495727539">
        <ele>1457.771484375</ele>
        <time>2018-07-28T08:28:05Z</time>
      </trkpt>
      <trkpt lat="36.7020645141602" lon="-5.0254340171814">
        <ele>1457.93408203125</ele>
        <time>2018-07-28T08:28:06Z</time>
      </trkpt>
      <trkpt lat="36.7020568847656" lon="-5.02544116973877">
        <ele>1458.10717773438</ele>
        <time>2018-07-28T08:28:07Z</time>
      </trkpt>
      <trkpt lat="36.7020530700684" lon="-5.02544784545898">
        <ele>1458.17358398438</ele>
        <time>2018-07-28T08:28:08Z</time>
      </trkpt>
      <trkpt lat="36.7020492553711" lon="-5.02545404434204">
        <ele>1458.24255371094</ele>
        <time>2018-07-28T08:28:09Z</time>
      </trkpt>
      <trkpt lat="36.7020492553711" lon="-5.02545976638794">
        <ele>1458.20593261719</ele>
        <time>2018-07-28T08:28:10Z</time>
      </trkpt>
      <trkpt lat="36.7020492553711" lon="-5.02546310424805">
        <ele>1458.1845703125</ele>
        <time>2018-07-28T08:28:11Z</time>
      </trkpt>
      <trkpt lat="36.7020492553711" lon="-5.02546501159668">
        <ele>1458.17236328125</ele>
        <time>2018-07-28T08:28:12Z</time>
      </trkpt>
      <trkpt lat="36.7020492553711" lon="-5.025465965271">
        <ele>1458.16625976562</ele>
        <time>2018-07-28T08:28:13Z</time>
      </trkpt>
      <trkpt lat="36.7020530700684" lon="-5.02546787261963">
        <ele>1458.04650878906</ele>
        <time>2018-07-28T08:28:14Z</time>
      </trkpt>
      <trkpt lat="36.7020530700684" lon="-5.02546977996826">
        <ele>1458.03442382812</ele>
        <time>2018-07-28T08:28:15Z</time>
      </trkpt>
      <trkpt lat="36.7020530700684" lon="-5.02547311782837">
        <ele>1458.01318359375</ele>
        <time>2018-07-28T08:28:16Z</time>
      </trkpt>
      <trkpt lat="36.7020530700684" lon="-5.02547693252564">
        <ele>1457.98901367188</ele>
        <time>2018-07-28T08:28:17Z</time>
      </trkpt>
      <trkpt lat="36.7020530700684" lon="-5.02548122406006">
        <ele>1457.96166992188</ele>
        <time>2018-07-28T08:28:18Z</time>
      </trkpt>
      <trkpt lat="36.7020568847656" lon="-5.02548217773438">
        <ele>1457.8486328125</ele>
        <time>2018-07-28T08:28:19Z</time>
      </trkpt>
      <trkpt lat="36.7020568847656" lon="-5.02548408508301">
        <ele>1457.83666992188</ele>
        <time>2018-07-28T08:28:20Z</time>
      </trkpt>
      <trkpt lat="36.7020568847656" lon="-5.02548599243164">
        <ele>1457.82458496094</ele>
        <time>2018-07-28T08:28:21Z</time>
      </trkpt>
      <trkpt lat="36.7020606994629" lon="-5.02548980712891">
        <ele>1457.69396972656</ele>
        <time>2018-07-28T08:28:22Z</time>
      </trkpt>
      <trkpt lat="36.7020645141602" lon="-5.02549409866333">
        <ele>1457.56066894531</ele>
        <time>2018-07-28T08:28:23Z</time>
      </trkpt>
      <trkpt lat="36.7020645141602" lon="-5.0254979133606">
        <ele>1457.53686523438</ele>
        <time>2018-07-28T08:28:24Z</time>
      </trkpt>
      <trkpt lat="36.7020683288574" lon="-5.02550315856934">
        <ele>1457.39819335938</ele>
        <time>2018-07-28T08:28:25Z</time>
      </trkpt>
      <trkpt lat="36.7020721435547" lon="-5.02550888061523">
        <ele>1457.25708007812</ele>
        <time>2018-07-28T08:28:26Z</time>
      </trkpt>
      <trkpt lat="36.702075958252" lon="-5.02551603317261">
        <ele>1457.10778808594</ele>
        <time>2018-07-28T08:28:27Z</time>
      </trkpt>
      <trkpt lat="36.7020797729492" lon="-5.02552223205566">
        <ele>1456.96484375</ele>
        <time>2018-07-28T08:28:28Z</time>
      </trkpt>
      <trkpt lat="36.7020797729492" lon="-5.02552700042725">
        <ele>1456.93603515625</ele>
        <time>2018-07-28T08:28:29Z</time>
      </trkpt>
      <trkpt lat="36.7020835876465" lon="-5.02553081512451">
        <ele>1456.80810546875</ele>
        <time>2018-07-28T08:28:30Z</time>
      </trkpt>
      <trkpt lat="36.7020874023438" lon="-5.02553081512451">
        <ele>1456.70324707031</ele>
        <time>2018-07-28T08:28:31Z</time>
      </trkpt>
      <trkpt lat="36.702091217041" lon="-5.02553081512451">
        <ele>1456.59838867188</ele>
        <time>2018-07-28T08:28:32Z</time>
      </trkpt>
      <trkpt lat="36.702091217041" lon="-5.02552890777588">
        <ele>1456.60974121094</ele>
        <time>2018-07-28T08:28:33Z</time>
      </trkpt>
      <trkpt lat="36.702091217041" lon="-5.0255298614502">
        <ele>1456.60400390625</ele>
        <time>2018-07-28T08:28:34Z</time>
      </trkpt>
      <trkpt lat="36.702091217041" lon="-5.02553081512451">
        <ele>1456.59838867188</ele>
        <time>2018-07-28T08:28:35Z</time>
      </trkpt>
      <trkpt lat="36.7020950317383" lon="-5.02553176879883">
        <ele>1456.48803710938</ele>
        <time>2018-07-28T08:28:36Z</time>
      </trkpt>
      <trkpt lat="36.7020950317383" lon="-5.02553176879883">
        <ele>1456.48803710938</ele>
        <time>2018-07-28T08:28:37Z</time>
      </trkpt>
      <trkpt lat="36.7020988464356" lon="-5.0255331993103">
        <ele>1456.37487792969</ele>
        <time>2018-07-28T08:28:38Z</time>
      </trkpt>
      <trkpt lat="36.7021064758301" lon="-5.02553510665894">
        <ele>1456.15441894531</ele>
        <time>2018-07-28T08:28:39Z</time>
      </trkpt>
      <trkpt lat="36.7021141052246" lon="-5.02553796768188">
        <ele>1455.92895507812</ele>
        <time>2018-07-28T08:28:40Z</time>
      </trkpt>
      <trkpt lat="36.7021179199219" lon="-5.02553987503052">
        <ele>1455.81372070312</ele>
        <time>2018-07-28T08:28:41Z</time>
      </trkpt>
      <trkpt lat="36.7021255493164" lon="-5.02554178237915">
        <ele>1455.59436035156</ele>
        <time>2018-07-28T08:28:42Z</time>
      </trkpt>
      <trkpt lat="36.7021331787109" lon="-5.02554512023926">
        <ele>1455.36743164062</ele>
        <time>2018-07-28T08:28:43Z</time>
      </trkpt>
      <trkpt lat="36.7021446228027" lon="-5.02554988861084">
        <ele>1455.02954101562</ele>
        <time>2018-07-28T08:28:44Z</time>
      </trkpt>
      <trkpt lat="36.7021522521973" lon="-5.0255560874939">
        <ele>1454.78930664062</ele>
        <time>2018-07-28T08:28:45Z</time>
      </trkpt>
      <trkpt lat="36.7021598815918" lon="-5.02555990219116">
        <ele>1454.56225585938</ele>
        <time>2018-07-28T08:28:46Z</time>
      </trkpt>
      <trkpt lat="36.7021636962891" lon="-5.02556085586548">
        <ele>1454.45385742188</ele>
        <time>2018-07-28T08:28:47Z</time>
      </trkpt>
      <trkpt lat="36.7021675109863" lon="-5.02555990219116">
        <ele>1454.35522460938</ele>
        <time>2018-07-28T08:28:48Z</time>
      </trkpt>
      <trkpt lat="36.7021713256836" lon="-5.02555894851685">
        <ele>1454.25634765625</ele>
        <time>2018-07-28T08:28:49Z</time>
      </trkpt>
      <trkpt lat="36.7021751403809" lon="-5.02555799484253">
        <ele>1454.15747070312</ele>
        <time>2018-07-28T08:28:50Z</time>
      </trkpt>
      <trkpt lat="36.7021827697754" lon="-5.02555704116821">
        <ele>1453.95483398438</ele>
        <time>2018-07-28T08:28:51Z</time>
      </trkpt>
      <trkpt lat="36.7021903991699" lon="-5.02555418014526">
        <ele>1453.76098632812</ele>
        <time>2018-07-28T08:28:52Z</time>
      </trkpt>
      <trkpt lat="36.7021942138672" lon="-5.02555084228516">
        <ele>1453.67297363281</ele>
        <time>2018-07-28T08:28:53Z</time>
      </trkpt>
      <trkpt lat="36.7021980285644" lon="-5.02554988861084">
        <ele>1453.57348632812</ele>
        <time>2018-07-28T08:28:54Z</time>
      </trkpt>
      <trkpt lat="36.7022018432617" lon="-5.02554798126221">
        <ele>1453.47827148438</ele>
        <time>2018-07-28T08:28:55Z</time>
      </trkpt>
      <trkpt lat="36.7022018432617" lon="-5.02554702758789">
        <ele>1453.48266601562</ele>
        <time>2018-07-28T08:28:56Z</time>
      </trkpt>
      <trkpt lat="36.702205657959" lon="-5.02554607391357">
        <ele>1453.38293457031</ele>
        <time>2018-07-28T08:28:57Z</time>
      </trkpt>
      <trkpt lat="36.7022132873535" lon="-5.02554798126221">
        <ele>1453.166015625</ele>
        <time>2018-07-28T08:28:58Z</time>
      </trkpt>
      <trkpt lat="36.702220916748" lon="-5.02554988861084">
        <ele>1452.94946289062</ele>
        <time>2018-07-28T08:28:59Z</time>
      </trkpt>
      <trkpt lat="36.7022285461426" lon="-5.02555084228516">
        <ele>1452.7373046875</ele>
        <time>2018-07-28T08:29:00Z</time>
      </trkpt>
      <trkpt lat="36.7022285461426" lon="-5.02554893493652">
        <ele>1452.74548339844</ele>
        <time>2018-07-28T08:29:01Z</time>
      </trkpt>
      <trkpt lat="36.7022323608398" lon="-5.02554893493652">
        <ele>1452.64147949219</ele>
        <time>2018-07-28T08:29:02Z</time>
      </trkpt>
      <trkpt lat="36.7022361755371" lon="-5.02554893493652">
        <ele>1452.53747558594</ele>
        <time>2018-07-28T08:29:03Z</time>
      </trkpt>
      <trkpt lat="36.7022361755371" lon="-5.02554893493652">
        <ele>1452.53747558594</ele>
        <time>2018-07-28T08:29:04Z</time>
      </trkpt>
      <trkpt lat="36.7022399902344" lon="-5.02554702758789">
        <ele>1452.44140625</ele>
        <time>2018-07-28T08:29:05Z</time>
      </trkpt>
      <trkpt lat="36.7022399902344" lon="-5.02554416656494">
        <ele>1452.45336914062</ele>
        <time>2018-07-28T08:29:06Z</time>
      </trkpt>
      <trkpt lat="36.7022438049316" lon="-5.02554178237915">
        <ele>1452.35900878906</ele>
        <time>2018-07-28T08:29:07Z</time>
      </trkpt>
      <trkpt lat="36.7022476196289" lon="-5.02553987503052">
        <ele>1452.26245117188</ele>
        <time>2018-07-28T08:29:08Z</time>
      </trkpt>
      <trkpt lat="36.7022514343262" lon="-5.0255389213562">
        <ele>1452.16186523438</ele>
        <time>2018-07-28T08:29:09Z</time>
      </trkpt>
      <trkpt lat="36.7022590637207" lon="-5.0255389213562">
        <ele>1451.95288085938</ele>
        <time>2018-07-28T08:29:10Z</time>
      </trkpt>
      <trkpt lat="36.702262878418" lon="-5.02553701400757">
        <ele>1451.85595703125</ele>
        <time>2018-07-28T08:29:11Z</time>
      </trkpt>
      <trkpt lat="36.7022666931152" lon="-5.02553606033325">
        <ele>1451.75512695312</ele>
        <time>2018-07-28T08:29:12Z</time>
      </trkpt>
      <trkpt lat="36.7022743225098" lon="-5.02553415298462">
        <ele>1451.55310058594</ele>
        <time>2018-07-28T08:29:13Z</time>
      </trkpt>
      <trkpt lat="36.702278137207" lon="-5.0255331993103">
        <ele>1451.45202636719</ele>
        <time>2018-07-28T08:29:14Z</time>
      </trkpt>
      <trkpt lat="36.702278137207" lon="-5.02553176879883">
        <ele>1451.45739746094</ele>
        <time>2018-07-28T08:29:15Z</time>
      </trkpt>
      <trkpt lat="36.7022857666016" lon="-5.02553081512451">
        <ele>1451.25122070312</ele>
        <time>2018-07-28T08:29:16Z</time>
      </trkpt>
      <trkpt lat="36.7022857666016" lon="-5.02552890777588">
        <ele>1451.25817871094</ele>
        <time>2018-07-28T08:29:17Z</time>
      </trkpt>
      <trkpt lat="36.7022895812988" lon="-5.02552890777588">
        <ele>1451.1533203125</ele>
        <time>2018-07-28T08:29:18Z</time>
      </trkpt>
      <trkpt lat="36.7022933959961" lon="-5.0255298614502">
        <ele>1451.044921875</ele>
        <time>2018-07-28T08:29:19Z</time>
      </trkpt>
      <trkpt lat="36.7022972106934" lon="-5.02553176879883">
        <ele>1450.93334960938</ele>
        <time>2018-07-28T08:29:20Z</time>
      </trkpt>
      <trkpt lat="36.7023048400879" lon="-5.02553510665894">
        <ele>1450.71215820312</ele>
        <time>2018-07-28T08:29:21Z</time>
      </trkpt>
      <trkpt lat="36.7023124694824" lon="-5.02553987503052">
        <ele>1450.48681640625</ele>
        <time>2018-07-28T08:29:22Z</time>
      </trkpt>
      <trkpt lat="36.702320098877" lon="-5.02554512023926">
        <ele>1450.2607421875</ele>
        <time>2018-07-28T08:29:23Z</time>
      </trkpt>
      <trkpt lat="36.7023277282715" lon="-5.02555179595947">
        <ele>1450.03112792969</ele>
        <time>2018-07-28T08:29:24Z</time>
      </trkpt>
      <trkpt lat="36.7023315429688" lon="-5.02555799484253">
        <ele>1449.90771484375</ele>
        <time>2018-07-28T08:29:25Z</time>
      </trkpt>
      <trkpt lat="36.702335357666" lon="-5.0255618095398">
        <ele>1449.79223632812</ele>
        <time>2018-07-28T08:29:26Z</time>
      </trkpt>
      <trkpt lat="36.7023429870606" lon="-5.02556610107422">
        <ele>1449.57238769531</ele>
        <time>2018-07-28T08:29:27Z</time>
      </trkpt>
      <trkpt lat="36.7023468017578" lon="-5.02556896209717">
        <ele>1449.46057128906</ele>
        <time>2018-07-28T08:29:28Z</time>
      </trkpt>
      <trkpt lat="36.7023544311523" lon="-5.02557420730591">
        <ele>1449.23913574219</ele>
        <time>2018-07-28T08:29:29Z</time>
      </trkpt>
      <trkpt lat="36.7023620605469" lon="-5.02557992935181">
        <ele>1449.01733398438</ele>
        <time>2018-07-28T08:29:30Z</time>
      </trkpt>
      <trkpt lat="36.7023696899414" lon="-5.02558708190918">
        <ele>1448.79260253906</ele>
        <time>2018-07-28T08:29:31Z</time>
      </trkpt>
      <trkpt lat="36.7023773193359" lon="-5.02559280395508">
        <ele>1448.57287597656</ele>
        <time>2018-07-28T08:29:32Z</time>
      </trkpt>
      <trkpt lat="36.7023811340332" lon="-5.0255970954895">
        <ele>1448.45971679688</ele>
        <time>2018-07-28T08:29:33Z</time>
      </trkpt>
      <trkpt lat="36.7023811340332" lon="-5.02560091018677">
        <ele>1448.44995117188</ele>
        <time>2018-07-28T08:29:34Z</time>
      </trkpt>
      <trkpt lat="36.7023849487305" lon="-5.02560520172119">
        <ele>1448.33740234375</ele>
        <time>2018-07-28T08:29:35Z</time>
      </trkpt>
      <trkpt lat="36.702392578125" lon="-5.02560806274414">
        <ele>1448.12719726562</ele>
        <time>2018-07-28T08:29:36Z</time>
      </trkpt>
      <trkpt lat="36.7024002075195" lon="-5.02560997009277">
        <ele>1447.91979980469</ele>
        <time>2018-07-28T08:29:37Z</time>
      </trkpt>
      <trkpt lat="36.7024116516113" lon="-5.02561187744141">
        <ele>1447.61145019531</ele>
        <time>2018-07-28T08:29:38Z</time>
      </trkpt>
      <trkpt lat="36.7024192810059" lon="-5.02561378479004">
        <ele>1447.40490722656</ele>
        <time>2018-07-28T08:29:39Z</time>
      </trkpt>
      <trkpt lat="36.7024269104004" lon="-5.02561616897583">
        <ele>1447.19763183594</ele>
        <time>2018-07-28T08:29:40Z</time>
      </trkpt>
      <trkpt lat="36.7024345397949" lon="-5.02561712265015">
        <ele>1446.99353027344</ele>
        <time>2018-07-28T08:29:41Z</time>
      </trkpt>
      <trkpt lat="36.7024421691894" lon="-5.02561616897583">
        <ele>1446.79321289062</ele>
        <time>2018-07-28T08:29:42Z</time>
      </trkpt>
      <trkpt lat="36.702449798584" lon="-5.02561616897583">
        <ele>1446.59106445312</ele>
        <time>2018-07-28T08:29:43Z</time>
      </trkpt>
      <trkpt lat="36.7024574279785" lon="-5.02561616897583">
        <ele>1446.38879394531</ele>
        <time>2018-07-28T08:29:44Z</time>
      </trkpt>
      <trkpt lat="36.702465057373" lon="-5.02561807632446">
        <ele>1446.18359375</ele>
        <time>2018-07-28T08:29:45Z</time>
      </trkpt>
      <trkpt lat="36.7024726867676" lon="-5.02562189102173">
        <ele>1445.97583007812</ele>
        <time>2018-07-28T08:29:46Z</time>
      </trkpt>
      <trkpt lat="36.7024803161621" lon="-5.0256290435791">
        <ele>1445.76391601562</ele>
        <time>2018-07-28T08:29:47Z</time>
      </trkpt>
      <trkpt lat="36.7024841308594" lon="-5.02563714981079">
        <ele>1445.65209960938</ele>
        <time>2018-07-28T08:29:48Z</time>
      </trkpt>
      <trkpt lat="36.7024879455566" lon="-5.02564477920532">
        <ele>1445.54174804688</ele>
        <time>2018-07-28T08:29:49Z</time>
      </trkpt>
      <trkpt lat="36.7024917602539" lon="-5.0256519317627">
        <ele>1445.4326171875</ele>
        <time>2018-07-28T08:29:50Z</time>
      </trkpt>
      <trkpt lat="36.7024955749512" lon="-5.02565479278564">
        <ele>1445.32958984375</ele>
        <time>2018-07-28T08:29:51Z</time>
      </trkpt>
      <trkpt lat="36.7024955749512" lon="-5.02565479278564">
        <ele>1445.32958984375</ele>
        <time>2018-07-28T08:29:52Z</time>
      </trkpt>
      <trkpt lat="36.7024993896484" lon="-5.02565383911133">
        <ele>1445.23132324219</ele>
        <time>2018-07-28T08:29:53Z</time>
      </trkpt>
      <trkpt lat="36.7024993896484" lon="-5.02565479278564">
        <ele>1445.23010253906</ele>
        <time>2018-07-28T08:29:54Z</time>
      </trkpt>
      <trkpt lat="36.7024993896484" lon="-5.02565813064575">
        <ele>1445.22607421875</ele>
        <time>2018-07-28T08:29:55Z</time>
      </trkpt>
      <trkpt lat="36.7024993896484" lon="-5.02566194534302">
        <ele>1445.22155761719</ele>
        <time>2018-07-28T08:29:56Z</time>
      </trkpt>
      <trkpt lat="36.7024993896484" lon="-5.02566719055176">
        <ele>1445.21520996094</ele>
        <time>2018-07-28T08:29:57Z</time>
      </trkpt>
      <trkpt lat="36.7024993896484" lon="-5.02567386627197">
        <ele>1445.20715332031</ele>
        <time>2018-07-28T08:29:58Z</time>
      </trkpt>
      <trkpt lat="36.7024993896484" lon="-5.02568006515503">
        <ele>1445.19970703125</ele>
        <time>2018-07-28T08:29:59Z</time>
      </trkpt>
      <trkpt lat="36.7025032043457" lon="-5.02568483352661">
        <ele>1445.07263183594</ele>
        <time>2018-07-28T08:30:00Z</time>
      </trkpt>
      <trkpt lat="36.702507019043" lon="-5.02569103240967">
        <ele>1444.93920898438</ele>
        <time>2018-07-28T08:30:01Z</time>
      </trkpt>
      <trkpt lat="36.7025108337402" lon="-5.02569913864136">
        <ele>1444.80334472656</ele>
        <time>2018-07-28T08:30:02Z</time>
      </trkpt>
      <trkpt lat="36.7025146484375" lon="-5.02570819854736">
        <ele>1444.66589355469</ele>
        <time>2018-07-28T08:30:03Z</time>
      </trkpt>
      <trkpt lat="36.702522277832" lon="-5.02571821212769">
        <ele>1444.40063476562</ele>
        <time>2018-07-28T08:30:04Z</time>
      </trkpt>
      <trkpt lat="36.702522277832" lon="-5.02572584152222">
        <ele>1444.39074707031</ele>
        <time>2018-07-28T08:30:05Z</time>
      </trkpt>
      <trkpt lat="36.7025260925293" lon="-5.02573585510254">
        <ele>1444.25122070312</ele>
        <time>2018-07-28T08:30:06Z</time>
      </trkpt>
      <trkpt lat="36.702522277832" lon="-5.02574920654297">
        <ele>1444.36047363281</ele>
        <time>2018-07-28T08:30:07Z</time>
      </trkpt>
      <trkpt lat="36.7025184631348" lon="-5.02576208114624">
        <ele>1444.47082519531</ele>
        <time>2018-07-28T08:30:08Z</time>
      </trkpt>
      <trkpt lat="36.7025184631348" lon="-5.02577304840088">
        <ele>1444.45678710938</ele>
        <time>2018-07-28T08:30:09Z</time>
      </trkpt>
      <trkpt lat="36.702522277832" lon="-5.0257830619812">
        <ele>1444.31665039062</ele>
        <time>2018-07-28T08:30:10Z</time>
      </trkpt>
      <trkpt lat="36.7025260925293" lon="-5.02579307556152">
        <ele>1444.17614746094</ele>
        <time>2018-07-28T08:30:11Z</time>
      </trkpt>
      <trkpt lat="36.7025337219238" lon="-5.02580308914185">
        <ele>1443.90759277344</ele>
        <time>2018-07-28T08:30:12Z</time>
      </trkpt>
      <trkpt lat="36.7025337219238" lon="-5.02581405639648">
        <ele>1443.89294433594</ele>
        <time>2018-07-28T08:30:13Z</time>
      </trkpt>
      <trkpt lat="36.7025375366211" lon="-5.02582311630249">
        <ele>1443.75268554688</ele>
        <time>2018-07-28T08:30:14Z</time>
      </trkpt>
      <trkpt lat="36.7025413513184" lon="-5.0258321762085">
        <ele>1443.61218261719</ele>
        <time>2018-07-28T08:30:15Z</time>
      </trkpt>
      <trkpt lat="36.7025451660156" lon="-5.02583980560303">
        <ele>1443.40100097656</ele>
        <time>2018-07-28T08:30:16Z</time>
      </trkpt>
      <trkpt lat="36.7025527954102" lon="-5.02584791183472">
        <ele>1443.04113769531</ele>
        <time>2018-07-28T08:30:17Z</time>
      </trkpt>
      <trkpt lat="36.7025566101074" lon="-5.02585792541504">
        <ele>1442.78479003906</ele>
        <time>2018-07-28T08:30:18Z</time>
      </trkpt>
      <trkpt lat="36.7025604248047" lon="-5.02586793899536">
        <ele>1442.52734375</ele>
        <time>2018-07-28T08:30:19Z</time>
      </trkpt>
      <trkpt lat="36.702564239502" lon="-5.02588081359863">
        <ele>1442.23229980469</ele>
        <time>2018-07-28T08:30:20Z</time>
      </trkpt>
      <trkpt lat="36.7025680541992" lon="-5.0258960723877">
        <ele>1441.90515136719</ele>
        <time>2018-07-28T08:30:21Z</time>
      </trkpt>
      <trkpt lat="36.7025718688965" lon="-5.02591180801392">
        <ele>1441.57043457031</ele>
        <time>2018-07-28T08:30:22Z</time>
      </trkpt>
      <trkpt lat="36.7025718688965" lon="-5.02592515945435">
        <ele>1441.39770507812</ele>
        <time>2018-07-28T08:30:23Z</time>
      </trkpt>
      <trkpt lat="36.7025718688965" lon="-5.02593803405762">
        <ele>1441.23132324219</ele>
        <time>2018-07-28T08:30:24Z</time>
      </trkpt>
      <trkpt lat="36.7025756835938" lon="-5.02594995498657">
        <ele>1440.94323730469</ele>
        <time>2018-07-28T08:30:25Z</time>
      </trkpt>
      <trkpt lat="36.702579498291" lon="-5.02596187591553">
        <ele>1440.65393066406</ele>
        <time>2018-07-28T08:30:26Z</time>
      </trkpt>
      <trkpt lat="36.7025833129883" lon="-5.02597379684448">
        <ele>1440.36340332031</ele>
        <time>2018-07-28T08:30:27Z</time>
      </trkpt>
      <trkpt lat="36.7025871276856" lon="-5.02598714828491">
        <ele>1440.05310058594</ele>
        <time>2018-07-28T08:30:28Z</time>
      </trkpt>
      <trkpt lat="36.7025909423828" lon="-5.02600002288818">
        <ele>1439.74755859375</ele>
        <time>2018-07-28T08:30:29Z</time>
      </trkpt>
      <trkpt lat="36.7025947570801" lon="-5.02601003646851">
        <ele>1439.47875976562</ele>
        <time>2018-07-28T08:30:30Z</time>
      </trkpt>
      <trkpt lat="36.7025985717773" lon="-5.02601909637451">
        <ele>1439.22155761719</ele>
        <time>2018-07-28T08:30:31Z</time>
      </trkpt>
      <trkpt lat="36.7025985717773" lon="-5.0260272026062">
        <ele>1439.11389160156</ele>
        <time>2018-07-28T08:30:32Z</time>
      </trkpt>
      <trkpt lat="36.7025947570801" lon="-5.02603721618652">
        <ele>1439.119140625</ele>
        <time>2018-07-28T08:30:33Z</time>
      </trkpt>
      <trkpt lat="36.7025909423828" lon="-5.02605104446411">
        <ele>1439.0751953125</ele>
        <time>2018-07-28T08:30:34Z</time>
      </trkpt>
      <trkpt lat="36.7025833129883" lon="-5.0260648727417">
        <ele>1439.17224121094</ele>
        <time>2018-07-28T08:30:35Z</time>
      </trkpt>
      <trkpt lat="36.7025833129883" lon="-5.02607822418213">
        <ele>1438.99755859375</ele>
        <time>2018-07-28T08:30:36Z</time>
      </trkpt>
      <trkpt lat="36.7025833129883" lon="-5.02608919143677">
        <ele>1438.85412597656</ele>
        <time>2018-07-28T08:30:37Z</time>
      </trkpt>
      <trkpt lat="36.702579498291" lon="-5.02610206604004">
        <ele>1438.8271484375</ele>
        <time>2018-07-28T08:30:38Z</time>
      </trkpt>
      <trkpt lat="36.7025756835938" lon="-5.02611494064331">
        <ele>1438.80151367188</ele>
        <time>2018-07-28T08:30:39Z</time>
      </trkpt>
      <trkpt lat="36.7025756835938" lon="-5.02613019943237">
        <ele>1438.60339355469</ele>
        <time>2018-07-28T08:30:40Z</time>
      </trkpt>
      <trkpt lat="36.7025718688965" lon="-5.02614402770996">
        <ele>1438.56750488281</ele>
        <time>2018-07-28T08:30:41Z</time>
      </trkpt>
      <trkpt lat="36.7025718688965" lon="-5.0261549949646">
        <ele>1438.42565917969</ele>
        <time>2018-07-28T08:30:42Z</time>
      </trkpt>
      <trkpt lat="36.7025718688965" lon="-5.02615880966186">
        <ele>1438.37634277344</ele>
        <time>2018-07-28T08:30:43Z</time>
      </trkpt>
      <trkpt lat="36.7025718688965" lon="-5.02615880966186">
        <ele>1438.37634277344</ele>
        <time>2018-07-28T08:30:44Z</time>
      </trkpt>
      <trkpt lat="36.7025756835938" lon="-5.02615880966186">
        <ele>1438.23205566406</ele>
        <time>2018-07-28T08:30:45Z</time>
      </trkpt>
      <trkpt lat="36.7025756835938" lon="-5.02616405487061">
        <ele>1438.16394042969</ele>
        <time>2018-07-28T08:30:46Z</time>
      </trkpt>
      <trkpt lat="36.7025756835938" lon="-5.0261721611023">
        <ele>1438.05871582031</ele>
        <time>2018-07-28T08:30:47Z</time>
      </trkpt>
      <trkpt lat="36.7025756835938" lon="-5.0261812210083">
        <ele>1437.94116210938</ele>
        <time>2018-07-28T08:30:48Z</time>
      </trkpt>
      <trkpt lat="36.702579498291" lon="-5.02619123458862">
        <ele>1437.66528320312</ele>
        <time>2018-07-28T08:30:49Z</time>
      </trkpt>
      <trkpt lat="36.702579498291" lon="-5.02619981765747">
        <ele>1437.55346679688</ele>
        <time>2018-07-28T08:30:50Z</time>
      </trkpt>
      <trkpt lat="36.702579498291" lon="-5.02620792388916">
        <ele>1437.44787597656</ele>
        <time>2018-07-28T08:30:51Z</time>
      </trkpt>
      <trkpt lat="36.7025756835938" lon="-5.02621603012085">
        <ele>1437.4892578125</ele>
        <time>2018-07-28T08:30:52Z</time>
      </trkpt>
      <trkpt lat="36.7025756835938" lon="-5.02622222900391">
        <ele>1437.40881347656</ele>
        <time>2018-07-28T08:30:53Z</time>
      </trkpt>
      <trkpt lat="36.7025718688965" lon="-5.02622604370117">
        <ele>1437.50695800781</ele>
        <time>2018-07-28T08:30:54Z</time>
      </trkpt>
      <trkpt lat="36.7025718688965" lon="-5.02622985839844">
        <ele>1437.45751953125</ele>
        <time>2018-07-28T08:30:55Z</time>
      </trkpt>
      <trkpt lat="36.7025680541992" lon="-5.02623319625854">
        <ele>1437.56237792969</ele>
        <time>2018-07-28T08:30:56Z</time>
      </trkpt>
      <trkpt lat="36.702564239502" lon="-5.02623605728149">
        <ele>1437.67358398438</ele>
        <time>2018-07-28T08:30:57Z</time>
      </trkpt>
      <trkpt lat="36.702564239502" lon="-5.02623891830444">
        <ele>1437.63684082031</ele>
        <time>2018-07-28T08:30:58Z</time>
      </trkpt>
      <trkpt lat="36.7025718688965" lon="-5.0262451171875">
        <ele>1437.26025390625</ele>
        <time>2018-07-28T08:30:59Z</time>
      </trkpt>
      <trkpt lat="36.702579498291" lon="-5.02625322341919">
        <ele>1436.85754394531</ele>
        <time>2018-07-28T08:31:00Z</time>
      </trkpt>
      <trkpt lat="36.7025871276856" lon="-5.02626323699951">
        <ele>1436.42822265625</ele>
        <time>2018-07-28T08:31:01Z</time>
      </trkpt>
      <trkpt lat="36.7025947570801" lon="-5.02627420425415">
        <ele>1435.98425292969</ele>
        <time>2018-07-28T08:31:02Z</time>
      </trkpt>
      <trkpt lat="36.7025985717773" lon="-5.02628421783447">
        <ele>1435.70141601562</ele>
        <time>2018-07-28T08:31:03Z</time>
      </trkpt>
      <trkpt lat="36.7025985717773" lon="-5.02629518508911">
        <ele>1435.55578613281</ele>
        <time>2018-07-28T08:31:04Z</time>
      </trkpt>
      <trkpt lat="36.7026062011719" lon="-5.02630710601807">
        <ele>1435.09423828125</ele>
        <time>2018-07-28T08:31:05Z</time>
      </trkpt>
      <trkpt lat="36.7026100158691" lon="-5.02631902694702">
        <ele>1434.78259277344</ele>
        <time>2018-07-28T08:31:06Z</time>
      </trkpt>
      <trkpt lat="36.7026138305664" lon="-5.02633190155029">
        <ele>1434.45690917969</ele>
        <time>2018-07-28T08:31:07Z</time>
      </trkpt>
      <trkpt lat="36.7026100158691" lon="-5.02634191513062">
        <ele>1434.47534179688</ele>
        <time>2018-07-28T08:31:08Z</time>
      </trkpt>
      <trkpt lat="36.7026062011719" lon="-5.02635383605957">
        <ele>1434.46923828125</ele>
        <time>2018-07-28T08:31:09Z</time>
      </trkpt>
      <trkpt lat="36.7026023864746" lon="-5.02636480331421">
        <ele>1434.47692871094</ele>
        <time>2018-07-28T08:31:10Z</time>
      </trkpt>
      <trkpt lat="36.7026023864746" lon="-5.02637481689453">
        <ele>1434.34350585938</ele>
        <time>2018-07-28T08:31:11Z</time>
      </trkpt>
      <trkpt lat="36.7026062011719" lon="-5.0263729095459">
        <ele>1434.21411132812</ele>
        <time>2018-07-28T08:31:12Z</time>
      </trkpt>
      <trkpt lat="36.7026062011719" lon="-5.02637004852295">
        <ele>1434.25231933594</ele>
        <time>2018-07-28T08:31:13Z</time>
      </trkpt>
      <trkpt lat="36.7026062011719" lon="-5.0263671875">
        <ele>1434.29064941406</ele>
        <time>2018-07-28T08:31:14Z</time>
      </trkpt>
      <trkpt lat="36.7026062011719" lon="-5.02637100219727">
        <ele>1434.23962402344</ele>
        <time>2018-07-28T08:31:15Z</time>
      </trkpt>
      <trkpt lat="36.7026023864746" lon="-5.02637386322022">
        <ele>1434.35620117188</ele>
        <time>2018-07-28T08:31:16Z</time>
      </trkpt>
      <trkpt lat="36.7026023864746" lon="-5.02637720108032">
        <ele>1434.31176757812</ele>
        <time>2018-07-28T08:31:17Z</time>
      </trkpt>
      <trkpt lat="36.7026023864746" lon="-5.02638101577759">
        <ele>1434.26086425781</ele>
        <time>2018-07-28T08:31:18Z</time>
      </trkpt>
      <trkpt lat="36.7026062011719" lon="-5.02638721466064">
        <ele>1434.02270507812</ele>
        <time>2018-07-28T08:31:19Z</time>
      </trkpt>
      <trkpt lat="36.7026100158691" lon="-5.02639293670654">
        <ele>1433.79028320312</ele>
        <time>2018-07-28T08:31:20Z</time>
      </trkpt>
      <trkpt lat="36.7026138305664" lon="-5.0263991355896">
        <ele>1433.55102539062</ele>
        <time>2018-07-28T08:31:21Z</time>
      </trkpt>
      <trkpt lat="36.7026176452637" lon="-5.02640581130981">
        <ele>1433.30456542969</ele>
        <time>2018-07-28T08:31:22Z</time>
      </trkpt>
      <trkpt lat="36.7026252746582" lon="-5.02641487121582">
        <ele>1432.8681640625</ele>
        <time>2018-07-28T08:31:23Z</time>
      </trkpt>
      <trkpt lat="36.70263671875" lon="-5.02642583847046">
        <ele>1432.24633789062</ele>
        <time>2018-07-28T08:31:24Z</time>
      </trkpt>
      <trkpt lat="36.7026443481445" lon="-5.0264368057251">
        <ele>1431.779296875</ele>
        <time>2018-07-28T08:31:25Z</time>
      </trkpt>
      <trkpt lat="36.7026557922363" lon="-5.02645015716553">
        <ele>1431.11804199219</ele>
        <time>2018-07-28T08:31:26Z</time>
      </trkpt>
      <trkpt lat="36.7026672363281" lon="-5.02646017074585">
        <ele>1430.50024414062</ele>
        <time>2018-07-28T08:31:27Z</time>
      </trkpt>
      <trkpt lat="36.7026786804199" lon="-5.02646684646606">
        <ele>1429.92712402344</ele>
        <time>2018-07-28T08:31:28Z</time>
      </trkpt>
      <trkpt lat="36.7026863098144" lon="-5.02647113800049">
        <ele>1429.54626464844</ele>
        <time>2018-07-28T08:31:29Z</time>
      </trkpt>
      <trkpt lat="36.7026977539062" lon="-5.02647590637207">
        <ele>1428.99780273438</ele>
        <time>2018-07-28T08:31:30Z</time>
      </trkpt>
      <trkpt lat="36.7027053833008" lon="-5.02648019790649">
        <ele>1428.61499023438</ele>
        <time>2018-07-28T08:31:31Z</time>
      </trkpt>
      <trkpt lat="36.7027168273926" lon="-5.02648782730103">
        <ele>1428.021484375</ele>
        <time>2018-07-28T08:31:32Z</time>
      </trkpt>
      <trkpt lat="36.7027282714844" lon="-5.02649688720703">
        <ele>1427.40441894531</ele>
        <time>2018-07-28T08:31:33Z</time>
      </trkpt>
      <trkpt lat="36.7027397155762" lon="-5.02650594711304">
        <ele>1426.78454589844</ele>
        <time>2018-07-28T08:31:34Z</time>
      </trkpt>
      <trkpt lat="36.7027473449707" lon="-5.02651309967041">
        <ele>1426.35290527344</ele>
        <time>2018-07-28T08:31:35Z</time>
      </trkpt>
      <trkpt lat="36.7027587890625" lon="-5.02652215957642">
        <ele>1425.728515625</ele>
        <time>2018-07-28T08:31:36Z</time>
      </trkpt>
      <trkpt lat="36.702766418457" lon="-5.02653217315674">
        <ele>1425.24926757812</ele>
        <time>2018-07-28T08:31:37Z</time>
      </trkpt>
      <trkpt lat="36.7027740478516" lon="-5.02654123306274">
        <ele>1424.78295898438</ele>
        <time>2018-07-28T08:31:38Z</time>
      </trkpt>
      <trkpt lat="36.7027816772461" lon="-5.02654790878296">
        <ele>1424.35217285156</ele>
        <time>2018-07-28T08:31:39Z</time>
      </trkpt>
      <trkpt lat="36.7027854919434" lon="-5.02655410766602">
        <ele>1424.09130859375</ele>
        <time>2018-07-28T08:31:40Z</time>
      </trkpt>
      <trkpt lat="36.7027893066406" lon="-5.02655792236328">
        <ele>1423.86743164062</ele>
        <time>2018-07-28T08:31:41Z</time>
      </trkpt>
      <trkpt lat="36.7027893066406" lon="-5.02655982971191">
        <ele>1423.83740234375</ele>
        <time>2018-07-28T08:31:42Z</time>
      </trkpt>
      <trkpt lat="36.7027893066406" lon="-5.02656078338623">
        <ele>1423.82238769531</ele>
        <time>2018-07-28T08:31:43Z</time>
      </trkpt>
      <trkpt lat="36.7027893066406" lon="-5.02656316757202">
        <ele>1423.78479003906</ele>
        <time>2018-07-28T08:31:44Z</time>
      </trkpt>
      <trkpt lat="36.7027931213379" lon="-5.02656602859497">
        <ele>1423.57543945312</ele>
        <time>2018-07-28T08:31:45Z</time>
      </trkpt>
      <trkpt lat="36.7028045654297" lon="-5.02656984329224">
        <ele>1423.02136230469</ele>
        <time>2018-07-28T08:31:46Z</time>
      </trkpt>
      <trkpt lat="36.7028121948242" lon="-5.02657508850098">
        <ele>1422.60803222656</ele>
        <time>2018-07-28T08:31:47Z</time>
      </trkpt>
      <trkpt lat="36.7028198242188" lon="-5.02657794952393">
        <ele>1422.23217773438</ele>
        <time>2018-07-28T08:31:48Z</time>
      </trkpt>
      <trkpt lat="36.7028274536133" lon="-5.02658081054688">
        <ele>1421.85571289062</ele>
        <time>2018-07-28T08:31:49Z</time>
      </trkpt>
      <trkpt lat="36.7028388977051" lon="-5.02658319473267">
        <ele>1421.32116699219</ele>
        <time>2018-07-28T08:31:50Z</time>
      </trkpt>
      <trkpt lat="36.7028465270996" lon="-5.02658605575562">
        <ele>1420.94360351562</ele>
        <time>2018-07-28T08:31:51Z</time>
      </trkpt>
      <trkpt lat="36.7028541564941" lon="-5.0265908241272">
        <ele>1420.53369140625</ele>
        <time>2018-07-28T08:31:52Z</time>
      </trkpt>
      <trkpt lat="36.7028656005859" lon="-5.0265941619873">
        <ele>1419.98095703125</ele>
        <time>2018-07-28T08:31:53Z</time>
      </trkpt>
      <trkpt lat="36.702880859375" lon="-5.02659797668457">
        <ele>1419.25317382812</ele>
        <time>2018-07-28T08:31:54Z</time>
      </trkpt>
      <trkpt lat="36.7028884887695" lon="-5.02660179138184">
        <ele>1418.85620117188</ele>
        <time>2018-07-28T08:31:55Z</time>
      </trkpt>
      <trkpt lat="36.7028999328613" lon="-5.02660799026489">
        <ele>1418.25122070312</ele>
        <time>2018-07-28T08:31:56Z</time>
      </trkpt>
      <trkpt lat="36.7029113769531" lon="-5.02661323547363">
        <ele>1417.66088867188</ele>
        <time>2018-07-28T08:31:57Z</time>
      </trkpt>
      <trkpt lat="36.7029228210449" lon="-5.02661514282227">
        <ele>1417.12731933594</ele>
        <time>2018-07-28T08:31:58Z</time>
      </trkpt>
      <trkpt lat="36.7029304504394" lon="-5.02661800384522">
        <ele>1416.74340820312</ele>
        <time>2018-07-28T08:31:59Z</time>
      </trkpt>
      <trkpt lat="36.702938079834" lon="-5.0266170501709">
        <ele>1416.42639160156</ele>
        <time>2018-07-28T08:32:00Z</time>
      </trkpt>
      <trkpt lat="36.7029457092285" lon="-5.02661800384522">
        <ele>1416.07556152344</ele>
        <time>2018-07-28T08:32:01Z</time>
      </trkpt>
      <trkpt lat="36.702953338623" lon="-5.02661800384522">
        <ele>1415.74157714844</ele>
        <time>2018-07-28T08:32:02Z</time>
      </trkpt>
      <trkpt lat="36.702953338623" lon="-5.02661991119385">
        <ele>1415.70751953125</ele>
        <time>2018-07-28T08:32:03Z</time>
      </trkpt>
      <trkpt lat="36.702953338623" lon="-5.02661991119385">
        <ele>1415.70751953125</ele>
        <time>2018-07-28T08:32:04Z</time>
      </trkpt>
      <trkpt lat="36.7029571533203" lon="-5.02661991119385">
        <ele>1415.54052734375</ele>
        <time>2018-07-28T08:32:05Z</time>
      </trkpt>
      <trkpt lat="36.7029571533203" lon="-5.02661991119385">
        <ele>1415.54052734375</ele>
        <time>2018-07-28T08:32:06Z</time>
      </trkpt>
      <trkpt lat="36.7029609680176" lon="-5.02662086486816">
        <ele>1415.35632324219</ele>
        <time>2018-07-28T08:32:07Z</time>
      </trkpt>
      <trkpt lat="36.7029685974121" lon="-5.02662181854248">
        <ele>1415.00476074219</ele>
        <time>2018-07-28T08:32:08Z</time>
      </trkpt>
      <trkpt lat="36.7029724121094" lon="-5.02662086486816">
        <ele>1414.85498046875</ele>
        <time>2018-07-28T08:32:09Z</time>
      </trkpt>
      <trkpt lat="36.7029724121094" lon="-5.02661991119385">
        <ele>1414.87219238281</ele>
        <time>2018-07-28T08:32:10Z</time>
      </trkpt>
      <trkpt lat="36.7029724121094" lon="-5.02662181854248">
        <ele>1414.83764648438</ele>
        <time>2018-07-28T08:32:11Z</time>
      </trkpt>
      <trkpt lat="36.7029685974121" lon="-5.02662515640259">
        <ele>1414.94445800781</ele>
        <time>2018-07-28T08:32:12Z</time>
      </trkpt>
      <trkpt lat="36.7029685974121" lon="-5.02662706375122">
        <ele>1414.91003417969</ele>
        <time>2018-07-28T08:32:13Z</time>
      </trkpt>
      <trkpt lat="36.7029685974121" lon="-5.02662897109985">
        <ele>1414.87548828125</ele>
        <time>2018-07-28T08:32:14Z</time>
      </trkpt>
      <trkpt lat="36.7029685974121" lon="-5.02662992477417">
        <ele>1414.85827636719</ele>
        <time>2018-07-28T08:32:15Z</time>
      </trkpt>
      <trkpt lat="36.7029724121094" lon="-5.0266318321228">
        <ele>1414.65625</ele>
        <time>2018-07-28T08:32:16Z</time>
      </trkpt>
      <trkpt lat="36.7029724121094" lon="-5.02663278579712">
        <ele>1414.63891601562</ele>
        <time>2018-07-28T08:32:17Z</time>
      </trkpt>
      <trkpt lat="36.7029762268066" lon="-5.02663516998291">
        <ele>1414.42785644531</ele>
        <time>2018-07-28T08:32:18Z</time>
      </trkpt>
      <trkpt lat="36.7029762268066" lon="-5.02663803100586">
        <ele>1414.37585449219</ele>
        <time>2018-07-28T08:32:19Z</time>
      </trkpt>
      <trkpt lat="36.7029762268066" lon="-5.02663993835449">
        <ele>1414.34118652344</ele>
        <time>2018-07-28T08:32:20Z</time>
      </trkpt>
      <trkpt lat="36.7029762268066" lon="-5.02664089202881">
        <ele>1414.32385253906</ele>
        <time>2018-07-28T08:32:21Z</time>
      </trkpt>
      <trkpt lat="36.7029762268066" lon="-5.02664089202881">
        <ele>1414.32385253906</ele>
        <time>2018-07-28T08:32:22Z</time>
      </trkpt>
      <trkpt lat="36.7029724121094" lon="-5.02664089202881">
        <ele>1414.49194335938</ele>
        <time>2018-07-28T08:32:23Z</time>
      </trkpt>
      <trkpt lat="36.7029724121094" lon="-5.02664089202881">
        <ele>1414.49194335938</ele>
        <time>2018-07-28T08:32:24Z</time>
      </trkpt>
      <trkpt lat="36.7029724121094" lon="-5.02663803100586">
        <ele>1414.54382324219</ele>
        <time>2018-07-28T08:32:25Z</time>
      </trkpt>
      <trkpt lat="36.7029762268066" lon="-5.02663421630859">
        <ele>1414.44519042969</ele>
        <time>2018-07-28T08:32:26Z</time>
      </trkpt>
      <trkpt lat="36.7029762268066" lon="-5.02662897109985">
        <ele>1414.54052734375</ele>
        <time>2018-07-28T08:32:27Z</time>
      </trkpt>
      <trkpt lat="36.7029762268066" lon="-5.0266261100769">
        <ele>1414.59252929688</ele>
        <time>2018-07-28T08:32:28Z</time>
      </trkpt>
      <trkpt lat="36.7029800415039" lon="-5.0266261100769">
        <ele>1414.42517089844</ele>
        <time>2018-07-28T08:32:29Z</time>
      </trkpt>
      <trkpt lat="36.7029800415039" lon="-5.0266261100769">
        <ele>1414.42517089844</ele>
        <time>2018-07-28T08:32:30Z</time>
      </trkpt>
      <trkpt lat="36.7029800415039" lon="-5.02662515640259">
        <ele>1414.44250488281</ele>
        <time>2018-07-28T08:32:31Z</time>
      </trkpt>
      <trkpt lat="36.7029800415039" lon="-5.02662420272827">
        <ele>1414.4599609375</ele>
        <time>2018-07-28T08:32:32Z</time>
      </trkpt>
      <trkpt lat="36.7029800415039" lon="-5.0266227722168">
        <ele>1414.48596191406</ele>
        <time>2018-07-28T08:32:33Z</time>
      </trkpt>
      <trkpt lat="36.7029800415039" lon="-5.02662181854248">
        <ele>1414.50329589844</ele>
        <time>2018-07-28T08:32:34Z</time>
      </trkpt>
      <trkpt lat="36.7029800415039" lon="-5.02662181854248">
        <ele>1414.50329589844</ele>
        <time>2018-07-28T08:32:35Z</time>
      </trkpt>
      <trkpt lat="36.7029800415039" lon="-5.0266227722168">
        <ele>1414.48596191406</ele>
        <time>2018-07-28T08:32:36Z</time>
      </trkpt>
      <trkpt lat="36.7029838562012" lon="-5.0266227722168">
        <ele>1414.31872558594</ele>
        <time>2018-07-28T08:32:37Z</time>
      </trkpt>
      <trkpt lat="36.7029838562012" lon="-5.0266227722168">
        <ele>1414.31872558594</ele>
        <time>2018-07-28T08:32:38Z</time>
      </trkpt>
      <trkpt lat="36.7029838562012" lon="-5.02662181854248">
        <ele>1414.33618164062</ele>
        <time>2018-07-28T08:32:39Z</time>
      </trkpt>
      <trkpt lat="36.7029838562012" lon="-5.02662181854248">
        <ele>1414.33618164062</ele>
        <time>2018-07-28T08:32:40Z</time>
      </trkpt>
      <trkpt lat="36.7029838562012" lon="-5.02662181854248">
        <ele>1414.33618164062</ele>
        <time>2018-07-28T08:32:41Z</time>
      </trkpt>
      <trkpt lat="36.7029838562012" lon="-5.02662181854248">
        <ele>1414.33618164062</ele>
        <time>2018-07-28T08:32:42Z</time>
      </trkpt>
      <trkpt lat="36.7029838562012" lon="-5.02662086486816">
        <ele>1414.35363769531</ele>
        <time>2018-07-28T08:32:43Z</time>
      </trkpt>
      <trkpt lat="36.7029838562012" lon="-5.02662181854248">
        <ele>1414.33618164062</ele>
        <time>2018-07-28T08:32:44Z</time>
      </trkpt>
      <trkpt lat="36.7029838562012" lon="-5.02662420272827">
        <ele>1414.29260253906</ele>
        <time>2018-07-28T08:32:45Z</time>
      </trkpt>
      <trkpt lat="36.7029838562012" lon="-5.02662420272827">
        <ele>1414.29260253906</ele>
        <time>2018-07-28T08:32:46Z</time>
      </trkpt>
      <trkpt lat="36.7029876708984" lon="-5.02662181854248">
        <ele>1414.16906738281</ele>
        <time>2018-07-28T08:32:47Z</time>
      </trkpt>
      <trkpt lat="36.7029876708984" lon="-5.02661800384522">
        <ele>1414.23889160156</ele>
        <time>2018-07-28T08:32:48Z</time>
      </trkpt>
      <trkpt lat="36.7029876708984" lon="-5.02661609649658">
        <ele>1414.27392578125</ele>
        <time>2018-07-28T08:32:49Z</time>
      </trkpt>
      <trkpt lat="36.7029876708984" lon="-5.02661609649658">
        <ele>1414.27392578125</ele>
        <time>2018-07-28T08:32:50Z</time>
      </trkpt>
      <trkpt lat="36.7029876708984" lon="-5.0266170501709">
        <ele>1414.25634765625</ele>
        <time>2018-07-28T08:32:51Z</time>
      </trkpt>
      <trkpt lat="36.7029876708984" lon="-5.02661800384522">
        <ele>1414.23889160156</ele>
        <time>2018-07-28T08:32:52Z</time>
      </trkpt>
      <trkpt lat="36.7029876708984" lon="-5.02661895751953">
        <ele>1414.22143554688</ele>
        <time>2018-07-28T08:32:53Z</time>
      </trkpt>
      <trkpt lat="36.7029876708984" lon="-5.02661895751953">
        <ele>1414.22143554688</ele>
        <time>2018-07-28T08:32:54Z</time>
      </trkpt>
      <trkpt lat="36.7029876708984" lon="-5.02661991119385">
        <ele>1414.20397949219</ele>
        <time>2018-07-28T08:32:55Z</time>
      </trkpt>
      <trkpt lat="36.7029876708984" lon="-5.02661991119385">
        <ele>1414.20397949219</ele>
        <time>2018-07-28T08:32:56Z</time>
      </trkpt>
      <trkpt lat="36.7029876708984" lon="-5.02661991119385">
        <ele>1414.20397949219</ele>
        <time>2018-07-28T08:32:57Z</time>
      </trkpt>
      <trkpt lat="36.7029876708984" lon="-5.02662086486816">
        <ele>1414.1865234375</ele>
        <time>2018-07-28T08:32:58Z</time>
      </trkpt>
      <trkpt lat="36.7029876708984" lon="-5.02662181854248">
        <ele>1414.16906738281</ele>
        <time>2018-07-28T08:32:59Z</time>
      </trkpt>
      <trkpt lat="36.7029876708984" lon="-5.02662181854248">
        <ele>1414.16906738281</ele>
        <time>2018-07-28T08:33:00Z</time>
      </trkpt>
      <trkpt lat="36.7029876708984" lon="-5.02662181854248">
        <ele>1414.16906738281</ele>
        <time>2018-07-28T08:33:01Z</time>
      </trkpt>
      <trkpt lat="36.7029876708984" lon="-5.02662181854248">
        <ele>1414.16906738281</ele>
        <time>2018-07-28T08:33:02Z</time>
      </trkpt>
      <trkpt lat="36.7029876708984" lon="-5.02662181854248">
        <ele>1414.16906738281</ele>
        <time>2018-07-28T08:33:03Z</time>
      </trkpt>
      <trkpt lat="36.7029876708984" lon="-5.0266227722168">
        <ele>1414.15161132812</ele>
        <time>2018-07-28T08:33:04Z</time>
      </trkpt>
      <trkpt lat="36.7029876708984" lon="-5.0266227722168">
        <ele>1414.15161132812</ele>
        <time>2018-07-28T08:33:05Z</time>
      </trkpt>
      <trkpt lat="36.7029876708984" lon="-5.0266227722168">
        <ele>1414.15161132812</ele>
        <time>2018-07-28T08:33:06Z</time>
      </trkpt>
      <trkpt lat="36.7029876708984" lon="-5.02662420272827">
        <ele>1414.12536621094</ele>
        <time>2018-07-28T08:33:07Z</time>
      </trkpt>
      <trkpt lat="36.7029876708984" lon="-5.0266261100769">
        <ele>1414.09045410156</ele>
        <time>2018-07-28T08:33:08Z</time>
      </trkpt>
      <trkpt lat="36.7029914855957" lon="-5.02662706375122">
        <ele>1413.90551757812</ele>
        <time>2018-07-28T08:33:09Z</time>
      </trkpt>
      <trkpt lat="36.7029876708984" lon="-5.02662897109985">
        <ele>1414.03796386719</ele>
        <time>2018-07-28T08:33:10Z</time>
      </trkpt>
      <trkpt lat="36.7029876708984" lon="-5.02663087844849">
        <ele>1414.00305175781</ele>
        <time>2018-07-28T08:33:11Z</time>
      </trkpt>
      <trkpt lat="36.7029876708984" lon="-5.0266318321228">
        <ele>1413.98559570312</ele>
        <time>2018-07-28T08:33:12Z</time>
      </trkpt>
      <trkpt lat="36.7029876708984" lon="-5.02663087844849">
        <ele>1414.00305175781</ele>
        <time>2018-07-28T08:33:13Z</time>
      </trkpt>
      <trkpt lat="36.7029838562012" lon="-5.02663087844849">
        <ele>1414.17065429688</ele>
        <time>2018-07-28T08:33:14Z</time>
      </trkpt>
      <trkpt lat="36.7029838562012" lon="-5.02663087844849">
        <ele>1414.17065429688</ele>
        <time>2018-07-28T08:33:15Z</time>
      </trkpt>
      <trkpt lat="36.7029838562012" lon="-5.02663087844849">
        <ele>1414.17065429688</ele>
        <time>2018-07-28T08:33:16Z</time>
      </trkpt>
      <trkpt lat="36.7029838562012" lon="-5.02663087844849">
        <ele>1414.17065429688</ele>
        <time>2018-07-28T08:33:17Z</time>
      </trkpt>
      <trkpt lat="36.7029800415039" lon="-5.02662992477417">
        <ele>1414.35559082031</ele>
        <time>2018-07-28T08:33:18Z</time>
      </trkpt>
      <trkpt lat="36.7029800415039" lon="-5.02662992477417">
        <ele>1414.35559082031</ele>
        <time>2018-07-28T08:33:19Z</time>
      </trkpt>
      <trkpt lat="36.7029800415039" lon="-5.02662897109985">
        <ele>1414.373046875</ele>
        <time>2018-07-28T08:33:20Z</time>
      </trkpt>
      <trkpt lat="36.7029838562012" lon="-5.02662706375122">
        <ele>1414.24035644531</ele>
        <time>2018-07-28T08:33:21Z</time>
      </trkpt>
      <trkpt lat="36.7029838562012" lon="-5.0266261100769">
        <ele>1414.2578125</ele>
        <time>2018-07-28T08:33:22Z</time>
      </trkpt>
      <trkpt lat="36.7029876708984" lon="-5.02662515640259">
        <ele>1414.10791015625</ele>
        <time>2018-07-28T08:33:23Z</time>
      </trkpt>
      <trkpt lat="36.7029876708984" lon="-5.02662420272827">
        <ele>1414.12536621094</ele>
        <time>2018-07-28T08:33:24Z</time>
      </trkpt>
      <trkpt lat="36.7029876708984" lon="-5.02662420272827">
        <ele>1414.12536621094</ele>
        <time>2018-07-28T08:33:25Z</time>
      </trkpt>
      <trkpt lat="36.7029876708984" lon="-5.0266227722168">
        <ele>1414.15161132812</ele>
        <time>2018-07-28T08:33:26Z</time>
      </trkpt>
      <trkpt lat="36.7029876708984" lon="-5.0266227722168">
        <ele>1414.15161132812</ele>
        <time>2018-07-28T08:33:27Z</time>
      </trkpt>
      <trkpt lat="36.7029914855957" lon="-5.0266227722168">
        <ele>1413.984375</ele>
        <time>2018-07-28T08:33:28Z</time>
      </trkpt>
      <trkpt lat="36.7029876708984" lon="-5.0266227722168">
        <ele>1414.15161132812</ele>
        <time>2018-07-28T08:33:29Z</time>
      </trkpt>
      <trkpt lat="36.7029876708984" lon="-5.0266227722168">
        <ele>1414.15161132812</ele>
        <time>2018-07-28T08:33:30Z</time>
      </trkpt>
      <trkpt lat="36.7029876708984" lon="-5.0266227722168">
        <ele>1414.15161132812</ele>
        <time>2018-07-28T08:33:31Z</time>
      </trkpt>
      <trkpt lat="36.7029876708984" lon="-5.0266227722168">
        <ele>1414.15161132812</ele>
        <time>2018-07-28T08:33:32Z</time>
      </trkpt>
      <trkpt lat="36.7029876708984" lon="-5.0266227722168">
        <ele>1414.15161132812</ele>
        <time>2018-07-28T08:33:33Z</time>
      </trkpt>
      <trkpt lat="36.7029876708984" lon="-5.0266227722168">
        <ele>1414.15161132812</ele>
        <time>2018-07-28T08:33:34Z</time>
      </trkpt>
      <trkpt lat="36.7029876708984" lon="-5.0266227722168">
        <ele>1414.15161132812</ele>
        <time>2018-07-28T08:33:35Z</time>
      </trkpt>
      <trkpt lat="36.7029876708984" lon="-5.02662420272827">
        <ele>1414.12536621094</ele>
        <time>2018-07-28T08:33:36Z</time>
      </trkpt>
      <trkpt lat="36.7029876708984" lon="-5.0266227722168">
        <ele>1414.15161132812</ele>
        <time>2018-07-28T08:33:37Z</time>
      </trkpt>
      <trkpt lat="36.7029876708984" lon="-5.0266227722168">
        <ele>1414.15161132812</ele>
        <time>2018-07-28T08:33:38Z</time>
      </trkpt>
      <trkpt lat="36.7029914855957" lon="-5.02662181854248">
        <ele>1414.00183105469</ele>
        <time>2018-07-28T08:33:39Z</time>
      </trkpt>
      <trkpt lat="36.7029914855957" lon="-5.02662181854248">
        <ele>1414.00183105469</ele>
        <time>2018-07-28T08:33:40Z</time>
      </trkpt>
      <trkpt lat="36.7029914855957" lon="-5.02662086486816">
        <ele>1414.01940917969</ele>
        <time>2018-07-28T08:33:41Z</time>
      </trkpt>
      <trkpt lat="36.7029914855957" lon="-5.02661991119385">
        <ele>1414.03686523438</ele>
        <time>2018-07-28T08:33:42Z</time>
      </trkpt>
      <trkpt lat="36.7029914855957" lon="-5.02662086486816">
        <ele>1414.01940917969</ele>
        <time>2018-07-28T08:33:43Z</time>
      </trkpt>
      <trkpt lat="36.7029914855957" lon="-5.02662181854248">
        <ele>1414.00183105469</ele>
        <time>2018-07-28T08:33:44Z</time>
      </trkpt>
      <trkpt lat="36.702995300293" lon="-5.0266227722168">
        <ele>1413.81713867188</ele>
        <time>2018-07-28T08:33:45Z</time>
      </trkpt>
      <trkpt lat="36.702995300293" lon="-5.02662181854248">
        <ele>1413.83471679688</ele>
        <time>2018-07-28T08:33:46Z</time>
      </trkpt>
      <trkpt lat="36.7029914855957" lon="-5.02662086486816">
        <ele>1414.01940917969</ele>
        <time>2018-07-28T08:33:47Z</time>
      </trkpt>
      <trkpt lat="36.7029914855957" lon="-5.02662086486816">
        <ele>1414.01940917969</ele>
        <time>2018-07-28T08:33:48Z</time>
      </trkpt>
      <trkpt lat="36.7029914855957" lon="-5.02662181854248">
        <ele>1414.00183105469</ele>
        <time>2018-07-28T08:33:49Z</time>
      </trkpt>
      <trkpt lat="36.7029914855957" lon="-5.02662181854248">
        <ele>1414.00183105469</ele>
        <time>2018-07-28T08:33:50Z</time>
      </trkpt>
      <trkpt lat="36.7029914855957" lon="-5.02662181854248">
        <ele>1414.00183105469</ele>
        <time>2018-07-28T08:33:51Z</time>
      </trkpt>
      <trkpt lat="36.7029914855957" lon="-5.02662181854248">
        <ele>1414.00183105469</ele>
        <time>2018-07-28T08:33:52Z</time>
      </trkpt>
      <trkpt lat="36.7029914855957" lon="-5.02662181854248">
        <ele>1414.00183105469</ele>
        <time>2018-07-28T08:33:53Z</time>
      </trkpt>
      <trkpt lat="36.7029914855957" lon="-5.02662181854248">
        <ele>1414.00183105469</ele>
        <time>2018-07-28T08:33:54Z</time>
      </trkpt>
      <trkpt lat="36.7029914855957" lon="-5.02662086486816">
        <ele>1414.01940917969</ele>
        <time>2018-07-28T08:33:55Z</time>
      </trkpt>
      <trkpt lat="36.7029914855957" lon="-5.02661991119385">
        <ele>1414.03686523438</ele>
        <time>2018-07-28T08:33:56Z</time>
      </trkpt>
      <trkpt lat="36.7029876708984" lon="-5.02661991119385">
        <ele>1414.20397949219</ele>
        <time>2018-07-28T08:33:57Z</time>
      </trkpt>
      <trkpt lat="36.7029876708984" lon="-5.02661895751953">
        <ele>1414.22143554688</ele>
        <time>2018-07-28T08:33:58Z</time>
      </trkpt>
      <trkpt lat="36.7029838562012" lon="-5.02661609649658">
        <ele>1414.44079589844</ele>
        <time>2018-07-28T08:33:59Z</time>
      </trkpt>
      <trkpt lat="36.7029800415039" lon="-5.02661180496216">
        <ele>1414.68579101562</ele>
        <time>2018-07-28T08:34:00Z</time>
      </trkpt>
      <trkpt lat="36.7029800415039" lon="-5.02660989761353">
        <ele>1414.72058105469</ele>
        <time>2018-07-28T08:34:01Z</time>
      </trkpt>
      <trkpt lat="36.7029800415039" lon="-5.02660894393921">
        <ele>1414.73791503906</ele>
        <time>2018-07-28T08:34:02Z</time>
      </trkpt>
      <trkpt lat="36.7029800415039" lon="-5.02660894393921">
        <ele>1414.73791503906</ele>
        <time>2018-07-28T08:34:03Z</time>
      </trkpt>
      <trkpt lat="36.7029762268066" lon="-5.02660799026489">
        <ele>1414.92175292969</ele>
        <time>2018-07-28T08:34:04Z</time>
      </trkpt>
      <trkpt lat="36.7029762268066" lon="-5.02660799026489">
        <ele>1414.92175292969</ele>
        <time>2018-07-28T08:34:05Z</time>
      </trkpt>
      <trkpt lat="36.7029762268066" lon="-5.02660799026489">
        <ele>1414.92175292969</ele>
        <time>2018-07-28T08:34:06Z</time>
      </trkpt>
      <trkpt lat="36.7029762268066" lon="-5.02660799026489">
        <ele>1414.92175292969</ele>
        <time>2018-07-28T08:34:07Z</time>
      </trkpt>
      <trkpt lat="36.7029724121094" lon="-5.02660799026489">
        <ele>1415.08825683594</ele>
        <time>2018-07-28T08:34:08Z</time>
      </trkpt>
      <trkpt lat="36.7029724121094" lon="-5.02660894393921">
        <ele>1415.07092285156</ele>
        <time>2018-07-28T08:34:09Z</time>
      </trkpt>
      <trkpt lat="36.7029724121094" lon="-5.02660989761353">
        <ele>1415.0537109375</ele>
        <time>2018-07-28T08:34:10Z</time>
      </trkpt>
      <trkpt lat="36.7029724121094" lon="-5.02661085128784">
        <ele>1415.03637695312</ele>
        <time>2018-07-28T08:34:11Z</time>
      </trkpt>
      <trkpt lat="36.7029724121094" lon="-5.02661180496216">
        <ele>1415.01916503906</ele>
        <time>2018-07-28T08:34:12Z</time>
      </trkpt>
      <trkpt lat="36.7029724121094" lon="-5.02661323547363">
        <ele>1414.9931640625</ele>
        <time>2018-07-28T08:34:13Z</time>
      </trkpt>
      <trkpt lat="36.7029724121094" lon="-5.02661418914795">
        <ele>1414.97595214844</ele>
        <time>2018-07-28T08:34:14Z</time>
      </trkpt>
      <trkpt lat="36.7029762268066" lon="-5.02661514282227">
        <ele>1414.79187011719</ele>
        <time>2018-07-28T08:34:15Z</time>
      </trkpt>
      <trkpt lat="36.7029762268066" lon="-5.02661609649658">
        <ele>1414.77453613281</ele>
        <time>2018-07-28T08:34:16Z</time>
      </trkpt>
      <trkpt lat="36.7029762268066" lon="-5.0266170501709">
        <ele>1414.75720214844</ele>
        <time>2018-07-28T08:34:17Z</time>
      </trkpt>
      <trkpt lat="36.7029762268066" lon="-5.02661800384522">
        <ele>1414.73986816406</ele>
        <time>2018-07-28T08:34:18Z</time>
      </trkpt>
      <trkpt lat="36.7029762268066" lon="-5.02661800384522">
        <ele>1414.73986816406</ele>
        <time>2018-07-28T08:34:19Z</time>
      </trkpt>
      <trkpt lat="36.7029762268066" lon="-5.02661895751953">
        <ele>1414.72253417969</ele>
        <time>2018-07-28T08:34:20Z</time>
      </trkpt>
      <trkpt lat="36.7029762268066" lon="-5.02661895751953">
        <ele>1414.72253417969</ele>
        <time>2018-07-28T08:34:21Z</time>
      </trkpt>
      <trkpt lat="36.7029724121094" lon="-5.02661991119385">
        <ele>1414.87219238281</ele>
        <time>2018-07-28T08:34:22Z</time>
      </trkpt>
      <trkpt lat="36.7029724121094" lon="-5.02661991119385">
        <ele>1414.87219238281</ele>
        <time>2018-07-28T08:34:23Z</time>
      </trkpt>
      <trkpt lat="36.7029762268066" lon="-5.02661991119385">
        <ele>1414.70520019531</ele>
        <time>2018-07-28T08:34:24Z</time>
      </trkpt>
      <trkpt lat="36.7029762268066" lon="-5.02661991119385">
        <ele>1414.70520019531</ele>
        <time>2018-07-28T08:34:25Z</time>
      </trkpt>
      <trkpt lat="36.7029800415039" lon="-5.02661991119385">
        <ele>1414.5380859375</ele>
        <time>2018-07-28T08:34:26Z</time>
      </trkpt>
      <trkpt lat="36.7029838562012" lon="-5.02662086486816">
        <ele>1414.35363769531</ele>
        <time>2018-07-28T08:34:27Z</time>
      </trkpt>
      <trkpt lat="36.7029838562012" lon="-5.02662086486816">
        <ele>1414.35363769531</ele>
        <time>2018-07-28T08:34:28Z</time>
      </trkpt>
      <trkpt lat="36.7029838562012" lon="-5.02662086486816">
        <ele>1414.35363769531</ele>
        <time>2018-07-28T08:34:29Z</time>
      </trkpt>
      <trkpt lat="36.7029800415039" lon="-5.02661991119385">
        <ele>1414.5380859375</ele>
        <time>2018-07-28T08:34:30Z</time>
      </trkpt>
      <trkpt lat="36.7029800415039" lon="-5.02661991119385">
        <ele>1414.5380859375</ele>
        <time>2018-07-28T08:34:31Z</time>
      </trkpt>
      <trkpt lat="36.7029800415039" lon="-5.02661895751953">
        <ele>1414.55554199219</ele>
        <time>2018-07-28T08:34:32Z</time>
      </trkpt>
      <trkpt lat="36.7029800415039" lon="-5.02661800384522">
        <ele>1414.57287597656</ele>
        <time>2018-07-28T08:34:33Z</time>
      </trkpt>
      <trkpt lat="36.7029800415039" lon="-5.02661800384522">
        <ele>1414.57287597656</ele>
        <time>2018-07-28T08:34:34Z</time>
      </trkpt>
      <trkpt lat="36.7029800415039" lon="-5.02661800384522">
        <ele>1414.57287597656</ele>
        <time>2018-07-28T08:34:35Z</time>
      </trkpt>
      <trkpt lat="36.7029762268066" lon="-5.02661800384522">
        <ele>1414.73986816406</ele>
        <time>2018-07-28T08:34:36Z</time>
      </trkpt>
      <trkpt lat="36.7029762268066" lon="-5.02661800384522">
        <ele>1414.73986816406</ele>
        <time>2018-07-28T08:34:37Z</time>
      </trkpt>
      <trkpt lat="36.7029762268066" lon="-5.02661514282227">
        <ele>1414.79187011719</ele>
        <time>2018-07-28T08:34:38Z</time>
      </trkpt>
      <trkpt lat="36.7029800415039" lon="-5.02661180496216">
        <ele>1414.68579101562</ele>
        <time>2018-07-28T08:34:39Z</time>
      </trkpt>
      <trkpt lat="36.7029800415039" lon="-5.02660894393921">
        <ele>1414.73791503906</ele>
        <time>2018-07-28T08:34:40Z</time>
      </trkpt>
      <trkpt lat="36.7029800415039" lon="-5.02660989761353">
        <ele>1414.72058105469</ele>
        <time>2018-07-28T08:34:41Z</time>
      </trkpt>
      <trkpt lat="36.7029800415039" lon="-5.02661085128784">
        <ele>1414.70324707031</ele>
        <time>2018-07-28T08:34:42Z</time>
      </trkpt>
      <trkpt lat="36.7029800415039" lon="-5.02661323547363">
        <ele>1414.65979003906</ele>
        <time>2018-07-28T08:34:43Z</time>
      </trkpt>
      <trkpt lat="36.7029800415039" lon="-5.02661180496216">
        <ele>1414.68579101562</ele>
        <time>2018-07-28T08:34:44Z</time>
      </trkpt>
      <trkpt lat="36.7029800415039" lon="-5.02661180496216">
        <ele>1414.68579101562</ele>
        <time>2018-07-28T08:34:45Z</time>
      </trkpt>
      <trkpt lat="36.7029838562012" lon="-5.02660989761353">
        <ele>1414.55395507812</ele>
        <time>2018-07-28T08:34:46Z</time>
      </trkpt>
      <trkpt lat="36.7029838562012" lon="-5.02660894393921">
        <ele>1414.57141113281</ele>
        <time>2018-07-28T08:34:47Z</time>
      </trkpt>
      <trkpt lat="36.7029838562012" lon="-5.02660799026489">
        <ele>1414.5888671875</ele>
        <time>2018-07-28T08:34:48Z</time>
      </trkpt>
      <trkpt lat="36.7029800415039" lon="-5.02660894393921">
        <ele>1414.73791503906</ele>
        <time>2018-07-28T08:34:49Z</time>
      </trkpt>
      <trkpt lat="36.7029800415039" lon="-5.02660989761353">
        <ele>1414.72058105469</ele>
        <time>2018-07-28T08:34:50Z</time>
      </trkpt>
      <trkpt lat="36.7029762268066" lon="-5.02660989761353">
        <ele>1414.88708496094</ele>
        <time>2018-07-28T08:34:51Z</time>
      </trkpt>
      <trkpt lat="36.7029762268066" lon="-5.02661085128784">
        <ele>1414.86975097656</ele>
        <time>2018-07-28T08:34:52Z</time>
      </trkpt>
      <trkpt lat="36.7029762268066" lon="-5.02661180496216">
        <ele>1414.85241699219</ele>
        <time>2018-07-28T08:34:53Z</time>
      </trkpt>
      <trkpt lat="36.7029762268066" lon="-5.02661418914795">
        <ele>1414.80920410156</ele>
        <time>2018-07-28T08:34:54Z</time>
      </trkpt>
      <trkpt lat="36.7029762268066" lon="-5.02661514282227">
        <ele>1414.79187011719</ele>
        <time>2018-07-28T08:34:55Z</time>
      </trkpt>
      <trkpt lat="36.7029724121094" lon="-5.02661514282227">
        <ele>1414.95861816406</ele>
        <time>2018-07-28T08:34:56Z</time>
      </trkpt>
      <trkpt lat="36.7029724121094" lon="-5.02661514282227">
        <ele>1414.95861816406</ele>
        <time>2018-07-28T08:34:57Z</time>
      </trkpt>
      <trkpt lat="36.7029685974121" lon="-5.02661514282227">
        <ele>1415.12548828125</ele>
        <time>2018-07-28T08:34:58Z</time>
      </trkpt>
      <trkpt lat="36.7029685974121" lon="-5.02661609649658">
        <ele>1415.10827636719</ele>
        <time>2018-07-28T08:34:59Z</time>
      </trkpt>
      <trkpt lat="36.7029685974121" lon="-5.02661609649658">
        <ele>1415.10827636719</ele>
        <time>2018-07-28T08:35:00Z</time>
      </trkpt>
      <trkpt lat="36.7029685974121" lon="-5.02661800384522">
        <ele>1415.07373046875</ele>
        <time>2018-07-28T08:35:01Z</time>
      </trkpt>
      <trkpt lat="36.7029685974121" lon="-5.02661991119385">
        <ele>1415.03930664062</ele>
        <time>2018-07-28T08:35:02Z</time>
      </trkpt>
      <trkpt lat="36.7029724121094" lon="-5.02662086486816">
        <ele>1414.85498046875</ele>
        <time>2018-07-28T08:35:03Z</time>
      </trkpt>
      <trkpt lat="36.7029762268066" lon="-5.02662086486816">
        <ele>1414.68786621094</ele>
        <time>2018-07-28T08:35:04Z</time>
      </trkpt>
      <trkpt lat="36.7029762268066" lon="-5.02662181854248">
        <ele>1414.67053222656</ele>
        <time>2018-07-28T08:35:05Z</time>
      </trkpt>
      <trkpt lat="36.7029724121094" lon="-5.02662420272827">
        <ele>1414.79443359375</ele>
        <time>2018-07-28T08:35:06Z</time>
      </trkpt>
      <trkpt lat="36.7029685974121" lon="-5.02662706375122">
        <ele>1414.91003417969</ele>
        <time>2018-07-28T08:35:07Z</time>
      </trkpt>
      <trkpt lat="36.7029685974121" lon="-5.02662992477417">
        <ele>1414.85827636719</ele>
        <time>2018-07-28T08:35:08Z</time>
      </trkpt>
      <trkpt lat="36.7029647827148" lon="-5.02663421630859">
        <ele>1414.94848632812</ele>
        <time>2018-07-28T08:35:09Z</time>
      </trkpt>
      <trkpt lat="36.7029647827148" lon="-5.02663803100586">
        <ele>1414.87976074219</ele>
        <time>2018-07-28T08:35:10Z</time>
      </trkpt>
      <trkpt lat="36.7029647827148" lon="-5.02664279937744">
        <ele>1414.79382324219</ele>
        <time>2018-07-28T08:35:11Z</time>
      </trkpt>
      <trkpt lat="36.7029647827148" lon="-5.02664709091186">
        <ele>1414.71643066406</ele>
        <time>2018-07-28T08:35:12Z</time>
      </trkpt>
      <trkpt lat="36.7029647827148" lon="-5.02664709091186">
        <ele>1414.71643066406</ele>
        <time>2018-07-28T08:35:13Z</time>
      </trkpt>
      <trkpt lat="36.7029647827148" lon="-5.02664089202881">
        <ele>1414.82824707031</ele>
        <time>2018-07-28T08:35:14Z</time>
      </trkpt>
      <trkpt lat="36.7029685974121" lon="-5.02663421630859">
        <ele>1414.78076171875</ele>
        <time>2018-07-28T08:35:15Z</time>
      </trkpt>
      <trkpt lat="36.7029724121094" lon="-5.02662801742554">
        <ele>1414.72534179688</ele>
        <time>2018-07-28T08:35:16Z</time>
      </trkpt>
      <trkpt lat="36.7029724121094" lon="-5.0266227722168">
        <ele>1414.82043457031</ele>
        <time>2018-07-28T08:35:17Z</time>
      </trkpt>
      <trkpt lat="36.7029724121094" lon="-5.02661991119385">
        <ele>1414.87219238281</ele>
        <time>2018-07-28T08:35:18Z</time>
      </trkpt>
      <trkpt lat="36.7029724121094" lon="-5.02661895751953">
        <ele>1414.88952636719</ele>
        <time>2018-07-28T08:35:19Z</time>
      </trkpt>
      <trkpt lat="36.7029724121094" lon="-5.02661895751953">
        <ele>1414.88952636719</ele>
        <time>2018-07-28T08:35:20Z</time>
      </trkpt>
      <trkpt lat="36.7029724121094" lon="-5.02661895751953">
        <ele>1414.88952636719</ele>
        <time>2018-07-28T08:35:21Z</time>
      </trkpt>
      <trkpt lat="36.7029724121094" lon="-5.0266170501709">
        <ele>1414.92407226562</ele>
        <time>2018-07-28T08:35:22Z</time>
      </trkpt>
      <trkpt lat="36.7029724121094" lon="-5.02661514282227">
        <ele>1414.95861816406</ele>
        <time>2018-07-28T08:35:23Z</time>
      </trkpt>
      <trkpt lat="36.7029724121094" lon="-5.02661418914795">
        <ele>1414.97595214844</ele>
        <time>2018-07-28T08:35:24Z</time>
      </trkpt>
      <trkpt lat="36.7029724121094" lon="-5.02661418914795">
        <ele>1414.97595214844</ele>
        <time>2018-07-28T08:35:25Z</time>
      </trkpt>
      <trkpt lat="36.7029762268066" lon="-5.02661418914795">
        <ele>1414.80920410156</ele>
        <time>2018-07-28T08:35:26Z</time>
      </trkpt>
      <trkpt lat="36.7029762268066" lon="-5.02661418914795">
        <ele>1414.80920410156</ele>
        <time>2018-07-28T08:35:27Z</time>
      </trkpt>
      <trkpt lat="36.7029762268066" lon="-5.02661418914795">
        <ele>1414.80920410156</ele>
        <time>2018-07-28T08:35:28Z</time>
      </trkpt>
      <trkpt lat="36.7029762268066" lon="-5.02661418914795">
        <ele>1414.80920410156</ele>
        <time>2018-07-28T08:35:29Z</time>
      </trkpt>
      <trkpt lat="36.7029762268066" lon="-5.02661418914795">
        <ele>1414.80920410156</ele>
        <time>2018-07-28T08:35:30Z</time>
      </trkpt>
      <trkpt lat="36.7029762268066" lon="-5.02661418914795">
        <ele>1414.80920410156</ele>
        <time>2018-07-28T08:35:31Z</time>
      </trkpt>
      <trkpt lat="36.7029762268066" lon="-5.02661418914795">
        <ele>1414.80920410156</ele>
        <time>2018-07-28T08:35:32Z</time>
      </trkpt>
      <trkpt lat="36.7029762268066" lon="-5.02661180496216">
        <ele>1414.85241699219</ele>
        <time>2018-07-28T08:35:33Z</time>
      </trkpt>
      <trkpt lat="36.7029762268066" lon="-5.02660894393921">
        <ele>1414.90441894531</ele>
        <time>2018-07-28T08:35:34Z</time>
      </trkpt>
      <trkpt lat="36.7029762268066" lon="-5.02660703659058">
        <ele>1414.93908691406</ele>
        <time>2018-07-28T08:35:35Z</time>
      </trkpt>
      <trkpt lat="36.7029724121094" lon="-5.02660512924194">
        <ele>1415.14013671875</ele>
        <time>2018-07-28T08:35:36Z</time>
      </trkpt>
      <trkpt lat="36.7029724121094" lon="-5.02660512924194">
        <ele>1415.14013671875</ele>
        <time>2018-07-28T08:35:37Z</time>
      </trkpt>
      <trkpt lat="36.7029724121094" lon="-5.02660608291626">
        <ele>1415.12280273438</ele>
        <time>2018-07-28T08:35:38Z</time>
      </trkpt>
      <trkpt lat="36.7029724121094" lon="-5.02660703659058">
        <ele>1415.10559082031</ele>
        <time>2018-07-28T08:35:39Z</time>
      </trkpt>
      <trkpt lat="36.7029724121094" lon="-5.02660703659058">
        <ele>1415.10559082031</ele>
        <time>2018-07-28T08:35:40Z</time>
      </trkpt>
      <trkpt lat="36.7029724121094" lon="-5.02660703659058">
        <ele>1415.10559082031</ele>
        <time>2018-07-28T08:35:41Z</time>
      </trkpt>
      <trkpt lat="36.7029724121094" lon="-5.02660894393921">
        <ele>1415.07092285156</ele>
        <time>2018-07-28T08:35:42Z</time>
      </trkpt>
      <trkpt lat="36.7029724121094" lon="-5.02661085128784">
        <ele>1415.03637695312</ele>
        <time>2018-07-28T08:35:43Z</time>
      </trkpt>
      <trkpt lat="36.7029724121094" lon="-5.02661180496216">
        <ele>1415.01916503906</ele>
        <time>2018-07-28T08:35:44Z</time>
      </trkpt>
      <trkpt lat="36.7029724121094" lon="-5.02660989761353">
        <ele>1415.0537109375</ele>
        <time>2018-07-28T08:35:45Z</time>
      </trkpt>
      <trkpt lat="36.7029724121094" lon="-5.02660894393921">
        <ele>1415.07092285156</ele>
        <time>2018-07-28T08:35:46Z</time>
      </trkpt>
      <trkpt lat="36.7029685974121" lon="-5.02660703659058">
        <ele>1415.27197265625</ele>
        <time>2018-07-28T08:35:47Z</time>
      </trkpt>
      <trkpt lat="36.7029685974121" lon="-5.02660703659058">
        <ele>1415.27197265625</ele>
        <time>2018-07-28T08:35:48Z</time>
      </trkpt>
      <trkpt lat="36.7029685974121" lon="-5.02660703659058">
        <ele>1415.27197265625</ele>
        <time>2018-07-28T08:35:49Z</time>
      </trkpt>
      <trkpt lat="36.7029685974121" lon="-5.02660703659058">
        <ele>1415.27197265625</ele>
        <time>2018-07-28T08:35:50Z</time>
      </trkpt>
      <trkpt lat="36.7029685974121" lon="-5.02660703659058">
        <ele>1415.27197265625</ele>
        <time>2018-07-28T08:35:51Z</time>
      </trkpt>
      <trkpt lat="36.7029685974121" lon="-5.02660703659058">
        <ele>1415.27197265625</ele>
        <time>2018-07-28T08:35:52Z</time>
      </trkpt>
      <trkpt lat="36.7029685974121" lon="-5.02660703659058">
        <ele>1415.27197265625</ele>
        <time>2018-07-28T08:35:53Z</time>
      </trkpt>
      <trkpt lat="36.7029685974121" lon="-5.02660608291626">
        <ele>1415.28918457031</ele>
        <time>2018-07-28T08:35:54Z</time>
      </trkpt>
      <trkpt lat="36.7029685974121" lon="-5.02660608291626">
        <ele>1415.28918457031</ele>
        <time>2018-07-28T08:35:55Z</time>
      </trkpt>
      <trkpt lat="36.7029685974121" lon="-5.02660608291626">
        <ele>1415.28918457031</ele>
        <time>2018-07-28T08:35:56Z</time>
      </trkpt>
      <trkpt lat="36.7029685974121" lon="-5.02660608291626">
        <ele>1415.28918457031</ele>
        <time>2018-07-28T08:35:57Z</time>
      </trkpt>
      <trkpt lat="36.7029685974121" lon="-5.02660608291626">
        <ele>1415.28918457031</ele>
        <time>2018-07-28T08:35:58Z</time>
      </trkpt>
      <trkpt lat="36.7029685974121" lon="-5.02660608291626">
        <ele>1415.28918457031</ele>
        <time>2018-07-28T08:35:59Z</time>
      </trkpt>
      <trkpt lat="36.7029685974121" lon="-5.02660703659058">
        <ele>1415.27197265625</ele>
        <time>2018-07-28T08:36:00Z</time>
      </trkpt>
      <trkpt lat="36.7029724121094" lon="-5.02660799026489">
        <ele>1415.08825683594</ele>
        <time>2018-07-28T08:36:01Z</time>
      </trkpt>
      <trkpt lat="36.7029724121094" lon="-5.02660894393921">
        <ele>1415.07092285156</ele>
        <time>2018-07-28T08:36:02Z</time>
      </trkpt>
      <trkpt lat="36.7029724121094" lon="-5.02660894393921">
        <ele>1415.07092285156</ele>
        <time>2018-07-28T08:36:03Z</time>
      </trkpt>
      <trkpt lat="36.7029762268066" lon="-5.02660894393921">
        <ele>1414.90441894531</ele>
        <time>2018-07-28T08:36:04Z</time>
      </trkpt>
      <trkpt lat="36.7029762268066" lon="-5.02660894393921">
        <ele>1414.90441894531</ele>
        <time>2018-07-28T08:36:05Z</time>
      </trkpt>
      <trkpt lat="36.7029724121094" lon="-5.02660894393921">
        <ele>1415.07092285156</ele>
        <time>2018-07-28T08:36:06Z</time>
      </trkpt>
      <trkpt lat="36.7029724121094" lon="-5.02660989761353">
        <ele>1415.0537109375</ele>
        <time>2018-07-28T08:36:07Z</time>
      </trkpt>
      <trkpt lat="36.7029724121094" lon="-5.02660989761353">
        <ele>1415.0537109375</ele>
        <time>2018-07-28T08:36:08Z</time>
      </trkpt>
      <trkpt lat="36.7029724121094" lon="-5.02660989761353">
        <ele>1415.0537109375</ele>
        <time>2018-07-28T08:36:09Z</time>
      </trkpt>
      <trkpt lat="36.7029724121094" lon="-5.02661180496216">
        <ele>1415.01916503906</ele>
        <time>2018-07-28T08:36:10Z</time>
      </trkpt>
      <trkpt lat="36.7029724121094" lon="-5.02661418914795">
        <ele>1414.97595214844</ele>
        <time>2018-07-28T08:36:11Z</time>
      </trkpt>
      <trkpt lat="36.7029685974121" lon="-5.02661800384522">
        <ele>1415.07373046875</ele>
        <time>2018-07-28T08:36:12Z</time>
      </trkpt>
      <trkpt lat="36.7029685974121" lon="-5.02661991119385">
        <ele>1415.03930664062</ele>
        <time>2018-07-28T08:36:13Z</time>
      </trkpt>
      <trkpt lat="36.7029685974121" lon="-5.02662181854248">
        <ele>1415.00476074219</ele>
        <time>2018-07-28T08:36:14Z</time>
      </trkpt>
      <trkpt lat="36.7029685974121" lon="-5.02662181854248">
        <ele>1415.00476074219</ele>
        <time>2018-07-28T08:36:15Z</time>
      </trkpt>
      <trkpt lat="36.7029685974121" lon="-5.02662181854248">
        <ele>1415.00476074219</ele>
        <time>2018-07-28T08:36:16Z</time>
      </trkpt>
      <trkpt lat="36.7029685974121" lon="-5.02662181854248">
        <ele>1415.00476074219</ele>
        <time>2018-07-28T08:36:17Z</time>
      </trkpt>
      <trkpt lat="36.7029685974121" lon="-5.0266227722168">
        <ele>1414.98754882812</ele>
        <time>2018-07-28T08:36:18Z</time>
      </trkpt>
      <trkpt lat="36.7029685974121" lon="-5.02662420272827">
        <ele>1414.96166992188</ele>
        <time>2018-07-28T08:36:19Z</time>
      </trkpt>
      <trkpt lat="36.7029724121094" lon="-5.02662420272827">
        <ele>1414.79443359375</ele>
        <time>2018-07-28T08:36:20Z</time>
      </trkpt>
      <trkpt lat="36.7029724121094" lon="-5.02662515640259">
        <ele>1414.77722167969</ele>
        <time>2018-07-28T08:36:21Z</time>
      </trkpt>
      <trkpt lat="36.7029762268066" lon="-5.02662515640259">
        <ele>1414.60986328125</ele>
        <time>2018-07-28T08:36:22Z</time>
      </trkpt>
      <trkpt lat="36.7029762268066" lon="-5.02662515640259">
        <ele>1414.60986328125</ele>
        <time>2018-07-28T08:36:23Z</time>
      </trkpt>
      <trkpt lat="36.7029800415039" lon="-5.02662515640259">
        <ele>1414.44250488281</ele>
        <time>2018-07-28T08:36:24Z</time>
      </trkpt>
      <trkpt lat="36.7029800415039" lon="-5.02662515640259">
        <ele>1414.44250488281</ele>
        <time>2018-07-28T08:36:25Z</time>
      </trkpt>
      <trkpt lat="36.7029800415039" lon="-5.02662420272827">
        <ele>1414.4599609375</ele>
        <time>2018-07-28T08:36:26Z</time>
      </trkpt>
      <trkpt lat="36.7029800415039" lon="-5.02662420272827">
        <ele>1414.4599609375</ele>
        <time>2018-07-28T08:36:27Z</time>
      </trkpt>
      <trkpt lat="36.7029838562012" lon="-5.0266227722168">
        <ele>1414.31872558594</ele>
        <time>2018-07-28T08:36:28Z</time>
      </trkpt>
      <trkpt lat="36.7029838562012" lon="-5.0266227722168">
        <ele>1414.31872558594</ele>
        <time>2018-07-28T08:36:29Z</time>
      </trkpt>
      <trkpt lat="36.7029838562012" lon="-5.02662181854248">
        <ele>1414.33618164062</ele>
        <time>2018-07-28T08:36:30Z</time>
      </trkpt>
      <trkpt lat="36.7029838562012" lon="-5.02662181854248">
        <ele>1414.33618164062</ele>
        <time>2018-07-28T08:36:31Z</time>
      </trkpt>
      <trkpt lat="36.7029838562012" lon="-5.02662086486816">
        <ele>1414.35363769531</ele>
        <time>2018-07-28T08:36:32Z</time>
      </trkpt>
      <trkpt lat="36.7029838562012" lon="-5.02662086486816">
        <ele>1414.35363769531</ele>
        <time>2018-07-28T08:36:33Z</time>
      </trkpt>
      <trkpt lat="36.7029838562012" lon="-5.02662086486816">
        <ele>1414.35363769531</ele>
        <time>2018-07-28T08:36:34Z</time>
      </trkpt>
      <trkpt lat="36.7029838562012" lon="-5.02662086486816">
        <ele>1414.35363769531</ele>
        <time>2018-07-28T08:36:35Z</time>
      </trkpt>
      <trkpt lat="36.7029838562012" lon="-5.02661991119385">
        <ele>1414.37109375</ele>
        <time>2018-07-28T08:36:36Z</time>
      </trkpt>
      <trkpt lat="36.7029838562012" lon="-5.0266170501709">
        <ele>1414.42333984375</ele>
        <time>2018-07-28T08:36:37Z</time>
      </trkpt>
      <trkpt lat="36.7029876708984" lon="-5.02661418914795">
        <ele>1414.30883789062</ele>
        <time>2018-07-28T08:36:38Z</time>
      </trkpt>
      <trkpt lat="36.7029876708984" lon="-5.02661180496216">
        <ele>1414.3525390625</ele>
        <time>2018-07-28T08:36:39Z</time>
      </trkpt>
      <trkpt lat="36.7029876708984" lon="-5.02660989761353">
        <ele>1414.38745117188</ele>
        <time>2018-07-28T08:36:40Z</time>
      </trkpt>
      <trkpt lat="36.7029876708984" lon="-5.02660989761353">
        <ele>1414.38745117188</ele>
        <time>2018-07-28T08:36:41Z</time>
      </trkpt>
      <trkpt lat="36.7029876708984" lon="-5.02660989761353">
        <ele>1414.38745117188</ele>
        <time>2018-07-28T08:36:42Z</time>
      </trkpt>
      <trkpt lat="36.7029876708984" lon="-5.02661085128784">
        <ele>1414.36999511719</ele>
        <time>2018-07-28T08:36:43Z</time>
      </trkpt>
      <trkpt lat="36.7029876708984" lon="-5.02661323547363">
        <ele>1414.32629394531</ele>
        <time>2018-07-28T08:36:44Z</time>
      </trkpt>
      <trkpt lat="36.7029876708984" lon="-5.02661418914795">
        <ele>1414.30883789062</ele>
        <time>2018-07-28T08:36:45Z</time>
      </trkpt>
      <trkpt lat="36.7029876708984" lon="-5.02661609649658">
        <ele>1414.27392578125</ele>
        <time>2018-07-28T08:36:46Z</time>
      </trkpt>
      <trkpt lat="36.7029876708984" lon="-5.02661609649658">
        <ele>1414.27392578125</ele>
        <time>2018-07-28T08:36:47Z</time>
      </trkpt>
      <trkpt lat="36.7029876708984" lon="-5.0266170501709">
        <ele>1414.25634765625</ele>
        <time>2018-07-28T08:36:48Z</time>
      </trkpt>
      <trkpt lat="36.7029838562012" lon="-5.02661800384522">
        <ele>1414.40588378906</ele>
        <time>2018-07-28T08:36:49Z</time>
      </trkpt>
      <trkpt lat="36.7029838562012" lon="-5.02661800384522">
        <ele>1414.40588378906</ele>
        <time>2018-07-28T08:36:50Z</time>
      </trkpt>
      <trkpt lat="36.7029838562012" lon="-5.02661800384522">
        <ele>1414.40588378906</ele>
        <time>2018-07-28T08:36:51Z</time>
      </trkpt>
      <trkpt lat="36.7029838562012" lon="-5.0266170501709">
        <ele>1414.42333984375</ele>
        <time>2018-07-28T08:36:52Z</time>
      </trkpt>
      <trkpt lat="36.7029838562012" lon="-5.02661609649658">
        <ele>1414.44079589844</ele>
        <time>2018-07-28T08:36:53Z</time>
      </trkpt>
      <trkpt lat="36.7029838562012" lon="-5.02661514282227">
        <ele>1414.45812988281</ele>
        <time>2018-07-28T08:36:54Z</time>
      </trkpt>
      <trkpt lat="36.7029800415039" lon="-5.02661418914795">
        <ele>1414.64233398438</ele>
        <time>2018-07-28T08:36:55Z</time>
      </trkpt>
      <trkpt lat="36.7029800415039" lon="-5.02661180496216">
        <ele>1414.68579101562</ele>
        <time>2018-07-28T08:36:56Z</time>
      </trkpt>
      <trkpt lat="36.7029800415039" lon="-5.02660989761353">
        <ele>1414.72058105469</ele>
        <time>2018-07-28T08:36:57Z</time>
      </trkpt>
      <trkpt lat="36.7029800415039" lon="-5.02660894393921">
        <ele>1414.73791503906</ele>
        <time>2018-07-28T08:36:58Z</time>
      </trkpt>
      <trkpt lat="36.7029800415039" lon="-5.02660703659058">
        <ele>1414.77270507812</ele>
        <time>2018-07-28T08:36:59Z</time>
      </trkpt>
      <trkpt lat="36.7029800415039" lon="-5.02660512924194">
        <ele>1414.80749511719</ele>
        <time>2018-07-28T08:37:00Z</time>
      </trkpt>
      <trkpt lat="36.7029800415039" lon="-5.02660417556763">
        <ele>1414.82482910156</ele>
        <time>2018-07-28T08:37:01Z</time>
      </trkpt>
      <trkpt lat="36.7029800415039" lon="-5.02660179138184">
        <ele>1414.86828613281</ele>
        <time>2018-07-28T08:37:02Z</time>
      </trkpt>
      <trkpt lat="36.7029762268066" lon="-5.02660179138184">
        <ele>1415.03442382812</ele>
        <time>2018-07-28T08:37:03Z</time>
      </trkpt>
      <trkpt lat="36.7029762268066" lon="-5.02660179138184">
        <ele>1415.03442382812</ele>
        <time>2018-07-28T08:37:04Z</time>
      </trkpt>
      <trkpt lat="36.7029762268066" lon="-5.02660179138184">
        <ele>1415.03442382812</ele>
        <time>2018-07-28T08:37:05Z</time>
      </trkpt>
      <trkpt lat="36.7029762268066" lon="-5.02660179138184">
        <ele>1415.03442382812</ele>
        <time>2018-07-28T08:37:06Z</time>
      </trkpt>
      <trkpt lat="36.7029762268066" lon="-5.02660179138184">
        <ele>1415.03442382812</ele>
        <time>2018-07-28T08:37:07Z</time>
      </trkpt>
      <trkpt lat="36.7029762268066" lon="-5.02660179138184">
        <ele>1415.03442382812</ele>
        <time>2018-07-28T08:37:08Z</time>
      </trkpt>
      <trkpt lat="36.7029762268066" lon="-5.02660179138184">
        <ele>1415.03442382812</ele>
        <time>2018-07-28T08:37:09Z</time>
      </trkpt>
      <trkpt lat="36.7029762268066" lon="-5.02660179138184">
        <ele>1415.03442382812</ele>
        <time>2018-07-28T08:37:10Z</time>
      </trkpt>
      <trkpt lat="36.7029762268066" lon="-5.02660179138184">
        <ele>1415.03442382812</ele>
        <time>2018-07-28T08:37:11Z</time>
      </trkpt>
      <trkpt lat="36.7029762268066" lon="-5.02660179138184">
        <ele>1415.03442382812</ele>
        <time>2018-07-28T08:37:12Z</time>
      </trkpt>
      <trkpt lat="36.7029762268066" lon="-5.0265998840332">
        <ele>1415.06909179688</ele>
        <time>2018-07-28T08:37:13Z</time>
      </trkpt>
      <trkpt lat="36.7029762268066" lon="-5.02659893035889">
        <ele>1415.08642578125</ele>
        <time>2018-07-28T08:37:14Z</time>
      </trkpt>
      <trkpt lat="36.7029762268066" lon="-5.02659797668457">
        <ele>1415.10375976562</ele>
        <time>2018-07-28T08:37:15Z</time>
      </trkpt>
      <trkpt lat="36.7029762268066" lon="-5.02659702301025">
        <ele>1415.12109375</ele>
        <time>2018-07-28T08:37:16Z</time>
      </trkpt>
      <trkpt lat="36.7029762268066" lon="-5.02659511566162">
        <ele>1415.15576171875</ele>
        <time>2018-07-28T08:37:17Z</time>
      </trkpt>
      <trkpt lat="36.7029762268066" lon="-5.0265941619873">
        <ele>1415.17309570312</ele>
        <time>2018-07-28T08:37:18Z</time>
      </trkpt>
      <trkpt lat="36.7029762268066" lon="-5.02659320831299">
        <ele>1415.1904296875</ele>
        <time>2018-07-28T08:37:19Z</time>
      </trkpt>
      <trkpt lat="36.7029762268066" lon="-5.02659320831299">
        <ele>1415.1904296875</ele>
        <time>2018-07-28T08:37:20Z</time>
      </trkpt>
      <trkpt lat="36.7029762268066" lon="-5.02659320831299">
        <ele>1415.1904296875</ele>
        <time>2018-07-28T08:37:21Z</time>
      </trkpt>
      <trkpt lat="36.7029762268066" lon="-5.02659320831299">
        <ele>1415.1904296875</ele>
        <time>2018-07-28T08:37:22Z</time>
      </trkpt>
      <trkpt lat="36.7029762268066" lon="-5.02659320831299">
        <ele>1415.1904296875</ele>
        <time>2018-07-28T08:37:23Z</time>
      </trkpt>
      <trkpt lat="36.7029762268066" lon="-5.02659320831299">
        <ele>1415.1904296875</ele>
        <time>2018-07-28T08:37:24Z</time>
      </trkpt>
      <trkpt lat="36.7029762268066" lon="-5.02659320831299">
        <ele>1415.1904296875</ele>
        <time>2018-07-28T08:37:25Z</time>
      </trkpt>
      <trkpt lat="36.7029762268066" lon="-5.02659320831299">
        <ele>1415.1904296875</ele>
        <time>2018-07-28T08:37:26Z</time>
      </trkpt>
      <trkpt lat="36.7029762268066" lon="-5.02659320831299">
        <ele>1415.1904296875</ele>
        <time>2018-07-28T08:37:27Z</time>
      </trkpt>
      <trkpt lat="36.7029762268066" lon="-5.02659320831299">
        <ele>1415.1904296875</ele>
        <time>2018-07-28T08:37:28Z</time>
      </trkpt>
      <trkpt lat="36.7029762268066" lon="-5.02659320831299">
        <ele>1415.1904296875</ele>
        <time>2018-07-28T08:37:29Z</time>
      </trkpt>
      <trkpt lat="36.7029762268066" lon="-5.0265941619873">
        <ele>1415.17309570312</ele>
        <time>2018-07-28T08:37:30Z</time>
      </trkpt>
      <trkpt lat="36.7029762268066" lon="-5.0265941619873">
        <ele>1415.17309570312</ele>
        <time>2018-07-28T08:37:31Z</time>
      </trkpt>
      <trkpt lat="36.7029800415039" lon="-5.0265941619873">
        <ele>1415.00732421875</ele>
        <time>2018-07-28T08:37:32Z</time>
      </trkpt>
      <trkpt lat="36.7029800415039" lon="-5.0265941619873">
        <ele>1415.00732421875</ele>
        <time>2018-07-28T08:37:33Z</time>
      </trkpt>
      <trkpt lat="36.7029838562012" lon="-5.0265941619873">
        <ele>1414.84155273438</ele>
        <time>2018-07-28T08:37:34Z</time>
      </trkpt>
      <trkpt lat="36.7029838562012" lon="-5.0265941619873">
        <ele>1414.84155273438</ele>
        <time>2018-07-28T08:37:35Z</time>
      </trkpt>
      <trkpt lat="36.7029838562012" lon="-5.02659511566162">
        <ele>1414.82409667969</ele>
        <time>2018-07-28T08:37:36Z</time>
      </trkpt>
      <trkpt lat="36.7029876708984" lon="-5.02659797668457">
        <ele>1414.60583496094</ele>
        <time>2018-07-28T08:37:37Z</time>
      </trkpt>
      <trkpt lat="36.7029876708984" lon="-5.0265998840332">
        <ele>1414.57092285156</ele>
        <time>2018-07-28T08:37:38Z</time>
      </trkpt>
      <trkpt lat="36.7029876708984" lon="-5.02660083770752">
        <ele>1414.55346679688</ele>
        <time>2018-07-28T08:37:39Z</time>
      </trkpt>
      <trkpt lat="36.7029876708984" lon="-5.02660179138184">
        <ele>1414.53588867188</ele>
        <time>2018-07-28T08:37:40Z</time>
      </trkpt>
      <trkpt lat="36.7029876708984" lon="-5.02660179138184">
        <ele>1414.53588867188</ele>
        <time>2018-07-28T08:37:41Z</time>
      </trkpt>
      <trkpt lat="36.7029876708984" lon="-5.02660083770752">
        <ele>1414.55346679688</ele>
        <time>2018-07-28T08:37:42Z</time>
      </trkpt>
      <trkpt lat="36.7029876708984" lon="-5.02660179138184">
        <ele>1414.53588867188</ele>
        <time>2018-07-28T08:37:43Z</time>
      </trkpt>
      <trkpt lat="36.7029876708984" lon="-5.02660322189331">
        <ele>1414.509765625</ele>
        <time>2018-07-28T08:37:44Z</time>
      </trkpt>
      <trkpt lat="36.7029876708984" lon="-5.02660608291626">
        <ele>1414.45727539062</ele>
        <time>2018-07-28T08:37:45Z</time>
      </trkpt>
      <trkpt lat="36.7029876708984" lon="-5.02660799026489">
        <ele>1414.42236328125</ele>
        <time>2018-07-28T08:37:46Z</time>
      </trkpt>
      <trkpt lat="36.7029838562012" lon="-5.02660894393921">
        <ele>1414.57141113281</ele>
        <time>2018-07-28T08:37:47Z</time>
      </trkpt>
      <trkpt lat="36.7029838562012" lon="-5.02660894393921">
        <ele>1414.57141113281</ele>
        <time>2018-07-28T08:37:48Z</time>
      </trkpt>
      <trkpt lat="36.7029800415039" lon="-5.02660894393921">
        <ele>1414.73791503906</ele>
        <time>2018-07-28T08:37:49Z</time>
      </trkpt>
      <trkpt lat="36.7029800415039" lon="-5.02660894393921">
        <ele>1414.73791503906</ele>
        <time>2018-07-28T08:37:50Z</time>
      </trkpt>
      <trkpt lat="36.7029762268066" lon="-5.02660894393921">
        <ele>1414.90441894531</ele>
        <time>2018-07-28T08:37:51Z</time>
      </trkpt>
      <trkpt lat="36.7029800415039" lon="-5.02660894393921">
        <ele>1414.73791503906</ele>
        <time>2018-07-28T08:37:52Z</time>
      </trkpt>
      <trkpt lat="36.7029800415039" lon="-5.02660894393921">
        <ele>1414.73791503906</ele>
        <time>2018-07-28T08:37:53Z</time>
      </trkpt>
      <trkpt lat="36.7029838562012" lon="-5.02660799026489">
        <ele>1414.5888671875</ele>
        <time>2018-07-28T08:37:54Z</time>
      </trkpt>
      <trkpt lat="36.7029838562012" lon="-5.02660703659058">
        <ele>1414.60632324219</ele>
        <time>2018-07-28T08:37:55Z</time>
      </trkpt>
      <trkpt lat="36.7029838562012" lon="-5.02660608291626">
        <ele>1414.62365722656</ele>
        <time>2018-07-28T08:37:56Z</time>
      </trkpt>
      <trkpt lat="36.7029838562012" lon="-5.02660512924194">
        <ele>1414.64111328125</ele>
        <time>2018-07-28T08:37:57Z</time>
      </trkpt>
      <trkpt lat="36.7029876708984" lon="-5.02660322189331">
        <ele>1414.509765625</ele>
        <time>2018-07-28T08:37:58Z</time>
      </trkpt>
      <trkpt lat="36.7029876708984" lon="-5.02660179138184">
        <ele>1414.53588867188</ele>
        <time>2018-07-28T08:37:59Z</time>
      </trkpt>
      <trkpt lat="36.7029876708984" lon="-5.02660179138184">
        <ele>1414.53588867188</ele>
        <time>2018-07-28T08:38:00Z</time>
      </trkpt>
      <trkpt lat="36.7029876708984" lon="-5.02660083770752">
        <ele>1414.55346679688</ele>
        <time>2018-07-28T08:38:01Z</time>
      </trkpt>
      <trkpt lat="36.7029876708984" lon="-5.0265998840332">
        <ele>1414.57092285156</ele>
        <time>2018-07-28T08:38:02Z</time>
      </trkpt>
      <trkpt lat="36.7029876708984" lon="-5.02659893035889">
        <ele>1414.58837890625</ele>
        <time>2018-07-28T08:38:03Z</time>
      </trkpt>
      <trkpt lat="36.7029876708984" lon="-5.02659893035889">
        <ele>1414.58837890625</ele>
        <time>2018-07-28T08:38:04Z</time>
      </trkpt>
      <trkpt lat="36.7029876708984" lon="-5.02660083770752">
        <ele>1414.55346679688</ele>
        <time>2018-07-28T08:38:05Z</time>
      </trkpt>
      <trkpt lat="36.7029876708984" lon="-5.02660179138184">
        <ele>1414.53588867188</ele>
        <time>2018-07-28T08:38:06Z</time>
      </trkpt>
      <trkpt lat="36.7029914855957" lon="-5.02660179138184">
        <ele>1414.36975097656</ele>
        <time>2018-07-28T08:38:07Z</time>
      </trkpt>
      <trkpt lat="36.7029914855957" lon="-5.02660179138184">
        <ele>1414.36975097656</ele>
        <time>2018-07-28T08:38:08Z</time>
      </trkpt>
      <trkpt lat="36.7029914855957" lon="-5.02660083770752">
        <ele>1414.38732910156</ele>
        <time>2018-07-28T08:38:09Z</time>
      </trkpt>
      <trkpt lat="36.7029914855957" lon="-5.02660083770752">
        <ele>1414.38732910156</ele>
        <time>2018-07-28T08:38:10Z</time>
      </trkpt>
      <trkpt lat="36.7029914855957" lon="-5.0265998840332">
        <ele>1414.40478515625</ele>
        <time>2018-07-28T08:38:11Z</time>
      </trkpt>
      <trkpt lat="36.7029876708984" lon="-5.02659893035889">
        <ele>1414.58837890625</ele>
        <time>2018-07-28T08:38:12Z</time>
      </trkpt>
      <trkpt lat="36.7029876708984" lon="-5.02659893035889">
        <ele>1414.58837890625</ele>
        <time>2018-07-28T08:38:13Z</time>
      </trkpt>
      <trkpt lat="36.7029876708984" lon="-5.02659893035889">
        <ele>1414.58837890625</ele>
        <time>2018-07-28T08:38:14Z</time>
      </trkpt>
      <trkpt lat="36.7029876708984" lon="-5.02659893035889">
        <ele>1414.58837890625</ele>
        <time>2018-07-28T08:38:15Z</time>
      </trkpt>
      <trkpt lat="36.7029876708984" lon="-5.02659893035889">
        <ele>1414.58837890625</ele>
        <time>2018-07-28T08:38:16Z</time>
      </trkpt>
      <trkpt lat="36.7029876708984" lon="-5.02659893035889">
        <ele>1414.58837890625</ele>
        <time>2018-07-28T08:38:17Z</time>
      </trkpt>
      <trkpt lat="36.7029876708984" lon="-5.02659893035889">
        <ele>1414.58837890625</ele>
        <time>2018-07-28T08:38:18Z</time>
      </trkpt>
      <trkpt lat="36.7029876708984" lon="-5.02659893035889">
        <ele>1414.58837890625</ele>
        <time>2018-07-28T08:38:19Z</time>
      </trkpt>
      <trkpt lat="36.7029876708984" lon="-5.02659893035889">
        <ele>1414.58837890625</ele>
        <time>2018-07-28T08:38:20Z</time>
      </trkpt>
      <trkpt lat="36.7029838562012" lon="-5.02659893035889">
        <ele>1414.75439453125</ele>
        <time>2018-07-28T08:38:21Z</time>
      </trkpt>
      <trkpt lat="36.7029838562012" lon="-5.0265998840332">
        <ele>1414.73693847656</ele>
        <time>2018-07-28T08:38:22Z</time>
      </trkpt>
      <trkpt lat="36.7029838562012" lon="-5.0265998840332">
        <ele>1414.73693847656</ele>
        <time>2018-07-28T08:38:23Z</time>
      </trkpt>
      <trkpt lat="36.7029838562012" lon="-5.0265998840332">
        <ele>1414.73693847656</ele>
        <time>2018-07-28T08:38:24Z</time>
      </trkpt>
      <trkpt lat="36.7029838562012" lon="-5.02660083770752">
        <ele>1414.71948242188</ele>
        <time>2018-07-28T08:38:25Z</time>
      </trkpt>
      <trkpt lat="36.7029838562012" lon="-5.02660179138184">
        <ele>1414.7021484375</ele>
        <time>2018-07-28T08:38:26Z</time>
      </trkpt>
      <trkpt lat="36.7029838562012" lon="-5.02660322189331">
        <ele>1414.67602539062</ele>
        <time>2018-07-28T08:38:27Z</time>
      </trkpt>
      <trkpt lat="36.7029838562012" lon="-5.02660322189331">
        <ele>1414.67602539062</ele>
        <time>2018-07-28T08:38:28Z</time>
      </trkpt>
      <trkpt lat="36.7029838562012" lon="-5.02660179138184">
        <ele>1414.7021484375</ele>
        <time>2018-07-28T08:38:29Z</time>
      </trkpt>
      <trkpt lat="36.7029838562012" lon="-5.02660083770752">
        <ele>1414.71948242188</ele>
        <time>2018-07-28T08:38:30Z</time>
      </trkpt>
      <trkpt lat="36.7029838562012" lon="-5.0265998840332">
        <ele>1414.73693847656</ele>
        <time>2018-07-28T08:38:31Z</time>
      </trkpt>
      <trkpt lat="36.7029838562012" lon="-5.02659893035889">
        <ele>1414.75439453125</ele>
        <time>2018-07-28T08:38:32Z</time>
      </trkpt>
      <trkpt lat="36.7029838562012" lon="-5.02659893035889">
        <ele>1414.75439453125</ele>
        <time>2018-07-28T08:38:33Z</time>
      </trkpt>
      <trkpt lat="36.7029838562012" lon="-5.02659797668457">
        <ele>1414.77185058594</ele>
        <time>2018-07-28T08:38:34Z</time>
      </trkpt>
      <trkpt lat="36.7029838562012" lon="-5.02659797668457">
        <ele>1414.77185058594</ele>
        <time>2018-07-28T08:38:35Z</time>
      </trkpt>
      <trkpt lat="36.7029838562012" lon="-5.02659797668457">
        <ele>1414.77185058594</ele>
        <time>2018-07-28T08:38:36Z</time>
      </trkpt>
      <trkpt lat="36.7029838562012" lon="-5.02659797668457">
        <ele>1414.77185058594</ele>
        <time>2018-07-28T08:38:37Z</time>
      </trkpt>
      <trkpt lat="36.7029838562012" lon="-5.02659702301025">
        <ele>1414.78918457031</ele>
        <time>2018-07-28T08:38:38Z</time>
      </trkpt>
      <trkpt lat="36.7029838562012" lon="-5.02659702301025">
        <ele>1414.78918457031</ele>
        <time>2018-07-28T08:38:39Z</time>
      </trkpt>
      <trkpt lat="36.7029838562012" lon="-5.02659702301025">
        <ele>1414.78918457031</ele>
        <time>2018-07-28T08:38:40Z</time>
      </trkpt>
      <trkpt lat="36.7029838562012" lon="-5.02659893035889">
        <ele>1414.75439453125</ele>
        <time>2018-07-28T08:38:41Z</time>
      </trkpt>
      <trkpt lat="36.7029838562012" lon="-5.0265998840332">
        <ele>1414.73693847656</ele>
        <time>2018-07-28T08:38:42Z</time>
      </trkpt>
      <trkpt lat="36.7029838562012" lon="-5.02660083770752">
        <ele>1414.71948242188</ele>
        <time>2018-07-28T08:38:43Z</time>
      </trkpt>
      <trkpt lat="36.7029838562012" lon="-5.02660179138184">
        <ele>1414.7021484375</ele>
        <time>2018-07-28T08:38:44Z</time>
      </trkpt>
      <trkpt lat="36.7029838562012" lon="-5.02660083770752">
        <ele>1414.71948242188</ele>
        <time>2018-07-28T08:38:45Z</time>
      </trkpt>
      <trkpt lat="36.7029876708984" lon="-5.02660083770752">
        <ele>1414.55346679688</ele>
        <time>2018-07-28T08:38:46Z</time>
      </trkpt>
      <trkpt lat="36.7029876708984" lon="-5.02660083770752">
        <ele>1414.55346679688</ele>
        <time>2018-07-28T08:38:47Z</time>
      </trkpt>
      <trkpt lat="36.7029838562012" lon="-5.02660083770752">
        <ele>1414.71948242188</ele>
        <time>2018-07-28T08:38:48Z</time>
      </trkpt>
      <trkpt lat="36.7029838562012" lon="-5.0265998840332">
        <ele>1414.73693847656</ele>
        <time>2018-07-28T08:38:49Z</time>
      </trkpt>
      <trkpt lat="36.7029838562012" lon="-5.0265998840332">
        <ele>1414.73693847656</ele>
        <time>2018-07-28T08:38:50Z</time>
      </trkpt>
      <trkpt lat="36.7029838562012" lon="-5.02660083770752">
        <ele>1414.71948242188</ele>
        <time>2018-07-28T08:38:51Z</time>
      </trkpt>
      <trkpt lat="36.7029838562012" lon="-5.02660083770752">
        <ele>1414.71948242188</ele>
        <time>2018-07-28T08:38:52Z</time>
      </trkpt>
      <trkpt lat="36.7029838562012" lon="-5.02660083770752">
        <ele>1414.71948242188</ele>
        <time>2018-07-28T08:38:53Z</time>
      </trkpt>
      <trkpt lat="36.7029838562012" lon="-5.0265998840332">
        <ele>1414.73693847656</ele>
        <time>2018-07-28T08:38:54Z</time>
      </trkpt>
      <trkpt lat="36.7029838562012" lon="-5.02659893035889">
        <ele>1414.75439453125</ele>
        <time>2018-07-28T08:38:55Z</time>
      </trkpt>
      <trkpt lat="36.7029838562012" lon="-5.02659893035889">
        <ele>1414.75439453125</ele>
        <time>2018-07-28T08:38:56Z</time>
      </trkpt>
      <trkpt lat="36.7029838562012" lon="-5.02659797668457">
        <ele>1414.77185058594</ele>
        <time>2018-07-28T08:38:57Z</time>
      </trkpt>
      <trkpt lat="36.7029838562012" lon="-5.02659797668457">
        <ele>1414.77185058594</ele>
        <time>2018-07-28T08:38:58Z</time>
      </trkpt>
      <trkpt lat="36.7029838562012" lon="-5.02659702301025">
        <ele>1414.78918457031</ele>
        <time>2018-07-28T08:38:59Z</time>
      </trkpt>
      <trkpt lat="36.7029800415039" lon="-5.02659702301025">
        <ele>1414.95520019531</ele>
        <time>2018-07-28T08:39:00Z</time>
      </trkpt>
      <trkpt lat="36.7029800415039" lon="-5.02659702301025">
        <ele>1414.95520019531</ele>
        <time>2018-07-28T08:39:01Z</time>
      </trkpt>
      <trkpt lat="36.7029800415039" lon="-5.02659606933594">
        <ele>1414.97253417969</ele>
        <time>2018-07-28T08:39:02Z</time>
      </trkpt>
      <trkpt lat="36.7029800415039" lon="-5.02659606933594">
        <ele>1414.97253417969</ele>
        <time>2018-07-28T08:39:03Z</time>
      </trkpt>
      <trkpt lat="36.7029800415039" lon="-5.02659606933594">
        <ele>1414.97253417969</ele>
        <time>2018-07-28T08:39:04Z</time>
      </trkpt>
      <trkpt lat="36.7029762268066" lon="-5.02659511566162">
        <ele>1415.15576171875</ele>
        <time>2018-07-28T08:39:05Z</time>
      </trkpt>
      <trkpt lat="36.7029762268066" lon="-5.02659511566162">
        <ele>1415.15576171875</ele>
        <time>2018-07-28T08:39:06Z</time>
      </trkpt>
      <trkpt lat="36.7029762268066" lon="-5.0265941619873">
        <ele>1415.17309570312</ele>
        <time>2018-07-28T08:39:07Z</time>
      </trkpt>
      <trkpt lat="36.7029762268066" lon="-5.02659320831299">
        <ele>1415.1904296875</ele>
        <time>2018-07-28T08:39:08Z</time>
      </trkpt>
      <trkpt lat="36.7029762268066" lon="-5.02659320831299">
        <ele>1415.1904296875</ele>
        <time>2018-07-28T08:39:09Z</time>
      </trkpt>
      <trkpt lat="36.7029762268066" lon="-5.02659177780151">
        <ele>1415.21643066406</ele>
        <time>2018-07-28T08:39:10Z</time>
      </trkpt>
      <trkpt lat="36.7029724121094" lon="-5.02659177780151">
        <ele>1415.38208007812</ele>
        <time>2018-07-28T08:39:11Z</time>
      </trkpt>
      <trkpt lat="36.7029724121094" lon="-5.02659177780151">
        <ele>1415.38208007812</ele>
        <time>2018-07-28T08:39:12Z</time>
      </trkpt>
      <trkpt lat="36.7029724121094" lon="-5.02659320831299">
        <ele>1415.35620117188</ele>
        <time>2018-07-28T08:39:13Z</time>
      </trkpt>
      <trkpt lat="36.7029724121094" lon="-5.02659320831299">
        <ele>1415.35620117188</ele>
        <time>2018-07-28T08:39:14Z</time>
      </trkpt>
      <trkpt lat="36.7029724121094" lon="-5.0265941619873">
        <ele>1415.3388671875</ele>
        <time>2018-07-28T08:39:15Z</time>
      </trkpt>
      <trkpt lat="36.7029724121094" lon="-5.0265941619873">
        <ele>1415.3388671875</ele>
        <time>2018-07-28T08:39:16Z</time>
      </trkpt>
      <trkpt lat="36.7029724121094" lon="-5.02659320831299">
        <ele>1415.35620117188</ele>
        <time>2018-07-28T08:39:17Z</time>
      </trkpt>
      <trkpt lat="36.7029724121094" lon="-5.02659320831299">
        <ele>1415.35620117188</ele>
        <time>2018-07-28T08:39:18Z</time>
      </trkpt>
      <trkpt lat="36.7029724121094" lon="-5.02659320831299">
        <ele>1415.35620117188</ele>
        <time>2018-07-28T08:39:19Z</time>
      </trkpt>
      <trkpt lat="36.7029724121094" lon="-5.02659320831299">
        <ele>1415.35620117188</ele>
        <time>2018-07-28T08:39:20Z</time>
      </trkpt>
      <trkpt lat="36.7029685974121" lon="-5.02659320831299">
        <ele>1415.52185058594</ele>
        <time>2018-07-28T08:39:21Z</time>
      </trkpt>
      <trkpt lat="36.7029685974121" lon="-5.02659320831299">
        <ele>1415.52185058594</ele>
        <time>2018-07-28T08:39:22Z</time>
      </trkpt>
      <trkpt lat="36.7029685974121" lon="-5.02659320831299">
        <ele>1415.52185058594</ele>
        <time>2018-07-28T08:39:23Z</time>
      </trkpt>
      <trkpt lat="36.7029685974121" lon="-5.02659320831299">
        <ele>1415.52185058594</ele>
        <time>2018-07-28T08:39:24Z</time>
      </trkpt>
      <trkpt lat="36.7029685974121" lon="-5.02659320831299">
        <ele>1415.52185058594</ele>
        <time>2018-07-28T08:39:25Z</time>
      </trkpt>
      <trkpt lat="36.7029685974121" lon="-5.02659320831299">
        <ele>1415.52185058594</ele>
        <time>2018-07-28T08:39:26Z</time>
      </trkpt>
      <trkpt lat="36.7029685974121" lon="-5.02659320831299">
        <ele>1415.52185058594</ele>
        <time>2018-07-28T08:39:27Z</time>
      </trkpt>
      <trkpt lat="36.7029685974121" lon="-5.0265941619873">
        <ele>1415.50463867188</ele>
        <time>2018-07-28T08:39:28Z</time>
      </trkpt>
      <trkpt lat="36.7029685974121" lon="-5.0265941619873">
        <ele>1415.50463867188</ele>
        <time>2018-07-28T08:39:29Z</time>
      </trkpt>
      <trkpt lat="36.7029685974121" lon="-5.02659511566162">
        <ele>1415.48742675781</ele>
        <time>2018-07-28T08:39:30Z</time>
      </trkpt>
      <trkpt lat="36.7029685974121" lon="-5.02659511566162">
        <ele>1415.48742675781</ele>
        <time>2018-07-28T08:39:31Z</time>
      </trkpt>
      <trkpt lat="36.7029685974121" lon="-5.02659606933594">
        <ele>1415.47021484375</ele>
        <time>2018-07-28T08:39:32Z</time>
      </trkpt>
      <trkpt lat="36.7029685974121" lon="-5.02659893035889">
        <ele>1415.41845703125</ele>
        <time>2018-07-28T08:39:33Z</time>
      </trkpt>
      <trkpt lat="36.7029724121094" lon="-5.02660083770752">
        <ele>1415.21789550781</ele>
        <time>2018-07-28T08:39:34Z</time>
      </trkpt>
      <trkpt lat="36.7029724121094" lon="-5.02660322189331">
        <ele>1415.17468261719</ele>
        <time>2018-07-28T08:39:35Z</time>
      </trkpt>
      <trkpt lat="36.7029724121094" lon="-5.02660322189331">
        <ele>1415.17468261719</ele>
        <time>2018-07-28T08:39:36Z</time>
      </trkpt>
      <trkpt lat="36.7029724121094" lon="-5.02660179138184">
        <ele>1415.20056152344</ele>
        <time>2018-07-28T08:39:37Z</time>
      </trkpt>
      <trkpt lat="36.7029762268066" lon="-5.02660179138184">
        <ele>1415.03442382812</ele>
        <time>2018-07-28T08:39:38Z</time>
      </trkpt>
      <trkpt lat="36.7029800415039" lon="-5.02660083770752">
        <ele>1414.88562011719</ele>
        <time>2018-07-28T08:39:39Z</time>
      </trkpt>
      <trkpt lat="36.7029838562012" lon="-5.02660179138184">
        <ele>1414.7021484375</ele>
        <time>2018-07-28T08:39:40Z</time>
      </trkpt>
      <trkpt lat="36.7029838562012" lon="-5.02660417556763">
        <ele>1414.65856933594</ele>
        <time>2018-07-28T08:39:41Z</time>
      </trkpt>
      <trkpt lat="36.7029876708984" lon="-5.02660608291626">
        <ele>1414.45727539062</ele>
        <time>2018-07-28T08:39:42Z</time>
      </trkpt>
      <trkpt lat="36.7029876708984" lon="-5.02660608291626">
        <ele>1414.45727539062</ele>
        <time>2018-07-28T08:39:43Z</time>
      </trkpt>
      <trkpt lat="36.7029914855957" lon="-5.02660608291626">
        <ele>1414.29089355469</ele>
        <time>2018-07-28T08:39:44Z</time>
      </trkpt>
      <trkpt lat="36.7029914855957" lon="-5.02660417556763">
        <ele>1414.32592773438</ele>
        <time>2018-07-28T08:39:45Z</time>
      </trkpt>
      <trkpt lat="36.702995300293" lon="-5.02660417556763">
        <ele>1414.15966796875</ele>
        <time>2018-07-28T08:39:46Z</time>
      </trkpt>
      <trkpt lat="36.702995300293" lon="-5.02660417556763">
        <ele>1414.15966796875</ele>
        <time>2018-07-28T08:39:47Z</time>
      </trkpt>
      <trkpt lat="36.702995300293" lon="-5.02660512924194">
        <ele>1414.14208984375</ele>
        <time>2018-07-28T08:39:48Z</time>
      </trkpt>
      <trkpt lat="36.702995300293" lon="-5.02660512924194">
        <ele>1414.14208984375</ele>
        <time>2018-07-28T08:39:49Z</time>
      </trkpt>
      <trkpt lat="36.702995300293" lon="-5.02660512924194">
        <ele>1414.14208984375</ele>
        <time>2018-07-28T08:39:50Z</time>
      </trkpt>
      <trkpt lat="36.702995300293" lon="-5.02660608291626">
        <ele>1414.12451171875</ele>
        <time>2018-07-28T08:39:51Z</time>
      </trkpt>
      <trkpt lat="36.702995300293" lon="-5.02660703659058">
        <ele>1414.10705566406</ele>
        <time>2018-07-28T08:39:52Z</time>
      </trkpt>
      <trkpt lat="36.702995300293" lon="-5.02660799026489">
        <ele>1414.08947753906</ele>
        <time>2018-07-28T08:39:53Z</time>
      </trkpt>
      <trkpt lat="36.702995300293" lon="-5.02660894393921">
        <ele>1414.07189941406</ele>
        <time>2018-07-28T08:39:54Z</time>
      </trkpt>
      <trkpt lat="36.702995300293" lon="-5.02660989761353">
        <ele>1414.05432128906</ele>
        <time>2018-07-28T08:39:55Z</time>
      </trkpt>
      <trkpt lat="36.702995300293" lon="-5.02660989761353">
        <ele>1414.05432128906</ele>
        <time>2018-07-28T08:39:56Z</time>
      </trkpt>
      <trkpt lat="36.7029991149902" lon="-5.02660989761353">
        <ele>1413.8876953125</ele>
        <time>2018-07-28T08:39:57Z</time>
      </trkpt>
      <trkpt lat="36.702995300293" lon="-5.02661180496216">
        <ele>1414.01916503906</ele>
        <time>2018-07-28T08:39:58Z</time>
      </trkpt>
      <trkpt lat="36.702995300293" lon="-5.02661323547363">
        <ele>1413.99279785156</ele>
        <time>2018-07-28T08:39:59Z</time>
      </trkpt>
      <trkpt lat="36.7029914855957" lon="-5.02661514282227">
        <ele>1414.12451171875</ele>
        <time>2018-07-28T08:40:00Z</time>
      </trkpt>
      <trkpt lat="36.7029914855957" lon="-5.02661609649658">
        <ele>1414.10705566406</ele>
        <time>2018-07-28T08:40:01Z</time>
      </trkpt>
      <trkpt lat="36.7029914855957" lon="-5.0266170501709">
        <ele>1414.08947753906</ele>
        <time>2018-07-28T08:40:02Z</time>
      </trkpt>
      <trkpt lat="36.7029914855957" lon="-5.0266170501709">
        <ele>1414.08947753906</ele>
        <time>2018-07-28T08:40:03Z</time>
      </trkpt>
      <trkpt lat="36.7029914855957" lon="-5.02661609649658">
        <ele>1414.10705566406</ele>
        <time>2018-07-28T08:40:04Z</time>
      </trkpt>
      <trkpt lat="36.7029914855957" lon="-5.02661418914795">
        <ele>1414.14208984375</ele>
        <time>2018-07-28T08:40:05Z</time>
      </trkpt>
      <trkpt lat="36.7029914855957" lon="-5.02661418914795">
        <ele>1414.14208984375</ele>
        <time>2018-07-28T08:40:06Z</time>
      </trkpt>
      <trkpt lat="36.7029914855957" lon="-5.02661418914795">
        <ele>1414.14208984375</ele>
        <time>2018-07-28T08:40:07Z</time>
      </trkpt>
      <trkpt lat="36.7029914855957" lon="-5.02661609649658">
        <ele>1414.10705566406</ele>
        <time>2018-07-28T08:40:08Z</time>
      </trkpt>
      <trkpt lat="36.7029914855957" lon="-5.0266170501709">
        <ele>1414.08947753906</ele>
        <time>2018-07-28T08:40:09Z</time>
      </trkpt>
      <trkpt lat="36.7029914855957" lon="-5.02661895751953">
        <ele>1414.05444335938</ele>
        <time>2018-07-28T08:40:10Z</time>
      </trkpt>
      <trkpt lat="36.702995300293" lon="-5.02661895751953">
        <ele>1413.88745117188</ele>
        <time>2018-07-28T08:40:11Z</time>
      </trkpt>
      <trkpt lat="36.702995300293" lon="-5.02661991119385">
        <ele>1413.86987304688</ele>
        <time>2018-07-28T08:40:12Z</time>
      </trkpt>
      <trkpt lat="36.702995300293" lon="-5.02661991119385">
        <ele>1413.86987304688</ele>
        <time>2018-07-28T08:40:13Z</time>
      </trkpt>
      <trkpt lat="36.702995300293" lon="-5.02662086486816">
        <ele>1413.85229492188</ele>
        <time>2018-07-28T08:40:14Z</time>
      </trkpt>
      <trkpt lat="36.702995300293" lon="-5.0266227722168">
        <ele>1413.81713867188</ele>
        <time>2018-07-28T08:40:15Z</time>
      </trkpt>
      <trkpt lat="36.702995300293" lon="-5.02662420272827">
        <ele>1413.79077148438</ele>
        <time>2018-07-28T08:40:16Z</time>
      </trkpt>
      <trkpt lat="36.702995300293" lon="-5.02662420272827">
        <ele>1413.79077148438</ele>
        <time>2018-07-28T08:40:17Z</time>
      </trkpt>
      <trkpt lat="36.702995300293" lon="-5.0266227722168">
        <ele>1413.81713867188</ele>
        <time>2018-07-28T08:40:18Z</time>
      </trkpt>
      <trkpt lat="36.702995300293" lon="-5.0266227722168">
        <ele>1413.81713867188</ele>
        <time>2018-07-28T08:40:19Z</time>
      </trkpt>
      <trkpt lat="36.702995300293" lon="-5.0266227722168">
        <ele>1413.81713867188</ele>
        <time>2018-07-28T08:40:20Z</time>
      </trkpt>
      <trkpt lat="36.7029991149902" lon="-5.0266227722168">
        <ele>1413.64990234375</ele>
        <time>2018-07-28T08:40:21Z</time>
      </trkpt>
      <trkpt lat="36.7029991149902" lon="-5.0266227722168">
        <ele>1413.64990234375</ele>
        <time>2018-07-28T08:40:22Z</time>
      </trkpt>
      <trkpt lat="36.7029991149902" lon="-5.0266227722168">
        <ele>1413.64990234375</ele>
        <time>2018-07-28T08:40:23Z</time>
      </trkpt>
      <trkpt lat="36.7029991149902" lon="-5.0266227722168">
        <ele>1413.64990234375</ele>
        <time>2018-07-28T08:40:24Z</time>
      </trkpt>
      <trkpt lat="36.7029991149902" lon="-5.0266227722168">
        <ele>1413.64990234375</ele>
        <time>2018-07-28T08:40:25Z</time>
      </trkpt>
      <trkpt lat="36.7029991149902" lon="-5.0266227722168">
        <ele>1413.64990234375</ele>
        <time>2018-07-28T08:40:26Z</time>
      </trkpt>
      <trkpt lat="36.702995300293" lon="-5.02662181854248">
        <ele>1413.83471679688</ele>
        <time>2018-07-28T08:40:27Z</time>
      </trkpt>
      <trkpt lat="36.702995300293" lon="-5.02661991119385">
        <ele>1413.86987304688</ele>
        <time>2018-07-28T08:40:28Z</time>
      </trkpt>
      <trkpt lat="36.702995300293" lon="-5.02661991119385">
        <ele>1413.86987304688</ele>
        <time>2018-07-28T08:40:29Z</time>
      </trkpt>
      <trkpt lat="36.702995300293" lon="-5.02661991119385">
        <ele>1413.86987304688</ele>
        <time>2018-07-28T08:40:30Z</time>
      </trkpt>
      <trkpt lat="36.702995300293" lon="-5.02661895751953">
        <ele>1413.88745117188</ele>
        <time>2018-07-28T08:40:31Z</time>
      </trkpt>
      <trkpt lat="36.702995300293" lon="-5.02661895751953">
        <ele>1413.88745117188</ele>
        <time>2018-07-28T08:40:32Z</time>
      </trkpt>
      <trkpt lat="36.702995300293" lon="-5.02661895751953">
        <ele>1413.88745117188</ele>
        <time>2018-07-28T08:40:33Z</time>
      </trkpt>
      <trkpt lat="36.7029991149902" lon="-5.02661991119385">
        <ele>1413.70275878906</ele>
        <time>2018-07-28T08:40:34Z</time>
      </trkpt>
      <trkpt lat="36.7029991149902" lon="-5.02662086486816">
        <ele>1413.68518066406</ele>
        <time>2018-07-28T08:40:35Z</time>
      </trkpt>
      <trkpt lat="36.7029991149902" lon="-5.0266227722168">
        <ele>1413.64990234375</ele>
        <time>2018-07-28T08:40:36Z</time>
      </trkpt>
      <trkpt lat="36.7029991149902" lon="-5.0266227722168">
        <ele>1413.64990234375</ele>
        <time>2018-07-28T08:40:37Z</time>
      </trkpt>
      <trkpt lat="36.7029991149902" lon="-5.0266227722168">
        <ele>1413.64990234375</ele>
        <time>2018-07-28T08:40:38Z</time>
      </trkpt>
      <trkpt lat="36.7029991149902" lon="-5.0266227722168">
        <ele>1413.64990234375</ele>
        <time>2018-07-28T08:40:39Z</time>
      </trkpt>
      <trkpt lat="36.7029991149902" lon="-5.0266227722168">
        <ele>1413.64990234375</ele>
        <time>2018-07-28T08:40:40Z</time>
      </trkpt>
      <trkpt lat="36.7029991149902" lon="-5.0266227722168">
        <ele>1413.64990234375</ele>
        <time>2018-07-28T08:40:41Z</time>
      </trkpt>
      <trkpt lat="36.7029991149902" lon="-5.0266227722168">
        <ele>1413.64990234375</ele>
        <time>2018-07-28T08:40:42Z</time>
      </trkpt>
      <trkpt lat="36.7029991149902" lon="-5.02662086486816">
        <ele>1413.68518066406</ele>
        <time>2018-07-28T08:40:43Z</time>
      </trkpt>
      <trkpt lat="36.7029991149902" lon="-5.02661895751953">
        <ele>1413.72045898438</ele>
        <time>2018-07-28T08:40:44Z</time>
      </trkpt>
      <trkpt lat="36.7029991149902" lon="-5.02661323547363">
        <ele>1413.82604980469</ele>
        <time>2018-07-28T08:40:45Z</time>
      </trkpt>
      <trkpt lat="36.7029991149902" lon="-5.02660512924194">
        <ele>1413.97583007812</ele>
        <time>2018-07-28T08:40:46Z</time>
      </trkpt>
      <trkpt lat="36.702995300293" lon="-5.02659606933594">
        <ele>1414.30895996094</ele>
        <time>2018-07-28T08:40:47Z</time>
      </trkpt>
      <trkpt lat="36.7029914855957" lon="-5.0265908241272">
        <ele>1414.5712890625</ele>
        <time>2018-07-28T08:40:48Z</time>
      </trkpt>
      <trkpt lat="36.7029876708984" lon="-5.0265941619873">
        <ele>1414.67565917969</ele>
        <time>2018-07-28T08:40:49Z</time>
      </trkpt>
      <trkpt lat="36.7029838562012" lon="-5.02660179138184">
        <ele>1414.7021484375</ele>
        <time>2018-07-28T08:40:50Z</time>
      </trkpt>
      <trkpt lat="36.7029876708984" lon="-5.02660989761353">
        <ele>1414.38745117188</ele>
        <time>2018-07-28T08:40:51Z</time>
      </trkpt>
      <trkpt lat="36.7029876708984" lon="-5.02661609649658">
        <ele>1414.27392578125</ele>
        <time>2018-07-28T08:40:52Z</time>
      </trkpt>
      <trkpt lat="36.7029876708984" lon="-5.02661895751953">
        <ele>1414.22143554688</ele>
        <time>2018-07-28T08:40:53Z</time>
      </trkpt>
      <trkpt lat="36.7029876708984" lon="-5.02661991119385">
        <ele>1414.20397949219</ele>
        <time>2018-07-28T08:40:54Z</time>
      </trkpt>
      <trkpt lat="36.7029876708984" lon="-5.02662086486816">
        <ele>1414.1865234375</ele>
        <time>2018-07-28T08:40:55Z</time>
      </trkpt>
      <trkpt lat="36.7029914855957" lon="-5.02662086486816">
        <ele>1414.01940917969</ele>
        <time>2018-07-28T08:40:56Z</time>
      </trkpt>
      <trkpt lat="36.7029914855957" lon="-5.02662181854248">
        <ele>1414.00183105469</ele>
        <time>2018-07-28T08:40:57Z</time>
      </trkpt>
      <trkpt lat="36.7029876708984" lon="-5.02662181854248">
        <ele>1414.16906738281</ele>
        <time>2018-07-28T08:40:58Z</time>
      </trkpt>
      <trkpt lat="36.7029876708984" lon="-5.02662181854248">
        <ele>1414.16906738281</ele>
        <time>2018-07-28T08:40:59Z</time>
      </trkpt>
      <trkpt lat="36.7029876708984" lon="-5.02662181854248">
        <ele>1414.16906738281</ele>
        <time>2018-07-28T08:41:00Z</time>
      </trkpt>
      <trkpt lat="36.7029876708984" lon="-5.02662086486816">
        <ele>1414.1865234375</ele>
        <time>2018-07-28T08:41:01Z</time>
      </trkpt>
      <trkpt lat="36.7029914855957" lon="-5.02662086486816">
        <ele>1414.01940917969</ele>
        <time>2018-07-28T08:41:02Z</time>
      </trkpt>
      <trkpt lat="36.7029914855957" lon="-5.02662086486816">
        <ele>1414.01940917969</ele>
        <time>2018-07-28T08:41:03Z</time>
      </trkpt>
      <trkpt lat="36.7029914855957" lon="-5.02662086486816">
        <ele>1414.01940917969</ele>
        <time>2018-07-28T08:41:04Z</time>
      </trkpt>
      <trkpt lat="36.7029914855957" lon="-5.02662086486816">
        <ele>1414.01940917969</ele>
        <time>2018-07-28T08:41:05Z</time>
      </trkpt>
      <trkpt lat="36.7029914855957" lon="-5.02661991119385">
        <ele>1414.03686523438</ele>
        <time>2018-07-28T08:41:06Z</time>
      </trkpt>
      <trkpt lat="36.7029914855957" lon="-5.02661895751953">
        <ele>1414.05444335938</ele>
        <time>2018-07-28T08:41:07Z</time>
      </trkpt>
      <trkpt lat="36.7029914855957" lon="-5.02661609649658">
        <ele>1414.10705566406</ele>
        <time>2018-07-28T08:41:08Z</time>
      </trkpt>
      <trkpt lat="36.7029914855957" lon="-5.02661418914795">
        <ele>1414.14208984375</ele>
        <time>2018-07-28T08:41:09Z</time>
      </trkpt>
      <trkpt lat="36.702995300293" lon="-5.02661418914795">
        <ele>1413.97521972656</ele>
        <time>2018-07-28T08:41:10Z</time>
      </trkpt>
      <trkpt lat="36.702995300293" lon="-5.02661418914795">
        <ele>1413.97521972656</ele>
        <time>2018-07-28T08:41:11Z</time>
      </trkpt>
      <trkpt lat="36.702995300293" lon="-5.02661418914795">
        <ele>1413.97521972656</ele>
        <time>2018-07-28T08:41:12Z</time>
      </trkpt>
      <trkpt lat="36.702995300293" lon="-5.02661418914795">
        <ele>1413.97521972656</ele>
        <time>2018-07-28T08:41:13Z</time>
      </trkpt>
      <trkpt lat="36.7029991149902" lon="-5.02661418914795">
        <ele>1413.80847167969</ele>
        <time>2018-07-28T08:41:14Z</time>
      </trkpt>
      <trkpt lat="36.7029991149902" lon="-5.02661418914795">
        <ele>1413.80847167969</ele>
        <time>2018-07-28T08:41:15Z</time>
      </trkpt>
      <trkpt lat="36.7029991149902" lon="-5.02661418914795">
        <ele>1413.80847167969</ele>
        <time>2018-07-28T08:41:16Z</time>
      </trkpt>
      <trkpt lat="36.7029991149902" lon="-5.02661323547363">
        <ele>1413.82604980469</ele>
        <time>2018-07-28T08:41:17Z</time>
      </trkpt>
      <trkpt lat="36.7029991149902" lon="-5.02661180496216">
        <ele>1413.8525390625</ele>
        <time>2018-07-28T08:41:18Z</time>
      </trkpt>
      <trkpt lat="36.7029991149902" lon="-5.02661180496216">
        <ele>1413.8525390625</ele>
        <time>2018-07-28T08:41:19Z</time>
      </trkpt>
      <trkpt lat="36.702995300293" lon="-5.02661085128784">
        <ele>1414.03674316406</ele>
        <time>2018-07-28T08:41:20Z</time>
      </trkpt>
      <trkpt lat="36.702995300293" lon="-5.02661085128784">
        <ele>1414.03674316406</ele>
        <time>2018-07-28T08:41:21Z</time>
      </trkpt>
      <trkpt lat="36.702995300293" lon="-5.02660989761353">
        <ele>1414.05432128906</ele>
        <time>2018-07-28T08:41:22Z</time>
      </trkpt>
      <trkpt lat="36.702995300293" lon="-5.02660894393921">
        <ele>1414.07189941406</ele>
        <time>2018-07-28T08:41:23Z</time>
      </trkpt>
      <trkpt lat="36.702995300293" lon="-5.02660894393921">
        <ele>1414.07189941406</ele>
        <time>2018-07-28T08:41:24Z</time>
      </trkpt>
      <trkpt lat="36.7029914855957" lon="-5.02661085128784">
        <ele>1414.20336914062</ele>
        <time>2018-07-28T08:41:25Z</time>
      </trkpt>
      <trkpt lat="36.7029914855957" lon="-5.02661180496216">
        <ele>1414.18579101562</ele>
        <time>2018-07-28T08:41:26Z</time>
      </trkpt>
      <trkpt lat="36.7029914855957" lon="-5.02661323547363">
        <ele>1414.15954589844</ele>
        <time>2018-07-28T08:41:27Z</time>
      </trkpt>
      <trkpt lat="36.7029914855957" lon="-5.02661180496216">
        <ele>1414.18579101562</ele>
        <time>2018-07-28T08:41:28Z</time>
      </trkpt>
      <trkpt lat="36.7029914855957" lon="-5.02661180496216">
        <ele>1414.18579101562</ele>
        <time>2018-07-28T08:41:29Z</time>
      </trkpt>
      <trkpt lat="36.7029914855957" lon="-5.02661180496216">
        <ele>1414.18579101562</ele>
        <time>2018-07-28T08:41:30Z</time>
      </trkpt>
      <trkpt lat="36.7029914855957" lon="-5.02661323547363">
        <ele>1414.15954589844</ele>
        <time>2018-07-28T08:41:31Z</time>
      </trkpt>
      <trkpt lat="36.7029914855957" lon="-5.02661180496216">
        <ele>1414.18579101562</ele>
        <time>2018-07-28T08:41:32Z</time>
      </trkpt>
      <trkpt lat="36.7029914855957" lon="-5.02661180496216">
        <ele>1414.18579101562</ele>
        <time>2018-07-28T08:41:33Z</time>
      </trkpt>
      <trkpt lat="36.7029876708984" lon="-5.02661323547363">
        <ele>1414.32629394531</ele>
        <time>2018-07-28T08:41:34Z</time>
      </trkpt>
      <trkpt lat="36.7029876708984" lon="-5.02661323547363">
        <ele>1414.32629394531</ele>
        <time>2018-07-28T08:41:35Z</time>
      </trkpt>
      <trkpt lat="36.7029914855957" lon="-5.02661418914795">
        <ele>1414.14208984375</ele>
        <time>2018-07-28T08:41:36Z</time>
      </trkpt>
      <trkpt lat="36.7029914855957" lon="-5.02661418914795">
        <ele>1414.14208984375</ele>
        <time>2018-07-28T08:41:37Z</time>
      </trkpt>
      <trkpt lat="36.7029914855957" lon="-5.02661418914795">
        <ele>1414.14208984375</ele>
        <time>2018-07-28T08:41:38Z</time>
      </trkpt>
      <trkpt lat="36.7029914855957" lon="-5.02661418914795">
        <ele>1414.14208984375</ele>
        <time>2018-07-28T08:41:39Z</time>
      </trkpt>
      <trkpt lat="36.7029914855957" lon="-5.02661323547363">
        <ele>1414.15954589844</ele>
        <time>2018-07-28T08:41:40Z</time>
      </trkpt>
      <trkpt lat="36.7029914855957" lon="-5.02661323547363">
        <ele>1414.15954589844</ele>
        <time>2018-07-28T08:41:41Z</time>
      </trkpt>
      <trkpt lat="36.7029914855957" lon="-5.02661323547363">
        <ele>1414.15954589844</ele>
        <time>2018-07-28T08:41:42Z</time>
      </trkpt>
      <trkpt lat="36.7029914855957" lon="-5.02661180496216">
        <ele>1414.18579101562</ele>
        <time>2018-07-28T08:41:43Z</time>
      </trkpt>
      <trkpt lat="36.7029876708984" lon="-5.02661180496216">
        <ele>1414.3525390625</ele>
        <time>2018-07-28T08:41:44Z</time>
      </trkpt>
      <trkpt lat="36.7029876708984" lon="-5.02661180496216">
        <ele>1414.3525390625</ele>
        <time>2018-07-28T08:41:45Z</time>
      </trkpt>
      <trkpt lat="36.7029876708984" lon="-5.02661180496216">
        <ele>1414.3525390625</ele>
        <time>2018-07-28T08:41:46Z</time>
      </trkpt>
      <trkpt lat="36.7029876708984" lon="-5.02661180496216">
        <ele>1414.3525390625</ele>
        <time>2018-07-28T08:41:47Z</time>
      </trkpt>
      <trkpt lat="36.7029876708984" lon="-5.02661180496216">
        <ele>1414.3525390625</ele>
        <time>2018-07-28T08:41:48Z</time>
      </trkpt>
      <trkpt lat="36.7029876708984" lon="-5.02661323547363">
        <ele>1414.32629394531</ele>
        <time>2018-07-28T08:41:49Z</time>
      </trkpt>
      <trkpt lat="36.7029876708984" lon="-5.02661418914795">
        <ele>1414.30883789062</ele>
        <time>2018-07-28T08:41:50Z</time>
      </trkpt>
      <trkpt lat="36.7029838562012" lon="-5.02661418914795">
        <ele>1414.4755859375</ele>
        <time>2018-07-28T08:41:51Z</time>
      </trkpt>
      <trkpt lat="36.7029838562012" lon="-5.02661418914795">
        <ele>1414.4755859375</ele>
        <time>2018-07-28T08:41:52Z</time>
      </trkpt>
      <trkpt lat="36.7029838562012" lon="-5.02661514282227">
        <ele>1414.45812988281</ele>
        <time>2018-07-28T08:41:53Z</time>
      </trkpt>
      <trkpt lat="36.7029838562012" lon="-5.02661514282227">
        <ele>1414.45812988281</ele>
        <time>2018-07-28T08:41:54Z</time>
      </trkpt>
      <trkpt lat="36.7029838562012" lon="-5.02661514282227">
        <ele>1414.45812988281</ele>
        <time>2018-07-28T08:41:55Z</time>
      </trkpt>
      <trkpt lat="36.7029876708984" lon="-5.02661418914795">
        <ele>1414.30883789062</ele>
        <time>2018-07-28T08:41:56Z</time>
      </trkpt>
      <trkpt lat="36.7029876708984" lon="-5.02661323547363">
        <ele>1414.32629394531</ele>
        <time>2018-07-28T08:41:57Z</time>
      </trkpt>
      <trkpt lat="36.7029876708984" lon="-5.02661323547363">
        <ele>1414.32629394531</ele>
        <time>2018-07-28T08:41:58Z</time>
      </trkpt>
      <trkpt lat="36.7029876708984" lon="-5.02661418914795">
        <ele>1414.30883789062</ele>
        <time>2018-07-28T08:41:59Z</time>
      </trkpt>
      <trkpt lat="36.7029876708984" lon="-5.02661418914795">
        <ele>1414.30883789062</ele>
        <time>2018-07-28T08:42:00Z</time>
      </trkpt>
      <trkpt lat="36.7029876708984" lon="-5.02661323547363">
        <ele>1414.32629394531</ele>
        <time>2018-07-28T08:42:01Z</time>
      </trkpt>
      <trkpt lat="36.7029876708984" lon="-5.02661180496216">
        <ele>1414.3525390625</ele>
        <time>2018-07-28T08:42:02Z</time>
      </trkpt>
      <trkpt lat="36.7029876708984" lon="-5.02661085128784">
        <ele>1414.36999511719</ele>
        <time>2018-07-28T08:42:03Z</time>
      </trkpt>
      <trkpt lat="36.7029838562012" lon="-5.02661085128784">
        <ele>1414.53662109375</ele>
        <time>2018-07-28T08:42:04Z</time>
      </trkpt>
      <trkpt lat="36.7029838562012" lon="-5.02660989761353">
        <ele>1414.55395507812</ele>
        <time>2018-07-28T08:42:05Z</time>
      </trkpt>
      <trkpt lat="36.7029838562012" lon="-5.02660989761353">
        <ele>1414.55395507812</ele>
        <time>2018-07-28T08:42:06Z</time>
      </trkpt>
      <trkpt lat="36.7029838562012" lon="-5.02660989761353">
        <ele>1414.55395507812</ele>
        <time>2018-07-28T08:42:07Z</time>
      </trkpt>
      <trkpt lat="36.7029838562012" lon="-5.02660894393921">
        <ele>1414.57141113281</ele>
        <time>2018-07-28T08:42:08Z</time>
      </trkpt>
      <trkpt lat="36.7029876708984" lon="-5.02660799026489">
        <ele>1414.42236328125</ele>
        <time>2018-07-28T08:42:09Z</time>
      </trkpt>
      <trkpt lat="36.7029876708984" lon="-5.02660703659058">
        <ele>1414.43981933594</ele>
        <time>2018-07-28T08:42:10Z</time>
      </trkpt>
      <trkpt lat="36.7029876708984" lon="-5.02660512924194">
        <ele>1414.47473144531</ele>
        <time>2018-07-28T08:42:11Z</time>
      </trkpt>
      <trkpt lat="36.7029876708984" lon="-5.02660417556763">
        <ele>1414.49230957031</ele>
        <time>2018-07-28T08:42:12Z</time>
      </trkpt>
      <trkpt lat="36.7029914855957" lon="-5.02660179138184">
        <ele>1414.36975097656</ele>
        <time>2018-07-28T08:42:13Z</time>
      </trkpt>
      <trkpt lat="36.7029914855957" lon="-5.0265998840332">
        <ele>1414.40478515625</ele>
        <time>2018-07-28T08:42:14Z</time>
      </trkpt>
      <trkpt lat="36.7029914855957" lon="-5.02659893035889">
        <ele>1414.42236328125</ele>
        <time>2018-07-28T08:42:15Z</time>
      </trkpt>
      <trkpt lat="36.7029914855957" lon="-5.02659797668457">
        <ele>1414.43981933594</ele>
        <time>2018-07-28T08:42:16Z</time>
      </trkpt>
      <trkpt lat="36.7029914855957" lon="-5.02659797668457">
        <ele>1414.43981933594</ele>
        <time>2018-07-28T08:42:17Z</time>
      </trkpt>
      <trkpt lat="36.7029914855957" lon="-5.02659893035889">
        <ele>1414.42236328125</ele>
        <time>2018-07-28T08:42:18Z</time>
      </trkpt>
      <trkpt lat="36.7029914855957" lon="-5.0265998840332">
        <ele>1414.40478515625</ele>
        <time>2018-07-28T08:42:19Z</time>
      </trkpt>
      <trkpt lat="36.7029914855957" lon="-5.0265998840332">
        <ele>1414.40478515625</ele>
        <time>2018-07-28T08:42:20Z</time>
      </trkpt>
      <trkpt lat="36.7029876708984" lon="-5.0265998840332">
        <ele>1414.57092285156</ele>
        <time>2018-07-28T08:42:21Z</time>
      </trkpt>
      <trkpt lat="36.7029876708984" lon="-5.02660083770752">
        <ele>1414.55346679688</ele>
        <time>2018-07-28T08:42:22Z</time>
      </trkpt>
      <trkpt lat="36.7029876708984" lon="-5.02660179138184">
        <ele>1414.53588867188</ele>
        <time>2018-07-28T08:42:23Z</time>
      </trkpt>
      <trkpt lat="36.7029876708984" lon="-5.02660322189331">
        <ele>1414.509765625</ele>
        <time>2018-07-28T08:42:24Z</time>
      </trkpt>
      <trkpt lat="36.7029914855957" lon="-5.02660322189331">
        <ele>1414.34350585938</ele>
        <time>2018-07-28T08:42:25Z</time>
      </trkpt>
      <trkpt lat="36.7029914855957" lon="-5.02660417556763">
        <ele>1414.32592773438</ele>
        <time>2018-07-28T08:42:26Z</time>
      </trkpt>
      <trkpt lat="36.7029876708984" lon="-5.02660512924194">
        <ele>1414.47473144531</ele>
        <time>2018-07-28T08:42:27Z</time>
      </trkpt>
      <trkpt lat="36.7029876708984" lon="-5.02660608291626">
        <ele>1414.45727539062</ele>
        <time>2018-07-28T08:42:28Z</time>
      </trkpt>
      <trkpt lat="36.7029876708984" lon="-5.02660608291626">
        <ele>1414.45727539062</ele>
        <time>2018-07-28T08:42:29Z</time>
      </trkpt>
      <trkpt lat="36.7029876708984" lon="-5.02660703659058">
        <ele>1414.43981933594</ele>
        <time>2018-07-28T08:42:30Z</time>
      </trkpt>
      <trkpt lat="36.7029876708984" lon="-5.02660799026489">
        <ele>1414.42236328125</ele>
        <time>2018-07-28T08:42:31Z</time>
      </trkpt>
      <trkpt lat="36.7029876708984" lon="-5.02660799026489">
        <ele>1414.42236328125</ele>
        <time>2018-07-28T08:42:32Z</time>
      </trkpt>
      <trkpt lat="36.7029876708984" lon="-5.02660799026489">
        <ele>1414.42236328125</ele>
        <time>2018-07-28T08:42:33Z</time>
      </trkpt>
      <trkpt lat="36.7029876708984" lon="-5.02660799026489">
        <ele>1414.42236328125</ele>
        <time>2018-07-28T08:42:34Z</time>
      </trkpt>
      <trkpt lat="36.7029876708984" lon="-5.02660799026489">
        <ele>1414.42236328125</ele>
        <time>2018-07-28T08:42:35Z</time>
      </trkpt>
      <trkpt lat="36.7029914855957" lon="-5.02660703659058">
        <ele>1414.2734375</ele>
        <time>2018-07-28T08:42:36Z</time>
      </trkpt>
      <trkpt lat="36.7029914855957" lon="-5.02660703659058">
        <ele>1414.2734375</ele>
        <time>2018-07-28T08:42:37Z</time>
      </trkpt>
      <trkpt lat="36.7029914855957" lon="-5.02660608291626">
        <ele>1414.29089355469</ele>
        <time>2018-07-28T08:42:38Z</time>
      </trkpt>
      <trkpt lat="36.7029914855957" lon="-5.02660608291626">
        <ele>1414.29089355469</ele>
        <time>2018-07-28T08:42:39Z</time>
      </trkpt>
      <trkpt lat="36.7029914855957" lon="-5.02660512924194">
        <ele>1414.30847167969</ele>
        <time>2018-07-28T08:42:40Z</time>
      </trkpt>
      <trkpt lat="36.7029914855957" lon="-5.02660512924194">
        <ele>1414.30847167969</ele>
        <time>2018-07-28T08:42:41Z</time>
      </trkpt>
      <trkpt lat="36.7029914855957" lon="-5.02660512924194">
        <ele>1414.30847167969</ele>
        <time>2018-07-28T08:42:42Z</time>
      </trkpt>
      <trkpt lat="36.7029876708984" lon="-5.02660417556763">
        <ele>1414.49230957031</ele>
        <time>2018-07-28T08:42:43Z</time>
      </trkpt>
      <trkpt lat="36.7029876708984" lon="-5.02660417556763">
        <ele>1414.49230957031</ele>
        <time>2018-07-28T08:42:44Z</time>
      </trkpt>
      <trkpt lat="36.7029876708984" lon="-5.02660417556763">
        <ele>1414.49230957031</ele>
        <time>2018-07-28T08:42:45Z</time>
      </trkpt>
      <trkpt lat="36.7029876708984" lon="-5.02660322189331">
        <ele>1414.509765625</ele>
        <time>2018-07-28T08:42:46Z</time>
      </trkpt>
      <trkpt lat="36.7029876708984" lon="-5.02660179138184">
        <ele>1414.53588867188</ele>
        <time>2018-07-28T08:42:47Z</time>
      </trkpt>
      <trkpt lat="36.7029876708984" lon="-5.02660083770752">
        <ele>1414.55346679688</ele>
        <time>2018-07-28T08:42:48Z</time>
      </trkpt>
      <trkpt lat="36.7029876708984" lon="-5.02660083770752">
        <ele>1414.55346679688</ele>
        <time>2018-07-28T08:42:49Z</time>
      </trkpt>
      <trkpt lat="36.7029876708984" lon="-5.02659893035889">
        <ele>1414.58837890625</ele>
        <time>2018-07-28T08:42:50Z</time>
      </trkpt>
      <trkpt lat="36.7029876708984" lon="-5.02659702301025">
        <ele>1414.62329101562</ele>
        <time>2018-07-28T08:42:51Z</time>
      </trkpt>
      <trkpt lat="36.7029876708984" lon="-5.02659511566162">
        <ele>1414.658203125</ele>
        <time>2018-07-28T08:42:52Z</time>
      </trkpt>
      <trkpt lat="36.7029876708984" lon="-5.02659320831299">
        <ele>1414.69323730469</ele>
        <time>2018-07-28T08:42:53Z</time>
      </trkpt>
      <trkpt lat="36.7029876708984" lon="-5.0265908241272">
        <ele>1414.73681640625</ele>
        <time>2018-07-28T08:42:54Z</time>
      </trkpt>
      <trkpt lat="36.7029876708984" lon="-5.0265908241272">
        <ele>1414.73681640625</ele>
        <time>2018-07-28T08:42:55Z</time>
      </trkpt>
      <trkpt lat="36.7029876708984" lon="-5.0265908241272">
        <ele>1414.73681640625</ele>
        <time>2018-07-28T08:42:56Z</time>
      </trkpt>
      <trkpt lat="36.7029876708984" lon="-5.02659177780151">
        <ele>1414.71936035156</ele>
        <time>2018-07-28T08:42:57Z</time>
      </trkpt>
      <trkpt lat="36.7029876708984" lon="-5.0265941619873">
        <ele>1414.67565917969</ele>
        <time>2018-07-28T08:42:58Z</time>
      </trkpt>
      <trkpt lat="36.7029876708984" lon="-5.02659511566162">
        <ele>1414.658203125</ele>
        <time>2018-07-28T08:42:59Z</time>
      </trkpt>
      <trkpt lat="36.7029876708984" lon="-5.02659702301025">
        <ele>1414.62329101562</ele>
        <time>2018-07-28T08:43:00Z</time>
      </trkpt>
      <trkpt lat="36.7029838562012" lon="-5.02659797668457">
        <ele>1414.77185058594</ele>
        <time>2018-07-28T08:43:01Z</time>
      </trkpt>
      <trkpt lat="36.7029838562012" lon="-5.02659893035889">
        <ele>1414.75439453125</ele>
        <time>2018-07-28T08:43:02Z</time>
      </trkpt>
      <trkpt lat="36.7029838562012" lon="-5.0265998840332">
        <ele>1414.73693847656</ele>
        <time>2018-07-28T08:43:03Z</time>
      </trkpt>
      <trkpt lat="36.7029838562012" lon="-5.02660083770752">
        <ele>1414.71948242188</ele>
        <time>2018-07-28T08:43:04Z</time>
      </trkpt>
      <trkpt lat="36.7029800415039" lon="-5.02660179138184">
        <ele>1414.86828613281</ele>
        <time>2018-07-28T08:43:05Z</time>
      </trkpt>
      <trkpt lat="36.7029800415039" lon="-5.02660179138184">
        <ele>1414.86828613281</ele>
        <time>2018-07-28T08:43:06Z</time>
      </trkpt>
      <trkpt lat="36.7029762268066" lon="-5.02660083770752">
        <ele>1415.0517578125</ele>
        <time>2018-07-28T08:43:07Z</time>
      </trkpt>
      <trkpt lat="36.7029762268066" lon="-5.02659893035889">
        <ele>1415.08642578125</ele>
        <time>2018-07-28T08:43:08Z</time>
      </trkpt>
      <trkpt lat="36.7029724121094" lon="-5.02659702301025">
        <ele>1415.28698730469</ele>
        <time>2018-07-28T08:43:09Z</time>
      </trkpt>
      <trkpt lat="36.7029724121094" lon="-5.02659606933594">
        <ele>1415.30432128906</ele>
        <time>2018-07-28T08:43:10Z</time>
      </trkpt>
      <trkpt lat="36.7029724121094" lon="-5.02659606933594">
        <ele>1415.30432128906</ele>
        <time>2018-07-28T08:43:11Z</time>
      </trkpt>
      <trkpt lat="36.7029724121094" lon="-5.02659511566162">
        <ele>1415.32153320312</ele>
        <time>2018-07-28T08:43:12Z</time>
      </trkpt>
      <trkpt lat="36.7029724121094" lon="-5.02659511566162">
        <ele>1415.32153320312</ele>
        <time>2018-07-28T08:43:13Z</time>
      </trkpt>
      <trkpt lat="36.7029724121094" lon="-5.02659511566162">
        <ele>1415.32153320312</ele>
        <time>2018-07-28T08:43:14Z</time>
      </trkpt>
      <trkpt lat="36.7029724121094" lon="-5.02659511566162">
        <ele>1415.32153320312</ele>
        <time>2018-07-28T08:43:15Z</time>
      </trkpt>
      <trkpt lat="36.7029724121094" lon="-5.02659511566162">
        <ele>1415.32153320312</ele>
        <time>2018-07-28T08:43:16Z</time>
      </trkpt>
      <trkpt lat="36.7029724121094" lon="-5.02659511566162">
        <ele>1415.32153320312</ele>
        <time>2018-07-28T08:43:17Z</time>
      </trkpt>
      <trkpt lat="36.7029724121094" lon="-5.02659511566162">
        <ele>1415.32153320312</ele>
        <time>2018-07-28T08:43:18Z</time>
      </trkpt>
      <trkpt lat="36.7029724121094" lon="-5.02659511566162">
        <ele>1415.32153320312</ele>
        <time>2018-07-28T08:43:19Z</time>
      </trkpt>
      <trkpt lat="36.7029724121094" lon="-5.02659511566162">
        <ele>1415.32153320312</ele>
        <time>2018-07-28T08:43:20Z</time>
      </trkpt>
      <trkpt lat="36.7029724121094" lon="-5.02659511566162">
        <ele>1415.32153320312</ele>
        <time>2018-07-28T08:43:21Z</time>
      </trkpt>
      <trkpt lat="36.7029724121094" lon="-5.02659511566162">
        <ele>1415.32153320312</ele>
        <time>2018-07-28T08:43:22Z</time>
      </trkpt>
      <trkpt lat="36.7029724121094" lon="-5.02659606933594">
        <ele>1415.30432128906</ele>
        <time>2018-07-28T08:43:23Z</time>
      </trkpt>
      <trkpt lat="36.7029724121094" lon="-5.02659606933594">
        <ele>1415.30432128906</ele>
        <time>2018-07-28T08:43:24Z</time>
      </trkpt>
      <trkpt lat="36.7029724121094" lon="-5.02659702301025">
        <ele>1415.28698730469</ele>
        <time>2018-07-28T08:43:25Z</time>
      </trkpt>
      <trkpt lat="36.7029724121094" lon="-5.02659702301025">
        <ele>1415.28698730469</ele>
        <time>2018-07-28T08:43:26Z</time>
      </trkpt>
      <trkpt lat="36.7029724121094" lon="-5.02659797668457">
        <ele>1415.26977539062</ele>
        <time>2018-07-28T08:43:27Z</time>
      </trkpt>
      <trkpt lat="36.7029762268066" lon="-5.02659797668457">
        <ele>1415.10375976562</ele>
        <time>2018-07-28T08:43:28Z</time>
      </trkpt>
      <trkpt lat="36.7029762268066" lon="-5.02659702301025">
        <ele>1415.12109375</ele>
        <time>2018-07-28T08:43:29Z</time>
      </trkpt>
      <trkpt lat="36.7029800415039" lon="-5.02659606933594">
        <ele>1414.97253417969</ele>
        <time>2018-07-28T08:43:30Z</time>
      </trkpt>
      <trkpt lat="36.7029800415039" lon="-5.02659511566162">
        <ele>1414.98986816406</ele>
        <time>2018-07-28T08:43:31Z</time>
      </trkpt>
      <trkpt lat="36.7029762268066" lon="-5.02659511566162">
        <ele>1415.15576171875</ele>
        <time>2018-07-28T08:43:32Z</time>
      </trkpt>
      <trkpt lat="36.7029762268066" lon="-5.02659511566162">
        <ele>1415.15576171875</ele>
        <time>2018-07-28T08:43:33Z</time>
      </trkpt>
      <trkpt lat="36.7029762268066" lon="-5.02659511566162">
        <ele>1415.15576171875</ele>
        <time>2018-07-28T08:43:34Z</time>
      </trkpt>
      <trkpt lat="36.7029762268066" lon="-5.0265941619873">
        <ele>1415.17309570312</ele>
        <time>2018-07-28T08:43:35Z</time>
      </trkpt>
      <trkpt lat="36.7029724121094" lon="-5.0265941619873">
        <ele>1415.3388671875</ele>
        <time>2018-07-28T08:43:36Z</time>
      </trkpt>
      <trkpt lat="36.7029724121094" lon="-5.0265941619873">
        <ele>1415.3388671875</ele>
        <time>2018-07-28T08:43:37Z</time>
      </trkpt>
      <trkpt lat="36.7029724121094" lon="-5.0265941619873">
        <ele>1415.3388671875</ele>
        <time>2018-07-28T08:43:38Z</time>
      </trkpt>
      <trkpt lat="36.7029685974121" lon="-5.0265941619873">
        <ele>1415.50463867188</ele>
        <time>2018-07-28T08:43:39Z</time>
      </trkpt>
      <trkpt lat="36.7029685974121" lon="-5.0265941619873">
        <ele>1415.50463867188</ele>
        <time>2018-07-28T08:43:40Z</time>
      </trkpt>
      <trkpt lat="36.7029685974121" lon="-5.0265941619873">
        <ele>1415.50463867188</ele>
        <time>2018-07-28T08:43:41Z</time>
      </trkpt>
      <trkpt lat="36.7029647827148" lon="-5.0265941619873">
        <ele>1415.67041015625</ele>
        <time>2018-07-28T08:43:42Z</time>
      </trkpt>
      <trkpt lat="36.7029647827148" lon="-5.02659511566162">
        <ele>1415.65319824219</ele>
        <time>2018-07-28T08:43:43Z</time>
      </trkpt>
      <trkpt lat="36.7029647827148" lon="-5.0265941619873">
        <ele>1415.67041015625</ele>
        <time>2018-07-28T08:43:44Z</time>
      </trkpt>
      <trkpt lat="36.7029647827148" lon="-5.02659320831299">
        <ele>1415.68762207031</ele>
        <time>2018-07-28T08:43:45Z</time>
      </trkpt>
      <trkpt lat="36.7029647827148" lon="-5.02659177780151">
        <ele>1415.71337890625</ele>
        <time>2018-07-28T08:43:46Z</time>
      </trkpt>
      <trkpt lat="36.7029647827148" lon="-5.02659177780151">
        <ele>1415.71337890625</ele>
        <time>2018-07-28T08:43:47Z</time>
      </trkpt>
      <trkpt lat="36.7029647827148" lon="-5.02659177780151">
        <ele>1415.71337890625</ele>
        <time>2018-07-28T08:43:48Z</time>
      </trkpt>
      <trkpt lat="36.7029647827148" lon="-5.02659320831299">
        <ele>1415.68762207031</ele>
        <time>2018-07-28T08:43:49Z</time>
      </trkpt>
      <trkpt lat="36.7029647827148" lon="-5.0265941619873">
        <ele>1415.67041015625</ele>
        <time>2018-07-28T08:43:50Z</time>
      </trkpt>
      <trkpt lat="36.7029647827148" lon="-5.02659511566162">
        <ele>1415.65319824219</ele>
        <time>2018-07-28T08:43:51Z</time>
      </trkpt>
      <trkpt lat="36.7029647827148" lon="-5.02659511566162">
        <ele>1415.65319824219</ele>
        <time>2018-07-28T08:43:52Z</time>
      </trkpt>
      <trkpt lat="36.7029685974121" lon="-5.0265941619873">
        <ele>1415.50463867188</ele>
        <time>2018-07-28T08:43:53Z</time>
      </trkpt>
      <trkpt lat="36.7029685974121" lon="-5.02659320831299">
        <ele>1415.52185058594</ele>
        <time>2018-07-28T08:43:54Z</time>
      </trkpt>
      <trkpt lat="36.7029685974121" lon="-5.0265908241272">
        <ele>1415.56494140625</ele>
        <time>2018-07-28T08:43:55Z</time>
      </trkpt>
      <trkpt lat="36.7029685974121" lon="-5.02658987045288">
        <ele>1415.58227539062</ele>
        <time>2018-07-28T08:43:56Z</time>
      </trkpt>
      <trkpt lat="36.7029685974121" lon="-5.02658987045288">
        <ele>1415.58227539062</ele>
        <time>2018-07-28T08:43:57Z</time>
      </trkpt>
      <trkpt lat="36.7029685974121" lon="-5.02658891677856">
        <ele>1415.59948730469</ele>
        <time>2018-07-28T08:43:58Z</time>
      </trkpt>
      <trkpt lat="36.7029685974121" lon="-5.02658891677856">
        <ele>1415.59948730469</ele>
        <time>2018-07-28T08:43:59Z</time>
      </trkpt>
      <trkpt lat="36.7029647827148" lon="-5.0265908241272">
        <ele>1415.73059082031</ele>
        <time>2018-07-28T08:44:00Z</time>
      </trkpt>
      <trkpt lat="36.7029609680176" lon="-5.02659320831299">
        <ele>1415.85339355469</ele>
        <time>2018-07-28T08:44:01Z</time>
      </trkpt>
      <trkpt lat="36.7029609680176" lon="-5.02659606933594">
        <ele>1415.80200195312</ele>
        <time>2018-07-28T08:44:02Z</time>
      </trkpt>
      <trkpt lat="36.7029647827148" lon="-5.02659797668457">
        <ele>1415.60168457031</ele>
        <time>2018-07-28T08:44:03Z</time>
      </trkpt>
      <trkpt lat="36.7029647827148" lon="-5.0265998840332">
        <ele>1415.56726074219</ele>
        <time>2018-07-28T08:44:04Z</time>
      </trkpt>
      <trkpt lat="36.7029647827148" lon="-5.02660083770752">
        <ele>1415.55017089844</ele>
        <time>2018-07-28T08:44:05Z</time>
      </trkpt>
      <trkpt lat="36.7029647827148" lon="-5.0265998840332">
        <ele>1415.56726074219</ele>
        <time>2018-07-28T08:44:06Z</time>
      </trkpt>
      <trkpt lat="36.7029647827148" lon="-5.02659893035889">
        <ele>1415.58447265625</ele>
        <time>2018-07-28T08:44:07Z</time>
      </trkpt>
      <trkpt lat="36.7029647827148" lon="-5.02659893035889">
        <ele>1415.58447265625</ele>
        <time>2018-07-28T08:44:08Z</time>
      </trkpt>
      <trkpt lat="36.7029647827148" lon="-5.02659893035889">
        <ele>1415.58447265625</ele>
        <time>2018-07-28T08:44:09Z</time>
      </trkpt>
      <trkpt lat="36.7029609680176" lon="-5.02659893035889">
        <ele>1415.75048828125</ele>
        <time>2018-07-28T08:44:10Z</time>
      </trkpt>
      <trkpt lat="36.7029571533203" lon="-5.02659797668457">
        <ele>1415.93359375</ele>
        <time>2018-07-28T08:44:11Z</time>
      </trkpt>
      <trkpt lat="36.702953338623" lon="-5.02659893035889">
        <ele>1416.08251953125</ele>
        <time>2018-07-28T08:44:12Z</time>
      </trkpt>
      <trkpt lat="36.702953338623" lon="-5.02659893035889">
        <ele>1416.08251953125</ele>
        <time>2018-07-28T08:44:13Z</time>
      </trkpt>
      <trkpt lat="36.702953338623" lon="-5.02659893035889">
        <ele>1416.08251953125</ele>
        <time>2018-07-28T08:44:14Z</time>
      </trkpt>
      <trkpt lat="36.702953338623" lon="-5.02660083770752">
        <ele>1416.04846191406</ele>
        <time>2018-07-28T08:44:15Z</time>
      </trkpt>
      <trkpt lat="36.702953338623" lon="-5.02660417556763">
        <ele>1415.98876953125</ele>
        <time>2018-07-28T08:44:16Z</time>
      </trkpt>
      <trkpt lat="36.702953338623" lon="-5.02660703659058">
        <ele>1415.93762207031</ele>
        <time>2018-07-28T08:44:17Z</time>
      </trkpt>
      <trkpt lat="36.702953338623" lon="-5.02660894393921">
        <ele>1415.90356445312</ele>
        <time>2018-07-28T08:44:18Z</time>
      </trkpt>
      <trkpt lat="36.702953338623" lon="-5.02660989761353">
        <ele>1415.88647460938</ele>
        <time>2018-07-28T08:44:19Z</time>
      </trkpt>
      <trkpt lat="36.702953338623" lon="-5.02661085128784">
        <ele>1415.86950683594</ele>
        <time>2018-07-28T08:44:20Z</time>
      </trkpt>
      <trkpt lat="36.702953338623" lon="-5.02660989761353">
        <ele>1415.88647460938</ele>
        <time>2018-07-28T08:44:21Z</time>
      </trkpt>
      <trkpt lat="36.702953338623" lon="-5.02660894393921">
        <ele>1415.90356445312</ele>
        <time>2018-07-28T08:44:22Z</time>
      </trkpt>
      <trkpt lat="36.702953338623" lon="-5.02660894393921">
        <ele>1415.90356445312</ele>
        <time>2018-07-28T08:44:23Z</time>
      </trkpt>
      <trkpt lat="36.702953338623" lon="-5.02660894393921">
        <ele>1415.90356445312</ele>
        <time>2018-07-28T08:44:24Z</time>
      </trkpt>
      <trkpt lat="36.702953338623" lon="-5.02660894393921">
        <ele>1415.90356445312</ele>
        <time>2018-07-28T08:44:25Z</time>
      </trkpt>
      <trkpt lat="36.702953338623" lon="-5.02660894393921">
        <ele>1415.90356445312</ele>
        <time>2018-07-28T08:44:26Z</time>
      </trkpt>
      <trkpt lat="36.702953338623" lon="-5.02660894393921">
        <ele>1415.90356445312</ele>
        <time>2018-07-28T08:44:27Z</time>
      </trkpt>
      <trkpt lat="36.702953338623" lon="-5.02660989761353">
        <ele>1415.88647460938</ele>
        <time>2018-07-28T08:44:28Z</time>
      </trkpt>
      <trkpt lat="36.7029495239258" lon="-5.02661085128784">
        <ele>1416.0361328125</ele>
        <time>2018-07-28T08:44:29Z</time>
      </trkpt>
      <trkpt lat="36.7029495239258" lon="-5.02661085128784">
        <ele>1416.0361328125</ele>
        <time>2018-07-28T08:44:30Z</time>
      </trkpt>
      <trkpt lat="36.7029457092285" lon="-5.02661085128784">
        <ele>1416.20275878906</ele>
        <time>2018-07-28T08:44:31Z</time>
      </trkpt>
      <trkpt lat="36.7029495239258" lon="-5.02661085128784">
        <ele>1416.0361328125</ele>
        <time>2018-07-28T08:44:32Z</time>
      </trkpt>
      <trkpt lat="36.7029495239258" lon="-5.02661085128784">
        <ele>1416.0361328125</ele>
        <time>2018-07-28T08:44:33Z</time>
      </trkpt>
      <trkpt lat="36.7029571533203" lon="-5.02661085128784">
        <ele>1415.70288085938</ele>
        <time>2018-07-28T08:44:34Z</time>
      </trkpt>
      <trkpt lat="36.7029609680176" lon="-5.02661085128784">
        <ele>1415.53625488281</ele>
        <time>2018-07-28T08:44:35Z</time>
      </trkpt>
      <trkpt lat="36.7029685974121" lon="-5.02661180496216">
        <ele>1415.18579101562</ele>
        <time>2018-07-28T08:44:36Z</time>
      </trkpt>
      <trkpt lat="36.7029685974121" lon="-5.02661323547363">
        <ele>1415.15991210938</ele>
        <time>2018-07-28T08:44:37Z</time>
      </trkpt>
      <trkpt lat="36.7029724121094" lon="-5.02661418914795">
        <ele>1414.97595214844</ele>
        <time>2018-07-28T08:44:38Z</time>
      </trkpt>
      <trkpt lat="36.7029724121094" lon="-5.02661180496216">
        <ele>1415.01916503906</ele>
        <time>2018-07-28T08:44:39Z</time>
      </trkpt>
      <trkpt lat="36.7029762268066" lon="-5.02661323547363">
        <ele>1414.82641601562</ele>
        <time>2018-07-28T08:44:40Z</time>
      </trkpt>
      <trkpt lat="36.7029762268066" lon="-5.02661323547363">
        <ele>1414.82641601562</ele>
        <time>2018-07-28T08:44:41Z</time>
      </trkpt>
      <trkpt lat="36.7029724121094" lon="-5.02661323547363">
        <ele>1414.9931640625</ele>
        <time>2018-07-28T08:44:42Z</time>
      </trkpt>
      <trkpt lat="36.7029685974121" lon="-5.02661085128784">
        <ele>1415.20300292969</ele>
        <time>2018-07-28T08:44:43Z</time>
      </trkpt>
      <trkpt lat="36.7029647827148" lon="-5.02661085128784">
        <ele>1415.36962890625</ele>
        <time>2018-07-28T08:44:44Z</time>
      </trkpt>
      <trkpt lat="36.7029647827148" lon="-5.02660989761353">
        <ele>1415.38684082031</ele>
        <time>2018-07-28T08:44:45Z</time>
      </trkpt>
      <trkpt lat="36.7029647827148" lon="-5.02660989761353">
        <ele>1415.38684082031</ele>
        <time>2018-07-28T08:44:46Z</time>
      </trkpt>
      <trkpt lat="36.7029647827148" lon="-5.02660989761353">
        <ele>1415.38684082031</ele>
        <time>2018-07-28T08:44:47Z</time>
      </trkpt>
      <trkpt lat="36.7029647827148" lon="-5.02660989761353">
        <ele>1415.38684082031</ele>
        <time>2018-07-28T08:44:48Z</time>
      </trkpt>
      <trkpt lat="36.7029647827148" lon="-5.02660989761353">
        <ele>1415.38684082031</ele>
        <time>2018-07-28T08:44:49Z</time>
      </trkpt>
      <trkpt lat="36.7029647827148" lon="-5.02660989761353">
        <ele>1415.38684082031</ele>
        <time>2018-07-28T08:44:50Z</time>
      </trkpt>
      <trkpt lat="36.7029647827148" lon="-5.02661085128784">
        <ele>1415.36962890625</ele>
        <time>2018-07-28T08:44:51Z</time>
      </trkpt>
      <trkpt lat="36.7029647827148" lon="-5.02661180496216">
        <ele>1415.35241699219</ele>
        <time>2018-07-28T08:44:52Z</time>
      </trkpt>
      <trkpt lat="36.7029647827148" lon="-5.02661180496216">
        <ele>1415.35241699219</ele>
        <time>2018-07-28T08:44:53Z</time>
      </trkpt>
      <trkpt lat="36.7029685974121" lon="-5.02661323547363">
        <ele>1415.15991210938</ele>
        <time>2018-07-28T08:44:54Z</time>
      </trkpt>
      <trkpt lat="36.7029685974121" lon="-5.02661418914795">
        <ele>1415.14270019531</ele>
        <time>2018-07-28T08:44:55Z</time>
      </trkpt>
      <trkpt lat="36.7029685974121" lon="-5.02661514282227">
        <ele>1415.12548828125</ele>
        <time>2018-07-28T08:44:56Z</time>
      </trkpt>
      <trkpt lat="36.7029685974121" lon="-5.02661514282227">
        <ele>1415.12548828125</ele>
        <time>2018-07-28T08:44:57Z</time>
      </trkpt>
      <trkpt lat="36.7029685974121" lon="-5.02661418914795">
        <ele>1415.14270019531</ele>
        <time>2018-07-28T08:44:58Z</time>
      </trkpt>
      <trkpt lat="36.7029685974121" lon="-5.02661418914795">
        <ele>1415.14270019531</ele>
        <time>2018-07-28T08:44:59Z</time>
      </trkpt>
      <trkpt lat="36.7029724121094" lon="-5.02661323547363">
        <ele>1414.9931640625</ele>
        <time>2018-07-28T08:45:00Z</time>
      </trkpt>
      <trkpt lat="36.7029724121094" lon="-5.02661323547363">
        <ele>1414.9931640625</ele>
        <time>2018-07-28T08:45:01Z</time>
      </trkpt>
      <trkpt lat="36.7029724121094" lon="-5.02661323547363">
        <ele>1414.9931640625</ele>
        <time>2018-07-28T08:45:02Z</time>
      </trkpt>
      <trkpt lat="36.7029685974121" lon="-5.02661323547363">
        <ele>1415.15991210938</ele>
        <time>2018-07-28T08:45:03Z</time>
      </trkpt>
      <trkpt lat="36.7029685974121" lon="-5.02661323547363">
        <ele>1415.15991210938</ele>
        <time>2018-07-28T08:45:04Z</time>
      </trkpt>
      <trkpt lat="36.7029685974121" lon="-5.02661323547363">
        <ele>1415.15991210938</ele>
        <time>2018-07-28T08:45:05Z</time>
      </trkpt>
      <trkpt lat="36.7029724121094" lon="-5.02661180496216">
        <ele>1415.01916503906</ele>
        <time>2018-07-28T08:45:06Z</time>
      </trkpt>
      <trkpt lat="36.7029724121094" lon="-5.02661085128784">
        <ele>1415.03637695312</ele>
        <time>2018-07-28T08:45:07Z</time>
      </trkpt>
      <trkpt lat="36.7029762268066" lon="-5.02660989761353">
        <ele>1414.88708496094</ele>
        <time>2018-07-28T08:45:08Z</time>
      </trkpt>
      <trkpt lat="36.7029762268066" lon="-5.02660894393921">
        <ele>1414.90441894531</ele>
        <time>2018-07-28T08:45:09Z</time>
      </trkpt>
      <trkpt lat="36.7029762268066" lon="-5.02660894393921">
        <ele>1414.90441894531</ele>
        <time>2018-07-28T08:45:10Z</time>
      </trkpt>
      <trkpt lat="36.7029762268066" lon="-5.02660894393921">
        <ele>1414.90441894531</ele>
        <time>2018-07-28T08:45:11Z</time>
      </trkpt>
      <trkpt lat="36.7029800415039" lon="-5.02660894393921">
        <ele>1414.73791503906</ele>
        <time>2018-07-28T08:45:12Z</time>
      </trkpt>
      <trkpt lat="36.7029762268066" lon="-5.02660894393921">
        <ele>1414.90441894531</ele>
        <time>2018-07-28T08:45:13Z</time>
      </trkpt>
      <trkpt lat="36.7029762268066" lon="-5.02660894393921">
        <ele>1414.90441894531</ele>
        <time>2018-07-28T08:45:14Z</time>
      </trkpt>
      <trkpt lat="36.7029762268066" lon="-5.02660989761353">
        <ele>1414.88708496094</ele>
        <time>2018-07-28T08:45:15Z</time>
      </trkpt>
      <trkpt lat="36.7029762268066" lon="-5.02660799026489">
        <ele>1414.92175292969</ele>
        <time>2018-07-28T08:45:16Z</time>
      </trkpt>
      <trkpt lat="36.7029800415039" lon="-5.02660703659058">
        <ele>1414.77270507812</ele>
        <time>2018-07-28T08:45:17Z</time>
      </trkpt>
      <trkpt lat="36.7029838562012" lon="-5.02660417556763">
        <ele>1414.65856933594</ele>
        <time>2018-07-28T08:45:18Z</time>
      </trkpt>
      <trkpt lat="36.7029838562012" lon="-5.02660322189331">
        <ele>1414.67602539062</ele>
        <time>2018-07-28T08:45:19Z</time>
      </trkpt>
      <trkpt lat="36.7029838562012" lon="-5.02660179138184">
        <ele>1414.7021484375</ele>
        <time>2018-07-28T08:45:20Z</time>
      </trkpt>
      <trkpt lat="36.7029838562012" lon="-5.02660179138184">
        <ele>1414.7021484375</ele>
        <time>2018-07-28T08:45:21Z</time>
      </trkpt>
      <trkpt lat="36.7029838562012" lon="-5.02660179138184">
        <ele>1414.7021484375</ele>
        <time>2018-07-28T08:45:22Z</time>
      </trkpt>
      <trkpt lat="36.7029838562012" lon="-5.02660179138184">
        <ele>1414.7021484375</ele>
        <time>2018-07-28T08:45:23Z</time>
      </trkpt>
      <trkpt lat="36.7029838562012" lon="-5.02660083770752">
        <ele>1414.71948242188</ele>
        <time>2018-07-28T08:45:24Z</time>
      </trkpt>
      <trkpt lat="36.7029838562012" lon="-5.02660322189331">
        <ele>1414.67602539062</ele>
        <time>2018-07-28T08:45:25Z</time>
      </trkpt>
      <trkpt lat="36.7029838562012" lon="-5.02660417556763">
        <ele>1414.65856933594</ele>
        <time>2018-07-28T08:45:26Z</time>
      </trkpt>
      <trkpt lat="36.7029838562012" lon="-5.02660608291626">
        <ele>1414.62365722656</ele>
        <time>2018-07-28T08:45:27Z</time>
      </trkpt>
      <trkpt lat="36.7029838562012" lon="-5.02660512924194">
        <ele>1414.64111328125</ele>
        <time>2018-07-28T08:45:28Z</time>
      </trkpt>
      <trkpt lat="36.7029876708984" lon="-5.02660417556763">
        <ele>1414.49230957031</ele>
        <time>2018-07-28T08:45:29Z</time>
      </trkpt>
      <trkpt lat="36.7029914855957" lon="-5.02659893035889">
        <ele>1414.42236328125</ele>
        <time>2018-07-28T08:45:30Z</time>
      </trkpt>
      <trkpt lat="36.702995300293" lon="-5.02659177780151">
        <ele>1414.38806152344</ele>
        <time>2018-07-28T08:45:31Z</time>
      </trkpt>
      <trkpt lat="36.7030029296875" lon="-5.02658414840698">
        <ele>1414.19799804688</ele>
        <time>2018-07-28T08:45:32Z</time>
      </trkpt>
      <trkpt lat="36.703010559082" lon="-5.02657794952393">
        <ele>1413.98278808594</ele>
        <time>2018-07-28T08:45:33Z</time>
      </trkpt>
      <trkpt lat="36.7030143737793" lon="-5.02657318115234">
        <ele>1413.90686035156</ele>
        <time>2018-07-28T08:45:34Z</time>
      </trkpt>
      <trkpt lat="36.7030181884766" lon="-5.02656888961792">
        <ele>1413.82238769531</ele>
        <time>2018-07-28T08:45:35Z</time>
      </trkpt>
      <trkpt lat="36.7030181884766" lon="-5.02656602859497">
        <ele>1413.8759765625</ele>
        <time>2018-07-28T08:45:36Z</time>
      </trkpt>
      <trkpt lat="36.7030181884766" lon="-5.02656602859497">
        <ele>1413.8759765625</ele>
        <time>2018-07-28T08:45:37Z</time>
      </trkpt>
      <trkpt lat="36.7030181884766" lon="-5.0265679359436">
        <ele>1413.84020996094</ele>
        <time>2018-07-28T08:45:38Z</time>
      </trkpt>
      <trkpt lat="36.7030181884766" lon="-5.02656888961792">
        <ele>1413.82238769531</ele>
        <time>2018-07-28T08:45:39Z</time>
      </trkpt>
      <trkpt lat="36.7030181884766" lon="-5.02656888961792">
        <ele>1413.82238769531</ele>
        <time>2018-07-28T08:45:40Z</time>
      </trkpt>
      <trkpt lat="36.7030181884766" lon="-5.02656888961792">
        <ele>1413.82238769531</ele>
        <time>2018-07-28T08:45:41Z</time>
      </trkpt>
      <trkpt lat="36.7030181884766" lon="-5.02656602859497">
        <ele>1413.8759765625</ele>
        <time>2018-07-28T08:45:42Z</time>
      </trkpt>
      <trkpt lat="36.7030181884766" lon="-5.02656507492065">
        <ele>1413.89379882812</ele>
        <time>2018-07-28T08:45:43Z</time>
      </trkpt>
      <trkpt lat="36.7030181884766" lon="-5.02656316757202">
        <ele>1413.92944335938</ele>
        <time>2018-07-28T08:45:44Z</time>
      </trkpt>
      <trkpt lat="36.7030181884766" lon="-5.02656507492065">
        <ele>1413.89379882812</ele>
        <time>2018-07-28T08:45:45Z</time>
      </trkpt>
      <trkpt lat="36.7030181884766" lon="-5.02656602859497">
        <ele>1413.8759765625</ele>
        <time>2018-07-28T08:45:46Z</time>
      </trkpt>
      <trkpt lat="36.7030181884766" lon="-5.02656507492065">
        <ele>1413.89379882812</ele>
        <time>2018-07-28T08:45:47Z</time>
      </trkpt>
      <trkpt lat="36.7030181884766" lon="-5.02656412124634">
        <ele>1413.91162109375</ele>
        <time>2018-07-28T08:45:48Z</time>
      </trkpt>
      <trkpt lat="36.7030181884766" lon="-5.0265622138977">
        <ele>1413.94738769531</ele>
        <time>2018-07-28T08:45:49Z</time>
      </trkpt>
      <trkpt lat="36.7030181884766" lon="-5.0265622138977">
        <ele>1413.94738769531</ele>
        <time>2018-07-28T08:45:50Z</time>
      </trkpt>
      <trkpt lat="36.7030181884766" lon="-5.0265622138977">
        <ele>1413.94738769531</ele>
        <time>2018-07-28T08:45:51Z</time>
      </trkpt>
      <trkpt lat="36.7030181884766" lon="-5.02656507492065">
        <ele>1413.89379882812</ele>
        <time>2018-07-28T08:45:52Z</time>
      </trkpt>
      <trkpt lat="36.703010559082" lon="-5.02656984329224">
        <ele>1414.13366699219</ele>
        <time>2018-07-28T08:45:53Z</time>
      </trkpt>
      <trkpt lat="36.7030029296875" lon="-5.02657508850098">
        <ele>1414.36572265625</ele>
        <time>2018-07-28T08:45:54Z</time>
      </trkpt>
      <trkpt lat="36.7029991149902" lon="-5.02657985687256">
        <ele>1414.44250488281</ele>
        <time>2018-07-28T08:45:55Z</time>
      </trkpt>
      <trkpt lat="36.702995300293" lon="-5.02658605575562">
        <ele>1414.49340820312</ele>
        <time>2018-07-28T08:45:56Z</time>
      </trkpt>
      <trkpt lat="36.7029876708984" lon="-5.02659511566162">
        <ele>1414.658203125</ele>
        <time>2018-07-28T08:45:57Z</time>
      </trkpt>
      <trkpt lat="36.7029800415039" lon="-5.02660322189331">
        <ele>1414.84216308594</ele>
        <time>2018-07-28T08:45:58Z</time>
      </trkpt>
      <trkpt lat="36.7029724121094" lon="-5.02660799026489">
        <ele>1415.08825683594</ele>
        <time>2018-07-28T08:45:59Z</time>
      </trkpt>
      <trkpt lat="36.7029724121094" lon="-5.02661180496216">
        <ele>1415.01916503906</ele>
        <time>2018-07-28T08:46:00Z</time>
      </trkpt>
      <trkpt lat="36.7029685974121" lon="-5.02661609649658">
        <ele>1415.10827636719</ele>
        <time>2018-07-28T08:46:01Z</time>
      </trkpt>
      <trkpt lat="36.7029685974121" lon="-5.02661895751953">
        <ele>1415.05651855469</ele>
        <time>2018-07-28T08:46:02Z</time>
      </trkpt>
      <trkpt lat="36.7029647827148" lon="-5.02662181854248">
        <ele>1415.17199707031</ele>
        <time>2018-07-28T08:46:03Z</time>
      </trkpt>
      <trkpt lat="36.7029647827148" lon="-5.0266227722168">
        <ele>1415.15478515625</ele>
        <time>2018-07-28T08:46:04Z</time>
      </trkpt>
      <trkpt lat="36.7029647827148" lon="-5.0266227722168">
        <ele>1415.15478515625</ele>
        <time>2018-07-28T08:46:05Z</time>
      </trkpt>
      <trkpt lat="36.7029647827148" lon="-5.0266227722168">
        <ele>1415.15478515625</ele>
        <time>2018-07-28T08:46:06Z</time>
      </trkpt>
      <trkpt lat="36.7029647827148" lon="-5.02662181854248">
        <ele>1415.17199707031</ele>
        <time>2018-07-28T08:46:07Z</time>
      </trkpt>
      <trkpt lat="36.7029647827148" lon="-5.0266227722168">
        <ele>1415.15478515625</ele>
        <time>2018-07-28T08:46:08Z</time>
      </trkpt>
      <trkpt lat="36.7029647827148" lon="-5.0266227722168">
        <ele>1415.15478515625</ele>
        <time>2018-07-28T08:46:09Z</time>
      </trkpt>
      <trkpt lat="36.7029647827148" lon="-5.0266227722168">
        <ele>1415.15478515625</ele>
        <time>2018-07-28T08:46:10Z</time>
      </trkpt>
      <trkpt lat="36.7029647827148" lon="-5.02662086486816">
        <ele>1415.18920898438</ele>
        <time>2018-07-28T08:46:11Z</time>
      </trkpt>
      <trkpt lat="36.7029685974121" lon="-5.02661895751953">
        <ele>1415.05651855469</ele>
        <time>2018-07-28T08:46:12Z</time>
      </trkpt>
      <trkpt lat="36.7029685974121" lon="-5.02661514282227">
        <ele>1415.12548828125</ele>
        <time>2018-07-28T08:46:13Z</time>
      </trkpt>
      <trkpt lat="36.7029724121094" lon="-5.02661085128784">
        <ele>1415.03637695312</ele>
        <time>2018-07-28T08:46:14Z</time>
      </trkpt>
      <trkpt lat="36.7029724121094" lon="-5.02660799026489">
        <ele>1415.08825683594</ele>
        <time>2018-07-28T08:46:15Z</time>
      </trkpt>
      <trkpt lat="36.7029724121094" lon="-5.02660703659058">
        <ele>1415.10559082031</ele>
        <time>2018-07-28T08:46:16Z</time>
      </trkpt>
      <trkpt lat="36.7029762268066" lon="-5.02660703659058">
        <ele>1414.93908691406</ele>
        <time>2018-07-28T08:46:17Z</time>
      </trkpt>
      <trkpt lat="36.7029762268066" lon="-5.02660608291626">
        <ele>1414.95642089844</ele>
        <time>2018-07-28T08:46:18Z</time>
      </trkpt>
      <trkpt lat="36.7029762268066" lon="-5.02660608291626">
        <ele>1414.95642089844</ele>
        <time>2018-07-28T08:46:19Z</time>
      </trkpt>
      <trkpt lat="36.7029762268066" lon="-5.02660417556763">
        <ele>1414.99108886719</ele>
        <time>2018-07-28T08:46:20Z</time>
      </trkpt>
      <trkpt lat="36.7029762268066" lon="-5.02660179138184">
        <ele>1415.03442382812</ele>
        <time>2018-07-28T08:46:21Z</time>
      </trkpt>
      <trkpt lat="36.7029762268066" lon="-5.0265998840332">
        <ele>1415.06909179688</ele>
        <time>2018-07-28T08:46:22Z</time>
      </trkpt>
      <trkpt lat="36.7029762268066" lon="-5.02660083770752">
        <ele>1415.0517578125</ele>
        <time>2018-07-28T08:46:23Z</time>
      </trkpt>
      <trkpt lat="36.7029724121094" lon="-5.02660179138184">
        <ele>1415.20056152344</ele>
        <time>2018-07-28T08:46:24Z</time>
      </trkpt>
      <trkpt lat="36.7029724121094" lon="-5.02660417556763">
        <ele>1415.15734863281</ele>
        <time>2018-07-28T08:46:25Z</time>
      </trkpt>
      <trkpt lat="36.7029724121094" lon="-5.02660608291626">
        <ele>1415.12280273438</ele>
        <time>2018-07-28T08:46:26Z</time>
      </trkpt>
      <trkpt lat="36.7029724121094" lon="-5.02660799026489">
        <ele>1415.08825683594</ele>
        <time>2018-07-28T08:46:27Z</time>
      </trkpt>
      <trkpt lat="36.7029724121094" lon="-5.02661085128784">
        <ele>1415.03637695312</ele>
        <time>2018-07-28T08:46:28Z</time>
      </trkpt>
      <trkpt lat="36.7029724121094" lon="-5.02661418914795">
        <ele>1414.97595214844</ele>
        <time>2018-07-28T08:46:29Z</time>
      </trkpt>
      <trkpt lat="36.7029724121094" lon="-5.02661800384522">
        <ele>1414.90673828125</ele>
        <time>2018-07-28T08:46:30Z</time>
      </trkpt>
      <trkpt lat="36.7029685974121" lon="-5.02662086486816">
        <ele>1415.02209472656</ele>
        <time>2018-07-28T08:46:31Z</time>
      </trkpt>
      <trkpt lat="36.7029647827148" lon="-5.0266261100769">
        <ele>1415.09460449219</ele>
        <time>2018-07-28T08:46:32Z</time>
      </trkpt>
      <trkpt lat="36.7029647827148" lon="-5.02663087844849">
        <ele>1415.00866699219</ele>
        <time>2018-07-28T08:46:33Z</time>
      </trkpt>
      <trkpt lat="36.7029609680176" lon="-5.02663516998291">
        <ele>1415.09912109375</ele>
        <time>2018-07-28T08:46:34Z</time>
      </trkpt>
      <trkpt lat="36.7029609680176" lon="-5.02663803100586">
        <ele>1415.04772949219</ele>
        <time>2018-07-28T08:46:35Z</time>
      </trkpt>
      <trkpt lat="36.7029571533203" lon="-5.02664089202881">
        <ele>1415.16442871094</ele>
        <time>2018-07-28T08:46:36Z</time>
      </trkpt>
      <trkpt lat="36.7029571533203" lon="-5.02664279937744">
        <ele>1415.13024902344</ele>
        <time>2018-07-28T08:46:37Z</time>
      </trkpt>
      <trkpt lat="36.702953338623" lon="-5.02664518356323">
        <ele>1415.25573730469</ele>
        <time>2018-07-28T08:46:38Z</time>
      </trkpt>
      <trkpt lat="36.702953338623" lon="-5.02664518356323">
        <ele>1415.25573730469</ele>
        <time>2018-07-28T08:46:39Z</time>
      </trkpt>
      <trkpt lat="36.7029571533203" lon="-5.02664518356323">
        <ele>1415.08752441406</ele>
        <time>2018-07-28T08:46:40Z</time>
      </trkpt>
      <trkpt lat="36.7029571533203" lon="-5.02664184570312">
        <ele>1415.14733886719</ele>
        <time>2018-07-28T08:46:41Z</time>
      </trkpt>
      <trkpt lat="36.7029647827148" lon="-5.02663803100586">
        <ele>1414.87976074219</ele>
        <time>2018-07-28T08:46:42Z</time>
      </trkpt>
      <trkpt lat="36.7029647827148" lon="-5.02663612365723">
        <ele>1414.91418457031</ele>
        <time>2018-07-28T08:46:43Z</time>
      </trkpt>
      <trkpt lat="36.7029685974121" lon="-5.02663278579712">
        <ele>1414.806640625</ele>
        <time>2018-07-28T08:46:44Z</time>
      </trkpt>
      <trkpt lat="36.7029685974121" lon="-5.0266318321228">
        <ele>1414.82385253906</ele>
        <time>2018-07-28T08:46:45Z</time>
      </trkpt>
      <trkpt lat="36.7029724121094" lon="-5.0266318321228">
        <ele>1414.65625</ele>
        <time>2018-07-28T08:46:46Z</time>
      </trkpt>
      <trkpt lat="36.7029724121094" lon="-5.02663087844849">
        <ele>1414.67346191406</ele>
        <time>2018-07-28T08:46:47Z</time>
      </trkpt>
      <trkpt lat="36.7029724121094" lon="-5.0266318321228">
        <ele>1414.65625</ele>
        <time>2018-07-28T08:46:48Z</time>
      </trkpt>
      <trkpt lat="36.7029724121094" lon="-5.02662897109985">
        <ele>1414.7080078125</ele>
        <time>2018-07-28T08:46:49Z</time>
      </trkpt>
      <trkpt lat="36.7029724121094" lon="-5.02662706375122">
        <ele>1414.74255371094</ele>
        <time>2018-07-28T08:46:50Z</time>
      </trkpt>
      <trkpt lat="36.7029685974121" lon="-5.0266227722168">
        <ele>1414.98754882812</ele>
        <time>2018-07-28T08:46:51Z</time>
      </trkpt>
      <trkpt lat="36.7029647827148" lon="-5.02662181854248">
        <ele>1415.17199707031</ele>
        <time>2018-07-28T08:46:52Z</time>
      </trkpt>
      <trkpt lat="36.7029647827148" lon="-5.02661609649658">
        <ele>1415.27514648438</ele>
        <time>2018-07-28T08:46:53Z</time>
      </trkpt>
      <trkpt lat="36.7029609680176" lon="-5.02661180496216">
        <ele>1415.51916503906</ele>
        <time>2018-07-28T08:46:54Z</time>
      </trkpt>
      <trkpt lat="36.7029647827148" lon="-5.02660989761353">
        <ele>1415.38684082031</ele>
        <time>2018-07-28T08:46:55Z</time>
      </trkpt>
      <trkpt lat="36.7029609680176" lon="-5.02661180496216">
        <ele>1415.51916503906</ele>
        <time>2018-07-28T08:46:56Z</time>
      </trkpt>
      <trkpt lat="36.7029647827148" lon="-5.02661418914795">
        <ele>1415.30944824219</ele>
        <time>2018-07-28T08:46:57Z</time>
      </trkpt>
      <trkpt lat="36.7029647827148" lon="-5.02661514282227">
        <ele>1415.29223632812</ele>
        <time>2018-07-28T08:46:58Z</time>
      </trkpt>
      <trkpt lat="36.7029647827148" lon="-5.02661609649658">
        <ele>1415.27514648438</ele>
        <time>2018-07-28T08:46:59Z</time>
      </trkpt>
      <trkpt lat="36.7029647827148" lon="-5.0266170501709">
        <ele>1415.25793457031</ele>
        <time>2018-07-28T08:47:00Z</time>
      </trkpt>
      <trkpt lat="36.7029647827148" lon="-5.02661800384522">
        <ele>1415.24072265625</ele>
        <time>2018-07-28T08:47:01Z</time>
      </trkpt>
      <trkpt lat="36.7029647827148" lon="-5.02661800384522">
        <ele>1415.24072265625</ele>
        <time>2018-07-28T08:47:02Z</time>
      </trkpt>
      <trkpt lat="36.7029647827148" lon="-5.02661895751953">
        <ele>1415.22351074219</ele>
        <time>2018-07-28T08:47:03Z</time>
      </trkpt>
      <trkpt lat="36.7029647827148" lon="-5.02661991119385">
        <ele>1415.20629882812</ele>
        <time>2018-07-28T08:47:04Z</time>
      </trkpt>
      <trkpt lat="36.7029647827148" lon="-5.02661991119385">
        <ele>1415.20629882812</ele>
        <time>2018-07-28T08:47:05Z</time>
      </trkpt>
      <trkpt lat="36.7029609680176" lon="-5.02661895751953">
        <ele>1415.39050292969</ele>
        <time>2018-07-28T08:47:06Z</time>
      </trkpt>
      <trkpt lat="36.7029609680176" lon="-5.02661800384522">
        <ele>1415.40771484375</ele>
        <time>2018-07-28T08:47:07Z</time>
      </trkpt>
      <trkpt lat="36.7029571533203" lon="-5.0266170501709">
        <ele>1415.591796875</ele>
        <time>2018-07-28T08:47:08Z</time>
      </trkpt>
      <trkpt lat="36.7029571533203" lon="-5.02661609649658">
        <ele>1415.60888671875</ele>
        <time>2018-07-28T08:47:09Z</time>
      </trkpt>
      <trkpt lat="36.702953338623" lon="-5.0266170501709">
        <ele>1415.75866699219</ele>
        <time>2018-07-28T08:47:10Z</time>
      </trkpt>
      <trkpt lat="36.702953338623" lon="-5.02662086486816">
        <ele>1415.6904296875</ele>
        <time>2018-07-28T08:47:11Z</time>
      </trkpt>
      <trkpt lat="36.702953338623" lon="-5.0266261100769">
        <ele>1415.5966796875</ele>
        <time>2018-07-28T08:47:12Z</time>
      </trkpt>
      <trkpt lat="36.702953338623" lon="-5.02662992477417">
        <ele>1415.52856445312</ele>
        <time>2018-07-28T08:47:13Z</time>
      </trkpt>
      <trkpt lat="36.7029495239258" lon="-5.0266318321228">
        <ele>1415.662109375</ele>
        <time>2018-07-28T08:47:14Z</time>
      </trkpt>
      <trkpt lat="36.7029495239258" lon="-5.02663421630859">
        <ele>1415.61962890625</ele>
        <time>2018-07-28T08:47:15Z</time>
      </trkpt>
      <trkpt lat="36.7029495239258" lon="-5.02663516998291">
        <ele>1415.6025390625</ele>
        <time>2018-07-28T08:47:16Z</time>
      </trkpt>
      <trkpt lat="36.7029495239258" lon="-5.02663612365723">
        <ele>1415.58557128906</ele>
        <time>2018-07-28T08:47:17Z</time>
      </trkpt>
      <trkpt lat="36.7029495239258" lon="-5.02663612365723">
        <ele>1415.58557128906</ele>
        <time>2018-07-28T08:47:18Z</time>
      </trkpt>
      <trkpt lat="36.702953338623" lon="-5.02663421630859">
        <ele>1415.45178222656</ele>
        <time>2018-07-28T08:47:19Z</time>
      </trkpt>
      <trkpt lat="36.702953338623" lon="-5.0266318321228">
        <ele>1415.49438476562</ele>
        <time>2018-07-28T08:47:20Z</time>
      </trkpt>
      <trkpt lat="36.7029571533203" lon="-5.02662897109985">
        <ele>1415.37805175781</ele>
        <time>2018-07-28T08:47:21Z</time>
      </trkpt>
      <trkpt lat="36.7029571533203" lon="-5.0266261100769">
        <ele>1415.42932128906</ele>
        <time>2018-07-28T08:47:22Z</time>
      </trkpt>
      <trkpt lat="36.7029571533203" lon="-5.02662086486816">
        <ele>1415.52331542969</ele>
        <time>2018-07-28T08:47:23Z</time>
      </trkpt>
      <trkpt lat="36.7029571533203" lon="-5.0266170501709">
        <ele>1415.591796875</ele>
        <time>2018-07-28T08:47:24Z</time>
      </trkpt>
      <trkpt lat="36.7029609680176" lon="-5.02661418914795">
        <ele>1415.47631835938</ele>
        <time>2018-07-28T08:47:25Z</time>
      </trkpt>
      <trkpt lat="36.7029647827148" lon="-5.02661418914795">
        <ele>1415.30944824219</ele>
        <time>2018-07-28T08:47:26Z</time>
      </trkpt>
      <trkpt lat="36.7029647827148" lon="-5.02661418914795">
        <ele>1415.30944824219</ele>
        <time>2018-07-28T08:47:27Z</time>
      </trkpt>
      <trkpt lat="36.7029647827148" lon="-5.02661418914795">
        <ele>1415.30944824219</ele>
        <time>2018-07-28T08:47:28Z</time>
      </trkpt>
      <trkpt lat="36.7029647827148" lon="-5.02661514282227">
        <ele>1415.29223632812</ele>
        <time>2018-07-28T08:47:29Z</time>
      </trkpt>
      <trkpt lat="36.7029647827148" lon="-5.02661514282227">
        <ele>1415.29223632812</ele>
        <time>2018-07-28T08:47:30Z</time>
      </trkpt>
      <trkpt lat="36.7029647827148" lon="-5.02661418914795">
        <ele>1415.30944824219</ele>
        <time>2018-07-28T08:47:31Z</time>
      </trkpt>
      <trkpt lat="36.7029647827148" lon="-5.02661418914795">
        <ele>1415.30944824219</ele>
        <time>2018-07-28T08:47:32Z</time>
      </trkpt>
      <trkpt lat="36.7029647827148" lon="-5.02661418914795">
        <ele>1415.30944824219</ele>
        <time>2018-07-28T08:47:33Z</time>
      </trkpt>
      <trkpt lat="36.7029685974121" lon="-5.02661418914795">
        <ele>1415.14270019531</ele>
        <time>2018-07-28T08:47:34Z</time>
      </trkpt>
      <trkpt lat="36.7029685974121" lon="-5.02661418914795">
        <ele>1415.14270019531</ele>
        <time>2018-07-28T08:47:35Z</time>
      </trkpt>
      <trkpt lat="36.7029685974121" lon="-5.02661514282227">
        <ele>1415.12548828125</ele>
        <time>2018-07-28T08:47:36Z</time>
      </trkpt>
      <trkpt lat="36.7029685974121" lon="-5.02661418914795">
        <ele>1415.14270019531</ele>
        <time>2018-07-28T08:47:37Z</time>
      </trkpt>
      <trkpt lat="36.7029685974121" lon="-5.02661418914795">
        <ele>1415.14270019531</ele>
        <time>2018-07-28T08:47:38Z</time>
      </trkpt>
      <trkpt lat="36.7029685974121" lon="-5.02661418914795">
        <ele>1415.14270019531</ele>
        <time>2018-07-28T08:47:39Z</time>
      </trkpt>
      <trkpt lat="36.7029685974121" lon="-5.02661323547363">
        <ele>1415.15991210938</ele>
        <time>2018-07-28T08:47:40Z</time>
      </trkpt>
      <trkpt lat="36.7029685974121" lon="-5.02661323547363">
        <ele>1415.15991210938</ele>
        <time>2018-07-28T08:47:41Z</time>
      </trkpt>
      <trkpt lat="36.7029685974121" lon="-5.02661180496216">
        <ele>1415.18579101562</ele>
        <time>2018-07-28T08:47:42Z</time>
      </trkpt>
      <trkpt lat="36.7029685974121" lon="-5.02661085128784">
        <ele>1415.20300292969</ele>
        <time>2018-07-28T08:47:43Z</time>
      </trkpt>
      <trkpt lat="36.7029647827148" lon="-5.02660989761353">
        <ele>1415.38684082031</ele>
        <time>2018-07-28T08:47:44Z</time>
      </trkpt>
      <trkpt lat="36.7029647827148" lon="-5.02660989761353">
        <ele>1415.38684082031</ele>
        <time>2018-07-28T08:47:45Z</time>
      </trkpt>
      <trkpt lat="36.7029647827148" lon="-5.02660894393921">
        <ele>1415.40405273438</ele>
        <time>2018-07-28T08:47:46Z</time>
      </trkpt>
      <trkpt lat="36.7029647827148" lon="-5.02660799026489">
        <ele>1415.42126464844</ele>
        <time>2018-07-28T08:47:47Z</time>
      </trkpt>
      <trkpt lat="36.7029647827148" lon="-5.02660894393921">
        <ele>1415.40405273438</ele>
        <time>2018-07-28T08:47:48Z</time>
      </trkpt>
      <trkpt lat="36.7029647827148" lon="-5.02661085128784">
        <ele>1415.36962890625</ele>
        <time>2018-07-28T08:47:49Z</time>
      </trkpt>
      <trkpt lat="36.7029609680176" lon="-5.02661418914795">
        <ele>1415.47631835938</ele>
        <time>2018-07-28T08:47:50Z</time>
      </trkpt>
      <trkpt lat="36.7029571533203" lon="-5.02661514282227">
        <ele>1415.6259765625</ele>
        <time>2018-07-28T08:47:51Z</time>
      </trkpt>
      <trkpt lat="36.702953338623" lon="-5.02661514282227">
        <ele>1415.79272460938</ele>
        <time>2018-07-28T08:47:52Z</time>
      </trkpt>
      <trkpt lat="36.7029495239258" lon="-5.02661609649658">
        <ele>1415.94262695312</ele>
        <time>2018-07-28T08:47:53Z</time>
      </trkpt>
      <trkpt lat="36.7029457092285" lon="-5.02661609649658">
        <ele>1416.10949707031</ele>
        <time>2018-07-28T08:47:54Z</time>
      </trkpt>
      <trkpt lat="36.7029457092285" lon="-5.02661609649658">
        <ele>1416.10949707031</ele>
        <time>2018-07-28T08:47:55Z</time>
      </trkpt>
      <trkpt lat="36.7029457092285" lon="-5.02661514282227">
        <ele>1416.12646484375</ele>
        <time>2018-07-28T08:47:56Z</time>
      </trkpt>
      <trkpt lat="36.7029418945312" lon="-5.02661514282227">
        <ele>1416.29321289062</ele>
        <time>2018-07-28T08:47:57Z</time>
      </trkpt>
      <trkpt lat="36.7029418945312" lon="-5.02661514282227">
        <ele>1416.29321289062</ele>
        <time>2018-07-28T08:47:58Z</time>
      </trkpt>
      <trkpt lat="36.702938079834" lon="-5.02661514282227">
        <ele>1416.46008300781</ele>
        <time>2018-07-28T08:47:59Z</time>
      </trkpt>
      <trkpt lat="36.7029342651367" lon="-5.02661418914795">
        <ele>1416.64367675781</ele>
        <time>2018-07-28T08:48:00Z</time>
      </trkpt>
      <trkpt lat="36.7029304504394" lon="-5.02661323547363">
        <ele>1416.82727050781</ele>
        <time>2018-07-28T08:48:01Z</time>
      </trkpt>
      <trkpt lat="36.7029266357422" lon="-5.02661323547363">
        <ele>1416.99401855469</ele>
        <time>2018-07-28T08:48:02Z</time>
      </trkpt>
      <trkpt lat="36.7029228210449" lon="-5.02661180496216">
        <ele>1417.18566894531</ele>
        <time>2018-07-28T08:48:03Z</time>
      </trkpt>
      <trkpt lat="36.7029190063477" lon="-5.02661085128784">
        <ele>1417.36901855469</ele>
        <time>2018-07-28T08:48:04Z</time>
      </trkpt>
      <trkpt lat="36.7029151916504" lon="-5.02660894393921">
        <ele>1417.56872558594</ele>
        <time>2018-07-28T08:48:05Z</time>
      </trkpt>
      <trkpt lat="36.7029113769531" lon="-5.02660417556763">
        <ele>1417.81787109375</ele>
        <time>2018-07-28T08:48:06Z</time>
      </trkpt>
      <trkpt lat="36.7029113769531" lon="-5.02659893035889">
        <ele>1417.90881347656</ele>
        <time>2018-07-28T08:48:07Z</time>
      </trkpt>
      <trkpt lat="36.7029075622559" lon="-5.0265941619873">
        <ele>1418.1572265625</ele>
        <time>2018-07-28T08:48:08Z</time>
      </trkpt>
      <trkpt lat="36.7029037475586" lon="-5.02658987045288">
        <ele>1418.39697265625</ele>
        <time>2018-07-28T08:48:09Z</time>
      </trkpt>
      <trkpt lat="36.7028999328613" lon="-5.02658605575562">
        <ele>1418.62817382812</ele>
        <time>2018-07-28T08:48:10Z</time>
      </trkpt>
      <trkpt lat="36.7028961181641" lon="-5.02658176422119">
        <ele>1418.86706542969</ele>
        <time>2018-07-28T08:48:11Z</time>
      </trkpt>
      <trkpt lat="36.7028923034668" lon="-5.02657890319824">
        <ele>1419.0810546875</ele>
        <time>2018-07-28T08:48:12Z</time>
      </trkpt>
      <trkpt lat="36.7028884887695" lon="-5.02657604217529">
        <ele>1419.294921875</ele>
        <time>2018-07-28T08:48:13Z</time>
      </trkpt>
      <trkpt lat="36.7028846740723" lon="-5.02657413482666">
        <ele>1419.4921875</ele>
        <time>2018-07-28T08:48:14Z</time>
      </trkpt>
      <trkpt lat="36.702880859375" lon="-5.02657222747803">
        <ele>1419.68920898438</ele>
        <time>2018-07-28T08:48:15Z</time>
      </trkpt>
      <trkpt lat="36.702880859375" lon="-5.02657222747803">
        <ele>1419.68920898438</ele>
        <time>2018-07-28T08:48:16Z</time>
      </trkpt>
      <trkpt lat="36.7028770446777" lon="-5.02657079696655">
        <ele>1419.87817382812</ele>
        <time>2018-07-28T08:48:17Z</time>
      </trkpt>
      <trkpt lat="36.7028732299805" lon="-5.02656984329224">
        <ele>1420.05883789062</ele>
        <time>2018-07-28T08:48:18Z</time>
      </trkpt>
      <trkpt lat="36.7028694152832" lon="-5.02656888961792">
        <ele>1420.23937988281</ele>
        <time>2018-07-28T08:48:19Z</time>
      </trkpt>
      <trkpt lat="36.7028656005859" lon="-5.02656888961792">
        <ele>1420.40393066406</ele>
        <time>2018-07-28T08:48:20Z</time>
      </trkpt>
      <trkpt lat="36.7028617858887" lon="-5.0265679359436">
        <ele>1420.58435058594</ele>
        <time>2018-07-28T08:48:21Z</time>
      </trkpt>
      <trkpt lat="36.7028541564941" lon="-5.02656602859497">
        <ele>1420.94506835938</ele>
        <time>2018-07-28T08:48:22Z</time>
      </trkpt>
      <trkpt lat="36.7028503417969" lon="-5.02656412124634">
        <ele>1421.14099121094</ele>
        <time>2018-07-28T08:48:23Z</time>
      </trkpt>
      <trkpt lat="36.7028465270996" lon="-5.0265622138977">
        <ele>1421.33666992188</ele>
        <time>2018-07-28T08:48:24Z</time>
      </trkpt>
      <trkpt lat="36.7028427124023" lon="-5.02656078338623">
        <ele>1421.5244140625</ele>
        <time>2018-07-28T08:48:25Z</time>
      </trkpt>
      <trkpt lat="36.7028388977051" lon="-5.0265588760376">
        <ele>1421.71984863281</ele>
        <time>2018-07-28T08:48:26Z</time>
      </trkpt>
      <trkpt lat="36.7028312683106" lon="-5.02655792236328">
        <ele>1422.0634765625</ele>
        <time>2018-07-28T08:48:27Z</time>
      </trkpt>
      <trkpt lat="36.7028274536133" lon="-5.02655696868896">
        <ele>1422.24291992188</ele>
        <time>2018-07-28T08:48:28Z</time>
      </trkpt>
      <trkpt lat="36.702823638916" lon="-5.02655601501465">
        <ele>1422.42236328125</ele>
        <time>2018-07-28T08:48:29Z</time>
      </trkpt>
      <trkpt lat="36.7028160095215" lon="-5.02655506134033">
        <ele>1422.76550292969</ele>
        <time>2018-07-28T08:48:30Z</time>
      </trkpt>
      <trkpt lat="36.702808380127" lon="-5.02655506134033">
        <ele>1423.09326171875</ele>
        <time>2018-07-28T08:48:31Z</time>
      </trkpt>
      <trkpt lat="36.7028045654297" lon="-5.0265531539917">
        <ele>1423.28747558594</ele>
        <time>2018-07-28T08:48:32Z</time>
      </trkpt>
      <trkpt lat="36.7028007507324" lon="-5.02655076980591">
        <ele>1423.48913574219</ele>
        <time>2018-07-28T08:48:33Z</time>
      </trkpt>
      <trkpt lat="36.7027969360352" lon="-5.02654695510864">
        <ele>1423.71325683594</ele>
        <time>2018-07-28T08:48:34Z</time>
      </trkpt>
      <trkpt lat="36.7027893066406" lon="-5.02654314041138">
        <ele>1424.10021972656</ele>
        <time>2018-07-28T08:48:35Z</time>
      </trkpt>
      <trkpt lat="36.7027854919434" lon="-5.02654123306274">
        <ele>1424.29345703125</ele>
        <time>2018-07-28T08:48:36Z</time>
      </trkpt>
      <trkpt lat="36.7027778625488" lon="-5.02653789520264">
        <ele>1424.671875</ele>
        <time>2018-07-28T08:48:37Z</time>
      </trkpt>
      <trkpt lat="36.7027740478516" lon="-5.02653503417969">
        <ele>1424.87939453125</ele>
        <time>2018-07-28T08:48:38Z</time>
      </trkpt>
      <trkpt lat="36.7027740478516" lon="-5.02653217315674">
        <ele>1424.923828125</ele>
        <time>2018-07-28T08:48:39Z</time>
      </trkpt>
      <trkpt lat="36.7027702331543" lon="-5.02652978897095">
        <ele>1425.12353515625</ele>
        <time>2018-07-28T08:48:40Z</time>
      </trkpt>
      <trkpt lat="36.7027702331543" lon="-5.02653121948242">
        <ele>1425.10144042969</ele>
        <time>2018-07-28T08:48:41Z</time>
      </trkpt>
      <trkpt lat="36.702766418457" lon="-5.02653312683106">
        <ele>1425.23461914062</ele>
        <time>2018-07-28T08:48:42Z</time>
      </trkpt>
      <trkpt lat="36.7027587890625" lon="-5.02653694152832">
        <ele>1425.50158691406</ele>
        <time>2018-07-28T08:48:43Z</time>
      </trkpt>
      <trkpt lat="36.702751159668" lon="-5.02654123306274">
        <ele>1425.76196289062</ele>
        <time>2018-07-28T08:48:44Z</time>
      </trkpt>
      <trkpt lat="36.7027435302734" lon="-5.02654600143433">
        <ele>1426.01611328125</ele>
        <time>2018-07-28T08:48:45Z</time>
      </trkpt>
      <trkpt lat="36.7027397155762" lon="-5.02655220031738">
        <ele>1426.08581542969</ele>
        <time>2018-07-28T08:48:46Z</time>
      </trkpt>
      <trkpt lat="36.7027320861816" lon="-5.0265588760376">
        <ele>1426.31311035156</ele>
        <time>2018-07-28T08:48:47Z</time>
      </trkpt>
      <trkpt lat="36.7027282714844" lon="-5.02656602859497">
        <ele>1426.3701171875</ele>
        <time>2018-07-28T08:48:48Z</time>
      </trkpt>
      <trkpt lat="36.7027206420898" lon="-5.02657318115234">
        <ele>1426.59265136719</ele>
        <time>2018-07-28T08:48:49Z</time>
      </trkpt>
      <trkpt lat="36.702709197998" lon="-5.02658081054688">
        <ele>1426.974609375</ele>
        <time>2018-07-28T08:48:50Z</time>
      </trkpt>
      <trkpt lat="36.7027053833008" lon="-5.02658987045288">
        <ele>1427.00695800781</ele>
        <time>2018-07-28T08:48:51Z</time>
      </trkpt>
      <trkpt lat="36.7026977539062" lon="-5.02660083770752">
        <ele>1427.17834472656</ele>
        <time>2018-07-28T08:48:52Z</time>
      </trkpt>
      <trkpt lat="36.702693939209" lon="-5.02660894393921">
        <ele>1427.22680664062</ele>
        <time>2018-07-28T08:48:53Z</time>
      </trkpt>
      <trkpt lat="36.7026901245117" lon="-5.02661609649658">
        <ele>1427.28991699219</ele>
        <time>2018-07-28T08:48:54Z</time>
      </trkpt>
      <trkpt lat="36.7026863098144" lon="-5.02661991119385">
        <ele>1427.40185546875</ele>
        <time>2018-07-28T08:48:55Z</time>
      </trkpt>
      <trkpt lat="36.7026786804199" lon="-5.02662420272827">
        <ele>1427.67443847656</ele>
        <time>2018-07-28T08:48:56Z</time>
      </trkpt>
      <trkpt lat="36.7026786804199" lon="-5.02662992477417">
        <ele>1427.59252929688</ele>
        <time>2018-07-28T08:48:57Z</time>
      </trkpt>
      <trkpt lat="36.7026710510254" lon="-5.02663707733154">
        <ele>1427.82604980469</ele>
        <time>2018-07-28T08:48:58Z</time>
      </trkpt>
      <trkpt lat="36.7026672363281" lon="-5.02664709091186">
        <ele>1427.85205078125</ele>
        <time>2018-07-28T08:48:59Z</time>
      </trkpt>
      <trkpt lat="36.7026596069336" lon="-5.02665615081787">
        <ele>1428.06140136719</ele>
        <time>2018-07-28T08:49:00Z</time>
      </trkpt>
      <trkpt lat="36.7026519775391" lon="-5.02666521072388">
        <ele>1428.27258300781</ele>
        <time>2018-07-28T08:49:01Z</time>
      </trkpt>
      <trkpt lat="36.7026443481445" lon="-5.02667379379272">
        <ele>1428.42578125</ele>
        <time>2018-07-28T08:49:02Z</time>
      </trkpt>
      <trkpt lat="36.70263671875" lon="-5.02668285369873">
        <ele>1428.55395507812</ele>
        <time>2018-07-28T08:49:03Z</time>
      </trkpt>
      <trkpt lat="36.7026290893555" lon="-5.02669286727905">
        <ele>1428.65905761719</ele>
        <time>2018-07-28T08:49:04Z</time>
      </trkpt>
      <trkpt lat="36.7026214599609" lon="-5.02670288085938">
        <ele>1428.76342773438</ele>
        <time>2018-07-28T08:49:05Z</time>
      </trkpt>
      <trkpt lat="36.7026176452637" lon="-5.02671384811401">
        <ele>1428.67614746094</ele>
        <time>2018-07-28T08:49:06Z</time>
      </trkpt>
      <trkpt lat="36.7026138305664" lon="-5.02672576904297">
        <ele>1428.56616210938</ele>
        <time>2018-07-28T08:49:07Z</time>
      </trkpt>
      <trkpt lat="36.7026100158691" lon="-5.02673721313477">
        <ele>1428.46691894531</ele>
        <time>2018-07-28T08:49:08Z</time>
      </trkpt>
      <trkpt lat="36.7026062011719" lon="-5.0267481803894">
        <ele>1428.37817382812</ele>
        <time>2018-07-28T08:49:09Z</time>
      </trkpt>
      <trkpt lat="36.7026062011719" lon="-5.02675819396973">
        <ele>1428.14404296875</ele>
        <time>2018-07-28T08:49:10Z</time>
      </trkpt>
      <trkpt lat="36.7026023864746" lon="-5.02676820755005">
        <ele>1428.07690429688</ele>
        <time>2018-07-28T08:49:11Z</time>
      </trkpt>
      <trkpt lat="36.7025985717773" lon="-5.02677822113037">
        <ele>1428.00939941406</ele>
        <time>2018-07-28T08:49:12Z</time>
      </trkpt>
      <trkpt lat="36.7025947570801" lon="-5.02678680419922">
        <ele>1427.97509765625</ele>
        <time>2018-07-28T08:49:13Z</time>
      </trkpt>
      <trkpt lat="36.7025909423828" lon="-5.02679777145386">
        <ele>1427.88427734375</ele>
        <time>2018-07-28T08:49:14Z</time>
      </trkpt>
      <trkpt lat="36.7025871276856" lon="-5.02680778503418">
        <ele>1427.81555175781</ele>
        <time>2018-07-28T08:49:15Z</time>
      </trkpt>
      <trkpt lat="36.7025833129883" lon="-5.02681922912598">
        <ele>1427.71264648438</ele>
        <time>2018-07-28T08:49:16Z</time>
      </trkpt>
      <trkpt lat="36.702579498291" lon="-5.02683019638062">
        <ele>1427.62048339844</ele>
        <time>2018-07-28T08:49:17Z</time>
      </trkpt>
      <trkpt lat="36.7025718688965" lon="-5.02684020996094">
        <ele>1427.7158203125</ele>
        <time>2018-07-28T08:49:18Z</time>
      </trkpt>
      <trkpt lat="36.7025680541992" lon="-5.02684879302978">
        <ele>1427.6787109375</ele>
        <time>2018-07-28T08:49:19Z</time>
      </trkpt>
      <trkpt lat="36.7025604248047" lon="-5.02685785293579">
        <ele>1427.79516601562</ele>
        <time>2018-07-28T08:49:20Z</time>
      </trkpt>
      <trkpt lat="36.7025566101074" lon="-5.0268669128418">
        <ele>1427.74584960938</ele>
        <time>2018-07-28T08:49:21Z</time>
      </trkpt>
      <trkpt lat="36.7025527954102" lon="-5.0268759727478">
        <ele>1427.69616699219</ele>
        <time>2018-07-28T08:49:22Z</time>
      </trkpt>
      <trkpt lat="36.7025489807129" lon="-5.02688407897949">
        <ele>1427.66870117188</ele>
        <time>2018-07-28T08:49:23Z</time>
      </trkpt>
      <trkpt lat="36.7025451660156" lon="-5.02689218521118">
        <ele>1427.64086914062</ele>
        <time>2018-07-28T08:49:24Z</time>
      </trkpt>
      <trkpt lat="36.7025413513184" lon="-5.02689981460571">
        <ele>1427.6240234375</ele>
        <time>2018-07-28T08:49:25Z</time>
      </trkpt>
      <trkpt lat="36.7025337219238" lon="-5.02690887451172">
        <ele>1427.73681640625</ele>
        <time>2018-07-28T08:49:26Z</time>
      </trkpt>
      <trkpt lat="36.7025260925293" lon="-5.02691888809204">
        <ele>1427.82604980469</ele>
        <time>2018-07-28T08:49:27Z</time>
      </trkpt>
      <trkpt lat="36.7025184631348" lon="-5.02692794799805">
        <ele>1427.93725585938</ele>
        <time>2018-07-28T08:49:28Z</time>
      </trkpt>
      <trkpt lat="36.7025146484375" lon="-5.02693796157837">
        <ele>1427.86145019531</ele>
        <time>2018-07-28T08:49:29Z</time>
      </trkpt>
      <trkpt lat="36.702507019043" lon="-5.02694988250732">
        <ele>1427.90258789062</ele>
        <time>2018-07-28T08:49:30Z</time>
      </trkpt>
      <trkpt lat="36.7025032043457" lon="-5.02695989608765">
        <ele>1427.82568359375</ele>
        <time>2018-07-28T08:49:31Z</time>
      </trkpt>
      <trkpt lat="36.7025032043457" lon="-5.02696800231934">
        <ele>1427.63122558594</ele>
        <time>2018-07-28T08:49:32Z</time>
      </trkpt>
      <trkpt lat="36.7024993896484" lon="-5.02697277069092">
        <ele>1427.66552734375</ele>
        <time>2018-07-28T08:49:33Z</time>
      </trkpt>
      <trkpt lat="36.7024917602539" lon="-5.02698087692261">
        <ele>1427.62219238281</ele>
        <time>2018-07-28T08:49:34Z</time>
      </trkpt>
      <trkpt lat="36.7024841308594" lon="-5.02699184417725">
        <ele>1427.51110839844</ele>
        <time>2018-07-28T08:49:35Z</time>
      </trkpt>
      <trkpt lat="36.7024765014648" lon="-5.0270037651062">
        <ele>1427.37829589844</ele>
        <time>2018-07-28T08:49:36Z</time>
      </trkpt>
      <trkpt lat="36.7024726867676" lon="-5.027015209198">
        <ele>1427.18139648438</ele>
        <time>2018-07-28T08:49:37Z</time>
      </trkpt>
      <trkpt lat="36.7024688720703" lon="-5.02702188491821">
        <ele>1427.09875488281</ele>
        <time>2018-07-28T08:49:38Z</time>
      </trkpt>
      <trkpt lat="36.7024612426758" lon="-5.02702713012695">
        <ele>1427.126953125</ele>
        <time>2018-07-28T08:49:39Z</time>
      </trkpt>
      <trkpt lat="36.7024612426758" lon="-5.0270299911499">
        <ele>1427.05895996094</ele>
        <time>2018-07-28T08:49:40Z</time>
      </trkpt>
      <trkpt lat="36.7024574279785" lon="-5.02703619003296">
        <ele>1426.98840332031</ele>
        <time>2018-07-28T08:49:41Z</time>
      </trkpt>
      <trkpt lat="36.702449798584" lon="-5.02704191207886">
        <ele>1427.00622558594</ele>
        <time>2018-07-28T08:49:42Z</time>
      </trkpt>
      <trkpt lat="36.7024421691894" lon="-5.02705001831055">
        <ele>1426.96826171875</ele>
        <time>2018-07-28T08:49:43Z</time>
      </trkpt>
      <trkpt lat="36.7024383544922" lon="-5.02705812454224">
        <ele>1426.85363769531</ele>
        <time>2018-07-28T08:49:44Z</time>
      </trkpt>
      <trkpt lat="36.7024307250977" lon="-5.02706623077393">
        <ele>1426.81689453125</ele>
        <time>2018-07-28T08:49:45Z</time>
      </trkpt>
      <trkpt lat="36.7024230957031" lon="-5.02707481384277">
        <ele>1426.76953125</ele>
        <time>2018-07-28T08:49:46Z</time>
      </trkpt>
      <trkpt lat="36.7024192810059" lon="-5.02708292007446">
        <ele>1426.65637207031</ele>
        <time>2018-07-28T08:49:47Z</time>
      </trkpt>
      <trkpt lat="36.7024154663086" lon="-5.02709007263184">
        <ele>1426.56604003906</ele>
        <time>2018-07-28T08:49:48Z</time>
      </trkpt>
      <trkpt lat="36.7024116516113" lon="-5.02709579467773">
        <ele>1426.50952148438</ele>
        <time>2018-07-28T08:49:49Z</time>
      </trkpt>
      <trkpt lat="36.7024078369141" lon="-5.02710199356079">
        <ele>1426.44213867188</ele>
        <time>2018-07-28T08:49:50Z</time>
      </trkpt>
      <trkpt lat="36.7024002075195" lon="-5.02710580825806">
        <ele>1426.50927734375</ele>
        <time>2018-07-28T08:49:51Z</time>
      </trkpt>
      <trkpt lat="36.7023963928223" lon="-5.02711296081543">
        <ele>1426.42016601562</ele>
        <time>2018-07-28T08:49:52Z</time>
      </trkpt>
      <trkpt lat="36.7023887634277" lon="-5.0271201133728">
        <ele>1426.41003417969</ele>
        <time>2018-07-28T08:49:53Z</time>
      </trkpt>
      <trkpt lat="36.7023849487305" lon="-5.02712821960449">
        <ele>1426.29956054688</ele>
        <time>2018-07-28T08:49:54Z</time>
      </trkpt>
      <trkpt lat="36.7023773193359" lon="-5.02713298797607">
        <ele>1426.34606933594</ele>
        <time>2018-07-28T08:49:55Z</time>
      </trkpt>
      <trkpt lat="36.7023735046387" lon="-5.02713823318481">
        <ele>1426.30285644531</ele>
        <time>2018-07-28T08:49:56Z</time>
      </trkpt>
      <trkpt lat="36.7023696899414" lon="-5.0271430015564">
        <ele>1426.27111816406</ele>
        <time>2018-07-28T08:49:57Z</time>
      </trkpt>
      <trkpt lat="36.7023620605469" lon="-5.02715015411377">
        <ele>1426.26330566406</ele>
        <time>2018-07-28T08:49:58Z</time>
      </trkpt>
      <trkpt lat="36.7023582458496" lon="-5.02715587615967">
        <ele>1426.2099609375</ele>
        <time>2018-07-28T08:49:59Z</time>
      </trkpt>
      <trkpt lat="36.7023506164551" lon="-5.02716112136841">
        <ele>1426.24743652344</ele>
        <time>2018-07-28T08:50:00Z</time>
      </trkpt>
      <trkpt lat="36.7023468017578" lon="-5.02716779708862">
        <ele>1426.17260742188</ele>
        <time>2018-07-28T08:50:01Z</time>
      </trkpt>
      <trkpt lat="36.7023391723633" lon="-5.02717590332031">
        <ele>1426.14489746094</ele>
        <time>2018-07-28T08:50:02Z</time>
      </trkpt>
      <trkpt lat="36.702335357666" lon="-5.02718496322632">
        <ele>1426.01599121094</ele>
        <time>2018-07-28T08:50:03Z</time>
      </trkpt>
      <trkpt lat="36.7023315429688" lon="-5.02719402313232">
        <ele>1425.88732910156</ele>
        <time>2018-07-28T08:50:04Z</time>
      </trkpt>
      <trkpt lat="36.7023277282715" lon="-5.02720212936401">
        <ele>1425.78112792969</ele>
        <time>2018-07-28T08:50:05Z</time>
      </trkpt>
      <trkpt lat="36.7023239135742" lon="-5.0272102355957">
        <ele>1425.67517089844</ele>
        <time>2018-07-28T08:50:06Z</time>
      </trkpt>
      <trkpt lat="36.702320098877" lon="-5.02721500396728">
        <ele>1425.64636230469</ele>
        <time>2018-07-28T08:50:07Z</time>
      </trkpt>
      <trkpt lat="36.7023162841797" lon="-5.02721786499023">
        <ele>1425.66137695312</ele>
        <time>2018-07-28T08:50:08Z</time>
      </trkpt>
      <trkpt lat="36.7023086547852" lon="-5.02721977233887">
        <ele>1425.779296875</ele>
        <time>2018-07-28T08:50:09Z</time>
      </trkpt>
      <trkpt lat="36.7023048400879" lon="-5.02722215652466">
        <ele>1425.80554199219</ele>
        <time>2018-07-28T08:50:10Z</time>
      </trkpt>
      <trkpt lat="36.7023010253906" lon="-5.02722501754761">
        <ele>1425.82104492188</ele>
        <time>2018-07-28T08:50:11Z</time>
      </trkpt>
      <trkpt lat="36.7022933959961" lon="-5.02723121643066">
        <ele>1425.84155273438</ele>
        <time>2018-07-28T08:50:12Z</time>
      </trkpt>
      <trkpt lat="36.7022857666016" lon="-5.02723693847656">
        <ele>1425.87341308594</ele>
        <time>2018-07-28T08:50:13Z</time>
      </trkpt>
      <trkpt lat="36.702278137207" lon="-5.02724313735962">
        <ele>1425.89489746094</ele>
        <time>2018-07-28T08:50:14Z</time>
      </trkpt>
      <trkpt lat="36.7022743225098" lon="-5.0272479057312">
        <ele>1425.86804199219</ele>
        <time>2018-07-28T08:50:15Z</time>
      </trkpt>
      <trkpt lat="36.7022666931152" lon="-5.02725315093994">
        <ele>1425.91198730469</ele>
        <time>2018-07-28T08:50:16Z</time>
      </trkpt>
      <trkpt lat="36.7022590637207" lon="-5.02725791931152">
        <ele>1425.96728515625</ele>
        <time>2018-07-28T08:50:17Z</time>
      </trkpt>
      <trkpt lat="36.7022552490234" lon="-5.02726316452026">
        <ele>1425.93054199219</ele>
        <time>2018-07-28T08:50:18Z</time>
      </trkpt>
      <trkpt lat="36.7022476196289" lon="-5.02726697921753">
        <ele>1426.00805664062</ele>
        <time>2018-07-28T08:50:19Z</time>
      </trkpt>
      <trkpt lat="36.7022399902344" lon="-5.0272707939148">
        <ele>1426.0859375</ele>
        <time>2018-07-28T08:50:20Z</time>
      </trkpt>
      <trkpt lat="36.7022361755371" lon="-5.02727508544922">
        <ele>1426.07141113281</ele>
        <time>2018-07-28T08:50:21Z</time>
      </trkpt>
      <trkpt lat="36.7022285461426" lon="-5.02727794647217">
        <ele>1426.17126464844</ele>
        <time>2018-07-28T08:50:22Z</time>
      </trkpt>
      <trkpt lat="36.7022247314453" lon="-5.02728223800659">
        <ele>1426.15710449219</ele>
        <time>2018-07-28T08:50:23Z</time>
      </trkpt>
      <trkpt lat="36.7022247314453" lon="-5.02728605270386">
        <ele>1426.07165527344</ele>
        <time>2018-07-28T08:50:24Z</time>
      </trkpt>
      <trkpt lat="36.702220916748" lon="-5.02728986740112">
        <ele>1426.06848144531</ele>
        <time>2018-07-28T08:50:25Z</time>
      </trkpt>
      <trkpt lat="36.7022132873535" lon="-5.02729511260986">
        <ele>1426.11596679688</ele>
        <time>2018-07-28T08:50:26Z</time>
      </trkpt>
      <trkpt lat="36.7022094726562" lon="-5.02729988098144">
        <ele>1426.09204101562</ele>
        <time>2018-07-28T08:50:27Z</time>
      </trkpt>
      <trkpt lat="36.7022018432617" lon="-5.02730703353882">
        <ele>1426.09777832031</ele>
        <time>2018-07-28T08:50:28Z</time>
      </trkpt>
      <trkpt lat="36.7021942138672" lon="-5.02731418609619">
        <ele>1426.10412597656</ele>
        <time>2018-07-28T08:50:29Z</time>
      </trkpt>
      <trkpt lat="36.7021942138672" lon="-5.02732181549072">
        <ele>1425.9345703125</ele>
        <time>2018-07-28T08:50:30Z</time>
      </trkpt>
      <trkpt lat="36.7021903991699" lon="-5.02732992172241">
        <ele>1425.83752441406</ele>
        <time>2018-07-28T08:50:31Z</time>
      </trkpt>
      <trkpt lat="36.7021903991699" lon="-5.02733898162842">
        <ele>1425.63623046875</ele>
        <time>2018-07-28T08:50:32Z</time>
      </trkpt>
      <trkpt lat="36.7021942138672" lon="-5.02734804153442">
        <ele>1425.35131835938</ele>
        <time>2018-07-28T08:50:33Z</time>
      </trkpt>
      <trkpt lat="36.7021942138672" lon="-5.02735805511475">
        <ele>1425.12854003906</ele>
        <time>2018-07-28T08:50:34Z</time>
      </trkpt>
      <trkpt lat="36.7021942138672" lon="-5.02736902236938">
        <ele>1424.88464355469</ele>
        <time>2018-07-28T08:50:35Z</time>
      </trkpt>
      <trkpt lat="36.7021903991699" lon="-5.02737998962402">
        <ele>1424.72509765625</ele>
        <time>2018-07-28T08:50:36Z</time>
      </trkpt>
      <trkpt lat="36.7021865844727" lon="-5.02738809585571">
        <ele>1424.62951660156</ele>
        <time>2018-07-28T08:50:37Z</time>
      </trkpt>
      <trkpt lat="36.7021827697754" lon="-5.0273962020874">
        <ele>1424.53430175781</ele>
        <time>2018-07-28T08:50:38Z</time>
      </trkpt>
      <trkpt lat="36.7021789550781" lon="-5.02740383148193">
        <ele>1424.45007324219</ele>
        <time>2018-07-28T08:50:39Z</time>
      </trkpt>
      <trkpt lat="36.7021713256836" lon="-5.02741098403931">
        <ele>1424.46166992188</ele>
        <time>2018-07-28T08:50:40Z</time>
      </trkpt>
      <trkpt lat="36.7021675109863" lon="-5.02741813659668">
        <ele>1424.388671875</ele>
        <time>2018-07-28T08:50:41Z</time>
      </trkpt>
      <trkpt lat="36.7021598815918" lon="-5.02742576599121">
        <ele>1424.39086914062</ele>
        <time>2018-07-28T08:50:42Z</time>
      </trkpt>
      <trkpt lat="36.7021522521973" lon="-5.02743291854858">
        <ele>1424.404296875</ele>
        <time>2018-07-28T08:50:43Z</time>
      </trkpt>
      <trkpt lat="36.7021446228027" lon="-5.02743911743164">
        <ele>1424.43920898438</ele>
        <time>2018-07-28T08:50:44Z</time>
      </trkpt>
      <trkpt lat="36.7021369934082" lon="-5.02744388580322">
        <ele>1424.50598144531</ele>
        <time>2018-07-28T08:50:45Z</time>
      </trkpt>
      <trkpt lat="36.7021293640137" lon="-5.02744817733765">
        <ele>1424.58361816406</ele>
        <time>2018-07-28T08:50:46Z</time>
      </trkpt>
      <trkpt lat="36.7021255493164" lon="-5.02745294570923">
        <ele>1424.56530761719</ele>
        <time>2018-07-28T08:50:47Z</time>
      </trkpt>
      <trkpt lat="36.7021179199219" lon="-5.02745723724365">
        <ele>1424.64367675781</ele>
        <time>2018-07-28T08:50:48Z</time>
      </trkpt>
      <trkpt lat="36.7021102905273" lon="-5.02746200561523">
        <ele>1424.7119140625</ele>
        <time>2018-07-28T08:50:49Z</time>
      </trkpt>
      <trkpt lat="36.7021026611328" lon="-5.02746820449829">
        <ele>1424.74963378906</ele>
        <time>2018-07-28T08:50:50Z</time>
      </trkpt>
      <trkpt lat="36.702091217041" lon="-5.02747583389282">
        <ele>1424.84338378906</ele>
        <time>2018-07-28T08:50:51Z</time>
      </trkpt>
      <trkpt lat="36.7020835876465" lon="-5.02748394012451">
        <ele>1424.84106445312</ele>
        <time>2018-07-28T08:50:52Z</time>
      </trkpt>
      <trkpt lat="36.7020797729492" lon="-5.02749109268188">
        <ele>1424.7734375</ele>
        <time>2018-07-28T08:50:53Z</time>
      </trkpt>
      <trkpt lat="36.7020721435547" lon="-5.0274977684021">
        <ele>1424.80322265625</ele>
        <time>2018-07-28T08:50:54Z</time>
      </trkpt>
      <trkpt lat="36.7020645141602" lon="-5.02750396728516">
        <ele>1424.853515625</ele>
        <time>2018-07-28T08:50:55Z</time>
      </trkpt>
      <trkpt lat="36.7020606994629" lon="-5.02750778198242">
        <ele>1424.8681640625</ele>
        <time>2018-07-28T08:50:56Z</time>
      </trkpt>
      <trkpt lat="36.7020530700684" lon="-5.0275092124939">
        <ele>1425.01550292969</ele>
        <time>2018-07-28T08:50:57Z</time>
      </trkpt>
      <trkpt lat="36.7020454406738" lon="-5.02751111984253">
        <ele>1425.15405273438</ele>
        <time>2018-07-28T08:50:58Z</time>
      </trkpt>
      <trkpt lat="36.7020378112793" lon="-5.02751207351685">
        <ele>1425.31079101562</ele>
        <time>2018-07-28T08:50:59Z</time>
      </trkpt>
      <trkpt lat="36.702033996582" lon="-5.02751302719116">
        <ele>1425.38024902344</ele>
        <time>2018-07-28T08:51:00Z</time>
      </trkpt>
      <trkpt lat="36.7020301818848" lon="-5.02751207351685">
        <ele>1425.48559570312</ele>
        <time>2018-07-28T08:51:01Z</time>
      </trkpt>
      <trkpt lat="36.7020225524902" lon="-5.02751302719116">
        <ele>1425.642578125</ele>
        <time>2018-07-28T08:51:02Z</time>
      </trkpt>
      <trkpt lat="36.702018737793" lon="-5.0275149345398">
        <ele>1425.6943359375</ele>
        <time>2018-07-28T08:51:03Z</time>
      </trkpt>
      <trkpt lat="36.7020111083984" lon="-5.02751922607422">
        <ele>1425.78955078125</ele>
        <time>2018-07-28T08:51:04Z</time>
      </trkpt>
      <trkpt lat="36.7020034790039" lon="-5.0275239944458">
        <ele>1425.87658691406</ele>
        <time>2018-07-28T08:51:05Z</time>
      </trkpt>
      <trkpt lat="36.7019996643066" lon="-5.02753019332886">
        <ele>1425.84973144531</ele>
        <time>2018-07-28T08:51:06Z</time>
      </trkpt>
      <trkpt lat="36.7019920349121" lon="-5.02753591537476">
        <ele>1425.92041015625</ele>
        <time>2018-07-28T08:51:07Z</time>
      </trkpt>
      <trkpt lat="36.7019882202148" lon="-5.02754306793213">
        <ele>1425.87707519531</ele>
        <time>2018-07-28T08:51:08Z</time>
      </trkpt>
      <trkpt lat="36.7019805908203" lon="-5.02754878997803">
        <ele>1425.94909667969</ele>
        <time>2018-07-28T08:51:09Z</time>
      </trkpt>
      <trkpt lat="36.701976776123" lon="-5.0275559425354">
        <ele>1425.90686035156</ele>
        <time>2018-07-28T08:51:10Z</time>
      </trkpt>
      <trkpt lat="36.7019653320312" lon="-5.02756309509277">
        <ele>1426.04333496094</ele>
        <time>2018-07-28T08:51:11Z</time>
      </trkpt>
      <trkpt lat="36.701961517334" lon="-5.02756977081299">
        <ele>1426.01123046875</ele>
        <time>2018-07-28T08:51:12Z</time>
      </trkpt>
      <trkpt lat="36.7019538879394" lon="-5.02757692337036">
        <ele>1426.06042480469</ele>
        <time>2018-07-28T08:51:13Z</time>
      </trkpt>
      <trkpt lat="36.7019500732422" lon="-5.02758502960205">
        <ele>1426.00366210938</ele>
        <time>2018-07-28T08:51:14Z</time>
      </trkpt>
      <trkpt lat="36.7019462585449" lon="-5.02759504318237">
        <ele>1425.9130859375</ele>
        <time>2018-07-28T08:51:15Z</time>
      </trkpt>
      <trkpt lat="36.7019424438477" lon="-5.02760314941406">
        <ele>1425.857421875</ele>
        <time>2018-07-28T08:51:16Z</time>
      </trkpt>
      <trkpt lat="36.7019348144531" lon="-5.02760887145996">
        <ele>1425.935546875</ele>
        <time>2018-07-28T08:51:17Z</time>
      </trkpt>
      <trkpt lat="36.7019271850586" lon="-5.02761507034302">
        <ele>1426.00610351562</ele>
        <time>2018-07-28T08:51:18Z</time>
      </trkpt>
      <trkpt lat="36.7019195556641" lon="-5.02762079238892">
        <ele>1426.08581542969</ele>
        <time>2018-07-28T08:51:19Z</time>
      </trkpt>
      <trkpt lat="36.7019119262695" lon="-5.02762603759766">
        <ele>1426.1748046875</ele>
        <time>2018-07-28T08:51:20Z</time>
      </trkpt>
      <trkpt lat="36.7019081115723" lon="-5.02763080596924">
        <ele>1426.181640625</ele>
        <time>2018-07-28T08:51:21Z</time>
      </trkpt>
      <trkpt lat="36.701904296875" lon="-5.02763223648071">
        <ele>1426.24768066406</ele>
        <time>2018-07-28T08:51:22Z</time>
      </trkpt>
      <trkpt lat="36.7019004821777" lon="-5.02763414382935">
        <ele>1426.30541992188</ele>
        <time>2018-07-28T08:51:23Z</time>
      </trkpt>
      <trkpt lat="36.7018966674805" lon="-5.02763795852661">
        <ele>1426.32971191406</ele>
        <time>2018-07-28T08:51:24Z</time>
      </trkpt>
      <trkpt lat="36.7018928527832" lon="-5.02764415740967">
        <ele>1426.31237792969</ele>
        <time>2018-07-28T08:51:25Z</time>
      </trkpt>
      <trkpt lat="36.7018852233887" lon="-5.02764892578125">
        <ele>1426.41247558594</ele>
        <time>2018-07-28T08:51:26Z</time>
      </trkpt>
      <trkpt lat="36.7018814086914" lon="-5.02765417098999">
        <ele>1426.41271972656</ele>
        <time>2018-07-28T08:51:27Z</time>
      </trkpt>
      <trkpt lat="36.7018775939941" lon="-5.02765703201294">
        <ele>1426.45495605469</ele>
        <time>2018-07-28T08:51:28Z</time>
      </trkpt>
      <trkpt lat="36.7018737792969" lon="-5.0276608467102">
        <ele>1426.48083496094</ele>
        <time>2018-07-28T08:51:29Z</time>
      </trkpt>
      <trkpt lat="36.7018699645996" lon="-5.02766609191894">
        <ele>1426.48205566406</ele>
        <time>2018-07-28T08:51:30Z</time>
      </trkpt>
      <trkpt lat="36.7018661499023" lon="-5.02767181396484">
        <ele>1426.47534179688</ele>
        <time>2018-07-28T08:51:31Z</time>
      </trkpt>
      <trkpt lat="36.7018623352051" lon="-5.02767705917358">
        <ele>1426.47729492188</ele>
        <time>2018-07-28T08:51:32Z</time>
      </trkpt>
      <trkpt lat="36.7018623352051" lon="-5.02767992019653">
        <ele>1426.42785644531</ele>
        <time>2018-07-28T08:51:33Z</time>
      </trkpt>
      <trkpt lat="36.7018623352051" lon="-5.02767992019653">
        <ele>1426.42785644531</ele>
        <time>2018-07-28T08:51:34Z</time>
      </trkpt>
      <trkpt lat="36.7018623352051" lon="-5.02767992019653">
        <ele>1426.42785644531</ele>
        <time>2018-07-28T08:51:35Z</time>
      </trkpt>
      <trkpt lat="36.7018623352051" lon="-5.02768182754517">
        <ele>1426.39489746094</ele>
        <time>2018-07-28T08:51:36Z</time>
      </trkpt>
      <trkpt lat="36.7018623352051" lon="-5.02768516540527">
        <ele>1426.33715820312</ele>
        <time>2018-07-28T08:51:37Z</time>
      </trkpt>
      <trkpt lat="36.7018585205078" lon="-5.02768898010254">
        <ele>1426.36437988281</ele>
        <time>2018-07-28T08:51:38Z</time>
      </trkpt>
      <trkpt lat="36.7018547058106" lon="-5.0276951789856">
        <ele>1426.35083007812</ele>
        <time>2018-07-28T08:51:39Z</time>
      </trkpt>
      <trkpt lat="36.7018547058106" lon="-5.02770185470581">
        <ele>1426.23583984375</ele>
        <time>2018-07-28T08:51:40Z</time>
      </trkpt>
      <trkpt lat="36.7018508911133" lon="-5.0277099609375">
        <ele>1426.19006347656</ele>
        <time>2018-07-28T08:51:41Z</time>
      </trkpt>
      <trkpt lat="36.701847076416" lon="-5.02771806716919">
        <ele>1426.14489746094</ele>
        <time>2018-07-28T08:51:42Z</time>
      </trkpt>
      <trkpt lat="36.7018432617188" lon="-5.02772617340088">
        <ele>1426.10021972656</ele>
        <time>2018-07-28T08:51:43Z</time>
      </trkpt>
      <trkpt lat="36.7018394470215" lon="-5.02773284912109">
        <ele>1426.08056640625</ele>
        <time>2018-07-28T08:51:44Z</time>
      </trkpt>
      <trkpt lat="36.7018356323242" lon="-5.02773714065552">
        <ele>1426.10205078125</ele>
        <time>2018-07-28T08:51:45Z</time>
      </trkpt>
      <trkpt lat="36.701831817627" lon="-5.02774000167847">
        <ele>1426.14807128906</ele>
        <time>2018-07-28T08:51:46Z</time>
      </trkpt>
      <trkpt lat="36.701831817627" lon="-5.02774095535278">
        <ele>1426.1318359375</ele>
        <time>2018-07-28T08:51:47Z</time>
      </trkpt>
      <trkpt lat="36.7018280029297" lon="-5.02774095535278">
        <ele>1426.22680664062</ele>
        <time>2018-07-28T08:51:48Z</time>
      </trkpt>
      <trkpt lat="36.7018280029297" lon="-5.0277419090271">
        <ele>1426.21057128906</ele>
        <time>2018-07-28T08:51:49Z</time>
      </trkpt>
      <trkpt lat="36.7018241882324" lon="-5.02774477005005">
        <ele>1426.25695800781</ele>
        <time>2018-07-28T08:51:50Z</time>
      </trkpt>
      <trkpt lat="36.7018203735352" lon="-5.02774906158447">
        <ele>1426.27941894531</ele>
        <time>2018-07-28T08:51:51Z</time>
      </trkpt>
      <trkpt lat="36.7018127441406" lon="-5.02775716781616">
        <ele>1426.3330078125</ele>
        <time>2018-07-28T08:51:52Z</time>
      </trkpt>
      <trkpt lat="36.7018051147461" lon="-5.02776908874512">
        <ele>1426.32373046875</ele>
        <time>2018-07-28T08:51:53Z</time>
      </trkpt>
      <trkpt lat="36.7018013000488" lon="-5.02778100967407">
        <ele>1426.2197265625</ele>
        <time>2018-07-28T08:51:54Z</time>
      </trkpt>
      <trkpt lat="36.7018013000488" lon="-5.02779293060303">
        <ele>1426.01989746094</ele>
        <time>2018-07-28T08:51:55Z</time>
      </trkpt>
      <trkpt lat="36.7018013000488" lon="-5.02780294418335">
        <ele>1425.85205078125</ele>
        <time>2018-07-28T08:51:56Z</time>
      </trkpt>
      <trkpt lat="36.7018051147461" lon="-5.02781391143799">
        <ele>1425.57092285156</ele>
        <time>2018-07-28T08:51:57Z</time>
      </trkpt>
      <trkpt lat="36.7018051147461" lon="-5.02782392501831">
        <ele>1425.40270996094</ele>
        <time>2018-07-28T08:51:58Z</time>
      </trkpt>
      <trkpt lat="36.7018051147461" lon="-5.02783298492432">
        <ele>1425.25048828125</ele>
        <time>2018-07-28T08:51:59Z</time>
      </trkpt>
      <trkpt lat="36.7018089294434" lon="-5.02784109115601">
        <ele>1425.01611328125</ele>
        <time>2018-07-28T08:52:00Z</time>
      </trkpt>
      <trkpt lat="36.7018127441406" lon="-5.0278491973877">
        <ele>1424.78125</ele>
        <time>2018-07-28T08:52:01Z</time>
      </trkpt>
      <trkpt lat="36.7018127441406" lon="-5.02785587310791">
        <ele>1424.66870117188</ele>
        <time>2018-07-28T08:52:02Z</time>
      </trkpt>
      <trkpt lat="36.7018165588379" lon="-5.02786302566528">
        <ele>1424.44909667969</ele>
        <time>2018-07-28T08:52:03Z</time>
      </trkpt>
      <trkpt lat="36.7018165588379" lon="-5.02787017822266">
        <ele>1424.32824707031</ele>
        <time>2018-07-28T08:52:04Z</time>
      </trkpt>
      <trkpt lat="36.7018165588379" lon="-5.02787780761719">
        <ele>1424.19934082031</ele>
        <time>2018-07-28T08:52:05Z</time>
      </trkpt>
      <trkpt lat="36.7018165588379" lon="-5.0278902053833">
        <ele>1423.98986816406</ele>
        <time>2018-07-28T08:52:06Z</time>
      </trkpt>
      <trkpt lat="36.7018165588379" lon="-5.02790403366089">
        <ele>1423.75622558594</ele>
        <time>2018-07-28T08:52:07Z</time>
      </trkpt>
      <trkpt lat="36.7018165588379" lon="-5.02791881561279">
        <ele>1423.50659179688</ele>
        <time>2018-07-28T08:52:08Z</time>
      </trkpt>
      <trkpt lat="36.7018165588379" lon="-5.02793216705322">
        <ele>1423.28100585938</ele>
        <time>2018-07-28T08:52:09Z</time>
      </trkpt>
      <trkpt lat="36.7018127441406" lon="-5.02794504165649">
        <ele>1423.1650390625</ele>
        <time>2018-07-28T08:52:10Z</time>
      </trkpt>
      <trkpt lat="36.7018127441406" lon="-5.02795791625977">
        <ele>1422.94799804688</ele>
        <time>2018-07-28T08:52:11Z</time>
      </trkpt>
      <trkpt lat="36.7018089294434" lon="-5.02796983718872">
        <ele>1422.84948730469</ele>
        <time>2018-07-28T08:52:12Z</time>
      </trkpt>
      <trkpt lat="36.7018051147461" lon="-5.02797985076904">
        <ele>1422.78369140625</ele>
        <time>2018-07-28T08:52:13Z</time>
      </trkpt>
      <trkpt lat="36.7018013000488" lon="-5.02798986434936">
        <ele>1422.71862792969</ele>
        <time>2018-07-28T08:52:14Z</time>
      </trkpt>
      <trkpt lat="36.7017974853516" lon="-5.02799987792969">
        <ele>1422.654296875</ele>
        <time>2018-07-28T08:52:15Z</time>
      </trkpt>
      <trkpt lat="36.7017936706543" lon="-5.02801084518433">
        <ele>1422.57458496094</ele>
        <time>2018-07-28T08:52:16Z</time>
      </trkpt>
      <trkpt lat="36.701789855957" lon="-5.02802181243896">
        <ele>1422.49560546875</ele>
        <time>2018-07-28T08:52:17Z</time>
      </trkpt>
      <trkpt lat="36.701789855957" lon="-5.02803421020508">
        <ele>1422.2890625</ele>
        <time>2018-07-28T08:52:18Z</time>
      </trkpt>
      <trkpt lat="36.701789855957" lon="-5.0280442237854">
        <ele>1422.12219238281</ele>
        <time>2018-07-28T08:52:19Z</time>
      </trkpt>
      <trkpt lat="36.701789855957" lon="-5.02805185317993">
        <ele>1421.99499511719</ele>
        <time>2018-07-28T08:52:20Z</time>
      </trkpt>
      <trkpt lat="36.701789855957" lon="-5.02806186676025">
        <ele>1421.828125</ele>
        <time>2018-07-28T08:52:21Z</time>
      </trkpt>
      <trkpt lat="36.7017936706543" lon="-5.02807188034058">
        <ele>1421.55541992188</ele>
        <time>2018-07-28T08:52:22Z</time>
      </trkpt>
      <trkpt lat="36.7017974853516" lon="-5.02808284759522">
        <ele>1421.26611328125</ele>
        <time>2018-07-28T08:52:23Z</time>
      </trkpt>
      <trkpt lat="36.7018013000488" lon="-5.02809190750122">
        <ele>1421.00805664062</ele>
        <time>2018-07-28T08:52:24Z</time>
      </trkpt>
      <trkpt lat="36.7018051147461" lon="-5.02810001373291">
        <ele>1420.76538085938</ele>
        <time>2018-07-28T08:52:25Z</time>
      </trkpt>
      <trkpt lat="36.7018089294434" lon="-5.0281081199646">
        <ele>1420.52221679688</ele>
        <time>2018-07-28T08:52:26Z</time>
      </trkpt>
      <trkpt lat="36.7018089294434" lon="-5.02811717987061">
        <ele>1420.36975097656</ele>
        <time>2018-07-28T08:52:27Z</time>
      </trkpt>
      <trkpt lat="36.7018127441406" lon="-5.02812480926514">
        <ele>1420.1337890625</ele>
        <time>2018-07-28T08:52:28Z</time>
      </trkpt>
      <trkpt lat="36.7018127441406" lon="-5.02813386917114">
        <ele>1419.98107910156</ele>
        <time>2018-07-28T08:52:29Z</time>
      </trkpt>
      <trkpt lat="36.7018127441406" lon="-5.02814197540283">
        <ele>1419.84436035156</ele>
        <time>2018-07-28T08:52:30Z</time>
      </trkpt>
      <trkpt lat="36.7018127441406" lon="-5.02815008163452">
        <ele>1419.70764160156</ele>
        <time>2018-07-28T08:52:31Z</time>
      </trkpt>
      <trkpt lat="36.7018127441406" lon="-5.02815723419189">
        <ele>1419.58703613281</ele>
        <time>2018-07-28T08:52:32Z</time>
      </trkpt>
      <trkpt lat="36.7018165588379" lon="-5.02816295623779">
        <ele>1419.38171386719</ele>
        <time>2018-07-28T08:52:33Z</time>
      </trkpt>
      <trkpt lat="36.7018165588379" lon="-5.02817106246948">
        <ele>1419.24487304688</ele>
        <time>2018-07-28T08:52:34Z</time>
      </trkpt>
      <trkpt lat="36.7018203735352" lon="-5.02818012237549">
        <ele>1418.98229980469</ele>
        <time>2018-07-28T08:52:35Z</time>
      </trkpt>
      <trkpt lat="36.7018203735352" lon="-5.02819108963013">
        <ele>1418.79675292969</ele>
        <time>2018-07-28T08:52:36Z</time>
      </trkpt>
      <trkpt lat="36.7018165588379" lon="-5.02820301055908">
        <ele>1418.705078125</ele>
        <time>2018-07-28T08:52:37Z</time>
      </trkpt>
      <trkpt lat="36.7018165588379" lon="-5.02821588516235">
        <ele>1418.48754882812</ele>
        <time>2018-07-28T08:52:38Z</time>
      </trkpt>
      <trkpt lat="36.7018127441406" lon="-5.02822923660278">
        <ele>1418.37292480469</ele>
        <time>2018-07-28T08:52:39Z</time>
      </trkpt>
      <trkpt lat="36.7018089294434" lon="-5.02824020385742">
        <ele>1418.29943847656</ele>
        <time>2018-07-28T08:52:40Z</time>
      </trkpt>
      <trkpt lat="36.7018089294434" lon="-5.02824878692627">
        <ele>1418.15490722656</ele>
        <time>2018-07-28T08:52:41Z</time>
      </trkpt>
      <trkpt lat="36.7018089294434" lon="-5.02825880050659">
        <ele>1417.98645019531</ele>
        <time>2018-07-28T08:52:42Z</time>
      </trkpt>
      <trkpt lat="36.7018089294434" lon="-5.0282678604126">
        <ele>1417.833984375</ele>
        <time>2018-07-28T08:52:43Z</time>
      </trkpt>
      <trkpt lat="36.7018051147461" lon="-5.02827978134155">
        <ele>1417.74597167969</ele>
        <time>2018-07-28T08:52:44Z</time>
      </trkpt>
      <trkpt lat="36.7018051147461" lon="-5.02829122543335">
        <ele>1417.55383300781</ele>
        <time>2018-07-28T08:52:45Z</time>
      </trkpt>
      <trkpt lat="36.7018051147461" lon="-5.02830219268799">
        <ele>1417.36962890625</ele>
        <time>2018-07-28T08:52:46Z</time>
      </trkpt>
      <trkpt lat="36.7018051147461" lon="-5.02831315994263">
        <ele>1417.18542480469</ele>
        <time>2018-07-28T08:52:47Z</time>
      </trkpt>
      <trkpt lat="36.7018051147461" lon="-5.02832412719727">
        <ele>1417.00122070312</ele>
        <time>2018-07-28T08:52:48Z</time>
      </trkpt>
      <trkpt lat="36.7018051147461" lon="-5.0283350944519">
        <ele>1416.80395507812</ele>
        <time>2018-07-28T08:52:49Z</time>
      </trkpt>
      <trkpt lat="36.7018089294434" lon="-5.02834606170654">
        <ele>1416.42370605469</ele>
        <time>2018-07-28T08:52:50Z</time>
      </trkpt>
      <trkpt lat="36.7018089294434" lon="-5.02835702896118">
        <ele>1416.15783691406</ele>
        <time>2018-07-28T08:52:51Z</time>
      </trkpt>
      <trkpt lat="36.7018089294434" lon="-5.0283670425415">
        <ele>1415.91516113281</ele>
        <time>2018-07-28T08:52:52Z</time>
      </trkpt>
      <trkpt lat="36.7018089294434" lon="-5.02837800979614">
        <ele>1415.6494140625</ele>
        <time>2018-07-28T08:52:53Z</time>
      </trkpt>
      <trkpt lat="36.7018051147461" lon="-5.02839088439941">
        <ele>1415.4541015625</ele>
        <time>2018-07-28T08:52:54Z</time>
      </trkpt>
      <trkpt lat="36.7018013000488" lon="-5.02840423583984">
        <ele>1415.24816894531</ele>
        <time>2018-07-28T08:52:55Z</time>
      </trkpt>
      <trkpt lat="36.7017974853516" lon="-5.02841711044312">
        <ele>1415.05480957031</ele>
        <time>2018-07-28T08:52:56Z</time>
      </trkpt>
      <trkpt lat="36.7017936706543" lon="-5.02842998504639">
        <ele>1414.86242675781</ele>
        <time>2018-07-28T08:52:57Z</time>
      </trkpt>
      <trkpt lat="36.701789855957" lon="-5.02844190597534">
        <ele>1414.69409179688</ele>
        <time>2018-07-28T08:52:58Z</time>
      </trkpt>
      <trkpt lat="36.701789855957" lon="-5.02845287322998">
        <ele>1414.43041992188</ele>
        <time>2018-07-28T08:52:59Z</time>
      </trkpt>
      <trkpt lat="36.701789855957" lon="-5.02846193313599">
        <ele>1414.21252441406</ele>
        <time>2018-07-28T08:53:00Z</time>
      </trkpt>
      <trkpt lat="36.701789855957" lon="-5.02847099304199">
        <ele>1413.99475097656</ele>
        <time>2018-07-28T08:53:01Z</time>
      </trkpt>
      <trkpt lat="36.701789855957" lon="-5.028480052948">
        <ele>1413.77697753906</ele>
        <time>2018-07-28T08:53:02Z</time>
      </trkpt>
      <trkpt lat="36.7017822265625" lon="-5.02848815917969">
        <ele>1413.82287597656</ele>
        <time>2018-07-28T08:53:03Z</time>
      </trkpt>
      <trkpt lat="36.701774597168" lon="-5.02849817276001">
        <ele>1413.82446289062</ele>
        <time>2018-07-28T08:53:04Z</time>
      </trkpt>
      <trkpt lat="36.7017669677734" lon="-5.02850723266602">
        <ele>1413.85021972656</ele>
        <time>2018-07-28T08:53:05Z</time>
      </trkpt>
      <trkpt lat="36.7017555236816" lon="-5.02851915359497">
        <ele>1413.93115234375</ele>
        <time>2018-07-28T08:53:06Z</time>
      </trkpt>
      <trkpt lat="36.7017478942871" lon="-5.02853107452393">
        <ele>1413.89282226562</ele>
        <time>2018-07-28T08:53:07Z</time>
      </trkpt>
      <trkpt lat="36.7017364501953" lon="-5.02854299545288">
        <ele>1413.97875976562</ele>
        <time>2018-07-28T08:53:08Z</time>
      </trkpt>
      <trkpt lat="36.7017288208008" lon="-5.02855491638184">
        <ele>1413.94445800781</ele>
        <time>2018-07-28T08:53:09Z</time>
      </trkpt>
      <trkpt lat="36.7017211914062" lon="-5.02856397628784">
        <ele>1413.97888183594</ele>
        <time>2018-07-28T08:53:10Z</time>
      </trkpt>
      <trkpt lat="36.7017135620117" lon="-5.02857398986816">
        <ele>1413.99243164062</ele>
        <time>2018-07-28T08:53:11Z</time>
      </trkpt>
      <trkpt lat="36.7017059326172" lon="-5.02858400344849">
        <ele>1414.00756835938</ele>
        <time>2018-07-28T08:53:12Z</time>
      </trkpt>
      <trkpt lat="36.7016983032227" lon="-5.02859401702881">
        <ele>1414.02416992188</ele>
        <time>2018-07-28T08:53:13Z</time>
      </trkpt>
      <trkpt lat="36.7016944885254" lon="-5.02860403060913">
        <ele>1413.91748046875</ele>
        <time>2018-07-28T08:53:14Z</time>
      </trkpt>
      <trkpt lat="36.7016868591309" lon="-5.02861404418945">
        <ele>1413.93688964844</ele>
        <time>2018-07-28T08:53:15Z</time>
      </trkpt>
      <trkpt lat="36.7016792297363" lon="-5.02862310409546">
        <ele>1413.97961425781</ele>
        <time>2018-07-28T08:53:16Z</time>
      </trkpt>
      <trkpt lat="36.7016754150391" lon="-5.02863121032715">
        <ele>1413.91967773438</ele>
        <time>2018-07-28T08:53:17Z</time>
      </trkpt>
      <trkpt lat="36.7016677856445" lon="-5.02863693237305">
        <ele>1414.04089355469</ele>
        <time>2018-07-28T08:53:18Z</time>
      </trkpt>
      <trkpt lat="36.7016639709473" lon="-5.0286431312561">
        <ele>1413.986328125</ele>
        <time>2018-07-28T08:53:19Z</time>
      </trkpt>
      <trkpt lat="36.7016563415527" lon="-5.028648853302">
        <ele>1413.99670410156</ele>
        <time>2018-07-28T08:53:20Z</time>
      </trkpt>
      <trkpt lat="36.7016563415527" lon="-5.02865600585938">
        <ele>1413.83374023438</ele>
        <time>2018-07-28T08:53:21Z</time>
      </trkpt>
      <trkpt lat="36.7016525268555" lon="-5.02866315841675">
        <ele>1413.7412109375</ele>
        <time>2018-07-28T08:53:22Z</time>
      </trkpt>
      <trkpt lat="36.7016487121582" lon="-5.02867221832275">
        <ele>1413.60534667969</ele>
        <time>2018-07-28T08:53:23Z</time>
      </trkpt>
      <trkpt lat="36.7016410827637" lon="-5.02867889404297">
        <ele>1413.59448242188</ele>
        <time>2018-07-28T08:53:24Z</time>
      </trkpt>
      <trkpt lat="36.7016372680664" lon="-5.02868795394897">
        <ele>1413.45886230469</ele>
        <time>2018-07-28T08:53:25Z</time>
      </trkpt>
      <trkpt lat="36.7016334533691" lon="-5.02869510650635">
        <ele>1413.36669921875</ele>
        <time>2018-07-28T08:53:26Z</time>
      </trkpt>
      <trkpt lat="36.7016296386719" lon="-5.02870178222656">
        <ele>1413.28552246094</ele>
        <time>2018-07-28T08:53:27Z</time>
      </trkpt>
      <trkpt lat="36.7016258239746" lon="-5.0287070274353">
        <ele>1413.23693847656</ele>
        <time>2018-07-28T08:53:28Z</time>
      </trkpt>
      <trkpt lat="36.7016181945801" lon="-5.02871608734131">
        <ele>1413.17236328125</ele>
        <time>2018-07-28T08:53:29Z</time>
      </trkpt>
      <trkpt lat="36.7016105651856" lon="-5.02872610092163">
        <ele>1413.08642578125</ele>
        <time>2018-07-28T08:53:30Z</time>
      </trkpt>
      <trkpt lat="36.7016067504883" lon="-5.02873802185059">
        <ele>1412.88647460938</ele>
        <time>2018-07-28T08:53:31Z</time>
      </trkpt>
      <trkpt lat="36.7015991210938" lon="-5.02874898910522">
        <ele>1412.779296875</ele>
        <time>2018-07-28T08:53:32Z</time>
      </trkpt>
      <trkpt lat="36.7015914916992" lon="-5.02875900268555">
        <ele>1412.69396972656</ele>
        <time>2018-07-28T08:53:33Z</time>
      </trkpt>
      <trkpt lat="36.701587677002" lon="-5.02876901626587">
        <ele>1412.53784179688</ele>
        <time>2018-07-28T08:53:34Z</time>
      </trkpt>
      <trkpt lat="36.7015800476074" lon="-5.02877998352051">
        <ele>1412.43127441406</ele>
        <time>2018-07-28T08:53:35Z</time>
      </trkpt>
      <trkpt lat="36.7015724182129" lon="-5.02879190444946">
        <ele>1412.30334472656</ele>
        <time>2018-07-28T08:53:36Z</time>
      </trkpt>
      <trkpt lat="36.7015686035156" lon="-5.02880382537842">
        <ele>1412.10437011719</ele>
        <time>2018-07-28T08:53:37Z</time>
      </trkpt>
      <trkpt lat="36.7015609741211" lon="-5.02881479263306">
        <ele>1411.99841308594</ele>
        <time>2018-07-28T08:53:38Z</time>
      </trkpt>
      <trkpt lat="36.7015571594238" lon="-5.02882385253906">
        <ele>1411.86462402344</ele>
        <time>2018-07-28T08:53:39Z</time>
      </trkpt>
      <trkpt lat="36.7015533447266" lon="-5.02883100509644">
        <ele>1411.77404785156</ele>
        <time>2018-07-28T08:53:40Z</time>
      </trkpt>
      <trkpt lat="36.7015533447266" lon="-5.02883386611938">
        <ele>1411.70935058594</ele>
        <time>2018-07-28T08:53:41Z</time>
      </trkpt>
      <trkpt lat="36.7015533447266" lon="-5.02883386611938">
        <ele>1411.70935058594</ele>
        <time>2018-07-28T08:53:42Z</time>
      </trkpt>
      <trkpt lat="36.7015495300293" lon="-5.0288348197937">
        <ele>1411.75915527344</ele>
        <time>2018-07-28T08:53:43Z</time>
      </trkpt>
      <trkpt lat="36.701545715332" lon="-5.02883911132812">
        <ele>1411.73352050781</ele>
        <time>2018-07-28T08:53:44Z</time>
      </trkpt>
      <trkpt lat="36.7015419006348" lon="-5.02884721755981">
        <ele>1411.62158203125</ele>
        <time>2018-07-28T08:53:45Z</time>
      </trkpt>
      <trkpt lat="36.7015342712402" lon="-5.02885580062866">
        <ele>1411.57043457031</ele>
        <time>2018-07-28T08:53:46Z</time>
      </trkpt>
      <trkpt lat="36.701530456543" lon="-5.02886581420898">
        <ele>1411.41564941406</ele>
        <time>2018-07-28T08:53:47Z</time>
      </trkpt>
      <trkpt lat="36.7015228271484" lon="-5.02887582778931">
        <ele>1411.33264160156</ele>
        <time>2018-07-28T08:53:48Z</time>
      </trkpt>
      <trkpt lat="36.7015151977539" lon="-5.02888298034668">
        <ele>1411.31433105469</ele>
        <time>2018-07-28T08:53:49Z</time>
      </trkpt>
      <trkpt lat="36.7015075683594" lon="-5.02889013290405">
        <ele>1411.29626464844</ele>
        <time>2018-07-28T08:53:50Z</time>
      </trkpt>
      <trkpt lat="36.7014999389648" lon="-5.02889680862427">
        <ele>1411.28918457031</ele>
        <time>2018-07-28T08:53:51Z</time>
      </trkpt>
      <trkpt lat="36.7014923095703" lon="-5.02890396118164">
        <ele>1411.27136230469</ele>
        <time>2018-07-28T08:53:52Z</time>
      </trkpt>
      <trkpt lat="36.7014846801758" lon="-5.02891302108765">
        <ele>1411.21081542969</ele>
        <time>2018-07-28T08:53:53Z</time>
      </trkpt>
      <trkpt lat="36.701473236084" lon="-5.02892303466797">
        <ele>1411.20080566406</ele>
        <time>2018-07-28T08:53:54Z</time>
      </trkpt>
      <trkpt lat="36.7014656066894" lon="-5.02893400192261">
        <ele>1411.09777832031</ele>
        <time>2018-07-28T08:53:55Z</time>
      </trkpt>
      <trkpt lat="36.7014579772949" lon="-5.02894306182861">
        <ele>1411.03784179688</ele>
        <time>2018-07-28T08:53:56Z</time>
      </trkpt>
      <trkpt lat="36.7014465332031" lon="-5.0289511680603">
        <ele>1411.07165527344</ele>
        <time>2018-07-28T08:53:57Z</time>
      </trkpt>
      <trkpt lat="36.7014389038086" lon="-5.02895879745483">
        <ele>1411.04431152344</ele>
        <time>2018-07-28T08:53:58Z</time>
      </trkpt>
      <trkpt lat="36.7014274597168" lon="-5.02896595001221">
        <ele>1411.09997558594</ele>
        <time>2018-07-28T08:53:59Z</time>
      </trkpt>
      <trkpt lat="36.7014236450195" lon="-5.02897214889526">
        <ele>1411.03295898438</ele>
        <time>2018-07-28T08:54:00Z</time>
      </trkpt>
      <trkpt lat="36.7014122009277" lon="-5.02897691726685">
        <ele>1411.14245605469</ele>
        <time>2018-07-28T08:54:01Z</time>
      </trkpt>
      <trkpt lat="36.7014045715332" lon="-5.02898120880127">
        <ele>1411.19067382812</ele>
        <time>2018-07-28T08:54:02Z</time>
      </trkpt>
      <trkpt lat="36.7013969421387" lon="-5.02898502349854">
        <ele>1411.24963378906</ele>
        <time>2018-07-28T08:54:03Z</time>
      </trkpt>
      <trkpt lat="36.7013893127441" lon="-5.0289888381958">
        <ele>1411.30871582031</ele>
        <time>2018-07-28T08:54:04Z</time>
      </trkpt>
      <trkpt lat="36.7013778686523" lon="-5.02899312973022">
        <ele>1411.42944335938</ele>
        <time>2018-07-28T08:54:05Z</time>
      </trkpt>
      <trkpt lat="36.7013702392578" lon="-5.02899789810181">
        <ele>1411.46728515625</ele>
        <time>2018-07-28T08:54:06Z</time>
      </trkpt>
      <trkpt lat="36.701358795166" lon="-5.02900218963623">
        <ele>1411.58825683594</ele>
        <time>2018-07-28T08:54:07Z</time>
      </trkpt>
      <trkpt lat="36.7013473510742" lon="-5.0290060043335">
        <ele>1411.72009277344</ele>
        <time>2018-07-28T08:54:08Z</time>
      </trkpt>
      <trkpt lat="36.7013359069824" lon="-5.02900981903076">
        <ele>1411.85205078125</ele>
        <time>2018-07-28T08:54:09Z</time>
      </trkpt>
      <trkpt lat="36.7013244628906" lon="-5.02901220321655">
        <ele>1412.01599121094</ele>
        <time>2018-07-28T08:54:10Z</time>
      </trkpt>
      <trkpt lat="36.7013130187988" lon="-5.02901315689087">
        <ele>1412.2119140625</ele>
        <time>2018-07-28T08:54:11Z</time>
      </trkpt>
      <trkpt lat="36.7013053894043" lon="-5.02901315689087">
        <ele>1412.35668945312</ele>
        <time>2018-07-28T08:54:12Z</time>
      </trkpt>
      <trkpt lat="36.7012939453125" lon="-5.02901411056519">
        <ele>1412.55261230469</ele>
        <time>2018-07-28T08:54:13Z</time>
      </trkpt>
      <trkpt lat="36.701286315918" lon="-5.0290150642395">
        <ele>1412.67626953125</ele>
        <time>2018-07-28T08:54:14Z</time>
      </trkpt>
      <trkpt lat="36.7012786865234" lon="-5.02901601791382">
        <ele>1412.7998046875</ele>
        <time>2018-07-28T08:54:15Z</time>
      </trkpt>
      <trkpt lat="36.7012672424316" lon="-5.02901792526245">
        <ele>1412.97473144531</ele>
        <time>2018-07-28T08:54:16Z</time>
      </trkpt>
      <trkpt lat="36.7012596130371" lon="-5.02902221679688">
        <ele>1413.02416992188</ele>
        <time>2018-07-28T08:54:17Z</time>
      </trkpt>
      <trkpt lat="36.7012481689453" lon="-5.02902698516846">
        <ele>1413.1357421875</ele>
        <time>2018-07-28T08:54:18Z</time>
      </trkpt>
      <trkpt lat="36.701244354248" lon="-5.02903318405151">
        <ele>1413.07067871094</ele>
        <time>2018-07-28T08:54:19Z</time>
      </trkpt>
      <trkpt lat="36.7012367248535" lon="-5.02903699874878">
        <ele>1413.13098144531</ele>
        <time>2018-07-28T08:54:20Z</time>
      </trkpt>
      <trkpt lat="36.7012252807617" lon="-5.02904415130615">
        <ele>1413.19006347656</ele>
        <time>2018-07-28T08:54:21Z</time>
      </trkpt>
      <trkpt lat="36.7012138366699" lon="-5.02905082702637">
        <ele>1413.25988769531</ele>
        <time>2018-07-28T08:54:22Z</time>
      </trkpt>
      <trkpt lat="36.7012062072754" lon="-5.02905988693237">
        <ele>1413.20458984375</ele>
        <time>2018-07-28T08:54:23Z</time>
      </trkpt>
      <trkpt lat="36.7011947631836" lon="-5.02906799316406">
        <ele>1413.24328613281</ele>
        <time>2018-07-28T08:54:24Z</time>
      </trkpt>
      <trkpt lat="36.7011871337891" lon="-5.02907609939575">
        <ele>1413.20947265625</ele>
        <time>2018-07-28T08:54:25Z</time>
      </trkpt>
      <trkpt lat="36.7011833190918" lon="-5.02908420562744">
        <ele>1413.10302734375</ele>
        <time>2018-07-28T08:54:26Z</time>
      </trkpt>
      <trkpt lat="36.7011795043945" lon="-5.02909183502197">
        <ele>1413.00720214844</ele>
        <time>2018-07-28T08:54:27Z</time>
      </trkpt>
      <trkpt lat="36.7011756896973" lon="-5.02909898757935">
        <ele>1412.92199707031</ele>
        <time>2018-07-28T08:54:28Z</time>
      </trkpt>
      <trkpt lat="36.701171875" lon="-5.0291051864624">
        <ele>1412.85791015625</ele>
        <time>2018-07-28T08:54:29Z</time>
      </trkpt>
      <trkpt lat="36.7011642456055" lon="-5.02910900115967">
        <ele>1412.91955566406</ele>
        <time>2018-07-28T08:54:30Z</time>
      </trkpt>
      <trkpt lat="36.7011604309082" lon="-5.0291109085083">
        <ele>1412.95031738281</ele>
        <time>2018-07-28T08:54:31Z</time>
      </trkpt>
      <trkpt lat="36.7011566162109" lon="-5.0291109085083">
        <ele>1413.02331542969</ele>
        <time>2018-07-28T08:54:32Z</time>
      </trkpt>
      <trkpt lat="36.7011528015137" lon="-5.0291109085083">
        <ele>1413.09619140625</ele>
        <time>2018-07-28T08:54:33Z</time>
      </trkpt>
      <trkpt lat="36.7011489868164" lon="-5.02910995483398">
        <ele>1413.19018554688</ele>
        <time>2018-07-28T08:54:34Z</time>
      </trkpt>
      <trkpt lat="36.7011489868164" lon="-5.02910900115967">
        <ele>1413.21118164062</ele>
        <time>2018-07-28T08:54:35Z</time>
      </trkpt>
      <trkpt lat="36.7011489868164" lon="-5.02910900115967">
        <ele>1413.21118164062</ele>
        <time>2018-07-28T08:54:36Z</time>
      </trkpt>
      <trkpt lat="36.7011489868164" lon="-5.02910804748535">
        <ele>1413.23229980469</ele>
        <time>2018-07-28T08:54:37Z</time>
      </trkpt>
      <trkpt lat="36.7011489868164" lon="-5.02910804748535">
        <ele>1413.23229980469</ele>
        <time>2018-07-28T08:54:38Z</time>
      </trkpt>
      <trkpt lat="36.7011489868164" lon="-5.02910804748535">
        <ele>1413.23229980469</ele>
        <time>2018-07-28T08:54:39Z</time>
      </trkpt>
      <trkpt lat="36.7011489868164" lon="-5.02910804748535">
        <ele>1413.23229980469</ele>
        <time>2018-07-28T08:54:40Z</time>
      </trkpt>
      <trkpt lat="36.7011489868164" lon="-5.02910709381104">
        <ele>1413.25329589844</ele>
        <time>2018-07-28T08:54:41Z</time>
      </trkpt>
      <trkpt lat="36.7011489868164" lon="-5.02910614013672">
        <ele>1413.27429199219</ele>
        <time>2018-07-28T08:54:42Z</time>
      </trkpt>
      <trkpt lat="36.7011489868164" lon="-5.02910423278809">
        <ele>1413.31640625</ele>
        <time>2018-07-28T08:54:43Z</time>
      </trkpt>
      <trkpt lat="36.7011489868164" lon="-5.02910423278809">
        <ele>1413.31640625</ele>
        <time>2018-07-28T08:54:44Z</time>
      </trkpt>
      <trkpt lat="36.7011489868164" lon="-5.02910280227661">
        <ele>1413.34790039062</ele>
        <time>2018-07-28T08:54:45Z</time>
      </trkpt>
      <trkpt lat="36.7011489868164" lon="-5.0291018486023">
        <ele>1413.36901855469</ele>
        <time>2018-07-28T08:54:46Z</time>
      </trkpt>
      <trkpt lat="36.7011489868164" lon="-5.0291018486023">
        <ele>1413.36901855469</ele>
        <time>2018-07-28T08:54:47Z</time>
      </trkpt>
      <trkpt lat="36.7011489868164" lon="-5.02910089492798">
        <ele>1413.39001464844</ele>
        <time>2018-07-28T08:54:48Z</time>
      </trkpt>
      <trkpt lat="36.7011451721191" lon="-5.02909994125366">
        <ele>1413.48388671875</ele>
        <time>2018-07-28T08:54:49Z</time>
      </trkpt>
      <trkpt lat="36.7011451721191" lon="-5.02909898757935">
        <ele>1413.50500488281</ele>
        <time>2018-07-28T08:54:50Z</time>
      </trkpt>
      <trkpt lat="36.7011451721191" lon="-5.02909803390503">
        <ele>1413.52600097656</ele>
        <time>2018-07-28T08:54:51Z</time>
      </trkpt>
      <trkpt lat="36.7011451721191" lon="-5.02909708023071">
        <ele>1413.54699707031</ele>
        <time>2018-07-28T08:54:52Z</time>
      </trkpt>
      <trkpt lat="36.7011451721191" lon="-5.02909517288208">
        <ele>1413.58911132812</ele>
        <time>2018-07-28T08:54:53Z</time>
      </trkpt>
      <trkpt lat="36.7011413574219" lon="-5.02909421920776">
        <ele>1413.68298339844</ele>
        <time>2018-07-28T08:54:54Z</time>
      </trkpt>
      <trkpt lat="36.7011413574219" lon="-5.02909278869629">
        <ele>1413.71447753906</ele>
        <time>2018-07-28T08:54:55Z</time>
      </trkpt>
      <trkpt lat="36.7011413574219" lon="-5.02909183502197">
        <ele>1413.73547363281</ele>
        <time>2018-07-28T08:54:56Z</time>
      </trkpt>
      <trkpt lat="36.7011413574219" lon="-5.02909183502197">
        <ele>1413.73547363281</ele>
        <time>2018-07-28T08:54:57Z</time>
      </trkpt>
      <trkpt lat="36.7011413574219" lon="-5.02909088134766">
        <ele>1413.75646972656</ele>
        <time>2018-07-28T08:54:58Z</time>
      </trkpt>
      <trkpt lat="36.7011413574219" lon="-5.02908992767334">
        <ele>1413.77758789062</ele>
        <time>2018-07-28T08:54:59Z</time>
      </trkpt>
      <trkpt lat="36.7011375427246" lon="-5.02908897399902">
        <ele>1413.87133789062</ele>
        <time>2018-07-28T08:55:00Z</time>
      </trkpt>
      <trkpt lat="36.7011375427246" lon="-5.02908802032471">
        <ele>1413.89233398438</ele>
        <time>2018-07-28T08:55:01Z</time>
      </trkpt>
      <trkpt lat="36.7011375427246" lon="-5.02908611297607">
        <ele>1413.93444824219</ele>
        <time>2018-07-28T08:55:02Z</time>
      </trkpt>
      <trkpt lat="36.7011375427246" lon="-5.02908515930176">
        <ele>1413.95544433594</ele>
        <time>2018-07-28T08:55:03Z</time>
      </trkpt>
      <trkpt lat="36.7011337280273" lon="-5.02908420562744">
        <ele>1414.04919433594</ele>
        <time>2018-07-28T08:55:04Z</time>
      </trkpt>
      <trkpt lat="36.7011337280273" lon="-5.02908277511597">
        <ele>1414.08081054688</ele>
        <time>2018-07-28T08:55:05Z</time>
      </trkpt>
      <trkpt lat="36.7011337280273" lon="-5.02908182144165">
        <ele>1414.10180664062</ele>
        <time>2018-07-28T08:55:06Z</time>
      </trkpt>
      <trkpt lat="36.7011299133301" lon="-5.02908086776733">
        <ele>1414.19555664062</ele>
        <time>2018-07-28T08:55:07Z</time>
      </trkpt>
      <trkpt lat="36.7011299133301" lon="-5.02907991409302">
        <ele>1414.21655273438</ele>
        <time>2018-07-28T08:55:08Z</time>
      </trkpt>
      <trkpt lat="36.7011299133301" lon="-5.02907991409302">
        <ele>1414.21655273438</ele>
        <time>2018-07-28T08:55:09Z</time>
      </trkpt>
      <trkpt lat="36.7011299133301" lon="-5.0290789604187">
        <ele>1414.23754882812</ele>
        <time>2018-07-28T08:55:10Z</time>
      </trkpt>
      <trkpt lat="36.7011299133301" lon="-5.0290789604187">
        <ele>1414.23754882812</ele>
        <time>2018-07-28T08:55:11Z</time>
      </trkpt>
      <trkpt lat="36.7011299133301" lon="-5.0290789604187">
        <ele>1414.23754882812</ele>
        <time>2018-07-28T08:55:12Z</time>
      </trkpt>
      <trkpt lat="36.7011299133301" lon="-5.02907800674438">
        <ele>1414.25854492188</ele>
        <time>2018-07-28T08:55:13Z</time>
      </trkpt>
      <trkpt lat="36.7011299133301" lon="-5.02907800674438">
        <ele>1414.25854492188</ele>
        <time>2018-07-28T08:55:14Z</time>
      </trkpt>
      <trkpt lat="36.7011299133301" lon="-5.02907705307007">
        <ele>1414.27954101562</ele>
        <time>2018-07-28T08:55:15Z</time>
      </trkpt>
      <trkpt lat="36.7011337280273" lon="-5.02907705307007">
        <ele>1414.20678710938</ele>
        <time>2018-07-28T08:55:16Z</time>
      </trkpt>
      <trkpt lat="36.7011337280273" lon="-5.02907609939575">
        <ele>1414.22790527344</ele>
        <time>2018-07-28T08:55:17Z</time>
      </trkpt>
      <trkpt lat="36.7011375427246" lon="-5.02907514572144">
        <ele>1414.17614746094</ele>
        <time>2018-07-28T08:55:18Z</time>
      </trkpt>
      <trkpt lat="36.7011375427246" lon="-5.02907514572144">
        <ele>1414.17614746094</ele>
        <time>2018-07-28T08:55:19Z</time>
      </trkpt>
      <trkpt lat="36.7011375427246" lon="-5.02907514572144">
        <ele>1414.17614746094</ele>
        <time>2018-07-28T08:55:20Z</time>
      </trkpt>
      <trkpt lat="36.7011337280273" lon="-5.02907800674438">
        <ele>1414.18579101562</ele>
        <time>2018-07-28T08:55:21Z</time>
      </trkpt>
      <trkpt lat="36.7011299133301" lon="-5.02908086776733">
        <ele>1414.19555664062</ele>
        <time>2018-07-28T08:55:22Z</time>
      </trkpt>
      <trkpt lat="36.7011299133301" lon="-5.02908420562744">
        <ele>1414.1220703125</ele>
        <time>2018-07-28T08:55:23Z</time>
      </trkpt>
      <trkpt lat="36.7011299133301" lon="-5.02908515930176">
        <ele>1414.10107421875</ele>
        <time>2018-07-28T08:55:24Z</time>
      </trkpt>
      <trkpt lat="36.7011260986328" lon="-5.02908611297607">
        <ele>1414.15283203125</ele>
        <time>2018-07-28T08:55:25Z</time>
      </trkpt>
      <trkpt lat="36.7011260986328" lon="-5.02908802032471">
        <ele>1414.11083984375</ele>
        <time>2018-07-28T08:55:26Z</time>
      </trkpt>
      <trkpt lat="36.7011222839356" lon="-5.02908897399902">
        <ele>1414.16259765625</ele>
        <time>2018-07-28T08:55:27Z</time>
      </trkpt>
      <trkpt lat="36.7011222839356" lon="-5.02909088134766">
        <ele>1414.12060546875</ele>
        <time>2018-07-28T08:55:28Z</time>
      </trkpt>
      <trkpt lat="36.7011222839356" lon="-5.02909278869629">
        <ele>1414.07861328125</ele>
        <time>2018-07-28T08:55:29Z</time>
      </trkpt>
      <trkpt lat="36.7011222839356" lon="-5.02909421920776">
        <ele>1414.04711914062</ele>
        <time>2018-07-28T08:55:30Z</time>
      </trkpt>
      <trkpt lat="36.7011222839356" lon="-5.02909517288208">
        <ele>1414.02612304688</ele>
        <time>2018-07-28T08:55:31Z</time>
      </trkpt>
      <trkpt lat="36.7011222839356" lon="-5.0290961265564">
        <ele>1414.00512695312</ele>
        <time>2018-07-28T08:55:32Z</time>
      </trkpt>
      <trkpt lat="36.7011222839356" lon="-5.0290961265564">
        <ele>1414.00512695312</ele>
        <time>2018-07-28T08:55:33Z</time>
      </trkpt>
      <trkpt lat="36.7011222839356" lon="-5.02909708023071">
        <ele>1413.98413085938</ele>
        <time>2018-07-28T08:55:34Z</time>
      </trkpt>
      <trkpt lat="36.7011222839356" lon="-5.02909708023071">
        <ele>1413.98413085938</ele>
        <time>2018-07-28T08:55:35Z</time>
      </trkpt>
      <trkpt lat="36.7011222839356" lon="-5.02909708023071">
        <ele>1413.98413085938</ele>
        <time>2018-07-28T08:55:36Z</time>
      </trkpt>
      <trkpt lat="36.7011222839356" lon="-5.02909708023071">
        <ele>1413.98413085938</ele>
        <time>2018-07-28T08:55:37Z</time>
      </trkpt>
      <trkpt lat="36.7011222839356" lon="-5.02909803390503">
        <ele>1413.96313476562</ele>
        <time>2018-07-28T08:55:38Z</time>
      </trkpt>
      <trkpt lat="36.7011222839356" lon="-5.02909803390503">
        <ele>1413.96313476562</ele>
        <time>2018-07-28T08:55:39Z</time>
      </trkpt>
      <trkpt lat="36.7011222839356" lon="-5.02909803390503">
        <ele>1413.96313476562</ele>
        <time>2018-07-28T08:55:40Z</time>
      </trkpt>
      <trkpt lat="36.7011222839356" lon="-5.02909803390503">
        <ele>1413.96313476562</ele>
        <time>2018-07-28T08:55:41Z</time>
      </trkpt>
      <trkpt lat="36.7011222839356" lon="-5.02909803390503">
        <ele>1413.96313476562</ele>
        <time>2018-07-28T08:55:42Z</time>
      </trkpt>
      <trkpt lat="36.7011222839356" lon="-5.02909803390503">
        <ele>1413.96313476562</ele>
        <time>2018-07-28T08:55:43Z</time>
      </trkpt>
      <trkpt lat="36.7011222839356" lon="-5.02909803390503">
        <ele>1413.96313476562</ele>
        <time>2018-07-28T08:55:44Z</time>
      </trkpt>
      <trkpt lat="36.7011222839356" lon="-5.02909803390503">
        <ele>1413.96313476562</ele>
        <time>2018-07-28T08:55:45Z</time>
      </trkpt>
      <trkpt lat="36.7011260986328" lon="-5.02909898757935">
        <ele>1413.86926269531</ele>
        <time>2018-07-28T08:55:46Z</time>
      </trkpt>
      <trkpt lat="36.7011260986328" lon="-5.02910089492798">
        <ele>1413.82727050781</ele>
        <time>2018-07-28T08:55:47Z</time>
      </trkpt>
      <trkpt lat="36.7011260986328" lon="-5.02910280227661">
        <ele>1413.78527832031</ele>
        <time>2018-07-28T08:55:48Z</time>
      </trkpt>
      <trkpt lat="36.7011260986328" lon="-5.02910614013672">
        <ele>1413.71179199219</ele>
        <time>2018-07-28T08:55:49Z</time>
      </trkpt>
      <trkpt lat="36.7011222839356" lon="-5.02910900115967">
        <ele>1413.7216796875</ele>
        <time>2018-07-28T08:55:50Z</time>
      </trkpt>
      <trkpt lat="36.7011184692383" lon="-5.02911615371704">
        <ele>1413.63720703125</ele>
        <time>2018-07-28T08:55:51Z</time>
      </trkpt>
      <trkpt lat="36.7011184692383" lon="-5.02912187576294">
        <ele>1413.51123046875</ele>
        <time>2018-07-28T08:55:52Z</time>
      </trkpt>
      <trkpt lat="36.7011222839356" lon="-5.02912998199463">
        <ele>1413.259765625</ele>
        <time>2018-07-28T08:55:53Z</time>
      </trkpt>
      <trkpt lat="36.7011222839356" lon="-5.02913904190064">
        <ele>1413.06030273438</ele>
        <time>2018-07-28T08:55:54Z</time>
      </trkpt>
      <trkpt lat="36.7011184692383" lon="-5.02915000915527">
        <ele>1412.89208984375</ele>
        <time>2018-07-28T08:55:55Z</time>
      </trkpt>
      <trkpt lat="36.701114654541" lon="-5.02915906906128">
        <ele>1412.76586914062</ele>
        <time>2018-07-28T08:55:56Z</time>
      </trkpt>
      <trkpt lat="36.7011108398438" lon="-5.02917098999023">
        <ele>1412.59924316406</ele>
        <time>2018-07-28T08:55:57Z</time>
      </trkpt>
      <trkpt lat="36.7011070251465" lon="-5.02918386459351">
        <ele>1412.45654296875</ele>
        <time>2018-07-28T08:55:58Z</time>
      </trkpt>
      <trkpt lat="36.7011032104492" lon="-5.02919912338257">
        <ele>1412.27416992188</ele>
        <time>2018-07-28T08:55:59Z</time>
      </trkpt>
      <trkpt lat="36.7010955810547" lon="-5.02921199798584">
        <ele>1412.20629882812</ele>
        <time>2018-07-28T08:56:00Z</time>
      </trkpt>
      <trkpt lat="36.7010879516602" lon="-5.02922487258911">
        <ele>1412.13928222656</ele>
        <time>2018-07-28T08:56:01Z</time>
      </trkpt>
      <trkpt lat="36.7010841369629" lon="-5.02923488616943">
        <ele>1412.04638671875</ele>
        <time>2018-07-28T08:56:02Z</time>
      </trkpt>
      <trkpt lat="36.7010765075684" lon="-5.02924394607544">
        <ele>1412.04431152344</ele>
        <time>2018-07-28T08:56:03Z</time>
      </trkpt>
      <trkpt lat="36.7010726928711" lon="-5.02925205230713">
        <ele>1411.98400878906</ele>
        <time>2018-07-28T08:56:04Z</time>
      </trkpt>
      <trkpt lat="36.7010688781738" lon="-5.02926206588745">
        <ele>1411.89221191406</ele>
        <time>2018-07-28T08:56:05Z</time>
      </trkpt>
      <trkpt lat="36.7010612487793" lon="-5.02927207946777">
        <ele>1411.87585449219</ele>
        <time>2018-07-28T08:56:06Z</time>
      </trkpt>
      <trkpt lat="36.701057434082" lon="-5.0292820930481">
        <ele>1411.78491210938</ele>
        <time>2018-07-28T08:56:07Z</time>
      </trkpt>
      <trkpt lat="36.7010498046875" lon="-5.02929210662842">
        <ele>1411.76953125</ele>
        <time>2018-07-28T08:56:08Z</time>
      </trkpt>
      <trkpt lat="36.7010498046875" lon="-5.02930402755737">
        <ele>1411.57250976562</ele>
        <time>2018-07-28T08:56:09Z</time>
      </trkpt>
      <trkpt lat="36.7010459899902" lon="-5.02931690216064">
        <ele>1411.43530273438</ele>
        <time>2018-07-28T08:56:10Z</time>
      </trkpt>
      <trkpt lat="36.701042175293" lon="-5.02932977676392">
        <ele>1411.29858398438</ele>
        <time>2018-07-28T08:56:11Z</time>
      </trkpt>
      <trkpt lat="36.7010345458984" lon="-5.02934217453003">
        <ele>1411.24621582031</ele>
        <time>2018-07-28T08:56:12Z</time>
      </trkpt>
      <trkpt lat="36.7010307312012" lon="-5.02935409545898">
        <ele>1411.12622070312</ele>
        <time>2018-07-28T08:56:13Z</time>
      </trkpt>
      <trkpt lat="36.7010231018066" lon="-5.02936315536499">
        <ele>1411.13012695312</ele>
        <time>2018-07-28T08:56:14Z</time>
      </trkpt>
      <trkpt lat="36.7010154724121" lon="-5.0293698310852">
        <ele>1411.17370605469</ele>
        <time>2018-07-28T08:56:15Z</time>
      </trkpt>
      <trkpt lat="36.7010040283203" lon="-5.02937507629394">
        <ele>1411.31774902344</ele>
        <time>2018-07-28T08:56:16Z</time>
      </trkpt>
      <trkpt lat="36.7009963989258" lon="-5.02938079833984">
        <ele>1411.37780761719</ele>
        <time>2018-07-28T08:56:17Z</time>
      </trkpt>
      <trkpt lat="36.7009887695312" lon="-5.02938604354858">
        <ele>1411.44604492188</ele>
        <time>2018-07-28T08:56:18Z</time>
      </trkpt>
      <trkpt lat="36.7009811401367" lon="-5.02939081192017">
        <ele>1411.52233886719</ele>
        <time>2018-07-28T08:56:19Z</time>
      </trkpt>
      <trkpt lat="36.7009735107422" lon="-5.02939510345459">
        <ele>1411.60668945312</ele>
        <time>2018-07-28T08:56:20Z</time>
      </trkpt>
      <trkpt lat="36.7009620666504" lon="-5.02939987182617">
        <ele>1411.76062011719</ele>
        <time>2018-07-28T08:56:21Z</time>
      </trkpt>
      <trkpt lat="36.7009544372559" lon="-5.02940607070923">
        <ele>1411.81481933594</ele>
        <time>2018-07-28T08:56:22Z</time>
      </trkpt>
      <trkpt lat="36.7009506225586" lon="-5.02941083908081">
        <ele>1411.81518554688</ele>
        <time>2018-07-28T08:56:23Z</time>
      </trkpt>
      <trkpt lat="36.7009468078613" lon="-5.02941179275513">
        <ele>1411.87719726562</ele>
        <time>2018-07-28T08:56:24Z</time>
      </trkpt>
      <trkpt lat="36.7009468078613" lon="-5.02941179275513">
        <ele>1411.87719726562</ele>
        <time>2018-07-28T08:56:25Z</time>
      </trkpt>
      <trkpt lat="36.7009429931641" lon="-5.02941179275513">
        <ele>1411.95446777344</ele>
        <time>2018-07-28T08:56:26Z</time>
      </trkpt>
      <trkpt lat="36.7009391784668" lon="-5.02941179275513">
        <ele>1412.03173828125</ele>
        <time>2018-07-28T08:56:27Z</time>
      </trkpt>
      <trkpt lat="36.7009353637695" lon="-5.02941179275513">
        <ele>1412.10900878906</ele>
        <time>2018-07-28T08:56:28Z</time>
      </trkpt>
      <trkpt lat="36.7009315490723" lon="-5.02941179275513">
        <ele>1412.18627929688</ele>
        <time>2018-07-28T08:56:29Z</time>
      </trkpt>
      <trkpt lat="36.7009239196777" lon="-5.02941417694092">
        <ele>1412.302734375</ele>
        <time>2018-07-28T08:56:30Z</time>
      </trkpt>
      <trkpt lat="36.7009201049805" lon="-5.02941799163818">
        <ele>1412.31909179688</ele>
        <time>2018-07-28T08:56:31Z</time>
      </trkpt>
      <trkpt lat="36.7009124755859" lon="-5.02942180633545">
        <ele>1412.4130859375</ele>
        <time>2018-07-28T08:56:32Z</time>
      </trkpt>
      <trkpt lat="36.7009086608887" lon="-5.02942609786987">
        <ele>1412.42211914062</ele>
        <time>2018-07-28T08:56:33Z</time>
      </trkpt>
      <trkpt lat="36.7009010314941" lon="-5.02942991256714">
        <ele>1412.5166015625</ele>
        <time>2018-07-28T08:56:34Z</time>
      </trkpt>
      <trkpt lat="36.7008934020996" lon="-5.02943515777588">
        <ele>1412.58850097656</ele>
        <time>2018-07-28T08:56:35Z</time>
      </trkpt>
      <trkpt lat="36.7008819580078" lon="-5.02944087982178">
        <ele>1412.73107910156</ele>
        <time>2018-07-28T08:56:36Z</time>
      </trkpt>
      <trkpt lat="36.700870513916" lon="-5.02944707870483">
        <ele>1412.86669921875</ele>
        <time>2018-07-28T08:56:37Z</time>
      </trkpt>
      <trkpt lat="36.7008590698242" lon="-5.02945423126221">
        <ele>1412.98791503906</ele>
        <time>2018-07-28T08:56:38Z</time>
      </trkpt>
      <trkpt lat="36.7008476257324" lon="-5.02946090698242">
        <ele>1413.11730957031</ele>
        <time>2018-07-28T08:56:39Z</time>
      </trkpt>
      <trkpt lat="36.7008361816406" lon="-5.0294680595398">
        <ele>1413.23986816406</ele>
        <time>2018-07-28T08:56:40Z</time>
      </trkpt>
      <trkpt lat="36.7008285522461" lon="-5.02947521209717">
        <ele>1413.22790527344</ele>
        <time>2018-07-28T08:56:41Z</time>
      </trkpt>
      <trkpt lat="36.7008171081543" lon="-5.02947998046875">
        <ele>1413.25073242188</ele>
        <time>2018-07-28T08:56:42Z</time>
      </trkpt>
      <trkpt lat="36.7008056640625" lon="-5.02948713302612">
        <ele>1413.23315429688</ele>
        <time>2018-07-28T08:56:43Z</time>
      </trkpt>
      <trkpt lat="36.700798034668" lon="-5.02949285507202">
        <ele>1413.20422363281</ele>
        <time>2018-07-28T08:56:44Z</time>
      </trkpt>
      <trkpt lat="36.7007904052734" lon="-5.02949810028076">
        <ele>1413.18139648438</ele>
        <time>2018-07-28T08:56:45Z</time>
      </trkpt>
      <trkpt lat="36.7007827758789" lon="-5.02950096130371">
        <ele>1413.19665527344</ele>
        <time>2018-07-28T08:56:46Z</time>
      </trkpt>
      <trkpt lat="36.7007713317871" lon="-5.02950382232666">
        <ele>1413.24182128906</ele>
        <time>2018-07-28T08:56:47Z</time>
      </trkpt>
      <trkpt lat="36.7007637023926" lon="-5.02950716018677">
        <ele>1413.24719238281</ele>
        <time>2018-07-28T08:56:48Z</time>
      </trkpt>
      <trkpt lat="36.7007522583008" lon="-5.02951002120972">
        <ele>1413.2900390625</ele>
        <time>2018-07-28T08:56:49Z</time>
      </trkpt>
      <trkpt lat="36.7007446289062" lon="-5.0295147895813">
        <ele>1413.2685546875</ele>
        <time>2018-07-28T08:56:50Z</time>
      </trkpt>
      <trkpt lat="36.7007369995117" lon="-5.02952098846436">
        <ele>1413.22082519531</ele>
        <time>2018-07-28T08:56:51Z</time>
      </trkpt>
      <trkpt lat="36.7007293701172" lon="-5.02952909469604">
        <ele>1413.13781738281</ele>
        <time>2018-07-28T08:56:52Z</time>
      </trkpt>
      <trkpt lat="36.7007217407227" lon="-5.02953577041626">
        <ele>1413.07788085938</ele>
        <time>2018-07-28T08:56:53Z</time>
      </trkpt>
      <trkpt lat="36.7007102966309" lon="-5.02954483032227">
        <ele>1413.00134277344</ele>
        <time>2018-07-28T08:56:54Z</time>
      </trkpt>
      <trkpt lat="36.7007026672363" lon="-5.02955293655396">
        <ele>1412.91088867188</ele>
        <time>2018-07-28T08:56:55Z</time>
      </trkpt>
      <trkpt lat="36.7006912231445" lon="-5.02956008911133">
        <ele>1412.86242675781</ele>
        <time>2018-07-28T08:56:56Z</time>
      </trkpt>
      <trkpt lat="36.70068359375" lon="-5.02956485748291">
        <ele>1412.82824707031</ele>
        <time>2018-07-28T08:56:57Z</time>
      </trkpt>
      <trkpt lat="36.7006721496582" lon="-5.02956914901733">
        <ele>1412.82788085938</ele>
        <time>2018-07-28T08:56:58Z</time>
      </trkpt>
      <trkpt lat="36.7006607055664" lon="-5.02957391738892">
        <ele>1412.81665039062</ele>
        <time>2018-07-28T08:56:59Z</time>
      </trkpt>
      <trkpt lat="36.7006530761719" lon="-5.02958011627197">
        <ele>1412.75073242188</ele>
        <time>2018-07-28T08:57:00Z</time>
      </trkpt>
      <trkpt lat="36.7006416320801" lon="-5.02958679199219">
        <ele>1412.69885253906</ele>
        <time>2018-07-28T08:57:01Z</time>
      </trkpt>
      <trkpt lat="36.7006340026856" lon="-5.02959299087524">
        <ele>1412.62890625</ele>
        <time>2018-07-28T08:57:02Z</time>
      </trkpt>
      <trkpt lat="36.7006225585938" lon="-5.02959823608398">
        <ele>1412.59985351562</ele>
        <time>2018-07-28T08:57:03Z</time>
      </trkpt>
      <trkpt lat="36.700611114502" lon="-5.02960014343262">
        <ele>1412.63452148438</ele>
        <time>2018-07-28T08:57:04Z</time>
      </trkpt>
      <trkpt lat="36.7006034851074" lon="-5.02960109710693">
        <ele>1412.66345214844</ele>
        <time>2018-07-28T08:57:05Z</time>
      </trkpt>
      <trkpt lat="36.7005958557129" lon="-5.0295991897583">
        <ele>1412.74951171875</ele>
        <time>2018-07-28T08:57:06Z</time>
      </trkpt>
      <trkpt lat="36.7005882263184" lon="-5.02959585189819">
        <ele>1412.86499023438</ele>
        <time>2018-07-28T08:57:07Z</time>
      </trkpt>
      <trkpt lat="36.7005805969238" lon="-5.02959108352661">
        <ele>1413.01049804688</ele>
        <time>2018-07-28T08:57:08Z</time>
      </trkpt>
      <trkpt lat="36.700569152832" lon="-5.02958583831787">
        <ele>1413.19213867188</ele>
        <time>2018-07-28T08:57:09Z</time>
      </trkpt>
      <trkpt lat="36.7005615234375" lon="-5.02958393096924">
        <ele>1413.28161621094</ele>
        <time>2018-07-28T08:57:10Z</time>
      </trkpt>
      <trkpt lat="36.7005462646484" lon="-5.02958297729492">
        <ele>1413.40209960938</ele>
        <time>2018-07-28T08:57:11Z</time>
      </trkpt>
      <trkpt lat="36.7005386352539" lon="-5.02958297729492">
        <ele>1413.45251464844</ele>
        <time>2018-07-28T08:57:12Z</time>
      </trkpt>
      <trkpt lat="36.7005271911621" lon="-5.02958106994629">
        <ele>1413.56884765625</ele>
        <time>2018-07-28T08:57:13Z</time>
      </trkpt>
      <trkpt lat="36.7005195617676" lon="-5.02958011627197">
        <ele>1413.64001464844</ele>
        <time>2018-07-28T08:57:14Z</time>
      </trkpt>
      <trkpt lat="36.700511932373" lon="-5.02957820892334">
        <ele>1413.73205566406</ele>
        <time>2018-07-28T08:57:15Z</time>
      </trkpt>
      <trkpt lat="36.7005043029785" lon="-5.02957391738892">
        <ele>1413.87646484375</ele>
        <time>2018-07-28T08:57:16Z</time>
      </trkpt>
      <trkpt lat="36.7004928588867" lon="-5.02956914901733">
        <ele>1414.05883789062</ele>
        <time>2018-07-28T08:57:17Z</time>
      </trkpt>
      <trkpt lat="36.7004776000977" lon="-5.02956819534302">
        <ele>1414.18481445312</ele>
        <time>2018-07-28T08:57:18Z</time>
      </trkpt>
      <trkpt lat="36.7004661560059" lon="-5.02957010269165">
        <ele>1414.220703125</ele>
        <time>2018-07-28T08:57:19Z</time>
      </trkpt>
      <trkpt lat="36.7004585266113" lon="-5.02957582473755">
        <ele>1414.1435546875</ele>
        <time>2018-07-28T08:57:20Z</time>
      </trkpt>
      <trkpt lat="36.7004508972168" lon="-5.02958202362061">
        <ele>1414.05383300781</ele>
        <time>2018-07-28T08:57:21Z</time>
      </trkpt>
      <trkpt lat="36.7004432678223" lon="-5.02958679199219">
        <ele>1413.99523925781</ele>
        <time>2018-07-28T08:57:22Z</time>
      </trkpt>
      <trkpt lat="36.700439453125" lon="-5.02959203720093">
        <ele>1413.89965820312</ele>
        <time>2018-07-28T08:57:23Z</time>
      </trkpt>
      <trkpt lat="36.7004318237305" lon="-5.02959680557251">
        <ele>1413.83850097656</ele>
        <time>2018-07-28T08:57:24Z</time>
      </trkpt>
      <trkpt lat="36.7004241943359" lon="-5.02960300445557">
        <ele>1413.74279785156</ele>
        <time>2018-07-28T08:57:25Z</time>
      </trkpt>
      <trkpt lat="36.7004165649414" lon="-5.02960920333862">
        <ele>1413.64526367188</ele>
        <time>2018-07-28T08:57:26Z</time>
      </trkpt>
      <trkpt lat="36.7004089355469" lon="-5.02961587905884">
        <ele>1413.53479003906</ele>
        <time>2018-07-28T08:57:27Z</time>
      </trkpt>
      <trkpt lat="36.7004013061523" lon="-5.02962017059326">
        <ele>1413.47875976562</ele>
        <time>2018-07-28T08:57:28Z</time>
      </trkpt>
      <trkpt lat="36.7003974914551" lon="-5.02962398529053">
        <ele>1413.41076660156</ele>
        <time>2018-07-28T08:57:29Z</time>
      </trkpt>
      <trkpt lat="36.7003974914551" lon="-5.02962684631348">
        <ele>1413.3427734375</ele>
        <time>2018-07-28T08:57:30Z</time>
      </trkpt>
      <trkpt lat="36.7003974914551" lon="-5.02962684631348">
        <ele>1413.3427734375</ele>
        <time>2018-07-28T08:57:31Z</time>
      </trkpt>
      <trkpt lat="36.7003936767578" lon="-5.02962779998779">
        <ele>1413.34204101562</ele>
        <time>2018-07-28T08:57:32Z</time>
      </trkpt>
      <trkpt lat="36.7003936767578" lon="-5.02962923049927">
        <ele>1413.30798339844</ele>
        <time>2018-07-28T08:57:33Z</time>
      </trkpt>
      <trkpt lat="36.7003898620606" lon="-5.02963209152222">
        <ele>1413.26147460938</ele>
        <time>2018-07-28T08:57:34Z</time>
      </trkpt>
      <trkpt lat="36.700382232666" lon="-5.02963304519653">
        <ele>1413.28198242188</ele>
        <time>2018-07-28T08:57:35Z</time>
      </trkpt>
      <trkpt lat="36.7003746032715" lon="-5.02963304519653">
        <ele>1413.3251953125</ele>
        <time>2018-07-28T08:57:36Z</time>
      </trkpt>
      <trkpt lat="36.700366973877" lon="-5.02963590621948">
        <ele>1413.298828125</ele>
        <time>2018-07-28T08:57:37Z</time>
      </trkpt>
      <trkpt lat="36.7003593444824" lon="-5.02964019775391">
        <ele>1413.23669433594</ele>
        <time>2018-07-28T08:57:38Z</time>
      </trkpt>
      <trkpt lat="36.7003517150879" lon="-5.02964687347412">
        <ele>1413.11462402344</ele>
        <time>2018-07-28T08:57:39Z</time>
      </trkpt>
      <trkpt lat="36.7003479003906" lon="-5.02965497970581">
        <ele>1412.93505859375</ele>
        <time>2018-07-28T08:57:40Z</time>
      </trkpt>
      <trkpt lat="36.7003402709961" lon="-5.02966499328613">
        <ele>1412.7265625</ele>
        <time>2018-07-28T08:57:41Z</time>
      </trkpt>
      <trkpt lat="36.7003326416016" lon="-5.02967309951782">
        <ele>1412.56286621094</ele>
        <time>2018-07-28T08:57:42Z</time>
      </trkpt>
      <trkpt lat="36.7003288269043" lon="-5.0296778678894">
        <ele>1412.46215820312</ele>
        <time>2018-07-28T08:57:43Z</time>
      </trkpt>
      <trkpt lat="36.7003288269043" lon="-5.02968215942383">
        <ele>1412.35473632812</ele>
        <time>2018-07-28T08:57:44Z</time>
      </trkpt>
      <trkpt lat="36.7003288269043" lon="-5.02968311309814">
        <ele>1412.33081054688</ele>
        <time>2018-07-28T08:57:45Z</time>
      </trkpt>
      <trkpt lat="36.7003288269043" lon="-5.02968311309814">
        <ele>1412.33081054688</ele>
        <time>2018-07-28T08:57:46Z</time>
      </trkpt>
      <trkpt lat="36.700325012207" lon="-5.02968406677246">
        <ele>1412.32495117188</ele>
        <time>2018-07-28T08:57:47Z</time>
      </trkpt>
      <trkpt lat="36.7003211975098" lon="-5.02968692779541">
        <ele>1412.27087402344</ele>
        <time>2018-07-28T08:57:48Z</time>
      </trkpt>
      <trkpt lat="36.7003173828125" lon="-5.02968978881836">
        <ele>1412.21630859375</ele>
        <time>2018-07-28T08:57:49Z</time>
      </trkpt>
      <trkpt lat="36.700309753418" lon="-5.02969121932983">
        <ele>1412.21520996094</ele>
        <time>2018-07-28T08:57:50Z</time>
      </trkpt>
      <trkpt lat="36.7003021240234" lon="-5.02969312667847">
        <ele>1412.20141601562</ele>
        <time>2018-07-28T08:57:51Z</time>
      </trkpt>
      <trkpt lat="36.7002906799316" lon="-5.0296950340271">
        <ele>1412.20422363281</ele>
        <time>2018-07-28T08:57:52Z</time>
      </trkpt>
      <trkpt lat="36.7002792358398" lon="-5.02969694137573">
        <ele>1412.20629882812</ele>
        <time>2018-07-28T08:57:53Z</time>
      </trkpt>
      <trkpt lat="36.700267791748" lon="-5.02969884872436">
        <ele>1412.20751953125</ele>
        <time>2018-07-28T08:57:54Z</time>
      </trkpt>
      <trkpt lat="36.7002563476562" lon="-5.02969884872436">
        <ele>1412.25842285156</ele>
        <time>2018-07-28T08:57:55Z</time>
      </trkpt>
      <trkpt lat="36.7002449035644" lon="-5.02970218658447">
        <ele>1412.22033691406</ele>
        <time>2018-07-28T08:57:56Z</time>
      </trkpt>
      <trkpt lat="36.7002334594727" lon="-5.02970504760742">
        <ele>1412.19360351562</ele>
        <time>2018-07-28T08:57:57Z</time>
      </trkpt>
      <trkpt lat="36.7002258300781" lon="-5.02970886230469">
        <ele>1412.12365722656</ele>
        <time>2018-07-28T08:57:58Z</time>
      </trkpt>
      <trkpt lat="36.7002143859863" lon="-5.0297122001648">
        <ele>1412.08154296875</ele>
        <time>2018-07-28T08:57:59Z</time>
      </trkpt>
      <trkpt lat="36.7002067565918" lon="-5.02971410751343">
        <ele>1412.06140136719</ele>
        <time>2018-07-28T08:58:00Z</time>
      </trkpt>
      <trkpt lat="36.7001953125" lon="-5.02971601486206">
        <ele>1412.05639648438</ele>
        <time>2018-07-28T08:58:01Z</time>
      </trkpt>
      <trkpt lat="36.7001876831055" lon="-5.02971887588501">
        <ele>1412.00854492188</ele>
        <time>2018-07-28T08:58:02Z</time>
      </trkpt>
      <trkpt lat="36.7001762390137" lon="-5.02972316741943">
        <ele>1411.93530273438</ele>
        <time>2018-07-28T08:58:03Z</time>
      </trkpt>
      <trkpt lat="36.7001686096191" lon="-5.02972888946533">
        <ele>1411.80529785156</ele>
        <time>2018-07-28T08:58:04Z</time>
      </trkpt>
      <trkpt lat="36.7001571655273" lon="-5.02973508834839">
        <ele>1411.67443847656</ele>
        <time>2018-07-28T08:58:05Z</time>
      </trkpt>
      <trkpt lat="36.7001533508301" lon="-5.02973985671997">
        <ele>1411.5537109375</ele>
        <time>2018-07-28T08:58:06Z</time>
      </trkpt>
      <trkpt lat="36.7001457214356" lon="-5.02974510192871">
        <ele>1411.43237304688</ele>
        <time>2018-07-28T08:58:07Z</time>
      </trkpt>
      <trkpt lat="36.7001342773438" lon="-5.02974987030029">
        <ele>1411.33642578125</ele>
        <time>2018-07-28T08:58:08Z</time>
      </trkpt>
      <trkpt lat="36.7001304626465" lon="-5.02975606918335">
        <ele>1411.17150878906</ele>
        <time>2018-07-28T08:58:09Z</time>
      </trkpt>
      <trkpt lat="36.700122833252" lon="-5.02976322174072">
        <ele>1410.99047851562</ele>
        <time>2018-07-28T08:58:10Z</time>
      </trkpt>
      <trkpt lat="36.7001190185547" lon="-5.02977085113525">
        <ele>1410.78173828125</ele>
        <time>2018-07-28T08:58:11Z</time>
      </trkpt>
      <trkpt lat="36.7001113891602" lon="-5.02977800369263">
        <ele>1410.59704589844</ele>
        <time>2018-07-28T08:58:12Z</time>
      </trkpt>
      <trkpt lat="36.7001075744629" lon="-5.02978515625">
        <ele>1410.39953613281</ele>
        <time>2018-07-28T08:58:13Z</time>
      </trkpt>
      <trkpt lat="36.7001075744629" lon="-5.02979183197022">
        <ele>1410.20471191406</ele>
        <time>2018-07-28T08:58:14Z</time>
      </trkpt>
      <trkpt lat="36.7001037597656" lon="-5.02980089187622">
        <ele>1409.94995117188</ele>
        <time>2018-07-28T08:58:15Z</time>
      </trkpt>
      <trkpt lat="36.7000961303711" lon="-5.02981090545654">
        <ele>1409.6748046875</ele>
        <time>2018-07-28T08:58:16Z</time>
      </trkpt>
      <trkpt lat="36.7000923156738" lon="-5.02981901168823">
        <ele>1409.44482421875</ele>
        <time>2018-07-28T08:58:17Z</time>
      </trkpt>
      <trkpt lat="36.7000923156738" lon="-5.02982378005981">
        <ele>1409.30432128906</ele>
        <time>2018-07-28T08:58:18Z</time>
      </trkpt>
      <trkpt lat="36.7000923156738" lon="-5.02982616424561">
        <ele>1409.23400878906</ele>
        <time>2018-07-28T08:58:19Z</time>
      </trkpt>
      <trkpt lat="36.7000923156738" lon="-5.02982807159424">
        <ele>1409.17785644531</ele>
        <time>2018-07-28T08:58:20Z</time>
      </trkpt>
      <trkpt lat="36.7000923156738" lon="-5.02982807159424">
        <ele>1409.17785644531</ele>
        <time>2018-07-28T08:58:21Z</time>
      </trkpt>
      <trkpt lat="36.7000923156738" lon="-5.02982807159424">
        <ele>1409.17785644531</ele>
        <time>2018-07-28T08:58:22Z</time>
      </trkpt>
      <trkpt lat="36.7000923156738" lon="-5.02982807159424">
        <ele>1409.17785644531</ele>
        <time>2018-07-28T08:58:23Z</time>
      </trkpt>
      <trkpt lat="36.7000846862793" lon="-5.02982807159424">
        <ele>1409.19323730469</ele>
        <time>2018-07-28T08:58:24Z</time>
      </trkpt>
      <trkpt lat="36.7000770568848" lon="-5.02982711791992">
        <ele>1409.23706054688</ele>
        <time>2018-07-28T08:58:25Z</time>
      </trkpt>
      <trkpt lat="36.700065612793" lon="-5.02982807159424">
        <ele>1409.23168945312</ele>
        <time>2018-07-28T08:58:26Z</time>
      </trkpt>
      <trkpt lat="36.7000541687012" lon="-5.0298318862915">
        <ele>1409.1396484375</ele>
        <time>2018-07-28T08:58:27Z</time>
      </trkpt>
      <trkpt lat="36.7000465393066" lon="-5.02984094619751">
        <ele>1408.87976074219</ele>
        <time>2018-07-28T08:58:28Z</time>
      </trkpt>
      <trkpt lat="36.7000389099121" lon="-5.02985191345215">
        <ele>1408.55908203125</ele>
        <time>2018-07-28T08:58:29Z</time>
      </trkpt>
      <trkpt lat="36.7000312805176" lon="-5.02986192703247">
        <ele>1408.26452636719</ele>
        <time>2018-07-28T08:58:30Z</time>
      </trkpt>
      <trkpt lat="36.7000274658203" lon="-5.02986907958984">
        <ele>1408.05041503906</ele>
        <time>2018-07-28T08:58:31Z</time>
      </trkpt>
      <trkpt lat="36.700023651123" lon="-5.02987384796143">
        <ele>1407.90844726562</ele>
        <time>2018-07-28T08:58:32Z</time>
      </trkpt>
      <trkpt lat="36.7000198364258" lon="-5.02987718582153">
        <ele>1407.81005859375</ele>
        <time>2018-07-28T08:58:33Z</time>
      </trkpt>
      <trkpt lat="36.7000160217285" lon="-5.0298810005188">
        <ele>1407.6962890625</ele>
        <time>2018-07-28T08:58:34Z</time>
      </trkpt>
      <trkpt lat="36.700008392334" lon="-5.02988719940186">
        <ele>1407.51171875</ele>
        <time>2018-07-28T08:58:35Z</time>
      </trkpt>
      <trkpt lat="36.7000007629394" lon="-5.02989101409912">
        <ele>1407.39965820312</ele>
        <time>2018-07-28T08:58:36Z</time>
      </trkpt>
      <trkpt lat="36.6999931335449" lon="-5.02989292144775">
        <ele>1407.35864257812</ele>
        <time>2018-07-28T08:58:37Z</time>
      </trkpt>
      <trkpt lat="36.6999855041504" lon="-5.02989387512207">
        <ele>1407.34838867188</ele>
        <time>2018-07-28T08:58:38Z</time>
      </trkpt>
      <trkpt lat="36.6999778747559" lon="-5.02989196777344">
        <ele>1407.42810058594</ele>
        <time>2018-07-28T08:58:39Z</time>
      </trkpt>
      <trkpt lat="36.6999664306641" lon="-5.0298900604248">
        <ele>1407.51818847656</ele>
        <time>2018-07-28T08:58:40Z</time>
      </trkpt>
      <trkpt lat="36.6999588012695" lon="-5.02988815307617">
        <ele>1407.59875488281</ele>
        <time>2018-07-28T08:58:41Z</time>
      </trkpt>
      <trkpt lat="36.699951171875" lon="-5.02988910675049">
        <ele>1407.58862304688</ele>
        <time>2018-07-28T08:58:42Z</time>
      </trkpt>
      <trkpt lat="36.6999435424805" lon="-5.02989292144775">
        <ele>1407.48693847656</ele>
        <time>2018-07-28T08:58:43Z</time>
      </trkpt>
      <trkpt lat="36.6999320983887" lon="-5.02989721298218">
        <ele>1407.37890625</ele>
        <time>2018-07-28T08:58:44Z</time>
      </trkpt>
      <trkpt lat="36.6999244689941" lon="-5.02990198135376">
        <ele>1407.24475097656</ele>
        <time>2018-07-28T08:58:45Z</time>
      </trkpt>
      <trkpt lat="36.6999168395996" lon="-5.02990388870239">
        <ele>1407.20202636719</ele>
        <time>2018-07-28T08:58:46Z</time>
      </trkpt>
      <trkpt lat="36.6999130249023" lon="-5.02990579605103">
        <ele>1407.14978027344</ele>
        <time>2018-07-28T08:58:47Z</time>
      </trkpt>
      <trkpt lat="36.6999092102051" lon="-5.02990818023682">
        <ele>1407.08178710938</ele>
        <time>2018-07-28T08:58:48Z</time>
      </trkpt>
      <trkpt lat="36.6999015808106" lon="-5.0299129486084">
        <ele>1406.94519042969</ele>
        <time>2018-07-28T08:58:49Z</time>
      </trkpt>
      <trkpt lat="36.699893951416" lon="-5.02991914749146">
        <ele>1406.76098632812</ele>
        <time>2018-07-28T08:58:50Z</time>
      </trkpt>
      <trkpt lat="36.6998863220215" lon="-5.02992582321167">
        <ele>1406.56005859375</ele>
        <time>2018-07-28T08:58:51Z</time>
      </trkpt>
      <trkpt lat="36.699878692627" lon="-5.02993011474609">
        <ele>1406.43591308594</ele>
        <time>2018-07-28T08:58:52Z</time>
      </trkpt>
      <trkpt lat="36.6998672485352" lon="-5.02993392944336">
        <ele>1406.33435058594</ele>
        <time>2018-07-28T08:58:53Z</time>
      </trkpt>
      <trkpt lat="36.6998596191406" lon="-5.02993822097778">
        <ele>1406.20837402344</ele>
        <time>2018-07-28T08:58:54Z</time>
      </trkpt>
      <trkpt lat="36.6998519897461" lon="-5.02994108200073">
        <ele>1406.12890625</ele>
        <time>2018-07-28T08:58:55Z</time>
      </trkpt>
      <trkpt lat="36.6998443603516" lon="-5.02994108200073">
        <ele>1406.14379882812</ele>
        <time>2018-07-28T08:58:56Z</time>
      </trkpt>
      <trkpt lat="36.699836730957" lon="-5.02994108200073">
        <ele>1406.15881347656</ele>
        <time>2018-07-28T08:58:57Z</time>
      </trkpt>
      <trkpt lat="36.6998291015625" lon="-5.02994298934936">
        <ele>1406.11010742188</ele>
        <time>2018-07-28T08:58:58Z</time>
      </trkpt>
      <trkpt lat="36.699821472168" lon="-5.02994298934936">
        <ele>1406.12487792969</ele>
        <time>2018-07-28T08:58:59Z</time>
      </trkpt>
      <trkpt lat="36.699821472168" lon="-5.02994203567505">
        <ele>1406.15686035156</ele>
        <time>2018-07-28T08:59:00Z</time>
      </trkpt>
      <trkpt lat="36.699821472168" lon="-5.02994203567505">
        <ele>1406.15686035156</ele>
        <time>2018-07-28T08:59:01Z</time>
      </trkpt>
      <trkpt lat="36.6998176574707" lon="-5.02994298934936">
        <ele>1406.13232421875</ele>
        <time>2018-07-28T08:59:02Z</time>
      </trkpt>
      <trkpt lat="36.6998138427734" lon="-5.02994394302368">
        <ele>1406.10766601562</ele>
        <time>2018-07-28T08:59:03Z</time>
      </trkpt>
      <trkpt lat="36.6998100280762" lon="-5.029944896698">
        <ele>1406.08288574219</ele>
        <time>2018-07-28T08:59:04Z</time>
      </trkpt>
      <trkpt lat="36.6998023986816" lon="-5.02994823455811">
        <ele>1405.98474121094</ele>
        <time>2018-07-28T08:59:05Z</time>
      </trkpt>
      <trkpt lat="36.6997985839844" lon="-5.02995204925537">
        <ele>1405.86291503906</ele>
        <time>2018-07-28T08:59:06Z</time>
      </trkpt>
      <trkpt lat="36.6997947692871" lon="-5.02995491027832">
        <ele>1405.77294921875</ele>
        <time>2018-07-28T08:59:07Z</time>
      </trkpt>
      <trkpt lat="36.6997909545898" lon="-5.02995681762695">
        <ele>1405.71508789062</ele>
        <time>2018-07-28T08:59:08Z</time>
      </trkpt>
      <trkpt lat="36.6997871398926" lon="-5.02995777130127">
        <ele>1405.689453125</ele>
        <time>2018-07-28T08:59:09Z</time>
      </trkpt>
      <trkpt lat="36.699779510498" lon="-5.02995920181274">
        <ele>1405.65405273438</ele>
        <time>2018-07-28T08:59:10Z</time>
      </trkpt>
      <trkpt lat="36.6997718811035" lon="-5.02995920181274">
        <ele>1405.66723632812</ele>
        <time>2018-07-28T08:59:11Z</time>
      </trkpt>
      <trkpt lat="36.6997566223144" lon="-5.02995920181274">
        <ele>1405.69360351562</ele>
        <time>2018-07-28T08:59:12Z</time>
      </trkpt>
      <trkpt lat="36.6997451782227" lon="-5.02995920181274">
        <ele>1405.71337890625</ele>
        <time>2018-07-28T08:59:13Z</time>
      </trkpt>
      <trkpt lat="36.6997337341309" lon="-5.02996206283569">
        <ele>1405.63403320312</ele>
        <time>2018-07-28T08:59:14Z</time>
      </trkpt>
      <trkpt lat="36.6997184753418" lon="-5.02996778488159">
        <ele>1405.46044921875</ele>
        <time>2018-07-28T08:59:15Z</time>
      </trkpt>
      <trkpt lat="36.6997108459473" lon="-5.02997493743896">
        <ele>1405.22290039062</ele>
        <time>2018-07-28T08:59:16Z</time>
      </trkpt>
      <trkpt lat="36.6996994018555" lon="-5.02998113632202">
        <ele>1405.02270507812</ele>
        <time>2018-07-28T08:59:17Z</time>
      </trkpt>
      <trkpt lat="36.6996917724609" lon="-5.02998495101929">
        <ele>1404.89953613281</ele>
        <time>2018-07-28T08:59:18Z</time>
      </trkpt>
      <trkpt lat="36.6996841430664" lon="-5.02999019622803">
        <ele>1404.72509765625</ele>
        <time>2018-07-28T08:59:19Z</time>
      </trkpt>
      <trkpt lat="36.6996765136719" lon="-5.02999496459961">
        <ele>1404.56640625</ele>
        <time>2018-07-28T08:59:20Z</time>
      </trkpt>
      <trkpt lat="36.6996688842773" lon="-5.03000020980835">
        <ele>1404.39221191406</ele>
        <time>2018-07-28T08:59:21Z</time>
      </trkpt>
      <trkpt lat="36.6996612548828" lon="-5.03000497817993">
        <ele>1404.28454589844</ele>
        <time>2018-07-28T08:59:22Z</time>
      </trkpt>
      <trkpt lat="36.6996536254883" lon="-5.03000688552856">
        <ele>1404.24694824219</ele>
        <time>2018-07-28T08:59:23Z</time>
      </trkpt>
      <trkpt lat="36.6996421813965" lon="-5.03001022338867">
        <ele>1404.1787109375</ele>
        <time>2018-07-28T08:59:24Z</time>
      </trkpt>
      <trkpt lat="36.699634552002" lon="-5.03001403808594">
        <ele>1404.09423828125</ele>
        <time>2018-07-28T08:59:25Z</time>
      </trkpt>
      <trkpt lat="36.6996231079102" lon="-5.0300178527832">
        <ele>1404.01416015625</ele>
        <time>2018-07-28T08:59:26Z</time>
      </trkpt>
      <trkpt lat="36.6996154785156" lon="-5.03002214431763">
        <ele>1403.91772460938</ele>
        <time>2018-07-28T08:59:27Z</time>
      </trkpt>
      <trkpt lat="36.6996078491211" lon="-5.03002595901489">
        <ele>1403.83288574219</ele>
        <time>2018-07-28T08:59:28Z</time>
      </trkpt>
      <trkpt lat="36.6995964050293" lon="-5.03002977371216">
        <ele>1403.75244140625</ele>
        <time>2018-07-28T08:59:29Z</time>
      </trkpt>
      <trkpt lat="36.6995887756348" lon="-5.0300350189209">
        <ele>1403.63232421875</ele>
        <time>2018-07-28T08:59:30Z</time>
      </trkpt>
      <trkpt lat="36.699577331543" lon="-5.03004121780396">
        <ele>1403.49291992188</ele>
        <time>2018-07-28T08:59:31Z</time>
      </trkpt>
      <trkpt lat="36.6995735168457" lon="-5.03004693984985">
        <ele>1403.3564453125</ele>
        <time>2018-07-28T08:59:32Z</time>
      </trkpt>
      <trkpt lat="36.6995697021484" lon="-5.03005218505859">
        <ele>1403.23156738281</ele>
        <time>2018-07-28T08:59:33Z</time>
      </trkpt>
      <trkpt lat="36.6995658874512" lon="-5.03005409240723">
        <ele>1403.18884277344</ele>
        <time>2018-07-28T08:59:34Z</time>
      </trkpt>
      <trkpt lat="36.6995658874512" lon="-5.03005695343018">
        <ele>1403.11840820312</ele>
        <time>2018-07-28T08:59:35Z</time>
      </trkpt>
      <trkpt lat="36.6995620727539" lon="-5.03006410598755">
        <ele>1402.94653320312</ele>
        <time>2018-07-28T08:59:36Z</time>
      </trkpt>
      <trkpt lat="36.6995582580566" lon="-5.03007411956787">
        <ele>1402.7041015625</ele>
        <time>2018-07-28T08:59:37Z</time>
      </trkpt>
      <trkpt lat="36.6995506286621" lon="-5.03008508682251">
        <ele>1402.44213867188</ele>
        <time>2018-07-28T08:59:38Z</time>
      </trkpt>
      <trkpt lat="36.6995391845703" lon="-5.03009510040283">
        <ele>1402.20751953125</ele>
        <time>2018-07-28T08:59:39Z</time>
      </trkpt>
      <trkpt lat="36.6995315551758" lon="-5.03010320663452">
        <ele>1402.01550292969</ele>
        <time>2018-07-28T08:59:40Z</time>
      </trkpt>
      <trkpt lat="36.699520111084" lon="-5.03010988235474">
        <ele>1401.86279296875</ele>
        <time>2018-07-28T08:59:41Z</time>
      </trkpt>
      <trkpt lat="36.6995124816894" lon="-5.03011798858643">
        <ele>1401.67041015625</ele>
        <time>2018-07-28T08:59:42Z</time>
      </trkpt>
      <trkpt lat="36.6995048522949" lon="-5.03012990951538">
        <ele>1401.38366699219</ele>
        <time>2018-07-28T08:59:43Z</time>
      </trkpt>
      <trkpt lat="36.6994972229004" lon="-5.03014278411865">
        <ele>1401.07312011719</ele>
        <time>2018-07-28T08:59:44Z</time>
      </trkpt>
      <trkpt lat="36.6994934082031" lon="-5.03015613555908">
        <ele>1400.74670410156</ele>
        <time>2018-07-28T08:59:45Z</time>
      </trkpt>
      <trkpt lat="36.6994857788086" lon="-5.03016805648804">
        <ele>1400.45922851562</ele>
        <time>2018-07-28T08:59:46Z</time>
      </trkpt>
      <trkpt lat="36.6994819641113" lon="-5.03018093109131">
        <ele>1400.14428710938</ele>
        <time>2018-07-28T08:59:47Z</time>
      </trkpt>
      <trkpt lat="36.6994743347168" lon="-5.03019285202026">
        <ele>1399.85632324219</ele>
        <time>2018-07-28T08:59:48Z</time>
      </trkpt>
      <trkpt lat="36.6994667053223" lon="-5.03020286560059">
        <ele>1399.61535644531</ele>
        <time>2018-07-28T08:59:49Z</time>
      </trkpt>
      <trkpt lat="36.6994590759277" lon="-5.03021097183228">
        <ele>1399.42150878906</ele>
        <time>2018-07-28T08:59:50Z</time>
      </trkpt>
      <trkpt lat="36.6994514465332" lon="-5.03021812438965">
        <ele>1399.2509765625</ele>
        <time>2018-07-28T08:59:51Z</time>
      </trkpt>
      <trkpt lat="36.6994438171387" lon="-5.03022384643555">
        <ele>1399.11584472656</ele>
        <time>2018-07-28T08:59:52Z</time>
      </trkpt>
      <trkpt lat="36.6994361877441" lon="-5.03022909164429">
        <ele>1398.99243164062</ele>
        <time>2018-07-28T08:59:53Z</time>
      </trkpt>
      <trkpt lat="36.6994285583496" lon="-5.03023386001587">
        <ele>1398.88061523438</ele>
        <time>2018-07-28T08:59:54Z</time>
      </trkpt>
      <trkpt lat="36.6994209289551" lon="-5.03024005889893">
        <ele>1398.73327636719</ele>
        <time>2018-07-28T08:59:55Z</time>
      </trkpt>
      <trkpt lat="36.6994132995606" lon="-5.03024816513062">
        <ele>1398.53845214844</ele>
        <time>2018-07-28T08:59:56Z</time>
      </trkpt>
      <trkpt lat="36.6994094848633" lon="-5.03025722503662">
        <ele>1398.31652832031</ele>
        <time>2018-07-28T08:59:57Z</time>
      </trkpt>
      <trkpt lat="36.699405670166" lon="-5.03026580810547">
        <ele>1398.10632324219</ele>
        <time>2018-07-28T08:59:58Z</time>
      </trkpt>
      <trkpt lat="36.6994018554688" lon="-5.03027582168579">
        <ele>1397.86047363281</ele>
        <time>2018-07-28T08:59:59Z</time>
      </trkpt>
      <trkpt lat="36.6993942260742" lon="-5.0302848815918">
        <ele>1397.64123535156</ele>
        <time>2018-07-28T09:00:00Z</time>
      </trkpt>
      <trkpt lat="36.6993942260742" lon="-5.0302939414978">
        <ele>1397.41589355469</ele>
        <time>2018-07-28T09:00:01Z</time>
      </trkpt>
      <trkpt lat="36.699390411377" lon="-5.03030395507812">
        <ele>1397.16979980469</ele>
        <time>2018-07-28T09:00:02Z</time>
      </trkpt>
      <trkpt lat="36.6993865966797" lon="-5.03031206130981">
        <ele>1396.97094726562</ele>
        <time>2018-07-28T09:00:03Z</time>
      </trkpt>
      <trkpt lat="36.6993865966797" lon="-5.0303168296814">
        <ele>1396.85229492188</ele>
        <time>2018-07-28T09:00:04Z</time>
      </trkpt>
      <trkpt lat="36.6993827819824" lon="-5.03031778335571">
        <ele>1396.83142089844</ele>
        <time>2018-07-28T09:00:05Z</time>
      </trkpt>
      <trkpt lat="36.6993865966797" lon="-5.03031778335571">
        <ele>1396.82861328125</ele>
        <time>2018-07-28T09:00:06Z</time>
      </trkpt>
      <trkpt lat="36.6993865966797" lon="-5.03031921386719">
        <ele>1396.79296875</ele>
        <time>2018-07-28T09:00:07Z</time>
      </trkpt>
      <trkpt lat="36.6993827819824" lon="-5.03032112121582">
        <ele>1396.74829101562</ele>
        <time>2018-07-28T09:00:08Z</time>
      </trkpt>
      <trkpt lat="36.6993789672852" lon="-5.03032779693604">
        <ele>1396.5849609375</ele>
        <time>2018-07-28T09:00:09Z</time>
      </trkpt>
      <trkpt lat="36.6993713378906" lon="-5.03033781051636">
        <ele>1396.34118652344</ele>
        <time>2018-07-28T09:00:10Z</time>
      </trkpt>
      <trkpt lat="36.6993637084961" lon="-5.03035020828247">
        <ele>1396.03771972656</ele>
        <time>2018-07-28T09:00:11Z</time>
      </trkpt>
      <trkpt lat="36.6993560791016" lon="-5.030357837677">
        <ele>1395.85278320312</ele>
        <time>2018-07-28T09:00:12Z</time>
      </trkpt>
      <trkpt lat="36.6993522644043" lon="-5.03036594390869">
        <ele>1395.6533203125</ele>
        <time>2018-07-28T09:00:13Z</time>
      </trkpt>
      <trkpt lat="36.6993446350098" lon="-5.03036880493164">
        <ele>1395.58703613281</ele>
        <time>2018-07-28T09:00:14Z</time>
      </trkpt>
      <trkpt lat="36.6993446350098" lon="-5.03037023544312">
        <ele>1395.55139160156</ele>
        <time>2018-07-28T09:00:15Z</time>
      </trkpt>
      <trkpt lat="36.6993408203125" lon="-5.03037118911743">
        <ele>1395.53015136719</ele>
        <time>2018-07-28T09:00:16Z</time>
      </trkpt>
      <trkpt lat="36.699333190918" lon="-5.0303750038147">
        <ele>1395.43994140625</ele>
        <time>2018-07-28T09:00:17Z</time>
      </trkpt>
      <trkpt lat="36.6993293762207" lon="-5.03038311004639">
        <ele>1395.24011230469</ele>
        <time>2018-07-28T09:00:18Z</time>
      </trkpt>
      <trkpt lat="36.6993217468262" lon="-5.03039312362671">
        <ele>1394.99499511719</ele>
        <time>2018-07-28T09:00:19Z</time>
      </trkpt>
      <trkpt lat="36.6993141174316" lon="-5.03040409088135">
        <ele>1394.72583007812</ele>
        <time>2018-07-28T09:00:20Z</time>
      </trkpt>
      <trkpt lat="36.6993103027344" lon="-5.03041315078735">
        <ele>1394.50170898438</ele>
        <time>2018-07-28T09:00:21Z</time>
      </trkpt>
      <trkpt lat="36.6993064880371" lon="-5.03042078018188">
        <ele>1394.31323242188</ele>
        <time>2018-07-28T09:00:22Z</time>
      </trkpt>
      <trkpt lat="36.6992988586426" lon="-5.03042888641357">
        <ele>1394.11511230469</ele>
        <time>2018-07-28T09:00:23Z</time>
      </trkpt>
      <trkpt lat="36.6992950439453" lon="-5.03043603897095">
        <ele>1393.93835449219</ele>
        <time>2018-07-28T09:00:24Z</time>
      </trkpt>
      <trkpt lat="36.6992874145508" lon="-5.03044319152832">
        <ele>1393.76379394531</ele>
        <time>2018-07-28T09:00:25Z</time>
      </trkpt>
      <trkpt lat="36.6992835998535" lon="-5.03044891357422">
        <ele>1393.62268066406</ele>
        <time>2018-07-28T09:00:26Z</time>
      </trkpt>
      <trkpt lat="36.6992797851562" lon="-5.03045511245728">
        <ele>1393.46960449219</ele>
        <time>2018-07-28T09:00:27Z</time>
      </trkpt>
      <trkpt lat="36.699275970459" lon="-5.03046083450317">
        <ele>1393.32836914062</ele>
        <time>2018-07-28T09:00:28Z</time>
      </trkpt>
      <trkpt lat="36.6992721557617" lon="-5.03046703338623">
        <ele>1393.17517089844</ele>
        <time>2018-07-28T09:00:29Z</time>
      </trkpt>
      <trkpt lat="36.6992721557617" lon="-5.0304741859436">
        <ele>1392.99597167969</ele>
        <time>2018-07-28T09:00:30Z</time>
      </trkpt>
      <trkpt lat="36.6992683410644" lon="-5.03048086166382">
        <ele>1392.83068847656</ele>
        <time>2018-07-28T09:00:31Z</time>
      </trkpt>
      <trkpt lat="36.6992683410644" lon="-5.03048515319824">
        <ele>1392.72314453125</ele>
        <time>2018-07-28T09:00:32Z</time>
      </trkpt>
      <trkpt lat="36.6992683410644" lon="-5.03048706054688">
        <ele>1392.67541503906</ele>
        <time>2018-07-28T09:00:33Z</time>
      </trkpt>
      <trkpt lat="36.6992683410644" lon="-5.03048706054688">
        <ele>1392.67541503906</ele>
        <time>2018-07-28T09:00:34Z</time>
      </trkpt>
      <trkpt lat="36.6992683410644" lon="-5.03048992156982">
        <ele>1392.60363769531</ele>
        <time>2018-07-28T09:00:35Z</time>
      </trkpt>
      <trkpt lat="36.6992683410644" lon="-5.03049421310425">
        <ele>1392.49621582031</ele>
        <time>2018-07-28T09:00:36Z</time>
      </trkpt>
      <trkpt lat="36.6992645263672" lon="-5.03049993515015">
        <ele>1392.35461425781</ele>
        <time>2018-07-28T09:00:37Z</time>
      </trkpt>
      <trkpt lat="36.6992607116699" lon="-5.03050708770752">
        <ele>1392.17724609375</ele>
        <time>2018-07-28T09:00:38Z</time>
      </trkpt>
      <trkpt lat="36.6992530822754" lon="-5.03051280975342">
        <ele>1392.03735351562</ele>
        <time>2018-07-28T09:00:39Z</time>
      </trkpt>
      <trkpt lat="36.6992416381836" lon="-5.03051900863647">
        <ele>1391.88708496094</ele>
        <time>2018-07-28T09:00:40Z</time>
      </trkpt>
      <trkpt lat="36.6992378234863" lon="-5.03052377700806">
        <ele>1391.76904296875</ele>
        <time>2018-07-28T09:00:41Z</time>
      </trkpt>
      <trkpt lat="36.6992340087891" lon="-5.03052806854248">
        <ele>1391.6630859375</ele>
        <time>2018-07-28T09:00:42Z</time>
      </trkpt>
      <trkpt lat="36.6992301940918" lon="-5.0305290222168">
        <ele>1391.64074707031</ele>
        <time>2018-07-28T09:00:43Z</time>
      </trkpt>
      <trkpt lat="36.6992301940918" lon="-5.0305290222168">
        <ele>1391.64074707031</ele>
        <time>2018-07-28T09:00:44Z</time>
      </trkpt>
      <trkpt lat="36.6992301940918" lon="-5.03052806854248">
        <ele>1391.66479492188</ele>
        <time>2018-07-28T09:00:45Z</time>
      </trkpt>
      <trkpt lat="36.6992301940918" lon="-5.03052711486816">
        <ele>1391.68872070312</ele>
        <time>2018-07-28T09:00:46Z</time>
      </trkpt>
      <trkpt lat="36.6992263793945" lon="-5.03052711486816">
        <ele>1391.6904296875</ele>
        <time>2018-07-28T09:00:47Z</time>
      </trkpt>
      <trkpt lat="36.6992225646973" lon="-5.0305290222168">
        <ele>1391.64416503906</ele>
        <time>2018-07-28T09:00:48Z</time>
      </trkpt>
      <trkpt lat="36.69921875" lon="-5.03053379058838">
        <ele>1391.52600097656</ele>
        <time>2018-07-28T09:00:49Z</time>
      </trkpt>
      <trkpt lat="36.6992073059082" lon="-5.03053903579712">
        <ele>1391.39904785156</ele>
        <time>2018-07-28T09:00:50Z</time>
      </trkpt>
      <trkpt lat="36.6991996765137" lon="-5.0305438041687">
        <ele>1391.28234863281</ele>
        <time>2018-07-28T09:00:51Z</time>
      </trkpt>
      <trkpt lat="36.6991920471191" lon="-5.03055000305176">
        <ele>1391.12951660156</ele>
        <time>2018-07-28T09:00:52Z</time>
      </trkpt>
      <trkpt lat="36.6991882324219" lon="-5.03055381774902">
        <ele>1391.03515625</ele>
        <time>2018-07-28T09:00:53Z</time>
      </trkpt>
      <trkpt lat="36.6991844177246" lon="-5.03055810928345">
        <ele>1390.92858886719</ele>
        <time>2018-07-28T09:00:54Z</time>
      </trkpt>
      <trkpt lat="36.6991806030273" lon="-5.0305609703064">
        <ele>1390.85803222656</ele>
        <time>2018-07-28T09:00:55Z</time>
      </trkpt>
      <trkpt lat="36.6991729736328" lon="-5.03056621551514">
        <ele>1390.72900390625</ele>
        <time>2018-07-28T09:00:56Z</time>
      </trkpt>
      <trkpt lat="36.699161529541" lon="-5.03057193756104">
        <ele>1390.69958496094</ele>
        <time>2018-07-28T09:00:57Z</time>
      </trkpt>
      <trkpt lat="36.6991539001465" lon="-5.03057813644409">
        <ele>1390.71166992188</ele>
        <time>2018-07-28T09:00:58Z</time>
      </trkpt>
      <trkpt lat="36.6991424560547" lon="-5.03058385848999">
        <ele>1390.82153320312</ele>
        <time>2018-07-28T09:00:59Z</time>
      </trkpt>
      <trkpt lat="36.6991310119629" lon="-5.03059101104736">
        <ele>1390.89855957031</ele>
        <time>2018-07-28T09:01:00Z</time>
      </trkpt>
      <trkpt lat="36.6991233825684" lon="-5.03059911727905">
        <ele>1390.86975097656</ele>
        <time>2018-07-28T09:01:01Z</time>
      </trkpt>
      <trkpt lat="36.6991157531738" lon="-5.03060579299927">
        <ele>1390.8779296875</ele>
        <time>2018-07-28T09:01:02Z</time>
      </trkpt>
      <trkpt lat="36.699104309082" lon="-5.03061485290527">
        <ele>1390.91650390625</ele>
        <time>2018-07-28T09:01:03Z</time>
      </trkpt>
      <trkpt lat="36.6991004943848" lon="-5.03062391281128">
        <ele>1390.78491210938</ele>
        <time>2018-07-28T09:01:04Z</time>
      </trkpt>
      <trkpt lat="36.6990928649902" lon="-5.03063201904297">
        <ele>1390.76477050781</ele>
        <time>2018-07-28T09:01:05Z</time>
      </trkpt>
      <trkpt lat="36.6990852355957" lon="-5.03064012527466">
        <ele>1390.74670410156</ele>
        <time>2018-07-28T09:01:06Z</time>
      </trkpt>
      <trkpt lat="36.6990814208984" lon="-5.03064584732056">
        <ele>1390.69897460938</ele>
        <time>2018-07-28T09:01:07Z</time>
      </trkpt>
      <trkpt lat="36.6990776062012" lon="-5.03065013885498">
        <ele>1390.68579101562</ele>
        <time>2018-07-28T09:01:08Z</time>
      </trkpt>
      <trkpt lat="36.6990737915039" lon="-5.0306510925293">
        <ele>1390.751953125</ele>
        <time>2018-07-28T09:01:09Z</time>
      </trkpt>
      <trkpt lat="36.6990737915039" lon="-5.0306510925293">
        <ele>1390.751953125</ele>
        <time>2018-07-28T09:01:10Z</time>
      </trkpt>
      <trkpt lat="36.6990699768066" lon="-5.03065490722656">
        <ele>1390.75085449219</ele>
        <time>2018-07-28T09:01:11Z</time>
      </trkpt>
      <trkpt lat="36.6990623474121" lon="-5.03066110610962">
        <ele>1390.78369140625</ele>
        <time>2018-07-28T09:01:12Z</time>
      </trkpt>
      <trkpt lat="36.6990547180176" lon="-5.03067016601562">
        <ele>1390.75158691406</ele>
        <time>2018-07-28T09:01:13Z</time>
      </trkpt>
      <trkpt lat="36.6990432739258" lon="-5.03067684173584">
        <ele>1390.86743164062</ele>
        <time>2018-07-28T09:01:14Z</time>
      </trkpt>
      <trkpt lat="36.6990356445312" lon="-5.03068399429321">
        <ele>1390.88415527344</ele>
        <time>2018-07-28T09:01:15Z</time>
      </trkpt>
      <trkpt lat="36.699031829834" lon="-5.03069114685059">
        <ele>1390.8115234375</ele>
        <time>2018-07-28T09:01:16Z</time>
      </trkpt>
      <trkpt lat="36.6990242004394" lon="-5.03069591522217">
        <ele>1390.8857421875</ele>
        <time>2018-07-28T09:01:17Z</time>
      </trkpt>
      <trkpt lat="36.6990203857422" lon="-5.03070211410522">
        <ele>1390.8369140625</ele>
        <time>2018-07-28T09:01:18Z</time>
      </trkpt>
      <trkpt lat="36.6990127563477" lon="-5.03070783615112">
        <ele>1390.89196777344</ele>
        <time>2018-07-28T09:01:19Z</time>
      </trkpt>
      <trkpt lat="36.6990013122559" lon="-5.0307149887085">
        <ele>1391.00952148438</ele>
        <time>2018-07-28T09:01:20Z</time>
      </trkpt>
      <trkpt lat="36.6989936828613" lon="-5.03072309494019">
        <ele>1391.01525878906</ele>
        <time>2018-07-28T09:01:21Z</time>
      </trkpt>
      <trkpt lat="36.6989860534668" lon="-5.03072786331177">
        <ele>1391.09680175781</ele>
        <time>2018-07-28T09:01:22Z</time>
      </trkpt>
      <trkpt lat="36.698974609375" lon="-5.03073120117188">
        <ele>1391.30505371094</ele>
        <time>2018-07-28T09:01:23Z</time>
      </trkpt>
      <trkpt lat="36.6989707946777" lon="-5.03073406219482">
        <ele>1391.33666992188</ele>
        <time>2018-07-28T09:01:24Z</time>
      </trkpt>
      <trkpt lat="36.6989631652832" lon="-5.03073978424072">
        <ele>1391.40087890625</ele>
        <time>2018-07-28T09:01:25Z</time>
      </trkpt>
      <trkpt lat="36.6989593505859" lon="-5.03074789047241">
        <ele>1391.32019042969</ele>
        <time>2018-07-28T09:01:26Z</time>
      </trkpt>
      <trkpt lat="36.6989555358887" lon="-5.03075790405273">
        <ele>1391.19946289062</ele>
        <time>2018-07-28T09:01:27Z</time>
      </trkpt>
      <trkpt lat="36.6989517211914" lon="-5.03076696395874">
        <ele>1391.1005859375</ele>
        <time>2018-07-28T09:01:28Z</time>
      </trkpt>
      <trkpt lat="36.6989479064941" lon="-5.03077507019043">
        <ele>1391.02331542969</ele>
        <time>2018-07-28T09:01:29Z</time>
      </trkpt>
      <trkpt lat="36.6989402770996" lon="-5.03078079223633">
        <ele>1391.09521484375</ele>
        <time>2018-07-28T09:01:30Z</time>
      </trkpt>
      <trkpt lat="36.6989364624023" lon="-5.0307879447937">
        <ele>1391.04064941406</ele>
        <time>2018-07-28T09:01:31Z</time>
      </trkpt>
      <trkpt lat="36.6989326477051" lon="-5.03079509735107">
        <ele>1390.98706054688</ele>
        <time>2018-07-28T09:01:32Z</time>
      </trkpt>
      <trkpt lat="36.6989288330078" lon="-5.03080177307129">
        <ele>1390.94445800781</ele>
        <time>2018-07-28T09:01:33Z</time>
      </trkpt>
      <trkpt lat="36.6989212036133" lon="-5.03080797195435">
        <ele>1391.01171875</ele>
        <time>2018-07-28T09:01:34Z</time>
      </trkpt>
      <trkpt lat="36.698917388916" lon="-5.0308141708374">
        <ele>1390.98132324219</ele>
        <time>2018-07-28T09:01:35Z</time>
      </trkpt>
      <trkpt lat="36.6989097595215" lon="-5.03082180023193">
        <ele>1391.02172851562</ele>
        <time>2018-07-28T09:01:36Z</time>
      </trkpt>
      <trkpt lat="36.698902130127" lon="-5.03083276748657">
        <ele>1390.99548339844</ele>
        <time>2018-07-28T09:01:37Z</time>
      </trkpt>
      <trkpt lat="36.6988983154297" lon="-5.03084421157837">
        <ele>1391.00573730469</ele>
        <time>2018-07-28T09:01:38Z</time>
      </trkpt>
      <trkpt lat="36.6988983154297" lon="-5.03085517883301">
        <ele>1390.92626953125</ele>
        <time>2018-07-28T09:01:39Z</time>
      </trkpt>
      <trkpt lat="36.6988945007324" lon="-5.03086280822754">
        <ele>1390.97229003906</ele>
        <time>2018-07-28T09:01:40Z</time>
      </trkpt>
      <trkpt lat="36.6988906860352" lon="-5.03087186813354">
        <ele>1391.00817871094</ele>
        <time>2018-07-28T09:01:41Z</time>
      </trkpt>
      <trkpt lat="36.6988868713379" lon="-5.03087997436523">
        <ele>1391.05114746094</ele>
        <time>2018-07-28T09:01:42Z</time>
      </trkpt>
      <trkpt lat="36.6988792419434" lon="-5.03088808059692">
        <ele>1391.19616699219</ele>
        <time>2018-07-28T09:01:43Z</time>
      </trkpt>
      <trkpt lat="36.6988792419434" lon="-5.03089714050293">
        <ele>1391.13122558594</ele>
        <time>2018-07-28T09:01:44Z</time>
      </trkpt>
      <trkpt lat="36.6988754272461" lon="-5.03090810775757">
        <ele>1391.15466308594</ele>
        <time>2018-07-28T09:01:45Z</time>
      </trkpt>
      <trkpt lat="36.6988716125488" lon="-5.03091812133789">
        <ele>1391.18530273438</ele>
        <time>2018-07-28T09:01:46Z</time>
      </trkpt>
      <trkpt lat="36.6988716125488" lon="-5.03092813491821">
        <ele>1391.11389160156</ele>
        <time>2018-07-28T09:01:47Z</time>
      </trkpt>
      <trkpt lat="36.6988716125488" lon="-5.03093481063843">
        <ele>1391.06640625</ele>
        <time>2018-07-28T09:01:48Z</time>
      </trkpt>
      <trkpt lat="36.6988716125488" lon="-5.03093910217285">
        <ele>1391.03576660156</ele>
        <time>2018-07-28T09:01:49Z</time>
      </trkpt>
      <trkpt lat="36.6988754272461" lon="-5.03093910217285">
        <ele>1390.93334960938</ele>
        <time>2018-07-28T09:01:50Z</time>
      </trkpt>
      <trkpt lat="36.6988754272461" lon="-5.03093814849854">
        <ele>1390.94018554688</ele>
        <time>2018-07-28T09:01:51Z</time>
      </trkpt>
      <trkpt lat="36.6988716125488" lon="-5.03093814849854">
        <ele>1391.04260253906</ele>
        <time>2018-07-28T09:01:52Z</time>
      </trkpt>
      <trkpt lat="36.6988716125488" lon="-5.03094005584717">
        <ele>1391.02905273438</ele>
        <time>2018-07-28T09:01:53Z</time>
      </trkpt>
      <trkpt lat="36.6988677978516" lon="-5.03094291687012">
        <ele>1391.11108398438</ele>
        <time>2018-07-28T09:01:54Z</time>
      </trkpt>
      <trkpt lat="36.6988639831543" lon="-5.03094720840454">
        <ele>1391.18322753906</ele>
        <time>2018-07-28T09:01:55Z</time>
      </trkpt>
      <trkpt lat="36.698860168457" lon="-5.03095293045044">
        <ele>1391.24523925781</ele>
        <time>2018-07-28T09:01:56Z</time>
      </trkpt>
      <trkpt lat="36.6988563537598" lon="-5.03096389770508">
        <ele>1391.2705078125</ele>
        <time>2018-07-28T09:01:57Z</time>
      </trkpt>
      <trkpt lat="36.6988487243652" lon="-5.03097915649414">
        <ele>1391.36901855469</ele>
        <time>2018-07-28T09:01:58Z</time>
      </trkpt>
      <trkpt lat="36.6988410949707" lon="-5.03099489212036">
        <ele>1391.46520996094</ele>
        <time>2018-07-28T09:01:59Z</time>
      </trkpt>
      <trkpt lat="36.6988372802734" lon="-5.03100919723511">
        <ele>1391.46875</ele>
        <time>2018-07-28T09:02:00Z</time>
      </trkpt>
      <trkpt lat="36.6988372802734" lon="-5.03101587295532">
        <ele>1391.42224121094</ele>
        <time>2018-07-28T09:02:01Z</time>
      </trkpt>
      <trkpt lat="36.6988372802734" lon="-5.03101682662964">
        <ele>1391.41552734375</ele>
        <time>2018-07-28T09:02:02Z</time>
      </trkpt>
      <trkpt lat="36.6988334655762" lon="-5.03101491928101">
        <ele>1391.53259277344</ele>
        <time>2018-07-28T09:02:03Z</time>
      </trkpt>
      <trkpt lat="36.6988334655762" lon="-5.03101778030396">
        <ele>1391.5126953125</ele>
        <time>2018-07-28T09:02:04Z</time>
      </trkpt>
      <trkpt lat="36.6988296508789" lon="-5.03102207183838">
        <ele>1391.58654785156</ele>
        <time>2018-07-28T09:02:05Z</time>
      </trkpt>
      <trkpt lat="36.6988296508789" lon="-5.03102922439575">
        <ele>1391.53698730469</ele>
        <time>2018-07-28T09:02:06Z</time>
      </trkpt>
      <trkpt lat="36.6988296508789" lon="-5.03104019165039">
        <ele>1391.46081542969</ele>
        <time>2018-07-28T09:02:07Z</time>
      </trkpt>
      <trkpt lat="36.6988258361816" lon="-5.03105306625366">
        <ele>1391.47570800781</ele>
        <time>2018-07-28T09:02:08Z</time>
      </trkpt>
      <trkpt lat="36.6988258361816" lon="-5.03106784820557">
        <ele>1391.37329101562</ele>
        <time>2018-07-28T09:02:09Z</time>
      </trkpt>
      <trkpt lat="36.6988296508789" lon="-5.03108406066894">
        <ele>1391.15612792969</ele>
        <time>2018-07-28T09:02:10Z</time>
      </trkpt>
      <trkpt lat="36.6988334655762" lon="-5.03109884262085">
        <ele>1390.94836425781</ele>
        <time>2018-07-28T09:02:11Z</time>
      </trkpt>
      <trkpt lat="36.6988372802734" lon="-5.0311131477356">
        <ele>1390.74353027344</ele>
        <time>2018-07-28T09:02:12Z</time>
      </trkpt>
      <trkpt lat="36.6988410949707" lon="-5.03112506866455">
        <ele>1390.55480957031</ele>
        <time>2018-07-28T09:02:13Z</time>
      </trkpt>
      <trkpt lat="36.6988410949707" lon="-5.03113508224487">
        <ele>1390.48486328125</ele>
        <time>2018-07-28T09:02:14Z</time>
      </trkpt>
      <trkpt lat="36.6988410949707" lon="-5.0311450958252">
        <ele>1390.41479492188</ele>
        <time>2018-07-28T09:02:15Z</time>
      </trkpt>
      <trkpt lat="36.698844909668" lon="-5.03115701675415">
        <ele>1390.22534179688</ele>
        <time>2018-07-28T09:02:16Z</time>
      </trkpt>
      <trkpt lat="36.6988487243652" lon="-5.03116893768311">
        <ele>1390.03552246094</ele>
        <time>2018-07-28T09:02:17Z</time>
      </trkpt>
      <trkpt lat="36.6988525390625" lon="-5.03118181228638">
        <ele>1389.83862304688</ele>
        <time>2018-07-28T09:02:18Z</time>
      </trkpt>
      <trkpt lat="36.6988525390625" lon="-5.03119611740112">
        <ele>1389.73791503906</ele>
        <time>2018-07-28T09:02:19Z</time>
      </trkpt>
      <trkpt lat="36.6988563537598" lon="-5.03120994567871">
        <ele>1389.53356933594</ele>
        <time>2018-07-28T09:02:20Z</time>
      </trkpt>
      <trkpt lat="36.6988563537598" lon="-5.0312237739563">
        <ele>1389.43591308594</ele>
        <time>2018-07-28T09:02:21Z</time>
      </trkpt>
      <trkpt lat="36.698860168457" lon="-5.03123807907104">
        <ele>1389.22766113281</ele>
        <time>2018-07-28T09:02:22Z</time>
      </trkpt>
      <trkpt lat="36.698860168457" lon="-5.03125381469727">
        <ele>1389.1162109375</ele>
        <time>2018-07-28T09:02:23Z</time>
      </trkpt>
      <trkpt lat="36.698860168457" lon="-5.03126907348633">
        <ele>1389.00830078125</ele>
        <time>2018-07-28T09:02:24Z</time>
      </trkpt>
      <trkpt lat="36.698860168457" lon="-5.03128290176392">
        <ele>1388.91040039062</ele>
        <time>2018-07-28T09:02:25Z</time>
      </trkpt>
      <trkpt lat="36.6988639831543" lon="-5.03129816055298">
        <ele>1388.69409179688</ele>
        <time>2018-07-28T09:02:26Z</time>
      </trkpt>
      <trkpt lat="36.6988639831543" lon="-5.03131294250488">
        <ele>1388.58923339844</ele>
        <time>2018-07-28T09:02:27Z</time>
      </trkpt>
      <trkpt lat="36.6988677978516" lon="-5.03132820129394">
        <ele>1388.37219238281</ele>
        <time>2018-07-28T09:02:28Z</time>
      </trkpt>
      <trkpt lat="36.6988677978516" lon="-5.03134298324585">
        <ele>1388.26708984375</ele>
        <time>2018-07-28T09:02:29Z</time>
      </trkpt>
      <trkpt lat="36.6988754272461" lon="-5.03135919570923">
        <ele>1387.93310546875</ele>
        <time>2018-07-28T09:02:30Z</time>
      </trkpt>
      <trkpt lat="36.6988792419434" lon="-5.03137588500977">
        <ele>1387.70422363281</ele>
        <time>2018-07-28T09:02:31Z</time>
      </trkpt>
      <trkpt lat="36.6988830566406" lon="-5.03139019012451">
        <ele>1387.49194335938</ele>
        <time>2018-07-28T09:02:32Z</time>
      </trkpt>
      <trkpt lat="36.6988868713379" lon="-5.03140497207642">
        <ele>1387.27575683594</ele>
        <time>2018-07-28T09:02:33Z</time>
      </trkpt>
      <trkpt lat="36.6988906860352" lon="-5.03141784667969">
        <ele>1387.07287597656</ele>
        <time>2018-07-28T09:02:34Z</time>
      </trkpt>
      <trkpt lat="36.6988906860352" lon="-5.03143215179443">
        <ele>1386.9697265625</ele>
        <time>2018-07-28T09:02:35Z</time>
      </trkpt>
      <trkpt lat="36.6988945007324" lon="-5.03144407272339">
        <ele>1386.77307128906</ele>
        <time>2018-07-28T09:02:36Z</time>
      </trkpt>
      <trkpt lat="36.6988983154297" lon="-5.03145599365234">
        <ele>1386.57592773438</ele>
        <time>2018-07-28T09:02:37Z</time>
      </trkpt>
      <trkpt lat="36.6988983154297" lon="-5.03146886825562">
        <ele>1386.48278808594</ele>
        <time>2018-07-28T09:02:38Z</time>
      </trkpt>
      <trkpt lat="36.6988945007324" lon="-5.03147983551025">
        <ele>1386.5146484375</ele>
        <time>2018-07-28T09:02:39Z</time>
      </trkpt>
      <trkpt lat="36.6988906860352" lon="-5.03148984909058">
        <ele>1386.55383300781</ele>
        <time>2018-07-28T09:02:40Z</time>
      </trkpt>
      <trkpt lat="36.6988906860352" lon="-5.03149795532227">
        <ele>1386.49548339844</ele>
        <time>2018-07-28T09:02:41Z</time>
      </trkpt>
      <trkpt lat="36.6988868713379" lon="-5.03150177001953">
        <ele>1386.57971191406</ele>
        <time>2018-07-28T09:02:42Z</time>
      </trkpt>
      <trkpt lat="36.6988830566406" lon="-5.03150510787964">
        <ele>1386.66748046875</ele>
        <time>2018-07-28T09:02:43Z</time>
      </trkpt>
      <trkpt lat="36.6988716125488" lon="-5.03150987625122">
        <ele>1386.96887207031</ele>
        <time>2018-07-28T09:02:44Z</time>
      </trkpt>
      <trkpt lat="36.698860168457" lon="-5.03151607513428">
        <ele>1387.26049804688</ele>
        <time>2018-07-28T09:02:45Z</time>
      </trkpt>
      <trkpt lat="36.6988487243652" lon="-5.03152084350586">
        <ele>1387.56286621094</ele>
        <time>2018-07-28T09:02:46Z</time>
      </trkpt>
      <trkpt lat="36.6988410949707" lon="-5.0315260887146">
        <ele>1387.75024414062</ele>
        <time>2018-07-28T09:02:47Z</time>
      </trkpt>
      <trkpt lat="36.6988296508789" lon="-5.03153085708618">
        <ele>1388.05358886719</ele>
        <time>2018-07-28T09:02:48Z</time>
      </trkpt>
      <trkpt lat="36.6988182067871" lon="-5.03153610229492">
        <ele>1388.35400390625</ele>
        <time>2018-07-28T09:02:49Z</time>
      </trkpt>
      <trkpt lat="36.6988105773926" lon="-5.03154182434082">
        <ele>1388.53930664062</ele>
        <time>2018-07-28T09:02:50Z</time>
      </trkpt>
      <trkpt lat="36.6987991333008" lon="-5.03154802322388">
        <ele>1388.83422851562</ele>
        <time>2018-07-28T09:02:51Z</time>
      </trkpt>
      <trkpt lat="36.698787689209" lon="-5.03155422210693">
        <ele>1389.12976074219</ele>
        <time>2018-07-28T09:02:52Z</time>
      </trkpt>
      <trkpt lat="36.6987724304199" lon="-5.03156089782715">
        <ele>1389.53540039062</ele>
        <time>2018-07-28T09:02:53Z</time>
      </trkpt>
      <trkpt lat="36.6987609863281" lon="-5.0315670967102">
        <ele>1389.83227539062</ele>
        <time>2018-07-28T09:02:54Z</time>
      </trkpt>
      <trkpt lat="36.6987533569336" lon="-5.03157520294189">
        <ele>1390.00427246094</ele>
        <time>2018-07-28T09:02:55Z</time>
      </trkpt>
      <trkpt lat="36.6987419128418" lon="-5.03158521652222">
        <ele>1390.27734375</ele>
        <time>2018-07-28T09:02:56Z</time>
      </trkpt>
      <trkpt lat="36.6987342834473" lon="-5.03159379959106">
        <ele>1390.44750976562</ele>
        <time>2018-07-28T09:02:57Z</time>
      </trkpt>
      <trkpt lat="36.6987266540527" lon="-5.03160381317139">
        <ele>1390.60888671875</ele>
        <time>2018-07-28T09:02:58Z</time>
      </trkpt>
      <trkpt lat="36.6987190246582" lon="-5.03161191940308">
        <ele>1390.78332519531</ele>
        <time>2018-07-28T09:02:59Z</time>
      </trkpt>
      <trkpt lat="36.6987113952637" lon="-5.03162097930908">
        <ele>1390.95202636719</ele>
        <time>2018-07-28T09:03:00Z</time>
      </trkpt>
      <trkpt lat="36.6987075805664" lon="-5.03163290023804">
        <ele>1390.9892578125</ele>
        <time>2018-07-28T09:03:01Z</time>
      </trkpt>
      <trkpt lat="36.6987037658691" lon="-5.03164577484131">
        <ele>1391.02075195312</ele>
        <time>2018-07-28T09:03:02Z</time>
      </trkpt>
      <trkpt lat="36.6987037658691" lon="-5.03165912628174">
        <ele>1390.93530273438</ele>
        <time>2018-07-28T09:03:03Z</time>
      </trkpt>
      <trkpt lat="36.6987075805664" lon="-5.03167104721069">
        <ele>1390.7294921875</ele>
        <time>2018-07-28T09:03:04Z</time>
      </trkpt>
      <trkpt lat="36.6987113952637" lon="-5.03168296813965">
        <ele>1390.498046875</ele>
        <time>2018-07-28T09:03:05Z</time>
      </trkpt>
      <trkpt lat="36.6987152099609" lon="-5.0316948890686">
        <ele>1390.26708984375</ele>
        <time>2018-07-28T09:03:06Z</time>
      </trkpt>
      <trkpt lat="36.6987228393555" lon="-5.03170490264893">
        <ele>1389.94177246094</ele>
        <time>2018-07-28T09:03:07Z</time>
      </trkpt>
      <trkpt lat="36.6987342834473" lon="-5.03171586990356">
        <ele>1389.49475097656</ele>
        <time>2018-07-28T09:03:08Z</time>
      </trkpt>
      <trkpt lat="36.6987457275391" lon="-5.03172397613525">
        <ele>1389.07653808594</ele>
        <time>2018-07-28T09:03:09Z</time>
      </trkpt>
      <trkpt lat="36.6987533569336" lon="-5.03173017501831">
        <ele>1388.79089355469</ele>
        <time>2018-07-28T09:03:10Z</time>
      </trkpt>
      <trkpt lat="36.6987609863281" lon="-5.03173685073853">
        <ele>1388.50109863281</ele>
        <time>2018-07-28T09:03:11Z</time>
      </trkpt>
      <trkpt lat="36.6987648010254" lon="-5.03174686431885">
        <ele>1388.29296875</ele>
        <time>2018-07-28T09:03:12Z</time>
      </trkpt>
      <trkpt lat="36.6987648010254" lon="-5.03176212310791">
        <ele>1388.14770507812</ele>
        <time>2018-07-28T09:03:13Z</time>
      </trkpt>
      <trkpt lat="36.6987686157227" lon="-5.03177881240845">
        <ele>1387.876953125</ele>
        <time>2018-07-28T09:03:14Z</time>
      </trkpt>
      <trkpt lat="36.6987724304199" lon="-5.03179407119751">
        <ele>1387.62048339844</ele>
        <time>2018-07-28T09:03:15Z</time>
      </trkpt>
      <trkpt lat="36.6987762451172" lon="-5.03180599212646">
        <ele>1387.39624023438</ele>
        <time>2018-07-28T09:03:16Z</time>
      </trkpt>
      <trkpt lat="36.6987838745117" lon="-5.03181600570679">
        <ele>1387.07922363281</ele>
        <time>2018-07-28T09:03:17Z</time>
      </trkpt>
      <trkpt lat="36.6987915039062" lon="-5.03182601928711">
        <ele>1386.76318359375</ele>
        <time>2018-07-28T09:03:18Z</time>
      </trkpt>
      <trkpt lat="36.6987953186035" lon="-5.03183889389038">
        <ele>1386.53198242188</ele>
        <time>2018-07-28T09:03:19Z</time>
      </trkpt>
      <trkpt lat="36.698802947998" lon="-5.03185081481934">
        <ele>1386.19995117188</ele>
        <time>2018-07-28T09:03:20Z</time>
      </trkpt>
      <trkpt lat="36.6988105773926" lon="-5.03186416625977">
        <ele>1385.85559082031</ele>
        <time>2018-07-28T09:03:21Z</time>
      </trkpt>
      <trkpt lat="36.6988143920898" lon="-5.03187799453735">
        <ele>1385.61791992188</ele>
        <time>2018-07-28T09:03:22Z</time>
      </trkpt>
      <trkpt lat="36.6988220214844" lon="-5.03189182281494">
        <ele>1385.27124023438</ele>
        <time>2018-07-28T09:03:23Z</time>
      </trkpt>
      <trkpt lat="36.6988258361816" lon="-5.031907081604">
        <ele>1385.02197265625</ele>
        <time>2018-07-28T09:03:24Z</time>
      </trkpt>
      <trkpt lat="36.6988334655762" lon="-5.03192090988159">
        <ele>1384.67749023438</ele>
        <time>2018-07-28T09:03:25Z</time>
      </trkpt>
      <trkpt lat="36.6988410949707" lon="-5.03193616867065">
        <ele>1384.3212890625</ele>
        <time>2018-07-28T09:03:26Z</time>
      </trkpt>
      <trkpt lat="36.6988525390625" lon="-5.03194904327393">
        <ele>1383.87976074219</ele>
        <time>2018-07-28T09:03:27Z</time>
      </trkpt>
      <trkpt lat="36.698860168457" lon="-5.03196096420288">
        <ele>1383.55639648438</ele>
        <time>2018-07-28T09:03:28Z</time>
      </trkpt>
      <trkpt lat="36.6988677978516" lon="-5.03197193145752">
        <ele>1383.24267578125</ele>
        <time>2018-07-28T09:03:29Z</time>
      </trkpt>
      <trkpt lat="36.6988754272461" lon="-5.03198289871216">
        <ele>1382.92980957031</ele>
        <time>2018-07-28T09:03:30Z</time>
      </trkpt>
      <trkpt lat="36.6988830566406" lon="-5.0319938659668">
        <ele>1382.61791992188</ele>
        <time>2018-07-28T09:03:31Z</time>
      </trkpt>
      <trkpt lat="36.6988868713379" lon="-5.03200578689575">
        <ele>1382.40563964844</ele>
        <time>2018-07-28T09:03:32Z</time>
      </trkpt>
      <trkpt lat="36.6988945007324" lon="-5.03201818466186">
        <ele>1382.0830078125</ele>
        <time>2018-07-28T09:03:33Z</time>
      </trkpt>
      <trkpt lat="36.6988983154297" lon="-5.03203010559082">
        <ele>1381.87194824219</ele>
        <time>2018-07-28T09:03:34Z</time>
      </trkpt>
      <trkpt lat="36.6988983154297" lon="-5.03204298019409">
        <ele>1381.75939941406</ele>
        <time>2018-07-28T09:03:35Z</time>
      </trkpt>
      <trkpt lat="36.6988983154297" lon="-5.032057762146">
        <ele>1381.63012695312</ele>
        <time>2018-07-28T09:03:36Z</time>
      </trkpt>
      <trkpt lat="36.6988983154297" lon="-5.03207206726074">
        <ele>1381.50500488281</ele>
        <time>2018-07-28T09:03:37Z</time>
      </trkpt>
      <trkpt lat="36.6988945007324" lon="-5.03208589553833">
        <ele>1381.4892578125</ele>
        <time>2018-07-28T09:03:38Z</time>
      </trkpt>
      <trkpt lat="36.6988945007324" lon="-5.03209781646728">
        <ele>1381.384765625</ele>
        <time>2018-07-28T09:03:39Z</time>
      </trkpt>
      <trkpt lat="36.6988945007324" lon="-5.0321102142334">
        <ele>1381.27612304688</ele>
        <time>2018-07-28T09:03:40Z</time>
      </trkpt>
      <trkpt lat="36.6988983154297" lon="-5.03212118148804">
        <ele>1381.07543945312</ele>
        <time>2018-07-28T09:03:41Z</time>
      </trkpt>
      <trkpt lat="36.6988983154297" lon="-5.03213405609131">
        <ele>1380.962890625</ele>
        <time>2018-07-28T09:03:42Z</time>
      </trkpt>
      <trkpt lat="36.6988945007324" lon="-5.03214597702026">
        <ele>1380.96252441406</ele>
        <time>2018-07-28T09:03:43Z</time>
      </trkpt>
      <trkpt lat="36.6988906860352" lon="-5.0321569442749">
        <ele>1380.97009277344</ele>
        <time>2018-07-28T09:03:44Z</time>
      </trkpt>
      <trkpt lat="36.6988868713379" lon="-5.03216886520386">
        <ele>1380.96862792969</ele>
        <time>2018-07-28T09:03:45Z</time>
      </trkpt>
      <trkpt lat="36.6988792419434" lon="-5.0321831703186">
        <ele>1381.048828125</ele>
        <time>2018-07-28T09:03:46Z</time>
      </trkpt>
      <trkpt lat="36.6988754272461" lon="-5.03219795227051">
        <ele>1381.02062988281</ele>
        <time>2018-07-28T09:03:47Z</time>
      </trkpt>
      <trkpt lat="36.6988677978516" lon="-5.03221321105957">
        <ele>1381.09008789062</ele>
        <time>2018-07-28T09:03:48Z</time>
      </trkpt>
      <trkpt lat="36.6988639831543" lon="-5.03222799301147">
        <ele>1381.06030273438</ele>
        <time>2018-07-28T09:03:49Z</time>
      </trkpt>
      <trkpt lat="36.698860168457" lon="-5.03224420547485">
        <ele>1381.01708984375</ele>
        <time>2018-07-28T09:03:50Z</time>
      </trkpt>
      <trkpt lat="36.6988563537598" lon="-5.03225994110107">
        <ele>1380.97741699219</ele>
        <time>2018-07-28T09:03:51Z</time>
      </trkpt>
      <trkpt lat="36.6988563537598" lon="-5.03227615356445">
        <ele>1380.83166503906</ele>
        <time>2018-07-28T09:03:52Z</time>
      </trkpt>
      <trkpt lat="36.6988525390625" lon="-5.03229284286499">
        <ele>1380.78234863281</ele>
        <time>2018-07-28T09:03:53Z</time>
      </trkpt>
      <trkpt lat="36.6988525390625" lon="-5.03230905532837">
        <ele>1380.63635253906</ele>
        <time>2018-07-28T09:03:54Z</time>
      </trkpt>
      <trkpt lat="36.6988525390625" lon="-5.03232383728027">
        <ele>1380.50317382812</ele>
        <time>2018-07-28T09:03:55Z</time>
      </trkpt>
      <trkpt lat="36.6988525390625" lon="-5.03233623504639">
        <ele>1380.39147949219</ele>
        <time>2018-07-28T09:03:56Z</time>
      </trkpt>
      <trkpt lat="36.6988525390625" lon="-5.03235006332397">
        <ele>1380.26684570312</ele>
        <time>2018-07-28T09:03:57Z</time>
      </trkpt>
      <trkpt lat="36.6988525390625" lon="-5.03236293792725">
        <ele>1380.15087890625</ele>
        <time>2018-07-28T09:03:58Z</time>
      </trkpt>
      <trkpt lat="36.6988563537598" lon="-5.03237581253052">
        <ele>1379.93603515625</ele>
        <time>2018-07-28T09:03:59Z</time>
      </trkpt>
      <trkpt lat="36.698860168457" lon="-5.03238916397095">
        <ele>1379.71740722656</ele>
        <time>2018-07-28T09:04:00Z</time>
      </trkpt>
      <trkpt lat="36.6988639831543" lon="-5.03240203857422">
        <ele>1379.50378417969</ele>
        <time>2018-07-28T09:04:01Z</time>
      </trkpt>
      <trkpt lat="36.6988677978516" lon="-5.03241586685181">
        <ele>1379.28210449219</ele>
        <time>2018-07-28T09:04:02Z</time>
      </trkpt>
      <trkpt lat="36.6988716125488" lon="-5.03242921829224">
        <ele>1379.06530761719</ele>
        <time>2018-07-28T09:04:03Z</time>
      </trkpt>
      <trkpt lat="36.6988754272461" lon="-5.03244113922119">
        <ele>1378.86181640625</ele>
        <time>2018-07-28T09:04:04Z</time>
      </trkpt>
      <trkpt lat="36.6988792419434" lon="-5.03245306015015">
        <ele>1378.65881347656</ele>
        <time>2018-07-28T09:04:05Z</time>
      </trkpt>
      <trkpt lat="36.6988830566406" lon="-5.03246593475342">
        <ele>1378.44787597656</ele>
        <time>2018-07-28T09:04:06Z</time>
      </trkpt>
      <trkpt lat="36.6988830566406" lon="-5.03247976303101">
        <ele>1378.32568359375</ele>
        <time>2018-07-28T09:04:07Z</time>
      </trkpt>
      <trkpt lat="36.6988830566406" lon="-5.0324969291687">
        <ele>1378.17407226562</ele>
        <time>2018-07-28T09:04:08Z</time>
      </trkpt>
      <trkpt lat="36.6988868713379" lon="-5.03251314163208">
        <ele>1377.98217773438</ele>
        <time>2018-07-28T09:04:09Z</time>
      </trkpt>
      <trkpt lat="36.6988906860352" lon="-5.03252792358398">
        <ele>1377.81005859375</ele>
        <time>2018-07-28T09:04:10Z</time>
      </trkpt>
      <trkpt lat="36.6988945007324" lon="-5.03254222869873">
        <ele>1377.64135742188</ele>
        <time>2018-07-28T09:04:11Z</time>
      </trkpt>
      <trkpt lat="36.6988983154297" lon="-5.03255414962769">
        <ele>1377.48596191406</ele>
        <time>2018-07-28T09:04:12Z</time>
      </trkpt>
      <trkpt lat="36.698902130127" lon="-5.03256416320801">
        <ele>1377.34118652344</ele>
        <time>2018-07-28T09:04:13Z</time>
      </trkpt>
      <trkpt lat="36.6989059448242" lon="-5.03257417678833">
        <ele>1377.197265625</ele>
        <time>2018-07-28T09:04:14Z</time>
      </trkpt>
      <trkpt lat="36.6989097595215" lon="-5.03258514404297">
        <ele>1377.04919433594</ele>
        <time>2018-07-28T09:04:15Z</time>
      </trkpt>
      <trkpt lat="36.6989097595215" lon="-5.03259801864624">
        <ele>1376.98498535156</ele>
        <time>2018-07-28T09:04:16Z</time>
      </trkpt>
      <trkpt lat="36.6989097595215" lon="-5.03261089324951">
        <ele>1376.92077636719</ele>
        <time>2018-07-28T09:04:17Z</time>
      </trkpt>
      <trkpt lat="36.6989097595215" lon="-5.03262376785278">
        <ele>1376.8564453125</ele>
        <time>2018-07-28T09:04:18Z</time>
      </trkpt>
      <trkpt lat="36.6989135742188" lon="-5.03263807296753">
        <ele>1376.6943359375</ele>
        <time>2018-07-28T09:04:19Z</time>
      </trkpt>
      <trkpt lat="36.6989135742188" lon="-5.0326509475708">
        <ele>1376.63061523438</ele>
        <time>2018-07-28T09:04:20Z</time>
      </trkpt>
      <trkpt lat="36.6989135742188" lon="-5.03266382217407">
        <ele>1376.56677246094</ele>
        <time>2018-07-28T09:04:21Z</time>
      </trkpt>
      <trkpt lat="36.6989135742188" lon="-5.03267621994019">
        <ele>1376.50549316406</ele>
        <time>2018-07-28T09:04:22Z</time>
      </trkpt>
      <trkpt lat="36.698917388916" lon="-5.03268909454346">
        <ele>1376.35278320312</ele>
        <time>2018-07-28T09:04:23Z</time>
      </trkpt>
      <trkpt lat="36.698917388916" lon="-5.03270196914673">
        <ele>1376.28955078125</ele>
        <time>2018-07-28T09:04:24Z</time>
      </trkpt>
      <trkpt lat="36.698917388916" lon="-5.03271579742432">
        <ele>1376.2216796875</ele>
        <time>2018-07-28T09:04:25Z</time>
      </trkpt>
      <trkpt lat="36.6989135742188" lon="-5.03272914886475">
        <ele>1376.24340820312</ele>
        <time>2018-07-28T09:04:26Z</time>
      </trkpt>
      <trkpt lat="36.6989135742188" lon="-5.03274297714233">
        <ele>1376.17492675781</ele>
        <time>2018-07-28T09:04:27Z</time>
      </trkpt>
      <trkpt lat="36.6989097595215" lon="-5.0327582359314">
        <ele>1376.185546875</ele>
        <time>2018-07-28T09:04:28Z</time>
      </trkpt>
      <trkpt lat="36.6989097595215" lon="-5.0327730178833">
        <ele>1376.11181640625</ele>
        <time>2018-07-28T09:04:29Z</time>
      </trkpt>
      <trkpt lat="36.6989097595215" lon="-5.0327877998352">
        <ele>1376.0380859375</ele>
        <time>2018-07-28T09:04:30Z</time>
      </trkpt>
      <trkpt lat="36.6989097595215" lon="-5.03280210494995">
        <ele>1375.96667480469</ele>
        <time>2018-07-28T09:04:31Z</time>
      </trkpt>
      <trkpt lat="36.6989097595215" lon="-5.03281688690186">
        <ele>1375.89294433594</ele>
        <time>2018-07-28T09:04:32Z</time>
      </trkpt>
      <trkpt lat="36.6989135742188" lon="-5.0328311920166">
        <ele>1375.73815917969</ele>
        <time>2018-07-28T09:04:33Z</time>
      </trkpt>
      <trkpt lat="36.6989135742188" lon="-5.03284692764282">
        <ele>1375.66027832031</ele>
        <time>2018-07-28T09:04:34Z</time>
      </trkpt>
      <trkpt lat="36.6989097595215" lon="-5.03286218643188">
        <ele>1375.66687011719</ele>
        <time>2018-07-28T09:04:35Z</time>
      </trkpt>
      <trkpt lat="36.6989097595215" lon="-5.03287506103516">
        <ele>1375.60266113281</ele>
        <time>2018-07-28T09:04:36Z</time>
      </trkpt>
      <trkpt lat="36.6989135742188" lon="-5.03288412094116">
        <ele>1375.47607421875</ele>
        <time>2018-07-28T09:04:37Z</time>
      </trkpt>
      <trkpt lat="36.6989135742188" lon="-5.03289079666138">
        <ele>1375.44299316406</ele>
        <time>2018-07-28T09:04:38Z</time>
      </trkpt>
      <trkpt lat="36.6989135742188" lon="-5.03289699554443">
        <ele>1375.41235351562</ele>
        <time>2018-07-28T09:04:39Z</time>
      </trkpt>
      <trkpt lat="36.6989135742188" lon="-5.03290796279907">
        <ele>1375.35803222656</ele>
        <time>2018-07-28T09:04:40Z</time>
      </trkpt>
      <trkpt lat="36.698917388916" lon="-5.03291988372803">
        <ele>1375.21899414062</ele>
        <time>2018-07-28T09:04:41Z</time>
      </trkpt>
      <trkpt lat="36.698917388916" lon="-5.03293418884277">
        <ele>1375.14880371094</ele>
        <time>2018-07-28T09:04:42Z</time>
      </trkpt>
      <trkpt lat="36.698917388916" lon="-5.03294801712036">
        <ele>1375.08081054688</ele>
        <time>2018-07-28T09:04:43Z</time>
      </trkpt>
      <trkpt lat="36.698917388916" lon="-5.03296184539795">
        <ele>1375.01293945312</ele>
        <time>2018-07-28T09:04:44Z</time>
      </trkpt>
      <trkpt lat="36.6989135742188" lon="-5.0329761505127">
        <ele>1375.02038574219</ele>
        <time>2018-07-28T09:04:45Z</time>
      </trkpt>
      <trkpt lat="36.6989135742188" lon="-5.03298902511597">
        <ele>1374.95666503906</ele>
        <time>2018-07-28T09:04:46Z</time>
      </trkpt>
      <trkpt lat="36.6989097595215" lon="-5.03300285339356">
        <ele>1374.96496582031</ele>
        <time>2018-07-28T09:04:47Z</time>
      </trkpt>
      <trkpt lat="36.6989097595215" lon="-5.0330171585083">
        <ele>1374.89367675781</ele>
        <time>2018-07-28T09:04:48Z</time>
      </trkpt>
      <trkpt lat="36.6989097595215" lon="-5.0330319404602">
        <ele>1374.81982421875</ele>
        <time>2018-07-28T09:04:49Z</time>
      </trkpt>
      <trkpt lat="36.6989097595215" lon="-5.03304719924927">
        <ele>1374.74377441406</ele>
        <time>2018-07-28T09:04:50Z</time>
      </trkpt>
      <trkpt lat="36.6989097595215" lon="-5.0330638885498">
        <ele>1374.66052246094</ele>
        <time>2018-07-28T09:04:51Z</time>
      </trkpt>
      <trkpt lat="36.6989097595215" lon="-5.0330810546875">
        <ele>1374.57482910156</ele>
        <time>2018-07-28T09:04:52Z</time>
      </trkpt>
      <trkpt lat="36.6989097595215" lon="-5.0330982208252">
        <ele>1374.48913574219</ele>
        <time>2018-07-28T09:04:53Z</time>
      </trkpt>
      <trkpt lat="36.6989097595215" lon="-5.0331130027771">
        <ele>1374.41540527344</ele>
        <time>2018-07-28T09:04:54Z</time>
      </trkpt>
      <trkpt lat="36.6989059448242" lon="-5.03312683105469">
        <ele>1374.41845703125</ele>
        <time>2018-07-28T09:04:55Z</time>
      </trkpt>
      <trkpt lat="36.698902130127" lon="-5.03313779830933">
        <ele>1374.43493652344</ele>
        <time>2018-07-28T09:04:56Z</time>
      </trkpt>
      <trkpt lat="36.6988983154297" lon="-5.03314781188965">
        <ele>1374.45544433594</ele>
        <time>2018-07-28T09:04:57Z</time>
      </trkpt>
      <trkpt lat="36.6988945007324" lon="-5.03316307067871">
        <ele>1374.44812011719</ele>
        <time>2018-07-28T09:04:58Z</time>
      </trkpt>
      <trkpt lat="36.6988906860352" lon="-5.0331768989563">
        <ele>1374.44714355469</ele>
        <time>2018-07-28T09:04:59Z</time>
      </trkpt>
      <trkpt lat="36.6988868713379" lon="-5.03319215774536">
        <ele>1374.4375</ele>
        <time>2018-07-28T09:05:00Z</time>
      </trkpt>
      <trkpt lat="36.6988868713379" lon="-5.03320503234863">
        <ele>1374.37036132812</ele>
        <time>2018-07-28T09:05:01Z</time>
      </trkpt>
      <trkpt lat="36.6988792419434" lon="-5.0332179069519">
        <ele>1374.44018554688</ele>
        <time>2018-07-28T09:05:02Z</time>
      </trkpt>
      <trkpt lat="36.6988792419434" lon="-5.03323078155518">
        <ele>1374.37194824219</ele>
        <time>2018-07-28T09:05:03Z</time>
      </trkpt>
      <trkpt lat="36.6988716125488" lon="-5.03324508666992">
        <ele>1374.43115234375</ele>
        <time>2018-07-28T09:05:04Z</time>
      </trkpt>
      <trkpt lat="36.6988677978516" lon="-5.03325891494751">
        <ele>1374.423828125</ele>
        <time>2018-07-28T09:05:05Z</time>
      </trkpt>
      <trkpt lat="36.6988639831543" lon="-5.03327178955078">
        <ele>1374.42053222656</ele>
        <time>2018-07-28T09:05:06Z</time>
      </trkpt>
      <trkpt lat="36.6988563537598" lon="-5.03328514099121">
        <ele>1374.47961425781</ele>
        <time>2018-07-28T09:05:07Z</time>
      </trkpt>
      <trkpt lat="36.6988525390625" lon="-5.03329420089722">
        <ele>1374.4951171875</ele>
        <time>2018-07-28T09:05:08Z</time>
      </trkpt>
      <trkpt lat="36.6988487243652" lon="-5.0332989692688">
        <ele>1374.53405761719</ele>
        <time>2018-07-28T09:05:09Z</time>
      </trkpt>
      <trkpt lat="36.6988487243652" lon="-5.03329992294312">
        <ele>1374.52868652344</ele>
        <time>2018-07-28T09:05:10Z</time>
      </trkpt>
      <trkpt lat="36.698844909668" lon="-5.0332989692688">
        <ele>1374.59948730469</ele>
        <time>2018-07-28T09:05:11Z</time>
      </trkpt>
      <trkpt lat="36.6988410949707" lon="-5.0332989692688">
        <ele>1374.66479492188</ele>
        <time>2018-07-28T09:05:12Z</time>
      </trkpt>
      <trkpt lat="36.6988372802734" lon="-5.03330278396606">
        <ele>1374.70849609375</ele>
        <time>2018-07-28T09:05:13Z</time>
      </trkpt>
      <trkpt lat="36.6988296508789" lon="-5.03331089019775">
        <ele>1374.7919921875</ele>
        <time>2018-07-28T09:05:14Z</time>
      </trkpt>
      <trkpt lat="36.6988258361816" lon="-5.03332376480103">
        <ele>1374.78173828125</ele>
        <time>2018-07-28T09:05:15Z</time>
      </trkpt>
      <trkpt lat="36.6988220214844" lon="-5.03333616256714">
        <ele>1374.75805664062</ele>
        <time>2018-07-28T09:05:16Z</time>
      </trkpt>
      <trkpt lat="36.6988182067871" lon="-5.03334903717041">
        <ele>1374.67663574219</ele>
        <time>2018-07-28T09:05:17Z</time>
      </trkpt>
      <trkpt lat="36.6988143920898" lon="-5.03336095809936">
        <ele>1374.60583496094</ele>
        <time>2018-07-28T09:05:18Z</time>
      </trkpt>
      <trkpt lat="36.6988105773926" lon="-5.03337383270264">
        <ele>1374.52416992188</ele>
        <time>2018-07-28T09:05:19Z</time>
      </trkpt>
      <trkpt lat="36.6988105773926" lon="-5.03338623046875">
        <ele>1374.38391113281</ele>
        <time>2018-07-28T09:05:20Z</time>
      </trkpt>
      <trkpt lat="36.6988067626953" lon="-5.03339576721191">
        <ele>1374.33972167969</ele>
        <time>2018-07-28T09:05:21Z</time>
      </trkpt>
      <trkpt lat="36.698802947998" lon="-5.03340578079224">
        <ele>1374.2900390625</ele>
        <time>2018-07-28T09:05:22Z</time>
      </trkpt>
      <trkpt lat="36.698802947998" lon="-5.03341579437256">
        <ele>1374.1767578125</ele>
        <time>2018-07-28T09:05:23Z</time>
      </trkpt>
      <trkpt lat="36.6987991333008" lon="-5.03342819213867">
        <ele>1374.09985351562</ele>
        <time>2018-07-28T09:05:24Z</time>
      </trkpt>
      <trkpt lat="36.6987991333008" lon="-5.03344011306763">
        <ele>1373.96484375</ele>
        <time>2018-07-28T09:05:25Z</time>
      </trkpt>
      <trkpt lat="36.6987953186035" lon="-5.0334529876709">
        <ele>1373.88244628906</ele>
        <time>2018-07-28T09:05:26Z</time>
      </trkpt>
      <trkpt lat="36.6987915039062" lon="-5.03346490859985">
        <ele>1373.81066894531</ele>
        <time>2018-07-28T09:05:27Z</time>
      </trkpt>
      <trkpt lat="36.698787689209" lon="-5.03347587585449">
        <ele>1373.74951171875</ele>
        <time>2018-07-28T09:05:28Z</time>
      </trkpt>
      <trkpt lat="36.6987838745117" lon="-5.03348302841186">
        <ele>1373.73168945312</ele>
        <time>2018-07-28T09:05:29Z</time>
      </trkpt>
      <trkpt lat="36.6987838745117" lon="-5.03348779678345">
        <ele>1373.67761230469</ele>
        <time>2018-07-28T09:05:30Z</time>
      </trkpt>
      <trkpt lat="36.6987800598144" lon="-5.03349304199219">
        <ele>1373.68127441406</ele>
        <time>2018-07-28T09:05:31Z</time>
      </trkpt>
      <trkpt lat="36.6987800598144" lon="-5.03350114822388">
        <ele>1373.58911132812</ele>
        <time>2018-07-28T09:05:32Z</time>
      </trkpt>
      <trkpt lat="36.6987762451172" lon="-5.03351402282715">
        <ele>1373.50610351562</ele>
        <time>2018-07-28T09:05:33Z</time>
      </trkpt>
      <trkpt lat="36.6987686157227" lon="-5.0335259437561">
        <ele>1373.49670410156</ele>
        <time>2018-07-28T09:05:34Z</time>
      </trkpt>
      <trkpt lat="36.6987648010254" lon="-5.03353977203369">
        <ele>1373.40234375</ele>
        <time>2018-07-28T09:05:35Z</time>
      </trkpt>
      <trkpt lat="36.6987609863281" lon="-5.03354978561401">
        <ele>1373.35131835938</ele>
        <time>2018-07-28T09:05:36Z</time>
      </trkpt>
      <trkpt lat="36.6987571716309" lon="-5.03355979919434">
        <ele>1373.30017089844</ele>
        <time>2018-07-28T09:05:37Z</time>
      </trkpt>
      <trkpt lat="36.6987533569336" lon="-5.03357076644897">
        <ele>1373.23803710938</ele>
        <time>2018-07-28T09:05:38Z</time>
      </trkpt>
      <trkpt lat="36.6987495422363" lon="-5.0335841178894">
        <ele>1373.14855957031</ele>
        <time>2018-07-28T09:05:39Z</time>
      </trkpt>
      <trkpt lat="36.6987495422363" lon="-5.03359699249268">
        <ele>1373.00183105469</ele>
        <time>2018-07-28T09:05:40Z</time>
      </trkpt>
      <trkpt lat="36.6987457275391" lon="-5.03361082077026">
        <ele>1372.90673828125</ele>
        <time>2018-07-28T09:05:41Z</time>
      </trkpt>
      <trkpt lat="36.6987457275391" lon="-5.03362417221069">
        <ele>1372.75439453125</ele>
        <time>2018-07-28T09:05:42Z</time>
      </trkpt>
      <trkpt lat="36.6987419128418" lon="-5.03363800048828">
        <ele>1372.65905761719</ele>
        <time>2018-07-28T09:05:43Z</time>
      </trkpt>
      <trkpt lat="36.6987380981445" lon="-5.03365087509155">
        <ele>1372.57458496094</ele>
        <time>2018-07-28T09:05:44Z</time>
      </trkpt>
      <trkpt lat="36.6987380981445" lon="-5.0336651802063">
        <ele>1372.41125488281</ele>
        <time>2018-07-28T09:05:45Z</time>
      </trkpt>
      <trkpt lat="36.6987342834473" lon="-5.03367900848389">
        <ele>1372.31555175781</ele>
        <time>2018-07-28T09:05:46Z</time>
      </trkpt>
      <trkpt lat="36.6987342834473" lon="-5.03369522094727">
        <ele>1372.13037109375</ele>
        <time>2018-07-28T09:05:47Z</time>
      </trkpt>
      <trkpt lat="36.69873046875" lon="-5.0337119102478">
        <ele>1372.00170898438</ele>
        <time>2018-07-28T09:05:48Z</time>
      </trkpt>
      <trkpt lat="36.6987266540527" lon="-5.03372812271118">
        <ele>1371.87829589844</ele>
        <time>2018-07-28T09:05:49Z</time>
      </trkpt>
      <trkpt lat="36.6987266540527" lon="-5.03374195098877">
        <ele>1371.72021484375</ele>
        <time>2018-07-28T09:05:50Z</time>
      </trkpt>
      <trkpt lat="36.6987228393555" lon="-5.03375720977783">
        <ele>1371.60754394531</ele>
        <time>2018-07-28T09:05:51Z</time>
      </trkpt>
      <trkpt lat="36.6987190246582" lon="-5.03377199172974">
        <ele>1371.50012207031</ele>
        <time>2018-07-28T09:05:52Z</time>
      </trkpt>
      <trkpt lat="36.6987152099609" lon="-5.03378582000732">
        <ele>1371.40344238281</ele>
        <time>2018-07-28T09:05:53Z</time>
      </trkpt>
      <trkpt lat="36.6987113952637" lon="-5.03379821777344">
        <ele>1371.32299804688</ele>
        <time>2018-07-28T09:05:54Z</time>
      </trkpt>
      <trkpt lat="36.6987075805664" lon="-5.03380823135376">
        <ele>1371.26977539062</ele>
        <time>2018-07-28T09:05:55Z</time>
      </trkpt>
      <trkpt lat="36.6987075805664" lon="-5.03381681442261">
        <ele>1371.17138671875</ele>
        <time>2018-07-28T09:05:56Z</time>
      </trkpt>
      <trkpt lat="36.6987037658691" lon="-5.0338249206543">
        <ele>1371.13989257812</ele>
        <time>2018-07-28T09:05:57Z</time>
      </trkpt>
      <trkpt lat="36.6986999511719" lon="-5.03383493423462">
        <ele>1371.08642578125</ele>
        <time>2018-07-28T09:05:58Z</time>
      </trkpt>
      <trkpt lat="36.6986961364746" lon="-5.03384685516357">
        <ele>1371.01098632812</ele>
        <time>2018-07-28T09:05:59Z</time>
      </trkpt>
      <trkpt lat="36.6986923217773" lon="-5.03385782241821">
        <ele>1370.9462890625</ele>
        <time>2018-07-28T09:06:00Z</time>
      </trkpt>
      <trkpt lat="36.6986846923828" lon="-5.03386878967285">
        <ele>1370.94262695312</ele>
        <time>2018-07-28T09:06:01Z</time>
      </trkpt>
      <trkpt lat="36.6986770629883" lon="-5.03387880325317">
        <ele>1370.94970703125</ele>
        <time>2018-07-28T09:06:02Z</time>
      </trkpt>
      <trkpt lat="36.6986694335938" lon="-5.0338888168335">
        <ele>1370.95654296875</ele>
        <time>2018-07-28T09:06:03Z</time>
      </trkpt>
      <trkpt lat="36.6986656188965" lon="-5.0338978767395">
        <ele>1370.91320800781</ele>
        <time>2018-07-28T09:06:04Z</time>
      </trkpt>
      <trkpt lat="36.6986618041992" lon="-5.03390693664551">
        <ele>1370.86975097656</ele>
        <time>2018-07-28T09:06:05Z</time>
      </trkpt>
      <trkpt lat="36.698657989502" lon="-5.03391695022583">
        <ele>1370.81518554688</ele>
        <time>2018-07-28T09:06:06Z</time>
      </trkpt>
      <trkpt lat="36.6986503601074" lon="-5.03392696380615">
        <ele>1370.82141113281</ele>
        <time>2018-07-28T09:06:07Z</time>
      </trkpt>
      <trkpt lat="36.6986465454102" lon="-5.03393888473511">
        <ele>1370.74450683594</ele>
        <time>2018-07-28T09:06:08Z</time>
      </trkpt>
      <trkpt lat="36.6986427307129" lon="-5.03394985198975">
        <ele>1370.67858886719</ele>
        <time>2018-07-28T09:06:09Z</time>
      </trkpt>
      <trkpt lat="36.6986427307129" lon="-5.0339617729187">
        <ele>1370.54089355469</ele>
        <time>2018-07-28T09:06:10Z</time>
      </trkpt>
      <trkpt lat="36.6986427307129" lon="-5.03397512435913">
        <ele>1370.38659667969</ele>
        <time>2018-07-28T09:06:11Z</time>
      </trkpt>
      <trkpt lat="36.6986389160156" lon="-5.03398895263672">
        <ele>1370.28723144531</ele>
        <time>2018-07-28T09:06:12Z</time>
      </trkpt>
      <trkpt lat="36.6986351013184" lon="-5.03400087356567">
        <ele>1370.20983886719</ele>
        <time>2018-07-28T09:06:13Z</time>
      </trkpt>
      <trkpt lat="36.6986351013184" lon="-5.034010887146">
        <ele>1370.09411621094</ele>
        <time>2018-07-28T09:06:14Z</time>
      </trkpt>
      <trkpt lat="36.6986312866211" lon="-5.034019947052">
        <ele>1370.04956054688</ele>
        <time>2018-07-28T09:06:15Z</time>
      </trkpt>
      <trkpt lat="36.6986312866211" lon="-5.03402709960938">
        <ele>1369.966796875</ele>
        <time>2018-07-28T09:06:16Z</time>
      </trkpt>
      <trkpt lat="36.6986312866211" lon="-5.03403186798096">
        <ele>1369.91162109375</ele>
        <time>2018-07-28T09:06:17Z</time>
      </trkpt>
      <trkpt lat="36.6986274719238" lon="-5.0340371131897">
        <ele>1369.91125488281</ele>
        <time>2018-07-28T09:06:18Z</time>
      </trkpt>
      <trkpt lat="36.6986274719238" lon="-5.0340461730957">
        <ele>1369.80627441406</ele>
        <time>2018-07-28T09:06:19Z</time>
      </trkpt>
      <trkpt lat="36.6986236572266" lon="-5.03405904769897">
        <ele>1369.71740722656</ele>
        <time>2018-07-28T09:06:20Z</time>
      </trkpt>
      <trkpt lat="36.6986198425293" lon="-5.03407192230225">
        <ele>1369.62829589844</ele>
        <time>2018-07-28T09:06:21Z</time>
      </trkpt>
      <trkpt lat="36.698616027832" lon="-5.03408622741699">
        <ele>1369.5224609375</ele>
        <time>2018-07-28T09:06:22Z</time>
      </trkpt>
      <trkpt lat="36.698616027832" lon="-5.03409910202026">
        <ele>1369.37329101562</ele>
        <time>2018-07-28T09:06:23Z</time>
      </trkpt>
      <trkpt lat="36.6986122131348" lon="-5.03410911560059">
        <ele>1369.31701660156</ele>
        <time>2018-07-28T09:06:24Z</time>
      </trkpt>
      <trkpt lat="36.6986122131348" lon="-5.0341157913208">
        <ele>1369.23950195312</ele>
        <time>2018-07-28T09:06:25Z</time>
      </trkpt>
      <trkpt lat="36.6986083984375" lon="-5.03412389755249">
        <ele>1369.20532226562</ele>
        <time>2018-07-28T09:06:26Z</time>
      </trkpt>
      <trkpt lat="36.698600769043" lon="-5.0341329574585">
        <ele>1369.21948242188</ele>
        <time>2018-07-28T09:06:27Z</time>
      </trkpt>
      <trkpt lat="36.6985931396484" lon="-5.03414297103882">
        <ele>1369.22253417969</ele>
        <time>2018-07-28T09:06:28Z</time>
      </trkpt>
      <trkpt lat="36.6985893249512" lon="-5.03415107727051">
        <ele>1369.18786621094</ele>
        <time>2018-07-28T09:06:29Z</time>
      </trkpt>
      <trkpt lat="36.6985816955566" lon="-5.0341591835022">
        <ele>1369.21264648438</ele>
        <time>2018-07-28T09:06:30Z</time>
      </trkpt>
      <trkpt lat="36.6985740661621" lon="-5.03416776657104">
        <ele>1369.23327636719</ele>
        <time>2018-07-28T09:06:31Z</time>
      </trkpt>
      <trkpt lat="36.6985626220703" lon="-5.03417682647705">
        <ele>1369.31799316406</ele>
        <time>2018-07-28T09:06:32Z</time>
      </trkpt>
      <trkpt lat="36.6985549926758" lon="-5.03418779373169">
        <ele>1369.322265625</ele>
        <time>2018-07-28T09:06:33Z</time>
      </trkpt>
      <trkpt lat="36.6985473632812" lon="-5.0342001914978">
        <ele>1369.310546875</ele>
        <time>2018-07-28T09:06:34Z</time>
      </trkpt>
      <trkpt lat="36.6985397338867" lon="-5.03421211242676">
        <ele>1369.30236816406</ele>
        <time>2018-07-28T09:06:35Z</time>
      </trkpt>
      <trkpt lat="36.6985321044922" lon="-5.03422403335571">
        <ele>1369.29284667969</ele>
        <time>2018-07-28T09:06:36Z</time>
      </trkpt>
      <trkpt lat="36.6985244750977" lon="-5.03423595428467">
        <ele>1369.28210449219</ele>
        <time>2018-07-28T09:06:37Z</time>
      </trkpt>
      <trkpt lat="36.6985168457031" lon="-5.03424882888794">
        <ele>1369.259765625</ele>
        <time>2018-07-28T09:06:38Z</time>
      </trkpt>
      <trkpt lat="36.6985054016113" lon="-5.03425788879394">
        <ele>1369.33410644531</ele>
        <time>2018-07-28T09:06:39Z</time>
      </trkpt>
      <trkpt lat="36.6984977722168" lon="-5.03426599502564">
        <ele>1369.36047363281</ele>
        <time>2018-07-28T09:06:40Z</time>
      </trkpt>
      <trkpt lat="36.6984901428223" lon="-5.03427505493164">
        <ele>1369.37548828125</ele>
        <time>2018-07-28T09:06:41Z</time>
      </trkpt>
      <trkpt lat="36.6984825134277" lon="-5.03428506851196">
        <ele>1369.37915039062</ele>
        <time>2018-07-28T09:06:42Z</time>
      </trkpt>
      <trkpt lat="36.6984710693359" lon="-5.03429508209228">
        <ele>1369.43762207031</ele>
        <time>2018-07-28T09:06:43Z</time>
      </trkpt>
      <trkpt lat="36.6984634399414" lon="-5.03430604934692">
        <ele>1369.42834472656</ele>
        <time>2018-07-28T09:06:44Z</time>
      </trkpt>
      <trkpt lat="36.6984558105469" lon="-5.0343189239502">
        <ele>1369.396484375</ele>
        <time>2018-07-28T09:06:45Z</time>
      </trkpt>
      <trkpt lat="36.6984481811523" lon="-5.03433322906494">
        <ele>1369.34741210938</ele>
        <time>2018-07-28T09:06:46Z</time>
      </trkpt>
      <trkpt lat="36.6984443664551" lon="-5.03434801101685">
        <ele>1369.23669433594</ele>
        <time>2018-07-28T09:06:47Z</time>
      </trkpt>
      <trkpt lat="36.6984367370606" lon="-5.03436088562012">
        <ele>1369.20092773438</ele>
        <time>2018-07-28T09:06:48Z</time>
      </trkpt>
      <trkpt lat="36.698429107666" lon="-5.03437423706055">
        <ele>1369.158203125</ele>
        <time>2018-07-28T09:06:49Z</time>
      </trkpt>
      <trkpt lat="36.6984252929688" lon="-5.0343861579895">
        <ele>1369.07690429688</ele>
        <time>2018-07-28T09:06:50Z</time>
      </trkpt>
      <trkpt lat="36.6984214782715" lon="-5.03440189361572">
        <ele>1368.95153808594</ele>
        <time>2018-07-28T09:06:51Z</time>
      </trkpt>
      <trkpt lat="36.6984176635742" lon="-5.03441476821899">
        <ele>1368.85791015625</ele>
        <time>2018-07-28T09:06:52Z</time>
      </trkpt>
      <trkpt lat="36.698413848877" lon="-5.03442811965942">
        <ele>1368.75805664062</ele>
        <time>2018-07-28T09:06:53Z</time>
      </trkpt>
      <trkpt lat="36.6984062194824" lon="-5.03443813323975">
        <ele>1368.74780273438</ele>
        <time>2018-07-28T09:06:54Z</time>
      </trkpt>
      <trkpt lat="36.6983985900879" lon="-5.03445100784302">
        <ele>1368.70349121094</ele>
        <time>2018-07-28T09:06:55Z</time>
      </trkpt>
      <trkpt lat="36.6983947753906" lon="-5.03446388244629">
        <ele>1368.6064453125</ele>
        <time>2018-07-28T09:06:56Z</time>
      </trkpt>
      <trkpt lat="36.6983833312988" lon="-5.03447818756104">
        <ele>1368.59387207031</ele>
        <time>2018-07-28T09:06:57Z</time>
      </trkpt>
      <trkpt lat="36.6983757019043" lon="-5.03449106216431">
        <ele>1368.54528808594</ele>
        <time>2018-07-28T09:06:58Z</time>
      </trkpt>
      <trkpt lat="36.6983642578125" lon="-5.03450393676758">
        <ele>1368.54541015625</ele>
        <time>2018-07-28T09:06:59Z</time>
      </trkpt>
      <trkpt lat="36.698356628418" lon="-5.03451776504517">
        <ele>1368.48229980469</ele>
        <time>2018-07-28T09:07:00Z</time>
      </trkpt>
      <trkpt lat="36.6983489990234" lon="-5.0345311164856">
        <ele>1368.42333984375</ele>
        <time>2018-07-28T09:07:01Z</time>
      </trkpt>
      <trkpt lat="36.6983413696289" lon="-5.03454399108887">
        <ele>1368.36853027344</ele>
        <time>2018-07-28T09:07:02Z</time>
      </trkpt>
      <trkpt lat="36.6983337402344" lon="-5.03455591201782">
        <ele>1368.32385253906</ele>
        <time>2018-07-28T09:07:03Z</time>
      </trkpt>
      <trkpt lat="36.6983261108398" lon="-5.03456783294678">
        <ele>1368.25085449219</ele>
        <time>2018-07-28T09:07:04Z</time>
      </trkpt>
      <trkpt lat="36.6983222961426" lon="-5.03458023071289">
        <ele>1368.13647460938</ele>
        <time>2018-07-28T09:07:05Z</time>
      </trkpt>
      <trkpt lat="36.6983184814453" lon="-5.03459310531616">
        <ele>1368.0166015625</ele>
        <time>2018-07-28T09:07:06Z</time>
      </trkpt>
      <trkpt lat="36.698314666748" lon="-5.03460597991943">
        <ele>1367.89685058594</ele>
        <time>2018-07-28T09:07:07Z</time>
      </trkpt>
      <trkpt lat="36.6983108520508" lon="-5.03461790084839">
        <ele>1367.78869628906</ele>
        <time>2018-07-28T09:07:08Z</time>
      </trkpt>
      <trkpt lat="36.6983070373535" lon="-5.03463077545166">
        <ele>1367.66918945312</ele>
        <time>2018-07-28T09:07:09Z</time>
      </trkpt>
      <trkpt lat="36.6983032226562" lon="-5.03464317321777">
        <ele>1367.55554199219</ele>
        <time>2018-07-28T09:07:10Z</time>
      </trkpt>
      <trkpt lat="36.698299407959" lon="-5.03465414047241">
        <ele>1367.45910644531</ele>
        <time>2018-07-28T09:07:11Z</time>
      </trkpt>
      <trkpt lat="36.6982955932617" lon="-5.03466510772705">
        <ele>1367.36279296875</ele>
        <time>2018-07-28T09:07:12Z</time>
      </trkpt>
      <trkpt lat="36.6982879638672" lon="-5.03467512130737">
        <ele>1367.31286621094</ele>
        <time>2018-07-28T09:07:13Z</time>
      </trkpt>
      <trkpt lat="36.6982841491699" lon="-5.03468608856201">
        <ele>1367.21691894531</ele>
        <time>2018-07-28T09:07:14Z</time>
      </trkpt>
      <trkpt lat="36.6982765197754" lon="-5.03469800949097">
        <ele>1367.14453125</ele>
        <time>2018-07-28T09:07:15Z</time>
      </trkpt>
      <trkpt lat="36.6982727050781" lon="-5.03470993041992">
        <ele>1367.03759765625</ele>
        <time>2018-07-28T09:07:16Z</time>
      </trkpt>
      <trkpt lat="36.6982688903809" lon="-5.03472185134888">
        <ele>1366.9306640625</ele>
        <time>2018-07-28T09:07:17Z</time>
      </trkpt>
      <trkpt lat="36.6982650756836" lon="-5.03473520278931">
        <ele>1366.80676269531</ele>
        <time>2018-07-28T09:07:18Z</time>
      </trkpt>
      <trkpt lat="36.6982612609863" lon="-5.03474903106689">
        <ele>1366.67749023438</ele>
        <time>2018-07-28T09:07:19Z</time>
      </trkpt>
      <trkpt lat="36.6982612609863" lon="-5.03476190567017">
        <ele>1366.52429199219</ele>
        <time>2018-07-28T09:07:20Z</time>
      </trkpt>
      <trkpt lat="36.6982574462891" lon="-5.03477621078491">
        <ele>1366.38952636719</ele>
        <time>2018-07-28T09:07:21Z</time>
      </trkpt>
      <trkpt lat="36.6982536315918" lon="-5.03478908538818">
        <ele>1366.27185058594</ele>
        <time>2018-07-28T09:07:22Z</time>
      </trkpt>
      <trkpt lat="36.6982460021973" lon="-5.03480291366577">
        <ele>1366.17858886719</ele>
        <time>2018-07-28T09:07:23Z</time>
      </trkpt>
      <trkpt lat="36.6982421875" lon="-5.03481721878052">
        <ele>1366.04443359375</ele>
        <time>2018-07-28T09:07:24Z</time>
      </trkpt>
      <trkpt lat="36.6982383728027" lon="-5.03483104705811">
        <ele>1365.91589355469</ele>
        <time>2018-07-28T09:07:25Z</time>
      </trkpt>
      <trkpt lat="36.6982345581055" lon="-5.03484487533569">
        <ele>1365.78771972656</ele>
        <time>2018-07-28T09:07:26Z</time>
      </trkpt>
      <trkpt lat="36.6982307434082" lon="-5.03485918045044">
        <ele>1365.65393066406</ele>
        <time>2018-07-28T09:07:27Z</time>
      </trkpt>
      <trkpt lat="36.6982269287109" lon="-5.03487396240234">
        <ele>1365.5146484375</ele>
        <time>2018-07-28T09:07:28Z</time>
      </trkpt>
      <trkpt lat="36.6982192993164" lon="-5.03488922119141">
        <ele>1365.40588378906</ele>
        <time>2018-07-28T09:07:29Z</time>
      </trkpt>
      <trkpt lat="36.6982192993164" lon="-5.03490209579468">
        <ele>1365.25354003906</ele>
        <time>2018-07-28T09:07:30Z</time>
      </trkpt>
      <trkpt lat="36.6982154846191" lon="-5.03491497039795">
        <ele>1365.13732910156</ele>
        <time>2018-07-28T09:07:31Z</time>
      </trkpt>
      <trkpt lat="36.6982116699219" lon="-5.0349268913269">
        <ele>1365.03247070312</ele>
        <time>2018-07-28T09:07:32Z</time>
      </trkpt>
      <trkpt lat="36.6982078552246" lon="-5.03493881225586">
        <ele>1364.927734375</ele>
        <time>2018-07-28T09:07:33Z</time>
      </trkpt>
      <trkpt lat="36.6982002258301" lon="-5.03495121002197">
        <ele>1364.85400390625</ele>
        <time>2018-07-28T09:07:34Z</time>
      </trkpt>
      <trkpt lat="36.6981964111328" lon="-5.03496313095093">
        <ele>1364.74963378906</ele>
        <time>2018-07-28T09:07:35Z</time>
      </trkpt>
      <trkpt lat="36.6981887817383" lon="-5.03497409820557">
        <ele>1364.69311523438</ele>
        <time>2018-07-28T09:07:36Z</time>
      </trkpt>
      <trkpt lat="36.698184967041" lon="-5.0349850654602">
        <ele>1364.60034179688</ele>
        <time>2018-07-28T09:07:37Z</time>
      </trkpt>
      <trkpt lat="36.6981773376465" lon="-5.03499507904053">
        <ele>1364.55554199219</ele>
        <time>2018-07-28T09:07:38Z</time>
      </trkpt>
      <trkpt lat="36.6981735229492" lon="-5.03500604629517">
        <ele>1364.46130371094</ele>
        <time>2018-07-28T09:07:39Z</time>
      </trkpt>
      <trkpt lat="36.698169708252" lon="-5.0350170135498">
        <ele>1364.3662109375</ele>
        <time>2018-07-28T09:07:40Z</time>
      </trkpt>
      <trkpt lat="36.6981620788574" lon="-5.03502893447876">
        <ele>1364.29772949219</ele>
        <time>2018-07-28T09:07:41Z</time>
      </trkpt>
      <trkpt lat="36.6981544494629" lon="-5.03504180908203">
        <ele>1364.21923828125</ele>
        <time>2018-07-28T09:07:42Z</time>
      </trkpt>
      <trkpt lat="36.6981506347656" lon="-5.03505420684814">
        <ele>1364.10974121094</ele>
        <time>2018-07-28T09:07:43Z</time>
      </trkpt>
      <trkpt lat="36.6981468200684" lon="-5.0350661277771">
        <ele>1364.00646972656</ele>
        <time>2018-07-28T09:07:44Z</time>
      </trkpt>
      <trkpt lat="36.6981430053711" lon="-5.03507804870606">
        <ele>1363.90380859375</ele>
        <time>2018-07-28T09:07:45Z</time>
      </trkpt>
      <trkpt lat="36.6981391906738" lon="-5.03508996963501">
        <ele>1363.80187988281</ele>
        <time>2018-07-28T09:07:46Z</time>
      </trkpt>
      <trkpt lat="36.6981353759766" lon="-5.03510284423828">
        <ele>1363.689453125</ele>
        <time>2018-07-28T09:07:47Z</time>
      </trkpt>
      <trkpt lat="36.6981315612793" lon="-5.03511619567871">
        <ele>1363.57202148438</ele>
        <time>2018-07-28T09:07:48Z</time>
      </trkpt>
      <trkpt lat="36.698127746582" lon="-5.03512811660767">
        <ele>1363.47216796875</ele>
        <time>2018-07-28T09:07:49Z</time>
      </trkpt>
      <trkpt lat="36.698127746582" lon="-5.03514003753662">
        <ele>1363.33239746094</ele>
        <time>2018-07-28T09:07:50Z</time>
      </trkpt>
      <trkpt lat="36.6981239318848" lon="-5.03515195846558">
        <ele>1363.23352050781</ele>
        <time>2018-07-28T09:07:51Z</time>
      </trkpt>
      <trkpt lat="36.6981239318848" lon="-5.03516578674316">
        <ele>1363.07177734375</ele>
        <time>2018-07-28T09:07:52Z</time>
      </trkpt>
      <trkpt lat="36.6981201171875" lon="-5.03518104553223">
        <ele>1362.93505859375</ele>
        <time>2018-07-28T09:07:53Z</time>
      </trkpt>
      <trkpt lat="36.6981163024902" lon="-5.03519582748413">
        <ele>1362.80456542969</ele>
        <time>2018-07-28T09:07:54Z</time>
      </trkpt>
      <trkpt lat="36.6981163024902" lon="-5.03521299362183">
        <ele>1362.60485839844</ele>
        <time>2018-07-28T09:07:55Z</time>
      </trkpt>
      <trkpt lat="36.6981163024902" lon="-5.0352292060852">
        <ele>1362.41613769531</ele>
        <time>2018-07-28T09:07:56Z</time>
      </trkpt>
      <trkpt lat="36.6981201171875" lon="-5.03524494171143">
        <ele>1362.18969726562</ele>
        <time>2018-07-28T09:07:57Z</time>
      </trkpt>
      <trkpt lat="36.6981163024902" lon="-5.03526020050049">
        <ele>1362.05541992188</ele>
        <time>2018-07-28T09:07:58Z</time>
      </trkpt>
      <trkpt lat="36.6981163024902" lon="-5.03527498245239">
        <ele>1361.88342285156</ele>
        <time>2018-07-28T09:07:59Z</time>
      </trkpt>
      <trkpt lat="36.698112487793" lon="-5.03528881072998">
        <ele>1361.76708984375</ele>
        <time>2018-07-28T09:08:00Z</time>
      </trkpt>
      <trkpt lat="36.6981086730957" lon="-5.03530311584473">
        <ele>1361.64587402344</ele>
        <time>2018-07-28T09:08:01Z</time>
      </trkpt>
      <trkpt lat="36.6981048583984" lon="-5.03531694412231">
        <ele>1361.53112792969</ele>
        <time>2018-07-28T09:08:02Z</time>
      </trkpt>
      <trkpt lat="36.6981048583984" lon="-5.03533220291138">
        <ele>1361.35473632812</ele>
        <time>2018-07-28T09:08:03Z</time>
      </trkpt>
      <trkpt lat="36.6981010437012" lon="-5.03534698486328">
        <ele>1361.23010253906</ele>
        <time>2018-07-28T09:08:04Z</time>
      </trkpt>
      <trkpt lat="36.6981010437012" lon="-5.03536176681519">
        <ele>1361.05969238281</ele>
        <time>2018-07-28T09:08:05Z</time>
      </trkpt>
      <trkpt lat="36.6980972290039" lon="-5.03537797927856">
        <ele>1360.91979980469</ele>
        <time>2018-07-28T09:08:06Z</time>
      </trkpt>
      <trkpt lat="36.6980934143066" lon="-5.03539180755615">
        <ele>1360.80822753906</ele>
        <time>2018-07-28T09:08:07Z</time>
      </trkpt>
      <trkpt lat="36.6980895996094" lon="-5.03540515899658">
        <ele>1360.70275878906</ele>
        <time>2018-07-28T09:08:08Z</time>
      </trkpt>
      <trkpt lat="36.6980857849121" lon="-5.03541612625122">
        <ele>1360.62524414062</ele>
        <time>2018-07-28T09:08:09Z</time>
      </trkpt>
      <trkpt lat="36.6980819702148" lon="-5.03542804718018">
        <ele>1360.53759765625</ele>
        <time>2018-07-28T09:08:10Z</time>
      </trkpt>
      <trkpt lat="36.6980743408203" lon="-5.0354380607605">
        <ele>1360.52075195312</ele>
        <time>2018-07-28T09:08:11Z</time>
      </trkpt>
      <trkpt lat="36.6980667114258" lon="-5.03544902801514">
        <ele>1360.49438476562</ele>
        <time>2018-07-28T09:08:12Z</time>
      </trkpt>
      <trkpt lat="36.6980590820312" lon="-5.03545808792114">
        <ele>1360.49060058594</ele>
        <time>2018-07-28T09:08:13Z</time>
      </trkpt>
      <trkpt lat="36.6980514526367" lon="-5.03546714782715">
        <ele>1360.48779296875</ele>
        <time>2018-07-28T09:08:14Z</time>
      </trkpt>
      <trkpt lat="36.6980438232422" lon="-5.03547477722168">
        <ele>1360.501953125</ele>
        <time>2018-07-28T09:08:15Z</time>
      </trkpt>
      <trkpt lat="36.6980361938477" lon="-5.035484790802">
        <ele>1360.49047851562</ele>
        <time>2018-07-28T09:08:16Z</time>
      </trkpt>
      <trkpt lat="36.6980285644531" lon="-5.0354962348938">
        <ele>1360.46435546875</ele>
        <time>2018-07-28T09:08:17Z</time>
      </trkpt>
      <trkpt lat="36.6980209350586" lon="-5.03550577163696">
        <ele>1360.46044921875</ele>
        <time>2018-07-28T09:08:18Z</time>
      </trkpt>
      <trkpt lat="36.6980133056641" lon="-5.03551721572876">
        <ele>1360.43676757812</ele>
        <time>2018-07-28T09:08:19Z</time>
      </trkpt>
      <trkpt lat="36.6980056762695" lon="-5.03552722930908">
        <ele>1360.42993164062</ele>
        <time>2018-07-28T09:08:20Z</time>
      </trkpt>
      <trkpt lat="36.6979942321777" lon="-5.03553581237793">
        <ele>1360.49084472656</ele>
        <time>2018-07-28T09:08:21Z</time>
      </trkpt>
      <trkpt lat="36.6979866027832" lon="-5.03554391860962">
        <ele>1360.50671386719</ele>
        <time>2018-07-28T09:08:22Z</time>
      </trkpt>
      <trkpt lat="36.6979751586914" lon="-5.03555297851562">
        <ele>1360.56518554688</ele>
        <time>2018-07-28T09:08:23Z</time>
      </trkpt>
      <trkpt lat="36.6979675292969" lon="-5.03556203842163">
        <ele>1360.57312011719</ele>
        <time>2018-07-28T09:08:24Z</time>
      </trkpt>
      <trkpt lat="36.6979560852051" lon="-5.03557014465332">
        <ele>1360.64428710938</ele>
        <time>2018-07-28T09:08:25Z</time>
      </trkpt>
      <trkpt lat="36.6979446411133" lon="-5.03558015823364">
        <ele>1360.69702148438</ele>
        <time>2018-07-28T09:08:26Z</time>
      </trkpt>
      <trkpt lat="36.6979370117188" lon="-5.03558921813965">
        <ele>1360.70837402344</ele>
        <time>2018-07-28T09:08:27Z</time>
      </trkpt>
      <trkpt lat="36.697925567627" lon="-5.0355978012085">
        <ele>1360.77868652344</ele>
        <time>2018-07-28T09:08:28Z</time>
      </trkpt>
      <trkpt lat="36.6979217529297" lon="-5.03560495376587">
        <ele>1360.75854492188</ele>
        <time>2018-07-28T09:08:29Z</time>
      </trkpt>
      <trkpt lat="36.6979141235352" lon="-5.03561496734619">
        <ele>1360.76306152344</ele>
        <time>2018-07-28T09:08:30Z</time>
      </trkpt>
      <trkpt lat="36.6979064941406" lon="-5.0356240272522">
        <ele>1360.7783203125</ele>
        <time>2018-07-28T09:08:31Z</time>
      </trkpt>
      <trkpt lat="36.6978988647461" lon="-5.03563499450684">
        <ele>1360.775390625</ele>
        <time>2018-07-28T09:08:32Z</time>
      </trkpt>
      <trkpt lat="36.6978912353516" lon="-5.03564691543579">
        <ele>1360.76403808594</ele>
        <time>2018-07-28T09:08:33Z</time>
      </trkpt>
      <trkpt lat="36.6978874206543" lon="-5.03565883636475">
        <ele>1360.69934082031</ele>
        <time>2018-07-28T09:08:34Z</time>
      </trkpt>
      <trkpt lat="36.6978797912598" lon="-5.03567218780518">
        <ele>1360.67614746094</ele>
        <time>2018-07-28T09:08:35Z</time>
      </trkpt>
      <trkpt lat="36.6978721618652" lon="-5.03568315505981">
        <ele>1360.67797851562</ele>
        <time>2018-07-28T09:08:36Z</time>
      </trkpt>
      <trkpt lat="36.6978645324707" lon="-5.03569412231445">
        <ele>1360.68103027344</ele>
        <time>2018-07-28T09:08:37Z</time>
      </trkpt>
      <trkpt lat="36.6978569030762" lon="-5.03570413589478">
        <ele>1360.69458007812</ele>
        <time>2018-07-28T09:08:38Z</time>
      </trkpt>
      <trkpt lat="36.6978492736816" lon="-5.03571510314941">
        <ele>1360.69995117188</ele>
        <time>2018-07-28T09:08:39Z</time>
      </trkpt>
      <trkpt lat="36.6978416442871" lon="-5.03572702407837">
        <ele>1360.697265625</ele>
        <time>2018-07-28T09:08:40Z</time>
      </trkpt>
      <trkpt lat="36.6978340148926" lon="-5.03573799133301">
        <ele>1360.705078125</ele>
        <time>2018-07-28T09:08:41Z</time>
      </trkpt>
      <trkpt lat="36.697826385498" lon="-5.03574991226196">
        <ele>1360.705078125</ele>
        <time>2018-07-28T09:08:42Z</time>
      </trkpt>
      <trkpt lat="36.6978187561035" lon="-5.0357608795166">
        <ele>1360.71533203125</ele>
        <time>2018-07-28T09:08:43Z</time>
      </trkpt>
      <trkpt lat="36.6978149414062" lon="-5.03577184677124">
        <ele>1360.66906738281</ele>
        <time>2018-07-28T09:08:44Z</time>
      </trkpt>
      <trkpt lat="36.6978073120117" lon="-5.03578281402588">
        <ele>1360.68139648438</ele>
        <time>2018-07-28T09:08:45Z</time>
      </trkpt>
      <trkpt lat="36.6977996826172" lon="-5.03579378128052">
        <ele>1360.69506835938</ele>
        <time>2018-07-28T09:08:46Z</time>
      </trkpt>
      <trkpt lat="36.6977958679199" lon="-5.03580522537231">
        <ele>1360.64672851562</ele>
        <time>2018-07-28T09:08:47Z</time>
      </trkpt>
      <trkpt lat="36.6977920532227" lon="-5.03581619262695">
        <ele>1360.60339355469</ele>
        <time>2018-07-28T09:08:48Z</time>
      </trkpt>
      <trkpt lat="36.6977882385254" lon="-5.03582715988159">
        <ele>1360.56079101562</ele>
        <time>2018-07-28T09:08:49Z</time>
      </trkpt>
      <trkpt lat="36.6977844238281" lon="-5.03583812713623">
        <ele>1360.53784179688</ele>
        <time>2018-07-28T09:08:50Z</time>
      </trkpt>
      <trkpt lat="36.6977806091309" lon="-5.03584814071655">
        <ele>1360.54528808594</ele>
        <time>2018-07-28T09:08:51Z</time>
      </trkpt>
      <trkpt lat="36.6977767944336" lon="-5.03585815429688">
        <ele>1360.55310058594</ele>
        <time>2018-07-28T09:08:52Z</time>
      </trkpt>
      <trkpt lat="36.6977691650391" lon="-5.0358681678772">
        <ele>1360.62158203125</ele>
        <time>2018-07-28T09:08:53Z</time>
      </trkpt>
      <trkpt lat="36.6977653503418" lon="-5.03587818145752">
        <ele>1360.63049316406</ele>
        <time>2018-07-28T09:08:54Z</time>
      </trkpt>
      <trkpt lat="36.6977615356445" lon="-5.03588581085205">
        <ele>1360.65209960938</ele>
        <time>2018-07-28T09:08:55Z</time>
      </trkpt>
      <trkpt lat="36.6977577209473" lon="-5.03589296340942">
        <ele>1360.67639160156</ele>
        <time>2018-07-28T09:08:56Z</time>
      </trkpt>
      <trkpt lat="36.69775390625" lon="-5.03589916229248">
        <ele>1360.70581054688</ele>
        <time>2018-07-28T09:08:57Z</time>
      </trkpt>
      <trkpt lat="36.6977500915527" lon="-5.0359058380127">
        <ele>1360.73315429688</ele>
        <time>2018-07-28T09:08:58Z</time>
      </trkpt>
      <trkpt lat="36.6977424621582" lon="-5.03591299057007">
        <ele>1360.81958007812</ele>
        <time>2018-07-28T09:08:59Z</time>
      </trkpt>
      <trkpt lat="36.6977386474609" lon="-5.03592014312744">
        <ele>1360.84521484375</ele>
        <time>2018-07-28T09:09:00Z</time>
      </trkpt>
      <trkpt lat="36.6977272033691" lon="-5.03592920303345">
        <ele>1360.98498535156</ele>
        <time>2018-07-28T09:09:01Z</time>
      </trkpt>
      <trkpt lat="36.6977233886719" lon="-5.03593921661377">
        <ele>1360.99768066406</ele>
        <time>2018-07-28T09:09:02Z</time>
      </trkpt>
      <trkpt lat="36.6977157592773" lon="-5.03595113754272">
        <ele>1361.06359863281</ele>
        <time>2018-07-28T09:09:03Z</time>
      </trkpt>
      <trkpt lat="36.6977081298828" lon="-5.03596210479736">
        <ele>1361.13525390625</ele>
        <time>2018-07-28T09:09:04Z</time>
      </trkpt>
      <trkpt lat="36.6977005004883" lon="-5.03597402572632">
        <ele>1361.20324707031</ele>
        <time>2018-07-28T09:09:05Z</time>
      </trkpt>
      <trkpt lat="36.697696685791" lon="-5.03598499298096">
        <ele>1361.2138671875</ele>
        <time>2018-07-28T09:09:06Z</time>
      </trkpt>
      <trkpt lat="36.6976890563965" lon="-5.0359959602356">
        <ele>1361.28820800781</ele>
        <time>2018-07-28T09:09:07Z</time>
      </trkpt>
      <trkpt lat="36.697681427002" lon="-5.03600692749023">
        <ele>1361.36340332031</ele>
        <time>2018-07-28T09:09:08Z</time>
      </trkpt>
      <trkpt lat="36.6976776123047" lon="-5.03601694107056">
        <ele>1361.38037109375</ele>
        <time>2018-07-28T09:09:09Z</time>
      </trkpt>
      <trkpt lat="36.6976699829102" lon="-5.03602600097656">
        <ele>1361.46606445312</ele>
        <time>2018-07-28T09:09:10Z</time>
      </trkpt>
      <trkpt lat="36.6976623535156" lon="-5.0360369682312">
        <ele>1361.54382324219</ele>
        <time>2018-07-28T09:09:11Z</time>
      </trkpt>
      <trkpt lat="36.6976547241211" lon="-5.03604984283447">
        <ele>1361.61389160156</ele>
        <time>2018-07-28T09:09:12Z</time>
      </trkpt>
      <trkpt lat="36.6976470947266" lon="-5.03606414794922">
        <ele>1361.67883300781</ele>
        <time>2018-07-28T09:09:13Z</time>
      </trkpt>
      <trkpt lat="36.6976432800293" lon="-5.03607797622681">
        <ele>1361.68225097656</ele>
        <time>2018-07-28T09:09:14Z</time>
      </trkpt>
      <trkpt lat="36.6976356506348" lon="-5.03609180450439">
        <ele>1361.75134277344</ele>
        <time>2018-07-28T09:09:15Z</time>
      </trkpt>
      <trkpt lat="36.6976318359375" lon="-5.03610610961914">
        <ele>1361.75427246094</ele>
        <time>2018-07-28T09:09:16Z</time>
      </trkpt>
      <trkpt lat="36.6976280212402" lon="-5.03611993789673">
        <ele>1361.759765625</ele>
        <time>2018-07-28T09:09:17Z</time>
      </trkpt>
      <trkpt lat="36.6976203918457" lon="-5.0361328125">
        <ele>1361.83605957031</ele>
        <time>2018-07-28T09:09:18Z</time>
      </trkpt>
      <trkpt lat="36.6976165771484" lon="-5.03614616394043">
        <ele>1361.84509277344</ele>
        <time>2018-07-28T09:09:19Z</time>
      </trkpt>
      <trkpt lat="36.6976089477539" lon="-5.03615808486938">
        <ele>1361.92749023438</ele>
        <time>2018-07-28T09:09:20Z</time>
      </trkpt>
      <trkpt lat="36.6976051330566" lon="-5.03616905212402">
        <ele>1361.94799804688</ele>
        <time>2018-07-28T09:09:21Z</time>
      </trkpt>
      <trkpt lat="36.6975975036621" lon="-5.03617906570435">
        <ele>1362.04016113281</ele>
        <time>2018-07-28T09:09:22Z</time>
      </trkpt>
      <trkpt lat="36.6975936889648" lon="-5.03619003295898">
        <ele>1362.06188964844</ele>
        <time>2018-07-28T09:09:23Z</time>
      </trkpt>
      <trkpt lat="36.6975898742676" lon="-5.03620195388794">
        <ele>1362.080078125</ele>
        <time>2018-07-28T09:09:24Z</time>
      </trkpt>
      <trkpt lat="36.6975860595703" lon="-5.03621387481689">
        <ele>1362.09887695312</ele>
        <time>2018-07-28T09:09:25Z</time>
      </trkpt>
      <trkpt lat="36.697582244873" lon="-5.03622484207153">
        <ele>1362.1220703125</ele>
        <time>2018-07-28T09:09:26Z</time>
      </trkpt>
      <trkpt lat="36.6975784301758" lon="-5.03623676300049">
        <ele>1362.14184570312</ele>
        <time>2018-07-28T09:09:27Z</time>
      </trkpt>
      <trkpt lat="36.6975746154785" lon="-5.0362491607666">
        <ele>1362.16027832031</ele>
        <time>2018-07-28T09:09:28Z</time>
      </trkpt>
      <trkpt lat="36.6975708007812" lon="-5.03626203536987">
        <ele>1362.17736816406</ele>
        <time>2018-07-28T09:09:29Z</time>
      </trkpt>
      <trkpt lat="36.697566986084" lon="-5.03627490997314">
        <ele>1362.19494628906</ele>
        <time>2018-07-28T09:09:30Z</time>
      </trkpt>
      <trkpt lat="36.6975631713867" lon="-5.0362868309021">
        <ele>1362.21691894531</ele>
        <time>2018-07-28T09:09:31Z</time>
      </trkpt>
      <trkpt lat="36.6975593566894" lon="-5.03629779815674">
        <ele>1362.2431640625</ele>
        <time>2018-07-28T09:09:32Z</time>
      </trkpt>
      <trkpt lat="36.6975555419922" lon="-5.03630781173706">
        <ele>1362.27368164062</ele>
        <time>2018-07-28T09:09:33Z</time>
      </trkpt>
      <trkpt lat="36.6975517272949" lon="-5.0363187789917">
        <ele>1362.30078125</ele>
        <time>2018-07-28T09:09:34Z</time>
      </trkpt>
      <trkpt lat="36.6975479125977" lon="-5.03633117675781">
        <ele>1362.32287597656</ele>
        <time>2018-07-28T09:09:35Z</time>
      </trkpt>
      <trkpt lat="36.6975440979004" lon="-5.03634405136108">
        <ele>1362.34375</ele>
        <time>2018-07-28T09:09:36Z</time>
      </trkpt>
      <trkpt lat="36.6975402832031" lon="-5.03635501861572">
        <ele>1362.37243652344</ele>
        <time>2018-07-28T09:09:37Z</time>
      </trkpt>
      <trkpt lat="36.6975364685059" lon="-5.03636598587036">
        <ele>1362.40161132812</ele>
        <time>2018-07-28T09:09:38Z</time>
      </trkpt>
      <trkpt lat="36.6975364685059" lon="-5.03637599945068">
        <ele>1362.36352539062</ele>
        <time>2018-07-28T09:09:39Z</time>
      </trkpt>
      <trkpt lat="36.6975326538086" lon="-5.03638792037964">
        <ele>1362.38977050781</ele>
        <time>2018-07-28T09:09:40Z</time>
      </trkpt>
      <trkpt lat="36.6975326538086" lon="-5.03639984130859">
        <ele>1362.34460449219</ele>
        <time>2018-07-28T09:09:41Z</time>
      </trkpt>
      <trkpt lat="36.6975326538086" lon="-5.03641414642334">
        <ele>1362.29040527344</ele>
        <time>2018-07-28T09:09:42Z</time>
      </trkpt>
      <trkpt lat="36.6975326538086" lon="-5.03642702102661">
        <ele>1362.24169921875</ele>
        <time>2018-07-28T09:09:43Z</time>
      </trkpt>
      <trkpt lat="36.6975326538086" lon="-5.03643989562988">
        <ele>1362.19287109375</ele>
        <time>2018-07-28T09:09:44Z</time>
      </trkpt>
      <trkpt lat="36.6975326538086" lon="-5.03645181655884">
        <ele>1362.14770507812</ele>
        <time>2018-07-28T09:09:45Z</time>
      </trkpt>
      <trkpt lat="36.6975288391113" lon="-5.03646516799927">
        <ele>1362.17053222656</ele>
        <time>2018-07-28T09:09:46Z</time>
      </trkpt>
      <trkpt lat="36.6975326538086" lon="-5.03647708892822">
        <ele>1362.05200195312</ele>
        <time>2018-07-28T09:09:47Z</time>
      </trkpt>
      <trkpt lat="36.6975364685059" lon="-5.03648710250854">
        <ele>1361.94018554688</ele>
        <time>2018-07-28T09:09:48Z</time>
      </trkpt>
      <trkpt lat="36.6975364685059" lon="-5.03649377822876">
        <ele>1361.91479492188</ele>
        <time>2018-07-28T09:09:49Z</time>
      </trkpt>
      <trkpt lat="36.6975402832031" lon="-5.03649997711182">
        <ele>1361.81701660156</ele>
        <time>2018-07-28T09:09:50Z</time>
      </trkpt>
      <trkpt lat="36.6975402832031" lon="-5.03650903701782">
        <ele>1361.7822265625</ele>
        <time>2018-07-28T09:09:51Z</time>
      </trkpt>
      <trkpt lat="36.6975402832031" lon="-5.03652095794678">
        <ele>1361.73657226562</ele>
        <time>2018-07-28T09:09:52Z</time>
      </trkpt>
      <trkpt lat="36.6975402832031" lon="-5.03653287887573">
        <ele>1361.69091796875</ele>
        <time>2018-07-28T09:09:53Z</time>
      </trkpt>
      <trkpt lat="36.6975402832031" lon="-5.03654479980469">
        <ele>1361.64526367188</ele>
        <time>2018-07-28T09:09:54Z</time>
      </trkpt>
      <trkpt lat="36.6975402832031" lon="-5.03655576705933">
        <ele>1361.60314941406</ele>
        <time>2018-07-28T09:09:55Z</time>
      </trkpt>
      <trkpt lat="36.6975402832031" lon="-5.03657007217407">
        <ele>1361.54833984375</ele>
        <time>2018-07-28T09:09:56Z</time>
      </trkpt>
      <trkpt lat="36.6975402832031" lon="-5.03658390045166">
        <ele>1361.49536132812</ele>
        <time>2018-07-28T09:09:57Z</time>
      </trkpt>
      <trkpt lat="36.6975402832031" lon="-5.03659915924072">
        <ele>1361.43688964844</ele>
        <time>2018-07-28T09:09:58Z</time>
      </trkpt>
      <trkpt lat="36.6975440979004" lon="-5.03661298751831">
        <ele>1361.30725097656</ele>
        <time>2018-07-28T09:09:59Z</time>
      </trkpt>
      <trkpt lat="36.6975440979004" lon="-5.03662586212158">
        <ele>1361.25769042969</ele>
        <time>2018-07-28T09:10:00Z</time>
      </trkpt>
      <trkpt lat="36.6975440979004" lon="-5.03663778305054">
        <ele>1361.21166992188</ele>
        <time>2018-07-28T09:10:01Z</time>
      </trkpt>
      <trkpt lat="36.6975479125977" lon="-5.03664922714233">
        <ele>1361.09020996094</ele>
        <time>2018-07-28T09:10:02Z</time>
      </trkpt>
      <trkpt lat="36.6975479125977" lon="-5.03666114807129">
        <ele>1361.0439453125</ele>
        <time>2018-07-28T09:10:03Z</time>
      </trkpt>
      <trkpt lat="36.6975479125977" lon="-5.03667402267456">
        <ele>1360.98315429688</ele>
        <time>2018-07-28T09:10:04Z</time>
      </trkpt>
      <trkpt lat="36.6975517272949" lon="-5.03668689727783">
        <ele>1360.83557128906</ele>
        <time>2018-07-28T09:10:05Z</time>
      </trkpt>
      <trkpt lat="36.6975517272949" lon="-5.03670215606689">
        <ele>1360.75329589844</ele>
        <time>2018-07-28T09:10:06Z</time>
      </trkpt>
      <trkpt lat="36.6975517272949" lon="-5.0367169380188">
        <ele>1360.67346191406</ele>
        <time>2018-07-28T09:10:07Z</time>
      </trkpt>
      <trkpt lat="36.6975517272949" lon="-5.03673219680786">
        <ele>1360.59118652344</ele>
        <time>2018-07-28T09:10:08Z</time>
      </trkpt>
      <trkpt lat="36.6975517272949" lon="-5.03674793243408">
        <ele>1360.50622558594</ele>
        <time>2018-07-28T09:10:09Z</time>
      </trkpt>
      <trkpt lat="36.6975517272949" lon="-5.03676223754883">
        <ele>1360.42907714844</ele>
        <time>2018-07-28T09:10:10Z</time>
      </trkpt>
      <trkpt lat="36.6975517272949" lon="-5.03677415847778">
        <ele>1360.36474609375</ele>
        <time>2018-07-28T09:10:11Z</time>
      </trkpt>
      <trkpt lat="36.6975517272949" lon="-5.03678703308106">
        <ele>1360.29528808594</ele>
        <time>2018-07-28T09:10:12Z</time>
      </trkpt>
      <trkpt lat="36.6975479125977" lon="-5.03680086135864">
        <ele>1360.30432128906</ele>
        <time>2018-07-28T09:10:13Z</time>
      </trkpt>
      <trkpt lat="36.6975440979004" lon="-5.0368161201477">
        <ele>1360.30712890625</ele>
        <time>2018-07-28T09:10:14Z</time>
      </trkpt>
      <trkpt lat="36.6975440979004" lon="-5.03683090209961">
        <ele>1360.22863769531</ele>
        <time>2018-07-28T09:10:15Z</time>
      </trkpt>
      <trkpt lat="36.6975402832031" lon="-5.03684377670288">
        <ele>1360.24584960938</ele>
        <time>2018-07-28T09:10:16Z</time>
      </trkpt>
      <trkpt lat="36.6975364685059" lon="-5.03685712814331">
        <ele>1360.26184082031</ele>
        <time>2018-07-28T09:10:17Z</time>
      </trkpt>
      <trkpt lat="36.6975364685059" lon="-5.03686904907227">
        <ele>1360.19958496094</ele>
        <time>2018-07-28T09:10:18Z</time>
      </trkpt>
      <trkpt lat="36.6975326538086" lon="-5.03688192367554">
        <ele>1360.21960449219</ele>
        <time>2018-07-28T09:10:19Z</time>
      </trkpt>
      <trkpt lat="36.6975326538086" lon="-5.03689622879028">
        <ele>1360.14562988281</ele>
        <time>2018-07-28T09:10:20Z</time>
      </trkpt>
      <trkpt lat="36.6975288391113" lon="-5.03691005706787">
        <ele>1360.16259765625</ele>
        <time>2018-07-28T09:10:21Z</time>
      </trkpt>
      <trkpt lat="36.6975288391113" lon="-5.03692388534546">
        <ele>1360.09155273438</ele>
        <time>2018-07-28T09:10:22Z</time>
      </trkpt>
      <trkpt lat="36.6975288391113" lon="-5.03693580627441">
        <ele>1360.03039550781</ele>
        <time>2018-07-28T09:10:23Z</time>
      </trkpt>
      <trkpt lat="36.6975250244141" lon="-5.03694915771484">
        <ele>1360.05212402344</ele>
        <time>2018-07-28T09:10:24Z</time>
      </trkpt>
      <trkpt lat="36.6975250244141" lon="-5.03696203231812">
        <ele>1359.98657226562</ele>
        <time>2018-07-28T09:10:25Z</time>
      </trkpt>
      <trkpt lat="36.6975250244141" lon="-5.03697395324707">
        <ele>1359.92590332031</ele>
        <time>2018-07-28T09:10:26Z</time>
      </trkpt>
      <trkpt lat="36.6975250244141" lon="-5.03698682785034">
        <ele>1359.86047363281</ele>
        <time>2018-07-28T09:10:27Z</time>
      </trkpt>
      <trkpt lat="36.6975250244141" lon="-5.03699922561646">
        <ele>1359.79736328125</ele>
        <time>2018-07-28T09:10:28Z</time>
      </trkpt>
      <trkpt lat="36.6975212097168" lon="-5.03701305389404">
        <ele>1359.82006835938</ele>
        <time>2018-07-28T09:10:29Z</time>
      </trkpt>
      <trkpt lat="36.6975212097168" lon="-5.03702878952026">
        <ele>1359.74060058594</ele>
        <time>2018-07-28T09:10:30Z</time>
      </trkpt>
      <trkpt lat="36.6975212097168" lon="-5.03704404830933">
        <ele>1359.66369628906</ele>
        <time>2018-07-28T09:10:31Z</time>
      </trkpt>
      <trkpt lat="36.6975212097168" lon="-5.03705883026123">
        <ele>1359.58911132812</ele>
        <time>2018-07-28T09:10:32Z</time>
      </trkpt>
      <trkpt lat="36.6975212097168" lon="-5.03707218170166">
        <ele>1359.52172851562</ele>
        <time>2018-07-28T09:10:33Z</time>
      </trkpt>
      <trkpt lat="36.6975250244141" lon="-5.03708505630493">
        <ele>1359.36059570312</ele>
        <time>2018-07-28T09:10:34Z</time>
      </trkpt>
      <trkpt lat="36.6975288391113" lon="-5.03709888458252">
        <ele>1359.19348144531</ele>
        <time>2018-07-28T09:10:35Z</time>
      </trkpt>
      <trkpt lat="36.6975288391113" lon="-5.03711414337158">
        <ele>1359.11511230469</ele>
        <time>2018-07-28T09:10:36Z</time>
      </trkpt>
      <trkpt lat="36.6975288391113" lon="-5.03712892532349">
        <ele>1359.03930664062</ele>
        <time>2018-07-28T09:10:37Z</time>
      </trkpt>
      <trkpt lat="36.6975326538086" lon="-5.03714418411255">
        <ele>1358.86218261719</ele>
        <time>2018-07-28T09:10:38Z</time>
      </trkpt>
      <trkpt lat="36.6975326538086" lon="-5.03715801239014">
        <ele>1358.79052734375</ele>
        <time>2018-07-28T09:10:39Z</time>
      </trkpt>
      <trkpt lat="36.6975326538086" lon="-5.03717279434204">
        <ele>1358.71411132812</ele>
        <time>2018-07-28T09:10:40Z</time>
      </trkpt>
      <trkpt lat="36.6975326538086" lon="-5.03718709945679">
        <ele>1358.64001464844</ele>
        <time>2018-07-28T09:10:41Z</time>
      </trkpt>
      <trkpt lat="36.6975326538086" lon="-5.03720188140869">
        <ele>1358.5634765625</ele>
        <time>2018-07-28T09:10:42Z</time>
      </trkpt>
      <trkpt lat="36.6975326538086" lon="-5.03721714019775">
        <ele>1358.48449707031</ele>
        <time>2018-07-28T09:10:43Z</time>
      </trkpt>
      <trkpt lat="36.6975326538086" lon="-5.03723192214966">
        <ele>1358.40795898438</ele>
        <time>2018-07-28T09:10:44Z</time>
      </trkpt>
      <trkpt lat="36.6975364685059" lon="-5.03724718093872">
        <ele>1358.22570800781</ele>
        <time>2018-07-28T09:10:45Z</time>
      </trkpt>
      <trkpt lat="36.6975364685059" lon="-5.03726100921631">
        <ele>1358.15356445312</ele>
        <time>2018-07-28T09:10:46Z</time>
      </trkpt>
      <trkpt lat="36.6975364685059" lon="-5.03727579116821">
        <ele>1358.07629394531</ele>
        <time>2018-07-28T09:10:47Z</time>
      </trkpt>
      <trkpt lat="36.6975364685059" lon="-5.03728818893433">
        <ele>1358.01159667969</ele>
        <time>2018-07-28T09:10:48Z</time>
      </trkpt>
      <trkpt lat="36.6975364685059" lon="-5.03729581832886">
        <ele>1357.97180175781</ele>
        <time>2018-07-28T09:10:49Z</time>
      </trkpt>
      <trkpt lat="36.6975364685059" lon="-5.03729820251465">
        <ele>1357.95935058594</ele>
        <time>2018-07-28T09:10:50Z</time>
      </trkpt>
      <trkpt lat="36.6975364685059" lon="-5.03729915618896">
        <ele>1357.95434570312</ele>
        <time>2018-07-28T09:10:51Z</time>
      </trkpt>
      <trkpt lat="36.6975326538086" lon="-5.03730201721191">
        <ele>1358.04516601562</ele>
        <time>2018-07-28T09:10:52Z</time>
      </trkpt>
      <trkpt lat="36.6975326538086" lon="-5.03730821609497">
        <ele>1358.01306152344</ele>
        <time>2018-07-28T09:10:53Z</time>
      </trkpt>
      <trkpt lat="36.6975288391113" lon="-5.0373158454895">
        <ele>1358.07995605469</ele>
        <time>2018-07-28T09:10:54Z</time>
      </trkpt>
      <trkpt lat="36.6975288391113" lon="-5.03732776641846">
        <ele>1358.01879882812</ele>
        <time>2018-07-28T09:10:55Z</time>
      </trkpt>
      <trkpt lat="36.6975250244141" lon="-5.03734111785889">
        <ele>1358.05773925781</ele>
        <time>2018-07-28T09:10:56Z</time>
      </trkpt>
      <trkpt lat="36.6975250244141" lon="-5.03735494613647">
        <ele>1357.9873046875</ele>
        <time>2018-07-28T09:10:57Z</time>
      </trkpt>
      <trkpt lat="36.6975212097168" lon="-5.03736877441406">
        <ele>1358.02563476562</ele>
        <time>2018-07-28T09:10:58Z</time>
      </trkpt>
      <trkpt lat="36.6975173950195" lon="-5.03738307952881">
        <ele>1358.06274414062</ele>
        <time>2018-07-28T09:10:59Z</time>
      </trkpt>
      <trkpt lat="36.6975173950195" lon="-5.0373969078064">
        <ele>1357.99365234375</ele>
        <time>2018-07-28T09:11:00Z</time>
      </trkpt>
      <trkpt lat="36.6975135803223" lon="-5.03741121292114">
        <ele>1358.03271484375</ele>
        <time>2018-07-28T09:11:01Z</time>
      </trkpt>
      <trkpt lat="36.697509765625" lon="-5.03742408752441">
        <ele>1358.07995605469</ele>
        <time>2018-07-28T09:11:02Z</time>
      </trkpt>
      <trkpt lat="36.6975059509277" lon="-5.037437915802">
        <ele>1358.12377929688</ele>
        <time>2018-07-28T09:11:03Z</time>
      </trkpt>
      <trkpt lat="36.6975021362305" lon="-5.03745079040527">
        <ele>1358.17333984375</ele>
        <time>2018-07-28T09:11:04Z</time>
      </trkpt>
      <trkpt lat="36.6974945068359" lon="-5.03746509552002">
        <ele>1358.18981933594</ele>
        <time>2018-07-28T09:11:05Z</time>
      </trkpt>
      <trkpt lat="36.6974906921387" lon="-5.03747701644897">
        <ele>1358.14660644531</ele>
        <time>2018-07-28T09:11:06Z</time>
      </trkpt>
      <trkpt lat="36.6974868774414" lon="-5.03748989105225">
        <ele>1358.09753417969</ele>
        <time>2018-07-28T09:11:07Z</time>
      </trkpt>
      <trkpt lat="36.6974868774414" lon="-5.03749799728394">
        <ele>1358.05725097656</ele>
        <time>2018-07-28T09:11:08Z</time>
      </trkpt>
      <trkpt lat="36.6974868774414" lon="-5.03750085830688">
        <ele>1358.03076171875</ele>
        <time>2018-07-28T09:11:09Z</time>
      </trkpt>
      <trkpt lat="36.6974868774414" lon="-5.03749895095825">
        <ele>1358.05249023438</ele>
        <time>2018-07-28T09:11:10Z</time>
      </trkpt>
      <trkpt lat="36.6974868774414" lon="-5.03749799728394">
        <ele>1358.05725097656</ele>
        <time>2018-07-28T09:11:11Z</time>
      </trkpt>
      <trkpt lat="36.6974868774414" lon="-5.03749799728394">
        <ele>1358.05725097656</ele>
        <time>2018-07-28T09:11:12Z</time>
      </trkpt>
      <trkpt lat="36.6974830627441" lon="-5.03749799728394">
        <ele>1358.07104492188</ele>
        <time>2018-07-28T09:11:13Z</time>
      </trkpt>
      <trkpt lat="36.6974792480469" lon="-5.0375018119812">
        <ele>1358.0400390625</ele>
        <time>2018-07-28T09:11:14Z</time>
      </trkpt>
      <trkpt lat="36.6974754333496" lon="-5.03750896453857">
        <ele>1357.91723632812</ele>
        <time>2018-07-28T09:11:15Z</time>
      </trkpt>
      <trkpt lat="36.6974716186523" lon="-5.03751993179321">
        <ele>1357.72192382812</ele>
        <time>2018-07-28T09:11:16Z</time>
      </trkpt>
      <trkpt lat="36.6974678039551" lon="-5.03753280639648">
        <ele>1357.49060058594</ele>
        <time>2018-07-28T09:11:17Z</time>
      </trkpt>
      <trkpt lat="36.6974639892578" lon="-5.03754615783691">
        <ele>1357.25061035156</ele>
        <time>2018-07-28T09:11:18Z</time>
      </trkpt>
      <trkpt lat="36.6974601745606" lon="-5.03755903244019">
        <ele>1357.02014160156</ele>
        <time>2018-07-28T09:11:19Z</time>
      </trkpt>
      <trkpt lat="36.6974563598633" lon="-5.03757286071777">
        <ele>1356.77197265625</ele>
        <time>2018-07-28T09:11:20Z</time>
      </trkpt>
      <trkpt lat="36.697452545166" lon="-5.03758716583252">
        <ele>1356.51513671875</ele>
        <time>2018-07-28T09:11:21Z</time>
      </trkpt>
      <trkpt lat="36.6974449157715" lon="-5.03760004043579">
        <ele>1356.30139160156</ele>
        <time>2018-07-28T09:11:22Z</time>
      </trkpt>
      <trkpt lat="36.6974411010742" lon="-5.03761291503906">
        <ele>1356.07275390625</ele>
        <time>2018-07-28T09:11:23Z</time>
      </trkpt>
      <trkpt lat="36.6974411010742" lon="-5.03762578964233">
        <ele>1355.82885742188</ele>
        <time>2018-07-28T09:11:24Z</time>
      </trkpt>
      <trkpt lat="36.6974411010742" lon="-5.0376410484314">
        <ele>1355.53979492188</ele>
        <time>2018-07-28T09:11:25Z</time>
      </trkpt>
      <trkpt lat="36.697437286377" lon="-5.0376558303833">
        <ele>1355.27600097656</ele>
        <time>2018-07-28T09:11:26Z</time>
      </trkpt>
      <trkpt lat="36.6974334716797" lon="-5.037672996521">
        <ele>1354.96765136719</ele>
        <time>2018-07-28T09:11:27Z</time>
      </trkpt>
      <trkpt lat="36.6974296569824" lon="-5.0376877784729">
        <ele>1354.70495605469</ele>
        <time>2018-07-28T09:11:28Z</time>
      </trkpt>
      <trkpt lat="36.6974258422852" lon="-5.03770303726196">
        <ele>1354.43371582031</ele>
        <time>2018-07-28T09:11:29Z</time>
      </trkpt>
      <trkpt lat="36.6974258422852" lon="-5.03771781921387">
        <ele>1354.15466308594</ele>
        <time>2018-07-28T09:11:30Z</time>
      </trkpt>
      <trkpt lat="36.6974220275879" lon="-5.0377311706543">
        <ele>1353.92004394531</ele>
        <time>2018-07-28T09:11:31Z</time>
      </trkpt>
      <trkpt lat="36.6974220275879" lon="-5.03774499893188">
        <ele>1353.65930175781</ele>
        <time>2018-07-28T09:11:32Z</time>
      </trkpt>
      <trkpt lat="36.6974182128906" lon="-5.03775787353516">
        <ele>1353.43432617188</ele>
        <time>2018-07-28T09:11:33Z</time>
      </trkpt>
      <trkpt lat="36.6974105834961" lon="-5.03777122497559">
        <ele>1353.21911621094</ele>
        <time>2018-07-28T09:11:34Z</time>
      </trkpt>
      <trkpt lat="36.6974067687988" lon="-5.03778076171875">
        <ele>1353.05810546875</ele>
        <time>2018-07-28T09:11:35Z</time>
      </trkpt>
      <trkpt lat="36.6973991394043" lon="-5.03779077529907">
        <ele>1352.90686035156</ele>
        <time>2018-07-28T09:11:36Z</time>
      </trkpt>
      <trkpt lat="36.6973915100098" lon="-5.03779983520508">
        <ele>1352.77429199219</ele>
        <time>2018-07-28T09:11:37Z</time>
      </trkpt>
      <trkpt lat="36.6973838806152" lon="-5.03781080245972">
        <ele>1352.60656738281</ele>
        <time>2018-07-28T09:11:38Z</time>
      </trkpt>
      <trkpt lat="36.697380065918" lon="-5.03782176971436">
        <ele>1352.42053222656</ele>
        <time>2018-07-28T09:11:39Z</time>
      </trkpt>
      <trkpt lat="36.6973724365234" lon="-5.03783178329468">
        <ele>1352.27185058594</ele>
        <time>2018-07-28T09:11:40Z</time>
      </trkpt>
      <trkpt lat="36.6973724365234" lon="-5.03783988952637">
        <ele>1352.12060546875</ele>
        <time>2018-07-28T09:11:41Z</time>
      </trkpt>
      <trkpt lat="36.6973686218262" lon="-5.03784704208374">
        <ele>1352.00671386719</ele>
        <time>2018-07-28T09:11:42Z</time>
      </trkpt>
      <trkpt lat="36.6973648071289" lon="-5.03785181045532">
        <ele>1351.93737792969</ele>
        <time>2018-07-28T09:11:43Z</time>
      </trkpt>
      <trkpt lat="36.6973609924316" lon="-5.0378589630127">
        <ele>1351.82385253906</ele>
        <time>2018-07-28T09:11:44Z</time>
      </trkpt>
      <trkpt lat="36.6973571777344" lon="-5.0378680229187">
        <ele>1351.67517089844</ele>
        <time>2018-07-28T09:11:45Z</time>
      </trkpt>
      <trkpt lat="36.6973533630371" lon="-5.03787994384766">
        <ele>1351.4736328125</ele>
        <time>2018-07-28T09:11:46Z</time>
      </trkpt>
      <trkpt lat="36.6973495483398" lon="-5.03788995742798">
        <ele>1351.30786132812</ele>
        <time>2018-07-28T09:11:47Z</time>
      </trkpt>
      <trkpt lat="36.6973457336426" lon="-5.0378999710083">
        <ele>1351.14245605469</ele>
        <time>2018-07-28T09:11:48Z</time>
      </trkpt>
      <trkpt lat="36.6973419189453" lon="-5.03791093826294">
        <ele>1350.95971679688</ele>
        <time>2018-07-28T09:11:49Z</time>
      </trkpt>
      <trkpt lat="36.697338104248" lon="-5.03792190551758">
        <ele>1350.77734375</ele>
        <time>2018-07-28T09:11:50Z</time>
      </trkpt>
      <trkpt lat="36.6973342895508" lon="-5.03792810440064">
        <ele>1350.68347167969</ele>
        <time>2018-07-28T09:11:51Z</time>
      </trkpt>
      <trkpt lat="36.6973304748535" lon="-5.03792905807495">
        <ele>1350.68664550781</ele>
        <time>2018-07-28T09:11:52Z</time>
      </trkpt>
      <trkpt lat="36.6973266601562" lon="-5.03792810440064">
        <ele>1350.72497558594</ele>
        <time>2018-07-28T09:11:53Z</time>
      </trkpt>
      <trkpt lat="36.697322845459" lon="-5.03793001174927">
        <ele>1350.71057128906</ele>
        <time>2018-07-28T09:11:54Z</time>
      </trkpt>
      <trkpt lat="36.6973190307617" lon="-5.03793621063232">
        <ele>1350.61730957031</ele>
        <time>2018-07-28T09:11:55Z</time>
      </trkpt>
      <trkpt lat="36.6973114013672" lon="-5.03794717788696">
        <ele>1350.45751953125</ele>
        <time>2018-07-28T09:11:56Z</time>
      </trkpt>
      <trkpt lat="36.6973075866699" lon="-5.03795909881592">
        <ele>1350.25964355469</ele>
        <time>2018-07-28T09:11:57Z</time>
      </trkpt>
      <trkpt lat="36.6972999572754" lon="-5.03797101974487">
        <ele>1350.08361816406</ele>
        <time>2018-07-28T09:11:58Z</time>
      </trkpt>
      <trkpt lat="36.6972923278809" lon="-5.03798389434814">
        <ele>1349.89099121094</ele>
        <time>2018-07-28T09:11:59Z</time>
      </trkpt>
      <trkpt lat="36.6972885131836" lon="-5.03799676895142">
        <ele>1349.67724609375</ele>
        <time>2018-07-28T09:12:00Z</time>
      </trkpt>
      <trkpt lat="36.6972846984863" lon="-5.03801107406616">
        <ele>1349.43786621094</ele>
        <time>2018-07-28T09:12:01Z</time>
      </trkpt>
      <trkpt lat="36.6972846984863" lon="-5.03802490234375">
        <ele>1349.18518066406</ele>
        <time>2018-07-28T09:12:02Z</time>
      </trkpt>
      <trkpt lat="36.6972770690918" lon="-5.0380392074585">
        <ele>1348.96911621094</ele>
        <time>2018-07-28T09:12:03Z</time>
      </trkpt>
      <trkpt lat="36.6972732543945" lon="-5.03805303573608">
        <ele>1348.73974609375</ele>
        <time>2018-07-28T09:12:04Z</time>
      </trkpt>
      <trkpt lat="36.6972694396973" lon="-5.03806686401367">
        <ele>1348.51086425781</ele>
        <time>2018-07-28T09:12:05Z</time>
      </trkpt>
      <trkpt lat="36.697265625" lon="-5.0380802154541">
        <ele>1348.29113769531</ele>
        <time>2018-07-28T09:12:06Z</time>
      </trkpt>
      <trkpt lat="36.6972618103027" lon="-5.03809309005737">
        <ele>1348.08044433594</ele>
        <time>2018-07-28T09:12:07Z</time>
      </trkpt>
      <trkpt lat="36.6972541809082" lon="-5.03810596466064">
        <ele>1347.89392089844</ele>
        <time>2018-07-28T09:12:08Z</time>
      </trkpt>
      <trkpt lat="36.6972541809082" lon="-5.0381178855896">
        <ele>1347.677734375</ele>
        <time>2018-07-28T09:12:09Z</time>
      </trkpt>
      <trkpt lat="36.6972503662109" lon="-5.03812885284424">
        <ele>1347.5029296875</ele>
        <time>2018-07-28T09:12:10Z</time>
      </trkpt>
      <trkpt lat="36.6972465515137" lon="-5.03813886642456">
        <ele>1347.345703125</ele>
        <time>2018-07-28T09:12:11Z</time>
      </trkpt>
      <trkpt lat="36.6972427368164" lon="-5.03814888000488">
        <ele>1347.18884277344</ele>
        <time>2018-07-28T09:12:12Z</time>
      </trkpt>
      <trkpt lat="36.6972389221191" lon="-5.0381588935852">
        <ele>1347.0322265625</ele>
        <time>2018-07-28T09:12:13Z</time>
      </trkpt>
      <trkpt lat="36.6972351074219" lon="-5.03816890716553">
        <ele>1346.87609863281</ele>
        <time>2018-07-28T09:12:14Z</time>
      </trkpt>
      <trkpt lat="36.6972312927246" lon="-5.03817987442017">
        <ele>1346.70300292969</ele>
        <time>2018-07-28T09:12:15Z</time>
      </trkpt>
      <trkpt lat="36.6972274780273" lon="-5.03819179534912">
        <ele>1346.51306152344</ele>
        <time>2018-07-28T09:12:16Z</time>
      </trkpt>
      <trkpt lat="36.6972236633301" lon="-5.03820610046387">
        <ele>1346.28063964844</ele>
        <time>2018-07-28T09:12:17Z</time>
      </trkpt>
      <trkpt lat="36.6972236633301" lon="-5.03821992874146">
        <ele>1346.03161621094</ele>
        <time>2018-07-28T09:12:18Z</time>
      </trkpt>
      <trkpt lat="36.6972198486328" lon="-5.0382342338562">
        <ele>1345.7998046875</ele>
        <time>2018-07-28T09:12:19Z</time>
      </trkpt>
      <trkpt lat="36.6972160339356" lon="-5.03824806213379">
        <ele>1345.5771484375</ele>
        <time>2018-07-28T09:12:20Z</time>
      </trkpt>
      <trkpt lat="36.6972160339356" lon="-5.03826189041138">
        <ele>1345.32861328125</ele>
        <time>2018-07-28T09:12:21Z</time>
      </trkpt>
      <trkpt lat="36.6972122192383" lon="-5.03827476501465">
        <ele>1345.12377929688</ele>
        <time>2018-07-28T09:12:22Z</time>
      </trkpt>
      <trkpt lat="36.6972122192383" lon="-5.03828811645508">
        <ele>1344.88391113281</ele>
        <time>2018-07-28T09:12:23Z</time>
      </trkpt>
      <trkpt lat="36.6972122192383" lon="-5.03830099105835">
        <ele>1344.65283203125</ele>
        <time>2018-07-28T09:12:24Z</time>
      </trkpt>
      <trkpt lat="36.697208404541" lon="-5.03831481933594">
        <ele>1344.431640625</ele>
        <time>2018-07-28T09:12:25Z</time>
      </trkpt>
      <trkpt lat="36.697208404541" lon="-5.03832817077637">
        <ele>1344.19213867188</ele>
        <time>2018-07-28T09:12:26Z</time>
      </trkpt>
      <trkpt lat="36.6972045898438" lon="-5.03834199905396">
        <ele>1344.04309082031</ele>
        <time>2018-07-28T09:12:27Z</time>
      </trkpt>
      <trkpt lat="36.6972045898438" lon="-5.03835678100586">
        <ele>1343.90002441406</ele>
        <time>2018-07-28T09:12:28Z</time>
      </trkpt>
      <trkpt lat="36.697208404541" lon="-5.03837299346924">
        <ele>1343.71643066406</ele>
        <time>2018-07-28T09:12:29Z</time>
      </trkpt>
      <trkpt lat="36.697208404541" lon="-5.03838777542114">
        <ele>1343.57360839844</ele>
        <time>2018-07-28T09:12:30Z</time>
      </trkpt>
      <trkpt lat="36.697208404541" lon="-5.03840208053589">
        <ele>1343.43542480469</ele>
        <time>2018-07-28T09:12:31Z</time>
      </trkpt>
      <trkpt lat="36.6972045898438" lon="-5.03841876983643">
        <ele>1343.30029296875</ele>
        <time>2018-07-28T09:12:32Z</time>
      </trkpt>
      <trkpt lat="36.6972045898438" lon="-5.03843402862549">
        <ele>1343.15258789062</ele>
        <time>2018-07-28T09:12:33Z</time>
      </trkpt>
      <trkpt lat="36.6972045898438" lon="-5.03844976425171">
        <ele>1343.00036621094</ele>
        <time>2018-07-28T09:12:34Z</time>
      </trkpt>
      <trkpt lat="36.6972045898438" lon="-5.03846311569214">
        <ele>1342.87121582031</ele>
        <time>2018-07-28T09:12:35Z</time>
      </trkpt>
      <trkpt lat="36.6972045898438" lon="-5.03847694396973">
        <ele>1342.7373046875</ele>
        <time>2018-07-28T09:12:36Z</time>
      </trkpt>
      <trkpt lat="36.6972007751465" lon="-5.038489818573">
        <ele>1342.6376953125</ele>
        <time>2018-07-28T09:12:37Z</time>
      </trkpt>
      <trkpt lat="36.6972007751465" lon="-5.03850317001343">
        <ele>1342.50830078125</ele>
        <time>2018-07-28T09:12:38Z</time>
      </trkpt>
      <trkpt lat="36.6972007751465" lon="-5.03851509094238">
        <ele>1342.39270019531</ele>
        <time>2018-07-28T09:12:39Z</time>
      </trkpt>
      <trkpt lat="36.6972007751465" lon="-5.03852796554565">
        <ele>1342.26794433594</ele>
        <time>2018-07-28T09:12:40Z</time>
      </trkpt>
      <trkpt lat="36.6971969604492" lon="-5.03854322433472">
        <ele>1342.14404296875</ele>
        <time>2018-07-28T09:12:41Z</time>
      </trkpt>
      <trkpt lat="36.6971969604492" lon="-5.03855800628662">
        <ele>1342.00048828125</ele>
        <time>2018-07-28T09:12:42Z</time>
      </trkpt>
      <trkpt lat="36.697193145752" lon="-5.03857278823853">
        <ele>1341.88049316406</ele>
        <time>2018-07-28T09:12:43Z</time>
      </trkpt>
      <trkpt lat="36.697193145752" lon="-5.03858709335327">
        <ele>1341.74133300781</ele>
        <time>2018-07-28T09:12:44Z</time>
      </trkpt>
      <trkpt lat="36.6971893310547" lon="-5.03859996795654">
        <ele>1341.63928222656</ele>
        <time>2018-07-28T09:12:45Z</time>
      </trkpt>
      <trkpt lat="36.6971893310547" lon="-5.03861284255981">
        <ele>1341.51379394531</ele>
        <time>2018-07-28T09:12:46Z</time>
      </trkpt>
      <trkpt lat="36.6971893310547" lon="-5.03862476348877">
        <ele>1341.39770507812</ele>
        <time>2018-07-28T09:12:47Z</time>
      </trkpt>
      <trkpt lat="36.6971855163574" lon="-5.0386381149292">
        <ele>1341.2900390625</ele>
        <time>2018-07-28T09:12:48Z</time>
      </trkpt>
      <trkpt lat="36.6971817016602" lon="-5.03865098953247">
        <ele>1341.18664550781</ele>
        <time>2018-07-28T09:12:49Z</time>
      </trkpt>
      <trkpt lat="36.6971778869629" lon="-5.03866386413574">
        <ele>1341.08276367188</ele>
        <time>2018-07-28T09:12:50Z</time>
      </trkpt>
      <trkpt lat="36.6971740722656" lon="-5.03867387771606">
        <ele>1341.00659179688</ele>
        <time>2018-07-28T09:12:51Z</time>
      </trkpt>
      <trkpt lat="36.6971740722656" lon="-5.03868579864502">
        <ele>1340.8896484375</ele>
        <time>2018-07-28T09:12:52Z</time>
      </trkpt>
      <trkpt lat="36.6971702575684" lon="-5.03869915008545">
        <ele>1340.78015136719</ele>
        <time>2018-07-28T09:12:53Z</time>
      </trkpt>
      <trkpt lat="36.6971664428711" lon="-5.03871393203735">
        <ele>1340.65612792969</ele>
        <time>2018-07-28T09:12:54Z</time>
      </trkpt>
      <trkpt lat="36.6971664428711" lon="-5.03872585296631">
        <ele>1340.53881835938</ele>
        <time>2018-07-28T09:12:55Z</time>
      </trkpt>
      <trkpt lat="36.6971626281738" lon="-5.03873920440674">
        <ele>1340.42822265625</ele>
        <time>2018-07-28T09:12:56Z</time>
      </trkpt>
      <trkpt lat="36.6971626281738" lon="-5.03875207901001">
        <ele>1340.30126953125</ele>
        <time>2018-07-28T09:12:57Z</time>
      </trkpt>
      <trkpt lat="36.6971588134766" lon="-5.03876686096191">
        <ele>1340.17590332031</ele>
        <time>2018-07-28T09:12:58Z</time>
      </trkpt>
      <trkpt lat="36.6971588134766" lon="-5.03878307342529">
        <ele>1340.01586914062</ele>
        <time>2018-07-28T09:12:59Z</time>
      </trkpt>
      <trkpt lat="36.697151184082" lon="-5.0387978553772">
        <ele>1339.90954589844</ele>
        <time>2018-07-28T09:13:00Z</time>
      </trkpt>
      <trkpt lat="36.697151184082" lon="-5.03881120681763">
        <ele>1339.77722167969</ele>
        <time>2018-07-28T09:13:01Z</time>
      </trkpt>
      <trkpt lat="36.6971473693848" lon="-5.03882503509522">
        <ele>1339.65954589844</ele>
        <time>2018-07-28T09:13:02Z</time>
      </trkpt>
      <trkpt lat="36.6971435546875" lon="-5.0388388633728">
        <ele>1339.54150390625</ele>
        <time>2018-07-28T09:13:03Z</time>
      </trkpt>
      <trkpt lat="36.6971397399902" lon="-5.03885412216186">
        <ele>1339.40869140625</ele>
        <time>2018-07-28T09:13:04Z</time>
      </trkpt>
      <trkpt lat="36.697135925293" lon="-5.03886890411377">
        <ele>1339.28015136719</ele>
        <time>2018-07-28T09:13:05Z</time>
      </trkpt>
      <trkpt lat="36.6971321105957" lon="-5.03888320922852">
        <ele>1339.15588378906</ele>
        <time>2018-07-28T09:13:06Z</time>
      </trkpt>
      <trkpt lat="36.6971321105957" lon="-5.03889608383179">
        <ele>1339.02734375</ele>
        <time>2018-07-28T09:13:07Z</time>
      </trkpt>
      <trkpt lat="36.6971282958984" lon="-5.03890895843506">
        <ele>1338.91674804688</ele>
        <time>2018-07-28T09:13:08Z</time>
      </trkpt>
      <trkpt lat="36.6971244812012" lon="-5.03892087936401">
        <ele>1338.81518554688</ele>
        <time>2018-07-28T09:13:09Z</time>
      </trkpt>
      <trkpt lat="36.6971244812012" lon="-5.03893280029297">
        <ele>1338.69567871094</ele>
        <time>2018-07-28T09:13:10Z</time>
      </trkpt>
      <trkpt lat="36.6971168518066" lon="-5.0389461517334">
        <ele>1338.5966796875</ele>
        <time>2018-07-28T09:13:11Z</time>
      </trkpt>
      <trkpt lat="36.6971130371094" lon="-5.0389609336853">
        <ele>1338.46508789062</ele>
        <time>2018-07-28T09:13:12Z</time>
      </trkpt>
      <trkpt lat="36.6971092224121" lon="-5.03897714614868">
        <ele>1338.31872558594</ele>
        <time>2018-07-28T09:13:13Z</time>
      </trkpt>
      <trkpt lat="36.6971054077148" lon="-5.0389928817749">
        <ele>1338.17651367188</ele>
        <time>2018-07-28T09:13:14Z</time>
      </trkpt>
      <trkpt lat="36.6971015930176" lon="-5.03900909423828">
        <ele>1338.02905273438</ele>
        <time>2018-07-28T09:13:15Z</time>
      </trkpt>
      <trkpt lat="36.6970977783203" lon="-5.0390248298645">
        <ele>1337.88586425781</ele>
        <time>2018-07-28T09:13:16Z</time>
      </trkpt>
      <trkpt lat="36.697093963623" lon="-5.03904104232788">
        <ele>1337.7373046875</ele>
        <time>2018-07-28T09:13:17Z</time>
      </trkpt>
      <trkpt lat="36.6970901489258" lon="-5.03905391693115">
        <ele>1337.62219238281</ele>
        <time>2018-07-28T09:13:18Z</time>
      </trkpt>
      <trkpt lat="36.6970825195312" lon="-5.0390682220459">
        <ele>1337.50744628906</ele>
        <time>2018-07-28T09:13:19Z</time>
      </trkpt>
      <trkpt lat="36.697078704834" lon="-5.03908109664917">
        <ele>1337.39123535156</ele>
        <time>2018-07-28T09:13:20Z</time>
      </trkpt>
      <trkpt lat="36.6970748901367" lon="-5.03909587860107">
        <ele>1337.25500488281</ele>
        <time>2018-07-28T09:13:21Z</time>
      </trkpt>
      <trkpt lat="36.6970710754394" lon="-5.03911018371582">
        <ele>1337.12329101562</ele>
        <time>2018-07-28T09:13:22Z</time>
      </trkpt>
      <trkpt lat="36.6970672607422" lon="-5.03912401199341">
        <ele>1336.99584960938</ele>
        <time>2018-07-28T09:13:23Z</time>
      </trkpt>
      <trkpt lat="36.6970672607422" lon="-5.03913688659668">
        <ele>1336.86364746094</ele>
        <time>2018-07-28T09:13:24Z</time>
      </trkpt>
      <trkpt lat="36.6970634460449" lon="-5.03915119171143">
        <ele>1336.73071289062</ele>
        <time>2018-07-28T09:13:25Z</time>
      </trkpt>
      <trkpt lat="36.6970596313477" lon="-5.03916311264038">
        <ele>1336.62194824219</ele>
        <time>2018-07-28T09:13:26Z</time>
      </trkpt>
      <trkpt lat="36.6970558166504" lon="-5.03917598724365">
        <ele>1336.50805664062</ele>
        <time>2018-07-28T09:13:27Z</time>
      </trkpt>
      <trkpt lat="36.6970481872559" lon="-5.03918790817261">
        <ele>1336.41833496094</ele>
        <time>2018-07-28T09:13:28Z</time>
      </trkpt>
      <trkpt lat="36.6970481872559" lon="-5.03919982910156">
        <ele>1336.30151367188</ele>
        <time>2018-07-28T09:13:29Z</time>
      </trkpt>
      <trkpt lat="36.6970443725586" lon="-5.03921318054199">
        <ele>1336.18322753906</ele>
        <time>2018-07-28T09:13:30Z</time>
      </trkpt>
      <trkpt lat="36.6970405578613" lon="-5.03922700881958">
        <ele>1336.05981445312</ele>
        <time>2018-07-28T09:13:31Z</time>
      </trkpt>
      <trkpt lat="36.6970367431641" lon="-5.03923988342285">
        <ele>1335.94519042969</ele>
        <time>2018-07-28T09:13:32Z</time>
      </trkpt>
      <trkpt lat="36.6970367431641" lon="-5.0392541885376">
        <ele>1335.80407714844</ele>
        <time>2018-07-28T09:13:33Z</time>
      </trkpt>
      <trkpt lat="36.6970329284668" lon="-5.03926706314087">
        <ele>1335.6884765625</ele>
        <time>2018-07-28T09:13:34Z</time>
      </trkpt>
      <trkpt lat="36.6970291137695" lon="-5.03928089141846">
        <ele>1335.56298828125</ele>
        <time>2018-07-28T09:13:35Z</time>
      </trkpt>
      <trkpt lat="36.6970291137695" lon="-5.0392951965332">
        <ele>1335.42114257812</ele>
        <time>2018-07-28T09:13:36Z</time>
      </trkpt>
      <trkpt lat="36.6970252990723" lon="-5.03930997848511">
        <ele>1335.28527832031</ele>
        <time>2018-07-28T09:13:37Z</time>
      </trkpt>
      <trkpt lat="36.697021484375" lon="-5.0393238067627">
        <ele>1335.15808105469</ele>
        <time>2018-07-28T09:13:38Z</time>
      </trkpt>
      <trkpt lat="36.6970176696777" lon="-5.03933715820312">
        <ele>1335.03515625</ele>
        <time>2018-07-28T09:13:39Z</time>
      </trkpt>
      <trkpt lat="36.6970138549805" lon="-5.0393500328064">
        <ele>1334.91638183594</ele>
        <time>2018-07-28T09:13:40Z</time>
      </trkpt>
      <trkpt lat="36.6970100402832" lon="-5.03936290740967">
        <ele>1334.79711914062</ele>
        <time>2018-07-28T09:13:41Z</time>
      </trkpt>
      <trkpt lat="36.6970100402832" lon="-5.03937482833862">
        <ele>1334.67761230469</ele>
        <time>2018-07-28T09:13:42Z</time>
      </trkpt>
      <trkpt lat="36.6970062255859" lon="-5.03938722610474">
        <ele>1334.56225585938</ele>
        <time>2018-07-28T09:13:43Z</time>
      </trkpt>
      <trkpt lat="36.6970100402832" lon="-5.03939485549927">
        <ele>1334.47692871094</ele>
        <time>2018-07-28T09:13:44Z</time>
      </trkpt>
      <trkpt lat="36.6970100402832" lon="-5.03939914703369">
        <ele>1334.43383789062</ele>
        <time>2018-07-28T09:13:45Z</time>
      </trkpt>
      <trkpt lat="36.6970100402832" lon="-5.03940010070801">
        <ele>1334.42431640625</ele>
        <time>2018-07-28T09:13:46Z</time>
      </trkpt>
      <trkpt lat="36.6970100402832" lon="-5.03940010070801">
        <ele>1334.42431640625</ele>
        <time>2018-07-28T09:13:47Z</time>
      </trkpt>
      <trkpt lat="36.6970062255859" lon="-5.03940010070801">
        <ele>1334.43298339844</ele>
        <time>2018-07-28T09:13:48Z</time>
      </trkpt>
      <trkpt lat="36.6970062255859" lon="-5.03940105438232">
        <ele>1334.42333984375</ele>
        <time>2018-07-28T09:13:49Z</time>
      </trkpt>
      <trkpt lat="36.6970062255859" lon="-5.03940296173096">
        <ele>1334.40417480469</ele>
        <time>2018-07-28T09:13:50Z</time>
      </trkpt>
      <trkpt lat="36.6970062255859" lon="-5.03940486907959">
        <ele>1334.38500976562</ele>
        <time>2018-07-28T09:13:51Z</time>
      </trkpt>
      <trkpt lat="36.6970062255859" lon="-5.03940486907959">
        <ele>1334.38500976562</ele>
        <time>2018-07-28T09:13:52Z</time>
      </trkpt>
      <trkpt lat="36.6970062255859" lon="-5.03940486907959">
        <ele>1334.38500976562</ele>
        <time>2018-07-28T09:13:53Z</time>
      </trkpt>
      <trkpt lat="36.6970062255859" lon="-5.03940486907959">
        <ele>1334.38500976562</ele>
        <time>2018-07-28T09:13:54Z</time>
      </trkpt>
      <trkpt lat="36.6970062255859" lon="-5.03940486907959">
        <ele>1334.38500976562</ele>
        <time>2018-07-28T09:13:55Z</time>
      </trkpt>
      <trkpt lat="36.6970062255859" lon="-5.03940486907959">
        <ele>1334.38500976562</ele>
        <time>2018-07-28T09:13:56Z</time>
      </trkpt>
      <trkpt lat="36.6970062255859" lon="-5.03940486907959">
        <ele>1334.38500976562</ele>
        <time>2018-07-28T09:13:57Z</time>
      </trkpt>
      <trkpt lat="36.6970062255859" lon="-5.03940582275391">
        <ele>1334.37548828125</ele>
        <time>2018-07-28T09:13:58Z</time>
      </trkpt>
      <trkpt lat="36.6970062255859" lon="-5.03940677642822">
        <ele>1334.36584472656</ele>
        <time>2018-07-28T09:13:59Z</time>
      </trkpt>
      <trkpt lat="36.6970062255859" lon="-5.03940916061401">
        <ele>1334.34191894531</ele>
        <time>2018-07-28T09:14:00Z</time>
      </trkpt>
      <trkpt lat="36.6970062255859" lon="-5.03941202163696">
        <ele>1334.31323242188</ele>
        <time>2018-07-28T09:14:01Z</time>
      </trkpt>
      <trkpt lat="36.6970062255859" lon="-5.03941679000854">
        <ele>1334.26525878906</ele>
        <time>2018-07-28T09:14:02Z</time>
      </trkpt>
      <trkpt lat="36.6970024108887" lon="-5.03942394256592">
        <ele>1334.20153808594</ele>
        <time>2018-07-28T09:14:03Z</time>
      </trkpt>
      <trkpt lat="36.6970024108887" lon="-5.03943204879761">
        <ele>1334.11999511719</ele>
        <time>2018-07-28T09:14:04Z</time>
      </trkpt>
      <trkpt lat="36.6969985961914" lon="-5.0394401550293">
        <ele>1334.04602050781</ele>
        <time>2018-07-28T09:14:05Z</time>
      </trkpt>
      <trkpt lat="36.6969985961914" lon="-5.03945016860962">
        <ele>1333.94506835938</ele>
        <time>2018-07-28T09:14:06Z</time>
      </trkpt>
      <trkpt lat="36.6969985961914" lon="-5.03946208953857">
        <ele>1333.82482910156</ele>
        <time>2018-07-28T09:14:07Z</time>
      </trkpt>
      <trkpt lat="36.6969985961914" lon="-5.03947305679321">
        <ele>1333.71411132812</ele>
        <time>2018-07-28T09:14:08Z</time>
      </trkpt>
      <trkpt lat="36.6969985961914" lon="-5.03948593139648">
        <ele>1333.58422851562</ele>
        <time>2018-07-28T09:14:09Z</time>
      </trkpt>
      <trkpt lat="36.6969947814941" lon="-5.03949785232544">
        <ele>1333.47045898438</ele>
        <time>2018-07-28T09:14:10Z</time>
      </trkpt>
      <trkpt lat="36.6969947814941" lon="-5.03950977325439">
        <ele>1333.34997558594</ele>
        <time>2018-07-28T09:14:11Z</time>
      </trkpt>
      <trkpt lat="36.6969947814941" lon="-5.03952121734619">
        <ele>1333.23425292969</ele>
        <time>2018-07-28T09:14:12Z</time>
      </trkpt>
      <trkpt lat="36.6969947814941" lon="-5.03952980041504">
        <ele>1333.1474609375</ele>
        <time>2018-07-28T09:14:13Z</time>
      </trkpt>
      <trkpt lat="36.6969947814941" lon="-5.03953504562378">
        <ele>1333.09448242188</ele>
        <time>2018-07-28T09:14:14Z</time>
      </trkpt>
      <trkpt lat="36.6969947814941" lon="-5.0395359992981">
        <ele>1333.08483886719</ele>
        <time>2018-07-28T09:14:15Z</time>
      </trkpt>
      <trkpt lat="36.6969947814941" lon="-5.03953790664673">
        <ele>1333.06555175781</ele>
        <time>2018-07-28T09:14:16Z</time>
      </trkpt>
      <trkpt lat="36.6969947814941" lon="-5.03954315185547">
        <ele>1333.01245117188</ele>
        <time>2018-07-28T09:14:17Z</time>
      </trkpt>
      <trkpt lat="36.6969947814941" lon="-5.03955411911011">
        <ele>1332.90161132812</ele>
        <time>2018-07-28T09:14:18Z</time>
      </trkpt>
      <trkpt lat="36.6969947814941" lon="-5.03956699371338">
        <ele>1332.771484375</ele>
        <time>2018-07-28T09:14:19Z</time>
      </trkpt>
      <trkpt lat="36.6969947814941" lon="-5.03958177566528">
        <ele>1332.6220703125</ele>
        <time>2018-07-28T09:14:20Z</time>
      </trkpt>
      <trkpt lat="36.6969985961914" lon="-5.0395941734314">
        <ele>1332.49230957031</ele>
        <time>2018-07-28T09:14:21Z</time>
      </trkpt>
      <trkpt lat="36.6970024108887" lon="-5.03960418701172">
        <ele>1332.38720703125</ele>
        <time>2018-07-28T09:14:22Z</time>
      </trkpt>
      <trkpt lat="36.6970062255859" lon="-5.03961086273193">
        <ele>1332.31604003906</ele>
        <time>2018-07-28T09:14:23Z</time>
      </trkpt>
      <trkpt lat="36.6970062255859" lon="-5.03961801528931">
        <ele>1332.244140625</ele>
        <time>2018-07-28T09:14:24Z</time>
      </trkpt>
      <trkpt lat="36.6970100402832" lon="-5.03962182998657">
        <ele>1332.2021484375</ele>
        <time>2018-07-28T09:14:25Z</time>
      </trkpt>
      <trkpt lat="36.6970138549805" lon="-5.039626121521">
        <ele>1332.15551757812</ele>
        <time>2018-07-28T09:14:26Z</time>
      </trkpt>
      <trkpt lat="36.6970176696777" lon="-5.03962993621826">
        <ele>1332.11376953125</ele>
        <time>2018-07-28T09:14:27Z</time>
      </trkpt>
      <trkpt lat="36.697021484375" lon="-5.03963804244995">
        <ele>1332.02954101562</ele>
        <time>2018-07-28T09:14:28Z</time>
      </trkpt>
      <trkpt lat="36.697021484375" lon="-5.03964710235596">
        <ele>1331.93933105469</ele>
        <time>2018-07-28T09:14:29Z</time>
      </trkpt>
      <trkpt lat="36.697021484375" lon="-5.03965616226196">
        <ele>1331.84912109375</ele>
        <time>2018-07-28T09:14:30Z</time>
      </trkpt>
      <trkpt lat="36.6970252990723" lon="-5.03966617584228">
        <ele>1331.74670410156</ele>
        <time>2018-07-28T09:14:31Z</time>
      </trkpt>
      <trkpt lat="36.6970252990723" lon="-5.03967523574829">
        <ele>1331.65661621094</ele>
        <time>2018-07-28T09:14:32Z</time>
      </trkpt>
      <trkpt lat="36.6970291137695" lon="-5.03968381881714">
        <ele>1331.56896972656</ele>
        <time>2018-07-28T09:14:33Z</time>
      </trkpt>
      <trkpt lat="36.6970329284668" lon="-5.03969717025757">
        <ele>1331.4345703125</ele>
        <time>2018-07-28T09:14:34Z</time>
      </trkpt>
      <trkpt lat="36.6970367431641" lon="-5.03970909118652">
        <ele>1331.31494140625</ele>
        <time>2018-07-28T09:14:35Z</time>
      </trkpt>
      <trkpt lat="36.6970367431641" lon="-5.03971815109253">
        <ele>1331.22546386719</ele>
        <time>2018-07-28T09:14:36Z</time>
      </trkpt>
      <trkpt lat="36.6970405578613" lon="-5.03972101211548">
        <ele>1331.19567871094</ele>
        <time>2018-07-28T09:14:37Z</time>
      </trkpt>
      <trkpt lat="36.6970405578613" lon="-5.03972387313843">
        <ele>1331.16748046875</ele>
        <time>2018-07-28T09:14:38Z</time>
      </trkpt>
      <trkpt lat="36.6970443725586" lon="-5.03972816467285">
        <ele>1331.12390136719</ele>
        <time>2018-07-28T09:14:39Z</time>
      </trkpt>
      <trkpt lat="36.6970481872559" lon="-5.03972816467285">
        <ele>1331.12243652344</ele>
        <time>2018-07-28T09:14:40Z</time>
      </trkpt>
      <trkpt lat="36.6970481872559" lon="-5.03972291946411">
        <ele>1331.17395019531</ele>
        <time>2018-07-28T09:14:41Z</time>
      </trkpt>
      <trkpt lat="36.6970481872559" lon="-5.03971385955811">
        <ele>1331.2626953125</ele>
        <time>2018-07-28T09:14:42Z</time>
      </trkpt>
      <trkpt lat="36.6970481872559" lon="-5.0397047996521">
        <ele>1331.3515625</ele>
        <time>2018-07-28T09:14:43Z</time>
      </trkpt>
      <trkpt lat="36.6970443725586" lon="-5.03969812393188">
        <ele>1331.4189453125</ele>
        <time>2018-07-28T09:14:44Z</time>
      </trkpt>
      <trkpt lat="36.6970443725586" lon="-5.03969192504883">
        <ele>1331.47985839844</ele>
        <time>2018-07-28T09:14:45Z</time>
      </trkpt>
      <trkpt lat="36.6970405578613" lon="-5.03968477249146">
        <ele>1331.55249023438</ele>
        <time>2018-07-28T09:14:46Z</time>
      </trkpt>
      <trkpt lat="36.6970367431641" lon="-5.03967809677124">
        <ele>1331.62072753906</ele>
        <time>2018-07-28T09:14:47Z</time>
      </trkpt>
      <trkpt lat="36.6970367431641" lon="-5.03966903686523">
        <ele>1331.71020507812</ele>
        <time>2018-07-28T09:14:48Z</time>
      </trkpt>
      <trkpt lat="36.6970367431641" lon="-5.03965997695923">
        <ele>1331.79956054688</ele>
        <time>2018-07-28T09:14:49Z</time>
      </trkpt>
      <trkpt lat="36.6970367431641" lon="-5.03965377807617">
        <ele>1331.86071777344</ele>
        <time>2018-07-28T09:14:50Z</time>
      </trkpt>
      <trkpt lat="36.6970367431641" lon="-5.03965187072754">
        <ele>1331.87951660156</ele>
        <time>2018-07-28T09:14:51Z</time>
      </trkpt>
      <trkpt lat="36.6970367431641" lon="-5.03965282440186">
        <ele>1331.8701171875</ele>
        <time>2018-07-28T09:14:52Z</time>
      </trkpt>
      <trkpt lat="36.6970367431641" lon="-5.03965377807617">
        <ele>1331.86071777344</ele>
        <time>2018-07-28T09:14:53Z</time>
      </trkpt>
      <trkpt lat="36.6970367431641" lon="-5.03965282440186">
        <ele>1331.8701171875</ele>
        <time>2018-07-28T09:14:54Z</time>
      </trkpt>
      <trkpt lat="36.6970367431641" lon="-5.03965282440186">
        <ele>1331.8701171875</ele>
        <time>2018-07-28T09:14:55Z</time>
      </trkpt>
      <trkpt lat="36.6970367431641" lon="-5.03965187072754">
        <ele>1331.87951660156</ele>
        <time>2018-07-28T09:14:56Z</time>
      </trkpt>
      <trkpt lat="36.6970367431641" lon="-5.03965091705322">
        <ele>1331.88891601562</ele>
        <time>2018-07-28T09:14:57Z</time>
      </trkpt>
      <trkpt lat="36.6970367431641" lon="-5.03965091705322">
        <ele>1331.88891601562</ele>
        <time>2018-07-28T09:14:58Z</time>
      </trkpt>
      <trkpt lat="36.6970367431641" lon="-5.03965091705322">
        <ele>1331.88891601562</ele>
        <time>2018-07-28T09:14:59Z</time>
      </trkpt>
      <trkpt lat="36.6970367431641" lon="-5.03965091705322">
        <ele>1331.88891601562</ele>
        <time>2018-07-28T09:15:00Z</time>
      </trkpt>
      <trkpt lat="36.6970367431641" lon="-5.03965091705322">
        <ele>1331.88891601562</ele>
        <time>2018-07-28T09:15:01Z</time>
      </trkpt>
      <trkpt lat="36.6970367431641" lon="-5.03965091705322">
        <ele>1331.88891601562</ele>
        <time>2018-07-28T09:15:02Z</time>
      </trkpt>
      <trkpt lat="36.6970367431641" lon="-5.03965091705322">
        <ele>1331.88891601562</ele>
        <time>2018-07-28T09:15:03Z</time>
      </trkpt>
      <trkpt lat="36.6970367431641" lon="-5.03965091705322">
        <ele>1331.88891601562</ele>
        <time>2018-07-28T09:15:04Z</time>
      </trkpt>
      <trkpt lat="36.6970367431641" lon="-5.03964996337891">
        <ele>1331.8984375</ele>
        <time>2018-07-28T09:15:05Z</time>
      </trkpt>
      <trkpt lat="36.6970367431641" lon="-5.03964996337891">
        <ele>1331.8984375</ele>
        <time>2018-07-28T09:15:06Z</time>
      </trkpt>
      <trkpt lat="36.6970367431641" lon="-5.03964900970459">
        <ele>1331.90783691406</ele>
        <time>2018-07-28T09:15:07Z</time>
      </trkpt>
      <trkpt lat="36.6970367431641" lon="-5.03964900970459">
        <ele>1331.90783691406</ele>
        <time>2018-07-28T09:15:08Z</time>
      </trkpt>
      <trkpt lat="36.6970329284668" lon="-5.03964900970459">
        <ele>1331.91088867188</ele>
        <time>2018-07-28T09:15:09Z</time>
      </trkpt>
      <trkpt lat="36.6970329284668" lon="-5.03964900970459">
        <ele>1331.91088867188</ele>
        <time>2018-07-28T09:15:10Z</time>
      </trkpt>
      <trkpt lat="36.6970291137695" lon="-5.03964996337891">
        <ele>1331.90466308594</ele>
        <time>2018-07-28T09:15:11Z</time>
      </trkpt>
      <trkpt lat="36.6970291137695" lon="-5.03965187072754">
        <ele>1331.8857421875</ele>
        <time>2018-07-28T09:15:12Z</time>
      </trkpt>
      <trkpt lat="36.6970291137695" lon="-5.03965377807617">
        <ele>1331.86682128906</ele>
        <time>2018-07-28T09:15:13Z</time>
      </trkpt>
      <trkpt lat="36.6970252990723" lon="-5.03965520858765">
        <ele>1331.85559082031</ele>
        <time>2018-07-28T09:15:14Z</time>
      </trkpt>
      <trkpt lat="36.6970252990723" lon="-5.03965520858765">
        <ele>1331.85559082031</ele>
        <time>2018-07-28T09:15:15Z</time>
      </trkpt>
      <trkpt lat="36.6970252990723" lon="-5.03965520858765">
        <ele>1331.85559082031</ele>
        <time>2018-07-28T09:15:16Z</time>
      </trkpt>
      <trkpt lat="36.697021484375" lon="-5.03965711593628">
        <ele>1331.83959960938</ele>
        <time>2018-07-28T09:15:17Z</time>
      </trkpt>
      <trkpt lat="36.6970176696777" lon="-5.03966522216797">
        <ele>1331.76171875</ele>
        <time>2018-07-28T09:15:18Z</time>
      </trkpt>
      <trkpt lat="36.6970176696777" lon="-5.03968000411987">
        <ele>1331.61413574219</ele>
        <time>2018-07-28T09:15:19Z</time>
      </trkpt>
      <trkpt lat="36.6970138549805" lon="-5.0396990776062">
        <ele>1331.42590332031</ele>
        <time>2018-07-28T09:15:20Z</time>
      </trkpt>
      <trkpt lat="36.6970176696777" lon="-5.03971719741821">
        <ele>1331.24304199219</ele>
        <time>2018-07-28T09:15:21Z</time>
      </trkpt>
      <trkpt lat="36.697021484375" lon="-5.03973484039307">
        <ele>1331.06579589844</ele>
        <time>2018-07-28T09:15:22Z</time>
      </trkpt>
      <trkpt lat="36.6970291137695" lon="-5.03975105285644">
        <ele>1330.90258789062</ele>
        <time>2018-07-28T09:15:23Z</time>
      </trkpt>
      <trkpt lat="36.6970367431641" lon="-5.03976821899414">
        <ele>1330.7314453125</ele>
        <time>2018-07-28T09:15:24Z</time>
      </trkpt>
      <trkpt lat="36.6970443725586" lon="-5.03978300094604">
        <ele>1330.58508300781</ele>
        <time>2018-07-28T09:15:25Z</time>
      </trkpt>
      <trkpt lat="36.6970520019531" lon="-5.03979778289795">
        <ele>1330.44018554688</ele>
        <time>2018-07-28T09:15:26Z</time>
      </trkpt>
      <trkpt lat="36.6970634460449" lon="-5.03981113433838">
        <ele>1330.31091308594</ele>
        <time>2018-07-28T09:15:27Z</time>
      </trkpt>
      <trkpt lat="36.6970710754394" lon="-5.03982400894165">
        <ele>1330.18725585938</ele>
        <time>2018-07-28T09:15:28Z</time>
      </trkpt>
      <trkpt lat="36.697078704834" lon="-5.03983688354492">
        <ele>1330.06469726562</ele>
        <time>2018-07-28T09:15:29Z</time>
      </trkpt>
      <trkpt lat="36.6970825195312" lon="-5.03985023498535">
        <ele>1329.9375</ele>
        <time>2018-07-28T09:15:30Z</time>
      </trkpt>
      <trkpt lat="36.6970901489258" lon="-5.03986310958862">
        <ele>1329.81689453125</ele>
        <time>2018-07-28T09:15:31Z</time>
      </trkpt>
      <trkpt lat="36.6971015930176" lon="-5.03987407684326">
        <ele>1329.71752929688</ele>
        <time>2018-07-28T09:15:32Z</time>
      </trkpt>
      <trkpt lat="36.6971092224121" lon="-5.03988695144653">
        <ele>1329.59948730469</ele>
        <time>2018-07-28T09:15:33Z</time>
      </trkpt>
      <trkpt lat="36.6971168518066" lon="-5.03989887237549">
        <ele>1329.49157714844</ele>
        <time>2018-07-28T09:15:34Z</time>
      </trkpt>
      <trkpt lat="36.6971244812012" lon="-5.03991079330444">
        <ele>1329.38464355469</ele>
        <time>2018-07-28T09:15:35Z</time>
      </trkpt>
      <trkpt lat="36.6971321105957" lon="-5.03992319107056">
        <ele>1329.27429199219</ele>
        <time>2018-07-28T09:15:36Z</time>
      </trkpt>
      <trkpt lat="36.6971435546875" lon="-5.03993511199951">
        <ele>1329.17272949219</ele>
        <time>2018-07-28T09:15:37Z</time>
      </trkpt>
      <trkpt lat="36.6971473693848" lon="-5.03994703292847">
        <ele>1329.06579589844</ele>
        <time>2018-07-28T09:15:38Z</time>
      </trkpt>
      <trkpt lat="36.6971549987793" lon="-5.03995895385742">
        <ele>1328.96313476562</ele>
        <time>2018-07-28T09:15:39Z</time>
      </trkpt>
      <trkpt lat="36.6971588134766" lon="-5.03997278213501">
        <ele>1328.84008789062</ele>
        <time>2018-07-28T09:15:40Z</time>
      </trkpt>
      <trkpt lat="36.6971664428711" lon="-5.03998899459839">
        <ele>1328.70007324219</ele>
        <time>2018-07-28T09:15:41Z</time>
      </trkpt>
      <trkpt lat="36.6971740722656" lon="-5.04000282287598">
        <ele>1328.60095214844</ele>
        <time>2018-07-28T09:15:42Z</time>
      </trkpt>
      <trkpt lat="36.6971817016602" lon="-5.04001808166504">
        <ele>1328.568359375</ele>
        <time>2018-07-28T09:15:43Z</time>
      </trkpt>
      <trkpt lat="36.6971893310547" lon="-5.04003381729126">
        <ele>1328.53637695312</ele>
        <time>2018-07-28T09:15:44Z</time>
      </trkpt>
      <trkpt lat="36.697193145752" lon="-5.04005098342896">
        <ele>1328.49658203125</ele>
        <time>2018-07-28T09:15:45Z</time>
      </trkpt>
      <trkpt lat="36.6972007751465" lon="-5.04006719589233">
        <ele>1328.46716308594</ele>
        <time>2018-07-28T09:15:46Z</time>
      </trkpt>
      <trkpt lat="36.6972045898438" lon="-5.04008293151856">
        <ele>1328.43383789062</ele>
        <time>2018-07-28T09:15:47Z</time>
      </trkpt>
      <trkpt lat="36.697208404541" lon="-5.0400972366333">
        <ele>1328.40515136719</ele>
        <time>2018-07-28T09:15:48Z</time>
      </trkpt>
      <trkpt lat="36.6972122192383" lon="-5.0401120185852">
        <ele>1328.37609863281</ele>
        <time>2018-07-28T09:15:49Z</time>
      </trkpt>
      <trkpt lat="36.6972198486328" lon="-5.04012489318848">
        <ele>1328.36157226562</ele>
        <time>2018-07-28T09:15:50Z</time>
      </trkpt>
      <trkpt lat="36.6972236633301" lon="-5.04013776779175">
        <ele>1328.33947753906</ele>
        <time>2018-07-28T09:15:51Z</time>
      </trkpt>
      <trkpt lat="36.6972274780273" lon="-5.04014778137207">
        <ele>1328.32495117188</ele>
        <time>2018-07-28T09:15:52Z</time>
      </trkpt>
      <trkpt lat="36.6972274780273" lon="-5.04015588760376">
        <ele>1328.30590820312</ele>
        <time>2018-07-28T09:15:53Z</time>
      </trkpt>
      <trkpt lat="36.6972312927246" lon="-5.04016494750977">
        <ele>1328.29455566406</ele>
        <time>2018-07-28T09:15:54Z</time>
      </trkpt>
      <trkpt lat="36.6972351074219" lon="-5.04017496109009">
        <ele>1328.28173828125</ele>
        <time>2018-07-28T09:15:55Z</time>
      </trkpt>
      <trkpt lat="36.6972389221191" lon="-5.04018688201904">
        <ele>1328.26513671875</ele>
        <time>2018-07-28T09:15:56Z</time>
      </trkpt>
      <trkpt lat="36.6972427368164" lon="-5.04019784927368">
        <ele>1328.25146484375</ele>
        <time>2018-07-28T09:15:57Z</time>
      </trkpt>
      <trkpt lat="36.6972465515137" lon="-5.04020690917969">
        <ele>1328.24279785156</ele>
        <time>2018-07-28T09:15:58Z</time>
      </trkpt>
      <trkpt lat="36.6972503662109" lon="-5.04021787643433">
        <ele>1328.23046875</ele>
        <time>2018-07-28T09:15:59Z</time>
      </trkpt>
      <trkpt lat="36.6972579956055" lon="-5.04022789001465">
        <ele>1328.23315429688</ele>
        <time>2018-07-28T09:16:00Z</time>
      </trkpt>
      <trkpt lat="36.697265625" lon="-5.04024076461792">
        <ele>1328.23120117188</ele>
        <time>2018-07-28T09:16:01Z</time>
      </trkpt>
      <trkpt lat="36.6972694396973" lon="-5.04025411605835">
        <ele>1328.21716308594</ele>
        <time>2018-07-28T09:16:02Z</time>
      </trkpt>
      <trkpt lat="36.6972770690918" lon="-5.04026794433594">
        <ele>1328.21643066406</ele>
        <time>2018-07-28T09:16:03Z</time>
      </trkpt>
      <trkpt lat="36.6972846984863" lon="-5.04028081893921">
        <ele>1328.21923828125</ele>
        <time>2018-07-28T09:16:04Z</time>
      </trkpt>
      <trkpt lat="36.6972923278809" lon="-5.04029417037964">
        <ele>1328.22302246094</ele>
        <time>2018-07-28T09:16:05Z</time>
      </trkpt>
      <trkpt lat="36.6972961425781" lon="-5.04030704498291">
        <ele>1328.21459960938</ele>
        <time>2018-07-28T09:16:06Z</time>
      </trkpt>
      <trkpt lat="36.6972999572754" lon="-5.0403208732605">
        <ele>1328.20532226562</ele>
        <time>2018-07-28T09:16:07Z</time>
      </trkpt>
      <trkpt lat="36.6972999572754" lon="-5.04033708572388">
        <ele>1328.17736816406</ele>
        <time>2018-07-28T09:16:08Z</time>
      </trkpt>
      <trkpt lat="36.6972999572754" lon="-5.04035377502441">
        <ele>1328.1484375</ele>
        <time>2018-07-28T09:16:09Z</time>
      </trkpt>
      <trkpt lat="36.6972999572754" lon="-5.04037094116211">
        <ele>1328.11877441406</ele>
        <time>2018-07-28T09:16:10Z</time>
      </trkpt>
      <trkpt lat="36.6972999572754" lon="-5.04038619995117">
        <ele>1328.09240722656</ele>
        <time>2018-07-28T09:16:11Z</time>
      </trkpt>
      <trkpt lat="36.6972999572754" lon="-5.04040098190308">
        <ele>1328.06689453125</ele>
        <time>2018-07-28T09:16:12Z</time>
      </trkpt>
      <trkpt lat="36.6972999572754" lon="-5.04041719436646">
        <ele>1328.03894042969</ele>
        <time>2018-07-28T09:16:13Z</time>
      </trkpt>
      <trkpt lat="36.6972999572754" lon="-5.04043102264404">
        <ele>1328.01501464844</ele>
        <time>2018-07-28T09:16:14Z</time>
      </trkpt>
      <trkpt lat="36.6972999572754" lon="-5.04044389724731">
        <ele>1327.99267578125</ele>
        <time>2018-07-28T09:16:15Z</time>
      </trkpt>
      <trkpt lat="36.6973037719727" lon="-5.04045820236206">
        <ele>1327.98767089844</ele>
        <time>2018-07-28T09:16:16Z</time>
      </trkpt>
      <trkpt lat="36.6973037719727" lon="-5.04047203063965">
        <ele>1327.96423339844</ele>
        <time>2018-07-28T09:16:17Z</time>
      </trkpt>
      <trkpt lat="36.6973037719727" lon="-5.04048490524292">
        <ele>1327.9423828125</ele>
        <time>2018-07-28T09:16:18Z</time>
      </trkpt>
      <trkpt lat="36.6973037719727" lon="-5.04049921035767">
        <ele>1327.91821289062</ele>
        <time>2018-07-28T09:16:19Z</time>
      </trkpt>
      <trkpt lat="36.6973037719727" lon="-5.04051399230957">
        <ele>1327.89306640625</ele>
        <time>2018-07-28T09:16:20Z</time>
      </trkpt>
      <trkpt lat="36.6973037719727" lon="-5.04053020477295">
        <ele>1327.86560058594</ele>
        <time>2018-07-28T09:16:21Z</time>
      </trkpt>
      <trkpt lat="36.6972999572754" lon="-5.04054403305054">
        <ele>1327.81970214844</ele>
        <time>2018-07-28T09:16:22Z</time>
      </trkpt>
      <trkpt lat="36.6972999572754" lon="-5.04055881500244">
        <ele>1327.79406738281</ele>
        <time>2018-07-28T09:16:23Z</time>
      </trkpt>
      <trkpt lat="36.6972999572754" lon="-5.04057312011719">
        <ele>1327.76940917969</ele>
        <time>2018-07-28T09:16:24Z</time>
      </trkpt>
      <trkpt lat="36.6972999572754" lon="-5.04058790206909">
        <ele>1327.74389648438</ele>
        <time>2018-07-28T09:16:25Z</time>
      </trkpt>
      <trkpt lat="36.6972999572754" lon="-5.04060316085815">
        <ele>1327.71740722656</ele>
        <time>2018-07-28T09:16:26Z</time>
      </trkpt>
      <trkpt lat="36.6972999572754" lon="-5.04061794281006">
        <ele>1327.69189453125</ele>
        <time>2018-07-28T09:16:27Z</time>
      </trkpt>
      <trkpt lat="36.6972999572754" lon="-5.04063177108765">
        <ele>1327.66796875</ele>
        <time>2018-07-28T09:16:28Z</time>
      </trkpt>
      <trkpt lat="36.6972999572754" lon="-5.04064607620239">
        <ele>1327.64331054688</ele>
        <time>2018-07-28T09:16:29Z</time>
      </trkpt>
      <trkpt lat="36.6973037719727" lon="-5.04065895080566">
        <ele>1327.64733886719</ele>
        <time>2018-07-28T09:16:30Z</time>
      </trkpt>
      <trkpt lat="36.6973037719727" lon="-5.04067182540894">
        <ele>1327.62548828125</ele>
        <time>2018-07-28T09:16:31Z</time>
      </trkpt>
      <trkpt lat="36.6973037719727" lon="-5.040687084198">
        <ele>1327.599609375</ele>
        <time>2018-07-28T09:16:32Z</time>
      </trkpt>
      <trkpt lat="36.6972999572754" lon="-5.0407018661499">
        <ele>1327.546875</ele>
        <time>2018-07-28T09:16:33Z</time>
      </trkpt>
      <trkpt lat="36.6972961425781" lon="-5.0407190322876">
        <ele>1327.48889160156</ele>
        <time>2018-07-28T09:16:34Z</time>
      </trkpt>
      <trkpt lat="36.6972961425781" lon="-5.0407338142395">
        <ele>1327.462890625</ele>
        <time>2018-07-28T09:16:35Z</time>
      </trkpt>
      <trkpt lat="36.6972961425781" lon="-5.04074716567993">
        <ele>1327.43933105469</ele>
        <time>2018-07-28T09:16:36Z</time>
      </trkpt>
      <trkpt lat="36.6972923278809" lon="-5.0407600402832">
        <ele>1327.38708496094</ele>
        <time>2018-07-28T09:16:37Z</time>
      </trkpt>
      <trkpt lat="36.6972923278809" lon="-5.04077291488647">
        <ele>1327.36401367188</ele>
        <time>2018-07-28T09:16:38Z</time>
      </trkpt>
      <trkpt lat="36.6972885131836" lon="-5.04078817367554">
        <ele>1327.30603027344</ele>
        <time>2018-07-28T09:16:39Z</time>
      </trkpt>
      <trkpt lat="36.6972885131836" lon="-5.04080390930176">
        <ele>1327.27722167969</ele>
        <time>2018-07-28T09:16:40Z</time>
      </trkpt>
      <trkpt lat="36.6972885131836" lon="-5.0408182144165">
        <ele>1327.25109863281</ele>
        <time>2018-07-28T09:16:41Z</time>
      </trkpt>
      <trkpt lat="36.6972846984863" lon="-5.04083395004272">
        <ele>1327.19384765625</ele>
        <time>2018-07-28T09:16:42Z</time>
      </trkpt>
      <trkpt lat="36.6972846984863" lon="-5.04084920883179">
        <ele>1327.25354003906</ele>
        <time>2018-07-28T09:16:43Z</time>
      </trkpt>
      <trkpt lat="36.6972808837891" lon="-5.04086399078369">
        <ele>1327.27941894531</ele>
        <time>2018-07-28T09:16:44Z</time>
      </trkpt>
      <trkpt lat="36.6972770690918" lon="-5.0408787727356">
        <ele>1327.30554199219</ele>
        <time>2018-07-28T09:16:45Z</time>
      </trkpt>
      <trkpt lat="36.6972732543945" lon="-5.04089307785034">
        <ele>1327.32995605469</ele>
        <time>2018-07-28T09:16:46Z</time>
      </trkpt>
      <trkpt lat="36.6972694396973" lon="-5.04090690612793">
        <ele>1327.3525390625</ele>
        <time>2018-07-28T09:16:47Z</time>
      </trkpt>
      <trkpt lat="36.697265625" lon="-5.04091882705688">
        <ele>1327.36791992188</ele>
        <time>2018-07-28T09:16:48Z</time>
      </trkpt>
      <trkpt lat="36.6972579956055" lon="-5.040931224823">
        <ele>1327.35363769531</ele>
        <time>2018-07-28T09:16:49Z</time>
      </trkpt>
      <trkpt lat="36.6972541809082" lon="-5.04094409942627">
        <ele>1327.373046875</ele>
        <time>2018-07-28T09:16:50Z</time>
      </trkpt>
      <trkpt lat="36.6972503662109" lon="-5.04096078872681">
        <ele>1327.40771484375</ele>
        <time>2018-07-28T09:16:51Z</time>
      </trkpt>
      <trkpt lat="36.6972465515137" lon="-5.04097700119019">
        <ele>1327.44067382812</ele>
        <time>2018-07-28T09:16:52Z</time>
      </trkpt>
      <trkpt lat="36.6972427368164" lon="-5.04099416732788">
        <ele>1327.4775390625</ele>
        <time>2018-07-28T09:16:53Z</time>
      </trkpt>
      <trkpt lat="36.6972389221191" lon="-5.04100894927978">
        <ele>1327.50512695312</ele>
        <time>2018-07-28T09:16:54Z</time>
      </trkpt>
      <trkpt lat="36.6972351074219" lon="-5.04102182388306">
        <ele>1327.525390625</ele>
        <time>2018-07-28T09:16:55Z</time>
      </trkpt>
      <trkpt lat="36.6972312927246" lon="-5.04103183746338">
        <ele>1327.53430175781</ele>
        <time>2018-07-28T09:16:56Z</time>
      </trkpt>
      <trkpt lat="36.6972312927246" lon="-5.04104089736938">
        <ele>1327.57043457031</ele>
        <time>2018-07-28T09:16:57Z</time>
      </trkpt>
      <trkpt lat="36.6972274780273" lon="-5.04104614257812">
        <ele>1327.56042480469</ele>
        <time>2018-07-28T09:16:58Z</time>
      </trkpt>
      <trkpt lat="36.6972274780273" lon="-5.04104804992676">
        <ele>1327.56811523438</ele>
        <time>2018-07-28T09:16:59Z</time>
      </trkpt>
      <trkpt lat="36.6972274780273" lon="-5.04104804992676">
        <ele>1327.56811523438</ele>
        <time>2018-07-28T09:17:00Z</time>
      </trkpt>
      <trkpt lat="36.6972274780273" lon="-5.04105091094971">
        <ele>1327.57946777344</ele>
        <time>2018-07-28T09:17:01Z</time>
      </trkpt>
      <trkpt lat="36.6972236633301" lon="-5.04105710983276">
        <ele>1327.57336425781</ele>
        <time>2018-07-28T09:17:02Z</time>
      </trkpt>
      <trkpt lat="36.6972236633301" lon="-5.04106616973877">
        <ele>1327.60961914062</ele>
        <time>2018-07-28T09:17:03Z</time>
      </trkpt>
      <trkpt lat="36.6972198486328" lon="-5.04107618331909">
        <ele>1327.61901855469</ele>
        <time>2018-07-28T09:17:04Z</time>
      </trkpt>
      <trkpt lat="36.6972160339356" lon="-5.04108810424805">
        <ele>1327.63598632812</ele>
        <time>2018-07-28T09:17:05Z</time>
      </trkpt>
      <trkpt lat="36.6972122192383" lon="-5.04110193252564">
        <ele>1327.66088867188</ele>
        <time>2018-07-28T09:17:06Z</time>
      </trkpt>
      <trkpt lat="36.6972122192383" lon="-5.0411171913147">
        <ele>1327.72216796875</ele>
        <time>2018-07-28T09:17:07Z</time>
      </trkpt>
      <trkpt lat="36.697208404541" lon="-5.04113292694092">
        <ele>1327.7548828125</ele>
        <time>2018-07-28T09:17:08Z</time>
      </trkpt>
      <trkpt lat="36.6972045898438" lon="-5.04114818572998">
        <ele>1327.78601074219</ele>
        <time>2018-07-28T09:17:09Z</time>
      </trkpt>
      <trkpt lat="36.6972007751465" lon="-5.04116201400757">
        <ele>1327.81140136719</ele>
        <time>2018-07-28T09:17:10Z</time>
      </trkpt>
      <trkpt lat="36.697193145752" lon="-5.04117488861084">
        <ele>1327.80297851562</ele>
        <time>2018-07-28T09:17:11Z</time>
      </trkpt>
      <trkpt lat="36.6971893310547" lon="-5.0411901473999">
        <ele>1327.83459472656</ele>
        <time>2018-07-28T09:17:12Z</time>
      </trkpt>
      <trkpt lat="36.6971855163574" lon="-5.04120397567749">
        <ele>1327.86047363281</ele>
        <time>2018-07-28T09:17:13Z</time>
      </trkpt>
      <trkpt lat="36.6971817016602" lon="-5.04121780395508">
        <ele>1327.88659667969</ele>
        <time>2018-07-28T09:17:14Z</time>
      </trkpt>
      <trkpt lat="36.6971778869629" lon="-5.04123115539551">
        <ele>1327.91088867188</ele>
        <time>2018-07-28T09:17:15Z</time>
      </trkpt>
      <trkpt lat="36.6971740722656" lon="-5.0412449836731">
        <ele>1327.93737792969</ele>
        <time>2018-07-28T09:17:16Z</time>
      </trkpt>
      <trkpt lat="36.6971702575684" lon="-5.04126119613647">
        <ele>1327.9736328125</ele>
        <time>2018-07-28T09:17:17Z</time>
      </trkpt>
      <trkpt lat="36.6971626281738" lon="-5.04127883911133">
        <ele>1327.986328125</ele>
        <time>2018-07-28T09:17:18Z</time>
      </trkpt>
      <trkpt lat="36.6971626281738" lon="-5.04129505157471">
        <ele>1328.05261230469</ele>
        <time>2018-07-28T09:17:19Z</time>
      </trkpt>
      <trkpt lat="36.6971588134766" lon="-5.0413088798523">
        <ele>1328.07958984375</ele>
        <time>2018-07-28T09:17:20Z</time>
      </trkpt>
      <trkpt lat="36.6971549987793" lon="-5.04132318496704">
        <ele>1328.10876464844</ele>
        <time>2018-07-28T09:17:21Z</time>
      </trkpt>
      <trkpt lat="36.697151184082" lon="-5.04133796691894">
        <ele>1328.14013671875</ele>
        <time>2018-07-28T09:17:22Z</time>
      </trkpt>
      <trkpt lat="36.6971473693848" lon="-5.04135322570801">
        <ele>1328.17346191406</ele>
        <time>2018-07-28T09:17:23Z</time>
      </trkpt>
      <trkpt lat="36.6971435546875" lon="-5.0413670539856">
        <ele>1328.201171875</ele>
        <time>2018-07-28T09:17:24Z</time>
      </trkpt>
      <trkpt lat="36.6971397399902" lon="-5.04138088226318">
        <ele>1328.22900390625</ele>
        <time>2018-07-28T09:17:25Z</time>
      </trkpt>
      <trkpt lat="36.697135925293" lon="-5.04139423370361">
        <ele>1328.25512695312</ele>
        <time>2018-07-28T09:17:26Z</time>
      </trkpt>
      <trkpt lat="36.6971321105957" lon="-5.04140615463257">
        <ele>1328.275390625</ele>
        <time>2018-07-28T09:17:27Z</time>
      </trkpt>
      <trkpt lat="36.6971321105957" lon="-5.04141807556152">
        <ele>1328.32458496094</ele>
        <time>2018-07-28T09:17:28Z</time>
      </trkpt>
      <trkpt lat="36.6971282958984" lon="-5.0414309501648">
        <ele>1328.34899902344</ele>
        <time>2018-07-28T09:17:29Z</time>
      </trkpt>
      <trkpt lat="36.6971244812012" lon="-5.04144191741943">
        <ele>1328.36560058594</ele>
        <time>2018-07-28T09:17:30Z</time>
      </trkpt>
      <trkpt lat="36.6971206665039" lon="-5.0414547920227">
        <ele>1328.39025878906</ele>
        <time>2018-07-28T09:17:31Z</time>
      </trkpt>
      <trkpt lat="36.6971168518066" lon="-5.04146718978882">
        <ele>1328.41320800781</ele>
        <time>2018-07-28T09:17:32Z</time>
      </trkpt>
      <trkpt lat="36.6971092224121" lon="-5.04148101806641">
        <ele>1328.41357421875</ele>
        <time>2018-07-28T09:17:33Z</time>
      </trkpt>
      <trkpt lat="36.6971054077148" lon="-5.04149484634399">
        <ele>1328.44274902344</ele>
        <time>2018-07-28T09:17:34Z</time>
      </trkpt>
      <trkpt lat="36.6971015930176" lon="-5.04150915145874">
        <ele>1328.47399902344</ele>
        <time>2018-07-28T09:17:35Z</time>
      </trkpt>
      <trkpt lat="36.6971015930176" lon="-5.04152297973633">
        <ele>1328.53173828125</ele>
        <time>2018-07-28T09:17:36Z</time>
      </trkpt>
      <trkpt lat="36.6970977783203" lon="-5.04153490066528">
        <ele>1328.55334472656</ele>
        <time>2018-07-28T09:17:37Z</time>
      </trkpt>
      <trkpt lat="36.6970977783203" lon="-5.04154586791992">
        <ele>1328.59912109375</ele>
        <time>2018-07-28T09:17:38Z</time>
      </trkpt>
      <trkpt lat="36.6970977783203" lon="-5.04155111312866">
        <ele>1328.62109375</ele>
        <time>2018-07-28T09:17:39Z</time>
      </trkpt>
      <trkpt lat="36.697093963623" lon="-5.04155492782593">
        <ele>1328.60888671875</ele>
        <time>2018-07-28T09:17:40Z</time>
      </trkpt>
      <trkpt lat="36.697093963623" lon="-5.04155492782593">
        <ele>1328.60888671875</ele>
        <time>2018-07-28T09:17:41Z</time>
      </trkpt>
      <trkpt lat="36.6970901489258" lon="-5.04155588150024">
        <ele>1328.58483886719</ele>
        <time>2018-07-28T09:17:42Z</time>
      </trkpt>
      <trkpt lat="36.6970901489258" lon="-5.04156112670898">
        <ele>1328.60681152344</ele>
        <time>2018-07-28T09:17:43Z</time>
      </trkpt>
      <trkpt lat="36.6970863342285" lon="-5.04156684875488">
        <ele>1328.60278320312</ele>
        <time>2018-07-28T09:17:44Z</time>
      </trkpt>
      <trkpt lat="36.6970825195312" lon="-5.0415768623352">
        <ele>1328.61682128906</ele>
        <time>2018-07-28T09:17:45Z</time>
      </trkpt>
      <trkpt lat="36.6970748901367" lon="-5.04158687591553">
        <ele>1328.60314941406</ele>
        <time>2018-07-28T09:17:46Z</time>
      </trkpt>
      <trkpt lat="36.6970710754394" lon="-5.04159688949585">
        <ele>1328.61743164062</ele>
        <time>2018-07-28T09:17:47Z</time>
      </trkpt>
      <trkpt lat="36.6970672607422" lon="-5.04160785675049">
        <ele>1328.63586425781</ele>
        <time>2018-07-28T09:17:48Z</time>
      </trkpt>
      <trkpt lat="36.6970596313477" lon="-5.04161882400513">
        <ele>1328.62683105469</ele>
        <time>2018-07-28T09:17:49Z</time>
      </trkpt>
      <trkpt lat="36.6970558166504" lon="-5.04163312911987">
        <ele>1328.65966796875</ele>
        <time>2018-07-28T09:17:50Z</time>
      </trkpt>
      <trkpt lat="36.6970558166504" lon="-5.04164695739746">
        <ele>1328.71826171875</ele>
        <time>2018-07-28T09:17:51Z</time>
      </trkpt>
      <trkpt lat="36.6970558166504" lon="-5.04165983200073">
        <ele>1328.77294921875</ele>
        <time>2018-07-28T09:17:52Z</time>
      </trkpt>
      <trkpt lat="36.6970558166504" lon="-5.04167413711548">
        <ele>1328.76782226562</ele>
        <time>2018-07-28T09:17:53Z</time>
      </trkpt>
      <trkpt lat="36.6970520019531" lon="-5.04168701171875">
        <ele>1328.68225097656</ele>
        <time>2018-07-28T09:17:54Z</time>
      </trkpt>
      <trkpt lat="36.6970481872559" lon="-5.04170083999634">
        <ele>1328.59326171875</ele>
        <time>2018-07-28T09:17:55Z</time>
      </trkpt>
      <trkpt lat="36.6970443725586" lon="-5.04171514511108">
        <ele>1328.50305175781</ele>
        <time>2018-07-28T09:17:56Z</time>
      </trkpt>
      <trkpt lat="36.6970405578613" lon="-5.04172992706299">
        <ele>1328.41174316406</ele>
        <time>2018-07-28T09:17:57Z</time>
      </trkpt>
      <trkpt lat="36.6970367431641" lon="-5.04174423217773">
        <ele>1328.32348632812</ele>
        <time>2018-07-28T09:17:58Z</time>
      </trkpt>
      <trkpt lat="36.6970329284668" lon="-5.04175901412964">
        <ele>1328.23400878906</ele>
        <time>2018-07-28T09:17:59Z</time>
      </trkpt>
      <trkpt lat="36.6970291137695" lon="-5.04177188873291">
        <ele>1328.15380859375</ele>
        <time>2018-07-28T09:18:00Z</time>
      </trkpt>
      <trkpt lat="36.6970252990723" lon="-5.04178380966186">
        <ele>1328.07861328125</ele>
        <time>2018-07-28T09:18:01Z</time>
      </trkpt>
      <trkpt lat="36.697021484375" lon="-5.04179620742798">
        <ele>1328.00207519531</ele>
        <time>2018-07-28T09:18:02Z</time>
      </trkpt>
      <trkpt lat="36.6970176696777" lon="-5.04181003570557">
        <ele>1327.92041015625</ele>
        <time>2018-07-28T09:18:03Z</time>
      </trkpt>
      <trkpt lat="36.6970100402832" lon="-5.04182481765747">
        <ele>1327.81335449219</ele>
        <time>2018-07-28T09:18:04Z</time>
      </trkpt>
      <trkpt lat="36.6970062255859" lon="-5.04184007644653">
        <ele>1327.72802734375</ele>
        <time>2018-07-28T09:18:05Z</time>
      </trkpt>
      <trkpt lat="36.6970024108887" lon="-5.04185390472412">
        <ele>1327.64953613281</ele>
        <time>2018-07-28T09:18:06Z</time>
      </trkpt>
      <trkpt lat="36.6969985961914" lon="-5.04186677932739">
        <ele>1327.57580566406</ele>
        <time>2018-07-28T09:18:07Z</time>
      </trkpt>
      <trkpt lat="36.6969947814941" lon="-5.04188013076782">
        <ele>1327.50109863281</ele>
        <time>2018-07-28T09:18:08Z</time>
      </trkpt>
      <trkpt lat="36.6969909667969" lon="-5.04189300537109">
        <ele>1327.42919921875</ele>
        <time>2018-07-28T09:18:09Z</time>
      </trkpt>
      <trkpt lat="36.6969871520996" lon="-5.04190587997436">
        <ele>1327.35803222656</ele>
        <time>2018-07-28T09:18:10Z</time>
      </trkpt>
      <trkpt lat="36.6969833374023" lon="-5.0419192314148">
        <ele>1327.28588867188</ele>
        <time>2018-07-28T09:18:11Z</time>
      </trkpt>
      <trkpt lat="36.6969795227051" lon="-5.04193210601807">
        <ele>1327.21655273438</ele>
        <time>2018-07-28T09:18:12Z</time>
      </trkpt>
      <trkpt lat="36.6969757080078" lon="-5.04194593429565">
        <ele>1327.14428710938</ele>
        <time>2018-07-28T09:18:13Z</time>
      </trkpt>
      <trkpt lat="36.6969680786133" lon="-5.04195880889893">
        <ele>1327.05883789062</ele>
        <time>2018-07-28T09:18:14Z</time>
      </trkpt>
      <trkpt lat="36.696964263916" lon="-5.04197406768799">
        <ele>1326.9833984375</ele>
        <time>2018-07-28T09:18:15Z</time>
      </trkpt>
      <trkpt lat="36.6969566345215" lon="-5.04198884963989">
        <ele>1326.89392089844</ele>
        <time>2018-07-28T09:18:16Z</time>
      </trkpt>
      <trkpt lat="36.6969528198242" lon="-5.04200506210327">
        <ele>1326.81762695312</ele>
        <time>2018-07-28T09:18:17Z</time>
      </trkpt>
      <trkpt lat="36.696949005127" lon="-5.04201889038086">
        <ele>1326.7509765625</ele>
        <time>2018-07-28T09:18:18Z</time>
      </trkpt>
      <trkpt lat="36.6969451904297" lon="-5.04203319549561">
        <ele>1326.68347167969</ele>
        <time>2018-07-28T09:18:19Z</time>
      </trkpt>
      <trkpt lat="36.6969375610352" lon="-5.04204607009888">
        <ele>1326.60717773438</ele>
        <time>2018-07-28T09:18:20Z</time>
      </trkpt>
      <trkpt lat="36.6969337463379" lon="-5.04206085205078">
        <ele>1326.54028320312</ele>
        <time>2018-07-28T09:18:21Z</time>
      </trkpt>
      <trkpt lat="36.6969299316406" lon="-5.04207515716553">
        <ele>1326.47619628906</ele>
        <time>2018-07-28T09:18:22Z</time>
      </trkpt>
      <trkpt lat="36.6969223022461" lon="-5.04208898544312">
        <ele>1326.40100097656</ele>
        <time>2018-07-28T09:18:23Z</time>
      </trkpt>
      <trkpt lat="36.6969184875488" lon="-5.0421028137207">
        <ele>1326.3408203125</ele>
        <time>2018-07-28T09:18:24Z</time>
      </trkpt>
      <trkpt lat="36.6969146728516" lon="-5.04211711883545">
        <ele>1326.27990722656</ele>
        <time>2018-07-28T09:18:25Z</time>
      </trkpt>
      <trkpt lat="36.696907043457" lon="-5.04213094711304">
        <ele>1326.20935058594</ele>
        <time>2018-07-28T09:18:26Z</time>
      </trkpt>
      <trkpt lat="36.6968994140625" lon="-5.04214477539062">
        <ele>1326.140625</ele>
        <time>2018-07-28T09:18:27Z</time>
      </trkpt>
      <trkpt lat="36.696891784668" lon="-5.04215717315674">
        <ele>1326.07824707031</ele>
        <time>2018-07-28T09:18:28Z</time>
      </trkpt>
      <trkpt lat="36.6968841552734" lon="-5.04216623306274">
        <ele>1326.02770996094</ele>
        <time>2018-07-28T09:18:29Z</time>
      </trkpt>
      <trkpt lat="36.6968803405762" lon="-5.04217481613159">
        <ele>1325.99060058594</ele>
        <time>2018-07-28T09:18:30Z</time>
      </trkpt>
      <trkpt lat="36.6968727111816" lon="-5.04218482971191">
        <ele>1325.93933105469</ele>
        <time>2018-07-28T09:18:31Z</time>
      </trkpt>
      <trkpt lat="36.6968688964844" lon="-5.04219722747803">
        <ele>1325.89233398438</ele>
        <time>2018-07-28T09:18:32Z</time>
      </trkpt>
      <trkpt lat="36.6968650817871" lon="-5.04220581054688">
        <ele>1325.85729980469</ele>
        <time>2018-07-28T09:18:33Z</time>
      </trkpt>
      <trkpt lat="36.6968612670898" lon="-5.04221296310425">
        <ele>1325.82702636719</ele>
        <time>2018-07-28T09:18:34Z</time>
      </trkpt>
      <trkpt lat="36.6968612670898" lon="-5.0422158241272">
        <ele>1325.81884765625</ele>
        <time>2018-07-28T09:18:35Z</time>
      </trkpt>
      <trkpt lat="36.6968612670898" lon="-5.04221820831299">
        <ele>1325.81188964844</ele>
        <time>2018-07-28T09:18:36Z</time>
      </trkpt>
      <trkpt lat="36.6968574523926" lon="-5.0422191619873">
        <ele>1325.79992675781</ele>
        <time>2018-07-28T09:18:37Z</time>
      </trkpt>
      <trkpt lat="36.6968536376953" lon="-5.04222106933594">
        <ele>1325.78527832031</ele>
        <time>2018-07-28T09:18:38Z</time>
      </trkpt>
      <trkpt lat="36.6968536376953" lon="-5.04222679138184">
        <ele>1325.76916503906</ele>
        <time>2018-07-28T09:18:39Z</time>
      </trkpt>
      <trkpt lat="36.696849822998" lon="-5.04223489761353">
        <ele>1325.73767089844</ele>
        <time>2018-07-28T09:18:40Z</time>
      </trkpt>
      <trkpt lat="36.6968421936035" lon="-5.04224395751953">
        <ele>1325.69555664062</ele>
        <time>2018-07-28T09:18:41Z</time>
      </trkpt>
      <trkpt lat="36.6968383789062" lon="-5.04225206375122">
        <ele>1325.66540527344</ele>
        <time>2018-07-28T09:18:42Z</time>
      </trkpt>
      <trkpt lat="36.6968307495117" lon="-5.04226016998291">
        <ele>1325.62780761719</ele>
        <time>2018-07-28T09:18:43Z</time>
      </trkpt>
      <trkpt lat="36.6968269348144" lon="-5.04226922988892">
        <ele>1325.59643554688</ele>
        <time>2018-07-28T09:18:44Z</time>
      </trkpt>
      <trkpt lat="36.6968193054199" lon="-5.04227876663208">
        <ele>1325.55725097656</ele>
        <time>2018-07-28T09:18:45Z</time>
      </trkpt>
      <trkpt lat="36.6968116760254" lon="-5.0422887802124">
        <ele>1325.51806640625</ele>
        <time>2018-07-28T09:18:46Z</time>
      </trkpt>
      <trkpt lat="36.6968078613281" lon="-5.0423002243042">
        <ele>1325.4833984375</ele>
        <time>2018-07-28T09:18:47Z</time>
      </trkpt>
      <trkpt lat="36.6968002319336" lon="-5.04231119155884">
        <ele>1325.44445800781</ele>
        <time>2018-07-28T09:18:48Z</time>
      </trkpt>
      <trkpt lat="36.6967964172363" lon="-5.04232311248779">
        <ele>1325.41052246094</ele>
        <time>2018-07-28T09:18:49Z</time>
      </trkpt>
      <trkpt lat="36.6967887878418" lon="-5.04233503341675">
        <ele>1325.3720703125</ele>
        <time>2018-07-28T09:18:50Z</time>
      </trkpt>
      <trkpt lat="36.6967849731445" lon="-5.04234600067139">
        <ele>1325.34216308594</ele>
        <time>2018-07-28T09:18:51Z</time>
      </trkpt>
      <trkpt lat="36.6967811584473" lon="-5.04235792160034">
        <ele>1325.31103515625</ele>
        <time>2018-07-28T09:18:52Z</time>
      </trkpt>
      <trkpt lat="36.6967735290527" lon="-5.04236888885498">
        <ele>1325.27844238281</ele>
        <time>2018-07-28T09:18:53Z</time>
      </trkpt>
      <trkpt lat="36.6967697143555" lon="-5.04237985610962">
        <ele>1325.25109863281</ele>
        <time>2018-07-28T09:18:54Z</time>
      </trkpt>
      <trkpt lat="36.6967658996582" lon="-5.04239082336426">
        <ele>1325.224609375</ele>
        <time>2018-07-28T09:18:55Z</time>
      </trkpt>
      <trkpt lat="36.6967620849609" lon="-5.0424017906189">
        <ele>1325.19885253906</ele>
        <time>2018-07-28T09:18:56Z</time>
      </trkpt>
      <trkpt lat="36.6967582702637" lon="-5.04241323471069">
        <ele>1325.17272949219</ele>
        <time>2018-07-28T09:18:57Z</time>
      </trkpt>
      <trkpt lat="36.6967544555664" lon="-5.04242420196533">
        <ele>1325.1484375</ele>
        <time>2018-07-28T09:18:58Z</time>
      </trkpt>
      <trkpt lat="36.6967468261719" lon="-5.04243421554565">
        <ele>1325.12451171875</ele>
        <time>2018-07-28T09:18:59Z</time>
      </trkpt>
      <trkpt lat="36.6967430114746" lon="-5.04244518280029">
        <ele>1325.10192871094</ele>
        <time>2018-07-28T09:19:00Z</time>
      </trkpt>
      <trkpt lat="36.6967391967773" lon="-5.04245615005493">
        <ele>1325.080078125</ele>
        <time>2018-07-28T09:19:01Z</time>
      </trkpt>
      <trkpt lat="36.6967353820801" lon="-5.04246711730957">
        <ele>1325.05895996094</ele>
        <time>2018-07-28T09:19:02Z</time>
      </trkpt>
      <trkpt lat="36.6967315673828" lon="-5.04247903823853">
        <ele>1325.03686523438</ele>
        <time>2018-07-28T09:19:03Z</time>
      </trkpt>
      <trkpt lat="36.6967239379883" lon="-5.04249095916748">
        <ele>1325.01538085938</ele>
        <time>2018-07-28T09:19:04Z</time>
      </trkpt>
      <trkpt lat="36.696720123291" lon="-5.04250192642212">
        <ele>1324.99951171875</ele>
        <time>2018-07-28T09:19:05Z</time>
      </trkpt>
      <trkpt lat="36.696720123291" lon="-5.04251384735107">
        <ele>1324.99682617188</ele>
        <time>2018-07-28T09:19:06Z</time>
      </trkpt>
      <trkpt lat="36.6967163085938" lon="-5.04252481460571">
        <ele>1324.99462890625</ele>
        <time>2018-07-28T09:19:07Z</time>
      </trkpt>
      <trkpt lat="36.6967086791992" lon="-5.04253721237183">
        <ele>1324.99328613281</ele>
        <time>2018-07-28T09:19:08Z</time>
      </trkpt>
      <trkpt lat="36.696704864502" lon="-5.04254817962646">
        <ele>1324.99206542969</ele>
        <time>2018-07-28T09:19:09Z</time>
      </trkpt>
      <trkpt lat="36.6966934204102" lon="-5.04255676269531">
        <ele>1324.99340820312</ele>
        <time>2018-07-28T09:19:10Z</time>
      </trkpt>
      <trkpt lat="36.6966857910156" lon="-5.04256677627564">
        <ele>1324.99450683594</ele>
        <time>2018-07-28T09:19:11Z</time>
      </trkpt>
      <trkpt lat="36.6966743469238" lon="-5.04257583618164">
        <ele>1324.99743652344</ele>
        <time>2018-07-28T09:19:12Z</time>
      </trkpt>
      <trkpt lat="36.6966667175293" lon="-5.04258584976196">
        <ele>1325</ele>
        <time>2018-07-28T09:19:13Z</time>
      </trkpt>
      <trkpt lat="36.6966552734375" lon="-5.0425968170166">
        <ele>1324.91540527344</ele>
        <time>2018-07-28T09:19:14Z</time>
      </trkpt>
      <trkpt lat="36.6966514587402" lon="-5.04260587692261">
        <ele>1324.88842773438</ele>
        <time>2018-07-28T09:19:15Z</time>
      </trkpt>
      <trkpt lat="36.6966438293457" lon="-5.04261589050293">
        <ele>1324.83483886719</ele>
        <time>2018-07-28T09:19:16Z</time>
      </trkpt>
      <trkpt lat="36.6966361999512" lon="-5.04262495040894">
        <ele>1324.78247070312</ele>
        <time>2018-07-28T09:19:17Z</time>
      </trkpt>
      <trkpt lat="36.6966285705566" lon="-5.04263496398926">
        <ele>1324.73181152344</ele>
        <time>2018-07-28T09:19:18Z</time>
      </trkpt>
      <trkpt lat="36.6966209411621" lon="-5.04264307022095">
        <ele>1324.68188476562</ele>
        <time>2018-07-28T09:19:19Z</time>
      </trkpt>
      <trkpt lat="36.6966133117676" lon="-5.04265117645264">
        <ele>1324.63317871094</ele>
        <time>2018-07-28T09:19:20Z</time>
      </trkpt>
      <trkpt lat="36.696605682373" lon="-5.04265785217285">
        <ele>1324.58471679688</ele>
        <time>2018-07-28T09:19:21Z</time>
      </trkpt>
      <trkpt lat="36.6965980529785" lon="-5.04266405105591">
        <ele>1324.537109375</ele>
        <time>2018-07-28T09:19:22Z</time>
      </trkpt>
      <trkpt lat="36.696590423584" lon="-5.04266881942749">
        <ele>1324.4892578125</ele>
        <time>2018-07-28T09:19:23Z</time>
      </trkpt>
      <trkpt lat="36.6965789794922" lon="-5.0426721572876">
        <ele>1324.41564941406</ele>
        <time>2018-07-28T09:19:24Z</time>
      </trkpt>
      <trkpt lat="36.6965675354004" lon="-5.04267597198486">
        <ele>1324.34313964844</ele>
        <time>2018-07-28T09:19:25Z</time>
      </trkpt>
      <trkpt lat="36.6965522766113" lon="-5.04268217086792">
        <ele>1324.24914550781</ele>
        <time>2018-07-28T09:19:26Z</time>
      </trkpt>
      <trkpt lat="36.6965408325195" lon="-5.0426869392395">
        <ele>1324.18005371094</ele>
        <time>2018-07-28T09:19:27Z</time>
      </trkpt>
      <trkpt lat="36.6965255737305" lon="-5.04269313812256">
        <ele>1324.08947753906</ele>
        <time>2018-07-28T09:19:28Z</time>
      </trkpt>
      <trkpt lat="36.6965103149414" lon="-5.04269790649414">
        <ele>1323.99853515625</ele>
        <time>2018-07-28T09:19:29Z</time>
      </trkpt>
      <trkpt lat="36.6964950561523" lon="-5.04270315170288">
        <ele>1323.90991210938</ele>
        <time>2018-07-28T09:19:30Z</time>
      </trkpt>
      <trkpt lat="36.6964836120606" lon="-5.04270696640015">
        <ele>1323.84423828125</ele>
        <time>2018-07-28T09:19:31Z</time>
      </trkpt>
      <trkpt lat="36.6964721679688" lon="-5.04270887374878">
        <ele>1323.77575683594</ele>
        <time>2018-07-28T09:19:32Z</time>
      </trkpt>
      <trkpt lat="36.696460723877" lon="-5.0427098274231">
        <ele>1323.70568847656</ele>
        <time>2018-07-28T09:19:33Z</time>
      </trkpt>
      <trkpt lat="36.6964492797852" lon="-5.0427098274231">
        <ele>1323.6337890625</ele>
        <time>2018-07-28T09:19:34Z</time>
      </trkpt>
      <trkpt lat="36.6964378356934" lon="-5.0427098274231">
        <ele>1323.56176757812</ele>
        <time>2018-07-28T09:19:35Z</time>
      </trkpt>
      <trkpt lat="36.6964263916016" lon="-5.04270696640015">
        <ele>1323.48291015625</ele>
        <time>2018-07-28T09:19:36Z</time>
      </trkpt>
      <trkpt lat="36.696418762207" lon="-5.04270219802856">
        <ele>1323.4228515625</ele>
        <time>2018-07-28T09:19:37Z</time>
      </trkpt>
      <trkpt lat="36.6964073181152" lon="-5.04269790649414">
        <ele>1323.3388671875</ele>
        <time>2018-07-28T09:19:38Z</time>
      </trkpt>
      <trkpt lat="36.6963996887207" lon="-5.04269599914551">
        <ele>1323.28479003906</ele>
        <time>2018-07-28T09:19:39Z</time>
      </trkpt>
      <trkpt lat="36.6963920593262" lon="-5.04269504547119">
        <ele>1323.23315429688</ele>
        <time>2018-07-28T09:19:40Z</time>
      </trkpt>
      <trkpt lat="36.6963844299316" lon="-5.04269218444824">
        <ele>1323.17602539062</ele>
        <time>2018-07-28T09:19:41Z</time>
      </trkpt>
      <trkpt lat="36.6963768005371" lon="-5.04268980026245">
        <ele>1323.11975097656</ele>
        <time>2018-07-28T09:19:42Z</time>
      </trkpt>
      <trkpt lat="36.6963691711426" lon="-5.0426869392395">
        <ele>1323.06164550781</ele>
        <time>2018-07-28T09:19:43Z</time>
      </trkpt>
      <trkpt lat="36.6963577270508" lon="-5.04268503189087">
        <ele>1322.98107910156</ele>
        <time>2018-07-28T09:19:44Z</time>
      </trkpt>
      <trkpt lat="36.696346282959" lon="-5.04268312454224">
        <ele>1322.90014648438</ele>
        <time>2018-07-28T09:19:45Z</time>
      </trkpt>
      <trkpt lat="36.6963348388672" lon="-5.04267978668213">
        <ele>1322.81396484375</ele>
        <time>2018-07-28T09:19:46Z</time>
      </trkpt>
      <trkpt lat="36.6963272094727" lon="-5.04267692565918">
        <ele>1322.75390625</ele>
        <time>2018-07-28T09:19:47Z</time>
      </trkpt>
      <trkpt lat="36.6963195800781" lon="-5.04267406463623">
        <ele>1322.69348144531</ele>
        <time>2018-07-28T09:19:48Z</time>
      </trkpt>
      <trkpt lat="36.6963081359863" lon="-5.04266977310181">
        <ele>1322.60192871094</ele>
        <time>2018-07-28T09:19:49Z</time>
      </trkpt>
      <trkpt lat="36.6963005065918" lon="-5.04266595840454">
        <ele>1322.53674316406</ele>
        <time>2018-07-28T09:19:50Z</time>
      </trkpt>
      <trkpt lat="36.6962852478027" lon="-5.04266023635864">
        <ele>1322.412109375</ele>
        <time>2018-07-28T09:19:51Z</time>
      </trkpt>
      <trkpt lat="36.6962738037109" lon="-5.0426549911499">
        <ele>1322.31372070312</ele>
        <time>2018-07-28T09:19:52Z</time>
      </trkpt>
      <trkpt lat="36.6962623596191" lon="-5.04265117645264">
        <ele>1322.21997070312</ele>
        <time>2018-07-28T09:19:53Z</time>
      </trkpt>
      <trkpt lat="36.6962509155273" lon="-5.04264879226685">
        <ele>1322.13122558594</ele>
        <time>2018-07-28T09:19:54Z</time>
      </trkpt>
      <trkpt lat="36.6962394714356" lon="-5.04264497756958">
        <ele>1322.03588867188</ele>
        <time>2018-07-28T09:19:55Z</time>
      </trkpt>
      <trkpt lat="36.6962242126465" lon="-5.04264116287231">
        <ele>1321.91296386719</ele>
        <time>2018-07-28T09:19:56Z</time>
      </trkpt>
      <trkpt lat="36.6962089538574" lon="-5.04263496398926">
        <ele>1321.77795410156</ele>
        <time>2018-07-28T09:19:57Z</time>
      </trkpt>
      <trkpt lat="36.6961975097656" lon="-5.04262781143188">
        <ele>1321.66357421875</ele>
        <time>2018-07-28T09:19:58Z</time>
      </trkpt>
      <trkpt lat="36.6961860656738" lon="-5.04262399673462">
        <ele>1321.56359863281</ele>
        <time>2018-07-28T09:19:59Z</time>
      </trkpt>
      <trkpt lat="36.696174621582" lon="-5.04262018203735">
        <ele>1321.462890625</ele>
        <time>2018-07-28T09:20:00Z</time>
      </trkpt>
      <trkpt lat="36.6961669921875" lon="-5.04261589050293">
        <ele>1321.38647460938</ele>
        <time>2018-07-28T09:20:01Z</time>
      </trkpt>
      <trkpt lat="36.6961555480957" lon="-5.04261112213135">
        <ele>1321.27905273438</ele>
        <time>2018-07-28T09:20:02Z</time>
      </trkpt>
      <trkpt lat="36.6961479187012" lon="-5.04260683059692">
        <ele>1321.201171875</ele>
        <time>2018-07-28T09:20:03Z</time>
      </trkpt>
      <trkpt lat="36.6961326599121" lon="-5.04260301589966">
        <ele>1321.06884765625</ele>
        <time>2018-07-28T09:20:04Z</time>
      </trkpt>
      <trkpt lat="36.6961212158203" lon="-5.04259777069092">
        <ele>1320.95581054688</ele>
        <time>2018-07-28T09:20:05Z</time>
      </trkpt>
      <trkpt lat="36.6961059570312" lon="-5.04259300231934">
        <ele>1320.81567382812</ele>
        <time>2018-07-28T09:20:06Z</time>
      </trkpt>
      <trkpt lat="36.6960945129394" lon="-5.04258823394775">
        <ele>1320.70275878906</ele>
        <time>2018-07-28T09:20:07Z</time>
      </trkpt>
      <trkpt lat="36.6960830688477" lon="-5.04258584976196">
        <ele>1320.60278320312</ele>
        <time>2018-07-28T09:20:08Z</time>
      </trkpt>
      <trkpt lat="36.6960716247559" lon="-5.04258394241333">
        <ele>1320.50512695312</ele>
        <time>2018-07-28T09:20:09Z</time>
      </trkpt>
      <trkpt lat="36.6960601806641" lon="-5.0425820350647">
        <ele>1320.40698242188</ele>
        <time>2018-07-28T09:20:10Z</time>
      </trkpt>
      <trkpt lat="36.6960525512695" lon="-5.04258012771606">
        <ele>1320.33740234375</ele>
        <time>2018-07-28T09:20:11Z</time>
      </trkpt>
      <trkpt lat="36.6960411071777" lon="-5.04257822036743">
        <ele>1320.23852539062</ele>
        <time>2018-07-28T09:20:12Z</time>
      </trkpt>
      <trkpt lat="36.6960334777832" lon="-5.04257392883301">
        <ele>1320.15307617188</ele>
        <time>2018-07-28T09:20:13Z</time>
      </trkpt>
      <trkpt lat="36.6960220336914" lon="-5.04257202148438">
        <ele>1320.05310058594</ele>
        <time>2018-07-28T09:20:14Z</time>
      </trkpt>
      <trkpt lat="36.6960105895996" lon="-5.04256677627564">
        <ele>1319.93054199219</ele>
        <time>2018-07-28T09:20:15Z</time>
      </trkpt>
      <trkpt lat="36.6959953308106" lon="-5.04256296157837">
        <ele>1319.78686523438</ele>
        <time>2018-07-28T09:20:16Z</time>
      </trkpt>
      <trkpt lat="36.6959838867188" lon="-5.04255676269531">
        <ele>1319.6552734375</ele>
        <time>2018-07-28T09:20:17Z</time>
      </trkpt>
      <trkpt lat="36.695972442627" lon="-5.04255390167236">
        <ele>1319.54565429688</ele>
        <time>2018-07-28T09:20:18Z</time>
      </trkpt>
      <trkpt lat="36.6959609985352" lon="-5.04255199432373">
        <ele>1319.44226074219</ele>
        <time>2018-07-28T09:20:19Z</time>
      </trkpt>
      <trkpt lat="36.6959495544434" lon="-5.04255104064941">
        <ele>1319.34521484375</ele>
        <time>2018-07-28T09:20:20Z</time>
      </trkpt>
      <trkpt lat="36.6959381103516" lon="-5.04254913330078">
        <ele>1319.24096679688</ele>
        <time>2018-07-28T09:20:21Z</time>
      </trkpt>
      <trkpt lat="36.6959266662598" lon="-5.04254484176636">
        <ele>1319.11853027344</ele>
        <time>2018-07-28T09:20:22Z</time>
      </trkpt>
      <trkpt lat="36.695915222168" lon="-5.04254102706909">
        <ele>1318.99865722656</ele>
        <time>2018-07-28T09:20:23Z</time>
      </trkpt>
      <trkpt lat="36.6959037780762" lon="-5.04253816604614">
        <ele>1318.88525390625</ele>
        <time>2018-07-28T09:20:24Z</time>
      </trkpt>
      <trkpt lat="36.6958923339844" lon="-5.04253721237183">
        <ele>1318.78601074219</ele>
        <time>2018-07-28T09:20:25Z</time>
      </trkpt>
      <trkpt lat="36.6958808898926" lon="-5.04253911972046">
        <ele>1318.70935058594</ele>
        <time>2018-07-28T09:20:26Z</time>
      </trkpt>
      <trkpt lat="36.6958694458008" lon="-5.04254198074341">
        <ele>1318.64074707031</ele>
        <time>2018-07-28T09:20:27Z</time>
      </trkpt>
      <trkpt lat="36.6958541870117" lon="-5.04254388809204">
        <ele>1318.53454589844</ele>
        <time>2018-07-28T09:20:28Z</time>
      </trkpt>
      <trkpt lat="36.6958351135254" lon="-5.04254484176636">
        <ele>1318.39086914062</ele>
        <time>2018-07-28T09:20:29Z</time>
      </trkpt>
      <trkpt lat="36.6958236694336" lon="-5.04254579544067">
        <ele>1318.32800292969</ele>
        <time>2018-07-28T09:20:30Z</time>
      </trkpt>
      <trkpt lat="36.6958122253418" lon="-5.04254722595215">
        <ele>1318.27294921875</ele>
        <time>2018-07-28T09:20:31Z</time>
      </trkpt>
      <trkpt lat="36.69580078125" lon="-5.04254817962646">
        <ele>1318.2138671875</ele>
        <time>2018-07-28T09:20:32Z</time>
      </trkpt>
      <trkpt lat="36.6957855224609" lon="-5.04254579544067">
        <ele>1318.10412597656</ele>
        <time>2018-07-28T09:20:33Z</time>
      </trkpt>
      <trkpt lat="36.6957702636719" lon="-5.04254198074341">
        <ele>1317.98181152344</ele>
        <time>2018-07-28T09:20:34Z</time>
      </trkpt>
      <trkpt lat="36.6957550048828" lon="-5.04253482818604">
        <ele>1317.83044433594</ele>
        <time>2018-07-28T09:20:35Z</time>
      </trkpt>
      <trkpt lat="36.6957397460938" lon="-5.0425271987915">
        <ele>1317.67431640625</ele>
        <time>2018-07-28T09:20:36Z</time>
      </trkpt>
      <trkpt lat="36.6957244873047" lon="-5.04252004623413">
        <ele>1317.52160644531</ele>
        <time>2018-07-28T09:20:37Z</time>
      </trkpt>
      <trkpt lat="36.6957168579102" lon="-5.04251623153686">
        <ele>1317.44299316406</ele>
        <time>2018-07-28T09:20:38Z</time>
      </trkpt>
      <trkpt lat="36.6957054138184" lon="-5.04251289367676">
        <ele>1317.34558105469</ele>
        <time>2018-07-28T09:20:39Z</time>
      </trkpt>
      <trkpt lat="36.6956939697266" lon="-5.04250907897949">
        <ele>1317.24377441406</ele>
        <time>2018-07-28T09:20:40Z</time>
      </trkpt>
      <trkpt lat="36.6956825256348" lon="-5.04250478744507">
        <ele>1317.13745117188</ele>
        <time>2018-07-28T09:20:41Z</time>
      </trkpt>
      <trkpt lat="36.695671081543" lon="-5.04250001907349">
        <ele>1317.02661132812</ele>
        <time>2018-07-28T09:20:42Z</time>
      </trkpt>
      <trkpt lat="36.6956596374512" lon="-5.04249382019043">
        <ele>1316.93408203125</ele>
        <time>2018-07-28T09:20:43Z</time>
      </trkpt>
      <trkpt lat="36.6956443786621" lon="-5.04248905181885">
        <ele>1316.82385253906</ele>
        <time>2018-07-28T09:20:44Z</time>
      </trkpt>
      <trkpt lat="36.6956329345703" lon="-5.04248285293579">
        <ele>1316.73095703125</ele>
        <time>2018-07-28T09:20:45Z</time>
      </trkpt>
      <trkpt lat="36.6956214904785" lon="-5.04247808456421">
        <ele>1316.64331054688</ele>
        <time>2018-07-28T09:20:46Z</time>
      </trkpt>
      <trkpt lat="36.6956100463867" lon="-5.04247188568115">
        <ele>1316.55004882812</ele>
        <time>2018-07-28T09:20:47Z</time>
      </trkpt>
      <trkpt lat="36.6955986022949" lon="-5.04246711730957">
        <ele>1316.46215820312</ele>
        <time>2018-07-28T09:20:48Z</time>
      </trkpt>
      <trkpt lat="36.6955871582031" lon="-5.04246091842651">
        <ele>1316.36840820312</ele>
        <time>2018-07-28T09:20:49Z</time>
      </trkpt>
      <trkpt lat="36.6955757141113" lon="-5.04245376586914">
        <ele>1316.27062988281</ele>
        <time>2018-07-28T09:20:50Z</time>
      </trkpt>
      <trkpt lat="36.6955604553223" lon="-5.04244899749756">
        <ele>1316.15905761719</ele>
        <time>2018-07-28T09:20:51Z</time>
      </trkpt>
      <trkpt lat="36.6955490112305" lon="-5.0424427986145">
        <ele>1316.06469726562</ele>
        <time>2018-07-28T09:20:52Z</time>
      </trkpt>
      <trkpt lat="36.6955375671387" lon="-5.04243898391724">
        <ele>1315.97973632812</ele>
        <time>2018-07-28T09:20:53Z</time>
      </trkpt>
      <trkpt lat="36.6955261230469" lon="-5.04243421554565">
        <ele>1315.89086914062</ele>
        <time>2018-07-28T09:20:54Z</time>
      </trkpt>
      <trkpt lat="36.6955146789551" lon="-5.04242897033691">
        <ele>1315.7998046875</ele>
        <time>2018-07-28T09:20:55Z</time>
      </trkpt>
      <trkpt lat="36.6955032348633" lon="-5.04242277145386">
        <ele>1315.70471191406</ele>
        <time>2018-07-28T09:20:56Z</time>
      </trkpt>
      <trkpt lat="36.6954956054688" lon="-5.04241704940796">
        <ele>1315.63464355469</ele>
        <time>2018-07-28T09:20:57Z</time>
      </trkpt>
      <trkpt lat="36.695484161377" lon="-5.04240989685059">
        <ele>1315.53527832031</ele>
        <time>2018-07-28T09:20:58Z</time>
      </trkpt>
      <trkpt lat="36.6954727172852" lon="-5.0424017906189">
        <ele>1315.43176269531</ele>
        <time>2018-07-28T09:20:59Z</time>
      </trkpt>
      <trkpt lat="36.6954612731934" lon="-5.042396068573">
        <ele>1315.33776855469</ele>
        <time>2018-07-28T09:21:00Z</time>
      </trkpt>
      <trkpt lat="36.6954536437988" lon="-5.04239177703857">
        <ele>1315.27307128906</ele>
        <time>2018-07-28T09:21:01Z</time>
      </trkpt>
      <trkpt lat="36.695442199707" lon="-5.04238796234131">
        <ele>1315.18676757812</ele>
        <time>2018-07-28T09:21:02Z</time>
      </trkpt>
      <trkpt lat="36.6954307556152" lon="-5.04238414764404">
        <ele>1315.10034179688</ele>
        <time>2018-07-28T09:21:03Z</time>
      </trkpt>
      <trkpt lat="36.6954193115234" lon="-5.04237985610962">
        <ele>1315.01171875</ele>
        <time>2018-07-28T09:21:04Z</time>
      </trkpt>
      <trkpt lat="36.6954078674316" lon="-5.04237699508667">
        <ele>1314.92907714844</ele>
        <time>2018-07-28T09:21:05Z</time>
      </trkpt>
      <trkpt lat="36.6953926086426" lon="-5.04237508773804">
        <ele>1314.82666015625</ele>
        <time>2018-07-28T09:21:06Z</time>
      </trkpt>
      <trkpt lat="36.6953811645508" lon="-5.04237222671509">
        <ele>1314.74377441406</ele>
        <time>2018-07-28T09:21:07Z</time>
      </trkpt>
      <trkpt lat="36.6953735351562" lon="-5.04236793518066">
        <ele>1314.67834472656</ele>
        <time>2018-07-28T09:21:08Z</time>
      </trkpt>
      <trkpt lat="36.6953620910644" lon="-5.0423641204834">
        <ele>1314.59118652344</ele>
        <time>2018-07-28T09:21:09Z</time>
      </trkpt>
      <trkpt lat="36.6953506469727" lon="-5.04235982894897">
        <ele>1314.50183105469</ele>
        <time>2018-07-28T09:21:10Z</time>
      </trkpt>
      <trkpt lat="36.6953392028809" lon="-5.04235696792603">
        <ele>1314.41857910156</ele>
        <time>2018-07-28T09:21:11Z</time>
      </trkpt>
      <trkpt lat="36.6953315734863" lon="-5.04235315322876">
        <ele>1314.35473632812</ele>
        <time>2018-07-28T09:21:12Z</time>
      </trkpt>
      <trkpt lat="36.6953201293945" lon="-5.04234790802002">
        <ele>1314.26086425781</ele>
        <time>2018-07-28T09:21:13Z</time>
      </trkpt>
      <trkpt lat="36.6953086853027" lon="-5.04234313964844">
        <ele>1314.1689453125</ele>
        <time>2018-07-28T09:21:14Z</time>
      </trkpt>
      <trkpt lat="36.6952972412109" lon="-5.04233407974243">
        <ele>1314.05810546875</ele>
        <time>2018-07-28T09:21:15Z</time>
      </trkpt>
      <trkpt lat="36.6952857971191" lon="-5.04232501983643">
        <ele>1313.94689941406</ele>
        <time>2018-07-28T09:21:16Z</time>
      </trkpt>
      <trkpt lat="36.6952743530273" lon="-5.04231595993042">
        <ele>1313.83544921875</ele>
        <time>2018-07-28T09:21:17Z</time>
      </trkpt>
      <trkpt lat="36.6952667236328" lon="-5.04230880737305">
        <ele>1313.75610351562</ele>
        <time>2018-07-28T09:21:18Z</time>
      </trkpt>
      <trkpt lat="36.6952590942383" lon="-5.0423002243042">
        <ele>1313.67016601562</ele>
        <time>2018-07-28T09:21:19Z</time>
      </trkpt>
      <trkpt lat="36.6952514648438" lon="-5.04229402542114">
        <ele>1313.5947265625</ele>
        <time>2018-07-28T09:21:20Z</time>
      </trkpt>
      <trkpt lat="36.6952438354492" lon="-5.0422887802124">
        <ele>1313.52331542969</ele>
        <time>2018-07-28T09:21:21Z</time>
      </trkpt>
      <trkpt lat="36.6952323913574" lon="-5.04228591918945">
        <ele>1313.43835449219</ele>
        <time>2018-07-28T09:21:22Z</time>
      </trkpt>
      <trkpt lat="36.6952247619629" lon="-5.04228210449219">
        <ele>1313.37316894531</ele>
        <time>2018-07-28T09:21:23Z</time>
      </trkpt>
      <trkpt lat="36.6952171325684" lon="-5.04227781295776">
        <ele>1313.30578613281</ele>
        <time>2018-07-28T09:21:24Z</time>
      </trkpt>
      <trkpt lat="36.6952056884766" lon="-5.04227209091186">
        <ele>1313.20764160156</ele>
        <time>2018-07-28T09:21:25Z</time>
      </trkpt>
      <trkpt lat="36.6951942443848" lon="-5.04226779937744">
        <ele>1313.11584472656</ele>
        <time>2018-07-28T09:21:26Z</time>
      </trkpt>
      <trkpt lat="36.6951789855957" lon="-5.04226112365723">
        <ele>1312.98889160156</ele>
        <time>2018-07-28T09:21:27Z</time>
      </trkpt>
      <trkpt lat="36.6951675415039" lon="-5.0422568321228">
        <ele>1312.89672851562</ele>
        <time>2018-07-28T09:21:28Z</time>
      </trkpt>
      <trkpt lat="36.6951560974121" lon="-5.0422511100769">
        <ele>1312.7978515625</ele>
        <time>2018-07-28T09:21:29Z</time>
      </trkpt>
      <trkpt lat="36.6951446533203" lon="-5.04224586486816">
        <ele>1312.70104980469</ele>
        <time>2018-07-28T09:21:30Z</time>
      </trkpt>
      <trkpt lat="36.6951332092285" lon="-5.04223918914795">
        <ele>1312.59741210938</ele>
        <time>2018-07-28T09:21:31Z</time>
      </trkpt>
      <trkpt lat="36.6951179504394" lon="-5.04223012924194">
        <ele>1312.45812988281</ele>
        <time>2018-07-28T09:21:32Z</time>
      </trkpt>
      <trkpt lat="36.6951065063477" lon="-5.04222011566162">
        <ele>1312.33850097656</ele>
        <time>2018-07-28T09:21:33Z</time>
      </trkpt>
      <trkpt lat="36.6950912475586" lon="-5.04221105575562">
        <ele>1312.19848632812</ele>
        <time>2018-07-28T09:21:34Z</time>
      </trkpt>
      <trkpt lat="36.6950836181641" lon="-5.04220199584961">
        <ele>1312.10717773438</ele>
        <time>2018-07-28T09:21:35Z</time>
      </trkpt>
      <trkpt lat="36.6950721740723" lon="-5.04219388961792">
        <ele>1311.99548339844</ele>
        <time>2018-07-28T09:21:36Z</time>
      </trkpt>
      <trkpt lat="36.6950607299805" lon="-5.0421872138977">
        <ele>1311.89038085938</ele>
        <time>2018-07-28T09:21:37Z</time>
      </trkpt>
      <trkpt lat="36.6950454711914" lon="-5.04217910766602">
        <ele>1311.75354003906</ele>
        <time>2018-07-28T09:21:38Z</time>
      </trkpt>
      <trkpt lat="36.6950302124023" lon="-5.04217004776001">
        <ele>1311.61181640625</ele>
        <time>2018-07-28T09:21:39Z</time>
      </trkpt>
      <trkpt lat="36.6950187683106" lon="-5.042160987854">
        <ele>1311.49450683594</ele>
        <time>2018-07-28T09:21:40Z</time>
      </trkpt>
      <trkpt lat="36.6950073242188" lon="-5.04215478897095">
        <ele>1311.390625</ele>
        <time>2018-07-28T09:21:41Z</time>
      </trkpt>
      <trkpt lat="36.694995880127" lon="-5.04215002059936">
        <ele>1311.31518554688</ele>
        <time>2018-07-28T09:21:42Z</time>
      </trkpt>
      <trkpt lat="36.6949806213379" lon="-5.04214382171631">
        <ele>1311.26708984375</ele>
        <time>2018-07-28T09:21:43Z</time>
      </trkpt>
      <trkpt lat="36.6949691772461" lon="-5.04213714599609">
        <ele>1311.22131347656</ele>
        <time>2018-07-28T09:21:44Z</time>
      </trkpt>
      <trkpt lat="36.6949577331543" lon="-5.04212999343872">
        <ele>1311.17321777344</ele>
        <time>2018-07-28T09:21:45Z</time>
      </trkpt>
      <trkpt lat="36.6949424743652" lon="-5.04212284088135">
        <ele>1311.12060546875</ele>
        <time>2018-07-28T09:21:46Z</time>
      </trkpt>
      <trkpt lat="36.6949310302734" lon="-5.04211807250977">
        <ele>1311.083984375</ele>
        <time>2018-07-28T09:21:47Z</time>
      </trkpt>
      <trkpt lat="36.6949195861816" lon="-5.04211091995239">
        <ele>1311.03588867188</ele>
        <time>2018-07-28T09:21:48Z</time>
      </trkpt>
      <trkpt lat="36.6949043273926" lon="-5.04210519790649">
        <ele>1310.99011230469</ele>
        <time>2018-07-28T09:21:49Z</time>
      </trkpt>
      <trkpt lat="36.6948928833008" lon="-5.04209899902344">
        <ele>1310.94665527344</ele>
        <time>2018-07-28T09:21:50Z</time>
      </trkpt>
      <trkpt lat="36.694881439209" lon="-5.04209280014038">
        <ele>1310.90319824219</ele>
        <time>2018-07-28T09:21:51Z</time>
      </trkpt>
      <trkpt lat="36.6948661804199" lon="-5.04208898544312">
        <ele>1310.86657714844</ele>
        <time>2018-07-28T09:21:52Z</time>
      </trkpt>
      <trkpt lat="36.6948547363281" lon="-5.04208612442017">
        <ele>1310.83911132812</ele>
        <time>2018-07-28T09:21:53Z</time>
      </trkpt>
      <trkpt lat="36.6948432922363" lon="-5.04208421707153">
        <ele>1310.81616210938</ele>
        <time>2018-07-28T09:21:54Z</time>
      </trkpt>
      <trkpt lat="36.6948280334473" lon="-5.04208183288574">
        <ele>1310.78637695312</ele>
        <time>2018-07-28T09:21:55Z</time>
      </trkpt>
      <trkpt lat="36.6948165893555" lon="-5.04207897186279">
        <ele>1310.75903320312</ele>
        <time>2018-07-28T09:21:56Z</time>
      </trkpt>
      <trkpt lat="36.6948013305664" lon="-5.04207611083984">
        <ele>1310.72692871094</ele>
        <time>2018-07-28T09:21:57Z</time>
      </trkpt>
      <trkpt lat="36.6947898864746" lon="-5.04207277297974">
        <ele>1310.69714355469</ele>
        <time>2018-07-28T09:21:58Z</time>
      </trkpt>
      <trkpt lat="36.6947784423828" lon="-5.0420708656311">
        <ele>1310.67431640625</ele>
        <time>2018-07-28T09:21:59Z</time>
      </trkpt>
      <trkpt lat="36.6947631835938" lon="-5.04206800460815">
        <ele>1310.64221191406</ele>
        <time>2018-07-28T09:22:00Z</time>
      </trkpt>
      <trkpt lat="36.694751739502" lon="-5.0420651435852">
        <ele>1310.61474609375</ele>
        <time>2018-07-28T09:22:01Z</time>
      </trkpt>
      <trkpt lat="36.6947402954102" lon="-5.0420618057251">
        <ele>1310.5849609375</ele>
        <time>2018-07-28T09:22:02Z</time>
      </trkpt>
      <trkpt lat="36.6947288513184" lon="-5.04206085205078">
        <ele>1310.56665039062</ele>
        <time>2018-07-28T09:22:03Z</time>
      </trkpt>
      <trkpt lat="36.6947135925293" lon="-5.04205799102783">
        <ele>1310.53466796875</ele>
        <time>2018-07-28T09:22:04Z</time>
      </trkpt>
      <trkpt lat="36.6947021484375" lon="-5.0420560836792">
        <ele>1310.51171875</ele>
        <time>2018-07-28T09:22:05Z</time>
      </trkpt>
      <trkpt lat="36.6946907043457" lon="-5.04205322265625">
        <ele>1310.484375</ele>
        <time>2018-07-28T09:22:06Z</time>
      </trkpt>
      <trkpt lat="36.6946754455566" lon="-5.04204893112183">
        <ele>1310.44543457031</ele>
        <time>2018-07-28T09:22:07Z</time>
      </trkpt>
      <trkpt lat="36.6946640014648" lon="-5.04204797744751">
        <ele>1310.42712402344</ele>
        <time>2018-07-28T09:22:08Z</time>
      </trkpt>
      <trkpt lat="36.694652557373" lon="-5.04204607009888">
        <ele>1310.40417480469</ele>
        <time>2018-07-28T09:22:09Z</time>
      </trkpt>
      <trkpt lat="36.6946411132812" lon="-5.04204511642456">
        <ele>1310.38586425781</ele>
        <time>2018-07-28T09:22:10Z</time>
      </trkpt>
      <trkpt lat="36.6946334838867" lon="-5.04204177856445">
        <ele>1310.36071777344</ele>
        <time>2018-07-28T09:22:11Z</time>
      </trkpt>
      <trkpt lat="36.6946220397949" lon="-5.0420389175415">
        <ele>1310.33325195312</ele>
        <time>2018-07-28T09:22:12Z</time>
      </trkpt>
      <trkpt lat="36.6946144104004" lon="-5.04203605651856">
        <ele>1310.31030273438</ele>
        <time>2018-07-28T09:22:13Z</time>
      </trkpt>
      <trkpt lat="36.6946067810059" lon="-5.04203176498413">
        <ele>1310.28063964844</ele>
        <time>2018-07-28T09:22:14Z</time>
      </trkpt>
      <trkpt lat="36.6945953369141" lon="-5.04202795028686">
        <ele>1310.24853515625</ele>
        <time>2018-07-28T09:22:15Z</time>
      </trkpt>
      <trkpt lat="36.6945915222168" lon="-5.0420241355896">
        <ele>1310.22570800781</ele>
        <time>2018-07-28T09:22:16Z</time>
      </trkpt>
      <trkpt lat="36.6945877075195" lon="-5.04202222824097">
        <ele>1310.2119140625</ele>
        <time>2018-07-28T09:22:17Z</time>
      </trkpt>
      <trkpt lat="36.6945838928223" lon="-5.04201984405518">
        <ele>1310.19592285156</ele>
        <time>2018-07-28T09:22:18Z</time>
      </trkpt>
      <trkpt lat="36.6945762634277" lon="-5.04201889038086">
        <ele>1310.18212890625</ele>
        <time>2018-07-28T09:22:19Z</time>
      </trkpt>
      <trkpt lat="36.6945648193359" lon="-5.04202079772949">
        <ele>1310.17761230469</ele>
        <time>2018-07-28T09:22:20Z</time>
      </trkpt>
      <trkpt lat="36.6945533752441" lon="-5.04202079772949">
        <ele>1310.16381835938</ele>
        <time>2018-07-28T09:22:21Z</time>
      </trkpt>
      <trkpt lat="36.6945419311523" lon="-5.04201889038086">
        <ele>1310.14099121094</ele>
        <time>2018-07-28T09:22:22Z</time>
      </trkpt>
      <trkpt lat="36.6945304870606" lon="-5.04201507568359">
        <ele>1310.10888671875</ele>
        <time>2018-07-28T09:22:23Z</time>
      </trkpt>
      <trkpt lat="36.6945152282715" lon="-5.04201078414917">
        <ele>1310.07006835938</ele>
        <time>2018-07-28T09:22:24Z</time>
      </trkpt>
      <trkpt lat="36.694507598877" lon="-5.04200792312622">
        <ele>1310.04711914062</ele>
        <time>2018-07-28T09:22:25Z</time>
      </trkpt>
      <trkpt lat="36.6944961547852" lon="-5.04200601577759">
        <ele>1310.02429199219</ele>
        <time>2018-07-28T09:22:26Z</time>
      </trkpt>
      <trkpt lat="36.6944847106934" lon="-5.04200506210327">
        <ele>1310.00598144531</ele>
        <time>2018-07-28T09:22:27Z</time>
      </trkpt>
      <trkpt lat="36.6944732666016" lon="-5.04200077056885">
        <ele>1309.9716796875</ele>
        <time>2018-07-28T09:22:28Z</time>
      </trkpt>
      <trkpt lat="36.694465637207" lon="-5.0419979095459">
        <ele>1309.94873046875</ele>
        <time>2018-07-28T09:22:29Z</time>
      </trkpt>
      <trkpt lat="36.6944541931152" lon="-5.04199600219727">
        <ele>1309.92578125</ele>
        <time>2018-07-28T09:22:30Z</time>
      </trkpt>
      <trkpt lat="36.6944427490234" lon="-5.04199314117432">
        <ele>1309.8984375</ele>
        <time>2018-07-28T09:22:31Z</time>
      </trkpt>
      <trkpt lat="36.6944351196289" lon="-5.04199123382568">
        <ele>1309.88012695312</ele>
        <time>2018-07-28T09:22:32Z</time>
      </trkpt>
      <trkpt lat="36.6944236755371" lon="-5.04198789596558">
        <ele>1309.85034179688</ele>
        <time>2018-07-28T09:22:33Z</time>
      </trkpt>
      <trkpt lat="36.6944160461426" lon="-5.04198598861694">
        <ele>1309.83203125</ele>
        <time>2018-07-28T09:22:34Z</time>
      </trkpt>
      <trkpt lat="36.694408416748" lon="-5.04198503494263">
        <ele>1309.81823730469</ele>
        <time>2018-07-28T09:22:35Z</time>
      </trkpt>
      <trkpt lat="36.6943969726562" lon="-5.04198598861694">
        <ele>1309.80908203125</ele>
        <time>2018-07-28T09:22:36Z</time>
      </trkpt>
      <trkpt lat="36.6943817138672" lon="-5.04198694229126">
        <ele>1309.79541015625</ele>
        <time>2018-07-28T09:22:37Z</time>
      </trkpt>
      <trkpt lat="36.6943702697754" lon="-5.04198789596558">
        <ele>1309.78625488281</ele>
        <time>2018-07-28T09:22:38Z</time>
      </trkpt>
      <trkpt lat="36.6943550109863" lon="-5.04198789596558">
        <ele>1309.76794433594</ele>
        <time>2018-07-28T09:22:39Z</time>
      </trkpt>
      <trkpt lat="36.6943397521973" lon="-5.04198598861694">
        <ele>1309.74047851562</ele>
        <time>2018-07-28T09:22:40Z</time>
      </trkpt>
      <trkpt lat="36.6943283081055" lon="-5.04198503494263">
        <ele>1309.72216796875</ele>
        <time>2018-07-28T09:22:41Z</time>
      </trkpt>
      <trkpt lat="36.6943168640137" lon="-5.04198408126831">
        <ele>1309.70385742188</ele>
        <time>2018-07-28T09:22:42Z</time>
      </trkpt>
      <trkpt lat="36.6943054199219" lon="-5.04198408126831">
        <ele>1309.69006347656</ele>
        <time>2018-07-28T09:22:43Z</time>
      </trkpt>
      <trkpt lat="36.6942939758301" lon="-5.04198503494263">
        <ele>1309.68090820312</ele>
        <time>2018-07-28T09:22:44Z</time>
      </trkpt>
      <trkpt lat="36.6942825317383" lon="-5.04198694229126">
        <ele>1309.67639160156</ele>
        <time>2018-07-28T09:22:45Z</time>
      </trkpt>
      <trkpt lat="36.6942749023438" lon="-5.04198789596558">
        <ele>1309.67175292969</ele>
        <time>2018-07-28T09:22:46Z</time>
      </trkpt>
      <trkpt lat="36.694263458252" lon="-5.04198980331421">
        <ele>1309.66723632812</ele>
        <time>2018-07-28T09:22:47Z</time>
      </trkpt>
      <trkpt lat="36.6942520141602" lon="-5.0419921875">
        <ele>1309.66491699219</ele>
        <time>2018-07-28T09:22:48Z</time>
      </trkpt>
      <trkpt lat="36.6942405700684" lon="-5.04199314117432">
        <ele>1309.65576171875</ele>
        <time>2018-07-28T09:22:49Z</time>
      </trkpt>
      <trkpt lat="36.6942291259766" lon="-5.04199600219727">
        <ele>1309.65576171875</ele>
        <time>2018-07-28T09:22:50Z</time>
      </trkpt>
      <trkpt lat="36.694221496582" lon="-5.04199981689453">
        <ele>1309.66491699219</ele>
        <time>2018-07-28T09:22:51Z</time>
      </trkpt>
      <trkpt lat="36.6942138671875" lon="-5.04200601577759">
        <ele>1309.685546875</ele>
        <time>2018-07-28T09:22:52Z</time>
      </trkpt>
      <trkpt lat="36.6942024230957" lon="-5.04201078414917">
        <ele>1309.69470214844</ele>
        <time>2018-07-28T09:22:53Z</time>
      </trkpt>
      <trkpt lat="36.6941947937012" lon="-5.04201412200928">
        <ele>1309.70153808594</ele>
        <time>2018-07-28T09:22:54Z</time>
      </trkpt>
      <trkpt lat="36.6941795349121" lon="-5.04201793670654">
        <ele>1309.70153808594</ele>
        <time>2018-07-28T09:22:55Z</time>
      </trkpt>
      <trkpt lat="36.6941680908203" lon="-5.0420241355896">
        <ele>1309.71752929688</ele>
        <time>2018-07-28T09:22:56Z</time>
      </trkpt>
      <trkpt lat="36.6941566467285" lon="-5.04203081130981">
        <ele>1309.66821289062</ele>
        <time>2018-07-28T09:22:57Z</time>
      </trkpt>
      <trkpt lat="36.6941452026367" lon="-5.0420389175415">
        <ele>1309.61474609375</ele>
        <time>2018-07-28T09:22:58Z</time>
      </trkpt>
      <trkpt lat="36.6941337585449" lon="-5.04204607009888">
        <ele>1309.55529785156</ele>
        <time>2018-07-28T09:22:59Z</time>
      </trkpt>
      <trkpt lat="36.6941184997559" lon="-5.04205179214478">
        <ele>1309.45715332031</ele>
        <time>2018-07-28T09:23:00Z</time>
      </trkpt>
      <trkpt lat="36.6941108703613" lon="-5.04205799102783">
        <ele>1309.421875</ele>
        <time>2018-07-28T09:23:01Z</time>
      </trkpt>
      <trkpt lat="36.6940994262695" lon="-5.04206323623657">
        <ele>1309.35034179688</ele>
        <time>2018-07-28T09:23:02Z</time>
      </trkpt>
      <trkpt lat="36.6940879821777" lon="-5.04206895828247">
        <ele>1309.27978515625</ele>
        <time>2018-07-28T09:23:03Z</time>
      </trkpt>
      <trkpt lat="36.6940765380859" lon="-5.04207515716553">
        <ele>1309.21008300781</ele>
        <time>2018-07-28T09:23:04Z</time>
      </trkpt>
      <trkpt lat="36.6940650939941" lon="-5.04208183288574">
        <ele>1309.14086914062</ele>
        <time>2018-07-28T09:23:05Z</time>
      </trkpt>
      <trkpt lat="36.6940536499023" lon="-5.04208898544312">
        <ele>1309.072265625</ele>
        <time>2018-07-28T09:23:06Z</time>
      </trkpt>
      <trkpt lat="36.6940422058106" lon="-5.04209613800049">
        <ele>1309.00219726562</ele>
        <time>2018-07-28T09:23:07Z</time>
      </trkpt>
      <trkpt lat="36.6940307617188" lon="-5.0421028137207">
        <ele>1308.92907714844</ele>
        <time>2018-07-28T09:23:08Z</time>
      </trkpt>
      <trkpt lat="36.694019317627" lon="-5.04210996627808">
        <ele>1308.85620117188</ele>
        <time>2018-07-28T09:23:09Z</time>
      </trkpt>
      <trkpt lat="36.6940116882324" lon="-5.04211711883545">
        <ele>1308.81506347656</ele>
        <time>2018-07-28T09:23:10Z</time>
      </trkpt>
      <trkpt lat="36.6940002441406" lon="-5.04212379455566">
        <ele>1308.73803710938</ele>
        <time>2018-07-28T09:23:11Z</time>
      </trkpt>
      <trkpt lat="36.6939888000488" lon="-5.04213094711304">
        <ele>1308.66125488281</ele>
        <time>2018-07-28T09:23:12Z</time>
      </trkpt>
      <trkpt lat="36.6939811706543" lon="-5.04213905334473">
        <ele>1308.61999511719</ele>
        <time>2018-07-28T09:23:13Z</time>
      </trkpt>
      <trkpt lat="36.6939697265625" lon="-5.04214811325073">
        <ele>1308.54638671875</ele>
        <time>2018-07-28T09:23:14Z</time>
      </trkpt>
      <trkpt lat="36.6939582824707" lon="-5.04215717315674">
        <ele>1308.47106933594</ele>
        <time>2018-07-28T09:23:15Z</time>
      </trkpt>
      <trkpt lat="36.6939506530762" lon="-5.04216623306274">
        <ele>1308.4287109375</ele>
        <time>2018-07-28T09:23:16Z</time>
      </trkpt>
      <trkpt lat="36.6939430236816" lon="-5.04217576980591">
        <ele>1308.38647460938</ele>
        <time>2018-07-28T09:23:17Z</time>
      </trkpt>
      <trkpt lat="36.6939315795898" lon="-5.04218578338623">
        <ele>1308.30895996094</ele>
        <time>2018-07-28T09:23:18Z</time>
      </trkpt>
      <trkpt lat="36.693920135498" lon="-5.04219484329224">
        <ele>1308.22680664062</ele>
        <time>2018-07-28T09:23:19Z</time>
      </trkpt>
      <trkpt lat="36.6939125061035" lon="-5.04220199584961">
        <ele>1308.17407226562</ele>
        <time>2018-07-28T09:23:20Z</time>
      </trkpt>
      <trkpt lat="36.6939010620117" lon="-5.0422101020813">
        <ele>1308.08654785156</ele>
        <time>2018-07-28T09:23:21Z</time>
      </trkpt>
      <trkpt lat="36.6938896179199" lon="-5.04221820831299">
        <ele>1307.99731445312</ele>
        <time>2018-07-28T09:23:22Z</time>
      </trkpt>
      <trkpt lat="36.6938781738281" lon="-5.04222679138184">
        <ele>1307.90771484375</ele>
        <time>2018-07-28T09:23:23Z</time>
      </trkpt>
      <trkpt lat="36.6938667297363" lon="-5.04223489761353">
        <ele>1307.81530761719</ele>
        <time>2018-07-28T09:23:24Z</time>
      </trkpt>
      <trkpt lat="36.6938552856445" lon="-5.04224395751953">
        <ele>1307.72326660156</ele>
        <time>2018-07-28T09:23:25Z</time>
      </trkpt>
      <trkpt lat="36.69384765625" lon="-5.04225206375122">
        <ele>1307.66516113281</ele>
        <time>2018-07-28T09:23:26Z</time>
      </trkpt>
      <trkpt lat="36.6938362121582" lon="-5.04226207733154">
        <ele>1307.57177734375</ele>
        <time>2018-07-28T09:23:27Z</time>
      </trkpt>
      <trkpt lat="36.6938285827637" lon="-5.04227304458618">
        <ele>1307.5166015625</ele>
        <time>2018-07-28T09:23:28Z</time>
      </trkpt>
      <trkpt lat="36.6938171386719" lon="-5.0422830581665">
        <ele>1307.41943359375</ele>
        <time>2018-07-28T09:23:29Z</time>
      </trkpt>
      <trkpt lat="36.6938095092773" lon="-5.04229402542114">
        <ele>1307.36108398438</ele>
        <time>2018-07-28T09:23:30Z</time>
      </trkpt>
      <trkpt lat="36.6938018798828" lon="-5.04230403900146">
        <ele>1307.29956054688</ele>
        <time>2018-07-28T09:23:31Z</time>
      </trkpt>
      <trkpt lat="36.693790435791" lon="-5.04231309890747">
        <ele>1307.19567871094</ele>
        <time>2018-07-28T09:23:32Z</time>
      </trkpt>
      <trkpt lat="36.6937828063965" lon="-5.04232215881348">
        <ele>1307.1298828125</ele>
        <time>2018-07-28T09:23:33Z</time>
      </trkpt>
      <trkpt lat="36.6937713623047" lon="-5.0423321723938">
        <ele>1307.02392578125</ele>
        <time>2018-07-28T09:23:34Z</time>
      </trkpt>
      <trkpt lat="36.6937599182129" lon="-5.04234313964844">
        <ele>1306.91735839844</ele>
        <time>2018-07-28T09:23:35Z</time>
      </trkpt>
      <trkpt lat="36.6937522888184" lon="-5.04235410690308">
        <ele>1306.84948730469</ele>
        <time>2018-07-28T09:23:36Z</time>
      </trkpt>
      <trkpt lat="36.6937446594238" lon="-5.04236507415772">
        <ele>1306.7802734375</ele>
        <time>2018-07-28T09:23:37Z</time>
      </trkpt>
      <trkpt lat="36.693733215332" lon="-5.04237508773804">
        <ele>1306.66674804688</ele>
        <time>2018-07-28T09:23:38Z</time>
      </trkpt>
      <trkpt lat="36.6937255859375" lon="-5.04238605499268">
        <ele>1306.59436035156</ele>
        <time>2018-07-28T09:23:39Z</time>
      </trkpt>
      <trkpt lat="36.6937141418457" lon="-5.04239702224731">
        <ele>1306.47802734375</ele>
        <time>2018-07-28T09:23:40Z</time>
      </trkpt>
      <trkpt lat="36.6937065124512" lon="-5.04240798950195">
        <ele>1306.40234375</ele>
        <time>2018-07-28T09:23:41Z</time>
      </trkpt>
      <trkpt lat="36.6936988830566" lon="-5.04241895675659">
        <ele>1306.3251953125</ele>
        <time>2018-07-28T09:23:42Z</time>
      </trkpt>
      <trkpt lat="36.6936874389648" lon="-5.04242897033691">
        <ele>1306.20239257812</ele>
        <time>2018-07-28T09:23:43Z</time>
      </trkpt>
      <trkpt lat="36.6936798095703" lon="-5.04243993759155">
        <ele>1306.1220703125</ele>
        <time>2018-07-28T09:23:44Z</time>
      </trkpt>
      <trkpt lat="36.6936721801758" lon="-5.04245090484619">
        <ele>1306.04028320312</ele>
        <time>2018-07-28T09:23:45Z</time>
      </trkpt>
      <trkpt lat="36.6936645507812" lon="-5.04246187210083">
        <ele>1305.95703125</ele>
        <time>2018-07-28T09:23:46Z</time>
      </trkpt>
      <trkpt lat="36.6936569213867" lon="-5.04247379302978">
        <ele>1305.87268066406</ele>
        <time>2018-07-28T09:23:47Z</time>
      </trkpt>
      <trkpt lat="36.6936492919922" lon="-5.0424861907959">
        <ele>1305.78698730469</ele>
        <time>2018-07-28T09:23:48Z</time>
      </trkpt>
      <trkpt lat="36.6936416625977" lon="-5.04249811172485">
        <ele>1305.69946289062</ele>
        <time>2018-07-28T09:23:49Z</time>
      </trkpt>
      <trkpt lat="36.6936302185059" lon="-5.04250907897949">
        <ele>1305.64831542969</ele>
        <time>2018-07-28T09:23:50Z</time>
      </trkpt>
      <trkpt lat="36.6936225891113" lon="-5.04252099990845">
        <ele>1305.67053222656</ele>
        <time>2018-07-28T09:23:51Z</time>
      </trkpt>
      <trkpt lat="36.6936149597168" lon="-5.0425329208374">
        <ele>1305.69445800781</ele>
        <time>2018-07-28T09:23:52Z</time>
      </trkpt>
      <trkpt lat="36.6936073303223" lon="-5.04254484176636">
        <ele>1305.71984863281</ele>
        <time>2018-07-28T09:23:53Z</time>
      </trkpt>
      <trkpt lat="36.6935997009277" lon="-5.042555809021">
        <ele>1305.73767089844</ele>
        <time>2018-07-28T09:23:54Z</time>
      </trkpt>
      <trkpt lat="36.6935882568359" lon="-5.042564868927">
        <ele>1305.69458007812</ele>
        <time>2018-07-28T09:23:55Z</time>
      </trkpt>
      <trkpt lat="36.6935806274414" lon="-5.04257392883301">
        <ele>1305.69677734375</ele>
        <time>2018-07-28T09:23:56Z</time>
      </trkpt>
      <trkpt lat="36.6935691833496" lon="-5.04258298873901">
        <ele>1305.65698242188</ele>
        <time>2018-07-28T09:23:57Z</time>
      </trkpt>
      <trkpt lat="36.6935615539551" lon="-5.0425910949707">
        <ele>1305.65222167969</ele>
        <time>2018-07-28T09:23:58Z</time>
      </trkpt>
      <trkpt lat="36.6935501098633" lon="-5.04259777069092">
        <ele>1305.59143066406</ele>
        <time>2018-07-28T09:23:59Z</time>
      </trkpt>
      <trkpt lat="36.6935386657715" lon="-5.04260492324829">
        <ele>1305.53698730469</ele>
        <time>2018-07-28T09:24:00Z</time>
      </trkpt>
      <trkpt lat="36.693531036377" lon="-5.04261112213135">
        <ele>1305.51611328125</ele>
        <time>2018-07-28T09:24:01Z</time>
      </trkpt>
      <trkpt lat="36.6935195922852" lon="-5.04261589050293">
        <ele>1305.43933105469</ele>
        <time>2018-07-28T09:24:02Z</time>
      </trkpt>
      <trkpt lat="36.6935081481934" lon="-5.04262113571167">
        <ele>1305.36840820312</ele>
        <time>2018-07-28T09:24:03Z</time>
      </trkpt>
      <trkpt lat="36.6935005187988" lon="-5.04262495040894">
        <ele>1305.3251953125</ele>
        <time>2018-07-28T09:24:04Z</time>
      </trkpt>
      <trkpt lat="36.693489074707" lon="-5.0426287651062">
        <ele>1305.24084472656</ele>
        <time>2018-07-28T09:24:05Z</time>
      </trkpt>
      <trkpt lat="36.6934776306152" lon="-5.04263305664062">
        <ele>1305.16235351562</ele>
        <time>2018-07-28T09:24:06Z</time>
      </trkpt>
      <trkpt lat="36.6934661865234" lon="-5.04263687133789">
        <ele>1305.07958984375</ele>
        <time>2018-07-28T09:24:07Z</time>
      </trkpt>
      <trkpt lat="36.6934547424316" lon="-5.04264116287231">
        <ele>1305.00280761719</ele>
        <time>2018-07-28T09:24:08Z</time>
      </trkpt>
      <trkpt lat="36.6934432983398" lon="-5.04264497756958">
        <ele>1304.92150878906</ele>
        <time>2018-07-28T09:24:09Z</time>
      </trkpt>
      <trkpt lat="36.6934356689453" lon="-5.04265022277832">
        <ele>1304.89782714844</ele>
        <time>2018-07-28T09:24:10Z</time>
      </trkpt>
      <trkpt lat="36.6934242248535" lon="-5.04265403747559">
        <ele>1304.81823730469</ele>
        <time>2018-07-28T09:24:11Z</time>
      </trkpt>
      <trkpt lat="36.6934127807617" lon="-5.04265880584717">
        <ele>1304.75</ele>
        <time>2018-07-28T09:24:12Z</time>
      </trkpt>
      <trkpt lat="36.6934051513672" lon="-5.04266214370728">
        <ele>1304.70690917969</ele>
        <time>2018-07-28T09:24:13Z</time>
      </trkpt>
      <trkpt lat="36.6933937072754" lon="-5.04266500473022">
        <ele>1304.61853027344</ele>
        <time>2018-07-28T09:24:14Z</time>
      </trkpt>
      <trkpt lat="36.6933860778809" lon="-5.04266691207886">
        <ele>1304.55981445312</ele>
        <time>2018-07-28T09:24:15Z</time>
      </trkpt>
      <trkpt lat="36.6933746337891" lon="-5.04266977310181">
        <ele>1304.47229003906</ele>
        <time>2018-07-28T09:24:16Z</time>
      </trkpt>
      <trkpt lat="36.693359375" lon="-5.04267501831055">
        <ele>1304.37329101562</ele>
        <time>2018-07-28T09:24:17Z</time>
      </trkpt>
      <trkpt lat="36.6933517456055" lon="-5.04268407821655">
        <ele>1304.40063476562</ele>
        <time>2018-07-28T09:24:18Z</time>
      </trkpt>
      <trkpt lat="36.6933403015137" lon="-5.04269218444824">
        <ele>1304.37829589844</ele>
        <time>2018-07-28T09:24:19Z</time>
      </trkpt>
      <trkpt lat="36.6933288574219" lon="-5.04269981384277">
        <ele>1304.38488769531</ele>
        <time>2018-07-28T09:24:20Z</time>
      </trkpt>
      <trkpt lat="36.6933174133301" lon="-5.04270601272583">
        <ele>1304.42492675781</ele>
        <time>2018-07-28T09:24:21Z</time>
      </trkpt>
      <trkpt lat="36.6933059692383" lon="-5.04271221160889">
        <ele>1304.462890625</ele>
        <time>2018-07-28T09:24:22Z</time>
      </trkpt>
      <trkpt lat="36.6932983398438" lon="-5.0427188873291">
        <ele>1304.51635742188</ele>
        <time>2018-07-28T09:24:23Z</time>
      </trkpt>
      <trkpt lat="36.693286895752" lon="-5.04272603988647">
        <ele>1304.56127929688</ele>
        <time>2018-07-28T09:24:24Z</time>
      </trkpt>
      <trkpt lat="36.6932754516602" lon="-5.04273319244385">
        <ele>1304.60400390625</ele>
        <time>2018-07-28T09:24:25Z</time>
      </trkpt>
      <trkpt lat="36.6932678222656" lon="-5.04273891448975">
        <ele>1304.6416015625</ele>
        <time>2018-07-28T09:24:26Z</time>
      </trkpt>
      <trkpt lat="36.6932563781738" lon="-5.04274606704712">
        <ele>1304.68017578125</ele>
        <time>2018-07-28T09:24:27Z</time>
      </trkpt>
      <trkpt lat="36.6932487487793" lon="-5.04275321960449">
        <ele>1304.73022460938</ele>
        <time>2018-07-28T09:24:28Z</time>
      </trkpt>
      <trkpt lat="36.6932373046875" lon="-5.04275989532471">
        <ele>1304.75939941406</ele>
        <time>2018-07-28T09:24:29Z</time>
      </trkpt>
      <trkpt lat="36.6932258605957" lon="-5.04276704788208">
        <ele>1304.79125976562</ele>
        <time>2018-07-28T09:24:30Z</time>
      </trkpt>
      <trkpt lat="36.6932144165039" lon="-5.04277276992798">
        <ele>1304.80615234375</ele>
        <time>2018-07-28T09:24:31Z</time>
      </trkpt>
      <trkpt lat="36.6932029724121" lon="-5.04277801513672">
        <ele>1304.81433105469</ele>
        <time>2018-07-28T09:24:32Z</time>
      </trkpt>
      <trkpt lat="36.6931915283203" lon="-5.04278516769409">
        <ele>1304.83972167969</ele>
        <time>2018-07-28T09:24:33Z</time>
      </trkpt>
      <trkpt lat="36.6931800842285" lon="-5.04278993606567">
        <ele>1304.83935546875</ele>
        <time>2018-07-28T09:24:34Z</time>
      </trkpt>
      <trkpt lat="36.6931686401367" lon="-5.04279518127441">
        <ele>1304.84216308594</ele>
        <time>2018-07-28T09:24:35Z</time>
      </trkpt>
      <trkpt lat="36.6931610107422" lon="-5.04279804229736">
        <ele>1304.8369140625</ele>
        <time>2018-07-28T09:24:36Z</time>
      </trkpt>
      <trkpt lat="36.6931495666504" lon="-5.04280185699463">
        <ele>1304.82348632812</ele>
        <time>2018-07-28T09:24:37Z</time>
      </trkpt>
      <trkpt lat="36.6931381225586" lon="-5.04280614852905">
        <ele>1304.81323242188</ele>
        <time>2018-07-28T09:24:38Z</time>
      </trkpt>
      <trkpt lat="36.6931266784668" lon="-5.04280996322632">
        <ele>1304.79711914062</ele>
        <time>2018-07-28T09:24:39Z</time>
      </trkpt>
      <trkpt lat="36.693115234375" lon="-5.04281282424927">
        <ele>1304.771484375</ele>
        <time>2018-07-28T09:24:40Z</time>
      </trkpt>
      <trkpt lat="36.6931076049805" lon="-5.04281520843506">
        <ele>1304.75793457031</ele>
        <time>2018-07-28T09:24:41Z</time>
      </trkpt>
      <trkpt lat="36.6930961608887" lon="-5.04281711578369">
        <ele>1304.72229003906</ele>
        <time>2018-07-28T09:24:42Z</time>
      </trkpt>
      <trkpt lat="36.6930847167969" lon="-5.04282093048096">
        <ele>1304.70227050781</ele>
        <time>2018-07-28T09:24:43Z</time>
      </trkpt>
      <trkpt lat="36.6930732727051" lon="-5.04282379150391">
        <ele>1304.67297363281</ele>
        <time>2018-07-28T09:24:44Z</time>
      </trkpt>
      <trkpt lat="36.6930618286133" lon="-5.04282903671265">
        <ele>1304.66198730469</ele>
        <time>2018-07-28T09:24:45Z</time>
      </trkpt>
      <trkpt lat="36.6930465698242" lon="-5.0428318977356">
        <ele>1304.61218261719</ele>
        <time>2018-07-28T09:24:46Z</time>
      </trkpt>
      <trkpt lat="36.6930351257324" lon="-5.0428352355957">
        <ele>1304.58325195312</ele>
        <time>2018-07-28T09:24:47Z</time>
      </trkpt>
      <trkpt lat="36.6930236816406" lon="-5.04283809661865">
        <ele>1304.54956054688</ele>
        <time>2018-07-28T09:24:48Z</time>
      </trkpt>
      <trkpt lat="36.6930122375488" lon="-5.0428409576416">
        <ele>1304.51501464844</ele>
        <time>2018-07-28T09:24:49Z</time>
      </trkpt>
      <trkpt lat="36.693000793457" lon="-5.04284620285034">
        <ele>1304.49658203125</ele>
        <time>2018-07-28T09:24:50Z</time>
      </trkpt>
      <trkpt lat="36.6929893493652" lon="-5.04285001754761">
        <ele>1304.46643066406</ele>
        <time>2018-07-28T09:24:51Z</time>
      </trkpt>
      <trkpt lat="36.6929779052734" lon="-5.04285383224487">
        <ele>1304.43505859375</ele>
        <time>2018-07-28T09:24:52Z</time>
      </trkpt>
      <trkpt lat="36.6929702758789" lon="-5.0428581237793">
        <ele>1304.42517089844</ele>
        <time>2018-07-28T09:24:53Z</time>
      </trkpt>
      <trkpt lat="36.6929588317871" lon="-5.0428638458252">
        <ele>1304.40405273438</ele>
        <time>2018-07-28T09:24:54Z</time>
      </trkpt>
      <trkpt lat="36.6929473876953" lon="-5.04287099838257">
        <ele>1304.39013671875</ele>
        <time>2018-07-28T09:24:55Z</time>
      </trkpt>
      <trkpt lat="36.6929321289062" lon="-5.04287576675415">
        <ele>1304.33825683594</ele>
        <time>2018-07-28T09:24:56Z</time>
      </trkpt>
      <trkpt lat="36.6929244995117" lon="-5.04288101196289">
        <ele>1304.3291015625</ele>
        <time>2018-07-28T09:24:57Z</time>
      </trkpt>
      <trkpt lat="36.6929130554199" lon="-5.04288578033447">
        <ele>1304.29467773438</ele>
        <time>2018-07-28T09:24:58Z</time>
      </trkpt>
      <trkpt lat="36.6929054260254" lon="-5.0428900718689">
        <ele>1304.27734375</ele>
        <time>2018-07-28T09:24:59Z</time>
      </trkpt>
      <trkpt lat="36.6928939819336" lon="-5.04289388656616">
        <ele>1304.23461914062</ele>
        <time>2018-07-28T09:25:00Z</time>
      </trkpt>
      <trkpt lat="36.6928825378418" lon="-5.04289722442627">
        <ele>1304.18811035156</ele>
        <time>2018-07-28T09:25:01Z</time>
      </trkpt>
      <trkpt lat="36.6928672790527" lon="-5.04290199279785">
        <ele>1304.12609863281</ele>
        <time>2018-07-28T09:25:02Z</time>
      </trkpt>
      <trkpt lat="36.6928558349609" lon="-5.04290723800659">
        <ele>1304.08666992188</ele>
        <time>2018-07-28T09:25:03Z</time>
      </trkpt>
      <trkpt lat="36.6928443908691" lon="-5.04291200637817">
        <ele>1304.04321289062</ele>
        <time>2018-07-28T09:25:04Z</time>
      </trkpt>
      <trkpt lat="36.6928329467773" lon="-5.04291677474976">
        <ele>1303.99816894531</ele>
        <time>2018-07-28T09:25:05Z</time>
      </trkpt>
      <trkpt lat="36.6928215026856" lon="-5.04292106628418">
        <ele>1303.94934082031</ele>
        <time>2018-07-28T09:25:06Z</time>
      </trkpt>
      <trkpt lat="36.6928100585938" lon="-5.04292488098144">
        <ele>1303.89697265625</ele>
        <time>2018-07-28T09:25:07Z</time>
      </trkpt>
      <trkpt lat="36.692798614502" lon="-5.04292917251587">
        <ele>1303.84545898438</ele>
        <time>2018-07-28T09:25:08Z</time>
      </trkpt>
      <trkpt lat="36.6927909851074" lon="-5.04293394088745">
        <ele>1303.81823730469</ele>
        <time>2018-07-28T09:25:09Z</time>
      </trkpt>
      <trkpt lat="36.6927795410156" lon="-5.04293823242188">
        <ele>1303.76403808594</ele>
        <time>2018-07-28T09:25:10Z</time>
      </trkpt>
      <trkpt lat="36.6927680969238" lon="-5.04294204711914">
        <ele>1303.70654296875</ele>
        <time>2018-07-28T09:25:11Z</time>
      </trkpt>
      <trkpt lat="36.692756652832" lon="-5.04294395446777">
        <ele>1303.64074707031</ele>
        <time>2018-07-28T09:25:12Z</time>
      </trkpt>
      <trkpt lat="36.692741394043" lon="-5.04294586181641">
        <ele>1303.5498046875</ele>
        <time>2018-07-28T09:25:13Z</time>
      </trkpt>
      <trkpt lat="36.6927299499512" lon="-5.04294919967651">
        <ele>1303.48742675781</ele>
        <time>2018-07-28T09:25:14Z</time>
      </trkpt>
      <trkpt lat="36.6927185058594" lon="-5.0429539680481">
        <ele>1303.42834472656</ele>
        <time>2018-07-28T09:25:15Z</time>
      </trkpt>
      <trkpt lat="36.6927032470703" lon="-5.04295921325684">
        <ele>1303.34399414062</ele>
        <time>2018-07-28T09:25:16Z</time>
      </trkpt>
      <trkpt lat="36.6926918029785" lon="-5.04296398162842">
        <ele>1303.28149414062</ele>
        <time>2018-07-28T09:25:17Z</time>
      </trkpt>
      <trkpt lat="36.6926765441894" lon="-5.04297018051147">
        <ele>1303.1953125</ele>
        <time>2018-07-28T09:25:18Z</time>
      </trkpt>
      <trkpt lat="36.6926651000977" lon="-5.04297494888306">
        <ele>1303.12915039062</ele>
        <time>2018-07-28T09:25:19Z</time>
      </trkpt>
      <trkpt lat="36.6926536560059" lon="-5.04298114776611">
        <ele>1303.06457519531</ele>
        <time>2018-07-28T09:25:20Z</time>
      </trkpt>
      <trkpt lat="36.6926422119141" lon="-5.0429859161377">
        <ele>1302.9951171875</ele>
        <time>2018-07-28T09:25:21Z</time>
      </trkpt>
      <trkpt lat="36.6926307678223" lon="-5.04299020767212">
        <ele>1302.92309570312</ele>
        <time>2018-07-28T09:25:22Z</time>
      </trkpt>
      <trkpt lat="36.6926193237305" lon="-5.0429949760437">
        <ele>1302.85046386719</ele>
        <time>2018-07-28T09:25:23Z</time>
      </trkpt>
      <trkpt lat="36.6926078796387" lon="-5.04300117492676">
        <ele>1302.77856445312</ele>
        <time>2018-07-28T09:25:24Z</time>
      </trkpt>
      <trkpt lat="36.6925964355469" lon="-5.04300689697266">
        <ele>1302.70385742188</ele>
        <time>2018-07-28T09:25:25Z</time>
      </trkpt>
      <trkpt lat="36.6925888061523" lon="-5.04301404953003">
        <ele>1302.65734863281</ele>
        <time>2018-07-28T09:25:26Z</time>
      </trkpt>
      <trkpt lat="36.6925773620606" lon="-5.04301881790161">
        <ele>1302.57800292969</ele>
        <time>2018-07-28T09:25:27Z</time>
      </trkpt>
      <trkpt lat="36.6925621032715" lon="-5.04302406311035">
        <ele>1302.46862792969</ele>
        <time>2018-07-28T09:25:28Z</time>
      </trkpt>
      <trkpt lat="36.6925506591797" lon="-5.04302883148193">
        <ele>1302.3857421875</ele>
        <time>2018-07-28T09:25:29Z</time>
      </trkpt>
      <trkpt lat="36.6925354003906" lon="-5.04303503036499">
        <ele>1302.27270507812</ele>
        <time>2018-07-28T09:25:30Z</time>
      </trkpt>
      <trkpt lat="36.6925239562988" lon="-5.04304122924805">
        <ele>1302.18676757812</ele>
        <time>2018-07-28T09:25:31Z</time>
      </trkpt>
      <trkpt lat="36.692512512207" lon="-5.04304790496826">
        <ele>1302.09875488281</ele>
        <time>2018-07-28T09:25:32Z</time>
      </trkpt>
      <trkpt lat="36.6925010681152" lon="-5.04305505752564">
        <ele>1302.00854492188</ele>
        <time>2018-07-28T09:25:33Z</time>
      </trkpt>
      <trkpt lat="36.6924858093262" lon="-5.04306221008301">
        <ele>1301.93664550781</ele>
        <time>2018-07-28T09:25:34Z</time>
      </trkpt>
      <trkpt lat="36.6924743652344" lon="-5.04306983947754">
        <ele>1301.88354492188</ele>
        <time>2018-07-28T09:25:35Z</time>
      </trkpt>
      <trkpt lat="36.6924629211426" lon="-5.04307794570923">
        <ele>1301.82849121094</ele>
        <time>2018-07-28T09:25:36Z</time>
      </trkpt>
      <trkpt lat="36.6924514770508" lon="-5.04308700561523">
        <ele>1301.77111816406</ele>
        <time>2018-07-28T09:25:37Z</time>
      </trkpt>
      <trkpt lat="36.6924362182617" lon="-5.04309511184692">
        <ele>1301.69396972656</ele>
        <time>2018-07-28T09:25:38Z</time>
      </trkpt>
      <trkpt lat="36.6924247741699" lon="-5.04310321807861">
        <ele>1301.6328125</ele>
        <time>2018-07-28T09:25:39Z</time>
      </trkpt>
      <trkpt lat="36.6924133300781" lon="-5.04311084747314">
        <ele>1301.5703125</ele>
        <time>2018-07-28T09:25:40Z</time>
      </trkpt>
      <trkpt lat="36.6924057006836" lon="-5.04311990737915">
        <ele>1301.52392578125</ele>
        <time>2018-07-28T09:25:41Z</time>
      </trkpt>
      <trkpt lat="36.6923904418945" lon="-5.04312896728516">
        <ele>1301.43688964844</ele>
        <time>2018-07-28T09:25:42Z</time>
      </trkpt>
      <trkpt lat="36.6923789978027" lon="-5.04313611984253">
        <ele>1301.36938476562</ele>
        <time>2018-07-28T09:25:43Z</time>
      </trkpt>
      <trkpt lat="36.6923637390137" lon="-5.04314184188843">
        <ele>1301.28198242188</ele>
        <time>2018-07-28T09:25:44Z</time>
      </trkpt>
      <trkpt lat="36.6923522949219" lon="-5.0431489944458">
        <ele>1301.2109375</ele>
        <time>2018-07-28T09:25:45Z</time>
      </trkpt>
      <trkpt lat="36.6923408508301" lon="-5.04315710067749">
        <ele>1301.13684082031</ele>
        <time>2018-07-28T09:25:46Z</time>
      </trkpt>
      <trkpt lat="36.692325592041" lon="-5.0431637763977">
        <ele>1301.04235839844</ele>
        <time>2018-07-28T09:25:47Z</time>
      </trkpt>
      <trkpt lat="36.6923141479492" lon="-5.04317188262939">
        <ele>1300.96435546875</ele>
        <time>2018-07-28T09:25:48Z</time>
      </trkpt>
      <trkpt lat="36.6923027038574" lon="-5.0431809425354">
        <ele>1300.88256835938</ele>
        <time>2018-07-28T09:25:49Z</time>
      </trkpt>
      <trkpt lat="36.6922912597656" lon="-5.04319095611572">
        <ele>1300.79663085938</ele>
        <time>2018-07-28T09:25:50Z</time>
      </trkpt>
      <trkpt lat="36.6922836303711" lon="-5.04320001602173">
        <ele>1300.73291015625</ele>
        <time>2018-07-28T09:25:51Z</time>
      </trkpt>
      <trkpt lat="36.692268371582" lon="-5.04321002960205">
        <ele>1300.6201171875</ele>
        <time>2018-07-28T09:25:52Z</time>
      </trkpt>
      <trkpt lat="36.6922607421875" lon="-5.04321813583374">
        <ele>1300.55517578125</ele>
        <time>2018-07-28T09:25:53Z</time>
      </trkpt>
      <trkpt lat="36.6922492980957" lon="-5.04322814941406">
        <ele>1300.46069335938</ele>
        <time>2018-07-28T09:25:54Z</time>
      </trkpt>
      <trkpt lat="36.6922416687012" lon="-5.04323720932007">
        <ele>1300.39025878906</ele>
        <time>2018-07-28T09:25:55Z</time>
      </trkpt>
      <trkpt lat="36.6922340393066" lon="-5.04324722290039">
        <ele>1300.31591796875</ele>
        <time>2018-07-28T09:25:56Z</time>
      </trkpt>
      <trkpt lat="36.6922225952148" lon="-5.04325485229492">
        <ele>1300.22216796875</ele>
        <time>2018-07-28T09:25:57Z</time>
      </trkpt>
      <trkpt lat="36.6922149658203" lon="-5.04326486587524">
        <ele>1300.14453125</ele>
        <time>2018-07-28T09:25:58Z</time>
      </trkpt>
      <trkpt lat="36.6922073364258" lon="-5.04327487945557">
        <ele>1300.06530761719</ele>
        <time>2018-07-28T09:25:59Z</time>
      </trkpt>
      <trkpt lat="36.6921997070312" lon="-5.04328680038452">
        <ele>1299.97875976562</ele>
        <time>2018-07-28T09:26:00Z</time>
      </trkpt>
      <trkpt lat="36.6921882629394" lon="-5.04329681396484">
        <ele>1299.87023925781</ele>
        <time>2018-07-28T09:26:01Z</time>
      </trkpt>
      <trkpt lat="36.6921806335449" lon="-5.04330396652222">
        <ele>1299.79504394531</ele>
        <time>2018-07-28T09:26:02Z</time>
      </trkpt>
      <trkpt lat="36.6921691894531" lon="-5.04330921173096">
        <ele>1299.69860839844</ele>
        <time>2018-07-28T09:26:03Z</time>
      </trkpt>
      <trkpt lat="36.6921577453613" lon="-5.04331684112549">
        <ele>1299.59265136719</ele>
        <time>2018-07-28T09:26:04Z</time>
      </trkpt>
      <trkpt lat="36.6921463012695" lon="-5.04332780838013">
        <ele>1299.47302246094</ele>
        <time>2018-07-28T09:26:05Z</time>
      </trkpt>
      <trkpt lat="36.6921348571777" lon="-5.04333877563477">
        <ele>1299.37915039062</ele>
        <time>2018-07-28T09:26:06Z</time>
      </trkpt>
      <trkpt lat="36.6921272277832" lon="-5.04335021972656">
        <ele>1299.34057617188</ele>
        <time>2018-07-28T09:26:07Z</time>
      </trkpt>
      <trkpt lat="36.6921157836914" lon="-5.04335880279541">
        <ele>1299.26892089844</ele>
        <time>2018-07-28T09:26:08Z</time>
      </trkpt>
      <trkpt lat="36.6921043395996" lon="-5.04336977005005">
        <ele>1299.19934082031</ele>
        <time>2018-07-28T09:26:09Z</time>
      </trkpt>
      <trkpt lat="36.6920967102051" lon="-5.04338312149048">
        <ele>1299.15991210938</ele>
        <time>2018-07-28T09:26:10Z</time>
      </trkpt>
      <trkpt lat="36.6920890808106" lon="-5.04339504241943">
        <ele>1299.11743164062</ele>
        <time>2018-07-28T09:26:11Z</time>
      </trkpt>
      <trkpt lat="36.6920852661133" lon="-5.04340696334839">
        <ele>1299.10314941406</ele>
        <time>2018-07-28T09:26:12Z</time>
      </trkpt>
      <trkpt lat="36.692081451416" lon="-5.04341793060303">
        <ele>1299.08703613281</ele>
        <time>2018-07-28T09:26:13Z</time>
      </trkpt>
      <trkpt lat="36.6920738220215" lon="-5.04342985153198">
        <ele>1299.0419921875</ele>
        <time>2018-07-28T09:26:14Z</time>
      </trkpt>
      <trkpt lat="36.692066192627" lon="-5.04344177246094">
        <ele>1298.99597167969</ele>
        <time>2018-07-28T09:26:15Z</time>
      </trkpt>
      <trkpt lat="36.6920585632324" lon="-5.04345417022705">
        <ele>1298.94946289062</ele>
        <time>2018-07-28T09:26:16Z</time>
      </trkpt>
      <trkpt lat="36.6920471191406" lon="-5.04346704483032">
        <ele>1298.87182617188</ele>
        <time>2018-07-28T09:26:17Z</time>
      </trkpt>
      <trkpt lat="36.6920433044434" lon="-5.04347801208496">
        <ele>1298.85205078125</ele>
        <time>2018-07-28T09:26:18Z</time>
      </trkpt>
      <trkpt lat="36.6920356750488" lon="-5.04348611831665">
        <ele>1298.79821777344</ele>
        <time>2018-07-28T09:26:19Z</time>
      </trkpt>
      <trkpt lat="36.6920280456543" lon="-5.04349803924561">
        <ele>1298.7470703125</ele>
        <time>2018-07-28T09:26:20Z</time>
      </trkpt>
      <trkpt lat="36.6920204162598" lon="-5.04351377487183">
        <ele>1298.69812011719</ele>
        <time>2018-07-28T09:26:21Z</time>
      </trkpt>
      <trkpt lat="36.6920127868652" lon="-5.04353189468384">
        <ele>1298.64965820312</ele>
        <time>2018-07-28T09:26:22Z</time>
      </trkpt>
      <trkpt lat="36.6920051574707" lon="-5.0435471534729">
        <ele>1298.59741210938</ele>
        <time>2018-07-28T09:26:23Z</time>
      </trkpt>
      <trkpt lat="36.6919975280762" lon="-5.0435619354248">
        <ele>1298.54357910156</ele>
        <time>2018-07-28T09:26:24Z</time>
      </trkpt>
      <trkpt lat="36.6919898986816" lon="-5.04357814788818">
        <ele>1298.4892578125</ele>
        <time>2018-07-28T09:26:25Z</time>
      </trkpt>
      <trkpt lat="36.6919822692871" lon="-5.0435938835144">
        <ele>1298.43334960938</ele>
        <time>2018-07-28T09:26:26Z</time>
      </trkpt>
      <trkpt lat="36.6919784545898" lon="-5.0436110496521">
        <ele>1298.41040039062</ele>
        <time>2018-07-28T09:26:27Z</time>
      </trkpt>
      <trkpt lat="36.6919746398926" lon="-5.04362678527832">
        <ele>1298.38586425781</ele>
        <time>2018-07-28T09:26:28Z</time>
      </trkpt>
      <trkpt lat="36.691967010498" lon="-5.0436429977417">
        <ele>1298.32653808594</ele>
        <time>2018-07-28T09:26:29Z</time>
      </trkpt>
      <trkpt lat="36.6919631958008" lon="-5.04365921020508">
        <ele>1298.30053710938</ele>
        <time>2018-07-28T09:26:30Z</time>
      </trkpt>
      <trkpt lat="36.6919555664062" lon="-5.04367399215698">
        <ele>1298.23815917969</ele>
        <time>2018-07-28T09:26:31Z</time>
      </trkpt>
      <trkpt lat="36.691951751709" lon="-5.04368877410889">
        <ele>1298.20971679688</ele>
        <time>2018-07-28T09:26:32Z</time>
      </trkpt>
      <trkpt lat="36.6919441223144" lon="-5.04370403289795">
        <ele>1298.14526367188</ele>
        <time>2018-07-28T09:26:33Z</time>
      </trkpt>
      <trkpt lat="36.6919403076172" lon="-5.04371786117554">
        <ele>1298.11486816406</ele>
        <time>2018-07-28T09:26:34Z</time>
      </trkpt>
      <trkpt lat="36.6919364929199" lon="-5.0437331199646">
        <ele>1298.08435058594</ele>
        <time>2018-07-28T09:26:35Z</time>
      </trkpt>
      <trkpt lat="36.6919288635254" lon="-5.04374408721924">
        <ele>1298.01525878906</ele>
        <time>2018-07-28T09:26:36Z</time>
      </trkpt>
      <trkpt lat="36.6919250488281" lon="-5.04375314712524">
        <ele>1297.98132324219</ele>
        <time>2018-07-28T09:26:37Z</time>
      </trkpt>
      <trkpt lat="36.6919212341309" lon="-5.04376220703125">
        <ele>1297.94714355469</ele>
        <time>2018-07-28T09:26:38Z</time>
      </trkpt>
      <trkpt lat="36.6919136047363" lon="-5.04376983642578">
        <ele>1297.875</ele>
        <time>2018-07-28T09:26:39Z</time>
      </trkpt>
      <trkpt lat="36.6919021606445" lon="-5.04378223419189">
        <ele>1297.76574707031</ele>
        <time>2018-07-28T09:26:40Z</time>
      </trkpt>
      <trkpt lat="36.69189453125" lon="-5.0437970161438">
        <ele>1297.69274902344</ele>
        <time>2018-07-28T09:26:41Z</time>
      </trkpt>
      <trkpt lat="36.6918830871582" lon="-5.04381418228149">
        <ele>1297.58056640625</ele>
        <time>2018-07-28T09:26:42Z</time>
      </trkpt>
      <trkpt lat="36.6918754577637" lon="-5.04382801055908">
        <ele>1297.50463867188</ele>
        <time>2018-07-28T09:26:43Z</time>
      </trkpt>
      <trkpt lat="36.6918716430664" lon="-5.04383993148804">
        <ele>1297.46606445312</ele>
        <time>2018-07-28T09:26:44Z</time>
      </trkpt>
      <trkpt lat="36.6918601989746" lon="-5.04385185241699">
        <ele>1297.34924316406</ele>
        <time>2018-07-28T09:26:45Z</time>
      </trkpt>
      <trkpt lat="36.6918525695801" lon="-5.04386377334595">
        <ele>1297.27001953125</ele>
        <time>2018-07-28T09:26:46Z</time>
      </trkpt>
      <trkpt lat="36.6918411254883" lon="-5.04387521743774">
        <ele>1297.150390625</ele>
        <time>2018-07-28T09:26:47Z</time>
      </trkpt>
      <trkpt lat="36.691837310791" lon="-5.0438871383667">
        <ele>1297.1083984375</ele>
        <time>2018-07-28T09:26:48Z</time>
      </trkpt>
      <trkpt lat="36.6918296813965" lon="-5.04389905929565">
        <ele>1297.02600097656</ele>
        <time>2018-07-28T09:26:49Z</time>
      </trkpt>
      <trkpt lat="36.691822052002" lon="-5.04391098022461">
        <ele>1296.94262695312</ele>
        <time>2018-07-28T09:26:50Z</time>
      </trkpt>
      <trkpt lat="36.6918106079102" lon="-5.04392385482788">
        <ele>1296.8173828125</ele>
        <time>2018-07-28T09:26:51Z</time>
      </trkpt>
      <trkpt lat="36.6918029785156" lon="-5.0439338684082">
        <ele>1296.73229980469</ele>
        <time>2018-07-28T09:26:52Z</time>
      </trkpt>
      <trkpt lat="36.6917953491211" lon="-5.04394388198853">
        <ele>1296.64636230469</ele>
        <time>2018-07-28T09:26:53Z</time>
      </trkpt>
      <trkpt lat="36.6917877197266" lon="-5.04395294189453">
        <ele>1296.56005859375</ele>
        <time>2018-07-28T09:26:54Z</time>
      </trkpt>
      <trkpt lat="36.691780090332" lon="-5.04396104812622">
        <ele>1296.47351074219</ele>
        <time>2018-07-28T09:26:55Z</time>
      </trkpt>
      <trkpt lat="36.6917686462402" lon="-5.04397010803223">
        <ele>1296.34411621094</ele>
        <time>2018-07-28T09:26:56Z</time>
      </trkpt>
      <trkpt lat="36.6917572021484" lon="-5.04397583007812">
        <ele>1296.21594238281</ele>
        <time>2018-07-28T09:26:57Z</time>
      </trkpt>
      <trkpt lat="36.6917457580566" lon="-5.04398488998413">
        <ele>1296.08447265625</ele>
        <time>2018-07-28T09:26:58Z</time>
      </trkpt>
      <trkpt lat="36.6917343139648" lon="-5.04399299621582">
        <ele>1295.95251464844</ele>
        <time>2018-07-28T09:26:59Z</time>
      </trkpt>
      <trkpt lat="36.6917190551758" lon="-5.04400014877319">
        <ele>1295.77819824219</ele>
        <time>2018-07-28T09:27:00Z</time>
      </trkpt>
      <trkpt lat="36.6917114257812" lon="-5.04400587081909">
        <ele>1295.68859863281</ele>
        <time>2018-07-28T09:27:01Z</time>
      </trkpt>
      <trkpt lat="36.6917037963867" lon="-5.04401111602783">
        <ele>1295.59899902344</ele>
        <time>2018-07-28T09:27:02Z</time>
      </trkpt>
      <trkpt lat="36.6916961669922" lon="-5.04401779174805">
        <ele>1295.50732421875</ele>
        <time>2018-07-28T09:27:03Z</time>
      </trkpt>
      <trkpt lat="36.6916885375977" lon="-5.04402494430542">
        <ele>1295.41467285156</ele>
        <time>2018-07-28T09:27:04Z</time>
      </trkpt>
      <trkpt lat="36.6916809082031" lon="-5.04403305053711">
        <ele>1295.3203125</ele>
        <time>2018-07-28T09:27:05Z</time>
      </trkpt>
      <trkpt lat="36.6916770935059" lon="-5.0440411567688">
        <ele>1295.26818847656</ele>
        <time>2018-07-28T09:27:06Z</time>
      </trkpt>
      <trkpt lat="36.6916694641113" lon="-5.04404783248901">
        <ele>1295.17431640625</ele>
        <time>2018-07-28T09:27:07Z</time>
      </trkpt>
      <trkpt lat="36.6916580200195" lon="-5.04405403137207">
        <ele>1295.09924316406</ele>
        <time>2018-07-28T09:27:08Z</time>
      </trkpt>
      <trkpt lat="36.6916465759277" lon="-5.04405879974365">
        <ele>1295.04553222656</ele>
        <time>2018-07-28T09:27:09Z</time>
      </trkpt>
      <trkpt lat="36.6916351318359" lon="-5.04406309127808">
        <ele>1294.99169921875</ele>
        <time>2018-07-28T09:27:10Z</time>
      </trkpt>
      <trkpt lat="36.6916236877441" lon="-5.04406499862671">
        <ele>1294.94091796875</ele>
        <time>2018-07-28T09:27:11Z</time>
      </trkpt>
      <trkpt lat="36.6916084289551" lon="-5.04406881332397">
        <ele>1294.87072753906</ele>
        <time>2018-07-28T09:27:12Z</time>
      </trkpt>
      <trkpt lat="36.6915969848633" lon="-5.0440731048584">
        <ele>1294.81530761719</ele>
        <time>2018-07-28T09:27:13Z</time>
      </trkpt>
      <trkpt lat="36.6915817260742" lon="-5.04407978057861">
        <ele>1294.73901367188</ele>
        <time>2018-07-28T09:27:14Z</time>
      </trkpt>
      <trkpt lat="36.6915702819824" lon="-5.0440878868103">
        <ele>1294.67565917969</ele>
        <time>2018-07-28T09:27:15Z</time>
      </trkpt>
      <trkpt lat="36.6915626525879" lon="-5.04409599304199">
        <ele>1294.6279296875</ele>
        <time>2018-07-28T09:27:16Z</time>
      </trkpt>
      <trkpt lat="36.6915550231934" lon="-5.04410314559936">
        <ele>1294.58117675781</ele>
        <time>2018-07-28T09:27:17Z</time>
      </trkpt>
      <trkpt lat="36.6915435791016" lon="-5.04410982131958">
        <ele>1294.51770019531</ele>
        <time>2018-07-28T09:27:18Z</time>
      </trkpt>
      <trkpt lat="36.6915321350098" lon="-5.04411888122559">
        <ele>1294.44860839844</ele>
        <time>2018-07-28T09:27:19Z</time>
      </trkpt>
      <trkpt lat="36.6915168762207" lon="-5.04412794113159">
        <ele>1294.36083984375</ele>
        <time>2018-07-28T09:27:20Z</time>
      </trkpt>
      <trkpt lat="36.6915016174316" lon="-5.0441370010376">
        <ele>1294.27160644531</ele>
        <time>2018-07-28T09:27:21Z</time>
      </trkpt>
      <trkpt lat="36.6914863586426" lon="-5.04414701461792">
        <ele>1294.17846679688</ele>
        <time>2018-07-28T09:27:22Z</time>
      </trkpt>
      <trkpt lat="36.6914710998535" lon="-5.04415607452393">
        <ele>1294.0859375</ele>
        <time>2018-07-28T09:27:23Z</time>
      </trkpt>
      <trkpt lat="36.6914596557617" lon="-5.04416513442993">
        <ele>1294.01000976562</ele>
        <time>2018-07-28T09:27:24Z</time>
      </trkpt>
      <trkpt lat="36.6914443969727" lon="-5.04417419433594">
        <ele>1293.95483398438</ele>
        <time>2018-07-28T09:27:25Z</time>
      </trkpt>
      <trkpt lat="36.6914291381836" lon="-5.04418087005615">
        <ele>1293.89892578125</ele>
        <time>2018-07-28T09:27:26Z</time>
      </trkpt>
      <trkpt lat="36.6914215087891" lon="-5.04418706893921">
        <ele>1293.8779296875</ele>
        <time>2018-07-28T09:27:27Z</time>
      </trkpt>
      <trkpt lat="36.6914100646973" lon="-5.04419183731079">
        <ele>1293.83337402344</ele>
        <time>2018-07-28T09:27:28Z</time>
      </trkpt>
      <trkpt lat="36.6913986206055" lon="-5.04419803619385">
        <ele>1293.79125976562</ele>
        <time>2018-07-28T09:27:29Z</time>
      </trkpt>
      <trkpt lat="36.6913871765137" lon="-5.04420185089111">
        <ele>1293.74230957031</ele>
        <time>2018-07-28T09:27:30Z</time>
      </trkpt>
      <trkpt lat="36.6913757324219" lon="-5.04420804977417">
        <ele>1293.69812011719</ele>
        <time>2018-07-28T09:27:31Z</time>
      </trkpt>
      <trkpt lat="36.6913642883301" lon="-5.04420804977417">
        <ele>1293.63916015625</ele>
        <time>2018-07-28T09:27:32Z</time>
      </trkpt>
      <trkpt lat="36.6913528442383" lon="-5.04420804977417">
        <ele>1293.580078125</ele>
        <time>2018-07-28T09:27:33Z</time>
      </trkpt>
      <trkpt lat="36.6913452148438" lon="-5.04420518875122">
        <ele>1293.53491210938</ele>
        <time>2018-07-28T09:27:34Z</time>
      </trkpt>
      <trkpt lat="36.691333770752" lon="-5.04420614242554">
        <ele>1293.47802734375</ele>
        <time>2018-07-28T09:27:35Z</time>
      </trkpt>
      <trkpt lat="36.6913185119629" lon="-5.04420709609985">
        <ele>1293.40124511719</ele>
        <time>2018-07-28T09:27:36Z</time>
      </trkpt>
      <trkpt lat="36.6912994384766" lon="-5.04420900344849">
        <ele>1293.30615234375</ele>
        <time>2018-07-28T09:27:37Z</time>
      </trkpt>
      <trkpt lat="36.6912841796875" lon="-5.04420900344849">
        <ele>1293.22741699219</ele>
        <time>2018-07-28T09:27:38Z</time>
      </trkpt>
      <trkpt lat="36.6912689208984" lon="-5.0442099571228">
        <ele>1293.14990234375</ele>
        <time>2018-07-28T09:27:39Z</time>
      </trkpt>
      <trkpt lat="36.6912574768066" lon="-5.0442099571228">
        <ele>1293.09057617188</ele>
        <time>2018-07-28T09:27:40Z</time>
      </trkpt>
      <trkpt lat="36.6912498474121" lon="-5.0442099571228">
        <ele>1293.05114746094</ele>
        <time>2018-07-28T09:27:41Z</time>
      </trkpt>
      <trkpt lat="36.6912384033203" lon="-5.04421091079712">
        <ele>1292.99304199219</ele>
        <time>2018-07-28T09:27:42Z</time>
      </trkpt>
      <trkpt lat="36.6912269592285" lon="-5.04421186447144">
        <ele>1292.93469238281</ele>
        <time>2018-07-28T09:27:43Z</time>
      </trkpt>
      <trkpt lat="36.6912155151367" lon="-5.04421377182007">
        <ele>1292.876953125</ele>
        <time>2018-07-28T09:27:44Z</time>
      </trkpt>
      <trkpt lat="36.6912002563477" lon="-5.04421806335449">
        <ele>1292.80078125</ele>
        <time>2018-07-28T09:27:45Z</time>
      </trkpt>
      <trkpt lat="36.6911849975586" lon="-5.04422187805176">
        <ele>1292.72326660156</ele>
        <time>2018-07-28T09:27:46Z</time>
      </trkpt>
      <trkpt lat="36.6911697387695" lon="-5.04422616958618">
        <ele>1292.64489746094</ele>
        <time>2018-07-28T09:27:47Z</time>
      </trkpt>
      <trkpt lat="36.6911582946777" lon="-5.04423189163208">
        <ele>1292.58642578125</ele>
        <time>2018-07-28T09:27:48Z</time>
      </trkpt>
      <trkpt lat="36.6911468505859" lon="-5.04423809051514">
        <ele>1292.52697753906</ele>
        <time>2018-07-28T09:27:49Z</time>
      </trkpt>
      <trkpt lat="36.6911315917969" lon="-5.04424715042114">
        <ele>1292.44592285156</ele>
        <time>2018-07-28T09:27:50Z</time>
      </trkpt>
      <trkpt lat="36.6911163330078" lon="-5.04425382614136">
        <ele>1292.3623046875</ele>
        <time>2018-07-28T09:27:51Z</time>
      </trkpt>
      <trkpt lat="36.691104888916" lon="-5.04426097869873">
        <ele>1292.29833984375</ele>
        <time>2018-07-28T09:27:52Z</time>
      </trkpt>
      <trkpt lat="36.6910934448242" lon="-5.04427003860474">
        <ele>1292.23278808594</ele>
        <time>2018-07-28T09:27:53Z</time>
      </trkpt>
      <trkpt lat="36.6910858154297" lon="-5.04428195953369">
        <ele>1292.18676757812</ele>
        <time>2018-07-28T09:27:54Z</time>
      </trkpt>
      <trkpt lat="36.6910743713379" lon="-5.04429388046265">
        <ele>1292.11657714844</ele>
        <time>2018-07-28T09:27:55Z</time>
      </trkpt>
      <trkpt lat="36.6910667419434" lon="-5.04430389404297">
        <ele>1292.06774902344</ele>
        <time>2018-07-28T09:27:56Z</time>
      </trkpt>
      <trkpt lat="36.6910514831543" lon="-5.04431295394897">
        <ele>1291.97180175781</ele>
        <time>2018-07-28T09:27:57Z</time>
      </trkpt>
      <trkpt lat="36.6910400390625" lon="-5.04432201385498">
        <ele>1291.89685058594</ele>
        <time>2018-07-28T09:27:58Z</time>
      </trkpt>
      <trkpt lat="36.6910247802734" lon="-5.04433012008667">
        <ele>1291.79699707031</ele>
        <time>2018-07-28T09:27:59Z</time>
      </trkpt>
      <trkpt lat="36.6910133361816" lon="-5.04433917999268">
        <ele>1291.71826171875</ele>
        <time>2018-07-28T09:28:00Z</time>
      </trkpt>
      <trkpt lat="36.6909980773926" lon="-5.044349193573">
        <ele>1291.61254882812</ele>
        <time>2018-07-28T09:28:01Z</time>
      </trkpt>
      <trkpt lat="36.6909828186035" lon="-5.04436016082764">
        <ele>1291.50305175781</ele>
        <time>2018-07-28T09:28:02Z</time>
      </trkpt>
      <trkpt lat="36.6909713745117" lon="-5.04436922073364">
        <ele>1291.41809082031</ele>
        <time>2018-07-28T09:28:03Z</time>
      </trkpt>
      <trkpt lat="36.6909561157227" lon="-5.04437685012817">
        <ele>1291.30786132812</ele>
        <time>2018-07-28T09:28:04Z</time>
      </trkpt>
      <trkpt lat="36.6909484863281" lon="-5.04438400268555">
        <ele>1291.24731445312</ele>
        <time>2018-07-28T09:28:05Z</time>
      </trkpt>
      <trkpt lat="36.6909370422363" lon="-5.04439306259155">
        <ele>1291.15734863281</ele>
        <time>2018-07-28T09:28:06Z</time>
      </trkpt>
      <trkpt lat="36.6909294128418" lon="-5.04440498352051">
        <ele>1291.08703613281</ele>
        <time>2018-07-28T09:28:07Z</time>
      </trkpt>
      <trkpt lat="36.6909255981445" lon="-5.0444188117981">
        <ele>1291.03869628906</ele>
        <time>2018-07-28T09:28:08Z</time>
      </trkpt>
      <trkpt lat="36.6909217834473" lon="-5.04443407058716">
        <ele>1290.98718261719</ele>
        <time>2018-07-28T09:28:09Z</time>
      </trkpt>
      <trkpt lat="36.69091796875" lon="-5.04444789886475">
        <ele>1290.93688964844</ele>
        <time>2018-07-28T09:28:10Z</time>
      </trkpt>
      <trkpt lat="36.6909141540527" lon="-5.04445886611938">
        <ele>1290.89074707031</ele>
        <time>2018-07-28T09:28:11Z</time>
      </trkpt>
      <trkpt lat="36.6909103393555" lon="-5.04446792602539">
        <ele>1290.84704589844</ele>
        <time>2018-07-28T09:28:12Z</time>
      </trkpt>
      <trkpt lat="36.6909065246582" lon="-5.04447889328003">
        <ele>1290.79943847656</ele>
        <time>2018-07-28T09:28:13Z</time>
      </trkpt>
      <trkpt lat="36.6909027099609" lon="-5.04449081420898">
        <ele>1290.74938964844</ele>
        <time>2018-07-28T09:28:14Z</time>
      </trkpt>
      <trkpt lat="36.6908988952637" lon="-5.04450988769531">
        <ele>1290.68542480469</ele>
        <time>2018-07-28T09:28:15Z</time>
      </trkpt>
      <trkpt lat="36.6908988952637" lon="-5.04452896118164">
        <ele>1290.650390625</ele>
        <time>2018-07-28T09:28:16Z</time>
      </trkpt>
      <trkpt lat="36.6909027099609" lon="-5.04454708099365">
        <ele>1290.64807128906</ele>
        <time>2018-07-28T09:28:17Z</time>
      </trkpt>
      <trkpt lat="36.6909027099609" lon="-5.04456090927124">
        <ele>1290.62316894531</ele>
        <time>2018-07-28T09:28:18Z</time>
      </trkpt>
      <trkpt lat="36.6909027099609" lon="-5.04457378387451">
        <ele>1290.59997558594</ele>
        <time>2018-07-28T09:28:19Z</time>
      </trkpt>
      <trkpt lat="36.6909027099609" lon="-5.04458618164062">
        <ele>1290.57763671875</ele>
        <time>2018-07-28T09:28:20Z</time>
      </trkpt>
      <trkpt lat="36.6909027099609" lon="-5.04459619522095">
        <ele>1290.5595703125</ele>
        <time>2018-07-28T09:28:21Z</time>
      </trkpt>
      <trkpt lat="36.6908988952637" lon="-5.04460716247559">
        <ele>1290.50708007812</ele>
        <time>2018-07-28T09:28:22Z</time>
      </trkpt>
      <trkpt lat="36.6908988952637" lon="-5.04461717605591">
        <ele>1290.48864746094</ele>
        <time>2018-07-28T09:28:23Z</time>
      </trkpt>
      <trkpt lat="36.6908988952637" lon="-5.04462814331055">
        <ele>1290.46850585938</ele>
        <time>2018-07-28T09:28:24Z</time>
      </trkpt>
      <trkpt lat="36.6908988952637" lon="-5.04463815689087">
        <ele>1290.4501953125</ele>
        <time>2018-07-28T09:28:25Z</time>
      </trkpt>
      <trkpt lat="36.6908988952637" lon="-5.0446457862854">
        <ele>1290.43615722656</ele>
        <time>2018-07-28T09:28:26Z</time>
      </trkpt>
      <trkpt lat="36.6909027099609" lon="-5.04465103149414">
        <ele>1290.46081542969</ele>
        <time>2018-07-28T09:28:27Z</time>
      </trkpt>
      <trkpt lat="36.6909065246582" lon="-5.04465389251709">
        <ele>1290.49011230469</ele>
        <time>2018-07-28T09:28:28Z</time>
      </trkpt>
      <trkpt lat="36.6909027099609" lon="-5.04465579986572">
        <ele>1290.45227050781</ele>
        <time>2018-07-28T09:28:29Z</time>
      </trkpt>
      <trkpt lat="36.6894302368164" lon="-5.04522085189819">
        <ele>1288.11767578125</ele>
        <time>2018-07-28T09:28:30Z</time>
      </trkpt>
      <trkpt lat="36.6894226074219" lon="-5.04521703720093">
        <ele>1288.16784667969</ele>
        <time>2018-07-28T09:28:31Z</time>
      </trkpt>
      <trkpt lat="36.6894149780273" lon="-5.04521083831787">
        <ele>1288.23645019531</ele>
        <time>2018-07-28T09:38:38Z</time>
      </trkpt>
      <trkpt lat="36.6894073486328" lon="-5.04520606994629">
        <ele>1288.294921875</ele>
        <time>2018-07-28T09:38:39Z</time>
      </trkpt>
      <trkpt lat="36.689395904541" lon="-5.04520177841186">
        <ele>1288.36218261719</ele>
        <time>2018-07-28T09:38:40Z</time>
      </trkpt>
      <trkpt lat="36.6893844604492" lon="-5.04519701004028">
        <ele>1288.43395996094</ele>
        <time>2018-07-28T09:38:41Z</time>
      </trkpt>
      <trkpt lat="36.6893692016602" lon="-5.04519081115723">
        <ele>1288.52990722656</ele>
        <time>2018-07-28T09:38:42Z</time>
      </trkpt>
      <trkpt lat="36.6893577575684" lon="-5.04518413543701">
        <ele>1288.61901855469</ele>
        <time>2018-07-28T09:38:43Z</time>
      </trkpt>
      <trkpt lat="36.6893463134766" lon="-5.04517793655396">
        <ele>1288.70568847656</ele>
        <time>2018-07-28T09:38:44Z</time>
      </trkpt>
      <trkpt lat="36.6893348693848" lon="-5.04517316818237">
        <ele>1288.78186035156</ele>
        <time>2018-07-28T09:38:45Z</time>
      </trkpt>
      <trkpt lat="36.689323425293" lon="-5.04516696929932">
        <ele>1288.87084960938</ele>
        <time>2018-07-28T09:38:46Z</time>
      </trkpt>
      <trkpt lat="36.6893119812012" lon="-5.04516315460205">
        <ele>1288.94104003906</ele>
        <time>2018-07-28T09:38:47Z</time>
      </trkpt>
      <trkpt lat="36.6893005371094" lon="-5.04515886306763">
        <ele>1289.01611328125</ele>
        <time>2018-07-28T09:38:48Z</time>
      </trkpt>
      <trkpt lat="36.6892890930176" lon="-5.04515504837036">
        <ele>1289.087890625</ele>
        <time>2018-07-28T09:38:49Z</time>
      </trkpt>
      <trkpt lat="36.689281463623" lon="-5.0451512336731">
        <ele>1289.14709472656</ele>
        <time>2018-07-28T09:38:50Z</time>
      </trkpt>
      <trkpt lat="36.6892700195312" lon="-5.04514598846436">
        <ele>1289.23278808594</ele>
        <time>2018-07-28T09:38:51Z</time>
      </trkpt>
      <trkpt lat="36.6892585754394" lon="-5.04514122009277">
        <ele>1289.31530761719</ele>
        <time>2018-07-28T09:38:52Z</time>
      </trkpt>
      <trkpt lat="36.6892471313477" lon="-5.04513692855835">
        <ele>1289.39440917969</ele>
        <time>2018-07-28T09:38:53Z</time>
      </trkpt>
      <trkpt lat="36.6892395019531" lon="-5.04513216018677">
        <ele>1289.46484375</ele>
        <time>2018-07-28T09:38:54Z</time>
      </trkpt>
      <trkpt lat="36.6892280578613" lon="-5.04512786865234">
        <ele>1289.54565429688</ele>
        <time>2018-07-28T09:38:55Z</time>
      </trkpt>
      <trkpt lat="36.6892127990723" lon="-5.04512596130371">
        <ele>1289.61950683594</ele>
        <time>2018-07-28T09:38:56Z</time>
      </trkpt>
      <trkpt lat="36.6891975402832" lon="-5.04512310028076">
        <ele>1289.70288085938</ele>
        <time>2018-07-28T09:38:57Z</time>
      </trkpt>
      <trkpt lat="36.6891822814941" lon="-5.04512119293213">
        <ele>1289.77795410156</ele>
        <time>2018-07-28T09:38:58Z</time>
      </trkpt>
      <trkpt lat="36.6891708374023" lon="-5.0451169013977">
        <ele>1289.86193847656</ele>
        <time>2018-07-28T09:38:59Z</time>
      </trkpt>
      <trkpt lat="36.6891593933106" lon="-5.04511499404907">
        <ele>1289.89331054688</ele>
        <time>2018-07-28T09:39:00Z</time>
      </trkpt>
      <trkpt lat="36.6891479492188" lon="-5.04511117935181">
        <ele>1289.92517089844</ele>
        <time>2018-07-28T09:39:01Z</time>
      </trkpt>
      <trkpt lat="36.6891326904297" lon="-5.04510498046875">
        <ele>1289.97705078125</ele>
        <time>2018-07-28T09:39:02Z</time>
      </trkpt>
      <trkpt lat="36.6891212463379" lon="-5.04509782791138">
        <ele>1290.03833007812</ele>
        <time>2018-07-28T09:39:03Z</time>
      </trkpt>
      <trkpt lat="36.6891098022461" lon="-5.04509115219116">
        <ele>1290.09399414062</ele>
        <time>2018-07-28T09:39:04Z</time>
      </trkpt>
      <trkpt lat="36.6890983581543" lon="-5.04508495330811">
        <ele>1290.14428710938</ele>
        <time>2018-07-28T09:39:05Z</time>
      </trkpt>
      <trkpt lat="36.6890869140625" lon="-5.04507923126221">
        <ele>1290.18920898438</ele>
        <time>2018-07-28T09:39:06Z</time>
      </trkpt>
      <trkpt lat="36.6890754699707" lon="-5.04507398605347">
        <ele>1290.22888183594</ele>
        <time>2018-07-28T09:39:07Z</time>
      </trkpt>
      <trkpt lat="36.6890640258789" lon="-5.04506921768188">
        <ele>1290.26354980469</ele>
        <time>2018-07-28T09:39:08Z</time>
      </trkpt>
      <trkpt lat="36.6890525817871" lon="-5.04506397247314">
        <ele>1290.30151367188</ele>
        <time>2018-07-28T09:39:09Z</time>
      </trkpt>
      <trkpt lat="36.6890411376953" lon="-5.04505777359009">
        <ele>1290.34692382812</ele>
        <time>2018-07-28T09:39:10Z</time>
      </trkpt>
      <trkpt lat="36.6890296936035" lon="-5.04505205154419">
        <ele>1290.38732910156</ele>
        <time>2018-07-28T09:39:11Z</time>
      </trkpt>
      <trkpt lat="36.6890182495117" lon="-5.04504680633545">
        <ele>1290.42260742188</ele>
        <time>2018-07-28T09:39:12Z</time>
      </trkpt>
      <trkpt lat="36.6890068054199" lon="-5.04504299163818">
        <ele>1290.44494628906</ele>
        <time>2018-07-28T09:39:13Z</time>
      </trkpt>
      <trkpt lat="36.6889953613281" lon="-5.0450382232666">
        <ele>1290.474609375</ele>
        <time>2018-07-28T09:39:14Z</time>
      </trkpt>
      <trkpt lat="36.6889839172363" lon="-5.04503393173218">
        <ele>1290.49963378906</ele>
        <time>2018-07-28T09:39:15Z</time>
      </trkpt>
      <trkpt lat="36.6889724731445" lon="-5.04503011703491">
        <ele>1290.51989746094</ele>
        <time>2018-07-28T09:39:16Z</time>
      </trkpt>
      <trkpt lat="36.6889610290527" lon="-5.0450291633606">
        <ele>1290.51647949219</ele>
        <time>2018-07-28T09:39:17Z</time>
      </trkpt>
      <trkpt lat="36.6889457702637" lon="-5.04502487182617">
        <ele>1290.53576660156</ele>
        <time>2018-07-28T09:39:18Z</time>
      </trkpt>
      <trkpt lat="36.6889381408691" lon="-5.04502105712891">
        <ele>1290.55822753906</ele>
        <time>2018-07-28T09:39:19Z</time>
      </trkpt>
      <trkpt lat="36.6889266967773" lon="-5.04501485824585">
        <ele>1290.59509277344</ele>
        <time>2018-07-28T09:39:20Z</time>
      </trkpt>
      <trkpt lat="36.6889152526856" lon="-5.04501104354858">
        <ele>1290.6123046875</ele>
        <time>2018-07-28T09:39:21Z</time>
      </trkpt>
      <trkpt lat="36.688907623291" lon="-5.04500722885132">
        <ele>1290.63317871094</ele>
        <time>2018-07-28T09:39:22Z</time>
      </trkpt>
      <trkpt lat="36.6888961791992" lon="-5.04500293731689">
        <ele>1290.65295410156</ele>
        <time>2018-07-28T09:39:23Z</time>
      </trkpt>
      <trkpt lat="36.6888847351074" lon="-5.04499816894531">
        <ele>1290.68798828125</ele>
        <time>2018-07-28T09:39:24Z</time>
      </trkpt>
      <trkpt lat="36.6888732910156" lon="-5.04499292373657">
        <ele>1290.74938964844</ele>
        <time>2018-07-28T09:39:25Z</time>
      </trkpt>
      <trkpt lat="36.6888618469238" lon="-5.04498910903931">
        <ele>1290.78979492188</ele>
        <time>2018-07-28T09:39:26Z</time>
      </trkpt>
      <trkpt lat="36.688850402832" lon="-5.0449857711792">
        <ele>1290.82299804688</ele>
        <time>2018-07-28T09:39:27Z</time>
      </trkpt>
      <trkpt lat="36.6888389587402" lon="-5.04498386383057">
        <ele>1290.83557128906</ele>
        <time>2018-07-28T09:39:28Z</time>
      </trkpt>
      <trkpt lat="36.6888275146484" lon="-5.04498100280762">
        <ele>1290.86157226562</ele>
        <time>2018-07-28T09:39:29Z</time>
      </trkpt>
      <trkpt lat="36.6888160705566" lon="-5.04497718811035">
        <ele>1290.90063476562</ele>
        <time>2018-07-28T09:39:30Z</time>
      </trkpt>
      <trkpt lat="36.6888046264648" lon="-5.04497289657593">
        <ele>1290.94592285156</ele>
        <time>2018-07-28T09:39:31Z</time>
      </trkpt>
      <trkpt lat="36.688793182373" lon="-5.04496479034424">
        <ele>1291.04431152344</ele>
        <time>2018-07-28T09:39:32Z</time>
      </trkpt>
      <trkpt lat="36.6887817382812" lon="-5.04495716094971">
        <ele>1291.13513183594</ele>
        <time>2018-07-28T09:39:33Z</time>
      </trkpt>
      <trkpt lat="36.6887702941894" lon="-5.04495000839233">
        <ele>1291.21862792969</ele>
        <time>2018-07-28T09:39:34Z</time>
      </trkpt>
      <trkpt lat="36.6887626647949" lon="-5.04494380950928">
        <ele>1291.29370117188</ele>
        <time>2018-07-28T09:39:35Z</time>
      </trkpt>
      <trkpt lat="36.6887512207031" lon="-5.0449390411377">
        <ele>1291.34301757812</ele>
        <time>2018-07-28T09:39:36Z</time>
      </trkpt>
      <trkpt lat="36.6887435913086" lon="-5.04493522644043">
        <ele>1291.38439941406</ele>
        <time>2018-07-28T09:39:37Z</time>
      </trkpt>
      <trkpt lat="36.6887321472168" lon="-5.04492998123169">
        <ele>1291.439453125</ele>
        <time>2018-07-28T09:39:38Z</time>
      </trkpt>
      <trkpt lat="36.6887283325195" lon="-5.04492616653442">
        <ele>1291.48596191406</ele>
        <time>2018-07-28T09:39:39Z</time>
      </trkpt>
      <trkpt lat="36.6887168884277" lon="-5.044921875">
        <ele>1291.52722167969</ele>
        <time>2018-07-28T09:39:40Z</time>
      </trkpt>
      <trkpt lat="36.6887092590332" lon="-5.04491710662842">
        <ele>1291.58044433594</ele>
        <time>2018-07-28T09:39:41Z</time>
      </trkpt>
      <trkpt lat="36.6886978149414" lon="-5.04490900039673">
        <ele>1291.67260742188</ele>
        <time>2018-07-28T09:39:42Z</time>
      </trkpt>
      <trkpt lat="36.6886863708496" lon="-5.04490184783936">
        <ele>1291.75122070312</ele>
        <time>2018-07-28T09:39:43Z</time>
      </trkpt>
      <trkpt lat="36.6886787414551" lon="-5.04489612579346">
        <ele>1291.81591796875</ele>
        <time>2018-07-28T09:39:44Z</time>
      </trkpt>
      <trkpt lat="36.6886672973633" lon="-5.04489088058472">
        <ele>1291.86767578125</ele>
        <time>2018-07-28T09:39:45Z</time>
      </trkpt>
      <trkpt lat="36.6886558532715" lon="-5.04488515853882">
        <ele>1291.92517089844</ele>
        <time>2018-07-28T09:39:46Z</time>
      </trkpt>
      <trkpt lat="36.6886405944824" lon="-5.04487895965576">
        <ele>1291.98181152344</ele>
        <time>2018-07-28T09:39:47Z</time>
      </trkpt>
      <trkpt lat="36.6886253356934" lon="-5.04487180709839">
        <ele>1292.05041503906</ele>
        <time>2018-07-28T09:39:48Z</time>
      </trkpt>
      <trkpt lat="36.6886100769043" lon="-5.04486608505249">
        <ele>1292.09912109375</ele>
        <time>2018-07-28T09:39:49Z</time>
      </trkpt>
      <trkpt lat="36.6885948181152" lon="-5.04485988616943">
        <ele>1292.15344238281</ele>
        <time>2018-07-28T09:39:50Z</time>
      </trkpt>
      <trkpt lat="36.6885795593262" lon="-5.04485511779785">
        <ele>1292.18811035156</ele>
        <time>2018-07-28T09:39:51Z</time>
      </trkpt>
      <trkpt lat="36.6885643005371" lon="-5.04485082626343">
        <ele>1292.21606445312</ele>
        <time>2018-07-28T09:39:52Z</time>
      </trkpt>
      <trkpt lat="36.688549041748" lon="-5.04484701156616">
        <ele>1292.2373046875</ele>
        <time>2018-07-28T09:39:53Z</time>
      </trkpt>
      <trkpt lat="36.6885375976562" lon="-5.0448431968689">
        <ele>1292.26513671875</ele>
        <time>2018-07-28T09:39:54Z</time>
      </trkpt>
      <trkpt lat="36.6885223388672" lon="-5.04483795166016">
        <ele>1292.3037109375</ele>
        <time>2018-07-28T09:39:55Z</time>
      </trkpt>
      <trkpt lat="36.6885070800781" lon="-5.04483318328857">
        <ele>1292.33544921875</ele>
        <time>2018-07-28T09:39:56Z</time>
      </trkpt>
      <trkpt lat="36.6884956359863" lon="-5.04482793807983">
        <ele>1292.38012695312</ele>
        <time>2018-07-28T09:39:57Z</time>
      </trkpt>
      <trkpt lat="36.6884803771973" lon="-5.04482316970825">
        <ele>1292.41076660156</ele>
        <time>2018-07-28T09:39:58Z</time>
      </trkpt>
      <trkpt lat="36.6884689331055" lon="-5.04481887817383">
        <ele>1292.44226074219</ele>
        <time>2018-07-28T09:39:59Z</time>
      </trkpt>
      <trkpt lat="36.6884574890137" lon="-5.04481506347656">
        <ele>1292.46740722656</ele>
        <time>2018-07-28T09:40:00Z</time>
      </trkpt>
      <trkpt lat="36.6884422302246" lon="-5.04481077194214">
        <ele>1292.49047851562</ele>
        <time>2018-07-28T09:40:01Z</time>
      </trkpt>
      <trkpt lat="36.6884307861328" lon="-5.04480791091919">
        <ele>1292.5029296875</ele>
        <time>2018-07-28T09:40:02Z</time>
      </trkpt>
      <trkpt lat="36.688419342041" lon="-5.04480695724487">
        <ele>1292.49145507812</ele>
        <time>2018-07-28T09:40:03Z</time>
      </trkpt>
      <trkpt lat="36.688404083252" lon="-5.04480600357056">
        <ele>1292.47216796875</ele>
        <time>2018-07-28T09:40:04Z</time>
      </trkpt>
      <trkpt lat="36.6883926391602" lon="-5.04480314254761">
        <ele>1292.48388671875</ele>
        <time>2018-07-28T09:40:05Z</time>
      </trkpt>
      <trkpt lat="36.6883811950684" lon="-5.04479598999023">
        <ele>1292.54772949219</ele>
        <time>2018-07-28T09:40:06Z</time>
      </trkpt>
      <trkpt lat="36.6883697509766" lon="-5.04478883743286">
        <ele>1292.61083984375</ele>
        <time>2018-07-28T09:40:07Z</time>
      </trkpt>
      <trkpt lat="36.6883583068848" lon="-5.04478216171265">
        <ele>1292.66748046875</ele>
        <time>2018-07-28T09:40:08Z</time>
      </trkpt>
      <trkpt lat="36.688346862793" lon="-5.04477691650391">
        <ele>1292.70629882812</ele>
        <time>2018-07-28T09:40:09Z</time>
      </trkpt>
      <trkpt lat="36.6883316040039" lon="-5.04477214813232">
        <ele>1292.75549316406</ele>
        <time>2018-07-28T09:40:10Z</time>
      </trkpt>
      <trkpt lat="36.6883201599121" lon="-5.04476881027222">
        <ele>1292.93676757812</ele>
        <time>2018-07-28T09:40:11Z</time>
      </trkpt>
      <trkpt lat="36.6883087158203" lon="-5.04476404190064">
        <ele>1293.13525390625</ele>
        <time>2018-07-28T09:40:12Z</time>
      </trkpt>
      <trkpt lat="36.6882934570312" lon="-5.04476022720337">
        <ele>1293.36950683594</ele>
        <time>2018-07-28T09:40:13Z</time>
      </trkpt>
      <trkpt lat="36.6882858276367" lon="-5.04475593566894">
        <ele>1293.51550292969</ele>
        <time>2018-07-28T09:40:14Z</time>
      </trkpt>
      <trkpt lat="36.6882743835449" lon="-5.04475212097168">
        <ele>1293.70300292969</ele>
        <time>2018-07-28T09:40:15Z</time>
      </trkpt>
      <trkpt lat="36.6882591247559" lon="-5.04474592208862">
        <ele>1293.96655273438</ele>
        <time>2018-07-28T09:40:16Z</time>
      </trkpt>
      <trkpt lat="36.6882514953613" lon="-5.04474115371704">
        <ele>1294.11877441406</ele>
        <time>2018-07-28T09:40:17Z</time>
      </trkpt>
      <trkpt lat="36.6882362365723" lon="-5.04473686218262">
        <ele>1294.35961914062</ele>
        <time>2018-07-28T09:40:18Z</time>
      </trkpt>
      <trkpt lat="36.6882247924805" lon="-5.04473495483398">
        <ele>1294.5244140625</ele>
        <time>2018-07-28T09:40:19Z</time>
      </trkpt>
      <trkpt lat="36.6882133483887" lon="-5.04473304748535">
        <ele>1294.68933105469</ele>
        <time>2018-07-28T09:40:20Z</time>
      </trkpt>
      <trkpt lat="36.6882019042969" lon="-5.04473209381104">
        <ele>1294.8427734375</ele>
        <time>2018-07-28T09:40:21Z</time>
      </trkpt>
      <trkpt lat="36.6881866455078" lon="-5.04473114013672">
        <ele>1295.04333496094</ele>
        <time>2018-07-28T09:40:22Z</time>
      </trkpt>
      <trkpt lat="36.6881713867188" lon="-5.04472923278809">
        <ele>1295.25573730469</ele>
        <time>2018-07-28T09:40:23Z</time>
      </trkpt>
      <trkpt lat="36.688159942627" lon="-5.0447268486023">
        <ele>1295.4267578125</ele>
        <time>2018-07-28T09:40:24Z</time>
      </trkpt>
      <trkpt lat="36.6881446838379" lon="-5.04472398757935">
        <ele>1295.65087890625</ele>
        <time>2018-07-28T09:40:25Z</time>
      </trkpt>
      <trkpt lat="36.6881332397461" lon="-5.04472208023071">
        <ele>1295.81628417969</ele>
        <time>2018-07-28T09:40:26Z</time>
      </trkpt>
      <trkpt lat="36.6881217956543" lon="-5.04472017288208">
        <ele>1295.98156738281</ele>
        <time>2018-07-28T09:40:27Z</time>
      </trkpt>
      <trkpt lat="36.6881065368652" lon="-5.04472017288208">
        <ele>1296.1708984375</ele>
        <time>2018-07-28T09:40:28Z</time>
      </trkpt>
      <trkpt lat="36.6880912780762" lon="-5.04472017288208">
        <ele>1296.36010742188</ele>
        <time>2018-07-28T09:40:29Z</time>
      </trkpt>
      <trkpt lat="36.6880798339844" lon="-5.0447211265564">
        <ele>1296.490234375</ele>
        <time>2018-07-28T09:40:30Z</time>
      </trkpt>
      <trkpt lat="36.6880645751953" lon="-5.04472208023071">
        <ele>1296.66772460938</ele>
        <time>2018-07-28T09:40:31Z</time>
      </trkpt>
      <trkpt lat="36.6880531311035" lon="-5.04472303390503">
        <ele>1296.79772949219</ele>
        <time>2018-07-28T09:40:32Z</time>
      </trkpt>
      <trkpt lat="36.6880416870117" lon="-5.04472303390503">
        <ele>1296.93969726562</ele>
        <time>2018-07-28T09:40:33Z</time>
      </trkpt>
      <trkpt lat="36.6880302429199" lon="-5.04472398757935">
        <ele>1297.06970214844</ele>
        <time>2018-07-28T09:40:34Z</time>
      </trkpt>
      <trkpt lat="36.6880187988281" lon="-5.04472589492798">
        <ele>1297.18786621094</ele>
        <time>2018-07-28T09:40:35Z</time>
      </trkpt>
      <trkpt lat="36.6880073547363" lon="-5.0447268486023">
        <ele>1297.31774902344</ele>
        <time>2018-07-28T09:40:36Z</time>
      </trkpt>
      <trkpt lat="36.6879959106445" lon="-5.04472923278809">
        <ele>1297.42980957031</ele>
        <time>2018-07-28T09:40:37Z</time>
      </trkpt>
      <trkpt lat="36.6879844665527" lon="-5.04473209381104">
        <ele>1297.53588867188</ele>
        <time>2018-07-28T09:40:38Z</time>
      </trkpt>
      <trkpt lat="36.6879768371582" lon="-5.04473686218262">
        <ele>1297.57067871094</ele>
        <time>2018-07-28T09:40:39Z</time>
      </trkpt>
      <trkpt lat="36.6879653930664" lon="-5.04474306106567">
        <ele>1297.63464355469</ele>
        <time>2018-07-28T09:40:40Z</time>
      </trkpt>
      <trkpt lat="36.6879539489746" lon="-5.04474878311157">
        <ele>1297.70446777344</ele>
        <time>2018-07-28T09:40:41Z</time>
      </trkpt>
      <trkpt lat="36.6879425048828" lon="-5.044753074646">
        <ele>1297.7919921875</ele>
        <time>2018-07-28T09:40:42Z</time>
      </trkpt>
      <trkpt lat="36.6879272460938" lon="-5.04475688934326">
        <ele>1297.93249511719</ele>
        <time>2018-07-28T09:40:43Z</time>
      </trkpt>
      <trkpt lat="36.687915802002" lon="-5.04476118087769">
        <ele>1298.01977539062</ele>
        <time>2018-07-28T09:40:44Z</time>
      </trkpt>
      <trkpt lat="36.6879005432129" lon="-5.04476499557495">
        <ele>1298.16003417969</ele>
        <time>2018-07-28T09:40:45Z</time>
      </trkpt>
      <trkpt lat="36.6878890991211" lon="-5.04477119445801">
        <ele>1298.22290039062</ele>
        <time>2018-07-28T09:40:46Z</time>
      </trkpt>
      <trkpt lat="36.6878776550293" lon="-5.04477787017822">
        <ele>1298.27941894531</ele>
        <time>2018-07-28T09:40:47Z</time>
      </trkpt>
      <trkpt lat="36.6878662109375" lon="-5.0447850227356">
        <ele>1298.32983398438</ele>
        <time>2018-07-28T09:40:48Z</time>
      </trkpt>
      <trkpt lat="36.6878547668457" lon="-5.04479122161865">
        <ele>1298.39196777344</ele>
        <time>2018-07-28T09:40:49Z</time>
      </trkpt>
      <trkpt lat="36.6878433227539" lon="-5.04479694366455">
        <ele>1298.46008300781</ele>
        <time>2018-07-28T09:40:50Z</time>
      </trkpt>
      <trkpt lat="36.6878356933594" lon="-5.04480314254761">
        <ele>1298.47509765625</ele>
        <time>2018-07-28T09:40:51Z</time>
      </trkpt>
      <trkpt lat="36.6878242492676" lon="-5.04480981826782">
        <ele>1298.53063964844</ele>
        <time>2018-07-28T09:40:52Z</time>
      </trkpt>
      <trkpt lat="36.6878128051758" lon="-5.04481601715088">
        <ele>1298.59204101562</ele>
        <time>2018-07-28T09:40:53Z</time>
      </trkpt>
      <trkpt lat="36.687801361084" lon="-5.04482078552246">
        <ele>1298.67150878906</ele>
        <time>2018-07-28T09:40:54Z</time>
      </trkpt>
      <trkpt lat="36.6877899169922" lon="-5.04482793807983">
        <ele>1298.72033691406</ele>
        <time>2018-07-28T09:40:55Z</time>
      </trkpt>
      <trkpt lat="36.6877784729004" lon="-5.04483604431152">
        <ele>1298.7568359375</ele>
        <time>2018-07-28T09:40:56Z</time>
      </trkpt>
      <trkpt lat="36.6877670288086" lon="-5.04484415054321">
        <ele>1298.79296875</ele>
        <time>2018-07-28T09:40:57Z</time>
      </trkpt>
      <trkpt lat="36.6877593994141" lon="-5.04485082626343">
        <ele>1298.80053710938</ele>
        <time>2018-07-28T09:40:58Z</time>
      </trkpt>
      <trkpt lat="36.6877479553223" lon="-5.04485702514648">
        <ele>1298.86071777344</ele>
        <time>2018-07-28T09:40:59Z</time>
      </trkpt>
      <trkpt lat="36.6877365112305" lon="-5.04486322402954">
        <ele>1298.92077636719</ele>
        <time>2018-07-28T09:41:00Z</time>
      </trkpt>
      <trkpt lat="36.6877250671387" lon="-5.04487085342407">
        <ele>1298.96203613281</ele>
        <time>2018-07-28T09:41:01Z</time>
      </trkpt>
      <trkpt lat="36.6877174377441" lon="-5.04487800598144">
        <ele>1298.962890625</ele>
        <time>2018-07-28T09:41:02Z</time>
      </trkpt>
      <trkpt lat="36.6877059936523" lon="-5.0448842048645">
        <ele>1299.02221679688</ele>
        <time>2018-07-28T09:41:03Z</time>
      </trkpt>
      <trkpt lat="36.6876945495606" lon="-5.04488897323608">
        <ele>1299.09985351562</ele>
        <time>2018-07-28T09:41:04Z</time>
      </trkpt>
      <trkpt lat="36.6876792907715" lon="-5.04489278793335">
        <ele>1299.23608398438</ele>
        <time>2018-07-28T09:41:05Z</time>
      </trkpt>
      <trkpt lat="36.687671661377" lon="-5.04489707946777">
        <ele>1299.27319335938</ele>
        <time>2018-07-28T09:41:06Z</time>
      </trkpt>
      <trkpt lat="36.6876564025879" lon="-5.04490089416504">
        <ele>1299.40905761719</ele>
        <time>2018-07-28T09:41:07Z</time>
      </trkpt>
      <trkpt lat="36.6876449584961" lon="-5.04490518569946">
        <ele>1299.49230957031</ele>
        <time>2018-07-28T09:41:08Z</time>
      </trkpt>
      <trkpt lat="36.6876335144043" lon="-5.04490995407104">
        <ele>1299.56909179688</ele>
        <time>2018-07-28T09:41:09Z</time>
      </trkpt>
      <trkpt lat="36.6876220703125" lon="-5.04491710662842">
        <ele>1299.61474609375</ele>
        <time>2018-07-28T09:41:10Z</time>
      </trkpt>
      <trkpt lat="36.6876106262207" lon="-5.044921875">
        <ele>1299.69128417969</ele>
        <time>2018-07-28T09:41:11Z</time>
      </trkpt>
      <trkpt lat="36.6875991821289" lon="-5.04492807388306">
        <ele>1299.7490234375</ele>
        <time>2018-07-28T09:41:12Z</time>
      </trkpt>
      <trkpt lat="36.6875877380371" lon="-5.04493284225464">
        <ele>1299.8251953125</ele>
        <time>2018-07-28T09:41:13Z</time>
      </trkpt>
      <trkpt lat="36.6875762939453" lon="-5.04494094848633">
        <ele>1299.857421875</ele>
        <time>2018-07-28T09:41:14Z</time>
      </trkpt>
      <trkpt lat="36.6875686645508" lon="-5.04494714736938">
        <ele>1299.86840820312</ele>
        <time>2018-07-28T09:41:15Z</time>
      </trkpt>
      <trkpt lat="36.6875534057617" lon="-5.04495286941528">
        <ele>1299.97766113281</ele>
        <time>2018-07-28T09:41:16Z</time>
      </trkpt>
      <trkpt lat="36.6875419616699" lon="-5.04495716094971">
        <ele>1300.05932617188</ele>
        <time>2018-07-28T09:41:17Z</time>
      </trkpt>
      <trkpt lat="36.6875305175781" lon="-5.04496288299561">
        <ele>1300.1220703125</ele>
        <time>2018-07-28T09:41:18Z</time>
      </trkpt>
      <trkpt lat="36.6875190734863" lon="-5.04497003555298">
        <ele>1300.16577148438</ele>
        <time>2018-07-28T09:41:19Z</time>
      </trkpt>
      <trkpt lat="36.6875076293945" lon="-5.04497814178467">
        <ele>1300.19677734375</ele>
        <time>2018-07-28T09:41:20Z</time>
      </trkpt>
      <trkpt lat="36.6874961853027" lon="-5.04498481750488">
        <ele>1300.27819824219</ele>
        <time>2018-07-28T09:41:21Z</time>
      </trkpt>
      <trkpt lat="36.6874847412109" lon="-5.04499197006226">
        <ele>1300.41723632812</ele>
        <time>2018-07-28T09:41:22Z</time>
      </trkpt>
      <trkpt lat="36.6874732971191" lon="-5.04500102996826">
        <ele>1300.54089355469</ele>
        <time>2018-07-28T09:41:23Z</time>
      </trkpt>
      <trkpt lat="36.6874580383301" lon="-5.04501104354858">
        <ele>1300.81494140625</ele>
        <time>2018-07-28T09:41:24Z</time>
      </trkpt>
      <trkpt lat="36.6874465942383" lon="-5.04502010345459">
        <ele>1301.01403808594</ele>
        <time>2018-07-28T09:41:25Z</time>
      </trkpt>
      <trkpt lat="36.6874351501465" lon="-5.04502820968628">
        <ele>1301.21606445312</ele>
        <time>2018-07-28T09:41:26Z</time>
      </trkpt>
      <trkpt lat="36.6874237060547" lon="-5.04503679275513">
        <ele>1301.41589355469</ele>
        <time>2018-07-28T09:41:27Z</time>
      </trkpt>
      <trkpt lat="36.6874122619629" lon="-5.04504680633545">
        <ele>1301.60949707031</ele>
        <time>2018-07-28T09:41:28Z</time>
      </trkpt>
      <trkpt lat="36.6874046325684" lon="-5.04506015777588">
        <ele>1301.71240234375</ele>
        <time>2018-07-28T09:41:29Z</time>
      </trkpt>
      <trkpt lat="36.6873970031738" lon="-5.04507112503052">
        <ele>1301.82397460938</ele>
        <time>2018-07-28T09:41:30Z</time>
      </trkpt>
      <trkpt lat="36.6873893737793" lon="-5.04508304595947">
        <ele>1301.93139648438</ele>
        <time>2018-07-28T09:41:31Z</time>
      </trkpt>
      <trkpt lat="36.6873817443848" lon="-5.04509496688843">
        <ele>1302.03820800781</ele>
        <time>2018-07-28T09:41:32Z</time>
      </trkpt>
      <trkpt lat="36.687370300293" lon="-5.0451078414917">
        <ele>1302.21740722656</ele>
        <time>2018-07-28T09:41:33Z</time>
      </trkpt>
      <trkpt lat="36.6873664855957" lon="-5.04511880874634">
        <ele>1302.25024414062</ele>
        <time>2018-07-28T09:41:34Z</time>
      </trkpt>
      <trkpt lat="36.6873550415039" lon="-5.04512882232666">
        <ele>1302.43957519531</ele>
        <time>2018-07-28T09:41:35Z</time>
      </trkpt>
      <trkpt lat="36.6873474121094" lon="-5.04514122009277">
        <ele>1302.54235839844</ele>
        <time>2018-07-28T09:41:36Z</time>
      </trkpt>
      <trkpt lat="36.6873397827148" lon="-5.04515314102173">
        <ele>1302.646484375</ele>
        <time>2018-07-28T09:41:37Z</time>
      </trkpt>
      <trkpt lat="36.6873359680176" lon="-5.04516696929932">
        <ele>1302.66625976562</ele>
        <time>2018-07-28T09:41:38Z</time>
      </trkpt>
      <trkpt lat="36.6873321533203" lon="-5.04517984390259">
        <ele>1302.68969726562</ele>
        <time>2018-07-28T09:41:39Z</time>
      </trkpt>
      <trkpt lat="36.6873245239258" lon="-5.04519510269165">
        <ele>1302.77868652344</ele>
        <time>2018-07-28T09:41:40Z</time>
      </trkpt>
      <trkpt lat="36.6873207092285" lon="-5.04520893096924">
        <ele>1302.79748535156</ele>
        <time>2018-07-28T09:41:41Z</time>
      </trkpt>
      <trkpt lat="36.6873168945312" lon="-5.04522323608398">
        <ele>1302.81396484375</ele>
        <time>2018-07-28T09:41:42Z</time>
      </trkpt>
      <trkpt lat="36.6873168945312" lon="-5.04523706436157">
        <ele>1302.75695800781</ele>
        <time>2018-07-28T09:41:43Z</time>
      </trkpt>
      <trkpt lat="36.687313079834" lon="-5.04524898529053">
        <ele>1302.78283691406</ele>
        <time>2018-07-28T09:41:44Z</time>
      </trkpt>
      <trkpt lat="36.6873092651367" lon="-5.04525995254517">
        <ele>1302.81237792969</ele>
        <time>2018-07-28T09:41:45Z</time>
      </trkpt>
      <trkpt lat="36.6873054504394" lon="-5.04526996612549">
        <ele>1302.845703125</ele>
        <time>2018-07-28T09:41:46Z</time>
      </trkpt>
      <trkpt lat="36.6873054504394" lon="-5.04528188705444">
        <ele>1302.79602050781</ele>
        <time>2018-07-28T09:41:47Z</time>
      </trkpt>
      <trkpt lat="36.6873016357422" lon="-5.04529476165772">
        <ele>1302.81713867188</ele>
        <time>2018-07-28T09:41:48Z</time>
      </trkpt>
      <trkpt lat="36.6872978210449" lon="-5.04531002044678">
        <ele>1302.82788085938</ele>
        <time>2018-07-28T09:41:49Z</time>
      </trkpt>
      <trkpt lat="36.6872901916504" lon="-5.04532480239868">
        <ele>1302.91455078125</ele>
        <time>2018-07-28T09:41:50Z</time>
      </trkpt>
      <trkpt lat="36.6872863769531" lon="-5.04534196853638">
        <ele>1302.91638183594</ele>
        <time>2018-07-28T09:41:51Z</time>
      </trkpt>
      <trkpt lat="36.6872825622559" lon="-5.04535818099976">
        <ele>1302.92199707031</ele>
        <time>2018-07-28T09:41:52Z</time>
      </trkpt>
      <trkpt lat="36.6872787475586" lon="-5.04537391662598">
        <ele>1302.92919921875</ele>
        <time>2018-07-28T09:41:53Z</time>
      </trkpt>
      <trkpt lat="36.6872711181641" lon="-5.04538917541504">
        <ele>1303.01159667969</ele>
        <time>2018-07-28T09:41:54Z</time>
      </trkpt>
      <trkpt lat="36.6872673034668" lon="-5.04540491104126">
        <ele>1303.01794433594</ele>
        <time>2018-07-28T09:41:55Z</time>
      </trkpt>
      <trkpt lat="36.6872634887695" lon="-5.04542207717896">
        <ele>1303.01782226562</ele>
        <time>2018-07-28T09:41:56Z</time>
      </trkpt>
      <trkpt lat="36.6872596740723" lon="-5.04543685913086">
        <ele>1303.02758789062</ele>
        <time>2018-07-28T09:41:57Z</time>
      </trkpt>
      <trkpt lat="36.6872520446777" lon="-5.04545116424561">
        <ele>1303.11193847656</ele>
        <time>2018-07-28T09:41:58Z</time>
      </trkpt>
      <trkpt lat="36.6872482299805" lon="-5.04546594619751">
        <ele>1303.12084960938</ele>
        <time>2018-07-28T09:41:59Z</time>
      </trkpt>
      <trkpt lat="36.6872444152832" lon="-5.0454797744751">
        <ele>1303.13354492188</ele>
        <time>2018-07-28T09:42:00Z</time>
      </trkpt>
      <trkpt lat="36.6872406005859" lon="-5.04549503326416">
        <ele>1303.13977050781</ele>
        <time>2018-07-28T09:42:01Z</time>
      </trkpt>
      <trkpt lat="36.6872329711914" lon="-5.04551315307617">
        <ele>1303.20544433594</ele>
        <time>2018-07-28T09:42:02Z</time>
      </trkpt>
      <trkpt lat="36.6872291564941" lon="-5.04553079605103">
        <ele>1303.20031738281</ele>
        <time>2018-07-28T09:42:03Z</time>
      </trkpt>
      <trkpt lat="36.6872215270996" lon="-5.04554796218872">
        <ele>1303.26867675781</ele>
        <time>2018-07-28T09:42:04Z</time>
      </trkpt>
      <trkpt lat="36.6872138977051" lon="-5.04556179046631">
        <ele>1303.35119628906</ele>
        <time>2018-07-28T09:42:05Z</time>
      </trkpt>
      <trkpt lat="36.6872062683106" lon="-5.04557514190674">
        <ele>1303.43505859375</ele>
        <time>2018-07-28T09:42:06Z</time>
      </trkpt>
      <trkpt lat="36.687198638916" lon="-5.04558610916138">
        <ele>1303.52905273438</ele>
        <time>2018-07-28T09:42:07Z</time>
      </trkpt>
      <trkpt lat="36.6871948242188" lon="-5.04559803009033">
        <ele>1303.54711914062</ele>
        <time>2018-07-28T09:42:08Z</time>
      </trkpt>
      <trkpt lat="36.6871871948242" lon="-5.04560995101929">
        <ele>1303.63586425781</ele>
        <time>2018-07-28T09:42:09Z</time>
      </trkpt>
      <trkpt lat="36.687183380127" lon="-5.04562187194824">
        <ele>1303.65319824219</ele>
        <time>2018-07-28T09:42:10Z</time>
      </trkpt>
      <trkpt lat="36.6871795654297" lon="-5.04563283920288">
        <ele>1303.67468261719</ele>
        <time>2018-07-28T09:42:11Z</time>
      </trkpt>
      <trkpt lat="36.6871757507324" lon="-5.04564619064331">
        <ele>1303.68493652344</ele>
        <time>2018-07-28T09:42:12Z</time>
      </trkpt>
      <trkpt lat="36.6871681213379" lon="-5.0456600189209">
        <ele>1303.76342773438</ele>
        <time>2018-07-28T09:42:13Z</time>
      </trkpt>
      <trkpt lat="36.6871643066406" lon="-5.04567289352417">
        <ele>1303.77514648438</ele>
        <time>2018-07-28T09:42:14Z</time>
      </trkpt>
      <trkpt lat="36.6871604919434" lon="-5.04568576812744">
        <ele>1303.78662109375</ele>
        <time>2018-07-28T09:42:15Z</time>
      </trkpt>
      <trkpt lat="36.6871528625488" lon="-5.04569816589356">
        <ele>1303.87023925781</ele>
        <time>2018-07-28T09:42:16Z</time>
      </trkpt>
      <trkpt lat="36.6871452331543" lon="-5.04571008682251">
        <ele>1303.95544433594</ele>
        <time>2018-07-28T09:42:17Z</time>
      </trkpt>
      <trkpt lat="36.6871376037598" lon="-5.04572486877441">
        <ele>1304.02685546875</ele>
        <time>2018-07-28T09:42:18Z</time>
      </trkpt>
      <trkpt lat="36.6871299743652" lon="-5.04574108123779">
        <ele>1304.0908203125</ele>
        <time>2018-07-28T09:42:19Z</time>
      </trkpt>
      <trkpt lat="36.6871223449707" lon="-5.04575681686401">
        <ele>1304.15649414062</ele>
        <time>2018-07-28T09:42:20Z</time>
      </trkpt>
      <trkpt lat="36.6871147155762" lon="-5.04577112197876">
        <ele>1304.22814941406</ele>
        <time>2018-07-28T09:42:21Z</time>
      </trkpt>
      <trkpt lat="36.6871109008789" lon="-5.04578590393066">
        <ele>1304.22766113281</ele>
        <time>2018-07-28T09:42:22Z</time>
      </trkpt>
      <trkpt lat="36.6871032714844" lon="-5.04580020904541">
        <ele>1304.29821777344</ele>
        <time>2018-07-28T09:42:23Z</time>
      </trkpt>
      <trkpt lat="36.6870994567871" lon="-5.04581499099731">
        <ele>1304.29699707031</ele>
        <time>2018-07-28T09:42:24Z</time>
      </trkpt>
      <trkpt lat="36.6870956420898" lon="-5.0458288192749">
        <ele>1304.29992675781</ele>
        <time>2018-07-28T09:42:25Z</time>
      </trkpt>
      <trkpt lat="36.6870918273926" lon="-5.04584217071533">
        <ele>1304.35766601562</ele>
        <time>2018-07-28T09:42:26Z</time>
      </trkpt>
      <trkpt lat="36.687084197998" lon="-5.04585695266724">
        <ele>1304.51281738281</ele>
        <time>2018-07-28T09:42:27Z</time>
      </trkpt>
      <trkpt lat="36.6870803833008" lon="-5.04586887359619">
        <ele>1304.595703125</ele>
        <time>2018-07-28T09:42:28Z</time>
      </trkpt>
      <trkpt lat="36.6870727539062" lon="-5.04588079452515">
        <ele>1304.74743652344</ele>
        <time>2018-07-28T09:42:29Z</time>
      </trkpt>
      <trkpt lat="36.6870651245117" lon="-5.04589176177978">
        <ele>1304.89782714844</ele>
        <time>2018-07-28T09:42:30Z</time>
      </trkpt>
      <trkpt lat="36.6870613098144" lon="-5.0459041595459">
        <ele>1304.9814453125</ele>
        <time>2018-07-28T09:42:31Z</time>
      </trkpt>
      <trkpt lat="36.6870574951172" lon="-5.04591703414917">
        <ele>1305.06555175781</ele>
        <time>2018-07-28T09:42:32Z</time>
      </trkpt>
      <trkpt lat="36.6870498657227" lon="-5.04592895507812">
        <ele>1305.21716308594</ele>
        <time>2018-07-28T09:42:33Z</time>
      </trkpt>
      <trkpt lat="36.6870422363281" lon="-5.0459418296814">
        <ele>1305.36999511719</ele>
        <time>2018-07-28T09:42:34Z</time>
      </trkpt>
      <trkpt lat="36.6870346069336" lon="-5.04595613479614">
        <ele>1305.5244140625</ele>
        <time>2018-07-28T09:42:35Z</time>
      </trkpt>
      <trkpt lat="36.6870269775391" lon="-5.04596996307373">
        <ele>1305.67834472656</ele>
        <time>2018-07-28T09:42:36Z</time>
      </trkpt>
      <trkpt lat="36.6870193481445" lon="-5.04598188400269">
        <ele>1305.82995605469</ele>
        <time>2018-07-28T09:42:37Z</time>
      </trkpt>
      <trkpt lat="36.68701171875" lon="-5.04599523544312">
        <ele>1305.9833984375</ele>
        <time>2018-07-28T09:42:38Z</time>
      </trkpt>
      <trkpt lat="36.6870040893555" lon="-5.04600811004639">
        <ele>1306.13610839844</ele>
        <time>2018-07-28T09:42:39Z</time>
      </trkpt>
      <trkpt lat="36.6869964599609" lon="-5.04602193832397">
        <ele>1306.2900390625</ele>
        <time>2018-07-28T09:42:40Z</time>
      </trkpt>
      <trkpt lat="36.6869926452637" lon="-5.04603576660156">
        <ele>1306.37524414062</ele>
        <time>2018-07-28T09:42:41Z</time>
      </trkpt>
      <trkpt lat="36.6869850158691" lon="-5.04604911804199">
        <ele>1306.52868652344</ele>
        <time>2018-07-28T09:42:42Z</time>
      </trkpt>
      <trkpt lat="36.6869773864746" lon="-5.04606294631958">
        <ele>1306.6826171875</ele>
        <time>2018-07-28T09:42:43Z</time>
      </trkpt>
      <trkpt lat="36.6869735717773" lon="-5.04607486724854">
        <ele>1306.76550292969</ele>
        <time>2018-07-28T09:42:44Z</time>
      </trkpt>
      <trkpt lat="36.6869697570801" lon="-5.04608821868896">
        <ele>1306.85021972656</ele>
        <time>2018-07-28T09:42:45Z</time>
      </trkpt>
      <trkpt lat="36.6869621276856" lon="-5.0460991859436">
        <ele>1307.00073242188</ele>
        <time>2018-07-28T09:42:46Z</time>
      </trkpt>
      <trkpt lat="36.6869583129883" lon="-5.04610919952393">
        <ele>1307.08142089844</ele>
        <time>2018-07-28T09:42:47Z</time>
      </trkpt>
      <trkpt lat="36.6869506835938" lon="-5.0461220741272">
        <ele>1307.23413085938</ele>
        <time>2018-07-28T09:42:48Z</time>
      </trkpt>
      <trkpt lat="36.6869430541992" lon="-5.04613780975342">
        <ele>1307.39038085938</ele>
        <time>2018-07-28T09:42:49Z</time>
      </trkpt>
      <trkpt lat="36.6869354248047" lon="-5.04615306854248">
        <ele>1307.54602050781</ele>
        <time>2018-07-28T09:42:50Z</time>
      </trkpt>
      <trkpt lat="36.6869277954102" lon="-5.04616785049438">
        <ele>1307.70104980469</ele>
        <time>2018-07-28T09:42:51Z</time>
      </trkpt>
      <trkpt lat="36.6869201660156" lon="-5.04618120193481">
        <ele>1307.8544921875</ele>
        <time>2018-07-28T09:42:52Z</time>
      </trkpt>
      <trkpt lat="36.6869125366211" lon="-5.0461950302124">
        <ele>1308.00842285156</ele>
        <time>2018-07-28T09:42:53Z</time>
      </trkpt>
      <trkpt lat="36.6869049072266" lon="-5.04620504379272">
        <ele>1308.15771484375</ele>
        <time>2018-07-28T09:42:54Z</time>
      </trkpt>
      <trkpt lat="36.686897277832" lon="-5.04621410369873">
        <ele>1308.30590820312</ele>
        <time>2018-07-28T09:42:55Z</time>
      </trkpt>
      <trkpt lat="36.6868896484375" lon="-5.04622077941894">
        <ele>1308.45129394531</ele>
        <time>2018-07-28T09:42:56Z</time>
      </trkpt>
      <trkpt lat="36.6868858337402" lon="-5.04622983932495">
        <ele>1308.53076171875</ele>
        <time>2018-07-28T09:42:57Z</time>
      </trkpt>
      <trkpt lat="36.686882019043" lon="-5.04624080657959">
        <ele>1308.61267089844</ele>
        <time>2018-07-28T09:42:58Z</time>
      </trkpt>
      <trkpt lat="36.6868782043457" lon="-5.0462532043457">
        <ele>1308.69616699219</ele>
        <time>2018-07-28T09:42:59Z</time>
      </trkpt>
      <trkpt lat="36.6868743896484" lon="-5.04626512527466">
        <ele>1308.77917480469</ele>
        <time>2018-07-28T09:43:00Z</time>
      </trkpt>
      <trkpt lat="36.6868667602539" lon="-5.0462760925293">
        <ele>1308.9296875</ele>
        <time>2018-07-28T09:43:01Z</time>
      </trkpt>
      <trkpt lat="36.6868591308594" lon="-5.04628896713257">
        <ele>1309.08239746094</ele>
        <time>2018-07-28T09:43:02Z</time>
      </trkpt>
      <trkpt lat="36.6868553161621" lon="-5.04630088806152">
        <ele>1309.16540527344</ele>
        <time>2018-07-28T09:43:03Z</time>
      </trkpt>
      <trkpt lat="36.6868476867676" lon="-5.0463137626648">
        <ele>1309.31811523438</ele>
        <time>2018-07-28T09:43:04Z</time>
      </trkpt>
      <trkpt lat="36.686840057373" lon="-5.04632377624512">
        <ele>1309.46752929688</ele>
        <time>2018-07-28T09:43:05Z</time>
      </trkpt>
      <trkpt lat="36.6868324279785" lon="-5.04633378982544">
        <ele>1309.61682128906</ele>
        <time>2018-07-28T09:43:06Z</time>
      </trkpt>
      <trkpt lat="36.6868286132812" lon="-5.04634523391724">
        <ele>1309.69921875</ele>
        <time>2018-07-28T09:43:07Z</time>
      </trkpt>
      <trkpt lat="36.6868209838867" lon="-5.04636001586914">
        <ele>1309.85424804688</ele>
        <time>2018-07-28T09:43:08Z</time>
      </trkpt>
      <trkpt lat="36.6868171691894" lon="-5.04637622833252">
        <ele>1309.9423828125</ele>
        <time>2018-07-28T09:43:09Z</time>
      </trkpt>
      <trkpt lat="36.6868095397949" lon="-5.04639005661011">
        <ele>1310.09631347656</ele>
        <time>2018-07-28T09:43:10Z</time>
      </trkpt>
      <trkpt lat="36.6868019104004" lon="-5.04640293121338">
        <ele>1310.24914550781</ele>
        <time>2018-07-28T09:43:11Z</time>
      </trkpt>
      <trkpt lat="36.6867942810059" lon="-5.04641485214233">
        <ele>1310.40075683594</ele>
        <time>2018-07-28T09:43:12Z</time>
      </trkpt>
      <trkpt lat="36.6867866516113" lon="-5.04642677307129">
        <ele>1310.55236816406</ele>
        <time>2018-07-28T09:43:13Z</time>
      </trkpt>
      <trkpt lat="36.6867828369141" lon="-5.04644203186035">
        <ele>1310.63940429688</ele>
        <time>2018-07-28T09:43:14Z</time>
      </trkpt>
      <trkpt lat="36.6867752075195" lon="-5.04645776748657">
        <ele>1310.79553222656</ele>
        <time>2018-07-28T09:43:15Z</time>
      </trkpt>
      <trkpt lat="36.6867713928223" lon="-5.04647207260132">
        <ele>1310.88146972656</ele>
        <time>2018-07-28T09:43:16Z</time>
      </trkpt>
      <trkpt lat="36.6867637634277" lon="-5.04648494720459">
        <ele>1311.0341796875</ele>
        <time>2018-07-28T09:43:17Z</time>
      </trkpt>
      <trkpt lat="36.6867599487305" lon="-5.04649686813354">
        <ele>1311.1171875</ele>
        <time>2018-07-28T09:43:18Z</time>
      </trkpt>
      <trkpt lat="36.6867561340332" lon="-5.0465087890625">
        <ele>1311.2001953125</ele>
        <time>2018-07-28T09:43:19Z</time>
      </trkpt>
      <trkpt lat="36.6867561340332" lon="-5.0465202331543">
        <ele>1311.2138671875</ele>
        <time>2018-07-28T09:43:20Z</time>
      </trkpt>
      <trkpt lat="36.6867485046387" lon="-5.04652881622314">
        <ele>1311.36145019531</ele>
        <time>2018-07-28T09:43:21Z</time>
      </trkpt>
      <trkpt lat="36.6867408752441" lon="-5.04653596878052">
        <ele>1311.50744628906</ele>
        <time>2018-07-28T09:43:22Z</time>
      </trkpt>
      <trkpt lat="36.6867294311523" lon="-5.04654788970947">
        <ele>1311.72766113281</ele>
        <time>2018-07-28T09:43:23Z</time>
      </trkpt>
      <trkpt lat="36.6867218017578" lon="-5.04656076431274">
        <ele>1311.88049316406</ele>
        <time>2018-07-28T09:43:24Z</time>
      </trkpt>
      <trkpt lat="36.686710357666" lon="-5.04657506942749">
        <ele>1312.10363769531</ele>
        <time>2018-07-28T09:43:25Z</time>
      </trkpt>
      <trkpt lat="36.6867027282715" lon="-5.04658699035644">
        <ele>1312.25524902344</ele>
        <time>2018-07-28T09:43:26Z</time>
      </trkpt>
      <trkpt lat="36.686695098877" lon="-5.04659605026245">
        <ele>1312.40344238281</ele>
        <time>2018-07-28T09:43:27Z</time>
      </trkpt>
      <trkpt lat="36.6866912841797" lon="-5.04660701751709">
        <ele>1312.4853515625</ele>
        <time>2018-07-28T09:43:28Z</time>
      </trkpt>
      <trkpt lat="36.6866836547852" lon="-5.04661893844604">
        <ele>1312.63696289062</ele>
        <time>2018-07-28T09:43:29Z</time>
      </trkpt>
      <trkpt lat="36.6866760253906" lon="-5.04663276672363">
        <ele>1312.79089355469</ele>
        <time>2018-07-28T09:43:30Z</time>
      </trkpt>
      <trkpt lat="36.6866645812988" lon="-5.04664421081543">
        <ele>1313.04772949219</ele>
        <time>2018-07-28T09:43:31Z</time>
      </trkpt>
      <trkpt lat="36.6866569519043" lon="-5.04665613174438">
        <ele>1313.33618164062</ele>
        <time>2018-07-28T09:43:32Z</time>
      </trkpt>
      <trkpt lat="36.6866416931152" lon="-5.04667186737061">
        <ele>1313.89221191406</ele>
        <time>2018-07-28T09:43:33Z</time>
      </trkpt>
      <trkpt lat="36.6866264343262" lon="-5.04669094085693">
        <ele>1314.4150390625</ele>
        <time>2018-07-28T09:43:34Z</time>
      </trkpt>
      <trkpt lat="36.6866073608398" lon="-5.04671287536621">
        <ele>1315.06774902344</ele>
        <time>2018-07-28T09:43:35Z</time>
      </trkpt>
      <trkpt lat="36.6865921020508" lon="-5.04673385620117">
        <ele>1315.58203125</ele>
        <time>2018-07-28T09:43:36Z</time>
      </trkpt>
      <trkpt lat="36.686580657959" lon="-5.04675388336182">
        <ele>1315.95922851562</ele>
        <time>2018-07-28T09:43:37Z</time>
      </trkpt>
      <trkpt lat="36.6865653991699" lon="-5.04677295684814">
        <ele>1316.47155761719</ele>
        <time>2018-07-28T09:43:38Z</time>
      </trkpt>
      <trkpt lat="36.6865539550781" lon="-5.04679012298584">
        <ele>1316.84936523438</ele>
        <time>2018-07-28T09:43:39Z</time>
      </trkpt>
      <trkpt lat="36.6865386962891" lon="-5.04681015014648">
        <ele>1317.35546875</ele>
        <time>2018-07-28T09:43:40Z</time>
      </trkpt>
      <trkpt lat="36.6865234375" lon="-5.04683017730713">
        <ele>1317.85888671875</ele>
        <time>2018-07-28T09:43:41Z</time>
      </trkpt>
      <trkpt lat="36.6865081787109" lon="-5.04685020446777">
        <ele>1318.35961914062</ele>
        <time>2018-07-28T09:43:42Z</time>
      </trkpt>
      <trkpt lat="36.6864967346191" lon="-5.04687118530273">
        <ele>1318.72204589844</ele>
        <time>2018-07-28T09:43:43Z</time>
      </trkpt>
      <trkpt lat="36.6864852905273" lon="-5.04689502716064">
        <ele>1319.07653808594</ele>
        <time>2018-07-28T09:43:44Z</time>
      </trkpt>
      <trkpt lat="36.6864776611328" lon="-5.0469241142273">
        <ele>1319.28503417969</ele>
        <time>2018-07-28T09:43:45Z</time>
      </trkpt>
      <trkpt lat="36.686466217041" lon="-5.04694986343384">
        <ele>1319.63110351562</ele>
        <time>2018-07-28T09:43:46Z</time>
      </trkpt>
      <trkpt lat="36.6864547729492" lon="-5.04697608947754">
        <ele>1319.9736328125</ele>
        <time>2018-07-28T09:43:47Z</time>
      </trkpt>
      <trkpt lat="36.6864433288574" lon="-5.04699897766113">
        <ele>1320.32080078125</ele>
        <time>2018-07-28T09:43:48Z</time>
      </trkpt>
      <trkpt lat="36.6864356994629" lon="-5.04702186584473">
        <ele>1320.5341796875</ele>
        <time>2018-07-28T09:43:49Z</time>
      </trkpt>
      <trkpt lat="36.6864242553711" lon="-5.0470461845398">
        <ele>1320.87390136719</ele>
        <time>2018-07-28T09:43:50Z</time>
      </trkpt>
      <trkpt lat="36.6864204406738" lon="-5.04706907272339">
        <ele>1320.95324707031</ele>
        <time>2018-07-28T09:43:51Z</time>
      </trkpt>
      <trkpt lat="36.6864128112793" lon="-5.0470929145813">
        <ele>1321.15979003906</ele>
        <time>2018-07-28T09:43:52Z</time>
      </trkpt>
      <trkpt lat="36.6864013671875" lon="-5.04711484909058">
        <ele>1321.49926757812</ele>
        <time>2018-07-28T09:43:53Z</time>
      </trkpt>
      <trkpt lat="36.6863899230957" lon="-5.04713916778564">
        <ele>1321.83093261719</ele>
        <time>2018-07-28T09:43:54Z</time>
      </trkpt>
      <trkpt lat="36.6863822937012" lon="-5.04716396331787">
        <ele>1322.02978515625</ele>
        <time>2018-07-28T09:43:55Z</time>
      </trkpt>
      <trkpt lat="36.6863746643066" lon="-5.04718685150146">
        <ele>1322.23168945312</ele>
        <time>2018-07-28T09:43:56Z</time>
      </trkpt>
      <trkpt lat="36.6863708496094" lon="-5.04720878601074">
        <ele>1322.30603027344</ele>
        <time>2018-07-28T09:43:57Z</time>
      </trkpt>
      <trkpt lat="36.6863670349121" lon="-5.04723119735718">
        <ele>1322.37854003906</ele>
        <time>2018-07-28T09:43:58Z</time>
      </trkpt>
      <trkpt lat="36.6863632202148" lon="-5.04725503921509">
        <ele>1322.44677734375</ele>
        <time>2018-07-28T09:43:59Z</time>
      </trkpt>
      <trkpt lat="36.6863594055176" lon="-5.04727983474731">
        <ele>1322.51171875</ele>
        <time>2018-07-28T09:44:00Z</time>
      </trkpt>
      <trkpt lat="36.686351776123" lon="-5.04730415344238">
        <ele>1322.70385742188</ele>
        <time>2018-07-28T09:44:01Z</time>
      </trkpt>
      <trkpt lat="36.6863441467285" lon="-5.04732704162598">
        <ele>1322.89819335938</ele>
        <time>2018-07-28T09:44:02Z</time>
      </trkpt>
      <trkpt lat="36.6863403320312" lon="-5.04734992980957">
        <ele>1322.96484375</ele>
        <time>2018-07-28T09:44:03Z</time>
      </trkpt>
      <trkpt lat="36.686336517334" lon="-5.04737520217896">
        <ele>1323.02453613281</ele>
        <time>2018-07-28T09:44:04Z</time>
      </trkpt>
      <trkpt lat="36.686336517334" lon="-5.04740381240845">
        <ele>1322.94946289062</ele>
        <time>2018-07-28T09:44:05Z</time>
      </trkpt>
      <trkpt lat="36.686336517334" lon="-5.04743480682373">
        <ele>1322.86804199219</ele>
        <time>2018-07-28T09:44:06Z</time>
      </trkpt>
      <trkpt lat="36.6863403320312" lon="-5.04746580123901">
        <ele>1322.66247558594</ele>
        <time>2018-07-28T09:44:07Z</time>
      </trkpt>
      <trkpt lat="36.686336517334" lon="-5.04749393463135">
        <ele>1322.71276855469</ele>
        <time>2018-07-28T09:44:08Z</time>
      </trkpt>
      <trkpt lat="36.686336517334" lon="-5.04752206802368">
        <ele>1322.53942871094</ele>
        <time>2018-07-28T09:44:09Z</time>
      </trkpt>
      <trkpt lat="36.6863327026367" lon="-5.04754877090454">
        <ele>1322.46862792969</ele>
        <time>2018-07-28T09:44:10Z</time>
      </trkpt>
      <trkpt lat="36.6863327026367" lon="-5.04757595062256">
        <ele>1322.27258300781</ele>
        <time>2018-07-28T09:44:11Z</time>
      </trkpt>
      <trkpt lat="36.6863327026367" lon="-5.04760217666626">
        <ele>1322.08337402344</ele>
        <time>2018-07-28T09:44:12Z</time>
      </trkpt>
      <trkpt lat="36.6863288879394" lon="-5.04762887954712">
        <ele>1322.00366210938</ele>
        <time>2018-07-28T09:44:13Z</time>
      </trkpt>
      <trkpt lat="36.6863288879394" lon="-5.04765605926514">
        <ele>1321.80541992188</ele>
        <time>2018-07-28T09:44:14Z</time>
      </trkpt>
      <trkpt lat="36.6863250732422" lon="-5.04768419265747">
        <ele>1321.70861816406</ele>
        <time>2018-07-28T09:44:15Z</time>
      </trkpt>
      <trkpt lat="36.6863250732422" lon="-5.04771089553833">
        <ele>1321.51159667969</ele>
        <time>2018-07-28T09:44:16Z</time>
      </trkpt>
      <trkpt lat="36.6863250732422" lon="-5.04773902893066">
        <ele>1321.30395507812</ele>
        <time>2018-07-28T09:44:17Z</time>
      </trkpt>
      <trkpt lat="36.6863250732422" lon="-5.04776477813721">
        <ele>1321.11401367188</ele>
        <time>2018-07-28T09:44:18Z</time>
      </trkpt>
      <trkpt lat="36.6863250732422" lon="-5.04779195785522">
        <ele>1320.91345214844</ele>
        <time>2018-07-28T09:44:19Z</time>
      </trkpt>
      <trkpt lat="36.6863250732422" lon="-5.04781818389893">
        <ele>1320.71997070312</ele>
        <time>2018-07-28T09:44:20Z</time>
      </trkpt>
      <trkpt lat="36.6863212585449" lon="-5.04784488677978">
        <ele>1320.61804199219</ele>
        <time>2018-07-28T09:44:21Z</time>
      </trkpt>
      <trkpt lat="36.6863174438477" lon="-5.0478720664978">
        <ele>1320.50830078125</ele>
        <time>2018-07-28T09:44:22Z</time>
      </trkpt>
      <trkpt lat="36.6863136291504" lon="-5.04789781570435">
        <ele>1320.40478515625</ele>
        <time>2018-07-28T09:44:23Z</time>
      </trkpt>
      <trkpt lat="36.6863059997559" lon="-5.04792404174805">
        <ele>1320.38220214844</ele>
        <time>2018-07-28T09:44:24Z</time>
      </trkpt>
      <trkpt lat="36.6863059997559" lon="-5.04794979095459">
        <ele>1320.18151855469</ele>
        <time>2018-07-28T09:44:25Z</time>
      </trkpt>
      <trkpt lat="36.6863021850586" lon="-5.04797601699829">
        <ele>1320.06164550781</ele>
        <time>2018-07-28T09:44:26Z</time>
      </trkpt>
      <trkpt lat="36.6862983703613" lon="-5.04800176620483">
        <ele>1319.94116210938</ele>
        <time>2018-07-28T09:44:27Z</time>
      </trkpt>
      <trkpt lat="36.6862983703613" lon="-5.04802989959717">
        <ele>1319.71728515625</ele>
        <time>2018-07-28T09:44:28Z</time>
      </trkpt>
      <trkpt lat="36.6862983703613" lon="-5.04805707931519">
        <ele>1319.50109863281</ele>
        <time>2018-07-28T09:44:29Z</time>
      </trkpt>
      <trkpt lat="36.6862945556641" lon="-5.04808378219604">
        <ele>1319.36413574219</ele>
        <time>2018-07-28T09:44:30Z</time>
      </trkpt>
      <trkpt lat="36.6862907409668" lon="-5.04811000823975">
        <ele>1319.22668457031</ele>
        <time>2018-07-28T09:44:31Z</time>
      </trkpt>
      <trkpt lat="36.6862869262695" lon="-5.04813385009766">
        <ele>1319.1044921875</ele>
        <time>2018-07-28T09:44:32Z</time>
      </trkpt>
      <trkpt lat="36.6862831115723" lon="-5.04815912246704">
        <ele>1318.96655273438</ele>
        <time>2018-07-28T09:44:33Z</time>
      </trkpt>
      <trkpt lat="36.686279296875" lon="-5.04818296432495">
        <ele>1318.83630371094</ele>
        <time>2018-07-28T09:44:34Z</time>
      </trkpt>
      <trkpt lat="36.6862716674805" lon="-5.04820680618286">
        <ele>1318.76745605469</ele>
        <time>2018-07-28T09:44:35Z</time>
      </trkpt>
      <trkpt lat="36.6862640380859" lon="-5.04823017120361">
        <ele>1318.69506835938</ele>
        <time>2018-07-28T09:44:36Z</time>
      </trkpt>
      <trkpt lat="36.6862564086914" lon="-5.04825115203857">
        <ele>1318.63598632812</ele>
        <time>2018-07-28T09:44:37Z</time>
      </trkpt>
      <trkpt lat="36.6862449645996" lon="-5.04827117919922">
        <ele>1318.638671875</ele>
        <time>2018-07-28T09:44:38Z</time>
      </trkpt>
      <trkpt lat="36.6862335205078" lon="-5.04828977584839">
        <ele>1318.64477539062</ele>
        <time>2018-07-28T09:44:39Z</time>
      </trkpt>
      <trkpt lat="36.686222076416" lon="-5.0483078956604">
        <ele>1318.64636230469</ele>
        <time>2018-07-28T09:44:40Z</time>
      </trkpt>
      <trkpt lat="36.686206817627" lon="-5.04832410812378">
        <ele>1318.71350097656</ele>
        <time>2018-07-28T09:44:41Z</time>
      </trkpt>
      <trkpt lat="36.6861915588379" lon="-5.04833793640137">
        <ele>1318.89770507812</ele>
        <time>2018-07-28T09:44:42Z</time>
      </trkpt>
      <trkpt lat="36.6861724853516" lon="-5.04834985733032">
        <ele>1319.31213378906</ele>
        <time>2018-07-28T09:44:43Z</time>
      </trkpt>
      <trkpt lat="36.686149597168" lon="-5.04836177825928">
        <ele>1319.77197265625</ele>
        <time>2018-07-28T09:44:44Z</time>
      </trkpt>
      <trkpt lat="36.6861305236816" lon="-5.04837322235107">
        <ele>1320.16467285156</ele>
        <time>2018-07-28T09:44:45Z</time>
      </trkpt>
      <trkpt lat="36.6861114501953" lon="-5.0483832359314">
        <ele>1320.53430175781</ele>
        <time>2018-07-28T09:44:46Z</time>
      </trkpt>
      <trkpt lat="36.6860885620117" lon="-5.04839277267456">
        <ele>1320.94348144531</ele>
        <time>2018-07-28T09:44:47Z</time>
      </trkpt>
      <trkpt lat="36.6860694885254" lon="-5.04840183258057">
        <ele>1321.28991699219</ele>
        <time>2018-07-28T09:44:48Z</time>
      </trkpt>
      <trkpt lat="36.6860504150391" lon="-5.04841089248657">
        <ele>1321.63037109375</ele>
        <time>2018-07-28T09:44:49Z</time>
      </trkpt>
      <trkpt lat="36.6860313415527" lon="-5.04841995239258">
        <ele>1321.96472167969</ele>
        <time>2018-07-28T09:44:50Z</time>
      </trkpt>
      <trkpt lat="36.6860122680664" lon="-5.04842710494995">
        <ele>1322.27587890625</ele>
        <time>2018-07-28T09:44:51Z</time>
      </trkpt>
      <trkpt lat="36.6859893798828" lon="-5.04843187332153">
        <ele>1322.60986328125</ele>
        <time>2018-07-28T09:44:52Z</time>
      </trkpt>
      <trkpt lat="36.6859703063965" lon="-5.04843521118164">
        <ele>1322.88000488281</ele>
        <time>2018-07-28T09:44:53Z</time>
      </trkpt>
      <trkpt lat="36.6859474182129" lon="-5.04843711853027">
        <ele>1323.18444824219</ele>
        <time>2018-07-28T09:44:54Z</time>
      </trkpt>
      <trkpt lat="36.6859245300293" lon="-5.04844093322754">
        <ele>1323.501953125</ele>
        <time>2018-07-28T09:44:55Z</time>
      </trkpt>
      <trkpt lat="36.685905456543" lon="-5.04844379425049">
        <ele>1323.76184082031</ele>
        <time>2018-07-28T09:44:56Z</time>
      </trkpt>
      <trkpt lat="36.6858863830566" lon="-5.04844903945923">
        <ele>1324.03637695312</ele>
        <time>2018-07-28T09:44:57Z</time>
      </trkpt>
      <trkpt lat="36.6858673095703" lon="-5.04845523834228">
        <ele>1324.31372070312</ele>
        <time>2018-07-28T09:44:58Z</time>
      </trkpt>
      <trkpt lat="36.6858444213867" lon="-5.04846286773682">
        <ele>1324.64233398438</ele>
        <time>2018-07-28T09:44:59Z</time>
      </trkpt>
      <trkpt lat="36.6858253479004" lon="-5.04846906661987">
        <ele>1324.93334960938</ele>
        <time>2018-07-28T09:45:00Z</time>
      </trkpt>
      <trkpt lat="36.6858062744141" lon="-5.04847383499146">
        <ele>1325.24206542969</ele>
        <time>2018-07-28T09:45:01Z</time>
      </trkpt>
      <trkpt lat="36.6857833862305" lon="-5.0484790802002">
        <ele>1325.60290527344</ele>
        <time>2018-07-28T09:45:02Z</time>
      </trkpt>
      <trkpt lat="36.6857643127441" lon="-5.04848480224609">
        <ele>1325.90283203125</ele>
        <time>2018-07-28T09:45:03Z</time>
      </trkpt>
      <trkpt lat="36.6857376098633" lon="-5.04849004745483">
        <ele>1326.30297851562</ele>
        <time>2018-07-28T09:45:04Z</time>
      </trkpt>
      <trkpt lat="36.6857147216797" lon="-5.04849815368652">
        <ele>1326.64697265625</ele>
        <time>2018-07-28T09:45:05Z</time>
      </trkpt>
      <trkpt lat="36.6856918334961" lon="-5.04850578308106">
        <ele>1326.97839355469</ele>
        <time>2018-07-28T09:45:06Z</time>
      </trkpt>
      <trkpt lat="36.6856689453125" lon="-5.04851484298706">
        <ele>1327.30004882812</ele>
        <time>2018-07-28T09:45:07Z</time>
      </trkpt>
      <trkpt lat="36.6856460571289" lon="-5.04852199554443">
        <ele>1327.6083984375</ele>
        <time>2018-07-28T09:45:08Z</time>
      </trkpt>
      <trkpt lat="36.6856231689453" lon="-5.04853010177612">
        <ele>1327.90563964844</ele>
        <time>2018-07-28T09:45:09Z</time>
      </trkpt>
      <trkpt lat="36.6856002807617" lon="-5.04854011535644">
        <ele>1328.18859863281</ele>
        <time>2018-07-28T09:45:10Z</time>
      </trkpt>
      <trkpt lat="36.6855773925781" lon="-5.04855298995972">
        <ele>1328.45092773438</ele>
        <time>2018-07-28T09:45:11Z</time>
      </trkpt>
      <trkpt lat="36.6855583190918" lon="-5.04856586456299">
        <ele>1328.64953613281</ele>
        <time>2018-07-28T09:45:12Z</time>
      </trkpt>
      <trkpt lat="36.6855354309082" lon="-5.04857587814331">
        <ele>1328.88598632812</ele>
        <time>2018-07-28T09:45:13Z</time>
      </trkpt>
      <trkpt lat="36.6855125427246" lon="-5.048583984375">
        <ele>1329.11584472656</ele>
        <time>2018-07-28T09:45:14Z</time>
      </trkpt>
      <trkpt lat="36.6854934692383" lon="-5.04859399795532">
        <ele>1329.28283691406</ele>
        <time>2018-07-28T09:45:15Z</time>
      </trkpt>
      <trkpt lat="36.685474395752" lon="-5.04860496520996">
        <ele>1329.4326171875</ele>
        <time>2018-07-28T09:45:16Z</time>
      </trkpt>
      <trkpt lat="36.6854553222656" lon="-5.04861783981323">
        <ele>1329.55773925781</ele>
        <time>2018-07-28T09:45:17Z</time>
      </trkpt>
      <trkpt lat="36.685432434082" lon="-5.04863214492798">
        <ele>1329.69506835938</ele>
        <time>2018-07-28T09:45:18Z</time>
      </trkpt>
      <trkpt lat="36.6854133605957" lon="-5.04864978790283">
        <ele>1329.75183105469</ele>
        <time>2018-07-28T09:45:19Z</time>
      </trkpt>
      <trkpt lat="36.6853942871094" lon="-5.04867076873779">
        <ele>1329.76086425781</ele>
        <time>2018-07-28T09:45:20Z</time>
      </trkpt>
      <trkpt lat="36.685375213623" lon="-5.04869222640991">
        <ele>1329.74060058594</ele>
        <time>2018-07-28T09:45:21Z</time>
      </trkpt>
      <trkpt lat="36.6853561401367" lon="-5.0487117767334">
        <ele>1329.71166992188</ele>
        <time>2018-07-28T09:45:22Z</time>
      </trkpt>
      <trkpt lat="36.6853370666504" lon="-5.04873180389404">
        <ele>1329.65454101562</ele>
        <time>2018-07-28T09:45:23Z</time>
      </trkpt>
      <trkpt lat="36.6853179931641" lon="-5.04875183105469">
        <ele>1329.57312011719</ele>
        <time>2018-07-28T09:45:24Z</time>
      </trkpt>
      <trkpt lat="36.685302734375" lon="-5.04877185821533">
        <ele>1329.447265625</ele>
        <time>2018-07-28T09:45:25Z</time>
      </trkpt>
      <trkpt lat="36.6852874755859" lon="-5.04879188537598">
        <ele>1329.30212402344</ele>
        <time>2018-07-28T09:45:26Z</time>
      </trkpt>
      <trkpt lat="36.6852684020996" lon="-5.04881381988525">
        <ele>1329.13037109375</ele>
        <time>2018-07-28T09:45:27Z</time>
      </trkpt>
      <trkpt lat="36.6852531433106" lon="-5.04883718490601">
        <ele>1328.90173339844</ele>
        <time>2018-07-28T09:45:28Z</time>
      </trkpt>
      <trkpt lat="36.6852340698242" lon="-5.04885911941528">
        <ele>1328.6787109375</ele>
        <time>2018-07-28T09:45:29Z</time>
      </trkpt>
      <trkpt lat="36.6852149963379" lon="-5.04887819290161">
        <ele>1328.46801757812</ele>
        <time>2018-07-28T09:45:30Z</time>
      </trkpt>
      <trkpt lat="36.6851997375488" lon="-5.04889678955078">
        <ele>1328.23596191406</ele>
        <time>2018-07-28T09:45:31Z</time>
      </trkpt>
      <trkpt lat="36.6851768493652" lon="-5.04891490936279">
        <ele>1327.99865722656</ele>
        <time>2018-07-28T09:45:32Z</time>
      </trkpt>
      <trkpt lat="36.6851615905762" lon="-5.04893493652344">
        <ele>1327.70446777344</ele>
        <time>2018-07-28T09:45:33Z</time>
      </trkpt>
      <trkpt lat="36.6851425170898" lon="-5.04895496368408">
        <ele>1327.38903808594</ele>
        <time>2018-07-28T09:45:34Z</time>
      </trkpt>
      <trkpt lat="36.685131072998" lon="-5.04897594451904">
        <ele>1327.04248046875</ele>
        <time>2018-07-28T09:45:35Z</time>
      </trkpt>
      <trkpt lat="36.685115814209" lon="-5.04899597167969">
        <ele>1326.68981933594</ele>
        <time>2018-07-28T09:45:36Z</time>
      </trkpt>
      <trkpt lat="36.6851005554199" lon="-5.04901313781738">
        <ele>1326.36694335938</ele>
        <time>2018-07-28T09:45:37Z</time>
      </trkpt>
      <trkpt lat="36.6850814819336" lon="-5.04903078079224">
        <ele>1326.00793457031</ele>
        <time>2018-07-28T09:45:38Z</time>
      </trkpt>
      <trkpt lat="36.6850624084473" lon="-5.04904890060425">
        <ele>1325.61889648438</ele>
        <time>2018-07-28T09:45:39Z</time>
      </trkpt>
      <trkpt lat="36.6850471496582" lon="-5.04906702041626">
        <ele>1325.22338867188</ele>
        <time>2018-07-28T09:45:40Z</time>
      </trkpt>
      <trkpt lat="36.6850318908691" lon="-5.04908418655396">
        <ele>1324.82885742188</ele>
        <time>2018-07-28T09:45:41Z</time>
      </trkpt>
      <trkpt lat="36.6850166320801" lon="-5.04910087585449">
        <ele>1324.42724609375</ele>
        <time>2018-07-28T09:45:42Z</time>
      </trkpt>
      <trkpt lat="36.685001373291" lon="-5.04911708831787">
        <ele>1324.01916503906</ele>
        <time>2018-07-28T09:45:43Z</time>
      </trkpt>
      <trkpt lat="36.684986114502" lon="-5.04913377761841">
        <ele>1324.00817871094</ele>
        <time>2018-07-28T09:45:44Z</time>
      </trkpt>
      <trkpt lat="36.6849670410156" lon="-5.04915189743042">
        <ele>1324.09655761719</ele>
        <time>2018-07-28T09:45:45Z</time>
      </trkpt>
      <trkpt lat="36.6849479675293" lon="-5.04917001724243">
        <ele>1324.22644042969</ele>
        <time>2018-07-28T09:45:46Z</time>
      </trkpt>
      <trkpt lat="36.684928894043" lon="-5.04918718338013">
        <ele>1324.56457519531</ele>
        <time>2018-07-28T09:45:47Z</time>
      </trkpt>
      <trkpt lat="36.6849098205566" lon="-5.04920482635498">
        <ele>1324.89074707031</ele>
        <time>2018-07-28T09:45:48Z</time>
      </trkpt>
      <trkpt lat="36.6848945617676" lon="-5.04922580718994">
        <ele>1325.09484863281</ele>
        <time>2018-07-28T09:45:49Z</time>
      </trkpt>
      <trkpt lat="36.6848754882812" lon="-5.0492467880249">
        <ele>1325.37829589844</ele>
        <time>2018-07-28T09:45:50Z</time>
      </trkpt>
      <trkpt lat="36.6848602294922" lon="-5.04926776885986">
        <ele>1325.56469726562</ele>
        <time>2018-07-28T09:45:51Z</time>
      </trkpt>
      <trkpt lat="36.6848449707031" lon="-5.04928779602051">
        <ele>1325.75061035156</ele>
        <time>2018-07-28T09:45:52Z</time>
      </trkpt>
      <trkpt lat="36.6848335266113" lon="-5.04930877685547">
        <ele>1325.83605957031</ele>
        <time>2018-07-28T09:45:53Z</time>
      </trkpt>
      <trkpt lat="36.6848258972168" lon="-5.04932498931885">
        <ele>1325.87133789062</ele>
        <time>2018-07-28T09:45:54Z</time>
      </trkpt>
      <trkpt lat="36.684814453125" lon="-5.0493369102478">
        <ele>1326.02233886719</ele>
        <time>2018-07-28T09:45:55Z</time>
      </trkpt>
      <trkpt lat="36.6848106384277" lon="-5.04934310913086">
        <ele>1326.05297851562</ele>
        <time>2018-07-28T09:45:56Z</time>
      </trkpt>
      <trkpt lat="36.6848068237305" lon="-5.04934597015381">
        <ele>1326.11157226562</ele>
        <time>2018-07-28T09:45:57Z</time>
      </trkpt>
      <trkpt lat="36.6848068237305" lon="-5.04934597015381">
        <ele>1326.11157226562</ele>
        <time>2018-07-28T09:45:58Z</time>
      </trkpt>
      <trkpt lat="36.6848068237305" lon="-5.04934406280518">
        <ele>1326.12768554688</ele>
        <time>2018-07-28T09:45:59Z</time>
      </trkpt>
      <trkpt lat="36.6848068237305" lon="-5.04934501647949">
        <ele>1326.11962890625</ele>
        <time>2018-07-28T09:46:00Z</time>
      </trkpt>
      <trkpt lat="36.6848068237305" lon="-5.04934883117676">
        <ele>1326.08715820312</ele>
        <time>2018-07-28T09:46:01Z</time>
      </trkpt>
      <trkpt lat="36.6848068237305" lon="-5.04935503005981">
        <ele>1326.03442382812</ele>
        <time>2018-07-28T09:46:02Z</time>
      </trkpt>
      <trkpt lat="36.6848106384277" lon="-5.04936122894287">
        <ele>1325.89978027344</ele>
        <time>2018-07-28T09:46:03Z</time>
      </trkpt>
      <trkpt lat="36.6848106384277" lon="-5.04936504364014">
        <ele>1325.86755371094</ele>
        <time>2018-07-28T09:46:04Z</time>
      </trkpt>
      <trkpt lat="36.6848106384277" lon="-5.04936790466309">
        <ele>1325.84338378906</ele>
        <time>2018-07-28T09:46:05Z</time>
      </trkpt>
      <trkpt lat="36.6848106384277" lon="-5.04936981201172">
        <ele>1325.82727050781</ele>
        <time>2018-07-28T09:46:06Z</time>
      </trkpt>
      <trkpt lat="36.6848068237305" lon="-5.04937219619751">
        <ele>1325.88854980469</ele>
        <time>2018-07-28T09:46:07Z</time>
      </trkpt>
      <trkpt lat="36.6847991943359" lon="-5.04937219619751">
        <ele>1326.05126953125</ele>
        <time>2018-07-28T09:46:08Z</time>
      </trkpt>
      <trkpt lat="36.6847991943359" lon="-5.04937314987183">
        <ele>1326.04309082031</ele>
        <time>2018-07-28T09:46:09Z</time>
      </trkpt>
      <trkpt lat="36.6847953796387" lon="-5.04937410354614">
        <ele>1326.1162109375</ele>
        <time>2018-07-28T09:46:10Z</time>
      </trkpt>
      <trkpt lat="36.6847953796387" lon="-5.04937505722046">
        <ele>1326.10791015625</ele>
        <time>2018-07-28T09:46:11Z</time>
      </trkpt>
      <trkpt lat="36.6847953796387" lon="-5.04937505722046">
        <ele>1326.10791015625</ele>
        <time>2018-07-28T09:46:12Z</time>
      </trkpt>
      <trkpt lat="36.6847953796387" lon="-5.04937505722046">
        <ele>1326.10791015625</ele>
        <time>2018-07-28T09:46:13Z</time>
      </trkpt>
      <trkpt lat="36.6847953796387" lon="-5.04937219619751">
        <ele>1326.13269042969</ele>
        <time>2018-07-28T09:46:14Z</time>
      </trkpt>
      <trkpt lat="36.6847953796387" lon="-5.04936981201172">
        <ele>1326.1533203125</ele>
        <time>2018-07-28T09:46:15Z</time>
      </trkpt>
      <trkpt lat="36.6847953796387" lon="-5.04936790466309">
        <ele>1326.16979980469</ele>
        <time>2018-07-28T09:46:16Z</time>
      </trkpt>
      <trkpt lat="36.6847953796387" lon="-5.04936695098877">
        <ele>1326.17810058594</ele>
        <time>2018-07-28T09:46:17Z</time>
      </trkpt>
      <trkpt lat="36.6847953796387" lon="-5.04936790466309">
        <ele>1326.16979980469</ele>
        <time>2018-07-28T09:46:18Z</time>
      </trkpt>
      <trkpt lat="36.6847991943359" lon="-5.04936790466309">
        <ele>1326.08825683594</ele>
        <time>2018-07-28T09:46:19Z</time>
      </trkpt>
      <trkpt lat="36.6847991943359" lon="-5.04936599731445">
        <ele>1326.10461425781</ele>
        <time>2018-07-28T09:46:20Z</time>
      </trkpt>
      <trkpt lat="36.6848030090332" lon="-5.0493631362915">
        <ele>1326.04736328125</ele>
        <time>2018-07-28T09:46:21Z</time>
      </trkpt>
      <trkpt lat="36.6848030090332" lon="-5.04935884475708">
        <ele>1326.08410644531</ele>
        <time>2018-07-28T09:46:22Z</time>
      </trkpt>
      <trkpt lat="36.6848068237305" lon="-5.04935693740845">
        <ele>1326.01831054688</ele>
        <time>2018-07-28T09:46:23Z</time>
      </trkpt>
      <trkpt lat="36.6848068237305" lon="-5.04935693740845">
        <ele>1326.01831054688</ele>
        <time>2018-07-28T09:46:24Z</time>
      </trkpt>
      <trkpt lat="36.6848068237305" lon="-5.04935789108276">
        <ele>1326.01013183594</ele>
        <time>2018-07-28T09:46:25Z</time>
      </trkpt>
      <trkpt lat="36.6848068237305" lon="-5.04935884475708">
        <ele>1326.00207519531</ele>
        <time>2018-07-28T09:46:26Z</time>
      </trkpt>
      <trkpt lat="36.6848106384277" lon="-5.04936122894287">
        <ele>1325.89978027344</ele>
        <time>2018-07-28T09:46:27Z</time>
      </trkpt>
      <trkpt lat="36.6848106384277" lon="-5.04936218261719">
        <ele>1325.89172363281</ele>
        <time>2018-07-28T09:46:28Z</time>
      </trkpt>
      <trkpt lat="36.6848106384277" lon="-5.0493631362915">
        <ele>1325.88366699219</ele>
        <time>2018-07-28T09:46:29Z</time>
      </trkpt>
      <trkpt lat="36.6848106384277" lon="-5.04936504364014">
        <ele>1325.86755371094</ele>
        <time>2018-07-28T09:46:30Z</time>
      </trkpt>
      <trkpt lat="36.684814453125" lon="-5.04936504364014">
        <ele>1325.78588867188</ele>
        <time>2018-07-28T09:46:31Z</time>
      </trkpt>
      <trkpt lat="36.684814453125" lon="-5.04936599731445">
        <ele>1325.77783203125</ele>
        <time>2018-07-28T09:46:32Z</time>
      </trkpt>
      <trkpt lat="36.684814453125" lon="-5.04936599731445">
        <ele>1325.77783203125</ele>
        <time>2018-07-28T09:46:33Z</time>
      </trkpt>
      <trkpt lat="36.684814453125" lon="-5.04936695098877">
        <ele>1325.76977539062</ele>
        <time>2018-07-28T09:46:34Z</time>
      </trkpt>
      <trkpt lat="36.684814453125" lon="-5.04936695098877">
        <ele>1325.76977539062</ele>
        <time>2018-07-28T09:46:35Z</time>
      </trkpt>
      <trkpt lat="36.684814453125" lon="-5.0493688583374">
        <ele>1325.75378417969</ele>
        <time>2018-07-28T09:46:36Z</time>
      </trkpt>
      <trkpt lat="36.684814453125" lon="-5.04936981201172">
        <ele>1325.74572753906</ele>
        <time>2018-07-28T09:46:37Z</time>
      </trkpt>
      <trkpt lat="36.6848106384277" lon="-5.04937076568604">
        <ele>1325.81921386719</ele>
        <time>2018-07-28T09:46:38Z</time>
      </trkpt>
      <trkpt lat="36.6848106384277" lon="-5.04936981201172">
        <ele>1325.82727050781</ele>
        <time>2018-07-28T09:46:39Z</time>
      </trkpt>
      <trkpt lat="36.6848106384277" lon="-5.04936981201172">
        <ele>1325.82727050781</ele>
        <time>2018-07-28T09:46:40Z</time>
      </trkpt>
      <trkpt lat="36.6848106384277" lon="-5.0493688583374">
        <ele>1325.83532714844</ele>
        <time>2018-07-28T09:46:41Z</time>
      </trkpt>
      <trkpt lat="36.6848068237305" lon="-5.0493688583374">
        <ele>1325.91687011719</ele>
        <time>2018-07-28T09:46:42Z</time>
      </trkpt>
      <trkpt lat="36.6848068237305" lon="-5.0493688583374">
        <ele>1325.91687011719</ele>
        <time>2018-07-28T09:46:43Z</time>
      </trkpt>
      <trkpt lat="36.6848068237305" lon="-5.04936790466309">
        <ele>1325.92504882812</ele>
        <time>2018-07-28T09:46:44Z</time>
      </trkpt>
      <trkpt lat="36.6848068237305" lon="-5.04936790466309">
        <ele>1325.92504882812</ele>
        <time>2018-07-28T09:46:45Z</time>
      </trkpt>
      <trkpt lat="36.6848030090332" lon="-5.04936790466309">
        <ele>1326.00659179688</ele>
        <time>2018-07-28T09:46:46Z</time>
      </trkpt>
      <trkpt lat="36.6848030090332" lon="-5.04936790466309">
        <ele>1326.00659179688</ele>
        <time>2018-07-28T09:46:47Z</time>
      </trkpt>
      <trkpt lat="36.6847991943359" lon="-5.04936790466309">
        <ele>1326.08825683594</ele>
        <time>2018-07-28T09:46:48Z</time>
      </trkpt>
      <trkpt lat="36.6847991943359" lon="-5.04936790466309">
        <ele>1326.08825683594</ele>
        <time>2018-07-28T09:46:49Z</time>
      </trkpt>
      <trkpt lat="36.6847991943359" lon="-5.04936790466309">
        <ele>1326.08825683594</ele>
        <time>2018-07-28T09:46:50Z</time>
      </trkpt>
      <trkpt lat="36.6847991943359" lon="-5.0493688583374">
        <ele>1326.07995605469</ele>
        <time>2018-07-28T09:46:51Z</time>
      </trkpt>
      <trkpt lat="36.6847991943359" lon="-5.04936981201172">
        <ele>1326.07177734375</ele>
        <time>2018-07-28T09:46:52Z</time>
      </trkpt>
      <trkpt lat="36.6847991943359" lon="-5.04937076568604">
        <ele>1326.06359863281</ele>
        <time>2018-07-28T09:46:53Z</time>
      </trkpt>
      <trkpt lat="36.6848030090332" lon="-5.04937219619751">
        <ele>1325.96984863281</ele>
        <time>2018-07-28T09:46:54Z</time>
      </trkpt>
      <trkpt lat="36.6848030090332" lon="-5.04937076568604">
        <ele>1325.98217773438</ele>
        <time>2018-07-28T09:46:55Z</time>
      </trkpt>
      <trkpt lat="36.6848030090332" lon="-5.04937076568604">
        <ele>1325.98217773438</ele>
        <time>2018-07-28T09:46:56Z</time>
      </trkpt>
      <trkpt lat="36.6848030090332" lon="-5.04936981201172">
        <ele>1325.990234375</ele>
        <time>2018-07-28T09:46:57Z</time>
      </trkpt>
      <trkpt lat="36.6848030090332" lon="-5.04936981201172">
        <ele>1325.990234375</ele>
        <time>2018-07-28T09:46:58Z</time>
      </trkpt>
      <trkpt lat="36.6848068237305" lon="-5.04936981201172">
        <ele>1325.90881347656</ele>
        <time>2018-07-28T09:46:59Z</time>
      </trkpt>
      <trkpt lat="36.6848068237305" lon="-5.04936981201172">
        <ele>1325.90881347656</ele>
        <time>2018-07-28T09:47:00Z</time>
      </trkpt>
      <trkpt lat="36.6848068237305" lon="-5.04937076568604">
        <ele>1325.90063476562</ele>
        <time>2018-07-28T09:47:01Z</time>
      </trkpt>
      <trkpt lat="36.6848068237305" lon="-5.04936981201172">
        <ele>1325.90881347656</ele>
        <time>2018-07-28T09:47:02Z</time>
      </trkpt>
      <trkpt lat="36.6848068237305" lon="-5.0493688583374">
        <ele>1325.91687011719</ele>
        <time>2018-07-28T09:47:03Z</time>
      </trkpt>
      <trkpt lat="36.6848068237305" lon="-5.0493688583374">
        <ele>1325.91687011719</ele>
        <time>2018-07-28T09:47:04Z</time>
      </trkpt>
      <trkpt lat="36.6848068237305" lon="-5.0493688583374">
        <ele>1325.91687011719</ele>
        <time>2018-07-28T09:47:05Z</time>
      </trkpt>
      <trkpt lat="36.6848030090332" lon="-5.04936790466309">
        <ele>1326.00659179688</ele>
        <time>2018-07-28T09:47:06Z</time>
      </trkpt>
      <trkpt lat="36.6848030090332" lon="-5.04936695098877">
        <ele>1326.01477050781</ele>
        <time>2018-07-28T09:47:07Z</time>
      </trkpt>
      <trkpt lat="36.6847991943359" lon="-5.04936599731445">
        <ele>1326.10461425781</ele>
        <time>2018-07-28T09:47:08Z</time>
      </trkpt>
      <trkpt lat="36.6847991943359" lon="-5.04936504364014">
        <ele>1326.11279296875</ele>
        <time>2018-07-28T09:47:09Z</time>
      </trkpt>
      <trkpt lat="36.6847991943359" lon="-5.04936408996582">
        <ele>1326.12097167969</ele>
        <time>2018-07-28T09:47:10Z</time>
      </trkpt>
      <trkpt lat="36.6847991943359" lon="-5.0493631362915">
        <ele>1326.12927246094</ele>
        <time>2018-07-28T09:47:11Z</time>
      </trkpt>
      <trkpt lat="36.6847991943359" lon="-5.0493631362915">
        <ele>1326.12927246094</ele>
        <time>2018-07-28T09:47:12Z</time>
      </trkpt>
      <trkpt lat="36.6847991943359" lon="-5.0493631362915">
        <ele>1326.12927246094</ele>
        <time>2018-07-28T09:47:13Z</time>
      </trkpt>
      <trkpt lat="36.6847991943359" lon="-5.04936218261719">
        <ele>1326.13745117188</ele>
        <time>2018-07-28T09:47:14Z</time>
      </trkpt>
      <trkpt lat="36.6847991943359" lon="-5.04936218261719">
        <ele>1326.13745117188</ele>
        <time>2018-07-28T09:47:15Z</time>
      </trkpt>
      <trkpt lat="36.6847991943359" lon="-5.04936218261719">
        <ele>1326.13745117188</ele>
        <time>2018-07-28T09:47:16Z</time>
      </trkpt>
      <trkpt lat="36.6847991943359" lon="-5.04936218261719">
        <ele>1326.13745117188</ele>
        <time>2018-07-28T09:47:17Z</time>
      </trkpt>
      <trkpt lat="36.6847991943359" lon="-5.04936218261719">
        <ele>1326.13745117188</ele>
        <time>2018-07-28T09:47:18Z</time>
      </trkpt>
      <trkpt lat="36.6848030090332" lon="-5.0493631362915">
        <ele>1326.04736328125</ele>
        <time>2018-07-28T09:47:19Z</time>
      </trkpt>
      <trkpt lat="36.6848030090332" lon="-5.0493631362915">
        <ele>1326.04736328125</ele>
        <time>2018-07-28T09:47:20Z</time>
      </trkpt>
      <trkpt lat="36.6848030090332" lon="-5.04936408996582">
        <ele>1326.03918457031</ele>
        <time>2018-07-28T09:47:21Z</time>
      </trkpt>
      <trkpt lat="36.6848030090332" lon="-5.04936408996582">
        <ele>1326.03918457031</ele>
        <time>2018-07-28T09:47:22Z</time>
      </trkpt>
      <trkpt lat="36.6848030090332" lon="-5.04936408996582">
        <ele>1326.03918457031</ele>
        <time>2018-07-28T09:47:23Z</time>
      </trkpt>
      <trkpt lat="36.6848030090332" lon="-5.04936408996582">
        <ele>1326.03918457031</ele>
        <time>2018-07-28T09:47:24Z</time>
      </trkpt>
      <trkpt lat="36.6848068237305" lon="-5.04936408996582">
        <ele>1325.95739746094</ele>
        <time>2018-07-28T09:47:25Z</time>
      </trkpt>
      <trkpt lat="36.6848068237305" lon="-5.04936408996582">
        <ele>1325.95739746094</ele>
        <time>2018-07-28T09:47:26Z</time>
      </trkpt>
      <trkpt lat="36.6848068237305" lon="-5.04936504364014">
        <ele>1325.94934082031</ele>
        <time>2018-07-28T09:47:27Z</time>
      </trkpt>
      <trkpt lat="36.6848068237305" lon="-5.04936504364014">
        <ele>1325.94934082031</ele>
        <time>2018-07-28T09:47:28Z</time>
      </trkpt>
      <trkpt lat="36.6848106384277" lon="-5.04936504364014">
        <ele>1325.86755371094</ele>
        <time>2018-07-28T09:47:29Z</time>
      </trkpt>
      <trkpt lat="36.6848106384277" lon="-5.04936408996582">
        <ele>1325.87561035156</ele>
        <time>2018-07-28T09:47:30Z</time>
      </trkpt>
      <trkpt lat="36.684814453125" lon="-5.04936504364014">
        <ele>1325.78588867188</ele>
        <time>2018-07-28T09:47:31Z</time>
      </trkpt>
      <trkpt lat="36.684814453125" lon="-5.04936504364014">
        <ele>1325.78588867188</ele>
        <time>2018-07-28T09:47:32Z</time>
      </trkpt>
      <trkpt lat="36.6848182678223" lon="-5.04936504364014">
        <ele>1325.7041015625</ele>
        <time>2018-07-28T09:47:33Z</time>
      </trkpt>
      <trkpt lat="36.684814453125" lon="-5.04936695098877">
        <ele>1325.76977539062</ele>
        <time>2018-07-28T09:47:34Z</time>
      </trkpt>
      <trkpt lat="36.684814453125" lon="-5.0493688583374">
        <ele>1325.75378417969</ele>
        <time>2018-07-28T09:47:35Z</time>
      </trkpt>
      <trkpt lat="36.684814453125" lon="-5.04937076568604">
        <ele>1325.73779296875</ele>
        <time>2018-07-28T09:47:36Z</time>
      </trkpt>
      <trkpt lat="36.684814453125" lon="-5.04937410354614">
        <ele>1325.70971679688</ele>
        <time>2018-07-28T09:47:37Z</time>
      </trkpt>
      <trkpt lat="36.6848182678223" lon="-5.04937505722046">
        <ele>1325.62036132812</ele>
        <time>2018-07-28T09:47:38Z</time>
      </trkpt>
      <trkpt lat="36.6848182678223" lon="-5.04937601089478">
        <ele>1325.61242675781</ele>
        <time>2018-07-28T09:47:39Z</time>
      </trkpt>
      <trkpt lat="36.6848182678223" lon="-5.04937696456909">
        <ele>1325.6044921875</ele>
        <time>2018-07-28T09:47:40Z</time>
      </trkpt>
      <trkpt lat="36.6848182678223" lon="-5.04937696456909">
        <ele>1325.6044921875</ele>
        <time>2018-07-28T09:47:41Z</time>
      </trkpt>
      <trkpt lat="36.6848182678223" lon="-5.04937887191772">
        <ele>1325.58850097656</ele>
        <time>2018-07-28T09:47:42Z</time>
      </trkpt>
      <trkpt lat="36.684814453125" lon="-5.04938077926636">
        <ele>1325.65356445312</ele>
        <time>2018-07-28T09:47:43Z</time>
      </trkpt>
      <trkpt lat="36.684814453125" lon="-5.04938316345215">
        <ele>1325.63354492188</ele>
        <time>2018-07-28T09:47:44Z</time>
      </trkpt>
      <trkpt lat="36.684814453125" lon="-5.04938316345215">
        <ele>1325.63354492188</ele>
        <time>2018-07-28T09:47:45Z</time>
      </trkpt>
      <trkpt lat="36.684814453125" lon="-5.04938316345215">
        <ele>1325.63354492188</ele>
        <time>2018-07-28T09:47:46Z</time>
      </trkpt>
      <trkpt lat="36.6848106384277" lon="-5.0493860244751">
        <ele>1325.69018554688</ele>
        <time>2018-07-28T09:47:47Z</time>
      </trkpt>
      <trkpt lat="36.6848068237305" lon="-5.04939222335815">
        <ele>1325.71813964844</ele>
        <time>2018-07-28T09:47:48Z</time>
      </trkpt>
      <trkpt lat="36.6847991943359" lon="-5.04940319061279">
        <ele>1325.78466796875</ele>
        <time>2018-07-28T09:47:49Z</time>
      </trkpt>
      <trkpt lat="36.6847915649414" lon="-5.04941511154175">
        <ele>1325.84069824219</ele>
        <time>2018-07-28T09:47:50Z</time>
      </trkpt>
      <trkpt lat="36.6847801208496" lon="-5.0494270324707">
        <ele>1325.97290039062</ele>
        <time>2018-07-28T09:47:51Z</time>
      </trkpt>
      <trkpt lat="36.6847724914551" lon="-5.04943704605103">
        <ele>1326.04077148438</ele>
        <time>2018-07-28T09:47:52Z</time>
      </trkpt>
      <trkpt lat="36.6847610473633" lon="-5.04944705963135">
        <ele>1326.18420410156</ele>
        <time>2018-07-28T09:47:53Z</time>
      </trkpt>
      <trkpt lat="36.6847496032715" lon="-5.04945707321167">
        <ele>1326.32470703125</ele>
        <time>2018-07-28T09:47:54Z</time>
      </trkpt>
      <trkpt lat="36.6847381591797" lon="-5.04946899414062">
        <ele>1326.4443359375</ele>
        <time>2018-07-28T09:47:55Z</time>
      </trkpt>
      <trkpt lat="36.6847305297852" lon="-5.04947805404663">
        <ele>1326.51147460938</ele>
        <time>2018-07-28T09:47:56Z</time>
      </trkpt>
      <trkpt lat="36.6847190856934" lon="-5.04948616027832">
        <ele>1326.66186523438</ele>
        <time>2018-07-28T09:47:57Z</time>
      </trkpt>
      <trkpt lat="36.6847114562988" lon="-5.04949283599854">
        <ele>1326.74829101562</ele>
        <time>2018-07-28T09:47:58Z</time>
      </trkpt>
      <trkpt lat="36.6847038269043" lon="-5.04950189590454">
        <ele>1326.81005859375</ele>
        <time>2018-07-28T09:47:59Z</time>
      </trkpt>
      <trkpt lat="36.6846923828125" lon="-5.04951190948486">
        <ele>1326.93493652344</ele>
        <time>2018-07-28T09:48:00Z</time>
      </trkpt>
      <trkpt lat="36.684684753418" lon="-5.04952096939087">
        <ele>1326.99255371094</ele>
        <time>2018-07-28T09:48:01Z</time>
      </trkpt>
      <trkpt lat="36.6846771240234" lon="-5.04953098297119">
        <ele>1327.03869628906</ele>
        <time>2018-07-28T09:48:02Z</time>
      </trkpt>
      <trkpt lat="36.6846656799316" lon="-5.04953813552856">
        <ele>1327.18542480469</ele>
        <time>2018-07-28T09:48:03Z</time>
      </trkpt>
      <trkpt lat="36.6846618652344" lon="-5.0495457649231">
        <ele>1327.17932128906</ele>
        <time>2018-07-28T09:48:04Z</time>
      </trkpt>
      <trkpt lat="36.6846542358398" lon="-5.04955387115478">
        <ele>1327.23999023438</ele>
        <time>2018-07-28T09:48:05Z</time>
      </trkpt>
      <trkpt lat="36.6846466064453" lon="-5.04956388473511">
        <ele>1327.27893066406</ele>
        <time>2018-07-28T09:48:06Z</time>
      </trkpt>
      <trkpt lat="36.6846389770508" lon="-5.04957485198975">
        <ele>1327.30554199219</ele>
        <time>2018-07-28T09:48:07Z</time>
      </trkpt>
      <trkpt lat="36.6846313476562" lon="-5.04958486557007">
        <ele>1327.34045410156</ele>
        <time>2018-07-28T09:48:08Z</time>
      </trkpt>
      <trkpt lat="36.6846199035644" lon="-5.04959487915039">
        <ele>1327.44360351562</ele>
        <time>2018-07-28T09:48:09Z</time>
      </trkpt>
      <trkpt lat="36.6846122741699" lon="-5.04960298538208">
        <ele>1327.49499511719</ele>
        <time>2018-07-28T09:48:10Z</time>
      </trkpt>
      <trkpt lat="36.6846008300781" lon="-5.0496129989624">
        <ele>1327.59313964844</ele>
        <time>2018-07-28T09:48:11Z</time>
      </trkpt>
      <trkpt lat="36.6845932006836" lon="-5.04962301254272">
        <ele>1327.619140625</ele>
        <time>2018-07-28T09:48:12Z</time>
      </trkpt>
      <trkpt lat="36.6845855712891" lon="-5.04963397979736">
        <ele>1327.63244628906</ele>
        <time>2018-07-28T09:48:13Z</time>
      </trkpt>
      <trkpt lat="36.6845741271973" lon="-5.049644947052">
        <ele>1327.71142578125</ele>
        <time>2018-07-28T09:48:14Z</time>
      </trkpt>
      <trkpt lat="36.6845626831055" lon="-5.04965496063232">
        <ele>1327.79833984375</ele>
        <time>2018-07-28T09:48:15Z</time>
      </trkpt>
      <trkpt lat="36.6845512390137" lon="-5.04966402053833">
        <ele>1327.8935546875</ele>
        <time>2018-07-28T09:48:16Z</time>
      </trkpt>
      <trkpt lat="36.6845436096191" lon="-5.04967308044434">
        <ele>1327.91955566406</ele>
        <time>2018-07-28T09:48:17Z</time>
      </trkpt>
      <trkpt lat="36.6845321655273" lon="-5.04968214035034">
        <ele>1328.009765625</ele>
        <time>2018-07-28T09:48:18Z</time>
      </trkpt>
      <trkpt lat="36.6845245361328" lon="-5.04969215393066">
        <ele>1328.02014160156</ele>
        <time>2018-07-28T09:48:19Z</time>
      </trkpt>
      <trkpt lat="36.6845169067383" lon="-5.0497031211853">
        <ele>1328.01684570312</ele>
        <time>2018-07-28T09:48:20Z</time>
      </trkpt>
      <trkpt lat="36.6845092773438" lon="-5.04971218109131">
        <ele>1328.03491210938</ele>
        <time>2018-07-28T09:48:21Z</time>
      </trkpt>
      <trkpt lat="36.6845016479492" lon="-5.04972219467163">
        <ele>1328.03930664062</ele>
        <time>2018-07-28T09:48:22Z</time>
      </trkpt>
      <trkpt lat="36.6844940185547" lon="-5.04973077774048">
        <ele>1328.05969238281</ele>
        <time>2018-07-28T09:48:23Z</time>
      </trkpt>
      <trkpt lat="36.6844863891602" lon="-5.04974222183228">
        <ele>1328.04223632812</ele>
        <time>2018-07-28T09:48:24Z</time>
      </trkpt>
      <trkpt lat="36.6844787597656" lon="-5.04975318908691">
        <ele>1328.02856445312</ele>
        <time>2018-07-28T09:48:25Z</time>
      </trkpt>
      <trkpt lat="36.6844711303711" lon="-5.04976320266724">
        <ele>1328.02490234375</ele>
        <time>2018-07-28T09:48:26Z</time>
      </trkpt>
      <trkpt lat="36.6844635009766" lon="-5.04977178573608">
        <ele>1328.03784179688</ele>
        <time>2018-07-28T09:48:27Z</time>
      </trkpt>
      <trkpt lat="36.684455871582" lon="-5.04978322982788">
        <ele>1328.01171875</ele>
        <time>2018-07-28T09:48:28Z</time>
      </trkpt>
      <trkpt lat="36.6844444274902" lon="-5.04979515075684">
        <ele>1328.03759765625</ele>
        <time>2018-07-28T09:48:29Z</time>
      </trkpt>
      <trkpt lat="36.6844367980957" lon="-5.04980707168579">
        <ele>1328</ele>
        <time>2018-07-28T09:48:30Z</time>
      </trkpt>
      <trkpt lat="36.6844291687012" lon="-5.04981803894043">
        <ele>1327.97290039062</ele>
        <time>2018-07-28T09:48:31Z</time>
      </trkpt>
      <trkpt lat="36.6844177246094" lon="-5.04982709884644">
        <ele>1328.02819824219</ele>
        <time>2018-07-28T09:48:32Z</time>
      </trkpt>
      <trkpt lat="36.6844100952148" lon="-5.04983806610107">
        <ele>1327.99633789062</ele>
        <time>2018-07-28T09:48:33Z</time>
      </trkpt>
      <trkpt lat="36.6844024658203" lon="-5.04984998703003">
        <ele>1327.94921875</ele>
        <time>2018-07-28T09:48:34Z</time>
      </trkpt>
      <trkpt lat="36.6843948364258" lon="-5.0498628616333">
        <ele>1327.88659667969</ele>
        <time>2018-07-28T09:48:35Z</time>
      </trkpt>
      <trkpt lat="36.6843872070312" lon="-5.04987621307373">
        <ele>1327.81469726562</ele>
        <time>2018-07-28T09:48:36Z</time>
      </trkpt>
      <trkpt lat="36.6843795776367" lon="-5.04988813400269">
        <ele>1327.76025390625</ele>
        <time>2018-07-28T09:48:37Z</time>
      </trkpt>
      <trkpt lat="36.6843719482422" lon="-5.04990100860596">
        <ele>1327.68994140625</ele>
        <time>2018-07-28T09:48:38Z</time>
      </trkpt>
      <trkpt lat="36.6843643188477" lon="-5.0499119758606">
        <ele>1327.64428710938</ele>
        <time>2018-07-28T09:48:39Z</time>
      </trkpt>
      <trkpt lat="36.6843566894531" lon="-5.04992389678955">
        <ele>1327.58276367188</ele>
        <time>2018-07-28T09:48:40Z</time>
      </trkpt>
      <trkpt lat="36.6843528747559" lon="-5.04993581771851">
        <ele>1327.46545410156</ele>
        <time>2018-07-28T09:48:41Z</time>
      </trkpt>
      <trkpt lat="36.6843452453613" lon="-5.04994916915894">
        <ele>1327.37902832031</ele>
        <time>2018-07-28T09:48:42Z</time>
      </trkpt>
      <trkpt lat="36.6843376159668" lon="-5.04996204376221">
        <ele>1327.29699707031</ele>
        <time>2018-07-28T09:48:43Z</time>
      </trkpt>
      <trkpt lat="36.6843338012695" lon="-5.0499758720398">
        <ele>1327.14685058594</ele>
        <time>2018-07-28T09:48:44Z</time>
      </trkpt>
      <trkpt lat="36.684326171875" lon="-5.04998779296875">
        <ele>1327.07434082031</ele>
        <time>2018-07-28T09:48:45Z</time>
      </trkpt>
      <trkpt lat="36.6843185424805" lon="-5.05000114440918">
        <ele>1326.97790527344</ele>
        <time>2018-07-28T09:48:46Z</time>
      </trkpt>
      <trkpt lat="36.6843109130859" lon="-5.05001306533814">
        <ele>1326.89599609375</ele>
        <time>2018-07-28T09:48:47Z</time>
      </trkpt>
      <trkpt lat="36.6843032836914" lon="-5.05002498626709">
        <ele>1326.81079101562</ele>
        <time>2018-07-28T09:48:48Z</time>
      </trkpt>
      <trkpt lat="36.6842956542969" lon="-5.05003595352173">
        <ele>1326.73706054688</ele>
        <time>2018-07-28T09:48:49Z</time>
      </trkpt>
      <trkpt lat="36.6842842102051" lon="-5.050048828125">
        <ele>1326.67700195312</ele>
        <time>2018-07-28T09:48:50Z</time>
      </trkpt>
      <trkpt lat="36.6842765808106" lon="-5.05006122589111">
        <ele>1326.57299804688</ele>
        <time>2018-07-28T09:48:51Z</time>
      </trkpt>
      <trkpt lat="36.6842727661133" lon="-5.0500750541687">
        <ele>1326.39758300781</ele>
        <time>2018-07-28T09:48:52Z</time>
      </trkpt>
      <trkpt lat="36.6842651367188" lon="-5.05008983612061">
        <ele>1326.24877929688</ele>
        <time>2018-07-28T09:48:53Z</time>
      </trkpt>
      <trkpt lat="36.6842613220215" lon="-5.0501070022583">
        <ele>1326.01416015625</ele>
        <time>2018-07-28T09:48:54Z</time>
      </trkpt>
      <trkpt lat="36.6842575073242" lon="-5.05012321472168">
        <ele>1325.79260253906</ele>
        <time>2018-07-28T09:48:55Z</time>
      </trkpt>
      <trkpt lat="36.6842498779297" lon="-5.05013799667358">
        <ele>1325.63269042969</ele>
        <time>2018-07-28T09:48:56Z</time>
      </trkpt>
      <trkpt lat="36.6842460632324" lon="-5.05015087127686">
        <ele>1325.46057128906</ele>
        <time>2018-07-28T09:48:57Z</time>
      </trkpt>
      <trkpt lat="36.6842384338379" lon="-5.0501651763916">
        <ele>1325.30139160156</ele>
        <time>2018-07-28T09:48:58Z</time>
      </trkpt>
      <trkpt lat="36.6842308044434" lon="-5.05017709732056">
        <ele>1325.17822265625</ele>
        <time>2018-07-28T09:48:59Z</time>
      </trkpt>
      <trkpt lat="36.6842231750488" lon="-5.0501880645752">
        <ele>1325.06787109375</ele>
        <time>2018-07-28T09:49:00Z</time>
      </trkpt>
      <trkpt lat="36.6842155456543" lon="-5.05019903182983">
        <ele>1324.95434570312</ele>
        <time>2018-07-28T09:49:01Z</time>
      </trkpt>
      <trkpt lat="36.6842079162598" lon="-5.05021190643311">
        <ele>1324.80480957031</ele>
        <time>2018-07-28T09:49:02Z</time>
      </trkpt>
      <trkpt lat="36.6842002868652" lon="-5.05022478103638">
        <ele>1324.65161132812</ele>
        <time>2018-07-28T09:49:03Z</time>
      </trkpt>
      <trkpt lat="36.684196472168" lon="-5.05023908615112">
        <ele>1324.43640136719</ele>
        <time>2018-07-28T09:49:04Z</time>
      </trkpt>
      <trkpt lat="36.6841888427734" lon="-5.05025291442871">
        <ele>1324.259765625</ele>
        <time>2018-07-28T09:49:05Z</time>
      </trkpt>
      <trkpt lat="36.6841812133789" lon="-5.05026817321777">
        <ele>1324.05383300781</ele>
        <time>2018-07-28T09:49:06Z</time>
      </trkpt>
      <trkpt lat="36.6841735839844" lon="-5.05028295516968">
        <ele>1323.85217285156</ele>
        <time>2018-07-28T09:49:07Z</time>
      </trkpt>
      <trkpt lat="36.6841659545898" lon="-5.05029821395874">
        <ele>1323.66149902344</ele>
        <time>2018-07-28T09:49:08Z</time>
      </trkpt>
      <trkpt lat="36.6841583251953" lon="-5.05031394958496">
        <ele>1323.69299316406</ele>
        <time>2018-07-28T09:49:09Z</time>
      </trkpt>
      <trkpt lat="36.6841506958008" lon="-5.05032920837402">
        <ele>1323.7333984375</ele>
        <time>2018-07-28T09:49:10Z</time>
      </trkpt>
      <trkpt lat="36.6841468811035" lon="-5.05034399032593">
        <ele>1323.62524414062</ele>
        <time>2018-07-28T09:49:11Z</time>
      </trkpt>
      <trkpt lat="36.684139251709" lon="-5.05035877227783">
        <ele>1323.6748046875</ele>
        <time>2018-07-28T09:49:12Z</time>
      </trkpt>
      <trkpt lat="36.6841354370117" lon="-5.05037307739258">
        <ele>1323.57556152344</ele>
        <time>2018-07-28T09:49:13Z</time>
      </trkpt>
      <trkpt lat="36.6841278076172" lon="-5.05038499832153">
        <ele>1323.67700195312</ele>
        <time>2018-07-28T09:49:14Z</time>
      </trkpt>
      <trkpt lat="36.6841201782227" lon="-5.05039691925049">
        <ele>1323.77880859375</ele>
        <time>2018-07-28T09:49:15Z</time>
      </trkpt>
      <trkpt lat="36.6841125488281" lon="-5.05040979385376">
        <ele>1323.86364746094</ele>
        <time>2018-07-28T09:49:16Z</time>
      </trkpt>
      <trkpt lat="36.6841049194336" lon="-5.05042409896851">
        <ele>1323.92321777344</ele>
        <time>2018-07-28T09:49:17Z</time>
      </trkpt>
      <trkpt lat="36.6841011047363" lon="-5.05043697357178">
        <ele>1323.85070800781</ele>
        <time>2018-07-28T09:49:18Z</time>
      </trkpt>
      <trkpt lat="36.6840972900391" lon="-5.05044889450073">
        <ele>1323.79528808594</ele>
        <time>2018-07-28T09:49:19Z</time>
      </trkpt>
      <trkpt lat="36.6840934753418" lon="-5.050461769104">
        <ele>1323.72302246094</ele>
        <time>2018-07-28T09:49:20Z</time>
      </trkpt>
      <trkpt lat="36.6840858459473" lon="-5.05047416687012">
        <ele>1323.81762695312</ele>
        <time>2018-07-28T09:49:21Z</time>
      </trkpt>
      <trkpt lat="36.68408203125" lon="-5.05048704147339">
        <ele>1323.74572753906</ele>
        <time>2018-07-28T09:49:22Z</time>
      </trkpt>
      <trkpt lat="36.6840782165527" lon="-5.05049896240234">
        <ele>1323.69104003906</ele>
        <time>2018-07-28T09:49:23Z</time>
      </trkpt>
      <trkpt lat="36.6840705871582" lon="-5.0505108833313">
        <ele>1323.79479980469</ele>
        <time>2018-07-28T09:49:24Z</time>
      </trkpt>
      <trkpt lat="36.6840629577637" lon="-5.05052423477173">
        <ele>1323.87341308594</ele>
        <time>2018-07-28T09:49:25Z</time>
      </trkpt>
      <trkpt lat="36.6840515136719" lon="-5.05053806304932">
        <ele>1324.10229492188</ele>
        <time>2018-07-28T09:49:26Z</time>
      </trkpt>
      <trkpt lat="36.6840438842773" lon="-5.05055093765259">
        <ele>1324.19006347656</ele>
        <time>2018-07-28T09:49:27Z</time>
      </trkpt>
      <trkpt lat="36.6840362548828" lon="-5.05056476593018">
        <ele>1324.26110839844</ele>
        <time>2018-07-28T09:49:28Z</time>
      </trkpt>
      <trkpt lat="36.6840286254883" lon="-5.05057907104492">
        <ele>1324.32385253906</ele>
        <time>2018-07-28T09:49:29Z</time>
      </trkpt>
      <trkpt lat="36.684024810791" lon="-5.05059289932251">
        <ele>1324.23669433594</ele>
        <time>2018-07-28T09:49:30Z</time>
      </trkpt>
      <trkpt lat="36.6840133666992" lon="-5.05060577392578">
        <ele>1324.484375</ele>
        <time>2018-07-28T09:49:31Z</time>
      </trkpt>
      <trkpt lat="36.684009552002" lon="-5.05062007904053">
        <ele>1324.38916015625</ele>
        <time>2018-07-28T09:49:32Z</time>
      </trkpt>
      <trkpt lat="36.6840019226074" lon="-5.05063486099243">
        <ele>1324.44470214844</ele>
        <time>2018-07-28T09:49:33Z</time>
      </trkpt>
      <trkpt lat="36.6839942932129" lon="-5.05065107345581">
        <ele>1324.47509765625</ele>
        <time>2018-07-28T09:49:34Z</time>
      </trkpt>
      <trkpt lat="36.6839904785156" lon="-5.05066680908203">
        <ele>1324.35510253906</ele>
        <time>2018-07-28T09:49:35Z</time>
      </trkpt>
      <trkpt lat="36.6839828491211" lon="-5.05068302154541">
        <ele>1324.38610839844</ele>
        <time>2018-07-28T09:49:36Z</time>
      </trkpt>
      <trkpt lat="36.6839752197266" lon="-5.05069923400879">
        <ele>1324.41760253906</ele>
        <time>2018-07-28T09:49:37Z</time>
      </trkpt>
      <trkpt lat="36.683967590332" lon="-5.05071306228638">
        <ele>1324.49157714844</ele>
        <time>2018-07-28T09:49:38Z</time>
      </trkpt>
      <trkpt lat="36.6839599609375" lon="-5.05072593688965">
        <ele>1324.58276367188</ele>
        <time>2018-07-28T09:49:39Z</time>
      </trkpt>
      <trkpt lat="36.683952331543" lon="-5.05073881149292">
        <ele>1324.67431640625</ele>
        <time>2018-07-28T09:49:40Z</time>
      </trkpt>
      <trkpt lat="36.6839447021484" lon="-5.05075311660767">
        <ele>1324.74072265625</ele>
        <time>2018-07-28T09:49:41Z</time>
      </trkpt>
      <trkpt lat="36.6839408874512" lon="-5.05076694488525">
        <ele>1324.65612792969</ele>
        <time>2018-07-28T09:49:42Z</time>
      </trkpt>
      <trkpt lat="36.6839332580566" lon="-5.05078077316284">
        <ele>1324.73156738281</ele>
        <time>2018-07-28T09:49:43Z</time>
      </trkpt>
      <trkpt lat="36.6839256286621" lon="-5.05079507827759">
        <ele>1324.79895019531</ele>
        <time>2018-07-28T09:49:44Z</time>
      </trkpt>
      <trkpt lat="36.6839218139648" lon="-5.05080986022949">
        <ele>1324.69799804688</ele>
        <time>2018-07-28T09:49:45Z</time>
      </trkpt>
      <trkpt lat="36.6839141845703" lon="-5.05082511901856">
        <ele>1324.74914550781</ele>
        <time>2018-07-28T09:49:46Z</time>
      </trkpt>
      <trkpt lat="36.6839065551758" lon="-5.05083990097046">
        <ele>1324.830078125</ele>
        <time>2018-07-28T09:49:47Z</time>
      </trkpt>
      <trkpt lat="36.6839027404785" lon="-5.05085515975952">
        <ele>1324.77062988281</ele>
        <time>2018-07-28T09:49:48Z</time>
      </trkpt>
      <trkpt lat="36.683895111084" lon="-5.05086994171143">
        <ele>1324.87817382812</ele>
        <time>2018-07-28T09:49:49Z</time>
      </trkpt>
      <trkpt lat="36.6838912963867" lon="-5.05088376998901">
        <ele>1324.83923339844</ele>
        <time>2018-07-28T09:49:50Z</time>
      </trkpt>
      <trkpt lat="36.6838836669922" lon="-5.05089902877808">
        <ele>1324.93994140625</ele>
        <time>2018-07-28T09:49:51Z</time>
      </trkpt>
      <trkpt lat="36.6838760375977" lon="-5.0509147644043">
        <ele>1325.03381347656</ele>
        <time>2018-07-28T09:49:52Z</time>
      </trkpt>
      <trkpt lat="36.6838722229004" lon="-5.05093193054199">
        <ele>1324.94677734375</ele>
        <time>2018-07-28T09:49:53Z</time>
      </trkpt>
      <trkpt lat="36.6838645935059" lon="-5.05094814300537">
        <ele>1325.03381347656</ele>
        <time>2018-07-28T09:49:54Z</time>
      </trkpt>
      <trkpt lat="36.6838607788086" lon="-5.05096387863159">
        <ele>1324.96740722656</ele>
        <time>2018-07-28T09:49:55Z</time>
      </trkpt>
      <trkpt lat="36.6838531494141" lon="-5.05097913742065">
        <ele>1325.06811523438</ele>
        <time>2018-07-28T09:49:56Z</time>
      </trkpt>
      <trkpt lat="36.6838493347168" lon="-5.05099487304688">
        <ele>1325.00170898438</ele>
        <time>2018-07-28T09:49:57Z</time>
      </trkpt>
      <trkpt lat="36.6838455200195" lon="-5.05101108551025">
        <ele>1324.92846679688</ele>
        <time>2018-07-28T09:49:58Z</time>
      </trkpt>
      <trkpt lat="36.6838417053223" lon="-5.05102682113647">
        <ele>1324.86218261719</ele>
        <time>2018-07-28T09:49:59Z</time>
      </trkpt>
      <trkpt lat="36.6838340759277" lon="-5.05104207992554">
        <ele>1324.962890625</ele>
        <time>2018-07-28T09:50:00Z</time>
      </trkpt>
      <trkpt lat="36.6838302612305" lon="-5.05105590820312">
        <ele>1324.92395019531</ele>
        <time>2018-07-28T09:50:01Z</time>
      </trkpt>
      <trkpt lat="36.6838264465332" lon="-5.0510721206665">
        <ele>1324.85070800781</ele>
        <time>2018-07-28T09:50:02Z</time>
      </trkpt>
      <trkpt lat="36.6838264465332" lon="-5.05108690261841">
        <ele>1324.63781738281</ele>
        <time>2018-07-28T09:50:03Z</time>
      </trkpt>
      <trkpt lat="36.6838226318359" lon="-5.05110216140747">
        <ele>1324.57836914062</ele>
        <time>2018-07-28T09:50:04Z</time>
      </trkpt>
      <trkpt lat="36.6838188171387" lon="-5.05111789703369">
        <ele>1324.51196289062</ele>
        <time>2018-07-28T09:50:05Z</time>
      </trkpt>
      <trkpt lat="36.6838150024414" lon="-5.05113315582275">
        <ele>1324.45239257812</ele>
        <time>2018-07-28T09:50:06Z</time>
      </trkpt>
      <trkpt lat="36.6838111877441" lon="-5.05114889144897">
        <ele>1324.38610839844</ele>
        <time>2018-07-28T09:50:07Z</time>
      </trkpt>
      <trkpt lat="36.6838073730469" lon="-5.05116510391235">
        <ele>1324.31286621094</ele>
        <time>2018-07-28T09:50:08Z</time>
      </trkpt>
      <trkpt lat="36.6838035583496" lon="-5.05118083953857">
        <ele>1324.24645996094</ele>
        <time>2018-07-28T09:50:09Z</time>
      </trkpt>
      <trkpt lat="36.6837997436523" lon="-5.05119895935059">
        <ele>1324.14575195312</ele>
        <time>2018-07-28T09:50:10Z</time>
      </trkpt>
      <trkpt lat="36.6837959289551" lon="-5.0512170791626">
        <ele>1324.04504394531</ele>
        <time>2018-07-28T09:50:11Z</time>
      </trkpt>
      <trkpt lat="36.6837921142578" lon="-5.05123519897461">
        <ele>1323.9443359375</ele>
        <time>2018-07-28T09:50:12Z</time>
      </trkpt>
      <trkpt lat="36.6837882995606" lon="-5.05125188827515">
        <ele>1323.8642578125</ele>
        <time>2018-07-28T09:50:13Z</time>
      </trkpt>
      <trkpt lat="36.683780670166" lon="-5.05126810073853">
        <ele>1323.951171875</ele>
        <time>2018-07-28T09:50:14Z</time>
      </trkpt>
      <trkpt lat="36.6837768554688" lon="-5.0512809753418">
        <ele>1323.92602539062</ele>
        <time>2018-07-28T09:50:15Z</time>
      </trkpt>
      <trkpt lat="36.6837730407715" lon="-5.05129384994507">
        <ele>1323.90087890625</ele>
        <time>2018-07-28T09:50:16Z</time>
      </trkpt>
      <trkpt lat="36.683765411377" lon="-5.05130577087402">
        <ele>1324.04956054688</ele>
        <time>2018-07-28T09:50:17Z</time>
      </trkpt>
      <trkpt lat="36.6837615966797" lon="-5.0513219833374">
        <ele>1323.97631835938</ele>
        <time>2018-07-28T09:50:18Z</time>
      </trkpt>
      <trkpt lat="36.6837577819824" lon="-5.05134010314941">
        <ele>1323.87573242188</ele>
        <time>2018-07-28T09:50:19Z</time>
      </trkpt>
      <trkpt lat="36.6837501525879" lon="-5.05135679244995">
        <ele>1323.95581054688</ele>
        <time>2018-07-28T09:50:20Z</time>
      </trkpt>
      <trkpt lat="36.6837463378906" lon="-5.05137395858765">
        <ele>1323.86877441406</ele>
        <time>2018-07-28T09:50:21Z</time>
      </trkpt>
      <trkpt lat="36.6837425231934" lon="-5.05139017105103">
        <ele>1323.79553222656</ele>
        <time>2018-07-28T09:50:22Z</time>
      </trkpt>
      <trkpt lat="36.6837387084961" lon="-5.05140495300293">
        <ele>1323.74291992188</ele>
        <time>2018-07-28T09:50:23Z</time>
      </trkpt>
      <trkpt lat="36.6837348937988" lon="-5.0514178276062">
        <ele>1323.7177734375</ele>
        <time>2018-07-28T09:50:24Z</time>
      </trkpt>
      <trkpt lat="36.6837348937988" lon="-5.05143117904663">
        <ele>1323.52551269531</ele>
        <time>2018-07-28T09:50:25Z</time>
      </trkpt>
      <trkpt lat="36.6837310791016" lon="-5.05144500732422">
        <ele>1323.48657226562</ele>
        <time>2018-07-28T09:50:26Z</time>
      </trkpt>
      <trkpt lat="36.6837272644043" lon="-5.0514612197876">
        <ele>1323.41333007812</ele>
        <time>2018-07-28T09:50:27Z</time>
      </trkpt>
      <trkpt lat="36.683723449707" lon="-5.05147790908814">
        <ele>1323.33325195312</ele>
        <time>2018-07-28T09:50:28Z</time>
      </trkpt>
      <trkpt lat="36.6837196350098" lon="-5.05149602890015">
        <ele>1323.23254394531</ele>
        <time>2018-07-28T09:50:29Z</time>
      </trkpt>
      <trkpt lat="36.6837196350098" lon="-5.05151510238647">
        <ele>1322.95788574219</ele>
        <time>2018-07-28T09:50:30Z</time>
      </trkpt>
      <trkpt lat="36.6837158203125" lon="-5.05153322219849">
        <ele>1322.85717773438</ele>
        <time>2018-07-28T09:50:31Z</time>
      </trkpt>
      <trkpt lat="36.6837158203125" lon="-5.05155086517334">
        <ele>1322.60302734375</ele>
        <time>2018-07-28T09:50:32Z</time>
      </trkpt>
      <trkpt lat="36.6837158203125" lon="-5.05156803131104">
        <ele>1322.35595703125</ele>
        <time>2018-07-28T09:50:33Z</time>
      </trkpt>
      <trkpt lat="36.6837158203125" lon="-5.05158519744873">
        <ele>1322.10864257812</ele>
        <time>2018-07-28T09:50:34Z</time>
      </trkpt>
      <trkpt lat="36.6837158203125" lon="-5.05160284042358">
        <ele>1321.85461425781</ele>
        <time>2018-07-28T09:50:35Z</time>
      </trkpt>
      <trkpt lat="36.6837158203125" lon="-5.0516209602356">
        <ele>1321.59375</ele>
        <time>2018-07-28T09:50:36Z</time>
      </trkpt>
      <trkpt lat="36.6837158203125" lon="-5.05163812637329">
        <ele>1321.34655761719</ele>
        <time>2018-07-28T09:50:37Z</time>
      </trkpt>
      <trkpt lat="36.6837158203125" lon="-5.05165386199951">
        <ele>1321.11987304688</ele>
        <time>2018-07-28T09:50:38Z</time>
      </trkpt>
      <trkpt lat="36.6837120056152" lon="-5.05166912078857">
        <ele>1321.06359863281</ele>
        <time>2018-07-28T09:50:39Z</time>
      </trkpt>
      <trkpt lat="36.6837120056152" lon="-5.0516848564148">
        <ele>1320.85766601562</ele>
        <time>2018-07-28T09:50:40Z</time>
      </trkpt>
      <trkpt lat="36.6837120056152" lon="-5.05170106887817">
        <ele>1320.64538574219</ele>
        <time>2018-07-28T09:50:41Z</time>
      </trkpt>
      <trkpt lat="36.6837120056152" lon="-5.05171680450439">
        <ele>1320.439453125</ele>
        <time>2018-07-28T09:50:42Z</time>
      </trkpt>
      <trkpt lat="36.6837120056152" lon="-5.05173301696777">
        <ele>1320.22717285156</ele>
        <time>2018-07-28T09:50:43Z</time>
      </trkpt>
      <trkpt lat="36.6837120056152" lon="-5.05175018310547">
        <ele>1320.00244140625</ele>
        <time>2018-07-28T09:50:44Z</time>
      </trkpt>
      <trkpt lat="36.683708190918" lon="-5.05176591873169">
        <ele>1319.95776367188</ele>
        <time>2018-07-28T09:50:45Z</time>
      </trkpt>
      <trkpt lat="36.683708190918" lon="-5.05178213119507">
        <ele>1319.74572753906</ele>
        <time>2018-07-28T09:50:46Z</time>
      </trkpt>
      <trkpt lat="36.683708190918" lon="-5.05179691314697">
        <ele>1319.55236816406</ele>
        <time>2018-07-28T09:50:47Z</time>
      </trkpt>
      <trkpt lat="36.6837043762207" lon="-5.05181312561035">
        <ele>1319.50219726562</ele>
        <time>2018-07-28T09:50:48Z</time>
      </trkpt>
      <trkpt lat="36.6837043762207" lon="-5.05182981491089">
        <ele>1319.28405761719</ele>
        <time>2018-07-28T09:50:49Z</time>
      </trkpt>
      <trkpt lat="36.6837005615234" lon="-5.05184602737427">
        <ele>1319.234375</ele>
        <time>2018-07-28T09:50:50Z</time>
      </trkpt>
      <trkpt lat="36.6837005615234" lon="-5.05186080932617">
        <ele>1319.04138183594</ele>
        <time>2018-07-28T09:50:51Z</time>
      </trkpt>
      <trkpt lat="36.6836967468262" lon="-5.05187511444092">
        <ele>1319.01708984375</ele>
        <time>2018-07-28T09:50:52Z</time>
      </trkpt>
      <trkpt lat="36.6836929321289" lon="-5.05188894271851">
        <ele>1318.99938964844</ele>
        <time>2018-07-28T09:50:53Z</time>
      </trkpt>
      <trkpt lat="36.6836891174316" lon="-5.05190420150757">
        <ele>1318.96325683594</ele>
        <time>2018-07-28T09:50:54Z</time>
      </trkpt>
      <trkpt lat="36.6836853027344" lon="-5.05191898345947">
        <ele>1318.93371582031</ele>
        <time>2018-07-28T09:50:55Z</time>
      </trkpt>
      <trkpt lat="36.6836814880371" lon="-5.05193376541138">
        <ele>1318.90454101562</ele>
        <time>2018-07-28T09:50:56Z</time>
      </trkpt>
      <trkpt lat="36.6836776733398" lon="-5.05194997787476">
        <ele>1318.85705566406</ele>
        <time>2018-07-28T09:50:57Z</time>
      </trkpt>
      <trkpt lat="36.6836738586426" lon="-5.05196619033814">
        <ele>1318.80993652344</ele>
        <time>2018-07-28T09:50:58Z</time>
      </trkpt>
      <trkpt lat="36.683666229248" lon="-5.05198192596436">
        <ele>1318.93298339844</ele>
        <time>2018-07-28T09:50:59Z</time>
      </trkpt>
      <trkpt lat="36.6836624145508" lon="-5.05199718475342">
        <ele>1318.89916992188</ele>
        <time>2018-07-28T09:51:00Z</time>
      </trkpt>
      <trkpt lat="36.6836585998535" lon="-5.05201196670532">
        <ele>1318.87170410156</ele>
        <time>2018-07-28T09:51:01Z</time>
      </trkpt>
      <trkpt lat="36.683650970459" lon="-5.05202722549438">
        <ele>1319.00268554688</ele>
        <time>2018-07-28T09:51:02Z</time>
      </trkpt>
      <trkpt lat="36.6836433410644" lon="-5.05204200744629">
        <ele>1319.14050292969</ele>
        <time>2018-07-28T09:51:03Z</time>
      </trkpt>
      <trkpt lat="36.6836357116699" lon="-5.05205821990967">
        <ele>1319.26049804688</ele>
        <time>2018-07-28T09:51:04Z</time>
      </trkpt>
      <trkpt lat="36.6836318969727" lon="-5.05207204818726">
        <ele>1319.24719238281</ele>
        <time>2018-07-28T09:51:05Z</time>
      </trkpt>
      <trkpt lat="36.6836204528809" lon="-5.05208587646484">
        <ele>1319.56384277344</ele>
        <time>2018-07-28T09:51:06Z</time>
      </trkpt>
      <trkpt lat="36.6836128234863" lon="-5.05210113525391">
        <ele>1319.69812011719</ele>
        <time>2018-07-28T09:51:07Z</time>
      </trkpt>
      <trkpt lat="36.6836051940918" lon="-5.05211496353149">
        <ele>1319.85131835938</ele>
        <time>2018-07-28T09:51:08Z</time>
      </trkpt>
      <trkpt lat="36.6835975646973" lon="-5.05212879180908">
        <ele>1320.00512695312</ele>
        <time>2018-07-28T09:51:09Z</time>
      </trkpt>
      <trkpt lat="36.6835899353027" lon="-5.05214214324951">
        <ele>1320.16564941406</ele>
        <time>2018-07-28T09:51:10Z</time>
      </trkpt>
      <trkpt lat="36.6835823059082" lon="-5.0521559715271">
        <ele>1320.32067871094</ele>
        <time>2018-07-28T09:51:11Z</time>
      </trkpt>
      <trkpt lat="36.6835746765137" lon="-5.05216979980469">
        <ele>1320.47631835938</ele>
        <time>2018-07-28T09:51:12Z</time>
      </trkpt>
      <trkpt lat="36.6835670471191" lon="-5.05218410491943">
        <ele>1320.62646484375</ele>
        <time>2018-07-28T09:51:13Z</time>
      </trkpt>
      <trkpt lat="36.6835556030273" lon="-5.05219602584839">
        <ele>1320.97351074219</ele>
        <time>2018-07-28T09:51:14Z</time>
      </trkpt>
      <trkpt lat="36.6835479736328" lon="-5.05220794677734">
        <ele>1321.15515136719</ele>
        <time>2018-07-28T09:51:15Z</time>
      </trkpt>
      <trkpt lat="36.683536529541" lon="-5.05221891403198">
        <ele>1321.515625</ele>
        <time>2018-07-28T09:51:16Z</time>
      </trkpt>
      <trkpt lat="36.6835289001465" lon="-5.05223083496094">
        <ele>1321.69836425781</ele>
        <time>2018-07-28T09:51:17Z</time>
      </trkpt>
      <trkpt lat="36.683521270752" lon="-5.05224418640137">
        <ele>1321.86376953125</ele>
        <time>2018-07-28T09:51:18Z</time>
      </trkpt>
      <trkpt lat="36.6835098266602" lon="-5.05225801467896">
        <ele>1322.19055175781</ele>
        <time>2018-07-28T09:51:19Z</time>
      </trkpt>
      <trkpt lat="36.6835021972656" lon="-5.05227184295654">
        <ele>1322.35131835938</ele>
        <time>2018-07-28T09:51:20Z</time>
      </trkpt>
      <trkpt lat="36.6834945678711" lon="-5.05228519439697">
        <ele>1322.5185546875</ele>
        <time>2018-07-28T09:51:21Z</time>
      </trkpt>
      <trkpt lat="36.6834869384766" lon="-5.05229902267456">
        <ele>1322.68054199219</ele>
        <time>2018-07-28T09:51:22Z</time>
      </trkpt>
      <trkpt lat="36.6834754943848" lon="-5.05231189727783">
        <ele>1323.02233886719</ele>
        <time>2018-07-28T09:51:23Z</time>
      </trkpt>
      <trkpt lat="36.6834678649902" lon="-5.05232620239258">
        <ele>1323.1796875</ele>
        <time>2018-07-28T09:51:24Z</time>
      </trkpt>
      <trkpt lat="36.6834602355957" lon="-5.05234003067017">
        <ele>1323.34362792969</ele>
        <time>2018-07-28T09:51:25Z</time>
      </trkpt>
      <trkpt lat="36.6834487915039" lon="-5.05235385894775">
        <ele>1323.67590332031</ele>
        <time>2018-07-28T09:51:26Z</time>
      </trkpt>
      <trkpt lat="36.6834411621094" lon="-5.0523681640625">
        <ele>1323.83532714844</ele>
        <time>2018-07-28T09:51:27Z</time>
      </trkpt>
      <trkpt lat="36.6834335327148" lon="-5.05238199234009">
        <ele>1324.00134277344</ele>
        <time>2018-07-28T09:51:28Z</time>
      </trkpt>
      <trkpt lat="36.6834259033203" lon="-5.05239582061768">
        <ele>1324.16784667969</ele>
        <time>2018-07-28T09:51:29Z</time>
      </trkpt>
      <trkpt lat="36.6834182739258" lon="-5.05241012573242">
        <ele>1324.3291015625</ele>
        <time>2018-07-28T09:51:30Z</time>
      </trkpt>
      <trkpt lat="36.6834106445312" lon="-5.05242490768433">
        <ele>1324.48522949219</ele>
        <time>2018-07-28T09:51:31Z</time>
      </trkpt>
      <trkpt lat="36.6834030151367" lon="-5.05244016647339">
        <ele>1324.63610839844</ele>
        <time>2018-07-28T09:51:32Z</time>
      </trkpt>
      <trkpt lat="36.6833953857422" lon="-5.05245494842529">
        <ele>1324.79357910156</ele>
        <time>2018-07-28T09:51:33Z</time>
      </trkpt>
      <trkpt lat="36.6833915710449" lon="-5.05247020721436">
        <ele>1324.77673339844</ele>
        <time>2018-07-28T09:51:34Z</time>
      </trkpt>
      <trkpt lat="36.6833877563477" lon="-5.05248498916626">
        <ele>1324.76611328125</ele>
        <time>2018-07-28T09:51:35Z</time>
      </trkpt>
      <trkpt lat="36.6833839416504" lon="-5.05250215530396">
        <ele>1324.69641113281</ele>
        <time>2018-07-28T09:51:36Z</time>
      </trkpt>
      <trkpt lat="36.6833763122559" lon="-5.05251789093018">
        <ele>1324.62158203125</ele>
        <time>2018-07-28T09:51:37Z</time>
      </trkpt>
      <trkpt lat="36.6833724975586" lon="-5.05253410339356">
        <ele>1324.36462402344</ele>
        <time>2018-07-28T09:51:38Z</time>
      </trkpt>
      <trkpt lat="36.6833648681641" lon="-5.05254983901978">
        <ele>1324.28857421875</ele>
        <time>2018-07-28T09:51:39Z</time>
      </trkpt>
      <trkpt lat="36.6833572387695" lon="-5.05256605148315">
        <ele>1324.19934082031</ele>
        <time>2018-07-28T09:51:40Z</time>
      </trkpt>
      <trkpt lat="36.683349609375" lon="-5.05258178710938">
        <ele>1324.12194824219</ele>
        <time>2018-07-28T09:51:41Z</time>
      </trkpt>
      <trkpt lat="36.6833457946777" lon="-5.05259799957275">
        <ele>1323.86303710938</ele>
        <time>2018-07-28T09:51:42Z</time>
      </trkpt>
      <trkpt lat="36.6833381652832" lon="-5.05261278152466">
        <ele>1323.8095703125</ele>
        <time>2018-07-28T09:51:43Z</time>
      </trkpt>
      <trkpt lat="36.6833305358887" lon="-5.05262899398804">
        <ele>1323.62329101562</ele>
        <time>2018-07-28T09:51:44Z</time>
      </trkpt>
      <trkpt lat="36.6833229064941" lon="-5.05264377593994">
        <ele>1323.3134765625</ele>
        <time>2018-07-28T09:51:45Z</time>
      </trkpt>
      <trkpt lat="36.6833152770996" lon="-5.05266094207764">
        <ele>1322.94470214844</ele>
        <time>2018-07-28T09:51:46Z</time>
      </trkpt>
      <trkpt lat="36.6833114624023" lon="-5.05267715454102">
        <ele>1322.56262207031</ele>
        <time>2018-07-28T09:51:47Z</time>
      </trkpt>
      <trkpt lat="36.6833038330078" lon="-5.05269289016724">
        <ele>1322.23742675781</ele>
        <time>2018-07-28T09:51:48Z</time>
      </trkpt>
      <trkpt lat="36.6832962036133" lon="-5.05270910263062">
        <ele>1321.9033203125</ele>
        <time>2018-07-28T09:51:49Z</time>
      </trkpt>
      <trkpt lat="36.683292388916" lon="-5.05272483825684">
        <ele>1321.54077148438</ele>
        <time>2018-07-28T09:51:50Z</time>
      </trkpt>
      <trkpt lat="36.6832847595215" lon="-5.0527400970459">
        <ele>1321.23742675781</ele>
        <time>2018-07-28T09:51:51Z</time>
      </trkpt>
      <trkpt lat="36.683277130127" lon="-5.05275583267212">
        <ele>1320.92517089844</ele>
        <time>2018-07-28T09:51:52Z</time>
      </trkpt>
      <trkpt lat="36.6832733154297" lon="-5.0527720451355">
        <ele>1320.55725097656</ele>
        <time>2018-07-28T09:51:53Z</time>
      </trkpt>
      <trkpt lat="36.6832656860352" lon="-5.05278778076172">
        <ele>1320.25109863281</ele>
        <time>2018-07-28T09:51:54Z</time>
      </trkpt>
      <trkpt lat="36.6832580566406" lon="-5.0528039932251">
        <ele>1319.93640136719</ele>
        <time>2018-07-28T09:51:55Z</time>
      </trkpt>
      <trkpt lat="36.6832504272461" lon="-5.052818775177">
        <ele>1319.66125488281</ele>
        <time>2018-07-28T09:51:56Z</time>
      </trkpt>
      <trkpt lat="36.6832427978516" lon="-5.05283403396606">
        <ele>1319.37744140625</ele>
        <time>2018-07-28T09:51:57Z</time>
      </trkpt>
      <trkpt lat="36.683235168457" lon="-5.05284881591797">
        <ele>1319.10888671875</ele>
        <time>2018-07-28T09:51:58Z</time>
      </trkpt>
      <trkpt lat="36.6832275390625" lon="-5.05286407470703">
        <ele>1318.83178710938</ele>
        <time>2018-07-28T09:51:59Z</time>
      </trkpt>
      <trkpt lat="36.6832237243652" lon="-5.05287885665894">
        <ele>1318.51684570312</ele>
        <time>2018-07-28T09:52:00Z</time>
      </trkpt>
      <trkpt lat="36.6832160949707" lon="-5.05289220809936">
        <ele>1318.29260253906</ele>
        <time>2018-07-28T09:52:01Z</time>
      </trkpt>
      <trkpt lat="36.6832084655762" lon="-5.05290508270264">
        <ele>1318.08312988281</ele>
        <time>2018-07-28T09:52:02Z</time>
      </trkpt>
      <trkpt lat="36.6832008361816" lon="-5.05291795730591">
        <ele>1317.87634277344</ele>
        <time>2018-07-28T09:52:03Z</time>
      </trkpt>
      <trkpt lat="36.6831932067871" lon="-5.05292987823486">
        <ele>1317.69567871094</ele>
        <time>2018-07-28T09:52:04Z</time>
      </trkpt>
      <trkpt lat="36.6831817626953" lon="-5.05294322967529">
        <ele>1317.53930664062</ele>
        <time>2018-07-28T09:52:05Z</time>
      </trkpt>
      <trkpt lat="36.6831741333008" lon="-5.05295610427856">
        <ele>1317.341796875</ele>
        <time>2018-07-28T09:52:06Z</time>
      </trkpt>
      <trkpt lat="36.683162689209" lon="-5.05296897888184">
        <ele>1317.20483398438</ele>
        <time>2018-07-28T09:52:07Z</time>
      </trkpt>
      <trkpt lat="36.6831550598144" lon="-5.05298089981079">
        <ele>1317.03625488281</ele>
        <time>2018-07-28T09:52:08Z</time>
      </trkpt>
      <trkpt lat="36.6831436157227" lon="-5.05299282073975">
        <ele>1316.92956542969</ele>
        <time>2018-07-28T09:52:09Z</time>
      </trkpt>
      <trkpt lat="36.6831359863281" lon="-5.05300521850586">
        <ele>1316.75561523438</ele>
        <time>2018-07-28T09:52:10Z</time>
      </trkpt>
      <trkpt lat="36.6831283569336" lon="-5.0530161857605">
        <ele>1316.61804199219</ele>
        <time>2018-07-28T09:52:11Z</time>
      </trkpt>
      <trkpt lat="36.6831169128418" lon="-5.05302619934082">
        <ele>1316.56616210938</ele>
        <time>2018-07-28T09:52:12Z</time>
      </trkpt>
      <trkpt lat="36.6831092834473" lon="-5.05303621292114">
        <ele>1316.45593261719</ele>
        <time>2018-07-28T09:52:13Z</time>
      </trkpt>
      <trkpt lat="36.6830978393555" lon="-5.05304622650146">
        <ele>1316.41003417969</ele>
        <time>2018-07-28T09:52:14Z</time>
      </trkpt>
      <trkpt lat="36.6830863952637" lon="-5.053053855896">
        <ele>1316.42199707031</ele>
        <time>2018-07-28T09:52:15Z</time>
      </trkpt>
      <trkpt lat="36.6830787658691" lon="-5.05306196212769">
        <ele>1316.36254882812</ele>
        <time>2018-07-28T09:52:16Z</time>
      </trkpt>
      <trkpt lat="36.6830673217773" lon="-5.05306911468506">
        <ele>1316.38989257812</ele>
        <time>2018-07-28T09:52:17Z</time>
      </trkpt>
      <trkpt lat="36.6830558776856" lon="-5.05307722091675">
        <ele>1316.39819335938</ele>
        <time>2018-07-28T09:52:18Z</time>
      </trkpt>
      <trkpt lat="36.6830444335938" lon="-5.05308389663696">
        <ele>1316.44104003906</ele>
        <time>2018-07-28T09:52:19Z</time>
      </trkpt>
      <trkpt lat="36.6830291748047" lon="-5.0530891418457">
        <ele>1316.58190917969</ele>
        <time>2018-07-28T09:52:20Z</time>
      </trkpt>
      <trkpt lat="36.6830177307129" lon="-5.05309391021728">
        <ele>1316.67102050781</ele>
        <time>2018-07-28T09:52:21Z</time>
      </trkpt>
      <trkpt lat="36.6830024719238" lon="-5.05309820175171">
        <ele>1316.83679199219</ele>
        <time>2018-07-28T09:52:22Z</time>
      </trkpt>
      <trkpt lat="36.682991027832" lon="-5.05310201644897">
        <ele>1316.94958496094</ele>
        <time>2018-07-28T09:52:23Z</time>
      </trkpt>
      <trkpt lat="36.682975769043" lon="-5.05310392379761">
        <ele>1317.16955566406</ele>
        <time>2018-07-28T09:52:24Z</time>
      </trkpt>
      <trkpt lat="36.6829605102539" lon="-5.05310487747192">
        <ele>1317.41027832031</ele>
        <time>2018-07-28T09:52:25Z</time>
      </trkpt>
      <trkpt lat="36.6829490661621" lon="-5.05310487747192">
        <ele>1317.60607910156</ele>
        <time>2018-07-28T09:52:26Z</time>
      </trkpt>
      <trkpt lat="36.6829376220703" lon="-5.05310487747192">
        <ele>1317.80200195312</ele>
        <time>2018-07-28T09:52:27Z</time>
      </trkpt>
      <trkpt lat="36.6829223632812" lon="-5.05310297012329">
        <ele>1318.10205078125</ele>
        <time>2018-07-28T09:52:28Z</time>
      </trkpt>
      <trkpt lat="36.6829109191894" lon="-5.05310106277466">
        <ele>1318.33630371094</ele>
        <time>2018-07-28T09:52:29Z</time>
      </trkpt>
      <trkpt lat="36.6828956604004" lon="-5.05309915542603">
        <ele>1318.63488769531</ele>
        <time>2018-07-28T09:52:30Z</time>
      </trkpt>
      <trkpt lat="36.6828842163086" lon="-5.05309581756592">
        <ele>1318.89636230469</ele>
        <time>2018-07-28T09:52:31Z</time>
      </trkpt>
      <trkpt lat="36.6828727722168" lon="-5.05309200286865">
        <ele>1319.166015625</ele>
        <time>2018-07-28T09:52:32Z</time>
      </trkpt>
      <trkpt lat="36.682861328125" lon="-5.05308818817139">
        <ele>1319.4345703125</ele>
        <time>2018-07-28T09:52:33Z</time>
      </trkpt>
      <trkpt lat="36.6828498840332" lon="-5.05308294296265">
        <ele>1319.7294921875</ele>
        <time>2018-07-28T09:52:34Z</time>
      </trkpt>
      <trkpt lat="36.6828384399414" lon="-5.05307817459106">
        <ele>1320.013671875</ele>
        <time>2018-07-28T09:52:35Z</time>
      </trkpt>
      <trkpt lat="36.6828269958496" lon="-5.05307102203369">
        <ele>1320.34167480469</ele>
        <time>2018-07-28T09:52:36Z</time>
      </trkpt>
      <trkpt lat="36.6828155517578" lon="-5.053062915802">
        <ele>1320.685546875</ele>
        <time>2018-07-28T09:52:37Z</time>
      </trkpt>
      <trkpt lat="36.6828079223633" lon="-5.05305290222168">
        <ele>1321</ele>
        <time>2018-07-28T09:52:38Z</time>
      </trkpt>
      <trkpt lat="36.6828002929688" lon="-5.05303907394409">
        <ele>1321.3837890625</ele>
        <time>2018-07-28T09:52:39Z</time>
      </trkpt>
      <trkpt lat="36.6827926635742" lon="-5.05302476882935">
        <ele>1321.7734375</ele>
        <time>2018-07-28T09:52:40Z</time>
      </trkpt>
      <trkpt lat="36.6827850341797" lon="-5.05301094055176">
        <ele>1322.15100097656</ele>
        <time>2018-07-28T09:52:41Z</time>
      </trkpt>
      <trkpt lat="36.6827774047852" lon="-5.05299711227417">
        <ele>1322.52563476562</ele>
        <time>2018-07-28T09:52:42Z</time>
      </trkpt>
      <trkpt lat="36.6827735900879" lon="-5.05298185348511">
        <ele>1322.86474609375</ele>
        <time>2018-07-28T09:52:43Z</time>
      </trkpt>
      <trkpt lat="36.6827697753906" lon="-5.05296802520752">
        <ele>1323.17614746094</ele>
        <time>2018-07-28T09:52:44Z</time>
      </trkpt>
      <trkpt lat="36.6827621459961" lon="-5.05295419692993">
        <ele>1323.54296875</ele>
        <time>2018-07-28T09:52:45Z</time>
      </trkpt>
      <trkpt lat="36.6827583312988" lon="-5.05293989181519">
        <ele>1323.85913085938</ele>
        <time>2018-07-28T09:52:46Z</time>
      </trkpt>
      <trkpt lat="36.6827545166016" lon="-5.05292510986328">
        <ele>1324.18249511719</ele>
        <time>2018-07-28T09:52:47Z</time>
      </trkpt>
      <trkpt lat="36.6827507019043" lon="-5.05290985107422">
        <ele>1324.5126953125</ele>
        <time>2018-07-28T09:52:48Z</time>
      </trkpt>
      <trkpt lat="36.6827430725098" lon="-5.052894115448">
        <ele>1324.90344238281</ele>
        <time>2018-07-28T09:52:49Z</time>
      </trkpt>
      <trkpt lat="36.6827392578125" lon="-5.05287885665894">
        <ele>1325.22937011719</ele>
        <time>2018-07-28T09:52:50Z</time>
      </trkpt>
      <trkpt lat="36.6827354431152" lon="-5.05286312103272">
        <ele>1325.56225585938</ele>
        <time>2018-07-28T09:52:51Z</time>
      </trkpt>
      <trkpt lat="36.682731628418" lon="-5.05284786224365">
        <ele>1325.88488769531</ele>
        <time>2018-07-28T09:52:52Z</time>
      </trkpt>
      <trkpt lat="36.6827278137207" lon="-5.05283117294312">
        <ele>1326.23107910156</ele>
        <time>2018-07-28T09:52:53Z</time>
      </trkpt>
      <trkpt lat="36.6827278137207" lon="-5.05281400680542">
        <ele>1326.53454589844</ele>
        <time>2018-07-28T09:52:54Z</time>
      </trkpt>
      <trkpt lat="36.6827201843262" lon="-5.05279779434204">
        <ele>1326.91796875</ele>
        <time>2018-07-28T09:52:55Z</time>
      </trkpt>
      <trkpt lat="36.6827163696289" lon="-5.0527811050415">
        <ele>1327.2587890625</ele>
        <time>2018-07-28T09:52:56Z</time>
      </trkpt>
      <trkpt lat="36.6827125549316" lon="-5.05276393890381">
        <ele>1327.60595703125</ele>
        <time>2018-07-28T09:52:57Z</time>
      </trkpt>
      <trkpt lat="36.6827049255371" lon="-5.05274820327759">
        <ele>1327.97204589844</ele>
        <time>2018-07-28T09:52:58Z</time>
      </trkpt>
      <trkpt lat="36.6827011108398" lon="-5.05273103713989">
        <ele>1328.31469726562</ele>
        <time>2018-07-28T09:52:59Z</time>
      </trkpt>
      <trkpt lat="36.6826972961426" lon="-5.05271482467651">
        <ele>1328.63891601562</ele>
        <time>2018-07-28T09:53:00Z</time>
      </trkpt>
      <trkpt lat="36.682689666748" lon="-5.05269908905029">
        <ele>1328.99621582031</ele>
        <time>2018-07-28T09:53:01Z</time>
      </trkpt>
      <trkpt lat="36.6826858520508" lon="-5.05268383026123">
        <ele>1329.29968261719</ele>
        <time>2018-07-28T09:53:02Z</time>
      </trkpt>
      <trkpt lat="36.6826820373535" lon="-5.05266904830933">
        <ele>1329.59350585938</ele>
        <time>2018-07-28T09:53:03Z</time>
      </trkpt>
      <trkpt lat="36.682674407959" lon="-5.05265522003174">
        <ele>1329.91003417969</ele>
        <time>2018-07-28T09:53:04Z</time>
      </trkpt>
      <trkpt lat="36.6826705932617" lon="-5.05263996124268">
        <ele>1330.20776367188</ele>
        <time>2018-07-28T09:53:05Z</time>
      </trkpt>
      <trkpt lat="36.6826629638672" lon="-5.05262517929077">
        <ele>1330.53479003906</ele>
        <time>2018-07-28T09:53:06Z</time>
      </trkpt>
      <trkpt lat="36.6826553344727" lon="-5.05260992050171">
        <ele>1330.86645507812</ele>
        <time>2018-07-28T09:53:07Z</time>
      </trkpt>
      <trkpt lat="36.6826515197754" lon="-5.0525951385498">
        <ele>1331.14965820312</ele>
        <time>2018-07-28T09:53:08Z</time>
      </trkpt>
      <trkpt lat="36.6826438903809" lon="-5.05257987976074">
        <ele>1331.4755859375</ele>
        <time>2018-07-28T09:53:09Z</time>
      </trkpt>
      <trkpt lat="36.6826362609863" lon="-5.05256509780884">
        <ele>1331.79028320312</ele>
        <time>2018-07-28T09:53:10Z</time>
      </trkpt>
      <trkpt lat="36.6826286315918" lon="-5.05255222320557">
        <ele>1332.07080078125</ele>
        <time>2018-07-28T09:53:11Z</time>
      </trkpt>
      <trkpt lat="36.6826210021973" lon="-5.05253791809082">
        <ele>1332.37145996094</ele>
        <time>2018-07-28T09:53:12Z</time>
      </trkpt>
      <trkpt lat="36.6826133728027" lon="-5.05252408981323">
        <ele>1332.66149902344</ele>
        <time>2018-07-28T09:53:13Z</time>
      </trkpt>
      <trkpt lat="36.6826057434082" lon="-5.05250978469849">
        <ele>1332.95593261719</ele>
        <time>2018-07-28T09:53:14Z</time>
      </trkpt>
      <trkpt lat="36.6825981140137" lon="-5.05249691009522">
        <ele>1333.22277832031</ele>
        <time>2018-07-28T09:53:15Z</time>
      </trkpt>
      <trkpt lat="36.6825904846191" lon="-5.05248403549194">
        <ele>1333.48278808594</ele>
        <time>2018-07-28T09:53:16Z</time>
      </trkpt>
      <trkpt lat="36.6825828552246" lon="-5.05247211456299">
        <ele>1333.72900390625</ele>
        <time>2018-07-28T09:53:17Z</time>
      </trkpt>
      <trkpt lat="36.6825714111328" lon="-5.05246019363403">
        <ele>1334.0087890625</ele>
        <time>2018-07-28T09:53:18Z</time>
      </trkpt>
      <trkpt lat="36.6825637817383" lon="-5.05244779586792">
        <ele>1334.26428222656</ele>
        <time>2018-07-28T09:53:19Z</time>
      </trkpt>
      <trkpt lat="36.6825561523438" lon="-5.05243682861328">
        <ele>1334.49841308594</ele>
        <time>2018-07-28T09:53:20Z</time>
      </trkpt>
      <trkpt lat="36.682544708252" lon="-5.05242586135864">
        <ele>1334.76672363281</ele>
        <time>2018-07-28T09:53:21Z</time>
      </trkpt>
      <trkpt lat="36.6825370788574" lon="-5.05241680145264">
        <ele>1334.97314453125</ele>
        <time>2018-07-28T09:53:22Z</time>
      </trkpt>
      <trkpt lat="36.6825256347656" lon="-5.05240678787231">
        <ele>1335.228515625</ele>
        <time>2018-07-28T09:53:23Z</time>
      </trkpt>
      <trkpt lat="36.6825180053711" lon="-5.05239820480347">
        <ele>1335.42883300781</ele>
        <time>2018-07-28T09:53:24Z</time>
      </trkpt>
      <trkpt lat="36.6825065612793" lon="-5.05239009857178">
        <ele>1335.65625</ele>
        <time>2018-07-28T09:53:25Z</time>
      </trkpt>
      <trkpt lat="36.6824951171875" lon="-5.05238199234009">
        <ele>1335.84765625</ele>
        <time>2018-07-28T09:53:26Z</time>
      </trkpt>
      <trkpt lat="36.6824836730957" lon="-5.05237483978272">
        <ele>1335.97399902344</ele>
        <time>2018-07-28T09:53:27Z</time>
      </trkpt>
      <trkpt lat="36.6824684143066" lon="-5.0523681640625">
        <ele>1336.09643554688</ele>
        <time>2018-07-28T09:53:28Z</time>
      </trkpt>
      <trkpt lat="36.6824569702148" lon="-5.05236196517944">
        <ele>1336.20532226562</ele>
        <time>2018-07-28T09:53:29Z</time>
      </trkpt>
      <trkpt lat="36.682445526123" lon="-5.05235481262207">
        <ele>1336.32727050781</ele>
        <time>2018-07-28T09:53:30Z</time>
      </trkpt>
      <trkpt lat="36.6824340820312" lon="-5.05234909057617">
        <ele>1336.42639160156</ele>
        <time>2018-07-28T09:53:31Z</time>
      </trkpt>
      <trkpt lat="36.6824226379394" lon="-5.05234384536743">
        <ele>1336.51733398438</ele>
        <time>2018-07-28T09:53:32Z</time>
      </trkpt>
      <trkpt lat="36.6824073791504" lon="-5.05234003067017">
        <ele>1336.58984375</ele>
        <time>2018-07-28T09:53:33Z</time>
      </trkpt>
      <trkpt lat="36.6823959350586" lon="-5.05233478546143">
        <ele>1336.67858886719</ele>
        <time>2018-07-28T09:53:34Z</time>
      </trkpt>
      <trkpt lat="36.6823844909668" lon="-5.05233097076416">
        <ele>1336.74536132812</ele>
        <time>2018-07-28T09:53:35Z</time>
      </trkpt>
      <trkpt lat="36.6823692321777" lon="-5.05232620239258">
        <ele>1336.82873535156</ele>
        <time>2018-07-28T09:53:36Z</time>
      </trkpt>
      <trkpt lat="36.6823577880859" lon="-5.05232191085815">
        <ele>1336.90063476562</ele>
        <time>2018-07-28T09:53:37Z</time>
      </trkpt>
      <trkpt lat="36.6823463439941" lon="-5.05231809616089">
        <ele>1336.96496582031</ele>
        <time>2018-07-28T09:53:38Z</time>
      </trkpt>
      <trkpt lat="36.6823310852051" lon="-5.05231285095215">
        <ele>1337.0517578125</ele>
        <time>2018-07-28T09:53:39Z</time>
      </trkpt>
      <trkpt lat="36.6823196411133" lon="-5.05230903625488">
        <ele>1337.1142578125</ele>
        <time>2018-07-28T09:53:40Z</time>
      </trkpt>
      <trkpt lat="36.6823043823242" lon="-5.05230522155762">
        <ele>1337.17883300781</ele>
        <time>2018-07-28T09:53:41Z</time>
      </trkpt>
      <trkpt lat="36.6822929382324" lon="-5.05230188369751">
        <ele>1337.23315429688</ele>
        <time>2018-07-28T09:53:42Z</time>
      </trkpt>
      <trkpt lat="36.6822776794434" lon="-5.05229902267456">
        <ele>1337.28271484375</ele>
        <time>2018-07-28T09:53:43Z</time>
      </trkpt>
      <trkpt lat="36.6822624206543" lon="-5.05229711532593">
        <ele>1337.31872558594</ele>
        <time>2018-07-28T09:53:44Z</time>
      </trkpt>
      <trkpt lat="36.6822509765625" lon="-5.0522928237915">
        <ele>1337.38391113281</ele>
        <time>2018-07-28T09:53:45Z</time>
      </trkpt>
      <trkpt lat="36.6822357177734" lon="-5.05228996276856">
        <ele>1337.43127441406</ele>
        <time>2018-07-28T09:53:46Z</time>
      </trkpt>
      <trkpt lat="36.6822204589844" lon="-5.05228805541992">
        <ele>1337.46533203125</ele>
        <time>2018-07-28T09:53:47Z</time>
      </trkpt>
      <trkpt lat="36.6822090148926" lon="-5.05228900909424">
        <ele>1337.45935058594</ele>
        <time>2018-07-28T09:53:48Z</time>
      </trkpt>
      <trkpt lat="36.6821937561035" lon="-5.05229091644287">
        <ele>1337.44348144531</ele>
        <time>2018-07-28T09:53:49Z</time>
      </trkpt>
      <trkpt lat="36.6821784973144" lon="-5.0522928237915">
        <ele>1337.42810058594</ele>
        <time>2018-07-28T09:53:50Z</time>
      </trkpt>
      <trkpt lat="36.6821632385254" lon="-5.0522928237915">
        <ele>1337.43737792969</ele>
        <time>2018-07-28T09:53:51Z</time>
      </trkpt>
      <trkpt lat="36.6821517944336" lon="-5.05229377746582">
        <ele>1337.43237304688</ele>
        <time>2018-07-28T09:53:52Z</time>
      </trkpt>
      <trkpt lat="36.6821403503418" lon="-5.0522952079773">
        <ele>1337.42150878906</ele>
        <time>2018-07-28T09:53:53Z</time>
      </trkpt>
      <trkpt lat="36.6821250915527" lon="-5.05229711532593">
        <ele>1337.40759277344</ele>
        <time>2018-07-28T09:53:54Z</time>
      </trkpt>
      <trkpt lat="36.6821136474609" lon="-5.05229997634888">
        <ele>1337.3798828125</ele>
        <time>2018-07-28T09:53:55Z</time>
      </trkpt>
      <trkpt lat="36.6820983886719" lon="-5.05230188369751">
        <ele>1337.36706542969</ele>
        <time>2018-07-28T09:53:56Z</time>
      </trkpt>
      <trkpt lat="36.6820869445801" lon="-5.05230522155762">
        <ele>1337.33471679688</ele>
        <time>2018-07-28T09:53:57Z</time>
      </trkpt>
      <trkpt lat="36.682071685791" lon="-5.05230903625488">
        <ele>1337.30029296875</ele>
        <time>2018-07-28T09:53:58Z</time>
      </trkpt>
      <trkpt lat="36.6820602416992" lon="-5.05231285095215">
        <ele>1337.26391601562</ele>
        <time>2018-07-28T09:53:59Z</time>
      </trkpt>
      <trkpt lat="36.6820449829102" lon="-5.05231618881226">
        <ele>1337.23681640625</ele>
        <time>2018-07-28T09:54:00Z</time>
      </trkpt>
      <trkpt lat="36.6820335388184" lon="-5.0523190498352">
        <ele>1337.21301269531</ele>
        <time>2018-07-28T09:54:01Z</time>
      </trkpt>
      <trkpt lat="36.6820182800293" lon="-5.05232191085815">
        <ele>1337.19311523438</ele>
        <time>2018-07-28T09:54:02Z</time>
      </trkpt>
      <trkpt lat="36.6820068359375" lon="-5.05232620239258">
        <ele>1337.154296875</ele>
        <time>2018-07-28T09:54:03Z</time>
      </trkpt>
      <trkpt lat="36.6819915771484" lon="-5.05233097076416">
        <ele>1337.11462402344</ele>
        <time>2018-07-28T09:54:04Z</time>
      </trkpt>
      <trkpt lat="36.6819801330566" lon="-5.0523362159729">
        <ele>1337.06701660156</ele>
        <time>2018-07-28T09:54:05Z</time>
      </trkpt>
      <trkpt lat="36.6819686889648" lon="-5.05234098434448">
        <ele>1337.02587890625</ele>
        <time>2018-07-28T09:54:06Z</time>
      </trkpt>
      <trkpt lat="36.6819534301758" lon="-5.05234622955322">
        <ele>1336.984375</ele>
        <time>2018-07-28T09:54:07Z</time>
      </trkpt>
      <trkpt lat="36.6819381713867" lon="-5.0523509979248">
        <ele>1336.94958496094</ele>
        <time>2018-07-28T09:54:08Z</time>
      </trkpt>
      <trkpt lat="36.6819267272949" lon="-5.05235481262207">
        <ele>1336.92163085938</ele>
        <time>2018-07-28T09:54:09Z</time>
      </trkpt>
      <trkpt lat="36.6819114685059" lon="-5.05236005783081">
        <ele>1336.88403320312</ele>
        <time>2018-07-28T09:54:10Z</time>
      </trkpt>
      <trkpt lat="36.6819000244141" lon="-5.05236482620239">
        <ele>1336.84790039062</ele>
        <time>2018-07-28T09:54:11Z</time>
      </trkpt>
      <trkpt lat="36.681884765625" lon="-5.05237102508545">
        <ele>1336.80297851562</ele>
        <time>2018-07-28T09:54:12Z</time>
      </trkpt>
      <trkpt lat="36.6818733215332" lon="-5.05237722396851">
        <ele>1336.75451660156</ele>
        <time>2018-07-28T09:54:13Z</time>
      </trkpt>
      <trkpt lat="36.6818618774414" lon="-5.05238485336304">
        <ele>1336.69299316406</ele>
        <time>2018-07-28T09:54:14Z</time>
      </trkpt>
      <trkpt lat="36.6818504333496" lon="-5.05239391326904">
        <ele>1336.61853027344</ele>
        <time>2018-07-28T09:54:15Z</time>
      </trkpt>
      <trkpt lat="36.6818351745606" lon="-5.05240201950073">
        <ele>1336.56127929688</ele>
        <time>2018-07-28T09:54:16Z</time>
      </trkpt>
      <trkpt lat="36.6818237304688" lon="-5.05241107940674">
        <ele>1336.49060058594</ele>
        <time>2018-07-28T09:54:17Z</time>
      </trkpt>
      <trkpt lat="36.681812286377" lon="-5.05242109298706">
        <ele>1336.41259765625</ele>
        <time>2018-07-28T09:54:18Z</time>
      </trkpt>
      <trkpt lat="36.6818008422852" lon="-5.05243110656738">
        <ele>1336.33654785156</ele>
        <time>2018-07-28T09:54:19Z</time>
      </trkpt>
      <trkpt lat="36.6817893981934" lon="-5.0524411201477">
        <ele>1336.26245117188</ele>
        <time>2018-07-28T09:54:20Z</time>
      </trkpt>
      <trkpt lat="36.6817779541016" lon="-5.05245304107666">
        <ele>1336.17248535156</ele>
        <time>2018-07-28T09:54:21Z</time>
      </trkpt>
      <trkpt lat="36.681770324707" lon="-5.0524640083313">
        <ele>1336.08581542969</ele>
        <time>2018-07-28T09:54:22Z</time>
      </trkpt>
      <trkpt lat="36.6817588806152" lon="-5.05247688293457">
        <ele>1335.99133300781</ele>
        <time>2018-07-28T09:54:23Z</time>
      </trkpt>
      <trkpt lat="36.6817512512207" lon="-5.05249118804932">
        <ele>1335.87744140625</ele>
        <time>2018-07-28T09:54:24Z</time>
      </trkpt>
      <trkpt lat="36.6817436218262" lon="-5.05250597000122">
        <ele>1335.77490234375</ele>
        <time>2018-07-28T09:54:25Z</time>
      </trkpt>
      <trkpt lat="36.6817398071289" lon="-5.05252122879028">
        <ele>1335.68139648438</ele>
        <time>2018-07-28T09:54:26Z</time>
      </trkpt>
      <trkpt lat="36.6817321777344" lon="-5.0525369644165">
        <ele>1335.59655761719</ele>
        <time>2018-07-28T09:54:27Z</time>
      </trkpt>
      <trkpt lat="36.6817283630371" lon="-5.05255317687988">
        <ele>1335.49975585938</ele>
        <time>2018-07-28T09:54:28Z</time>
      </trkpt>
      <trkpt lat="36.6817207336426" lon="-5.05256795883179">
        <ele>1335.42541503906</ele>
        <time>2018-07-28T09:54:29Z</time>
      </trkpt>
      <trkpt lat="36.6817169189453" lon="-5.05258417129517">
        <ele>1335.33178710938</ele>
        <time>2018-07-28T09:54:30Z</time>
      </trkpt>
      <trkpt lat="36.681713104248" lon="-5.05259990692139">
        <ele>1335.24230957031</ele>
        <time>2018-07-28T09:54:31Z</time>
      </trkpt>
      <trkpt lat="36.6817092895508" lon="-5.05261707305908">
        <ele>1335.14501953125</ele>
        <time>2018-07-28T09:54:32Z</time>
      </trkpt>
      <trkpt lat="36.6817054748535" lon="-5.05263376235962">
        <ele>1335.05200195312</ele>
        <time>2018-07-28T09:54:33Z</time>
      </trkpt>
      <trkpt lat="36.6817016601562" lon="-5.05265092849731">
        <ele>1334.95715332031</ele>
        <time>2018-07-28T09:54:34Z</time>
      </trkpt>
      <trkpt lat="36.681697845459" lon="-5.05266809463501">
        <ele>1334.86376953125</ele>
        <time>2018-07-28T09:54:35Z</time>
      </trkpt>
      <trkpt lat="36.6816940307617" lon="-5.05268383026123">
        <ele>1334.78063964844</ele>
        <time>2018-07-28T09:54:36Z</time>
      </trkpt>
      <trkpt lat="36.6816902160644" lon="-5.05270099639893">
        <ele>1334.68981933594</ele>
        <time>2018-07-28T09:54:37Z</time>
      </trkpt>
      <trkpt lat="36.6816902160644" lon="-5.0527172088623">
        <ele>1334.58862304688</ele>
        <time>2018-07-28T09:54:38Z</time>
      </trkpt>
      <trkpt lat="36.6816864013672" lon="-5.05273294448853">
        <ele>1334.50866699219</ele>
        <time>2018-07-28T09:54:39Z</time>
      </trkpt>
      <trkpt lat="36.6816864013672" lon="-5.05275011062622">
        <ele>1334.40222167969</ele>
        <time>2018-07-28T09:54:40Z</time>
      </trkpt>
      <trkpt lat="36.6816864013672" lon="-5.05276679992676">
        <ele>1334.29870605469</ele>
        <time>2018-07-28T09:54:41Z</time>
      </trkpt>
      <trkpt lat="36.6816825866699" lon="-5.05278396606445">
        <ele>1334.21240234375</ele>
        <time>2018-07-28T09:54:42Z</time>
      </trkpt>
      <trkpt lat="36.6816825866699" lon="-5.05280113220215">
        <ele>1334.10668945312</ele>
        <time>2018-07-28T09:54:43Z</time>
      </trkpt>
      <trkpt lat="36.6816787719727" lon="-5.05281782150269">
        <ele>1334.02526855469</ele>
        <time>2018-07-28T09:54:44Z</time>
      </trkpt>
      <trkpt lat="36.6816787719727" lon="-5.05283403396606">
        <ele>1333.92602539062</ele>
        <time>2018-07-28T09:54:45Z</time>
      </trkpt>
      <trkpt lat="36.6816749572754" lon="-5.05285120010376">
        <ele>1333.84350585938</ele>
        <time>2018-07-28T09:54:46Z</time>
      </trkpt>
      <trkpt lat="36.6816711425781" lon="-5.05286693572998">
        <ele>1333.77111816406</ele>
        <time>2018-07-28T09:54:47Z</time>
      </trkpt>
      <trkpt lat="36.6816673278809" lon="-5.05288314819336">
        <ele>1333.69702148438</ele>
        <time>2018-07-28T09:54:48Z</time>
      </trkpt>
      <trkpt lat="36.6816673278809" lon="-5.0528998374939">
        <ele>1333.5966796875</ele>
        <time>2018-07-28T09:54:49Z</time>
      </trkpt>
      <trkpt lat="36.6816673278809" lon="-5.05291700363159">
        <ele>1333.49365234375</ele>
        <time>2018-07-28T09:54:50Z</time>
      </trkpt>
      <trkpt lat="36.6816635131836" lon="-5.05293416976929">
        <ele>1333.392578125</ele>
        <time>2018-07-28T09:54:51Z</time>
      </trkpt>
      <trkpt lat="36.6816635131836" lon="-5.05294990539551">
        <ele>1333.29760742188</ele>
        <time>2018-07-28T09:54:52Z</time>
      </trkpt>
      <trkpt lat="36.6816596984863" lon="-5.05296611785889">
        <ele>1333.19567871094</ele>
        <time>2018-07-28T09:54:53Z</time>
      </trkpt>
      <trkpt lat="36.6816596984863" lon="-5.05298185348511">
        <ele>1333.10009765625</ele>
        <time>2018-07-28T09:54:54Z</time>
      </trkpt>
      <trkpt lat="36.6816596984863" lon="-5.05299806594849">
        <ele>1333.00170898438</ele>
        <time>2018-07-28T09:54:55Z</time>
      </trkpt>
      <trkpt lat="36.6816558837891" lon="-5.05301380157471">
        <ele>1332.90014648438</ele>
        <time>2018-07-28T09:54:56Z</time>
      </trkpt>
      <trkpt lat="36.6816558837891" lon="-5.0530309677124">
        <ele>1332.79528808594</ele>
        <time>2018-07-28T09:54:57Z</time>
      </trkpt>
      <trkpt lat="36.6816520690918" lon="-5.05304908752441">
        <ele>1332.67724609375</ele>
        <time>2018-07-28T09:54:58Z</time>
      </trkpt>
      <trkpt lat="36.6816482543945" lon="-5.05306577682495">
        <ele>1332.56665039062</ele>
        <time>2018-07-28T09:54:59Z</time>
      </trkpt>
      <trkpt lat="36.6816444396973" lon="-5.05308294296265">
        <ele>1332.45178222656</ele>
        <time>2018-07-28T09:55:00Z</time>
      </trkpt>
      <trkpt lat="36.6816444396973" lon="-5.05310010910034">
        <ele>1332.34484863281</ele>
        <time>2018-07-28T09:55:01Z</time>
      </trkpt>
      <trkpt lat="36.681640625" lon="-5.05311822891235">
        <ele>1332.22204589844</ele>
        <time>2018-07-28T09:55:02Z</time>
      </trkpt>
      <trkpt lat="36.681640625" lon="-5.05313491821289">
        <ele>1332.11755371094</ele>
        <time>2018-07-28T09:55:03Z</time>
      </trkpt>
      <trkpt lat="36.681640625" lon="-5.05315208435059">
        <ele>1332.01013183594</ele>
        <time>2018-07-28T09:55:04Z</time>
      </trkpt>
      <trkpt lat="36.6816368103027" lon="-5.05316781997681">
        <ele>1331.89953613281</ele>
        <time>2018-07-28T09:55:05Z</time>
      </trkpt>
      <trkpt lat="36.6816329956055" lon="-5.0531849861145">
        <ele>1331.77880859375</ele>
        <time>2018-07-28T09:55:06Z</time>
      </trkpt>
      <trkpt lat="36.6816329956055" lon="-5.0532021522522">
        <ele>1331.67004394531</ele>
        <time>2018-07-28T09:55:07Z</time>
      </trkpt>
      <trkpt lat="36.6816291809082" lon="-5.05321884155273">
        <ele>1331.55029296875</ele>
        <time>2018-07-28T09:55:08Z</time>
      </trkpt>
      <trkpt lat="36.6816291809082" lon="-5.05323600769043">
        <ele>1331.44079589844</ele>
        <time>2018-07-28T09:55:09Z</time>
      </trkpt>
      <trkpt lat="36.6816253662109" lon="-5.05325412750244">
        <ele>1331.30993652344</ele>
        <time>2018-07-28T09:55:10Z</time>
      </trkpt>
      <trkpt lat="36.6816215515137" lon="-5.05327081680298">
        <ele>1331.18701171875</ele>
        <time>2018-07-28T09:55:11Z</time>
      </trkpt>
      <trkpt lat="36.6816215515137" lon="-5.05328798294067">
        <ele>1331.076171875</ele>
        <time>2018-07-28T09:55:12Z</time>
      </trkpt>
      <trkpt lat="36.6816177368164" lon="-5.05330514907837">
        <ele>1330.94812011719</ele>
        <time>2018-07-28T09:55:13Z</time>
      </trkpt>
      <trkpt lat="36.6816139221191" lon="-5.05332088470459">
        <ele>1330.828125</ele>
        <time>2018-07-28T09:55:14Z</time>
      </trkpt>
      <trkpt lat="36.6816101074219" lon="-5.05333805084228">
        <ele>1330.69421386719</ele>
        <time>2018-07-28T09:55:15Z</time>
      </trkpt>
      <trkpt lat="36.6816062927246" lon="-5.0533561706543">
        <ele>1330.54382324219</ele>
        <time>2018-07-28T09:55:16Z</time>
      </trkpt>
      <trkpt lat="36.6816062927246" lon="-5.05337381362915">
        <ele>1330.41528320312</ele>
        <time>2018-07-28T09:55:17Z</time>
      </trkpt>
      <trkpt lat="36.6816024780273" lon="-5.05339193344116">
        <ele>1330.26452636719</ele>
        <time>2018-07-28T09:55:18Z</time>
      </trkpt>
      <trkpt lat="36.6816024780273" lon="-5.05340814590454">
        <ele>1330.14636230469</ele>
        <time>2018-07-28T09:55:19Z</time>
      </trkpt>
      <trkpt lat="36.6816062927246" lon="-5.05342483520508">
        <ele>1330.04345703125</ele>
        <time>2018-07-28T09:55:20Z</time>
      </trkpt>
      <trkpt lat="36.6816062927246" lon="-5.05344200134277">
        <ele>1329.91833496094</ele>
        <time>2018-07-28T09:55:21Z</time>
      </trkpt>
      <trkpt lat="36.6816101074219" lon="-5.05345916748047">
        <ele>1329.81225585938</ele>
        <time>2018-07-28T09:55:22Z</time>
      </trkpt>
      <trkpt lat="36.6816101074219" lon="-5.05347585678101">
        <ele>1329.69079589844</ele>
        <time>2018-07-28T09:55:23Z</time>
      </trkpt>
      <trkpt lat="36.6816139221191" lon="-5.05349397659302">
        <ele>1329.57800292969</ele>
        <time>2018-07-28T09:55:24Z</time>
      </trkpt>
      <trkpt lat="36.6816177368164" lon="-5.05351114273071">
        <ele>1329.47241210938</ele>
        <time>2018-07-28T09:55:25Z</time>
      </trkpt>
      <trkpt lat="36.6816177368164" lon="-5.05352687835693">
        <ele>1329.35803222656</ele>
        <time>2018-07-28T09:55:26Z</time>
      </trkpt>
      <trkpt lat="36.6816215515137" lon="-5.05354309082031">
        <ele>1329.25952148438</ele>
        <time>2018-07-28T09:55:27Z</time>
      </trkpt>
      <trkpt lat="36.6816215515137" lon="-5.05355978012085">
        <ele>1329.13830566406</ele>
        <time>2018-07-28T09:55:28Z</time>
      </trkpt>
      <trkpt lat="36.6816253662109" lon="-5.05357694625854">
        <ele>1329.033203125</ele>
        <time>2018-07-28T09:55:29Z</time>
      </trkpt>
      <trkpt lat="36.6816291809082" lon="-5.05359411239624">
        <ele>1328.92834472656</ele>
        <time>2018-07-28T09:55:30Z</time>
      </trkpt>
      <trkpt lat="36.6816291809082" lon="-5.05361080169678">
        <ele>1328.80737304688</ele>
        <time>2018-07-28T09:55:31Z</time>
      </trkpt>
      <trkpt lat="36.6816329956055" lon="-5.05362701416016">
        <ele>1328.70959472656</ele>
        <time>2018-07-28T09:55:32Z</time>
      </trkpt>
      <trkpt lat="36.6816329956055" lon="-5.05364418029785">
        <ele>1328.58520507812</ele>
        <time>2018-07-28T09:55:33Z</time>
      </trkpt>
      <trkpt lat="36.6816329956055" lon="-5.05366086959839">
        <ele>1328.46423339844</ele>
        <time>2018-07-28T09:55:34Z</time>
      </trkpt>
      <trkpt lat="36.6816329956055" lon="-5.05367708206177">
        <ele>1328.3466796875</ele>
        <time>2018-07-28T09:55:35Z</time>
      </trkpt>
      <trkpt lat="36.6816329956055" lon="-5.0536937713623">
        <ele>1328.22570800781</ele>
        <time>2018-07-28T09:55:36Z</time>
      </trkpt>
      <trkpt lat="36.6816329956055" lon="-5.05370998382568">
        <ele>1328.10827636719</ele>
        <time>2018-07-28T09:55:37Z</time>
      </trkpt>
      <trkpt lat="36.6816291809082" lon="-5.05372476577759">
        <ele>1327.98059082031</ele>
        <time>2018-07-28T09:55:38Z</time>
      </trkpt>
      <trkpt lat="36.6816253662109" lon="-5.05374002456665">
        <ele>1327.84936523438</ele>
        <time>2018-07-28T09:55:39Z</time>
      </trkpt>
      <trkpt lat="36.6816215515137" lon="-5.05375289916992">
        <ele>1327.7353515625</ele>
        <time>2018-07-28T09:55:40Z</time>
      </trkpt>
      <trkpt lat="36.6816139221191" lon="-5.05376577377319">
        <ele>1327.60046386719</ele>
        <time>2018-07-28T09:55:41Z</time>
      </trkpt>
      <trkpt lat="36.6816062927246" lon="-5.05377578735352">
        <ele>1327.48608398438</ele>
        <time>2018-07-28T09:55:42Z</time>
      </trkpt>
      <trkpt lat="36.6815986633301" lon="-5.05378580093384">
        <ele>1327.37145996094</ele>
        <time>2018-07-28T09:55:43Z</time>
      </trkpt>
      <trkpt lat="36.6815872192383" lon="-5.05379486083984">
        <ele>1327.24279785156</ele>
        <time>2018-07-28T09:55:44Z</time>
      </trkpt>
      <trkpt lat="36.6815795898438" lon="-5.05380296707153">
        <ele>1327.14172363281</ele>
        <time>2018-07-28T09:55:45Z</time>
      </trkpt>
      <trkpt lat="36.681568145752" lon="-5.05381011962891">
        <ele>1327.02661132812</ele>
        <time>2018-07-28T09:55:46Z</time>
      </trkpt>
      <trkpt lat="36.6815567016602" lon="-5.0538158416748">
        <ele>1326.92175292969</ele>
        <time>2018-07-28T09:55:47Z</time>
      </trkpt>
      <trkpt lat="36.6815414428711" lon="-5.05382108688354">
        <ele>1326.79919433594</ele>
        <time>2018-07-28T09:55:48Z</time>
      </trkpt>
      <trkpt lat="36.6815299987793" lon="-5.05382394790649">
        <ele>1326.71496582031</ele>
        <time>2018-07-28T09:55:49Z</time>
      </trkpt>
      <trkpt lat="36.6815185546875" lon="-5.05382919311523">
        <ele>1326.61315917969</ele>
        <time>2018-07-28T09:55:50Z</time>
      </trkpt>
      <trkpt lat="36.6815071105957" lon="-5.0538330078125">
        <ele>1326.52172851562</ele>
        <time>2018-07-28T09:55:51Z</time>
      </trkpt>
      <trkpt lat="36.6814956665039" lon="-5.05383586883545">
        <ele>1326.43725585938</ele>
        <time>2018-07-28T09:55:52Z</time>
      </trkpt>
      <trkpt lat="36.6814842224121" lon="-5.05383682250977">
        <ele>1326.36682128906</ele>
        <time>2018-07-28T09:55:53Z</time>
      </trkpt>
      <trkpt lat="36.6814727783203" lon="-5.05383682250977">
        <ele>1326.30358886719</ele>
        <time>2018-07-28T09:55:54Z</time>
      </trkpt>
      <trkpt lat="36.6814575195312" lon="-5.05383586883545">
        <ele>1326.22644042969</ele>
        <time>2018-07-28T09:55:55Z</time>
      </trkpt>
      <trkpt lat="36.6814460754394" lon="-5.05383491516113">
        <ele>1326.17041015625</ele>
        <time>2018-07-28T09:55:56Z</time>
      </trkpt>
      <trkpt lat="36.6814346313477" lon="-5.05383205413818">
        <ele>1326.12878417969</ele>
        <time>2018-07-28T09:55:57Z</time>
      </trkpt>
      <trkpt lat="36.6814231872559" lon="-5.05382919311523">
        <ele>1326.08728027344</ele>
        <time>2018-07-28T09:55:58Z</time>
      </trkpt>
      <trkpt lat="36.6814117431641" lon="-5.05382680892944">
        <ele>1326.04223632812</ele>
        <time>2018-07-28T09:55:59Z</time>
      </trkpt>
      <trkpt lat="36.681396484375" lon="-5.05382490158081">
        <ele>1325.97253417969</ele>
        <time>2018-07-28T09:56:00Z</time>
      </trkpt>
      <trkpt lat="36.6813850402832" lon="-5.05382490158081">
        <ele>1325.90954589844</ele>
        <time>2018-07-28T09:56:01Z</time>
      </trkpt>
      <trkpt lat="36.6813735961914" lon="-5.05382299423218">
        <ele>1325.86108398438</ele>
        <time>2018-07-28T09:56:02Z</time>
      </trkpt>
      <trkpt lat="36.6813583374023" lon="-5.05382108688354">
        <ele>1325.79162597656</ele>
        <time>2018-07-28T09:56:03Z</time>
      </trkpt>
      <trkpt lat="36.6813468933106" lon="-5.0538182258606">
        <ele>1325.75061035156</ele>
        <time>2018-07-28T09:56:04Z</time>
      </trkpt>
      <trkpt lat="36.6813316345215" lon="-5.0538158416748">
        <ele>1325.68505859375</ele>
        <time>2018-07-28T09:56:05Z</time>
      </trkpt>
      <trkpt lat="36.6813201904297" lon="-5.05381488800049">
        <ele>1325.62951660156</ele>
        <time>2018-07-28T09:56:06Z</time>
      </trkpt>
      <trkpt lat="36.6813087463379" lon="-5.05381298065186">
        <ele>1325.58129882812</ele>
        <time>2018-07-28T09:56:07Z</time>
      </trkpt>
      <trkpt lat="36.6812934875488" lon="-5.05381107330322">
        <ele>1325.51232910156</ele>
        <time>2018-07-28T09:56:08Z</time>
      </trkpt>
      <trkpt lat="36.681282043457" lon="-5.05380821228027">
        <ele>1325.4716796875</ele>
        <time>2018-07-28T09:56:09Z</time>
      </trkpt>
      <trkpt lat="36.6812705993652" lon="-5.05380392074585">
        <ele>1325.44226074219</ele>
        <time>2018-07-28T09:56:10Z</time>
      </trkpt>
      <trkpt lat="36.6812553405762" lon="-5.0538010597229">
        <ele>1325.38098144531</ele>
        <time>2018-07-28T09:56:11Z</time>
      </trkpt>
      <trkpt lat="36.6812438964844" lon="-5.05379819869995">
        <ele>1325.34069824219</ele>
        <time>2018-07-28T09:56:12Z</time>
      </trkpt>
      <trkpt lat="36.6812286376953" lon="-5.05379581451416">
        <ele>1325.27587890625</ele>
        <time>2018-07-28T09:56:13Z</time>
      </trkpt>
      <trkpt lat="36.6812171936035" lon="-5.05379390716553">
        <ele>1325.22827148438</ele>
        <time>2018-07-28T09:56:14Z</time>
      </trkpt>
      <trkpt lat="36.6812019348144" lon="-5.05379104614258">
        <ele>1325.16748046875</ele>
        <time>2018-07-28T09:56:15Z</time>
      </trkpt>
      <trkpt lat="36.6811904907227" lon="-5.05378818511963">
        <ele>1325.12756347656</ele>
        <time>2018-07-28T09:56:16Z</time>
      </trkpt>
      <trkpt lat="36.6811752319336" lon="-5.05378484725952">
        <ele>1325.07067871094</ele>
        <time>2018-07-28T09:56:17Z</time>
      </trkpt>
      <trkpt lat="36.6811637878418" lon="-5.05378103256226">
        <ele>1325.03857421875</ele>
        <time>2018-07-28T09:56:18Z</time>
      </trkpt>
      <trkpt lat="36.68115234375" lon="-5.05377721786499">
        <ele>1325.00646972656</ele>
        <time>2018-07-28T09:56:19Z</time>
      </trkpt>
      <trkpt lat="36.6811408996582" lon="-5.05377292633057">
        <ele>1324.97839355469</ele>
        <time>2018-07-28T09:56:20Z</time>
      </trkpt>
      <trkpt lat="36.6811256408691" lon="-5.05376815795898">
        <ele>1324.93359375</ele>
        <time>2018-07-28T09:56:21Z</time>
      </trkpt>
      <trkpt lat="36.6811141967773" lon="-5.05376386642456">
        <ele>1324.90576171875</ele>
        <time>2018-07-28T09:56:22Z</time>
      </trkpt>
      <trkpt lat="36.6811027526856" lon="-5.0537600517273">
        <ele>1324.87438964844</ele>
        <time>2018-07-28T09:56:23Z</time>
      </trkpt>
      <trkpt lat="36.6810874938965" lon="-5.05375623703003">
        <ele>1324.82238769531</ele>
        <time>2018-07-28T09:56:24Z</time>
      </trkpt>
      <trkpt lat="36.6810760498047" lon="-5.05375003814697">
        <ele>1324.81030273438</ele>
        <time>2018-07-28T09:56:25Z</time>
      </trkpt>
      <trkpt lat="36.6810607910156" lon="-5.05374383926392">
        <ele>1324.77795410156</ele>
        <time>2018-07-28T09:56:26Z</time>
      </trkpt>
      <trkpt lat="36.6810493469238" lon="-5.05373811721802">
        <ele>1324.76257324219</ele>
        <time>2018-07-28T09:56:27Z</time>
      </trkpt>
      <trkpt lat="36.681037902832" lon="-5.05373191833496">
        <ele>1324.75122070312</ele>
        <time>2018-07-28T09:56:28Z</time>
      </trkpt>
      <trkpt lat="36.681022644043" lon="-5.05372714996338">
        <ele>1324.7080078125</ele>
        <time>2018-07-28T09:56:29Z</time>
      </trkpt>
      <trkpt lat="36.6810111999512" lon="-5.05371999740601">
        <ele>1324.70483398438</ele>
        <time>2018-07-28T09:56:30Z</time>
      </trkpt>
      <trkpt lat="36.6809997558594" lon="-5.05371379852295">
        <ele>1324.69409179688</ele>
        <time>2018-07-28T09:56:31Z</time>
      </trkpt>
      <trkpt lat="36.6809844970703" lon="-5.05370616912842">
        <ele>1324.67492675781</ele>
        <time>2018-07-28T09:56:32Z</time>
      </trkpt>
      <trkpt lat="36.6809730529785" lon="-5.05369806289673">
        <ele>1324.68029785156</ele>
        <time>2018-07-28T09:56:33Z</time>
      </trkpt>
      <trkpt lat="36.6809616088867" lon="-5.05368900299072">
        <ele>1324.69384765625</ele>
        <time>2018-07-28T09:56:34Z</time>
      </trkpt>
      <trkpt lat="36.6809501647949" lon="-5.05367994308472">
        <ele>1324.70764160156</ele>
        <time>2018-07-28T09:56:35Z</time>
      </trkpt>
      <trkpt lat="36.6809387207031" lon="-5.05367088317871">
        <ele>1324.7216796875</ele>
        <time>2018-07-28T09:56:36Z</time>
      </trkpt>
      <trkpt lat="36.6809234619141" lon="-5.05366277694702">
        <ele>1324.7080078125</ele>
        <time>2018-07-28T09:56:37Z</time>
      </trkpt>
      <trkpt lat="36.6809120178223" lon="-5.05365514755249">
        <ele>1324.7109375</ele>
        <time>2018-07-28T09:56:38Z</time>
      </trkpt>
      <trkpt lat="36.6809005737305" lon="-5.0536470413208">
        <ele>1324.71801757812</ele>
        <time>2018-07-28T09:56:39Z</time>
      </trkpt>
      <trkpt lat="36.6808891296387" lon="-5.05363893508911">
        <ele>1324.72534179688</ele>
        <time>2018-07-28T09:56:40Z</time>
      </trkpt>
      <trkpt lat="36.6808776855469" lon="-5.05362987518311">
        <ele>1324.74084472656</ele>
        <time>2018-07-28T09:56:41Z</time>
      </trkpt>
      <trkpt lat="36.6808624267578" lon="-5.0536208152771">
        <ele>1324.73681640625</ele>
        <time>2018-07-28T09:56:42Z</time>
      </trkpt>
      <trkpt lat="36.680850982666" lon="-5.05361080169678">
        <ele>1324.76098632812</ele>
        <time>2018-07-28T09:56:43Z</time>
      </trkpt>
      <trkpt lat="36.6808395385742" lon="-5.05360221862793">
        <ele>1324.77355957031</ele>
        <time>2018-07-28T09:56:44Z</time>
      </trkpt>
      <trkpt lat="36.6808280944824" lon="-5.05359411239624">
        <ele>1324.70141601562</ele>
        <time>2018-07-28T09:56:45Z</time>
      </trkpt>
      <trkpt lat="36.6808166503906" lon="-5.05358505249023">
        <ele>1324.53955078125</ele>
        <time>2018-07-28T09:56:46Z</time>
      </trkpt>
      <trkpt lat="36.6808052062988" lon="-5.05357694625854">
        <ele>1324.36743164062</ele>
        <time>2018-07-28T09:56:47Z</time>
      </trkpt>
      <trkpt lat="36.680793762207" lon="-5.05356693267822">
        <ele>1324.20788574219</ele>
        <time>2018-07-28T09:56:48Z</time>
      </trkpt>
      <trkpt lat="36.680778503418" lon="-5.0535569190979">
        <ele>1323.96484375</ele>
        <time>2018-07-28T09:56:49Z</time>
      </trkpt>
      <trkpt lat="36.6807670593262" lon="-5.05354595184326">
        <ele>1323.80603027344</ele>
        <time>2018-07-28T09:56:50Z</time>
      </trkpt>
      <trkpt lat="36.6807556152344" lon="-5.05353403091431">
        <ele>1323.65100097656</ele>
        <time>2018-07-28T09:56:51Z</time>
      </trkpt>
      <trkpt lat="36.6807479858398" lon="-5.05352306365967">
        <ele>1323.56774902344</ele>
        <time>2018-07-28T09:56:52Z</time>
      </trkpt>
      <trkpt lat="36.680736541748" lon="-5.05351114273071">
        <ele>1323.40649414062</ele>
        <time>2018-07-28T09:56:53Z</time>
      </trkpt>
      <trkpt lat="36.6807250976562" lon="-5.05350017547607">
        <ele>1323.23486328125</ele>
        <time>2018-07-28T09:56:54Z</time>
      </trkpt>
      <trkpt lat="36.6807174682617" lon="-5.05348777770996">
        <ele>1323.15380859375</ele>
        <time>2018-07-28T09:56:55Z</time>
      </trkpt>
      <trkpt lat="36.6807098388672" lon="-5.05347585678101">
        <ele>1323.06701660156</ele>
        <time>2018-07-28T09:56:56Z</time>
      </trkpt>
      <trkpt lat="36.6806983947754" lon="-5.05346298217773">
        <ele>1322.89916992188</ele>
        <time>2018-07-28T09:56:57Z</time>
      </trkpt>
      <trkpt lat="36.6806907653809" lon="-5.05344915390015">
        <ele>1322.81945800781</ele>
        <time>2018-07-28T09:56:58Z</time>
      </trkpt>
      <trkpt lat="36.6806793212891" lon="-5.0534348487854">
        <ele>1322.65356445312</ele>
        <time>2018-07-28T09:56:59Z</time>
      </trkpt>
      <trkpt lat="36.6806716918945" lon="-5.0534200668335">
        <ele>1322.57373046875</ele>
        <time>2018-07-28T09:57:00Z</time>
      </trkpt>
      <trkpt lat="36.6806640625" lon="-5.05340576171875">
        <ele>1322.48803710938</ele>
        <time>2018-07-28T09:57:01Z</time>
      </trkpt>
      <trkpt lat="36.6806564331055" lon="-5.05339479446411">
        <ele>1322.37902832031</ele>
        <time>2018-07-28T09:57:02Z</time>
      </trkpt>
      <trkpt lat="36.6806488037109" lon="-5.05338382720947">
        <ele>1322.26794433594</ele>
        <time>2018-07-28T09:57:03Z</time>
      </trkpt>
      <trkpt lat="36.6806411743164" lon="-5.05337285995483">
        <ele>1322.15454101562</ele>
        <time>2018-07-28T09:57:04Z</time>
      </trkpt>
      <trkpt lat="36.6806373596191" lon="-5.05335998535156">
        <ele>1322.14050292969</ele>
        <time>2018-07-28T09:57:05Z</time>
      </trkpt>
      <trkpt lat="36.6806297302246" lon="-5.05334711074829">
        <ele>1322.0341796875</ele>
        <time>2018-07-28T09:57:06Z</time>
      </trkpt>
      <trkpt lat="36.6806221008301" lon="-5.05333423614502">
        <ele>1321.92529296875</ele>
        <time>2018-07-28T09:57:07Z</time>
      </trkpt>
      <trkpt lat="36.6806144714356" lon="-5.05332088470459">
        <ele>1321.87170410156</ele>
        <time>2018-07-28T09:57:08Z</time>
      </trkpt>
      <trkpt lat="36.680606842041" lon="-5.05330801010132">
        <ele>1321.81323242188</ele>
        <time>2018-07-28T09:57:09Z</time>
      </trkpt>
      <trkpt lat="36.6805992126465" lon="-5.05329513549805">
        <ele>1321.75085449219</ele>
        <time>2018-07-28T09:57:10Z</time>
      </trkpt>
      <trkpt lat="36.680591583252" lon="-5.05328178405762">
        <ele>1321.68908691406</ele>
        <time>2018-07-28T09:57:11Z</time>
      </trkpt>
      <trkpt lat="36.6805877685547" lon="-5.05326795578003">
        <ele>1321.72424316406</ele>
        <time>2018-07-28T09:57:12Z</time>
      </trkpt>
      <trkpt lat="36.6805801391602" lon="-5.05325508117676">
        <ele>1321.65075683594</ele>
        <time>2018-07-28T09:57:13Z</time>
      </trkpt>
      <trkpt lat="36.6805725097656" lon="-5.05324077606201">
        <ele>1321.58642578125</ele>
        <time>2018-07-28T09:57:14Z</time>
      </trkpt>
      <trkpt lat="36.6805686950684" lon="-5.05322790145874">
        <ele>1321.60437011719</ele>
        <time>2018-07-28T09:57:15Z</time>
      </trkpt>
      <trkpt lat="36.6805610656738" lon="-5.05321502685547">
        <ele>1321.51977539062</ele>
        <time>2018-07-28T09:57:16Z</time>
      </trkpt>
      <trkpt lat="36.6805534362793" lon="-5.05320119857788">
        <ele>1321.43957519531</ele>
        <time>2018-07-28T09:57:17Z</time>
      </trkpt>
      <trkpt lat="36.6805458068848" lon="-5.05318784713745">
        <ele>1321.35107421875</ele>
        <time>2018-07-28T09:57:18Z</time>
      </trkpt>
      <trkpt lat="36.6805381774902" lon="-5.05317306518555">
        <ele>1321.2705078125</ele>
        <time>2018-07-28T09:57:19Z</time>
      </trkpt>
      <trkpt lat="36.680534362793" lon="-5.05315923690796">
        <ele>1321.28234863281</ele>
        <time>2018-07-28T09:57:20Z</time>
      </trkpt>
      <trkpt lat="36.6805267333984" lon="-5.05314493179321">
        <ele>1321.19006347656</ele>
        <time>2018-07-28T09:57:21Z</time>
      </trkpt>
      <trkpt lat="36.6805191040039" lon="-5.05313014984131">
        <ele>1321.09716796875</ele>
        <time>2018-07-28T09:57:22Z</time>
      </trkpt>
      <trkpt lat="36.6805114746094" lon="-5.05311393737793">
        <ele>1321.01110839844</ele>
        <time>2018-07-28T09:57:23Z</time>
      </trkpt>
      <trkpt lat="36.6805038452148" lon="-5.05309820175171">
        <ele>1320.91638183594</ele>
        <time>2018-07-28T09:57:24Z</time>
      </trkpt>
      <trkpt lat="36.6804962158203" lon="-5.05308389663696">
        <ele>1320.80578613281</ele>
        <time>2018-07-28T09:57:25Z</time>
      </trkpt>
      <trkpt lat="36.6804885864258" lon="-5.05307006835938">
        <ele>1320.68737792969</ele>
        <time>2018-07-28T09:57:26Z</time>
      </trkpt>
      <trkpt lat="36.6804847717285" lon="-5.05305480957031">
        <ele>1320.68811035156</ele>
        <time>2018-07-28T09:57:27Z</time>
      </trkpt>
      <trkpt lat="36.680477142334" lon="-5.05303907394409">
        <ele>1320.57568359375</ele>
        <time>2018-07-28T09:57:28Z</time>
      </trkpt>
      <trkpt lat="36.6804695129394" lon="-5.0530219078064">
        <ele>1320.46862792969</ele>
        <time>2018-07-28T09:57:29Z</time>
      </trkpt>
      <trkpt lat="36.6804656982422" lon="-5.05300617218018">
        <ele>1320.46313476562</ele>
        <time>2018-07-28T09:57:30Z</time>
      </trkpt>
      <trkpt lat="36.6804618835449" lon="-5.0529899597168">
        <ele>1320.45849609375</ele>
        <time>2018-07-28T09:57:31Z</time>
      </trkpt>
      <trkpt lat="36.6804542541504" lon="-5.05297517776489">
        <ele>1320.32238769531</ele>
        <time>2018-07-28T09:57:32Z</time>
      </trkpt>
      <trkpt lat="36.6804466247559" lon="-5.05296087265015">
        <ele>1320.1787109375</ele>
        <time>2018-07-28T09:57:33Z</time>
      </trkpt>
      <trkpt lat="36.6804428100586" lon="-5.05294513702393">
        <ele>1320.16125488281</ele>
        <time>2018-07-28T09:57:34Z</time>
      </trkpt>
      <trkpt lat="36.6804351806641" lon="-5.05292892456055">
        <ele>1320.02172851562</ele>
        <time>2018-07-28T09:57:35Z</time>
      </trkpt>
      <trkpt lat="36.6804275512695" lon="-5.05291414260864">
        <ele>1319.86840820312</ele>
        <time>2018-07-28T09:57:36Z</time>
      </trkpt>
      <trkpt lat="36.680419921875" lon="-5.05289793014526">
        <ele>1319.71911621094</ele>
        <time>2018-07-28T09:57:37Z</time>
      </trkpt>
      <trkpt lat="36.6804122924805" lon="-5.05288076400757">
        <ele>1319.57055664062</ele>
        <time>2018-07-28T09:57:38Z</time>
      </trkpt>
      <trkpt lat="36.6804084777832" lon="-5.05286407470703">
        <ele>1319.54150390625</ele>
        <time>2018-07-28T09:57:39Z</time>
      </trkpt>
      <trkpt lat="36.6804008483887" lon="-5.05284786224365">
        <ele>1319.37841796875</ele>
        <time>2018-07-28T09:57:40Z</time>
      </trkpt>
      <trkpt lat="36.6803932189941" lon="-5.05283212661743">
        <ele>1319.20751953125</ele>
        <time>2018-07-28T09:57:41Z</time>
      </trkpt>
      <trkpt lat="36.6803894042969" lon="-5.05281591415405">
        <ele>1319.16589355469</ele>
        <time>2018-07-28T09:57:42Z</time>
      </trkpt>
      <trkpt lat="36.6803817749023" lon="-5.05279922485352">
        <ele>1318.99157714844</ele>
        <time>2018-07-28T09:57:43Z</time>
      </trkpt>
      <trkpt lat="36.6803779602051" lon="-5.05278301239014">
        <ele>1318.94360351562</ele>
        <time>2018-07-28T09:57:44Z</time>
      </trkpt>
      <trkpt lat="36.6803703308106" lon="-5.05276584625244">
        <ele>1318.7626953125</ele>
        <time>2018-07-28T09:57:45Z</time>
      </trkpt>
      <trkpt lat="36.6803665161133" lon="-5.0527491569519">
        <ele>1318.71081542969</ele>
        <time>2018-07-28T09:57:46Z</time>
      </trkpt>
      <trkpt lat="36.6803588867188" lon="-5.05273199081421">
        <ele>1318.52087402344</ele>
        <time>2018-07-28T09:57:47Z</time>
      </trkpt>
      <trkpt lat="36.6803512573242" lon="-5.05271482467651">
        <ele>1318.32568359375</ele>
        <time>2018-07-28T09:57:48Z</time>
      </trkpt>
      <trkpt lat="36.680347442627" lon="-5.05269908905029">
        <ele>1318.25891113281</ele>
        <time>2018-07-28T09:57:49Z</time>
      </trkpt>
      <trkpt lat="36.6803398132324" lon="-5.05268287658691">
        <ele>1318.05041503906</ele>
        <time>2018-07-28T09:57:50Z</time>
      </trkpt>
      <trkpt lat="36.6803359985352" lon="-5.05266904830933">
        <ele>1317.96936035156</ele>
        <time>2018-07-28T09:57:51Z</time>
      </trkpt>
      <trkpt lat="36.6803283691406" lon="-5.05265808105469">
        <ele>1317.73034667969</ele>
        <time>2018-07-28T09:57:52Z</time>
      </trkpt>
      <trkpt lat="36.6803245544434" lon="-5.05265092849731">
        <ele>1317.61657714844</ele>
        <time>2018-07-28T09:57:53Z</time>
      </trkpt>
      <trkpt lat="36.6803207397461" lon="-5.05264711380005">
        <ele>1317.48803710938</ele>
        <time>2018-07-28T09:57:54Z</time>
      </trkpt>
      <trkpt lat="36.6803169250488" lon="-5.05264282226562">
        <ele>1317.36083984375</ele>
        <time>2018-07-28T09:57:55Z</time>
      </trkpt>
      <trkpt lat="36.6803207397461" lon="-5.05264091491699">
        <ele>1317.51318359375</ele>
        <time>2018-07-28T09:57:56Z</time>
      </trkpt>
      <trkpt lat="36.6803207397461" lon="-5.05263996124268">
        <ele>1317.51708984375</ele>
        <time>2018-07-28T09:57:57Z</time>
      </trkpt>
      <trkpt lat="36.6803207397461" lon="-5.05263996124268">
        <ele>1317.51708984375</ele>
        <time>2018-07-28T09:57:58Z</time>
      </trkpt>
      <trkpt lat="36.6803207397461" lon="-5.05263996124268">
        <ele>1317.51708984375</ele>
        <time>2018-07-28T09:57:59Z</time>
      </trkpt>
      <trkpt lat="36.6803207397461" lon="-5.05263710021973">
        <ele>1317.52868652344</ele>
        <time>2018-07-28T09:58:00Z</time>
      </trkpt>
      <trkpt lat="36.6803207397461" lon="-5.05262994766235">
        <ele>1317.55773925781</ele>
        <time>2018-07-28T09:58:01Z</time>
      </trkpt>
      <trkpt lat="36.6803169250488" lon="-5.05261898040772">
        <ele>1317.45593261719</ele>
        <time>2018-07-28T09:58:02Z</time>
      </trkpt>
      <trkpt lat="36.6803131103516" lon="-5.05260705947876">
        <ele>1317.35607910156</ele>
        <time>2018-07-28T09:58:03Z</time>
      </trkpt>
      <trkpt lat="36.6803092956543" lon="-5.0525918006897">
        <ele>1317.26721191406</ele>
        <time>2018-07-28T09:58:04Z</time>
      </trkpt>
      <trkpt lat="36.680305480957" lon="-5.05257797241211">
        <ele>1317.17053222656</ele>
        <time>2018-07-28T09:58:05Z</time>
      </trkpt>
      <trkpt lat="36.6803016662598" lon="-5.05256414413452">
        <ele>1317.07177734375</ele>
        <time>2018-07-28T09:58:06Z</time>
      </trkpt>
      <trkpt lat="36.6802978515625" lon="-5.05254888534546">
        <ele>1316.97607421875</ele>
        <time>2018-07-28T09:58:07Z</time>
      </trkpt>
      <trkpt lat="36.6802940368652" lon="-5.05253410339356">
        <ele>1316.87634277344</ele>
        <time>2018-07-28T09:58:08Z</time>
      </trkpt>
      <trkpt lat="36.680290222168" lon="-5.05251884460449">
        <ele>1316.77600097656</ele>
        <time>2018-07-28T09:58:09Z</time>
      </trkpt>
      <trkpt lat="36.680290222168" lon="-5.0525050163269">
        <ele>1316.82373046875</ele>
        <time>2018-07-28T09:58:10Z</time>
      </trkpt>
      <trkpt lat="36.6802864074707" lon="-5.052490234375">
        <ele>1316.69714355469</ele>
        <time>2018-07-28T09:58:11Z</time>
      </trkpt>
      <trkpt lat="36.6802864074707" lon="-5.05247592926025">
        <ele>1316.71435546875</ele>
        <time>2018-07-28T09:58:12Z</time>
      </trkpt>
      <trkpt lat="36.6802825927734" lon="-5.05246114730835">
        <ele>1316.57641601562</ele>
        <time>2018-07-28T09:58:13Z</time>
      </trkpt>
      <trkpt lat="36.6802787780762" lon="-5.0524468421936">
        <ele>1316.43798828125</ele>
        <time>2018-07-28T09:58:14Z</time>
      </trkpt>
      <trkpt lat="36.6802749633789" lon="-5.05243301391602">
        <ele>1316.298828125</ele>
        <time>2018-07-28T09:58:15Z</time>
      </trkpt>
      <trkpt lat="36.6802711486816" lon="-5.05241680145264">
        <ele>1316.16271972656</ele>
        <time>2018-07-28T09:58:16Z</time>
      </trkpt>
      <trkpt lat="36.6802711486816" lon="-5.05240106582642">
        <ele>1316.181640625</ele>
        <time>2018-07-28T09:58:17Z</time>
      </trkpt>
      <trkpt lat="36.6802673339844" lon="-5.05238389968872">
        <ele>1316.04650878906</ele>
        <time>2018-07-28T09:58:18Z</time>
      </trkpt>
      <trkpt lat="36.6802635192871" lon="-5.05236721038818">
        <ele>1315.91088867188</ele>
        <time>2018-07-28T09:58:19Z</time>
      </trkpt>
      <trkpt lat="36.6802635192871" lon="-5.05235004425049">
        <ele>1315.93151855469</ele>
        <time>2018-07-28T09:58:20Z</time>
      </trkpt>
      <trkpt lat="36.6802597045898" lon="-5.05233383178711">
        <ele>1315.79541015625</ele>
        <time>2018-07-28T09:58:21Z</time>
      </trkpt>
      <trkpt lat="36.6802597045898" lon="-5.05231809616089">
        <ele>1315.81420898438</ele>
        <time>2018-07-28T09:58:22Z</time>
      </trkpt>
      <trkpt lat="36.6802597045898" lon="-5.05230188369751">
        <ele>1315.83374023438</ele>
        <time>2018-07-28T09:58:23Z</time>
      </trkpt>
      <trkpt lat="36.6802558898926" lon="-5.0522837638855">
        <ele>1315.69982910156</ele>
        <time>2018-07-28T09:58:24Z</time>
      </trkpt>
      <trkpt lat="36.6802558898926" lon="-5.05226707458496">
        <ele>1315.71984863281</ele>
        <time>2018-07-28T09:58:25Z</time>
      </trkpt>
      <trkpt lat="36.6802520751953" lon="-5.05224990844727">
        <ele>1315.58471679688</ele>
        <time>2018-07-28T09:58:26Z</time>
      </trkpt>
      <trkpt lat="36.680248260498" lon="-5.05223321914673">
        <ele>1315.44921875</ele>
        <time>2018-07-28T09:58:27Z</time>
      </trkpt>
      <trkpt lat="36.6802444458008" lon="-5.05221891403198">
        <ele>1315.31066894531</ele>
        <time>2018-07-28T09:58:28Z</time>
      </trkpt>
      <trkpt lat="36.6802368164062" lon="-5.05220699310303">
        <ele>1315.013671875</ele>
        <time>2018-07-28T09:58:29Z</time>
      </trkpt>
      <trkpt lat="36.680233001709" lon="-5.05219602584839">
        <ele>1314.87121582031</ele>
        <time>2018-07-28T09:58:30Z</time>
      </trkpt>
      <trkpt lat="36.6802291870117" lon="-5.05218315124512">
        <ele>1314.73107910156</ele>
        <time>2018-07-28T09:58:31Z</time>
      </trkpt>
      <trkpt lat="36.6802291870117" lon="-5.05216979980469">
        <ele>1314.7470703125</ele>
        <time>2018-07-28T09:58:32Z</time>
      </trkpt>
      <trkpt lat="36.6802291870117" lon="-5.05215501785278">
        <ele>1314.76477050781</ele>
        <time>2018-07-28T09:58:33Z</time>
      </trkpt>
      <trkpt lat="36.680233001709" lon="-5.0521388053894">
        <ele>1314.93994140625</ele>
        <time>2018-07-28T09:58:34Z</time>
      </trkpt>
      <trkpt lat="36.680233001709" lon="-5.0521240234375">
        <ele>1314.95764160156</ele>
        <time>2018-07-28T09:58:35Z</time>
      </trkpt>
      <trkpt lat="36.680233001709" lon="-5.05210781097412">
        <ele>1314.97705078125</ele>
        <time>2018-07-28T09:58:36Z</time>
      </trkpt>
      <trkpt lat="36.680233001709" lon="-5.0520920753479">
        <ele>1314.99597167969</ele>
        <time>2018-07-28T09:58:37Z</time>
      </trkpt>
      <trkpt lat="36.680233001709" lon="-5.05207586288452">
        <ele>1315.01538085938</ele>
        <time>2018-07-28T09:58:38Z</time>
      </trkpt>
      <trkpt lat="36.6802368164062" lon="-5.0520601272583">
        <ele>1315.18994140625</ele>
        <time>2018-07-28T09:58:39Z</time>
      </trkpt>
      <trkpt lat="36.6802368164062" lon="-5.05204296112061">
        <ele>1315.21057128906</ele>
        <time>2018-07-28T09:58:40Z</time>
      </trkpt>
      <trkpt lat="36.6802368164062" lon="-5.05202484130859">
        <ele>1315.23229980469</ele>
        <time>2018-07-28T09:58:41Z</time>
      </trkpt>
      <trkpt lat="36.6802406311035" lon="-5.05200719833374">
        <ele>1315.40905761719</ele>
        <time>2018-07-28T09:58:42Z</time>
      </trkpt>
      <trkpt lat="36.6802444458008" lon="-5.05198812484741">
        <ele>1315.58764648438</ele>
        <time>2018-07-28T09:58:43Z</time>
      </trkpt>
      <trkpt lat="36.680248260498" lon="-5.05196905136108">
        <ele>1315.76611328125</ele>
        <time>2018-07-28T09:58:44Z</time>
      </trkpt>
      <trkpt lat="36.6802520751953" lon="-5.05195093154907">
        <ele>1315.94360351562</ele>
        <time>2018-07-28T09:58:45Z</time>
      </trkpt>
      <trkpt lat="36.6802520751953" lon="-5.05193376541138">
        <ele>1315.96411132812</ele>
        <time>2018-07-28T09:58:46Z</time>
      </trkpt>
      <trkpt lat="36.6802558898926" lon="-5.05191707611084">
        <ele>1316.13977050781</ele>
        <time>2018-07-28T09:58:47Z</time>
      </trkpt>
      <trkpt lat="36.6802558898926" lon="-5.05189895629883">
        <ele>1316.16162109375</ele>
        <time>2018-07-28T09:58:48Z</time>
      </trkpt>
      <trkpt lat="36.6802597045898" lon="-5.05188179016113">
        <ele>1316.33776855469</ele>
        <time>2018-07-28T09:58:49Z</time>
      </trkpt>
      <trkpt lat="36.6802635192871" lon="-5.0518651008606">
        <ele>1316.51342773438</ele>
        <time>2018-07-28T09:58:50Z</time>
      </trkpt>
      <trkpt lat="36.6802635192871" lon="-5.05184888839722">
        <ele>1316.53295898438</ele>
        <time>2018-07-28T09:58:51Z</time>
      </trkpt>
      <trkpt lat="36.6802673339844" lon="-5.051833152771">
        <ele>1316.70739746094</ele>
        <time>2018-07-28T09:58:52Z</time>
      </trkpt>
      <trkpt lat="36.6802711486816" lon="-5.05181694030762">
        <ele>1316.88256835938</ele>
        <time>2018-07-28T09:58:53Z</time>
      </trkpt>
      <trkpt lat="36.6802749633789" lon="-5.0518012046814">
        <ele>1317.05700683594</ele>
        <time>2018-07-28T09:58:54Z</time>
      </trkpt>
      <trkpt lat="36.6802787780762" lon="-5.05178499221802">
        <ele>1317.23217773438</ele>
        <time>2018-07-28T09:58:55Z</time>
      </trkpt>
      <trkpt lat="36.6802825927734" lon="-5.05176782608032">
        <ele>1317.40844726562</ele>
        <time>2018-07-28T09:58:56Z</time>
      </trkpt>
      <trkpt lat="36.6802864074707" lon="-5.0517520904541">
        <ele>1317.58288574219</ele>
        <time>2018-07-28T09:58:57Z</time>
      </trkpt>
      <trkpt lat="36.6802940368652" lon="-5.05173683166504">
        <ele>1317.91247558594</ele>
        <time>2018-07-28T09:58:58Z</time>
      </trkpt>
      <trkpt lat="36.6802978515625" lon="-5.05172109603882">
        <ele>1318.08703613281</ele>
        <time>2018-07-28T09:58:59Z</time>
      </trkpt>
      <trkpt lat="36.6803016662598" lon="-5.05170583724976">
        <ele>1318.26098632812</ele>
        <time>2018-07-28T09:59:00Z</time>
      </trkpt>
      <trkpt lat="36.680305480957" lon="-5.05169105529785">
        <ele>1318.43432617188</ele>
        <time>2018-07-28T09:59:01Z</time>
      </trkpt>
      <trkpt lat="36.680305480957" lon="-5.0516791343689">
        <ele>1318.44860839844</ele>
        <time>2018-07-28T09:59:02Z</time>
      </trkpt>
      <trkpt lat="36.680305480957" lon="-5.05167198181152">
        <ele>1318.45727539062</ele>
        <time>2018-07-28T09:59:03Z</time>
      </trkpt>
      <trkpt lat="36.680305480957" lon="-5.05166578292847">
        <ele>1318.466796875</ele>
        <time>2018-07-28T09:59:04Z</time>
      </trkpt>
      <trkpt lat="36.680305480957" lon="-5.05166101455688">
        <ele>1318.48352050781</ele>
        <time>2018-07-28T09:59:05Z</time>
      </trkpt>
      <trkpt lat="36.680305480957" lon="-5.05165195465088">
        <ele>1318.51550292969</ele>
        <time>2018-07-28T09:59:06Z</time>
      </trkpt>
      <trkpt lat="36.6803092956543" lon="-5.05164098739624">
        <ele>1318.70666503906</ele>
        <time>2018-07-28T09:59:07Z</time>
      </trkpt>
      <trkpt lat="36.6803092956543" lon="-5.05162811279297">
        <ele>1318.75036621094</ele>
        <time>2018-07-28T09:59:08Z</time>
      </trkpt>
      <trkpt lat="36.6803169250488" lon="-5.05161285400391">
        <ele>1319.1005859375</ele>
        <time>2018-07-28T09:59:09Z</time>
      </trkpt>
      <trkpt lat="36.6803207397461" lon="-5.051598072052">
        <ele>1319.29467773438</ele>
        <time>2018-07-28T09:59:10Z</time>
      </trkpt>
      <trkpt lat="36.6803245544434" lon="-5.05158090591431">
        <ele>1319.49206542969</ele>
        <time>2018-07-28T09:59:11Z</time>
      </trkpt>
      <trkpt lat="36.6803283691406" lon="-5.05156517028809">
        <ele>1319.68139648438</ele>
        <time>2018-07-28T09:59:12Z</time>
      </trkpt>
      <trkpt lat="36.6803359985352" lon="-5.05154991149902">
        <ele>1320.00708007812</ele>
        <time>2018-07-28T09:59:13Z</time>
      </trkpt>
      <trkpt lat="36.6803398132324" lon="-5.05153322219849">
        <ele>1320.18933105469</ele>
        <time>2018-07-28T09:59:14Z</time>
      </trkpt>
      <trkpt lat="36.680347442627" lon="-5.05151700973511">
        <ele>1320.50390625</ele>
        <time>2018-07-28T09:59:15Z</time>
      </trkpt>
      <trkpt lat="36.6803512573242" lon="-5.05150079727173">
        <ele>1320.67504882812</ele>
        <time>2018-07-28T09:59:16Z</time>
      </trkpt>
      <trkpt lat="36.6803588867188" lon="-5.05148410797119">
        <ele>1320.97680664062</ele>
        <time>2018-07-28T09:59:17Z</time>
      </trkpt>
      <trkpt lat="36.6803665161133" lon="-5.05146789550781">
        <ele>1321.26965332031</ele>
        <time>2018-07-28T09:59:18Z</time>
      </trkpt>
      <trkpt lat="36.6803703308106" lon="-5.05145215988159">
        <ele>1321.42431640625</ele>
        <time>2018-07-28T09:59:19Z</time>
      </trkpt>
      <trkpt lat="36.6803741455078" lon="-5.05143594741821">
        <ele>1321.57592773438</ele>
        <time>2018-07-28T09:59:20Z</time>
      </trkpt>
      <trkpt lat="36.6803817749023" lon="-5.05141878128052">
        <ele>1321.85046386719</ele>
        <time>2018-07-28T09:59:21Z</time>
      </trkpt>
      <trkpt lat="36.6803894042969" lon="-5.0514030456543">
        <ele>1322.11535644531</ele>
        <time>2018-07-28T09:59:22Z</time>
      </trkpt>
      <trkpt lat="36.6803970336914" lon="-5.05138683319092">
        <ele>1322.373046875</ele>
        <time>2018-07-28T09:59:23Z</time>
      </trkpt>
      <trkpt lat="36.6804046630859" lon="-5.05137205123901">
        <ele>1322.62231445312</ele>
        <time>2018-07-28T09:59:24Z</time>
      </trkpt>
      <trkpt lat="36.6804122924805" lon="-5.05135679244995">
        <ele>1322.86450195312</ele>
        <time>2018-07-28T09:59:25Z</time>
      </trkpt>
      <trkpt lat="36.680419921875" lon="-5.05134010314941">
        <ele>1323.09912109375</ele>
        <time>2018-07-28T09:59:26Z</time>
      </trkpt>
      <trkpt lat="36.6804275512695" lon="-5.05132389068604">
        <ele>1323.32592773438</ele>
        <time>2018-07-28T09:59:27Z</time>
      </trkpt>
      <trkpt lat="36.6804351806641" lon="-5.05130815505981">
        <ele>1323.54504394531</ele>
        <time>2018-07-28T09:59:28Z</time>
      </trkpt>
      <trkpt lat="36.6804389953613" lon="-5.05129289627075">
        <ele>1323.64660644531</ele>
        <time>2018-07-28T09:59:29Z</time>
      </trkpt>
      <trkpt lat="36.6804466247559" lon="-5.05127716064453">
        <ele>1323.85266113281</ele>
        <time>2018-07-28T09:59:30Z</time>
      </trkpt>
      <trkpt lat="36.6804542541504" lon="-5.05126190185547">
        <ele>1324.05163574219</ele>
        <time>2018-07-28T09:59:31Z</time>
      </trkpt>
      <trkpt lat="36.6804618835449" lon="-5.05124711990356">
        <ele>1324.24389648438</ele>
        <time>2018-07-28T09:59:32Z</time>
      </trkpt>
      <trkpt lat="36.6804656982422" lon="-5.0512318611145">
        <ele>1324.32507324219</ele>
        <time>2018-07-28T09:59:33Z</time>
      </trkpt>
      <trkpt lat="36.6804733276367" lon="-5.05121803283691">
        <ele>1324.50646972656</ele>
        <time>2018-07-28T09:59:34Z</time>
      </trkpt>
      <trkpt lat="36.6804809570312" lon="-5.05120420455933">
        <ele>1324.68115234375</ele>
        <time>2018-07-28T09:59:35Z</time>
      </trkpt>
      <trkpt lat="36.6804885864258" lon="-5.05118989944458">
        <ele>1324.84802246094</ele>
        <time>2018-07-28T09:59:36Z</time>
      </trkpt>
      <trkpt lat="36.680492401123" lon="-5.05117607116699">
        <ele>1324.91284179688</ele>
        <time>2018-07-28T09:59:37Z</time>
      </trkpt>
      <trkpt lat="36.6805000305176" lon="-5.05116176605225">
        <ele>1325.06787109375</ele>
        <time>2018-07-28T09:59:38Z</time>
      </trkpt>
      <trkpt lat="36.6805038452148" lon="-5.05114889144897">
        <ele>1325.12683105469</ele>
        <time>2018-07-28T09:59:39Z</time>
      </trkpt>
      <trkpt lat="36.6805114746094" lon="-5.0511360168457">
        <ele>1325.27429199219</ele>
        <time>2018-07-28T09:59:40Z</time>
      </trkpt>
      <trkpt lat="36.6805152893066" lon="-5.05112218856812">
        <ele>1325.32263183594</ele>
        <time>2018-07-28T09:59:41Z</time>
      </trkpt>
      <trkpt lat="36.6805191040039" lon="-5.05110597610474">
        <ele>1325.35986328125</ele>
        <time>2018-07-28T09:59:42Z</time>
      </trkpt>
      <trkpt lat="36.6805267333984" lon="-5.05108976364136">
        <ele>1325.47912597656</ele>
        <time>2018-07-28T09:59:43Z</time>
      </trkpt>
      <trkpt lat="36.680534362793" lon="-5.05107402801514">
        <ele>1325.59228515625</ele>
        <time>2018-07-28T09:59:44Z</time>
      </trkpt>
      <trkpt lat="36.6805381774902" lon="-5.05105686187744">
        <ele>1325.61022949219</ele>
        <time>2018-07-28T09:59:45Z</time>
      </trkpt>
      <trkpt lat="36.6805458068848" lon="-5.05103921890259">
        <ele>1325.70190429688</ele>
        <time>2018-07-28T09:59:46Z</time>
      </trkpt>
      <trkpt lat="36.6805534362793" lon="-5.05102014541626">
        <ele>1325.77893066406</ele>
        <time>2018-07-28T09:59:47Z</time>
      </trkpt>
      <trkpt lat="36.6805610656738" lon="-5.05100202560425">
        <ele>1325.85107421875</ele>
        <time>2018-07-28T09:59:48Z</time>
      </trkpt>
      <trkpt lat="36.6805686950684" lon="-5.05098390579224">
        <ele>1325.91442871094</ele>
        <time>2018-07-28T09:59:49Z</time>
      </trkpt>
      <trkpt lat="36.6805763244629" lon="-5.0509672164917">
        <ele>1325.97619628906</ele>
        <time>2018-07-28T09:59:50Z</time>
      </trkpt>
      <trkpt lat="36.6805839538574" lon="-5.050950050354">
        <ele>1326.02746582031</ele>
        <time>2018-07-28T09:59:51Z</time>
      </trkpt>
      <trkpt lat="36.6805877685547" lon="-5.05093288421631">
        <ele>1326.00354003906</ele>
        <time>2018-07-28T09:59:52Z</time>
      </trkpt>
      <trkpt lat="36.680591583252" lon="-5.0509147644043">
        <ele>1325.97009277344</ele>
        <time>2018-07-28T09:59:53Z</time>
      </trkpt>
      <trkpt lat="36.6805992126465" lon="-5.05089712142944">
        <ele>1325.99755859375</ele>
        <time>2018-07-28T09:59:54Z</time>
      </trkpt>
      <trkpt lat="36.6806030273438" lon="-5.05087995529175">
        <ele>1325.95886230469</ele>
        <time>2018-07-28T09:59:55Z</time>
      </trkpt>
      <trkpt lat="36.680606842041" lon="-5.05086183547974">
        <ele>1325.91027832031</ele>
        <time>2018-07-28T09:59:56Z</time>
      </trkpt>
      <trkpt lat="36.6806106567383" lon="-5.05084419250488">
        <ele>1325.86022949219</ele>
        <time>2018-07-28T09:59:57Z</time>
      </trkpt>
      <trkpt lat="36.6806144714356" lon="-5.05082702636719">
        <ele>1325.88610839844</ele>
        <time>2018-07-28T09:59:58Z</time>
      </trkpt>
      <trkpt lat="36.6806182861328" lon="-5.05080890655518">
        <ele>1326.04699707031</ele>
        <time>2018-07-28T09:59:59Z</time>
      </trkpt>
      <trkpt lat="36.6806182861328" lon="-5.05079221725464">
        <ele>1326.14526367188</ele>
        <time>2018-07-28T10:00:00Z</time>
      </trkpt>
      <trkpt lat="36.6806182861328" lon="-5.05077505111694">
        <ele>1326.24621582031</ele>
        <time>2018-07-28T10:00:01Z</time>
      </trkpt>
      <trkpt lat="36.6806182861328" lon="-5.05075788497925">
        <ele>1326.34729003906</ele>
        <time>2018-07-28T10:00:02Z</time>
      </trkpt>
      <trkpt lat="36.6806182861328" lon="-5.05074119567871">
        <ele>1326.44543457031</ele>
        <time>2018-07-28T10:00:03Z</time>
      </trkpt>
      <trkpt lat="36.6806144714356" lon="-5.05072498321533">
        <ele>1326.49719238281</ele>
        <time>2018-07-28T10:00:04Z</time>
      </trkpt>
      <trkpt lat="36.6806106567383" lon="-5.05070877075195">
        <ele>1326.55236816406</ele>
        <time>2018-07-28T10:00:05Z</time>
      </trkpt>
      <trkpt lat="36.6806030273438" lon="-5.05069303512573">
        <ele>1326.56762695312</ele>
        <time>2018-07-28T10:00:06Z</time>
      </trkpt>
      <trkpt lat="36.680591583252" lon="-5.05067682266235">
        <ele>1326.55395507812</ele>
        <time>2018-07-28T10:00:07Z</time>
      </trkpt>
      <trkpt lat="36.6805801391602" lon="-5.05066299438477">
        <ele>1326.53405761719</ele>
        <time>2018-07-28T10:00:08Z</time>
      </trkpt>
      <trkpt lat="36.6805648803711" lon="-5.05065011978149">
        <ele>1326.47998046875</ele>
        <time>2018-07-28T10:00:09Z</time>
      </trkpt>
      <trkpt lat="36.6805534362793" lon="-5.05063819885254">
        <ele>1326.4638671875</ele>
        <time>2018-07-28T10:00:10Z</time>
      </trkpt>
      <trkpt lat="36.6805381774902" lon="-5.0506272315979">
        <ele>1326.4140625</ele>
        <time>2018-07-28T10:00:11Z</time>
      </trkpt>
      <trkpt lat="36.6805267333984" lon="-5.05061817169189">
        <ele>1326.38989257812</ele>
        <time>2018-07-28T10:00:12Z</time>
      </trkpt>
      <trkpt lat="36.6805114746094" lon="-5.0506100654602">
        <ele>1326.33129882812</ele>
        <time>2018-07-28T10:00:13Z</time>
      </trkpt>
      <trkpt lat="36.6805000305176" lon="-5.05060195922852">
        <ele>1326.31042480469</ele>
        <time>2018-07-28T10:00:14Z</time>
      </trkpt>
      <trkpt lat="36.6804847717285" lon="-5.05059480667114">
        <ele>1326.25549316406</ele>
        <time>2018-07-28T10:00:15Z</time>
      </trkpt>
      <trkpt lat="36.6804695129394" lon="-5.05058908462524">
        <ele>1326.19226074219</ele>
        <time>2018-07-28T10:00:16Z</time>
      </trkpt>
      <trkpt lat="36.6804580688477" lon="-5.0505862236023">
        <ele>1326.13330078125</ele>
        <time>2018-07-28T10:00:17Z</time>
      </trkpt>
      <trkpt lat="36.6804428100586" lon="-5.0505838394165">
        <ele>1326.04223632812</ele>
        <time>2018-07-28T10:00:18Z</time>
      </trkpt>
      <trkpt lat="36.6804275512695" lon="-5.0505838394165">
        <ele>1325.92663574219</ele>
        <time>2018-07-28T10:00:19Z</time>
      </trkpt>
      <trkpt lat="36.6804122924805" lon="-5.05058717727661">
        <ele>1325.77270507812</ele>
        <time>2018-07-28T10:00:20Z</time>
      </trkpt>
      <trkpt lat="36.6803970336914" lon="-5.05059289932251">
        <ele>1325.58740234375</ele>
        <time>2018-07-28T10:00:21Z</time>
      </trkpt>
      <trkpt lat="36.6803817749023" lon="-5.0506010055542">
        <ele>1325.36791992188</ele>
        <time>2018-07-28T10:00:22Z</time>
      </trkpt>
      <trkpt lat="36.6803665161133" lon="-5.0506100654602">
        <ele>1325.12939453125</ele>
        <time>2018-07-28T10:00:23Z</time>
      </trkpt>
      <trkpt lat="36.680347442627" lon="-5.05062103271484">
        <ele>1324.82543945312</ele>
        <time>2018-07-28T10:00:24Z</time>
      </trkpt>
      <trkpt lat="36.6803321838379" lon="-5.05063390731812">
        <ele>1324.51782226562</ele>
        <time>2018-07-28T10:00:25Z</time>
      </trkpt>
      <trkpt lat="36.6803207397461" lon="-5.05064916610718">
        <ele>1324.20153808594</ele>
        <time>2018-07-28T10:00:26Z</time>
      </trkpt>
      <trkpt lat="36.6803092956543" lon="-5.05066585540772">
        <ele>1323.85510253906</ele>
        <time>2018-07-28T10:00:27Z</time>
      </trkpt>
      <trkpt lat="36.6802978515625" lon="-5.05068111419678">
        <ele>1323.51916503906</ele>
        <time>2018-07-28T10:00:28Z</time>
      </trkpt>
      <trkpt lat="36.6802864074707" lon="-5.05069589614868">
        <ele>1323.18090820312</ele>
        <time>2018-07-28T10:00:29Z</time>
      </trkpt>
      <trkpt lat="36.6802749633789" lon="-5.05070877075195">
        <ele>1322.86242675781</ele>
        <time>2018-07-28T10:00:30Z</time>
      </trkpt>
      <trkpt lat="36.6802673339844" lon="-5.0507230758667">
        <ele>1322.55700683594</ele>
        <time>2018-07-28T10:00:31Z</time>
      </trkpt>
      <trkpt lat="36.6802597045898" lon="-5.05073690414429">
        <ele>1322.25317382812</ele>
        <time>2018-07-28T10:00:32Z</time>
      </trkpt>
      <trkpt lat="36.6802520751953" lon="-5.05075120925903">
        <ele>1321.93591308594</ele>
        <time>2018-07-28T10:00:33Z</time>
      </trkpt>
      <trkpt lat="36.6802444458008" lon="-5.05076599121094">
        <ele>1321.60498046875</ele>
        <time>2018-07-28T10:00:34Z</time>
      </trkpt>
      <trkpt lat="36.6802368164062" lon="-5.05078077316284">
        <ele>1321.26794433594</ele>
        <time>2018-07-28T10:00:35Z</time>
      </trkpt>
      <trkpt lat="36.6802291870117" lon="-5.05079889297485">
        <ele>1320.86962890625</ele>
        <time>2018-07-28T10:00:36Z</time>
      </trkpt>
      <trkpt lat="36.6802215576172" lon="-5.05081701278686">
        <ele>1320.46362304688</ele>
        <time>2018-07-28T10:00:37Z</time>
      </trkpt>
      <trkpt lat="36.6802139282227" lon="-5.05083179473877">
        <ele>1320.10668945312</ele>
        <time>2018-07-28T10:00:38Z</time>
      </trkpt>
      <trkpt lat="36.6802062988281" lon="-5.05084419250488">
        <ele>1319.89831542969</ele>
        <time>2018-07-28T10:00:39Z</time>
      </trkpt>
      <trkpt lat="36.6801986694336" lon="-5.0508542060852">
        <ele>1319.71667480469</ele>
        <time>2018-07-28T10:00:40Z</time>
      </trkpt>
      <trkpt lat="36.6801910400391" lon="-5.05086708068848">
        <ele>1319.509765625</ele>
        <time>2018-07-28T10:00:41Z</time>
      </trkpt>
      <trkpt lat="36.6801834106445" lon="-5.05088186264038">
        <ele>1319.28247070312</ele>
        <time>2018-07-28T10:00:42Z</time>
      </trkpt>
      <trkpt lat="36.68017578125" lon="-5.05089902877808">
        <ele>1319.02990722656</ele>
        <time>2018-07-28T10:00:43Z</time>
      </trkpt>
      <trkpt lat="36.6801681518555" lon="-5.05091381072998">
        <ele>1318.78784179688</ele>
        <time>2018-07-28T10:00:44Z</time>
      </trkpt>
      <trkpt lat="36.6801643371582" lon="-5.05092811584473">
        <ele>1318.60876464844</ele>
        <time>2018-07-28T10:00:45Z</time>
      </trkpt>
      <trkpt lat="36.6801567077637" lon="-5.05094194412231">
        <ele>1318.36218261719</ele>
        <time>2018-07-28T10:00:46Z</time>
      </trkpt>
      <trkpt lat="36.6801490783691" lon="-5.05095386505127">
        <ele>1318.125</ele>
        <time>2018-07-28T10:00:47Z</time>
      </trkpt>
      <trkpt lat="36.6801414489746" lon="-5.05096817016602">
        <ele>1317.86120605469</ele>
        <time>2018-07-28T10:00:48Z</time>
      </trkpt>
      <trkpt lat="36.6801338195801" lon="-5.05098009109497">
        <ele>1317.61193847656</ele>
        <time>2018-07-28T10:00:49Z</time>
      </trkpt>
      <trkpt lat="36.6801223754883" lon="-5.05099201202393">
        <ele>1317.28283691406</ele>
        <time>2018-07-28T10:00:50Z</time>
      </trkpt>
      <trkpt lat="36.6801147460938" lon="-5.05100202560425">
        <ele>1317.03881835938</ele>
        <time>2018-07-28T10:00:51Z</time>
      </trkpt>
      <trkpt lat="36.680103302002" lon="-5.05101299285889">
        <ele>1316.70397949219</ele>
        <time>2018-07-28T10:00:52Z</time>
      </trkpt>
      <trkpt lat="36.6800918579102" lon="-5.05102491378784">
        <ele>1316.35144042969</ele>
        <time>2018-07-28T10:00:53Z</time>
      </trkpt>
      <trkpt lat="36.6800842285156" lon="-5.05103492736816">
        <ele>1316.08972167969</ele>
        <time>2018-07-28T10:00:54Z</time>
      </trkpt>
      <trkpt lat="36.6800727844238" lon="-5.0510458946228">
        <ele>1315.732421875</ele>
        <time>2018-07-28T10:00:55Z</time>
      </trkpt>
      <trkpt lat="36.680061340332" lon="-5.05105781555176">
        <ele>1315.35632324219</ele>
        <time>2018-07-28T10:00:56Z</time>
      </trkpt>
      <trkpt lat="36.6800498962402" lon="-5.05107307434082">
        <ele>1314.93286132812</ele>
        <time>2018-07-28T10:00:57Z</time>
      </trkpt>
      <trkpt lat="36.6800384521484" lon="-5.05108690261841">
        <ele>1314.51550292969</ele>
        <time>2018-07-28T10:00:58Z</time>
      </trkpt>
      <trkpt lat="36.6800270080566" lon="-5.05110120773315">
        <ele>1314.08215332031</ele>
        <time>2018-07-28T10:00:59Z</time>
      </trkpt>
      <trkpt lat="36.6800155639648" lon="-5.05111312866211">
        <ele>1313.66882324219</ele>
        <time>2018-07-28T10:01:00Z</time>
      </trkpt>
      <trkpt lat="36.680004119873" lon="-5.05112409591675">
        <ele>1313.25915527344</ele>
        <time>2018-07-28T10:01:01Z</time>
      </trkpt>
      <trkpt lat="36.6799964904785" lon="-5.0511360168457">
        <ele>1312.97058105469</ele>
        <time>2018-07-28T10:01:02Z</time>
      </trkpt>
      <trkpt lat="36.6799850463867" lon="-5.05114603042603">
        <ele>1312.72424316406</ele>
        <time>2018-07-28T10:01:03Z</time>
      </trkpt>
      <trkpt lat="36.6799736022949" lon="-5.05115699768066">
        <ele>1312.46032714844</ele>
        <time>2018-07-28T10:01:04Z</time>
      </trkpt>
      <trkpt lat="36.6799621582031" lon="-5.05116701126099">
        <ele>1312.20471191406</ele>
        <time>2018-07-28T10:01:05Z</time>
      </trkpt>
      <trkpt lat="36.6799507141113" lon="-5.05117797851562">
        <ele>1311.93078613281</ele>
        <time>2018-07-28T10:01:06Z</time>
      </trkpt>
      <trkpt lat="36.6799430847168" lon="-5.05118799209595">
        <ele>1311.70666503906</ele>
        <time>2018-07-28T10:01:07Z</time>
      </trkpt>
      <trkpt lat="36.679931640625" lon="-5.05119895935059">
        <ele>1311.42370605469</ele>
        <time>2018-07-28T10:01:08Z</time>
      </trkpt>
      <trkpt lat="36.6799201965332" lon="-5.05120992660522">
        <ele>1311.1357421875</ele>
        <time>2018-07-28T10:01:09Z</time>
      </trkpt>
      <trkpt lat="36.6799087524414" lon="-5.05122089385986">
        <ele>1310.8427734375</ele>
        <time>2018-07-28T10:01:10Z</time>
      </trkpt>
      <trkpt lat="36.6798934936523" lon="-5.05123090744019">
        <ele>1310.51489257812</ele>
        <time>2018-07-28T10:01:11Z</time>
      </trkpt>
      <trkpt lat="36.6798820495606" lon="-5.05124092102051">
        <ele>1310.22607421875</ele>
        <time>2018-07-28T10:01:12Z</time>
      </trkpt>
      <trkpt lat="36.6798706054688" lon="-5.05125093460083">
        <ele>1309.93249511719</ele>
        <time>2018-07-28T10:01:13Z</time>
      </trkpt>
      <trkpt lat="36.6798553466797" lon="-5.05126190185547">
        <ele>1309.57238769531</ele>
        <time>2018-07-28T10:01:14Z</time>
      </trkpt>
      <trkpt lat="36.6798477172852" lon="-5.05127096176147">
        <ele>1309.33154296875</ele>
        <time>2018-07-28T10:01:15Z</time>
      </trkpt>
      <trkpt lat="36.6798324584961" lon="-5.0512809753418">
        <ele>1308.97595214844</ele>
        <time>2018-07-28T10:01:16Z</time>
      </trkpt>
      <trkpt lat="36.6798248291016" lon="-5.05128908157349">
        <ele>1308.74401855469</ele>
        <time>2018-07-28T10:01:17Z</time>
      </trkpt>
      <trkpt lat="36.6798133850098" lon="-5.05129814147949">
        <ele>1308.44409179688</ele>
        <time>2018-07-28T10:01:18Z</time>
      </trkpt>
      <trkpt lat="36.6798057556152" lon="-5.05130577087402">
        <ele>1308.21447753906</ele>
        <time>2018-07-28T10:01:19Z</time>
      </trkpt>
      <trkpt lat="36.6797943115234" lon="-5.05131483078003">
        <ele>1307.90710449219</ele>
        <time>2018-07-28T10:01:20Z</time>
      </trkpt>
      <trkpt lat="36.6797828674316" lon="-5.05132389068604">
        <ele>1307.59558105469</ele>
        <time>2018-07-28T10:01:21Z</time>
      </trkpt>
      <trkpt lat="36.6797714233398" lon="-5.05133485794067">
        <ele>1307.24597167969</ele>
        <time>2018-07-28T10:01:22Z</time>
      </trkpt>
      <trkpt lat="36.6797561645508" lon="-5.05134582519531">
        <ele>1306.83801269531</ele>
        <time>2018-07-28T10:01:23Z</time>
      </trkpt>
      <trkpt lat="36.679744720459" lon="-5.05135679244995">
        <ele>1306.47741699219</ele>
        <time>2018-07-28T10:01:24Z</time>
      </trkpt>
      <trkpt lat="36.6797294616699" lon="-5.05136489868164">
        <ele>1306.11022949219</ele>
        <time>2018-07-28T10:01:25Z</time>
      </trkpt>
      <trkpt lat="36.6797180175781" lon="-5.05137300491333">
        <ele>1305.79333496094</ele>
        <time>2018-07-28T10:01:26Z</time>
      </trkpt>
      <trkpt lat="36.6797027587891" lon="-5.05137777328491">
        <ele>1305.48083496094</ele>
        <time>2018-07-28T10:01:27Z</time>
      </trkpt>
      <trkpt lat="36.6796913146973" lon="-5.05138301849365">
        <ele>1305.21215820312</ele>
        <time>2018-07-28T10:01:28Z</time>
      </trkpt>
      <trkpt lat="36.6796798706055" lon="-5.0513858795166">
        <ele>1304.98791503906</ele>
        <time>2018-07-28T10:01:29Z</time>
      </trkpt>
      <trkpt lat="36.6796646118164" lon="-5.05138683319092">
        <ele>1304.74389648438</ele>
        <time>2018-07-28T10:01:30Z</time>
      </trkpt>
      <trkpt lat="36.6796493530273" lon="-5.0513858795166">
        <ele>1304.5380859375</ele>
        <time>2018-07-28T10:01:31Z</time>
      </trkpt>
      <trkpt lat="36.679630279541" lon="-5.05138397216797">
        <ele>1304.29638671875</ele>
        <time>2018-07-28T10:01:32Z</time>
      </trkpt>
      <trkpt lat="36.6796188354492" lon="-5.05138301849365">
        <ele>1304.14807128906</ele>
        <time>2018-07-28T10:01:33Z</time>
      </trkpt>
      <trkpt lat="36.6796073913574" lon="-5.05138206481934">
        <ele>1304.00012207031</ele>
        <time>2018-07-28T10:01:34Z</time>
      </trkpt>
      <trkpt lat="36.6795921325684" lon="-5.0513801574707">
        <ele>1303.81726074219</ele>
        <time>2018-07-28T10:01:35Z</time>
      </trkpt>
      <trkpt lat="36.6795806884766" lon="-5.0513768196106">
        <ele>1303.72216796875</ele>
        <time>2018-07-28T10:01:36Z</time>
      </trkpt>
      <trkpt lat="36.6795692443848" lon="-5.05137300491333">
        <ele>1303.63903808594</ele>
        <time>2018-07-28T10:01:37Z</time>
      </trkpt>
      <trkpt lat="36.6795539855957" lon="-5.05136823654175">
        <ele>1303.52392578125</ele>
        <time>2018-07-28T10:01:38Z</time>
      </trkpt>
      <trkpt lat="36.6795425415039" lon="-5.05136299133301">
        <ele>1303.47692871094</ele>
        <time>2018-07-28T10:01:39Z</time>
      </trkpt>
      <trkpt lat="36.6795310974121" lon="-5.05135679244995">
        <ele>1303.45397949219</ele>
        <time>2018-07-28T10:01:40Z</time>
      </trkpt>
      <trkpt lat="36.6795196533203" lon="-5.05135202407837">
        <ele>1303.40112304688</ele>
        <time>2018-07-28T10:01:41Z</time>
      </trkpt>
      <trkpt lat="36.6795043945312" lon="-5.05134582519531">
        <ele>1303.33044433594</ele>
        <time>2018-07-28T10:01:42Z</time>
      </trkpt>
      <trkpt lat="36.6794929504394" lon="-5.05134010314941">
        <ele>1303.30505371094</ele>
        <time>2018-07-28T10:01:43Z</time>
      </trkpt>
      <trkpt lat="36.6794815063477" lon="-5.05133295059204">
        <ele>1303.31604003906</ele>
        <time>2018-07-28T10:01:44Z</time>
      </trkpt>
      <trkpt lat="36.6794700622559" lon="-5.05132389068604">
        <ele>1303.3759765625</ele>
        <time>2018-07-28T10:01:45Z</time>
      </trkpt>
      <trkpt lat="36.6794586181641" lon="-5.05131721496582">
        <ele>1303.38256835938</ele>
        <time>2018-07-28T10:01:46Z</time>
      </trkpt>
      <trkpt lat="36.679443359375" lon="-5.05131196975708">
        <ele>1303.30688476562</ele>
        <time>2018-07-28T10:01:47Z</time>
      </trkpt>
      <trkpt lat="36.6794319152832" lon="-5.05130815505981">
        <ele>1303.24926757812</ele>
        <time>2018-07-28T10:01:48Z</time>
      </trkpt>
      <trkpt lat="36.6794204711914" lon="-5.05130290985107">
        <ele>1303.22912597656</ele>
        <time>2018-07-28T10:01:49Z</time>
      </trkpt>
      <trkpt lat="36.6794052124023" lon="-5.05129814147949">
        <ele>1303.14978027344</ele>
        <time>2018-07-28T10:01:50Z</time>
      </trkpt>
      <trkpt lat="36.6793937683106" lon="-5.05129384994507">
        <ele>1303.11047363281</ele>
        <time>2018-07-28T10:01:51Z</time>
      </trkpt>
      <trkpt lat="36.6793785095215" lon="-5.0512900352478">
        <ele>1303.01208496094</ele>
        <time>2018-07-28T10:01:52Z</time>
      </trkpt>
      <trkpt lat="36.6793632507324" lon="-5.05128622055054">
        <ele>1302.91589355469</ele>
        <time>2018-07-28T10:01:53Z</time>
      </trkpt>
      <trkpt lat="36.6793479919434" lon="-5.05128192901611">
        <ele>1302.83471679688</ele>
        <time>2018-07-28T10:01:54Z</time>
      </trkpt>
      <trkpt lat="36.6793365478516" lon="-5.05127716064453">
        <ele>1302.81677246094</ele>
        <time>2018-07-28T10:01:55Z</time>
      </trkpt>
      <trkpt lat="36.6793212890625" lon="-5.05127191543579">
        <ele>1302.76635742188</ele>
        <time>2018-07-28T10:01:56Z</time>
      </trkpt>
      <trkpt lat="36.6793098449707" lon="-5.05126714706421">
        <ele>1302.75317382812</ele>
        <time>2018-07-28T10:01:57Z</time>
      </trkpt>
      <trkpt lat="36.6792984008789" lon="-5.05126476287842">
        <ele>1302.67712402344</ele>
        <time>2018-07-28T10:01:58Z</time>
      </trkpt>
      <trkpt lat="36.6792831420898" lon="-5.05126190185547">
        <ele>1302.56860351562</ele>
        <time>2018-07-28T10:01:59Z</time>
      </trkpt>
      <trkpt lat="36.679271697998" lon="-5.05125904083252">
        <ele>1302.50830078125</ele>
        <time>2018-07-28T10:02:00Z</time>
      </trkpt>
      <trkpt lat="36.679256439209" lon="-5.05125522613525">
        <ele>1302.42993164062</ele>
        <time>2018-07-28T10:02:01Z</time>
      </trkpt>
      <trkpt lat="36.6792411804199" lon="-5.05125093460083">
        <ele>1302.36755371094</ele>
        <time>2018-07-28T10:02:02Z</time>
      </trkpt>
      <trkpt lat="36.6792297363281" lon="-5.05124711990356">
        <ele>1302.33959960938</ele>
        <time>2018-07-28T10:02:03Z</time>
      </trkpt>
      <trkpt lat="36.6792144775391" lon="-5.05124378204346">
        <ele>1302.25427246094</ele>
        <time>2018-07-28T10:02:04Z</time>
      </trkpt>
      <trkpt lat="36.67919921875" lon="-5.05124282836914">
        <ele>1302.10107421875</ele>
        <time>2018-07-28T10:02:05Z</time>
      </trkpt>
      <trkpt lat="36.6791877746582" lon="-5.05124092102051">
        <ele>1302.02185058594</ele>
        <time>2018-07-28T10:02:06Z</time>
      </trkpt>
      <trkpt lat="36.6791725158691" lon="-5.05123805999756">
        <ele>1301.92700195312</ele>
        <time>2018-07-28T10:02:07Z</time>
      </trkpt>
      <trkpt lat="36.6791610717773" lon="-5.0512318611145">
        <ele>1301.94982910156</ele>
        <time>2018-07-28T10:02:08Z</time>
      </trkpt>
      <trkpt lat="36.6791458129883" lon="-5.0512261390686">
        <ele>1301.86401367188</ele>
        <time>2018-07-28T10:02:09Z</time>
      </trkpt>
      <trkpt lat="36.6791343688965" lon="-5.05121898651123">
        <ele>1301.88488769531</ele>
        <time>2018-07-28T10:02:10Z</time>
      </trkpt>
      <trkpt lat="36.6791191101074" lon="-5.05121278762817">
        <ele>1301.81237792969</ele>
        <time>2018-07-28T10:02:11Z</time>
      </trkpt>
      <trkpt lat="36.6791076660156" lon="-5.05120611190796">
        <ele>1301.81799316406</ele>
        <time>2018-07-28T10:02:12Z</time>
      </trkpt>
      <trkpt lat="36.6790924072266" lon="-5.05120086669922">
        <ele>1301.71594238281</ele>
        <time>2018-07-28T10:02:13Z</time>
      </trkpt>
      <trkpt lat="36.6790809631348" lon="-5.05119514465332">
        <ele>1301.69226074219</ele>
        <time>2018-07-28T10:02:14Z</time>
      </trkpt>
      <trkpt lat="36.6790657043457" lon="-5.05118703842163">
        <ele>1301.67431640625</ele>
        <time>2018-07-28T10:02:15Z</time>
      </trkpt>
      <trkpt lat="36.6790504455566" lon="-5.05117988586426">
        <ele>1301.62744140625</ele>
        <time>2018-07-28T10:02:16Z</time>
      </trkpt>
      <trkpt lat="36.6790351867676" lon="-5.05117177963257">
        <ele>1301.60815429688</ele>
        <time>2018-07-28T10:02:17Z</time>
      </trkpt>
      <trkpt lat="36.6790237426758" lon="-5.05116605758667">
        <ele>1301.58264160156</ele>
        <time>2018-07-28T10:02:18Z</time>
      </trkpt>
      <trkpt lat="36.679012298584" lon="-5.05115795135498">
        <ele>1301.62719726562</ele>
        <time>2018-07-28T10:02:19Z</time>
      </trkpt>
      <trkpt lat="36.6789970397949" lon="-5.05115222930908">
        <ele>1301.53564453125</ele>
        <time>2018-07-28T10:02:20Z</time>
      </trkpt>
      <trkpt lat="36.6789855957031" lon="-5.05114603042603">
        <ele>1301.52282714844</ele>
        <time>2018-07-28T10:02:21Z</time>
      </trkpt>
      <trkpt lat="36.6789741516113" lon="-5.05114078521728">
        <ele>1301.48168945312</ele>
        <time>2018-07-28T10:02:22Z</time>
      </trkpt>
      <trkpt lat="36.6789627075195" lon="-5.05113410949707">
        <ele>1301.48217773438</ele>
        <time>2018-07-28T10:02:23Z</time>
      </trkpt>
      <trkpt lat="36.6789474487305" lon="-5.05112791061401">
        <ele>1301.40270996094</ele>
        <time>2018-07-28T10:02:24Z</time>
      </trkpt>
      <trkpt lat="36.6789321899414" lon="-5.05112218856812">
        <ele>1301.30883789062</ele>
        <time>2018-07-28T10:02:25Z</time>
      </trkpt>
      <trkpt lat="36.6789207458496" lon="-5.05111694335938">
        <ele>1301.26599121094</ele>
        <time>2018-07-28T10:02:26Z</time>
      </trkpt>
      <trkpt lat="36.6789054870606" lon="-5.05111217498779">
        <ele>1301.14331054688</ele>
        <time>2018-07-28T10:02:27Z</time>
      </trkpt>
      <trkpt lat="36.6788940429688" lon="-5.05110788345337">
        <ele>1301.07177734375</ele>
        <time>2018-07-28T10:02:28Z</time>
      </trkpt>
      <trkpt lat="36.6788787841797" lon="-5.05110311508179">
        <ele>1300.94836425781</ele>
        <time>2018-07-28T10:02:29Z</time>
      </trkpt>
      <trkpt lat="36.6788635253906" lon="-5.05109882354736">
        <ele>1300.810546875</ele>
        <time>2018-07-28T10:02:30Z</time>
      </trkpt>
      <trkpt lat="36.6788482666016" lon="-5.05109405517578">
        <ele>1300.68627929688</ele>
        <time>2018-07-28T10:02:31Z</time>
      </trkpt>
      <trkpt lat="36.6788368225098" lon="-5.05108976364136">
        <ele>1300.61352539062</ele>
        <time>2018-07-28T10:02:32Z</time>
      </trkpt>
      <trkpt lat="36.6788215637207" lon="-5.05108594894409">
        <ele>1300.46069335938</ele>
        <time>2018-07-28T10:02:33Z</time>
      </trkpt>
      <trkpt lat="36.6788063049316" lon="-5.05108308792114">
        <ele>1300.28002929688</ele>
        <time>2018-07-28T10:02:34Z</time>
      </trkpt>
      <trkpt lat="36.6787948608398" lon="-5.05108022689819">
        <ele>1300.1650390625</ele>
        <time>2018-07-28T10:02:35Z</time>
      </trkpt>
      <trkpt lat="36.6787796020508" lon="-5.0510778427124">
        <ele>1299.97009277344</ele>
        <time>2018-07-28T10:02:36Z</time>
      </trkpt>
      <trkpt lat="36.6787643432617" lon="-5.05107498168945">
        <ele>1299.78869628906</ele>
        <time>2018-07-28T10:02:37Z</time>
      </trkpt>
      <trkpt lat="36.6787528991699" lon="-5.0510721206665">
        <ele>1299.67309570312</ele>
        <time>2018-07-28T10:02:38Z</time>
      </trkpt>
      <trkpt lat="36.6787376403809" lon="-5.05107021331787">
        <ele>1299.4638671875</ele>
        <time>2018-07-28T10:02:39Z</time>
      </trkpt>
      <trkpt lat="36.6787223815918" lon="-5.05106496810913">
        <ele>1299.35021972656</ele>
        <time>2018-07-28T10:02:40Z</time>
      </trkpt>
      <trkpt lat="36.6787071228027" lon="-5.05106210708618">
        <ele>1299.16772460938</ele>
        <time>2018-07-28T10:02:41Z</time>
      </trkpt>
      <trkpt lat="36.6786956787109" lon="-5.05105781555176">
        <ele>1299.09228515625</ele>
        <time>2018-07-28T10:02:42Z</time>
      </trkpt>
      <trkpt lat="36.6786804199219" lon="-5.05105495452881">
        <ele>1298.90930175781</ele>
        <time>2018-07-28T10:02:43Z</time>
      </trkpt>
      <trkpt lat="36.6786651611328" lon="-5.05105209350586">
        <ele>1298.72607421875</ele>
        <time>2018-07-28T10:02:44Z</time>
      </trkpt>
      <trkpt lat="36.6786499023438" lon="-5.05104923248291">
        <ele>1298.54260253906</ele>
        <time>2018-07-28T10:02:45Z</time>
      </trkpt>
      <trkpt lat="36.6786346435547" lon="-5.0510458946228">
        <ele>1298.37243652344</ele>
        <time>2018-07-28T10:02:46Z</time>
      </trkpt>
      <trkpt lat="36.6786193847656" lon="-5.05104112625122">
        <ele>1298.24267578125</ele>
        <time>2018-07-28T10:02:47Z</time>
      </trkpt>
      <trkpt lat="36.6786041259766" lon="-5.05103588104248">
        <ele>1298.1259765625</ele>
        <time>2018-07-28T10:02:48Z</time>
      </trkpt>
      <trkpt lat="36.6785926818848" lon="-5.0510311126709">
        <ele>1298.06188964844</ele>
        <time>2018-07-28T10:02:49Z</time>
      </trkpt>
      <trkpt lat="36.6785774230957" lon="-5.05102682113647">
        <ele>1297.91735839844</ele>
        <time>2018-07-28T10:02:50Z</time>
      </trkpt>
      <trkpt lat="36.6785621643066" lon="-5.05102300643921">
        <ele>1297.75903320312</ele>
        <time>2018-07-28T10:02:51Z</time>
      </trkpt>
      <trkpt lat="36.6785507202148" lon="-5.05101919174194">
        <ele>1297.66687011719</ele>
        <time>2018-07-28T10:02:52Z</time>
      </trkpt>
      <trkpt lat="36.6785354614258" lon="-5.0510139465332">
        <ele>1297.54821777344</ele>
        <time>2018-07-28T10:02:53Z</time>
      </trkpt>
      <trkpt lat="36.678524017334" lon="-5.0510082244873">
        <ele>1297.50927734375</ele>
        <time>2018-07-28T10:02:54Z</time>
      </trkpt>
      <trkpt lat="36.6785087585449" lon="-5.05099821090698">
        <ele>1297.52368164062</ele>
        <time>2018-07-28T10:02:55Z</time>
      </trkpt>
      <trkpt lat="36.6784973144531" lon="-5.05099010467529">
        <ele>1297.55078125</ele>
        <time>2018-07-28T10:02:56Z</time>
      </trkpt>
      <trkpt lat="36.6784820556641" lon="-5.05098295211792">
        <ele>1297.4833984375</ele>
        <time>2018-07-28T10:02:57Z</time>
      </trkpt>
      <trkpt lat="36.678466796875" lon="-5.05097723007202">
        <ele>1297.37548828125</ele>
        <time>2018-07-28T10:02:58Z</time>
      </trkpt>
      <trkpt lat="36.6784553527832" lon="-5.05096912384033">
        <ele>1297.40075683594</ele>
        <time>2018-07-28T10:02:59Z</time>
      </trkpt>
      <trkpt lat="36.6784400939941" lon="-5.05096101760864">
        <ele>1297.3583984375</ele>
        <time>2018-07-28T10:03:00Z</time>
      </trkpt>
      <trkpt lat="36.6784286499023" lon="-5.05095386505127">
        <ele>1297.35595703125</ele>
        <time>2018-07-28T10:03:01Z</time>
      </trkpt>
      <trkpt lat="36.6784172058106" lon="-5.05094718933106">
        <ele>1297.33972167969</ele>
        <time>2018-07-28T10:03:02Z</time>
      </trkpt>
      <trkpt lat="36.6784057617188" lon="-5.05094194412231">
        <ele>1297.28344726562</ele>
        <time>2018-07-28T10:03:03Z</time>
      </trkpt>
      <trkpt lat="36.6783905029297" lon="-5.05093479156494">
        <ele>1297.21215820312</ele>
        <time>2018-07-28T10:03:04Z</time>
      </trkpt>
      <trkpt lat="36.6783790588379" lon="-5.05092716217041">
        <ele>1297.22106933594</ele>
        <time>2018-07-28T10:03:05Z</time>
      </trkpt>
      <trkpt lat="36.6783676147461" lon="-5.05091714859009">
        <ele>1297.29553222656</ele>
        <time>2018-07-28T10:03:06Z</time>
      </trkpt>
      <trkpt lat="36.6783561706543" lon="-5.05090999603272">
        <ele>1297.29016113281</ele>
        <time>2018-07-28T10:03:07Z</time>
      </trkpt>
      <trkpt lat="36.6783409118652" lon="-5.05090284347534">
        <ele>1297.21643066406</ele>
        <time>2018-07-28T10:03:08Z</time>
      </trkpt>
      <trkpt lat="36.6783294677734" lon="-5.05089807510376">
        <ele>1297.16528320312</ele>
        <time>2018-07-28T10:03:09Z</time>
      </trkpt>
      <trkpt lat="36.6783142089844" lon="-5.05089092254639">
        <ele>1297.17468261719</ele>
        <time>2018-07-28T10:03:10Z</time>
      </trkpt>
      <trkpt lat="36.6783027648926" lon="-5.0508861541748">
        <ele>1297.166015625</ele>
        <time>2018-07-28T10:03:11Z</time>
      </trkpt>
      <trkpt lat="36.6782913208008" lon="-5.05087995529175">
        <ele>1297.19775390625</ele>
        <time>2018-07-28T10:03:12Z</time>
      </trkpt>
      <trkpt lat="36.6782760620117" lon="-5.05087518692017">
        <ele>1297.14379882812</ele>
        <time>2018-07-28T10:03:13Z</time>
      </trkpt>
      <trkpt lat="36.6782608032227" lon="-5.05086803436279">
        <ele>1297.15734863281</ele>
        <time>2018-07-28T10:03:14Z</time>
      </trkpt>
      <trkpt lat="36.6782455444336" lon="-5.05086278915405">
        <ele>1297.11865234375</ele>
        <time>2018-07-28T10:03:15Z</time>
      </trkpt>
      <trkpt lat="36.6782302856445" lon="-5.05085802078247">
        <ele>1297.0673828125</ele>
        <time>2018-07-28T10:03:16Z</time>
      </trkpt>
      <trkpt lat="36.6782188415527" lon="-5.05085277557373">
        <ele>1297.07666015625</ele>
        <time>2018-07-28T10:03:17Z</time>
      </trkpt>
      <trkpt lat="36.6782035827637" lon="-5.05084705352783">
        <ele>1297.05407714844</ele>
        <time>2018-07-28T10:03:18Z</time>
      </trkpt>
      <trkpt lat="36.6781883239746" lon="-5.05084085464478">
        <ele>1297.04602050781</ele>
        <time>2018-07-28T10:03:19Z</time>
      </trkpt>
      <trkpt lat="36.6781768798828" lon="-5.05083608627319">
        <ele>1297.04406738281</ele>
        <time>2018-07-28T10:03:20Z</time>
      </trkpt>
      <trkpt lat="36.678165435791" lon="-5.05083179473877">
        <ele>1297.04431152344</ele>
        <time>2018-07-28T10:03:21Z</time>
      </trkpt>
      <trkpt lat="36.678150177002" lon="-5.05082988739014">
        <ele>1296.93359375</ele>
        <time>2018-07-28T10:03:22Z</time>
      </trkpt>
      <trkpt lat="36.6781387329102" lon="-5.0508279800415">
        <ele>1296.8681640625</ele>
        <time>2018-07-28T10:03:23Z</time>
      </trkpt>
      <trkpt lat="36.6781234741211" lon="-5.05082607269287">
        <ele>1296.75598144531</ele>
        <time>2018-07-28T10:03:24Z</time>
      </trkpt>
      <trkpt lat="36.678108215332" lon="-5.05082416534424">
        <ele>1296.64294433594</ele>
        <time>2018-07-28T10:03:25Z</time>
      </trkpt>
      <trkpt lat="36.6780967712402" lon="-5.05082178115845">
        <ele>1296.59326171875</ele>
        <time>2018-07-28T10:03:26Z</time>
      </trkpt>
      <trkpt lat="36.6780815124512" lon="-5.05081987380981">
        <ele>1296.478515625</ele>
        <time>2018-07-28T10:03:27Z</time>
      </trkpt>
      <trkpt lat="36.6780700683594" lon="-5.05081796646118">
        <ele>1296.40954589844</ele>
        <time>2018-07-28T10:03:28Z</time>
      </trkpt>
      <trkpt lat="36.6780548095703" lon="-5.05081701278686">
        <ele>1296.25817871094</ele>
        <time>2018-07-28T10:03:29Z</time>
      </trkpt>
      <trkpt lat="36.6780433654785" lon="-5.05081701278686">
        <ele>1296.1181640625</ele>
        <time>2018-07-28T10:03:30Z</time>
      </trkpt>
      <trkpt lat="36.6780319213867" lon="-5.05081510543823">
        <ele>1296.04760742188</ele>
        <time>2018-07-28T10:03:31Z</time>
      </trkpt>
      <trkpt lat="36.6780166625977" lon="-5.05081176757812">
        <ele>1295.9814453125</ele>
        <time>2018-07-28T10:03:32Z</time>
      </trkpt>
      <trkpt lat="36.6780052185059" lon="-5.05080986022949">
        <ele>1295.90942382812</ele>
        <time>2018-07-28T10:03:33Z</time>
      </trkpt>
      <trkpt lat="36.6779937744141" lon="-5.05080890655518">
        <ele>1295.80249023438</ele>
        <time>2018-07-28T10:03:34Z</time>
      </trkpt>
      <trkpt lat="36.677978515625" lon="-5.05080890655518">
        <ele>1295.61401367188</ele>
        <time>2018-07-28T10:03:35Z</time>
      </trkpt>
      <trkpt lat="36.6779670715332" lon="-5.05080699920654">
        <ele>1295.54040527344</ele>
        <time>2018-07-28T10:03:36Z</time>
      </trkpt>
      <trkpt lat="36.6779556274414" lon="-5.05080604553223">
        <ele>1295.43249511719</ele>
        <time>2018-07-28T10:03:37Z</time>
      </trkpt>
      <trkpt lat="36.6779403686523" lon="-5.05080699920654">
        <ele>1295.20983886719</ele>
        <time>2018-07-28T10:03:38Z</time>
      </trkpt>
      <trkpt lat="36.6779289245606" lon="-5.05080699920654">
        <ele>1295.06811523438</ele>
        <time>2018-07-28T10:03:39Z</time>
      </trkpt>
      <trkpt lat="36.6779136657715" lon="-5.05080604553223">
        <ele>1294.91247558594</ele>
        <time>2018-07-28T10:03:40Z</time>
      </trkpt>
      <trkpt lat="36.6779022216797" lon="-5.05080413818359">
        <ele>1294.83654785156</ele>
        <time>2018-07-28T10:03:41Z</time>
      </trkpt>
      <trkpt lat="36.6778869628906" lon="-5.05079984664917">
        <ele>1294.79455566406</ele>
        <time>2018-07-28T10:03:42Z</time>
      </trkpt>
      <trkpt lat="36.6778755187988" lon="-5.05079698562622">
        <ele>1294.74963378906</ele>
        <time>2018-07-28T10:03:43Z</time>
      </trkpt>
      <trkpt lat="36.6778602600098" lon="-5.0507960319519">
        <ele>1294.59094238281</ele>
        <time>2018-07-28T10:03:44Z</time>
      </trkpt>
      <trkpt lat="36.677848815918" lon="-5.05079412460327">
        <ele>1294.51196289062</ele>
        <time>2018-07-28T10:03:45Z</time>
      </trkpt>
      <trkpt lat="36.6778335571289" lon="-5.05079412460327">
        <ele>1294.32019042969</ele>
        <time>2018-07-28T10:03:46Z</time>
      </trkpt>
      <trkpt lat="36.6778182983398" lon="-5.05079317092896">
        <ele>1294.16040039062</ele>
        <time>2018-07-28T10:03:47Z</time>
      </trkpt>
      <trkpt lat="36.6778030395508" lon="-5.05079507827759">
        <ele>1293.90515136719</ele>
        <time>2018-07-28T10:03:48Z</time>
      </trkpt>
      <trkpt lat="36.677791595459" lon="-5.0507960319519">
        <ele>1293.73010253906</ele>
        <time>2018-07-28T10:03:49Z</time>
      </trkpt>
      <trkpt lat="36.6777763366699" lon="-5.0507960319519">
        <ele>1293.53869628906</ele>
        <time>2018-07-28T10:03:50Z</time>
      </trkpt>
      <trkpt lat="36.6777648925781" lon="-5.05079507827759">
        <ele>1293.42639160156</ele>
        <time>2018-07-28T10:03:51Z</time>
      </trkpt>
      <trkpt lat="36.6777496337891" lon="-5.05079412460327">
        <ele>1293.26574707031</ele>
        <time>2018-07-28T10:03:52Z</time>
      </trkpt>
      <trkpt lat="36.6777381896973" lon="-5.05079412460327">
        <ele>1293.12194824219</ele>
        <time>2018-07-28T10:03:53Z</time>
      </trkpt>
      <trkpt lat="36.6777229309082" lon="-5.05079412460327">
        <ele>1292.93029785156</ele>
        <time>2018-07-28T10:03:54Z</time>
      </trkpt>
      <trkpt lat="36.6777076721191" lon="-5.0507960319519">
        <ele>1292.67785644531</ele>
        <time>2018-07-28T10:03:55Z</time>
      </trkpt>
      <trkpt lat="36.6776962280273" lon="-5.05079889297485">
        <ele>1292.44396972656</ele>
        <time>2018-07-28T10:03:56Z</time>
      </trkpt>
      <trkpt lat="36.677677154541" lon="-5.05080223083496">
        <ele>1292.10095214844</ele>
        <time>2018-07-28T10:03:57Z</time>
      </trkpt>
      <trkpt lat="36.6776657104492" lon="-5.05080509185791">
        <ele>1291.86926269531</ele>
        <time>2018-07-28T10:03:58Z</time>
      </trkpt>
      <trkpt lat="36.6776504516602" lon="-5.05080890655518">
        <ele>1291.56188964844</ele>
        <time>2018-07-28T10:03:59Z</time>
      </trkpt>
      <trkpt lat="36.6776351928711" lon="-5.0508131980896">
        <ele>1291.24145507812</ele>
        <time>2018-07-28T10:04:00Z</time>
      </trkpt>
      <trkpt lat="36.677619934082" lon="-5.05081605911255">
        <ele>1290.96655273438</ele>
        <time>2018-07-28T10:04:01Z</time>
      </trkpt>
      <trkpt lat="36.677604675293" lon="-5.05081701278686">
        <ele>1290.75073242188</ele>
        <time>2018-07-28T10:04:02Z</time>
      </trkpt>
      <trkpt lat="36.6775894165039" lon="-5.0508189201355">
        <ele>1290.50671386719</ele>
        <time>2018-07-28T10:04:03Z</time>
      </trkpt>
      <trkpt lat="36.6775741577148" lon="-5.05082178115845">
        <ele>1290.23498535156</ele>
        <time>2018-07-28T10:04:04Z</time>
      </trkpt>
      <trkpt lat="36.677562713623" lon="-5.05082607269287">
        <ele>1289.96826171875</ele>
        <time>2018-07-28T10:04:05Z</time>
      </trkpt>
      <trkpt lat="36.6775512695312" lon="-5.05082988739014">
        <ele>1289.71704101562</ele>
        <time>2018-07-28T10:04:06Z</time>
      </trkpt>
      <trkpt lat="36.6775398254394" lon="-5.05083417892456">
        <ele>1289.45068359375</ele>
        <time>2018-07-28T10:04:07Z</time>
      </trkpt>
      <trkpt lat="36.6775245666504" lon="-5.05083799362183">
        <ele>1289.14440917969</ele>
        <time>2018-07-28T10:04:08Z</time>
      </trkpt>
      <trkpt lat="36.6775093078613" lon="-5.05084180831909">
        <ele>1288.83752441406</ele>
        <time>2018-07-28T10:04:09Z</time>
      </trkpt>
      <trkpt lat="36.6774978637695" lon="-5.05084419250488">
        <ele>1288.6279296875</ele>
        <time>2018-07-28T10:04:10Z</time>
      </trkpt>
      <trkpt lat="36.6774864196777" lon="-5.05084609985352">
        <ele>1288.45825195312</ele>
        <time>2018-07-28T10:04:11Z</time>
      </trkpt>
      <trkpt lat="36.6774711608887" lon="-5.05084800720215">
        <ele>1288.25317382812</ele>
        <time>2018-07-28T10:04:12Z</time>
      </trkpt>
      <trkpt lat="36.6774597167969" lon="-5.05084896087646">
        <ele>1288.11511230469</ele>
        <time>2018-07-28T10:04:13Z</time>
      </trkpt>
      <trkpt lat="36.6774482727051" lon="-5.05084991455078">
        <ele>1287.97729492188</ele>
        <time>2018-07-28T10:04:14Z</time>
      </trkpt>
      <trkpt lat="36.6774368286133" lon="-5.05085182189941">
        <ele>1287.80969238281</ele>
        <time>2018-07-28T10:04:15Z</time>
      </trkpt>
      <trkpt lat="36.6774253845215" lon="-5.05085182189941">
        <ele>1287.70251464844</ele>
        <time>2018-07-28T10:04:16Z</time>
      </trkpt>
      <trkpt lat="36.6774139404297" lon="-5.05085277557373">
        <ele>1287.56555175781</ele>
        <time>2018-07-28T10:04:17Z</time>
      </trkpt>
      <trkpt lat="36.6774024963379" lon="-5.05085182189941">
        <ele>1287.48828125</ele>
        <time>2018-07-28T10:04:18Z</time>
      </trkpt>
      <trkpt lat="36.6773910522461" lon="-5.0508542060852">
        <ele>1287.30725097656</ele>
        <time>2018-07-28T10:04:19Z</time>
      </trkpt>
      <trkpt lat="36.677375793457" lon="-5.05085182189941">
        <ele>1287.23840332031</ele>
        <time>2018-07-28T10:04:20Z</time>
      </trkpt>
      <trkpt lat="36.6773567199707" lon="-5.05085182189941">
        <ele>1287.05981445312</ele>
        <time>2018-07-28T10:04:21Z</time>
      </trkpt>
      <trkpt lat="36.6773414611816" lon="-5.05084991455078">
        <ele>1286.97485351562</ele>
        <time>2018-07-28T10:04:22Z</time>
      </trkpt>
      <trkpt lat="36.6773300170898" lon="-5.05084991455078">
        <ele>1286.86743164062</ele>
        <time>2018-07-28T10:04:23Z</time>
      </trkpt>
      <trkpt lat="36.6773147583008" lon="-5.05084991455078">
        <ele>1286.72424316406</ele>
        <time>2018-07-28T10:04:24Z</time>
      </trkpt>
      <trkpt lat="36.677303314209" lon="-5.05084991455078">
        <ele>1286.61682128906</ele>
        <time>2018-07-28T10:04:25Z</time>
      </trkpt>
      <trkpt lat="36.6772918701172" lon="-5.05084896087646">
        <ele>1286.53771972656</ele>
        <time>2018-07-28T10:04:26Z</time>
      </trkpt>
      <trkpt lat="36.6772842407227" lon="-5.05084991455078">
        <ele>1286.43786621094</ele>
        <time>2018-07-28T10:04:27Z</time>
      </trkpt>
      <trkpt lat="36.6772804260254" lon="-5.05085182189941">
        <ele>1286.345703125</ele>
        <time>2018-07-28T10:04:28Z</time>
      </trkpt>
      <trkpt lat="36.6772804260254" lon="-5.05085277557373">
        <ele>1286.31750488281</ele>
        <time>2018-07-28T10:04:29Z</time>
      </trkpt>
      <trkpt lat="36.6772727966309" lon="-5.05084991455078">
        <ele>1286.33044433594</ele>
        <time>2018-07-28T10:04:30Z</time>
      </trkpt>
      <trkpt lat="36.6772651672363" lon="-5.05084609985352">
        <ele>1286.37084960938</ele>
        <time>2018-07-28T10:04:31Z</time>
      </trkpt>
      <trkpt lat="36.6772537231445" lon="-5.05084180831909">
        <ele>1286.38818359375</ele>
        <time>2018-07-28T10:04:32Z</time>
      </trkpt>
      <trkpt lat="36.6772422790527" lon="-5.05083799362183">
        <ele>1286.39050292969</ele>
        <time>2018-07-28T10:04:33Z</time>
      </trkpt>
      <trkpt lat="36.6772270202637" lon="-5.05083513259888">
        <ele>1286.32751464844</ele>
        <time>2018-07-28T10:04:34Z</time>
      </trkpt>
      <trkpt lat="36.6772155761719" lon="-5.05083084106445">
        <ele>1286.32495117188</ele>
        <time>2018-07-28T10:04:35Z</time>
      </trkpt>
      <trkpt lat="36.6772003173828" lon="-5.05082607269287">
        <ele>1286.28198242188</ele>
        <time>2018-07-28T10:04:36Z</time>
      </trkpt>
      <trkpt lat="36.677188873291" lon="-5.05081987380981">
        <ele>1286.30432128906</ele>
        <time>2018-07-28T10:04:37Z</time>
      </trkpt>
      <trkpt lat="36.6771774291992" lon="-5.05081510543823">
        <ele>1286.29284667969</ele>
        <time>2018-07-28T10:04:38Z</time>
      </trkpt>
      <trkpt lat="36.6771697998047" lon="-5.05080890655518">
        <ele>1286.34777832031</ele>
        <time>2018-07-28T10:04:39Z</time>
      </trkpt>
      <trkpt lat="36.6771583557129" lon="-5.05080223083496">
        <ele>1286.37109375</ele>
        <time>2018-07-28T10:04:40Z</time>
      </trkpt>
      <trkpt lat="36.6771469116211" lon="-5.05079507827759">
        <ele>1286.40087890625</ele>
        <time>2018-07-28T10:04:41Z</time>
      </trkpt>
      <trkpt lat="36.6771392822266" lon="-5.0507869720459">
        <ele>1286.48706054688</ele>
        <time>2018-07-28T10:04:42Z</time>
      </trkpt>
      <trkpt lat="36.6771278381348" lon="-5.05077886581421">
        <ele>1286.52893066406</ele>
        <time>2018-07-28T10:04:43Z</time>
      </trkpt>
      <trkpt lat="36.6771202087402" lon="-5.05077219009399">
        <ele>1286.57995605469</ele>
        <time>2018-07-28T10:04:44Z</time>
      </trkpt>
      <trkpt lat="36.6771087646484" lon="-5.05076503753662">
        <ele>1286.59545898438</ele>
        <time>2018-07-28T10:04:45Z</time>
      </trkpt>
      <trkpt lat="36.6770973205566" lon="-5.05075979232788">
        <ele>1286.56994628906</ele>
        <time>2018-07-28T10:04:46Z</time>
      </trkpt>
      <trkpt lat="36.6770858764648" lon="-5.05075883865356">
        <ele>1286.45910644531</ele>
        <time>2018-07-28T10:04:47Z</time>
      </trkpt>
      <trkpt lat="36.6770706176758" lon="-5.05076122283936">
        <ele>1286.24133300781</ele>
        <time>2018-07-28T10:04:48Z</time>
      </trkpt>
      <trkpt lat="36.677059173584" lon="-5.05076217651367">
        <ele>1286.0947265625</ele>
        <time>2018-07-28T10:04:49Z</time>
      </trkpt>
      <trkpt lat="36.6770439147949" lon="-5.0507640838623">
        <ele>1285.88830566406</ele>
        <time>2018-07-28T10:04:50Z</time>
      </trkpt>
      <trkpt lat="36.6770324707031" lon="-5.05076599121094">
        <ele>1285.72583007812</ele>
        <time>2018-07-28T10:04:51Z</time>
      </trkpt>
      <trkpt lat="36.6770172119141" lon="-5.0507698059082">
        <ele>1285.48815917969</ele>
        <time>2018-07-28T10:04:52Z</time>
      </trkpt>
      <trkpt lat="36.677001953125" lon="-5.05077600479126">
        <ele>1285.2119140625</ele>
        <time>2018-07-28T10:04:53Z</time>
      </trkpt>
      <trkpt lat="36.6769866943359" lon="-5.05078315734863">
        <ele>1284.92395019531</ele>
        <time>2018-07-28T10:04:54Z</time>
      </trkpt>
      <trkpt lat="36.6769714355469" lon="-5.05078887939453">
        <ele>1284.66467285156</ele>
        <time>2018-07-28T10:04:55Z</time>
      </trkpt>
      <trkpt lat="36.6769561767578" lon="-5.05079507827759">
        <ele>1284.40173339844</ele>
        <time>2018-07-28T10:04:56Z</time>
      </trkpt>
      <trkpt lat="36.676944732666" lon="-5.05080318450928">
        <ele>1284.15197753906</ele>
        <time>2018-07-28T10:04:57Z</time>
      </trkpt>
      <trkpt lat="36.676929473877" lon="-5.05081176757812">
        <ele>1283.86059570312</ele>
        <time>2018-07-28T10:04:58Z</time>
      </trkpt>
      <trkpt lat="36.6769142150879" lon="-5.05081987380981">
        <ele>1283.58239746094</ele>
        <time>2018-07-28T10:04:59Z</time>
      </trkpt>
      <trkpt lat="36.6769027709961" lon="-5.0508279800415">
        <ele>1283.34716796875</ele>
        <time>2018-07-28T10:05:00Z</time>
      </trkpt>
      <trkpt lat="36.6768913269043" lon="-5.05083608627319">
        <ele>1283.08923339844</ele>
        <time>2018-07-28T10:05:01Z</time>
      </trkpt>
      <trkpt lat="36.6768760681152" lon="-5.0508451461792">
        <ele>1282.72302246094</ele>
        <time>2018-07-28T10:05:02Z</time>
      </trkpt>
      <trkpt lat="36.6768646240234" lon="-5.0508542060852">
        <ele>1282.39599609375</ele>
        <time>2018-07-28T10:05:03Z</time>
      </trkpt>
      <trkpt lat="36.6768493652344" lon="-5.05086278915405">
        <ele>1282.04797363281</ele>
        <time>2018-07-28T10:05:04Z</time>
      </trkpt>
      <trkpt lat="36.6768379211426" lon="-5.05087089538574">
        <ele>1281.74938964844</ele>
        <time>2018-07-28T10:05:05Z</time>
      </trkpt>
      <trkpt lat="36.6768264770508" lon="-5.05087804794312">
        <ele>1281.47570800781</ele>
        <time>2018-07-28T10:05:06Z</time>
      </trkpt>
      <trkpt lat="36.6768112182617" lon="-5.05088520050049">
        <ele>1281.17016601562</ele>
        <time>2018-07-28T10:05:07Z</time>
      </trkpt>
      <trkpt lat="36.6767997741699" lon="-5.0508918762207">
        <ele>1280.91235351562</ele>
        <time>2018-07-28T10:05:08Z</time>
      </trkpt>
      <trkpt lat="36.6767883300781" lon="-5.05089998245239">
        <ele>1280.62329101562</ele>
        <time>2018-07-28T10:05:09Z</time>
      </trkpt>
      <trkpt lat="36.6767730712891" lon="-5.0509090423584">
        <ele>1280.28173828125</ele>
        <time>2018-07-28T10:05:10Z</time>
      </trkpt>
      <trkpt lat="36.6767616271973" lon="-5.05091714859009">
        <ele>1279.998046875</ele>
        <time>2018-07-28T10:05:11Z</time>
      </trkpt>
      <trkpt lat="36.6767463684082" lon="-5.05092287063599">
        <ele>1279.73864746094</ele>
        <time>2018-07-28T10:05:12Z</time>
      </trkpt>
      <trkpt lat="36.6767349243164" lon="-5.05092716217041">
        <ele>1279.54553222656</ele>
        <time>2018-07-28T10:05:13Z</time>
      </trkpt>
      <trkpt lat="36.6767234802246" lon="-5.05092716217041">
        <ele>1279.44958496094</ele>
        <time>2018-07-28T10:05:14Z</time>
      </trkpt>
      <trkpt lat="36.6767082214356" lon="-5.05092811584473">
        <ele>1279.30053710938</ele>
        <time>2018-07-28T10:05:15Z</time>
      </trkpt>
      <trkpt lat="36.6766967773438" lon="-5.05092620849609">
        <ele>1279.24670410156</ele>
        <time>2018-07-28T10:05:16Z</time>
      </trkpt>
      <trkpt lat="36.6766815185547" lon="-5.05092620849609">
        <ele>1279.11865234375</ele>
        <time>2018-07-28T10:05:17Z</time>
      </trkpt>
      <trkpt lat="36.6766662597656" lon="-5.05092477798462">
        <ele>1279.01965332031</ele>
        <time>2018-07-28T10:05:18Z</time>
      </trkpt>
      <trkpt lat="36.6766548156738" lon="-5.0509238243103">
        <ele>1278.89599609375</ele>
        <time>2018-07-28T10:05:19Z</time>
      </trkpt>
      <trkpt lat="36.6766395568848" lon="-5.05092191696167">
        <ele>1278.7431640625</ele>
        <time>2018-07-28T10:05:20Z</time>
      </trkpt>
      <trkpt lat="36.676628112793" lon="-5.0509181022644">
        <ele>1278.67578125</ele>
        <time>2018-07-28T10:05:21Z</time>
      </trkpt>
      <trkpt lat="36.6766166687012" lon="-5.0509147644043">
        <ele>1278.59594726562</ele>
        <time>2018-07-28T10:05:22Z</time>
      </trkpt>
      <trkpt lat="36.6766052246094" lon="-5.05090999603272">
        <ele>1278.54162597656</ele>
        <time>2018-07-28T10:05:23Z</time>
      </trkpt>
      <trkpt lat="36.6765937805176" lon="-5.05090522766113">
        <ele>1278.48364257812</ele>
        <time>2018-07-28T10:05:24Z</time>
      </trkpt>
      <trkpt lat="36.6765785217285" lon="-5.05090093612671">
        <ele>1278.36206054688</ele>
        <time>2018-07-28T10:05:25Z</time>
      </trkpt>
      <trkpt lat="36.6765670776367" lon="-5.05089616775513">
        <ele>1278.29638671875</ele>
        <time>2018-07-28T10:05:26Z</time>
      </trkpt>
      <trkpt lat="36.6765518188477" lon="-5.05089092254639">
        <ele>1278.18347167969</ele>
        <time>2018-07-28T10:05:27Z</time>
      </trkpt>
      <trkpt lat="36.6765403747559" lon="-5.0508861541748">
        <ele>1278.10986328125</ele>
        <time>2018-07-28T10:05:28Z</time>
      </trkpt>
      <trkpt lat="36.6765251159668" lon="-5.05087995529175">
        <ele>1278.00329589844</ele>
        <time>2018-07-28T10:05:29Z</time>
      </trkpt>
      <trkpt lat="36.676513671875" lon="-5.05087518692017">
        <ele>1277.92126464844</ele>
        <time>2018-07-28T10:05:30Z</time>
      </trkpt>
      <trkpt lat="36.6764984130859" lon="-5.05087089538574">
        <ele>1277.77319335938</ele>
        <time>2018-07-28T10:05:31Z</time>
      </trkpt>
      <trkpt lat="36.6764869689941" lon="-5.05086803436279">
        <ele>1277.65368652344</ele>
        <time>2018-07-28T10:05:32Z</time>
      </trkpt>
      <trkpt lat="36.6764717102051" lon="-5.05086708068848">
        <ele>1277.44763183594</ele>
        <time>2018-07-28T10:05:33Z</time>
      </trkpt>
      <trkpt lat="36.676456451416" lon="-5.05086517333984">
        <ele>1277.25463867188</ele>
        <time>2018-07-28T10:05:34Z</time>
      </trkpt>
      <trkpt lat="36.676441192627" lon="-5.05086183547974">
        <ele>1277.07983398438</ele>
        <time>2018-07-28T10:05:35Z</time>
      </trkpt>
      <trkpt lat="36.6764297485352" lon="-5.05085802078247">
        <ele>1276.96459960938</ele>
        <time>2018-07-28T10:05:36Z</time>
      </trkpt>
      <trkpt lat="36.6764144897461" lon="-5.05085611343384">
        <ele>1276.76428222656</ele>
        <time>2018-07-28T10:05:37Z</time>
      </trkpt>
      <trkpt lat="36.676399230957" lon="-5.05085611343384">
        <ele>1276.53771972656</ele>
        <time>2018-07-28T10:05:38Z</time>
      </trkpt>
      <trkpt lat="36.676383972168" lon="-5.05085897445679">
        <ele>1276.27624511719</ele>
        <time>2018-07-28T10:05:39Z</time>
      </trkpt>
      <trkpt lat="36.6763687133789" lon="-5.05086421966553">
        <ele>1275.98962402344</ele>
        <time>2018-07-28T10:05:40Z</time>
      </trkpt>
      <trkpt lat="36.6763572692871" lon="-5.05086994171143">
        <ele>1275.7578125</ele>
        <time>2018-07-28T10:05:41Z</time>
      </trkpt>
      <trkpt lat="36.676342010498" lon="-5.05087423324585">
        <ele>1275.49169921875</ele>
        <time>2018-07-28T10:05:42Z</time>
      </trkpt>
      <trkpt lat="36.6763305664062" lon="-5.05088090896606">
        <ele>1275.2587890625</ele>
        <time>2018-07-28T10:05:43Z</time>
      </trkpt>
      <trkpt lat="36.6763153076172" lon="-5.05088806152344">
        <ele>1274.97351074219</ele>
        <time>2018-07-28T10:05:44Z</time>
      </trkpt>
      <trkpt lat="36.6763038635254" lon="-5.05089807510376">
        <ele>1274.71984863281</ele>
        <time>2018-07-28T10:05:45Z</time>
      </trkpt>
      <trkpt lat="36.6762886047363" lon="-5.05090713500977">
        <ele>1274.43225097656</ele>
        <time>2018-07-28T10:05:46Z</time>
      </trkpt>
      <trkpt lat="36.6762809753418" lon="-5.05091905593872">
        <ele>1274.22668457031</ele>
        <time>2018-07-28T10:05:47Z</time>
      </trkpt>
      <trkpt lat="36.67626953125" lon="-5.05093002319336">
        <ele>1273.98791503906</ele>
        <time>2018-07-28T10:05:48Z</time>
      </trkpt>
      <trkpt lat="36.6762619018555" lon="-5.05094194412231">
        <ele>1273.79565429688</ele>
        <time>2018-07-28T10:05:49Z</time>
      </trkpt>
      <trkpt lat="36.6762504577637" lon="-5.05095386505127">
        <ele>1273.56518554688</ele>
        <time>2018-07-28T10:05:50Z</time>
      </trkpt>
      <trkpt lat="36.6762351989746" lon="-5.05096817016602">
        <ele>1273.28344726562</ele>
        <time>2018-07-28T10:05:51Z</time>
      </trkpt>
      <trkpt lat="36.6762275695801" lon="-5.05098295211792">
        <ele>1273.09423828125</ele>
        <time>2018-07-28T10:05:52Z</time>
      </trkpt>
      <trkpt lat="36.6762161254883" lon="-5.0509991645813">
        <ele>1272.86413574219</ele>
        <time>2018-07-28T10:05:53Z</time>
      </trkpt>
      <trkpt lat="36.6762084960938" lon="-5.05101490020752">
        <ele>1272.68591308594</ele>
        <time>2018-07-28T10:05:54Z</time>
      </trkpt>
      <trkpt lat="36.6762008666992" lon="-5.05103206634522">
        <ele>1272.5068359375</ele>
        <time>2018-07-28T10:05:55Z</time>
      </trkpt>
      <trkpt lat="36.6761932373047" lon="-5.05104780197144">
        <ele>1272.34484863281</ele>
        <time>2018-07-28T10:05:56Z</time>
      </trkpt>
      <trkpt lat="36.6761894226074" lon="-5.0510630607605">
        <ele>1272.22399902344</ele>
        <time>2018-07-28T10:05:57Z</time>
      </trkpt>
      <trkpt lat="36.6761779785156" lon="-5.05107688903809">
        <ele>1272.05773925781</ele>
        <time>2018-07-28T10:05:58Z</time>
      </trkpt>
      <trkpt lat="36.6761703491211" lon="-5.05109119415283">
        <ele>1271.92639160156</ele>
        <time>2018-07-28T10:05:59Z</time>
      </trkpt>
      <trkpt lat="36.6761627197266" lon="-5.05110692977905">
        <ele>1271.79528808594</ele>
        <time>2018-07-28T10:06:00Z</time>
      </trkpt>
      <trkpt lat="36.676155090332" lon="-5.05112314224243">
        <ele>1271.669921875</ele>
        <time>2018-07-28T10:06:01Z</time>
      </trkpt>
      <trkpt lat="36.6761474609375" lon="-5.05113983154297">
        <ele>1271.55065917969</ele>
        <time>2018-07-28T10:06:02Z</time>
      </trkpt>
      <trkpt lat="36.676139831543" lon="-5.05115699768066">
        <ele>1271.43774414062</ele>
        <time>2018-07-28T10:06:03Z</time>
      </trkpt>
      <trkpt lat="36.6761322021484" lon="-5.05117321014404">
        <ele>1271.33728027344</ele>
        <time>2018-07-28T10:06:04Z</time>
      </trkpt>
      <trkpt lat="36.6761283874512" lon="-5.05118894577026">
        <ele>1271.26135253906</ele>
        <time>2018-07-28T10:06:05Z</time>
      </trkpt>
      <trkpt lat="36.6761207580566" lon="-5.05120515823364">
        <ele>1271.17517089844</ele>
        <time>2018-07-28T10:06:06Z</time>
      </trkpt>
      <trkpt lat="36.6761131286621" lon="-5.0512228012085">
        <ele>1271.09252929688</ele>
        <time>2018-07-28T10:06:07Z</time>
      </trkpt>
      <trkpt lat="36.6761054992676" lon="-5.05123805999756">
        <ele>1271.02587890625</ele>
        <time>2018-07-28T10:06:08Z</time>
      </trkpt>
      <trkpt lat="36.676097869873" lon="-5.05125522613525">
        <ele>1270.96179199219</ele>
        <time>2018-07-28T10:06:09Z</time>
      </trkpt>
      <trkpt lat="36.6760902404785" lon="-5.05126905441284">
        <ele>1270.91467285156</ele>
        <time>2018-07-28T10:06:10Z</time>
      </trkpt>
      <trkpt lat="36.676082611084" lon="-5.0512809753418">
        <ele>1270.87878417969</ele>
        <time>2018-07-28T10:06:11Z</time>
      </trkpt>
      <trkpt lat="36.6760749816894" lon="-5.05129289627075">
        <ele>1270.84899902344</ele>
        <time>2018-07-28T10:06:12Z</time>
      </trkpt>
      <trkpt lat="36.6760711669922" lon="-5.05130386352539">
        <ele>1270.82702636719</ele>
        <time>2018-07-28T10:06:13Z</time>
      </trkpt>
      <trkpt lat="36.6760635375977" lon="-5.05131578445435">
        <ele>1270.80749511719</ele>
        <time>2018-07-28T10:06:14Z</time>
      </trkpt>
      <trkpt lat="36.6760559082031" lon="-5.05133104324341">
        <ele>1270.78942871094</ele>
        <time>2018-07-28T10:06:15Z</time>
      </trkpt>
      <trkpt lat="36.6760482788086" lon="-5.05134582519531">
        <ele>1270.77966308594</ele>
        <time>2018-07-28T10:06:16Z</time>
      </trkpt>
      <trkpt lat="36.6760444641113" lon="-5.05136108398438">
        <ele>1270.76977539062</ele>
        <time>2018-07-28T10:06:17Z</time>
      </trkpt>
      <trkpt lat="36.6760368347168" lon="-5.05137300491333">
        <ele>1270.77526855469</ele>
        <time>2018-07-28T10:06:18Z</time>
      </trkpt>
      <trkpt lat="36.6760292053223" lon="-5.05138778686523">
        <ele>1270.78540039062</ele>
        <time>2018-07-28T10:06:19Z</time>
      </trkpt>
      <trkpt lat="36.676025390625" lon="-5.05140495300293">
        <ele>1270.78979492188</ele>
        <time>2018-07-28T10:06:20Z</time>
      </trkpt>
      <trkpt lat="36.6760215759277" lon="-5.05142116546631">
        <ele>1270.79870605469</ele>
        <time>2018-07-28T10:06:21Z</time>
      </trkpt>
      <trkpt lat="36.6760177612305" lon="-5.05143785476685">
        <ele>1270.81164550781</ele>
        <time>2018-07-28T10:06:22Z</time>
      </trkpt>
      <trkpt lat="36.6760101318359" lon="-5.05145406723022">
        <ele>1270.84765625</ele>
        <time>2018-07-28T10:06:23Z</time>
      </trkpt>
      <trkpt lat="36.6760063171387" lon="-5.05147218704224">
        <ele>1270.87158203125</ele>
        <time>2018-07-28T10:06:24Z</time>
      </trkpt>
      <trkpt lat="36.6760025024414" lon="-5.05148792266846">
        <ele>1270.89904785156</ele>
        <time>2018-07-28T10:06:25Z</time>
      </trkpt>
      <trkpt lat="36.6759986877441" lon="-5.05150318145752">
        <ele>1270.93017578125</ele>
        <time>2018-07-28T10:06:26Z</time>
      </trkpt>
      <trkpt lat="36.6759948730469" lon="-5.05151796340942">
        <ele>1270.96484375</ele>
        <time>2018-07-28T10:06:27Z</time>
      </trkpt>
      <trkpt lat="36.6759872436523" lon="-5.05153512954712">
        <ele>1271.03442382812</ele>
        <time>2018-07-28T10:06:28Z</time>
      </trkpt>
      <trkpt lat="36.6759796142578" lon="-5.05155277252197">
        <ele>1271.11303710938</ele>
        <time>2018-07-28T10:06:29Z</time>
      </trkpt>
      <trkpt lat="36.6759757995606" lon="-5.05156993865967">
        <ele>1271.16650390625</ele>
        <time>2018-07-28T10:06:30Z</time>
      </trkpt>
      <trkpt lat="36.6759643554688" lon="-5.05158615112305">
        <ele>1271.29406738281</ele>
        <time>2018-07-28T10:06:31Z</time>
      </trkpt>
      <trkpt lat="36.6759567260742" lon="-5.05159997940064">
        <ele>1271.39172363281</ele>
        <time>2018-07-28T10:06:32Z</time>
      </trkpt>
      <trkpt lat="36.6759490966797" lon="-5.05161380767822">
        <ele>1271.49633789062</ele>
        <time>2018-07-28T10:06:33Z</time>
      </trkpt>
      <trkpt lat="36.6759376525879" lon="-5.05162715911865">
        <ele>1271.64758300781</ele>
        <time>2018-07-28T10:06:34Z</time>
      </trkpt>
      <trkpt lat="36.6759300231934" lon="-5.05164194107056">
        <ele>1271.7705078125</ele>
        <time>2018-07-28T10:06:35Z</time>
      </trkpt>
      <trkpt lat="36.6759223937988" lon="-5.05165576934814">
        <ele>1271.89807128906</ele>
        <time>2018-07-28T10:06:36Z</time>
      </trkpt>
      <trkpt lat="36.6759147644043" lon="-5.05167102813721">
        <ele>1271.95593261719</ele>
        <time>2018-07-28T10:06:37Z</time>
      </trkpt>
      <trkpt lat="36.6759033203125" lon="-5.05168390274048">
        <ele>1271.89807128906</ele>
        <time>2018-07-28T10:06:38Z</time>
      </trkpt>
      <trkpt lat="36.675895690918" lon="-5.05169916152954">
        <ele>1271.76049804688</ele>
        <time>2018-07-28T10:06:39Z</time>
      </trkpt>
      <trkpt lat="36.6758880615234" lon="-5.05171203613281">
        <ele>1271.66137695312</ele>
        <time>2018-07-28T10:06:40Z</time>
      </trkpt>
      <trkpt lat="36.6758766174316" lon="-5.05172777175903">
        <ele>1271.57019042969</ele>
        <time>2018-07-28T10:06:41Z</time>
      </trkpt>
      <trkpt lat="36.6758651733398" lon="-5.05174112319946">
        <ele>1271.51843261719</ele>
        <time>2018-07-28T10:06:42Z</time>
      </trkpt>
      <trkpt lat="36.6758575439453" lon="-5.05175495147705">
        <ele>1271.41357421875</ele>
        <time>2018-07-28T10:06:43Z</time>
      </trkpt>
      <trkpt lat="36.6758422851562" lon="-5.05177021026611">
        <ele>1271.39086914062</ele>
        <time>2018-07-28T10:06:44Z</time>
      </trkpt>
      <trkpt lat="36.6758308410644" lon="-5.05178499221802">
        <ele>1271.27685546875</ele>
        <time>2018-07-28T10:06:45Z</time>
      </trkpt>
      <trkpt lat="36.6758193969727" lon="-5.05179786682129">
        <ele>1271.005859375</ele>
        <time>2018-07-28T10:06:46Z</time>
      </trkpt>
      <trkpt lat="36.6758041381836" lon="-5.05180978775024">
        <ele>1270.72497558594</ele>
        <time>2018-07-28T10:06:47Z</time>
      </trkpt>
      <trkpt lat="36.6757965087891" lon="-5.05182313919067">
        <ele>1270.48449707031</ele>
        <time>2018-07-28T10:06:48Z</time>
      </trkpt>
      <trkpt lat="36.6757850646973" lon="-5.05183506011963">
        <ele>1270.24047851562</ele>
        <time>2018-07-28T10:06:49Z</time>
      </trkpt>
      <trkpt lat="36.6757736206055" lon="-5.05184698104858">
        <ele>1270.00073242188</ele>
        <time>2018-07-28T10:06:50Z</time>
      </trkpt>
      <trkpt lat="36.6757659912109" lon="-5.05185604095459">
        <ele>1269.82849121094</ele>
        <time>2018-07-28T10:06:51Z</time>
      </trkpt>
      <trkpt lat="36.6757545471191" lon="-5.0518651008606">
        <ele>1269.6337890625</ele>
        <time>2018-07-28T10:06:52Z</time>
      </trkpt>
      <trkpt lat="36.6757469177246" lon="-5.0518741607666">
        <ele>1269.46655273438</ele>
        <time>2018-07-28T10:06:53Z</time>
      </trkpt>
      <trkpt lat="36.6757392883301" lon="-5.05188512802124">
        <ele>1269.27673339844</ele>
        <time>2018-07-28T10:06:54Z</time>
      </trkpt>
      <trkpt lat="36.6757316589356" lon="-5.0518970489502">
        <ele>1269.07751464844</ele>
        <time>2018-07-28T10:06:55Z</time>
      </trkpt>
      <trkpt lat="36.6757202148438" lon="-5.05190801620483">
        <ele>1268.87109375</ele>
        <time>2018-07-28T10:06:56Z</time>
      </trkpt>
      <trkpt lat="36.675708770752" lon="-5.05191993713379">
        <ele>1268.65686035156</ele>
        <time>2018-07-28T10:06:57Z</time>
      </trkpt>
      <trkpt lat="36.6756973266602" lon="-5.05193090438843">
        <ele>1268.45861816406</ele>
        <time>2018-07-28T10:06:58Z</time>
      </trkpt>
      <trkpt lat="36.6756896972656" lon="-5.0519437789917">
        <ele>1268.26110839844</ele>
        <time>2018-07-28T10:06:59Z</time>
      </trkpt>
      <trkpt lat="36.6756782531738" lon="-5.0519552230835">
        <ele>1268.06481933594</ele>
        <time>2018-07-28T10:07:00Z</time>
      </trkpt>
      <trkpt lat="36.675666809082" lon="-5.05196809768677">
        <ele>1267.85583496094</ele>
        <time>2018-07-28T10:07:01Z</time>
      </trkpt>
      <trkpt lat="36.6756591796875" lon="-5.05197906494141">
        <ele>1267.69140625</ele>
        <time>2018-07-28T10:07:02Z</time>
      </trkpt>
      <trkpt lat="36.675651550293" lon="-5.05199003219604">
        <ele>1267.52954101562</ele>
        <time>2018-07-28T10:07:03Z</time>
      </trkpt>
      <trkpt lat="36.6756401062012" lon="-5.052001953125">
        <ele>1267.34313964844</ele>
        <time>2018-07-28T10:07:04Z</time>
      </trkpt>
      <trkpt lat="36.6756324768066" lon="-5.05201721191406">
        <ele>1267.13916015625</ele>
        <time>2018-07-28T10:07:05Z</time>
      </trkpt>
      <trkpt lat="36.6756210327148" lon="-5.05203104019165">
        <ele>1266.94030761719</ele>
        <time>2018-07-28T10:07:06Z</time>
      </trkpt>
      <trkpt lat="36.6756134033203" lon="-5.05204296112061">
        <ele>1266.78088378906</ele>
        <time>2018-07-28T10:07:07Z</time>
      </trkpt>
      <trkpt lat="36.6756057739258" lon="-5.05205488204956">
        <ele>1266.62451171875</ele>
        <time>2018-07-28T10:07:08Z</time>
      </trkpt>
      <trkpt lat="36.6755981445312" lon="-5.05206680297852">
        <ele>1266.47094726562</ele>
        <time>2018-07-28T10:07:09Z</time>
      </trkpt>
      <trkpt lat="36.6755905151367" lon="-5.05208015441894">
        <ele>1266.30505371094</ele>
        <time>2018-07-28T10:07:10Z</time>
      </trkpt>
      <trkpt lat="36.6755867004394" lon="-5.05209302902222">
        <ele>1266.15832519531</ele>
        <time>2018-07-28T10:07:11Z</time>
      </trkpt>
      <trkpt lat="36.6755790710449" lon="-5.05210494995117">
        <ele>1266.01293945312</ele>
        <time>2018-07-28T10:07:12Z</time>
      </trkpt>
      <trkpt lat="36.6755714416504" lon="-5.05211877822876">
        <ele>1265.85095214844</ele>
        <time>2018-07-28T10:07:13Z</time>
      </trkpt>
      <trkpt lat="36.6755638122559" lon="-5.05213594436646">
        <ele>1265.65844726562</ele>
        <time>2018-07-28T10:07:14Z</time>
      </trkpt>
      <trkpt lat="36.6755561828613" lon="-5.05215215682983">
        <ele>1265.47961425781</ele>
        <time>2018-07-28T10:07:15Z</time>
      </trkpt>
      <trkpt lat="36.6755523681641" lon="-5.05216979980469">
        <ele>1265.29675292969</ele>
        <time>2018-07-28T10:07:16Z</time>
      </trkpt>
      <trkpt lat="36.6755447387695" lon="-5.05218696594238">
        <ele>1265.11560058594</ele>
        <time>2018-07-28T10:07:17Z</time>
      </trkpt>
      <trkpt lat="36.6755332946777" lon="-5.05220508575439">
        <ele>1264.92529296875</ele>
        <time>2018-07-28T10:07:18Z</time>
      </trkpt>
      <trkpt lat="36.6755256652832" lon="-5.05222082138062">
        <ele>1264.76721191406</ele>
        <time>2018-07-28T10:07:19Z</time>
      </trkpt>
      <trkpt lat="36.6755218505859" lon="-5.05223703384399">
        <ele>1264.61059570312</ele>
        <time>2018-07-28T10:07:20Z</time>
      </trkpt>
      <trkpt lat="36.6755142211914" lon="-5.05225276947022">
        <ele>1264.45922851562</ele>
        <time>2018-07-28T10:07:21Z</time>
      </trkpt>
      <trkpt lat="36.6755065917969" lon="-5.05226612091064">
        <ele>1264.33361816406</ele>
        <time>2018-07-28T10:07:22Z</time>
      </trkpt>
      <trkpt lat="36.6754989624023" lon="-5.05228185653686">
        <ele>1264.18957519531</ele>
        <time>2018-07-28T10:07:23Z</time>
      </trkpt>
      <trkpt lat="36.6754913330078" lon="-5.05229711532593">
        <ele>1264.0537109375</ele>
        <time>2018-07-28T10:07:24Z</time>
      </trkpt>
      <trkpt lat="36.6754875183106" lon="-5.05231380462646">
        <ele>1263.90625</ele>
        <time>2018-07-28T10:07:25Z</time>
      </trkpt>
      <trkpt lat="36.6754837036133" lon="-5.05232906341553">
        <ele>1263.7734375</ele>
        <time>2018-07-28T10:07:26Z</time>
      </trkpt>
      <trkpt lat="36.6754837036133" lon="-5.05234718322754">
        <ele>1263.61291503906</ele>
        <time>2018-07-28T10:07:27Z</time>
      </trkpt>
      <trkpt lat="36.6754837036133" lon="-5.05236387252808">
        <ele>1263.46496582031</ele>
        <time>2018-07-28T10:07:28Z</time>
      </trkpt>
      <trkpt lat="36.6754837036133" lon="-5.05237913131714">
        <ele>1263.32983398438</ele>
        <time>2018-07-28T10:07:29Z</time>
      </trkpt>
      <trkpt lat="36.675479888916" lon="-5.05239295959473">
        <ele>1263.21447753906</ele>
        <time>2018-07-28T10:07:30Z</time>
      </trkpt>
      <trkpt lat="36.6754722595215" lon="-5.05240678787231">
        <ele>1263.10900878906</ele>
        <time>2018-07-28T10:07:31Z</time>
      </trkpt>
      <trkpt lat="36.6754722595215" lon="-5.05242204666138">
        <ele>1262.9765625</ele>
        <time>2018-07-28T10:07:32Z</time>
      </trkpt>
      <trkpt lat="36.6754684448242" lon="-5.05243682861328">
        <ele>1262.85815429688</ele>
        <time>2018-07-28T10:07:33Z</time>
      </trkpt>
      <trkpt lat="36.6754608154297" lon="-5.05245018005371">
        <ele>1262.76452636719</ele>
        <time>2018-07-28T10:07:34Z</time>
      </trkpt>
      <trkpt lat="36.6754570007324" lon="-5.05246114730835">
        <ele>1262.6826171875</ele>
        <time>2018-07-28T10:07:35Z</time>
      </trkpt>
      <trkpt lat="36.6754531860352" lon="-5.05247020721436">
        <ele>1262.6181640625</ele>
        <time>2018-07-28T10:07:36Z</time>
      </trkpt>
      <trkpt lat="36.6754493713379" lon="-5.05248117446899">
        <ele>1262.53881835938</ele>
        <time>2018-07-28T10:07:37Z</time>
      </trkpt>
      <trkpt lat="36.6754531860352" lon="-5.05249404907227">
        <ele>1262.41833496094</ele>
        <time>2018-07-28T10:07:38Z</time>
      </trkpt>
      <trkpt lat="36.6754531860352" lon="-5.05250692367554">
        <ele>1262.26806640625</ele>
        <time>2018-07-28T10:07:39Z</time>
      </trkpt>
      <trkpt lat="36.6754531860352" lon="-5.05251979827881">
        <ele>1262.08129882812</ele>
        <time>2018-07-28T10:07:40Z</time>
      </trkpt>
      <trkpt lat="36.6754493713379" lon="-5.05253314971924">
        <ele>1261.90173339844</ele>
        <time>2018-07-28T10:07:41Z</time>
      </trkpt>
      <trkpt lat="36.6754455566406" lon="-5.05254697799683">
        <ele>1261.71557617188</ele>
        <time>2018-07-28T10:07:42Z</time>
      </trkpt>
      <trkpt lat="36.6754417419434" lon="-5.0525598526001">
        <ele>1261.54357910156</ele>
        <time>2018-07-28T10:07:43Z</time>
      </trkpt>
      <trkpt lat="36.6754341125488" lon="-5.05257511138916">
        <ele>1261.35180664062</ele>
        <time>2018-07-28T10:07:44Z</time>
      </trkpt>
      <trkpt lat="36.6754264831543" lon="-5.05258893966675">
        <ele>1261.18139648438</ele>
        <time>2018-07-28T10:07:45Z</time>
      </trkpt>
      <trkpt lat="36.675422668457" lon="-5.05260515213013">
        <ele>1260.96240234375</ele>
        <time>2018-07-28T10:07:46Z</time>
      </trkpt>
      <trkpt lat="36.6754188537598" lon="-5.05262184143066">
        <ele>1260.73681640625</ele>
        <time>2018-07-28T10:07:47Z</time>
      </trkpt>
      <trkpt lat="36.6754150390625" lon="-5.05263900756836">
        <ele>1260.50476074219</ele>
        <time>2018-07-28T10:07:48Z</time>
      </trkpt>
      <trkpt lat="36.6754112243652" lon="-5.05265378952026">
        <ele>1260.30737304688</ele>
        <time>2018-07-28T10:07:49Z</time>
      </trkpt>
      <trkpt lat="36.675407409668" lon="-5.05266809463501">
        <ele>1260.1171875</ele>
        <time>2018-07-28T10:07:50Z</time>
      </trkpt>
    </trkseg>
  </trk>
</gpx>
